<?xml version='1.0' encoding='UTF-8'?><gpx version="1.1" creator="JPX - https://github.com/jenetics/jpx" xmlns="http://www.topografix.com/GPX/1/1"><trk><trkseg><trkpt lat="43.1723734" lon="13.6609625"><ele>77.66666666666667</ele><time>2026-03-22T09:11:21.9Z</time></trkpt><trkpt lat="43.1723216" lon="13.6607007"><ele>77.33333333333334</ele><time>2026-03-22T09:11:22.9Z</time></trkpt><trkpt lat="43.1722852" lon="13.6604303"><ele>77.0</ele><time>2026-03-22T09:11:23.9Z</time></trkpt><trkpt lat="43.1722579" lon="13.6601635"><ele>77.0</ele><time>2026-03-22T09:11:24.9Z</time></trkpt><trkpt lat="43.1722264" lon="13.6598905"><ele>77.0</ele><time>2026-03-22T09:11:25.9Z</time></trkpt><trkpt lat="43.1722015" lon="13.6596171"><ele>77.0</ele><time>2026-03-22T09:11:26.9Z</time></trkpt><trkpt lat="43.1721831" lon="13.6593435"><ele>77.33333333333334</ele><time>2026-03-22T09:11:27.9Z</time></trkpt><trkpt lat="43.1721662" lon="13.6590748"><ele>77.66666666666667</ele><time>2026-03-22T09:11:28.9Z</time></trkpt><trkpt lat="43.1721459" lon="13.6587978"><ele>78.0</ele><time>2026-03-22T09:11:29.899Z</time></trkpt><trkpt lat="43.1721367" lon="13.6585173"><ele>78.66666666666667</ele><time>2026-03-22T09:11:30.899Z</time></trkpt><trkpt lat="43.1721174" lon="13.6582472"><ele>79.33333333333334</ele><time>2026-03-22T09:11:31.9Z</time></trkpt><trkpt lat="43.1720805" lon="13.6579852"><ele>80.0</ele><time>2026-03-22T09:11:32.9Z</time></trkpt><trkpt lat="43.1720282" lon="13.6577266"><ele>80.33333333333334</ele><time>2026-03-22T09:11:33.9Z</time></trkpt><trkpt lat="43.1719779" lon="13.6574699"><ele>80.66666666666667</ele><time>2026-03-22T09:11:34.9Z</time></trkpt><trkpt lat="43.1719137" lon="13.6572106"><ele>81.0</ele><time>2026-03-22T09:11:35.9Z</time></trkpt><trkpt lat="43.1718303" lon="13.6569607"><ele>80.33333333333333</ele><time>2026-03-22T09:11:36.9Z</time></trkpt><trkpt lat="43.1717421" lon="13.6567013"><ele>79.66666666666666</ele><time>2026-03-22T09:11:37.9Z</time></trkpt><trkpt lat="43.1716309" lon="13.6564386"><ele>79.0</ele><time>2026-03-22T09:11:38.898Z</time></trkpt><trkpt lat="43.1715007" lon="13.6561977"><ele>79.33333333333333</ele><time>2026-03-22T09:11:39.899Z</time></trkpt><trkpt lat="43.1713425" lon="13.6559693"><ele>79.66666666666667</ele><time>2026-03-22T09:11:40.899Z</time></trkpt><trkpt lat="43.1711974" lon="13.6557697"><ele>80.0</ele><time>2026-03-22T09:11:41.898Z</time></trkpt><trkpt lat="43.171065" lon="13.6555843"><ele>80.0</ele><time>2026-03-22T09:11:42.898Z</time></trkpt><trkpt lat="43.1709214" lon="13.6554025"><ele>80.0</ele><time>2026-03-22T09:11:43.899Z</time></trkpt><trkpt lat="43.1707595" lon="13.6552231"><ele>80.0</ele><time>2026-03-22T09:11:44.898Z</time></trkpt><trkpt lat="43.170596" lon="13.6550374"><ele>80.66666666666667</ele><time>2026-03-22T09:11:45.899Z</time></trkpt><trkpt lat="43.1704301" lon="13.6548551"><ele>81.33333333333333</ele><time>2026-03-22T09:11:46.899Z</time></trkpt><trkpt lat="43.1702667" lon="13.6546698"><ele>82.0</ele><time>2026-03-22T09:11:47.899Z</time></trkpt><trkpt lat="43.1701068" lon="13.6544751"><ele>82.33333333333333</ele><time>2026-03-22T09:11:48.899Z</time></trkpt><trkpt lat="43.1699515" lon="13.6542921"><ele>82.66666666666667</ele><time>2026-03-22T09:11:49.898Z</time></trkpt><trkpt lat="43.1697962" lon="13.654108"><ele>83.0</ele><time>2026-03-22T09:11:50.899Z</time></trkpt><trkpt lat="43.169641" lon="13.6539232"><ele>83.0</ele><time>2026-03-22T09:11:51.899Z</time></trkpt><trkpt lat="43.1694884" lon="13.653738"><ele>83.0</ele><time>2026-03-22T09:11:52.899Z</time></trkpt><trkpt lat="43.1693277" lon="13.6535534"><ele>83.0</ele><time>2026-03-22T09:11:53.899Z</time></trkpt><trkpt lat="43.1691669" lon="13.6533769"><ele>82.66666666666667</ele><time>2026-03-22T09:11:54.898Z</time></trkpt><trkpt lat="43.1690024" lon="13.6531978"><ele>82.33333333333333</ele><time>2026-03-22T09:11:55.898Z</time></trkpt><trkpt lat="43.1688403" lon="13.6530195"><ele>82.0</ele><time>2026-03-22T09:11:56.899Z</time></trkpt><trkpt lat="43.168673" lon="13.6528483"><ele>82.33333333333333</ele><time>2026-03-22T09:11:57.899Z</time></trkpt><trkpt lat="43.1684945" lon="13.6526821"><ele>82.66666666666667</ele><time>2026-03-22T09:11:58.899Z</time></trkpt><trkpt lat="43.1683141" lon="13.6525149"><ele>83.0</ele><time>2026-03-22T09:11:59.899Z</time></trkpt><trkpt lat="43.1681295" lon="13.6523533"><ele>83.0</ele><time>2026-03-22T09:12:00.898Z</time></trkpt><trkpt lat="43.1679491" lon="13.6521926"><ele>83.0</ele><time>2026-03-22T09:12:01.898Z</time></trkpt><trkpt lat="43.167773" lon="13.652025"><ele>83.0</ele><time>2026-03-22T09:12:02.899Z</time></trkpt><trkpt lat="43.1675981" lon="13.6518641"><ele>82.33333333333334</ele><time>2026-03-22T09:12:03.899Z</time></trkpt><trkpt lat="43.1674181" lon="13.6517038"><ele>81.66666666666667</ele><time>2026-03-22T09:12:04.898Z</time></trkpt><trkpt lat="43.1672332" lon="13.6515268"><ele>81.0</ele><time>2026-03-22T09:12:05.899Z</time></trkpt><trkpt lat="43.1670603" lon="13.6513669"><ele>81.0</ele><time>2026-03-22T09:12:06.899Z</time></trkpt><trkpt lat="43.1668796" lon="13.6511941"><ele>81.0</ele><time>2026-03-22T09:12:07.899Z</time></trkpt><trkpt lat="43.1667043" lon="13.6510338"><ele>81.0</ele><time>2026-03-22T09:12:08.899Z</time></trkpt><trkpt lat="43.166533" lon="13.6508573"><ele>81.66666666666667</ele><time>2026-03-22T09:12:09.899Z</time></trkpt><trkpt lat="43.1663634" lon="13.6506757"><ele>82.33333333333334</ele><time>2026-03-22T09:12:10.899Z</time></trkpt><trkpt lat="43.1661992" lon="13.6504912"><ele>83.0</ele><time>2026-03-22T09:12:11.899Z</time></trkpt><trkpt lat="43.1660547" lon="13.6502929"><ele>82.33333333333334</ele><time>2026-03-22T09:12:12.898Z</time></trkpt><trkpt lat="43.1659197" lon="13.6500808"><ele>81.66666666666667</ele><time>2026-03-22T09:12:13.898Z</time></trkpt><trkpt lat="43.1657851" lon="13.6498664"><ele>81.0</ele><time>2026-03-22T09:12:14.899Z</time></trkpt><trkpt lat="43.165651" lon="13.6496587"><ele>82.66666666666667</ele><time>2026-03-22T09:12:15.899Z</time></trkpt><trkpt lat="43.1655181" lon="13.6494395"><ele>84.33333333333334</ele><time>2026-03-22T09:12:16.898Z</time></trkpt><trkpt lat="43.1653813" lon="13.6492275"><ele>86.0</ele><time>2026-03-22T09:12:17.898Z</time></trkpt><trkpt lat="43.1652423" lon="13.6490179"><ele>86.0</ele><time>2026-03-22T09:12:18.899Z</time></trkpt><trkpt lat="43.165103" lon="13.6488078"><ele>86.0</ele><time>2026-03-22T09:12:19.898Z</time></trkpt><trkpt lat="43.1649713" lon="13.6485937"><ele>86.0</ele><time>2026-03-22T09:12:20.899Z</time></trkpt><trkpt lat="43.1648401" lon="13.6483767"><ele>85.33333333333334</ele><time>2026-03-22T09:12:21.899Z</time></trkpt><trkpt lat="43.1647011" lon="13.648145"><ele>84.66666666666667</ele><time>2026-03-22T09:12:22.899Z</time></trkpt><trkpt lat="43.1645868" lon="13.6479074"><ele>84.0</ele><time>2026-03-22T09:12:23.899Z</time></trkpt><trkpt lat="43.164489" lon="13.6476647"><ele>84.0</ele><time>2026-03-22T09:12:24.899Z</time></trkpt><trkpt lat="43.1644029" lon="13.6474004"><ele>84.0</ele><time>2026-03-22T09:12:25.898Z</time></trkpt><trkpt lat="43.1643072" lon="13.6471401"><ele>84.0</ele><time>2026-03-22T09:12:26.899Z</time></trkpt><trkpt lat="43.1642201" lon="13.6468887"><ele>84.33333333333333</ele><time>2026-03-22T09:12:27.899Z</time></trkpt><trkpt lat="43.1641322" lon="13.6466388"><ele>84.66666666666666</ele><time>2026-03-22T09:12:28.899Z</time></trkpt><trkpt lat="43.1640475" lon="13.6463764"><ele>85.0</ele><time>2026-03-22T09:12:29.899Z</time></trkpt><trkpt lat="43.1639614" lon="13.6461177"><ele>85.0</ele><time>2026-03-22T09:12:30.898Z</time></trkpt><trkpt lat="43.1638676" lon="13.6458579"><ele>85.0</ele><time>2026-03-22T09:12:31.899Z</time></trkpt><trkpt lat="43.163767" lon="13.6456004"><ele>85.0</ele><time>2026-03-22T09:12:32.899Z</time></trkpt><trkpt lat="43.1636645" lon="13.6453436"><ele>85.33333333333333</ele><time>2026-03-22T09:12:33.899Z</time></trkpt><trkpt lat="43.16357" lon="13.6450843"><ele>85.66666666666667</ele><time>2026-03-22T09:12:34.898Z</time></trkpt><trkpt lat="43.163473" lon="13.6448244"><ele>86.0</ele><time>2026-03-22T09:12:35.898Z</time></trkpt><trkpt lat="43.1633772" lon="13.6445634"><ele>86.0</ele><time>2026-03-22T09:12:36.898Z</time></trkpt><trkpt lat="43.163283" lon="13.6443006"><ele>86.0</ele><time>2026-03-22T09:12:37.898Z</time></trkpt><trkpt lat="43.163192" lon="13.6440421"><ele>86.0</ele><time>2026-03-22T09:12:38.898Z</time></trkpt><trkpt lat="43.1630934" lon="13.6437726"><ele>85.66666666666667</ele><time>2026-03-22T09:12:39.899Z</time></trkpt><trkpt lat="43.1629909" lon="13.6435034"><ele>85.33333333333333</ele><time>2026-03-22T09:12:40.898Z</time></trkpt><trkpt lat="43.1628887" lon="13.6432405"><ele>85.0</ele><time>2026-03-22T09:12:41.898Z</time></trkpt><trkpt lat="43.1627904" lon="13.642976"><ele>85.66666666666666</ele><time>2026-03-22T09:12:42.899Z</time></trkpt><trkpt lat="43.1627034" lon="13.6427107"><ele>86.33333333333333</ele><time>2026-03-22T09:12:43.898Z</time></trkpt><trkpt lat="43.162613" lon="13.6424406"><ele>87.0</ele><time>2026-03-22T09:12:44.899Z</time></trkpt><trkpt lat="43.1625162" lon="13.6421631"><ele>87.33333333333333</ele><time>2026-03-22T09:12:45.898Z</time></trkpt><trkpt lat="43.1624177" lon="13.6418923"><ele>87.66666666666666</ele><time>2026-03-22T09:12:46.898Z</time></trkpt><trkpt lat="43.1623197" lon="13.6416419"><ele>88.0</ele><time>2026-03-22T09:12:47.899Z</time></trkpt><trkpt lat="43.162212" lon="13.6413888"><ele>88.33333333333333</ele><time>2026-03-22T09:12:48.898Z</time></trkpt><trkpt lat="43.1621067" lon="13.6411493"><ele>88.66666666666667</ele><time>2026-03-22T09:12:49.899Z</time></trkpt><trkpt lat="43.1619926" lon="13.6409211"><ele>89.0</ele><time>2026-03-22T09:12:50.899Z</time></trkpt><trkpt lat="43.1618931" lon="13.6406631"><ele>89.0</ele><time>2026-03-22T09:12:51.899Z</time></trkpt><trkpt lat="43.1617831" lon="13.6404101"><ele>89.0</ele><time>2026-03-22T09:12:52.899Z</time></trkpt><trkpt lat="43.1616569" lon="13.6401536"><ele>89.0</ele><time>2026-03-22T09:12:53.899Z</time></trkpt><trkpt lat="43.1615359" lon="13.6399034"><ele>89.0</ele><time>2026-03-22T09:12:54.898Z</time></trkpt><trkpt lat="43.1614138" lon="13.639648"><ele>89.0</ele><time>2026-03-22T09:12:55.899Z</time></trkpt><trkpt lat="43.1612879" lon="13.6394043"><ele>89.0</ele><time>2026-03-22T09:12:56.899Z</time></trkpt><trkpt lat="43.1611618" lon="13.6391652"><ele>89.33333333333334</ele><time>2026-03-22T09:12:57.899Z</time></trkpt><trkpt lat="43.1610307" lon="13.6389227"><ele>89.66666666666667</ele><time>2026-03-22T09:12:58.899Z</time></trkpt><trkpt lat="43.1608997" lon="13.6386887"><ele>90.0</ele><time>2026-03-22T09:12:59.899Z</time></trkpt><trkpt lat="43.1607679" lon="13.6384543"><ele>90.0</ele><time>2026-03-22T09:13:00.899Z</time></trkpt><trkpt lat="43.1606227" lon="13.6382184"><ele>90.0</ele><time>2026-03-22T09:13:01.899Z</time></trkpt><trkpt lat="43.1604885" lon="13.6379772"><ele>90.0</ele><time>2026-03-22T09:13:02.898Z</time></trkpt><trkpt lat="43.1603587" lon="13.6377318"><ele>90.0</ele><time>2026-03-22T09:13:03.898Z</time></trkpt><trkpt lat="43.1602315" lon="13.6374923"><ele>90.0</ele><time>2026-03-22T09:13:04.898Z</time></trkpt><trkpt lat="43.1601058" lon="13.6372574"><ele>90.0</ele><time>2026-03-22T09:13:05.899Z</time></trkpt><trkpt lat="43.1599803" lon="13.6370204"><ele>89.66666666666667</ele><time>2026-03-22T09:13:06.898Z</time></trkpt><trkpt lat="43.159853" lon="13.636786"><ele>89.33333333333334</ele><time>2026-03-22T09:13:07.899Z</time></trkpt><trkpt lat="43.1597166" lon="13.6365548"><ele>89.0</ele><time>2026-03-22T09:13:08.898Z</time></trkpt><trkpt lat="43.1595832" lon="13.6363371"><ele>89.0</ele><time>2026-03-22T09:13:09.899Z</time></trkpt><trkpt lat="43.1594626" lon="13.6361366"><ele>89.0</ele><time>2026-03-22T09:13:10.899Z</time></trkpt><trkpt lat="43.1593564" lon="13.6359409"><ele>89.0</ele><time>2026-03-22T09:13:11.899Z</time></trkpt><trkpt lat="43.15926" lon="13.6357558"><ele>89.66666666666667</ele><time>2026-03-22T09:13:12.898Z</time></trkpt><trkpt lat="43.1591663" lon="13.6355768"><ele>90.33333333333333</ele><time>2026-03-22T09:13:13.898Z</time></trkpt><trkpt lat="43.1590707" lon="13.6353977"><ele>91.0</ele><time>2026-03-22T09:13:14.898Z</time></trkpt><trkpt lat="43.1589824" lon="13.6352303"><ele>91.0</ele><time>2026-03-22T09:13:15.899Z</time></trkpt><trkpt lat="43.1589061" lon="13.6350635"><ele>91.0</ele><time>2026-03-22T09:13:16.899Z</time></trkpt><trkpt lat="43.1588403" lon="13.6348953"><ele>91.0</ele><time>2026-03-22T09:13:17.898Z</time></trkpt><trkpt lat="43.158767" lon="13.6347314"><ele>91.0</ele><time>2026-03-22T09:13:18.898Z</time></trkpt><trkpt lat="43.1586962" lon="13.6345721"><ele>91.5</ele><time>2026-03-22T09:13:19.899Z</time></trkpt><trkpt lat="43.1586267" lon="13.6344189"><ele>92.0</ele><time>2026-03-22T09:13:20.899Z</time></trkpt><trkpt lat="43.1585519" lon="13.6342529"><ele>92.5</ele><time>2026-03-22T09:13:21.899Z</time></trkpt><trkpt lat="43.1584755" lon="13.6340903"><ele>93.0</ele><time>2026-03-22T09:13:22.899Z</time></trkpt><trkpt lat="43.1583917" lon="13.6339146"><ele>93.0</ele><time>2026-03-22T09:13:23.898Z</time></trkpt><trkpt lat="43.1583125" lon="13.6337328"><ele>93.0</ele><time>2026-03-22T09:13:24.898Z</time></trkpt><trkpt lat="43.1582404" lon="13.6335462"><ele>93.0</ele><time>2026-03-22T09:13:25.899Z</time></trkpt><trkpt lat="43.1581575" lon="13.633354"><ele>93.0</ele><time>2026-03-22T09:13:26.898Z</time></trkpt><trkpt lat="43.1580858" lon="13.6331663"><ele>93.0</ele><time>2026-03-22T09:13:27.899Z</time></trkpt><trkpt lat="43.1579981" lon="13.6329772"><ele>93.0</ele><time>2026-03-22T09:13:28.899Z</time></trkpt><trkpt lat="43.1579118" lon="13.6327833"><ele>94.0</ele><time>2026-03-22T09:13:29.899Z</time></trkpt><trkpt lat="43.1578184" lon="13.6325777"><ele>95.0</ele><time>2026-03-22T09:13:30.898Z</time></trkpt><trkpt lat="43.1577233" lon="13.6323608"><ele>96.0</ele><time>2026-03-22T09:13:31.899Z</time></trkpt><trkpt lat="43.1576207" lon="13.6321514"><ele>95.33333333333333</ele><time>2026-03-22T09:13:32.898Z</time></trkpt><trkpt lat="43.1575195" lon="13.6319516"><ele>94.66666666666666</ele><time>2026-03-22T09:13:33.898Z</time></trkpt><trkpt lat="43.1574118" lon="13.6317551"><ele>94.0</ele><time>2026-03-22T09:13:34.898Z</time></trkpt><trkpt lat="43.1572888" lon="13.6315707"><ele>94.0</ele><time>2026-03-22T09:13:35.899Z</time></trkpt><trkpt lat="43.1571528" lon="13.6313898"><ele>94.0</ele><time>2026-03-22T09:13:36.899Z</time></trkpt><trkpt lat="43.1570141" lon="13.6312148"><ele>94.0</ele><time>2026-03-22T09:13:37.898Z</time></trkpt><trkpt lat="43.1568663" lon="13.6310505"><ele>94.66666666666666</ele><time>2026-03-22T09:13:38.899Z</time></trkpt><trkpt lat="43.1567112" lon="13.6308964"><ele>95.33333333333333</ele><time>2026-03-22T09:13:39.899Z</time></trkpt><trkpt lat="43.1565445" lon="13.6307425"><ele>96.0</ele><time>2026-03-22T09:13:40.898Z</time></trkpt><trkpt lat="43.1563712" lon="13.6305976"><ele>96.0</ele><time>2026-03-22T09:13:41.899Z</time></trkpt><trkpt lat="43.1561995" lon="13.630453"><ele>96.0</ele><time>2026-03-22T09:13:42.899Z</time></trkpt><trkpt lat="43.1560253" lon="13.6302908"><ele>96.0</ele><time>2026-03-22T09:13:43.899Z</time></trkpt><trkpt lat="43.1558608" lon="13.6301518"><ele>96.0</ele><time>2026-03-22T09:13:44.899Z</time></trkpt><trkpt lat="43.1556857" lon="13.6300282"><ele>96.0</ele><time>2026-03-22T09:13:45.898Z</time></trkpt><trkpt lat="43.15551" lon="13.6298941"><ele>96.0</ele><time>2026-03-22T09:13:46.899Z</time></trkpt><trkpt lat="43.1553441" lon="13.6297516"><ele>96.0</ele><time>2026-03-22T09:13:47.898Z</time></trkpt><trkpt lat="43.1551628" lon="13.6295878"><ele>96.0</ele><time>2026-03-22T09:13:48.899Z</time></trkpt><trkpt lat="43.1549916" lon="13.6294327"><ele>96.0</ele><time>2026-03-22T09:13:49.898Z</time></trkpt><trkpt lat="43.1548185" lon="13.6292809"><ele>96.0</ele><time>2026-03-22T09:13:50.898Z</time></trkpt><trkpt lat="43.1546474" lon="13.6291263"><ele>96.0</ele><time>2026-03-22T09:13:51.899Z</time></trkpt><trkpt lat="43.1544767" lon="13.6289719"><ele>96.0</ele><time>2026-03-22T09:13:52.899Z</time></trkpt><trkpt lat="43.1543038" lon="13.6288301"><ele>96.0</ele><time>2026-03-22T09:13:53.898Z</time></trkpt><trkpt lat="43.1541251" lon="13.6286969"><ele>96.0</ele><time>2026-03-22T09:13:54.899Z</time></trkpt><trkpt lat="43.153942" lon="13.6285724"><ele>96.0</ele><time>2026-03-22T09:13:55.898Z</time></trkpt><trkpt lat="43.1537595" lon="13.6284531"><ele>96.33333333333334</ele><time>2026-03-22T09:13:56.899Z</time></trkpt><trkpt lat="43.1535739" lon="13.6283362"><ele>96.66666666666667</ele><time>2026-03-22T09:13:57.898Z</time></trkpt><trkpt lat="43.1533809" lon="13.6282088"><ele>97.0</ele><time>2026-03-22T09:13:58.898Z</time></trkpt><trkpt lat="43.1531873" lon="13.6280857"><ele>97.0</ele><time>2026-03-22T09:13:59.899Z</time></trkpt><trkpt lat="43.1529897" lon="13.6279663"><ele>97.0</ele><time>2026-03-22T09:14:00.898Z</time></trkpt><trkpt lat="43.1527973" lon="13.6278539"><ele>97.0</ele><time>2026-03-22T09:14:01.899Z</time></trkpt><trkpt lat="43.1526053" lon="13.6277367"><ele>97.33333333333334</ele><time>2026-03-22T09:14:02.898Z</time></trkpt><trkpt lat="43.1524094" lon="13.6276151"><ele>97.66666666666666</ele><time>2026-03-22T09:14:03.898Z</time></trkpt><trkpt lat="43.1522078" lon="13.6274911"><ele>98.0</ele><time>2026-03-22T09:14:04.899Z</time></trkpt><trkpt lat="43.1520174" lon="13.6273641"><ele>98.0</ele><time>2026-03-22T09:14:05.899Z</time></trkpt><trkpt lat="43.1518279" lon="13.6272175"><ele>98.0</ele><time>2026-03-22T09:14:06.899Z</time></trkpt><trkpt lat="43.1516427" lon="13.6270556"><ele>98.0</ele><time>2026-03-22T09:14:07.899Z</time></trkpt><trkpt lat="43.1514671" lon="13.6268803"><ele>98.33333333333333</ele><time>2026-03-22T09:14:08.899Z</time></trkpt><trkpt lat="43.1512902" lon="13.6267167"><ele>98.66666666666666</ele><time>2026-03-22T09:14:09.899Z</time></trkpt><trkpt lat="43.1511163" lon="13.6265529"><ele>99.0</ele><time>2026-03-22T09:14:10.899Z</time></trkpt><trkpt lat="43.1509432" lon="13.6263851"><ele>99.0</ele><time>2026-03-22T09:14:11.898Z</time></trkpt><trkpt lat="43.1507702" lon="13.6262114"><ele>99.0</ele><time>2026-03-22T09:14:12.899Z</time></trkpt><trkpt lat="43.1505965" lon="13.6260396"><ele>99.0</ele><time>2026-03-22T09:14:13.899Z</time></trkpt><trkpt lat="43.1504246" lon="13.6258649"><ele>99.33333333333334</ele><time>2026-03-22T09:14:14.899Z</time></trkpt><trkpt lat="43.1502597" lon="13.6256779"><ele>99.66666666666667</ele><time>2026-03-22T09:14:15.899Z</time></trkpt><trkpt lat="43.1501018" lon="13.6254908"><ele>100.0</ele><time>2026-03-22T09:14:16.899Z</time></trkpt><trkpt lat="43.1499465" lon="13.6253041"><ele>99.66666666666667</ele><time>2026-03-22T09:14:17.899Z</time></trkpt><trkpt lat="43.1497984" lon="13.6251169"><ele>99.33333333333334</ele><time>2026-03-22T09:14:18.899Z</time></trkpt><trkpt lat="43.1496455" lon="13.6249373"><ele>99.0</ele><time>2026-03-22T09:14:19.898Z</time></trkpt><trkpt lat="43.1494918" lon="13.6247629"><ele>99.0</ele><time>2026-03-22T09:14:20.899Z</time></trkpt><trkpt lat="43.1493285" lon="13.6246192"><ele>99.0</ele><time>2026-03-22T09:14:21.898Z</time></trkpt><trkpt lat="43.1491504" lon="13.624501"><ele>99.0</ele><time>2026-03-22T09:14:22.898Z</time></trkpt><trkpt lat="43.1489747" lon="13.624392"><ele>100.0</ele><time>2026-03-22T09:14:23.899Z</time></trkpt><trkpt lat="43.1487879" lon="13.6242865"><ele>101.0</ele><time>2026-03-22T09:14:24.899Z</time></trkpt><trkpt lat="43.1486083" lon="13.6241721"><ele>102.0</ele><time>2026-03-22T09:14:25.899Z</time></trkpt><trkpt lat="43.1484389" lon="13.6240504"><ele>102.0</ele><time>2026-03-22T09:14:26.899Z</time></trkpt><trkpt lat="43.1482748" lon="13.6239028"><ele>102.0</ele><time>2026-03-22T09:14:27.898Z</time></trkpt><trkpt lat="43.1481318" lon="13.6237184"><ele>102.0</ele><time>2026-03-22T09:14:28.898Z</time></trkpt><trkpt lat="43.1480154" lon="13.6235066"><ele>102.0</ele><time>2026-03-22T09:14:29.899Z</time></trkpt><trkpt lat="43.1479136" lon="13.6232644"><ele>102.0</ele><time>2026-03-22T09:14:30.899Z</time></trkpt><trkpt lat="43.1478262" lon="13.6230106"><ele>102.0</ele><time>2026-03-22T09:14:31.899Z</time></trkpt><trkpt lat="43.1477471" lon="13.6227438"><ele>102.66666666666666</ele><time>2026-03-22T09:14:32.899Z</time></trkpt><trkpt lat="43.1476642" lon="13.6224821"><ele>103.33333333333333</ele><time>2026-03-22T09:14:33.898Z</time></trkpt><trkpt lat="43.1475803" lon="13.6222146"><ele>104.0</ele><time>2026-03-22T09:14:34.898Z</time></trkpt><trkpt lat="43.1474922" lon="13.6219579"><ele>103.66666666666666</ele><time>2026-03-22T09:14:35.899Z</time></trkpt><trkpt lat="43.1473965" lon="13.6216996"><ele>103.33333333333334</ele><time>2026-03-22T09:14:36.899Z</time></trkpt><trkpt lat="43.1473056" lon="13.6214458"><ele>103.0</ele><time>2026-03-22T09:14:37.899Z</time></trkpt><trkpt lat="43.147208" lon="13.6211955"><ele>104.0</ele><time>2026-03-22T09:14:38.898Z</time></trkpt><trkpt lat="43.147116" lon="13.6209439"><ele>105.0</ele><time>2026-03-22T09:14:39.899Z</time></trkpt><trkpt lat="43.1470242" lon="13.6206945"><ele>106.0</ele><time>2026-03-22T09:14:40.899Z</time></trkpt><trkpt lat="43.1469314" lon="13.6204373"><ele>107.33333333333334</ele><time>2026-03-22T09:14:41.898Z</time></trkpt><trkpt lat="43.1468368" lon="13.6201854"><ele>108.66666666666666</ele><time>2026-03-22T09:14:42.898Z</time></trkpt><trkpt lat="43.146755" lon="13.6199339"><ele>110.0</ele><time>2026-03-22T09:14:43.899Z</time></trkpt><trkpt lat="43.1466804" lon="13.6196844"><ele>111.0</ele><time>2026-03-22T09:14:44.899Z</time></trkpt><trkpt lat="43.1466091" lon="13.6194236"><ele>112.0</ele><time>2026-03-22T09:14:45.899Z</time></trkpt><trkpt lat="43.1465235" lon="13.6191807"><ele>113.0</ele><time>2026-03-22T09:14:46.899Z</time></trkpt><trkpt lat="43.1464247" lon="13.6189348"><ele>112.0</ele><time>2026-03-22T09:14:47.898Z</time></trkpt><trkpt lat="43.1463199" lon="13.6186979"><ele>111.0</ele><time>2026-03-22T09:14:48.898Z</time></trkpt><trkpt lat="43.1462116" lon="13.618466"><ele>110.0</ele><time>2026-03-22T09:14:49.898Z</time></trkpt><trkpt lat="43.1461048" lon="13.6182413"><ele>110.0</ele><time>2026-03-22T09:14:50.899Z</time></trkpt><trkpt lat="43.1459898" lon="13.6180213"><ele>110.0</ele><time>2026-03-22T09:14:51.898Z</time></trkpt><trkpt lat="43.1458718" lon="13.6177995"><ele>110.0</ele><time>2026-03-22T09:14:52.899Z</time></trkpt><trkpt lat="43.1457423" lon="13.6175735"><ele>109.66666666666666</ele><time>2026-03-22T09:14:53.899Z</time></trkpt><trkpt lat="43.1456209" lon="13.6173519"><ele>109.33333333333334</ele><time>2026-03-22T09:14:54.899Z</time></trkpt><trkpt lat="43.1455018" lon="13.6171231"><ele>109.0</ele><time>2026-03-22T09:14:55.899Z</time></trkpt><trkpt lat="43.1453852" lon="13.6168987"><ele>110.33333333333334</ele><time>2026-03-22T09:14:56.899Z</time></trkpt><trkpt lat="43.1452616" lon="13.6166734"><ele>111.66666666666666</ele><time>2026-03-22T09:14:57.898Z</time></trkpt><trkpt lat="43.1451384" lon="13.6164518"><ele>113.0</ele><time>2026-03-22T09:14:58.898Z</time></trkpt><trkpt lat="43.1450123" lon="13.6162319"><ele>112.66666666666666</ele><time>2026-03-22T09:14:59.899Z</time></trkpt><trkpt lat="43.1448705" lon="13.6160214"><ele>112.33333333333334</ele><time>2026-03-22T09:15:00.898Z</time></trkpt><trkpt lat="43.1447207" lon="13.6158222"><ele>112.0</ele><time>2026-03-22T09:15:01.899Z</time></trkpt><trkpt lat="43.1445651" lon="13.6156295"><ele>112.0</ele><time>2026-03-22T09:15:02.898Z</time></trkpt><trkpt lat="43.1444104" lon="13.6154263"><ele>112.0</ele><time>2026-03-22T09:15:03.899Z</time></trkpt><trkpt lat="43.1442506" lon="13.6152271"><ele>112.0</ele><time>2026-03-22T09:15:04.899Z</time></trkpt><trkpt lat="43.1440877" lon="13.6150321"><ele>112.33333333333334</ele><time>2026-03-22T09:15:05.898Z</time></trkpt><trkpt lat="43.1439278" lon="13.6148309"><ele>112.66666666666666</ele><time>2026-03-22T09:15:06.898Z</time></trkpt><trkpt lat="43.1437692" lon="13.6146306"><ele>113.0</ele><time>2026-03-22T09:15:07.899Z</time></trkpt><trkpt lat="43.1436122" lon="13.6144317"><ele>112.66666666666666</ele><time>2026-03-22T09:15:08.899Z</time></trkpt><trkpt lat="43.1434556" lon="13.614229"><ele>112.33333333333334</ele><time>2026-03-22T09:15:09.899Z</time></trkpt><trkpt lat="43.1433019" lon="13.6140305"><ele>112.0</ele><time>2026-03-22T09:15:10.898Z</time></trkpt><trkpt lat="43.1431446" lon="13.6138349"><ele>113.66666666666667</ele><time>2026-03-22T09:15:11.898Z</time></trkpt><trkpt lat="43.1429826" lon="13.6136277"><ele>115.33333333333334</ele><time>2026-03-22T09:15:12.898Z</time></trkpt><trkpt lat="43.1428167" lon="13.6134271"><ele>117.0</ele><time>2026-03-22T09:15:13.899Z</time></trkpt><trkpt lat="43.1426506" lon="13.6132271"><ele>117.0</ele><time>2026-03-22T09:15:14.899Z</time></trkpt><trkpt lat="43.1424792" lon="13.6130285"><ele>117.0</ele><time>2026-03-22T09:15:15.899Z</time></trkpt><trkpt lat="43.1423079" lon="13.6128347"><ele>117.0</ele><time>2026-03-22T09:15:16.899Z</time></trkpt><trkpt lat="43.1421417" lon="13.6126371"><ele>116.0</ele><time>2026-03-22T09:15:17.898Z</time></trkpt><trkpt lat="43.1419726" lon="13.6124439"><ele>115.0</ele><time>2026-03-22T09:15:18.898Z</time></trkpt><trkpt lat="43.141804" lon="13.6122521"><ele>114.0</ele><time>2026-03-22T09:15:19.899Z</time></trkpt><trkpt lat="43.1416428" lon="13.6120579"><ele>115.0</ele><time>2026-03-22T09:15:20.898Z</time></trkpt><trkpt lat="43.1414812" lon="13.611868"><ele>116.0</ele><time>2026-03-22T09:15:21.899Z</time></trkpt><trkpt lat="43.1413113" lon="13.6116823"><ele>117.0</ele><time>2026-03-22T09:15:22.898Z</time></trkpt><trkpt lat="43.1411411" lon="13.6114916"><ele>117.0</ele><time>2026-03-22T09:15:23.899Z</time></trkpt><trkpt lat="43.1409724" lon="13.6113039"><ele>117.0</ele><time>2026-03-22T09:15:24.898Z</time></trkpt><trkpt lat="43.1408059" lon="13.6111229"><ele>117.0</ele><time>2026-03-22T09:15:25.898Z</time></trkpt><trkpt lat="43.1406233" lon="13.6109458"><ele>116.33333333333334</ele><time>2026-03-22T09:15:26.899Z</time></trkpt><trkpt lat="43.1404495" lon="13.6107595"><ele>115.66666666666667</ele><time>2026-03-22T09:15:27.898Z</time></trkpt><trkpt lat="43.1402796" lon="13.6105705"><ele>115.0</ele><time>2026-03-22T09:15:28.898Z</time></trkpt><trkpt lat="43.1401096" lon="13.6103792"><ele>115.0</ele><time>2026-03-22T09:15:29.899Z</time></trkpt><trkpt lat="43.1399395" lon="13.6101917"><ele>115.0</ele><time>2026-03-22T09:15:30.899Z</time></trkpt><trkpt lat="43.1397681" lon="13.6100016"><ele>115.0</ele><time>2026-03-22T09:15:31.899Z</time></trkpt><trkpt lat="43.1395966" lon="13.6098064"><ele>115.0</ele><time>2026-03-22T09:15:32.899Z</time></trkpt><trkpt lat="43.1394221" lon="13.6096088"><ele>115.0</ele><time>2026-03-22T09:15:33.899Z</time></trkpt><trkpt lat="43.1392483" lon="13.609422"><ele>115.0</ele><time>2026-03-22T09:15:34.899Z</time></trkpt><trkpt lat="43.1390761" lon="13.6092406"><ele>115.0</ele><time>2026-03-22T09:15:35.899Z</time></trkpt><trkpt lat="43.1389001" lon="13.6090589"><ele>115.0</ele><time>2026-03-22T09:15:36.898Z</time></trkpt><trkpt lat="43.1387209" lon="13.6088862"><ele>115.0</ele><time>2026-03-22T09:15:37.898Z</time></trkpt><trkpt lat="43.138541" lon="13.6087163"><ele>114.5</ele><time>2026-03-22T09:15:38.899Z</time></trkpt><trkpt lat="43.1383533" lon="13.6085447"><ele>114.0</ele><time>2026-03-22T09:15:39.899Z</time></trkpt><trkpt lat="43.1381686" lon="13.60836"><ele>114.0</ele><time>2026-03-22T09:15:40.898Z</time></trkpt><trkpt lat="43.1379863" lon="13.6081905"><ele>114.0</ele><time>2026-03-22T09:15:41.898Z</time></trkpt><trkpt lat="43.1378094" lon="13.6080074"><ele>114.0</ele><time>2026-03-22T09:15:42.898Z</time></trkpt><trkpt lat="43.1376349" lon="13.6078283"><ele>114.5</ele><time>2026-03-22T09:15:43.899Z</time></trkpt><trkpt lat="43.1374562" lon="13.60765"><ele>115.0</ele><time>2026-03-22T09:15:44.899Z</time></trkpt><trkpt lat="43.1372663" lon="13.607471"><ele>115.0</ele><time>2026-03-22T09:15:45.899Z</time></trkpt><trkpt lat="43.1370806" lon="13.6072964"><ele>115.0</ele><time>2026-03-22T09:15:46.899Z</time></trkpt><trkpt lat="43.1368974" lon="13.6071249"><ele>115.0</ele><time>2026-03-22T09:15:47.898Z</time></trkpt><trkpt lat="43.1367088" lon="13.6069532"><ele>115.66666666666667</ele><time>2026-03-22T09:15:48.899Z</time></trkpt><trkpt lat="43.1365238" lon="13.6067666"><ele>116.33333333333334</ele><time>2026-03-22T09:15:49.899Z</time></trkpt><trkpt lat="43.136344" lon="13.6065938"><ele>117.0</ele><time>2026-03-22T09:15:50.898Z</time></trkpt><trkpt lat="43.1361631" lon="13.6064272"><ele>117.0</ele><time>2026-03-22T09:15:51.898Z</time></trkpt><trkpt lat="43.1359765" lon="13.6062722"><ele>117.0</ele><time>2026-03-22T09:15:52.899Z</time></trkpt><trkpt lat="43.1357833" lon="13.6061233"><ele>117.0</ele><time>2026-03-22T09:15:53.898Z</time></trkpt><trkpt lat="43.1355983" lon="13.60596"><ele>119.0</ele><time>2026-03-22T09:15:54.899Z</time></trkpt><trkpt lat="43.1354117" lon="13.6057517"><ele>121.0</ele><time>2026-03-22T09:15:55.899Z</time></trkpt><trkpt lat="43.1352467" lon="13.6055433"><ele>119.33333333333334</ele><time>2026-03-22T09:15:56.899Z</time></trkpt><trkpt lat="43.135095" lon="13.605325"><ele>117.66666666666666</ele><time>2026-03-22T09:15:57.899Z</time></trkpt><trkpt lat="43.13496" lon="13.605085"><ele>116.0</ele><time>2026-03-22T09:15:58.898Z</time></trkpt><trkpt lat="43.134835" lon="13.604845"><ele>116.0</ele><time>2026-03-22T09:15:59.898Z</time></trkpt><trkpt lat="43.1347333" lon="13.6045867"><ele>116.0</ele><time>2026-03-22T09:16:00.899Z</time></trkpt><trkpt lat="43.134585" lon="13.60435"><ele>116.0</ele><time>2026-03-22T09:16:01.898Z</time></trkpt><trkpt lat="43.1344517" lon="13.6041317"><ele>117.66666666666666</ele><time>2026-03-22T09:16:02.899Z</time></trkpt><trkpt lat="43.1343067" lon="13.6039483"><ele>119.33333333333334</ele><time>2026-03-22T09:16:03.899Z</time></trkpt><trkpt lat="43.1341383" lon="13.6037717"><ele>121.0</ele><time>2026-03-22T09:16:04.899Z</time></trkpt><trkpt lat="43.1339533" lon="13.6036167"><ele>121.0</ele><time>2026-03-22T09:16:05.899Z</time></trkpt><trkpt lat="43.1337667" lon="13.60345"><ele>121.0</ele><time>2026-03-22T09:16:06.898Z</time></trkpt><trkpt lat="43.1335883" lon="13.6032817"><ele>121.0</ele><time>2026-03-22T09:16:07.899Z</time></trkpt><trkpt lat="43.1334317" lon="13.6030883"><ele>121.0</ele><time>2026-03-22T09:16:08.898Z</time></trkpt><trkpt lat="43.1332967" lon="13.6028633"><ele>121.0</ele><time>2026-03-22T09:16:09.899Z</time></trkpt><trkpt lat="43.1331733" lon="13.6026333"><ele>121.0</ele><time>2026-03-22T09:16:10.899Z</time></trkpt><trkpt lat="43.1330717" lon="13.6023933"><ele>121.0</ele><time>2026-03-22T09:16:11.898Z</time></trkpt><trkpt lat="43.1329617" lon="13.6021383"><ele>121.0</ele><time>2026-03-22T09:16:12.899Z</time></trkpt><trkpt lat="43.1328583" lon="13.601895"><ele>121.0</ele><time>2026-03-22T09:16:13.898Z</time></trkpt><trkpt lat="43.13276" lon="13.6016633"><ele>122.0</ele><time>2026-03-22T09:16:14.898Z</time></trkpt><trkpt lat="43.132675" lon="13.60141"><ele>123.0</ele><time>2026-03-22T09:16:15.899Z</time></trkpt><trkpt lat="43.1325867" lon="13.6011433"><ele>124.0</ele><time>2026-03-22T09:16:16.899Z</time></trkpt><trkpt lat="43.132495" lon="13.6008967"><ele>124.0</ele><time>2026-03-22T09:16:17.899Z</time></trkpt><trkpt lat="43.13238" lon="13.60065"><ele>124.0</ele><time>2026-03-22T09:16:18.899Z</time></trkpt><trkpt lat="43.132255" lon="13.600425"><ele>124.0</ele><time>2026-03-22T09:16:19.898Z</time></trkpt><trkpt lat="43.13211" lon="13.6002017"><ele>125.33333333333334</ele><time>2026-03-22T09:16:20.898Z</time></trkpt><trkpt lat="43.131965" lon="13.5999867"><ele>126.66666666666666</ele><time>2026-03-22T09:16:21.899Z</time></trkpt><trkpt lat="43.1318217" lon="13.59978"><ele>128.0</ele><time>2026-03-22T09:16:22.898Z</time></trkpt><trkpt lat="43.1316717" lon="13.59956"><ele>127.33333333333333</ele><time>2026-03-22T09:16:23.899Z</time></trkpt><trkpt lat="43.1315217" lon="13.5993417"><ele>126.66666666666666</ele><time>2026-03-22T09:16:24.899Z</time></trkpt><trkpt lat="43.13138" lon="13.5991067"><ele>126.0</ele><time>2026-03-22T09:16:25.898Z</time></trkpt><trkpt lat="43.1312367" lon="13.5988883"><ele>126.0</ele><time>2026-03-22T09:16:26.899Z</time></trkpt><trkpt lat="43.13109" lon="13.5986767"><ele>126.0</ele><time>2026-03-22T09:16:27.899Z</time></trkpt><trkpt lat="43.13093" lon="13.59846"><ele>126.0</ele><time>2026-03-22T09:16:28.899Z</time></trkpt><trkpt lat="43.13077" lon="13.5982517"><ele>126.0</ele><time>2026-03-22T09:16:29.898Z</time></trkpt><trkpt lat="43.1306" lon="13.5980633"><ele>126.0</ele><time>2026-03-22T09:16:30.898Z</time></trkpt><trkpt lat="43.1304233" lon="13.597895"><ele>126.0</ele><time>2026-03-22T09:16:31.899Z</time></trkpt><trkpt lat="43.1302433" lon="13.5977617"><ele>126.33333333333334</ele><time>2026-03-22T09:16:32.898Z</time></trkpt><trkpt lat="43.1300683" lon="13.5976367"><ele>126.66666666666667</ele><time>2026-03-22T09:16:33.898Z</time></trkpt><trkpt lat="43.129885" lon="13.59754"><ele>127.0</ele><time>2026-03-22T09:16:34.899Z</time></trkpt><trkpt lat="43.129695" lon="13.5974583"><ele>127.0</ele><time>2026-03-22T09:16:35.898Z</time></trkpt><trkpt lat="43.129545" lon="13.59735"><ele>127.0</ele><time>2026-03-22T09:16:36.899Z</time></trkpt><trkpt lat="43.1294" lon="13.5972433"><ele>127.0</ele><time>2026-03-22T09:16:37.899Z</time></trkpt><trkpt lat="43.1292633" lon="13.59712"><ele>127.0</ele><time>2026-03-22T09:16:38.898Z</time></trkpt><trkpt lat="43.129135" lon="13.5969933"><ele>127.0</ele><time>2026-03-22T09:16:39.899Z</time></trkpt><trkpt lat="43.1290017" lon="13.5968383"><ele>127.0</ele><time>2026-03-22T09:16:40.899Z</time></trkpt><trkpt lat="43.1288867" lon="13.5966867"><ele>127.0</ele><time>2026-03-22T09:16:41.898Z</time></trkpt><trkpt lat="43.1287717" lon="13.59655"><ele>127.0</ele><time>2026-03-22T09:16:42.899Z</time></trkpt><trkpt lat="43.1286583" lon="13.59643"><ele>127.0</ele><time>2026-03-22T09:16:43.899Z</time></trkpt><trkpt lat="43.1285533" lon="13.5962967"><ele>127.0</ele><time>2026-03-22T09:16:44.898Z</time></trkpt><trkpt lat="43.12845" lon="13.5961667"><ele>127.0</ele><time>2026-03-22T09:16:45.899Z</time></trkpt><trkpt lat="43.1283483" lon="13.5960183"><ele>127.0</ele><time>2026-03-22T09:16:46.898Z</time></trkpt><trkpt lat="43.1282533" lon="13.5958767"><ele>127.0</ele><time>2026-03-22T09:16:47.897Z</time></trkpt><trkpt lat="43.1281617" lon="13.5957283"><ele>127.0</ele><time>2026-03-22T09:16:48.898Z</time></trkpt><trkpt lat="43.128075" lon="13.5955867"><ele>127.0</ele><time>2026-03-22T09:16:49.898Z</time></trkpt><trkpt lat="43.1279933" lon="13.5954417"><ele>127.0</ele><time>2026-03-22T09:16:50.897Z</time></trkpt><trkpt lat="43.12791" lon="13.5953133"><ele>127.0</ele><time>2026-03-22T09:16:51.898Z</time></trkpt><trkpt lat="43.127835" lon="13.595185"><ele>127.0</ele><time>2026-03-22T09:16:52.898Z</time></trkpt><trkpt lat="43.1277533" lon="13.5950467"><ele>127.0</ele><time>2026-03-22T09:16:53.898Z</time></trkpt><trkpt lat="43.1276717" lon="13.594905"><ele>127.0</ele><time>2026-03-22T09:16:54.898Z</time></trkpt><trkpt lat="43.1275983" lon="13.5947583"><ele>127.0</ele><time>2026-03-22T09:16:55.898Z</time></trkpt><trkpt lat="43.1275183" lon="13.5946183"><ele>127.0</ele><time>2026-03-22T09:16:56.898Z</time></trkpt><trkpt lat="43.127435" lon="13.59448"><ele>126.75</ele><time>2026-03-22T09:16:57.898Z</time></trkpt><trkpt lat="43.1273567" lon="13.594335"><ele>126.5</ele><time>2026-03-22T09:16:58.898Z</time></trkpt><trkpt lat="43.1272833" lon="13.594195"><ele>126.25</ele><time>2026-03-22T09:16:59.897Z</time></trkpt><trkpt lat="43.1272067" lon="13.5940583"><ele>126.0</ele><time>2026-03-22T09:17:00.897Z</time></trkpt><trkpt lat="43.1271383" lon="13.5939083"><ele>126.0</ele><time>2026-03-22T09:17:01.898Z</time></trkpt><trkpt lat="43.1270733" lon="13.5937633"><ele>126.0</ele><time>2026-03-22T09:17:02.897Z</time></trkpt><trkpt lat="43.1270117" lon="13.593615"><ele>126.0</ele><time>2026-03-22T09:17:03.897Z</time></trkpt><trkpt lat="43.1269583" lon="13.593455"><ele>126.0</ele><time>2026-03-22T09:17:04.898Z</time></trkpt><trkpt lat="43.126905" lon="13.5932967"><ele>126.0</ele><time>2026-03-22T09:17:05.898Z</time></trkpt><trkpt lat="43.126855" lon="13.5931583"><ele>126.0</ele><time>2026-03-22T09:17:06.897Z</time></trkpt><trkpt lat="43.126805" lon="13.5930317"><ele>126.0</ele><time>2026-03-22T09:17:07.897Z</time></trkpt><trkpt lat="43.1267583" lon="13.5929317"><ele>126.0</ele><time>2026-03-22T09:17:08.898Z</time></trkpt><trkpt lat="43.12671" lon="13.592835"><ele>126.0</ele><time>2026-03-22T09:17:09.898Z</time></trkpt><trkpt lat="43.12666" lon="13.59276"><ele>126.0</ele><time>2026-03-22T09:17:10.898Z</time></trkpt><trkpt lat="43.1266083" lon="13.5926967"><ele>126.0</ele><time>2026-03-22T09:17:11.897Z</time></trkpt><trkpt lat="43.12655" lon="13.592645"><ele>126.0</ele><time>2026-03-22T09:17:12.898Z</time></trkpt><trkpt lat="43.126455" lon="13.59255"><ele>126.0</ele><time>2026-03-22T09:17:14.897Z</time></trkpt><trkpt lat="43.1263967" lon="13.5924583"><ele>126.0</ele><time>2026-03-22T09:17:16.897Z</time></trkpt><trkpt lat="43.1263783" lon="13.59234"><ele>126.0</ele><time>2026-03-22T09:17:18.898Z</time></trkpt><trkpt lat="43.1263683" lon="13.59222"><ele>126.0</ele><time>2026-03-22T09:17:20.898Z</time></trkpt><trkpt lat="43.1263233" lon="13.59208"><ele>126.0</ele><time>2026-03-22T09:17:22.897Z</time></trkpt><trkpt lat="43.1262717" lon="13.5920033"><ele>126.0</ele><time>2026-03-22T09:17:23.898Z</time></trkpt><trkpt lat="43.1262167" lon="13.5919167"><ele>126.0</ele><time>2026-03-22T09:17:24.897Z</time></trkpt><trkpt lat="43.126155" lon="13.5918"><ele>126.0</ele><time>2026-03-22T09:17:25.898Z</time></trkpt><trkpt lat="43.1261117" lon="13.591655"><ele>126.75</ele><time>2026-03-22T09:17:26.898Z</time></trkpt><trkpt lat="43.1260717" lon="13.5914917"><ele>127.5</ele><time>2026-03-22T09:17:27.898Z</time></trkpt><trkpt lat="43.1260083" lon="13.5913283"><ele>128.25</ele><time>2026-03-22T09:17:28.898Z</time></trkpt><trkpt lat="43.1259283" lon="13.5911667"><ele>129.0</ele><time>2026-03-22T09:17:29.897Z</time></trkpt><trkpt lat="43.125835" lon="13.5910033"><ele>128.66666666666666</ele><time>2026-03-22T09:17:30.898Z</time></trkpt><trkpt lat="43.1257267" lon="13.5908383"><ele>128.33333333333331</ele><time>2026-03-22T09:17:31.898Z</time></trkpt><trkpt lat="43.1256233" lon="13.59066"><ele>128.0</ele><time>2026-03-22T09:17:32.898Z</time></trkpt><trkpt lat="43.12552" lon="13.590475"><ele>129.0</ele><time>2026-03-22T09:17:33.897Z</time></trkpt><trkpt lat="43.1254033" lon="13.5903017"><ele>130.0</ele><time>2026-03-22T09:17:34.898Z</time></trkpt><trkpt lat="43.1252833" lon="13.5901033"><ele>131.0</ele><time>2026-03-22T09:17:35.897Z</time></trkpt><trkpt lat="43.1251767" lon="13.5898867"><ele>131.0</ele><time>2026-03-22T09:17:36.897Z</time></trkpt><trkpt lat="43.125085" lon="13.58964"><ele>131.0</ele><time>2026-03-22T09:17:37.898Z</time></trkpt><trkpt lat="43.125" lon="13.5893867"><ele>131.0</ele><time>2026-03-22T09:17:38.898Z</time></trkpt><trkpt lat="43.1249167" lon="13.5891433"><ele>131.66666666666666</ele><time>2026-03-22T09:17:39.898Z</time></trkpt><trkpt lat="43.124845" lon="13.5889017"><ele>132.33333333333334</ele><time>2026-03-22T09:17:40.898Z</time></trkpt><trkpt lat="43.1247683" lon="13.588645"><ele>133.0</ele><time>2026-03-22T09:17:41.898Z</time></trkpt><trkpt lat="43.1246867" lon="13.5884"><ele>133.66666666666669</ele><time>2026-03-22T09:17:42.897Z</time></trkpt><trkpt lat="43.1246" lon="13.5881583"><ele>134.33333333333334</ele><time>2026-03-22T09:17:43.898Z</time></trkpt><trkpt lat="43.1245067" lon="13.587945"><ele>135.0</ele><time>2026-03-22T09:17:44.898Z</time></trkpt><trkpt lat="43.12439" lon="13.5877117"><ele>135.0</ele><time>2026-03-22T09:17:45.898Z</time></trkpt><trkpt lat="43.1242733" lon="13.5874783"><ele>135.0</ele><time>2026-03-22T09:17:46.898Z</time></trkpt><trkpt lat="43.124155" lon="13.587255"><ele>135.0</ele><time>2026-03-22T09:17:47.898Z</time></trkpt><trkpt lat="43.1240383" lon="13.5870467"><ele>134.66666666666666</ele><time>2026-03-22T09:17:48.898Z</time></trkpt><trkpt lat="43.123905" lon="13.5868317"><ele>134.33333333333331</ele><time>2026-03-22T09:17:49.897Z</time></trkpt><trkpt lat="43.123785" lon="13.5866017"><ele>134.0</ele><time>2026-03-22T09:17:50.898Z</time></trkpt><trkpt lat="43.12368" lon="13.5863683"><ele>134.33333333333331</ele><time>2026-03-22T09:17:51.898Z</time></trkpt><trkpt lat="43.1235733" lon="13.5861233"><ele>134.66666666666666</ele><time>2026-03-22T09:17:52.898Z</time></trkpt><trkpt lat="43.123495" lon="13.5858917"><ele>135.0</ele><time>2026-03-22T09:17:53.898Z</time></trkpt><trkpt lat="43.12343" lon="13.58565"><ele>135.0</ele><time>2026-03-22T09:17:54.897Z</time></trkpt><trkpt lat="43.1233817" lon="13.5853883"><ele>135.0</ele><time>2026-03-22T09:17:55.898Z</time></trkpt><trkpt lat="43.1233533" lon="13.58511"><ele>135.0</ele><time>2026-03-22T09:17:56.898Z</time></trkpt><trkpt lat="43.1232983" lon="13.584855"><ele>136.0</ele><time>2026-03-22T09:17:57.897Z</time></trkpt><trkpt lat="43.123235" lon="13.5845933"><ele>137.0</ele><time>2026-03-22T09:17:58.897Z</time></trkpt><trkpt lat="43.1231483" lon="13.5843183"><ele>138.0</ele><time>2026-03-22T09:17:59.898Z</time></trkpt><trkpt lat="43.1230483" lon="13.5840667"><ele>138.0</ele><time>2026-03-22T09:18:00.898Z</time></trkpt><trkpt lat="43.12297" lon="13.58382"><ele>138.0</ele><time>2026-03-22T09:18:01.897Z</time></trkpt><trkpt lat="43.1228783" lon="13.583595"><ele>138.0</ele><time>2026-03-22T09:18:02.897Z</time></trkpt><trkpt lat="43.1227667" lon="13.5833867"><ele>138.0</ele><time>2026-03-22T09:18:03.897Z</time></trkpt><trkpt lat="43.1226567" lon="13.58318"><ele>138.0</ele><time>2026-03-22T09:18:04.897Z</time></trkpt><trkpt lat="43.1225767" lon="13.5829467"><ele>138.0</ele><time>2026-03-22T09:18:05.897Z</time></trkpt><trkpt lat="43.12249" lon="13.5827117"><ele>138.0</ele><time>2026-03-22T09:18:06.898Z</time></trkpt><trkpt lat="43.1224133" lon="13.582465"><ele>138.0</ele><time>2026-03-22T09:18:07.898Z</time></trkpt><trkpt lat="43.122335" lon="13.5822217"><ele>138.0</ele><time>2026-03-22T09:18:08.898Z</time></trkpt><trkpt lat="43.1222517" lon="13.5819817"><ele>138.66666666666666</ele><time>2026-03-22T09:18:09.898Z</time></trkpt><trkpt lat="43.12215" lon="13.5817283"><ele>139.33333333333331</ele><time>2026-03-22T09:18:10.897Z</time></trkpt><trkpt lat="43.1220533" lon="13.5814717"><ele>140.0</ele><time>2026-03-22T09:18:11.898Z</time></trkpt><trkpt lat="43.1219617" lon="13.58122"><ele>140.66666666666666</ele><time>2026-03-22T09:18:12.898Z</time></trkpt><trkpt lat="43.121875" lon="13.5809733"><ele>141.33333333333334</ele><time>2026-03-22T09:18:13.897Z</time></trkpt><trkpt lat="43.1217867" lon="13.58073"><ele>142.0</ele><time>2026-03-22T09:18:14.898Z</time></trkpt><trkpt lat="43.12167" lon="13.5804817"><ele>142.33333333333334</ele><time>2026-03-22T09:18:15.897Z</time></trkpt><trkpt lat="43.1215683" lon="13.580225"><ele>142.66666666666666</ele><time>2026-03-22T09:18:16.898Z</time></trkpt><trkpt lat="43.1214733" lon="13.579965"><ele>143.0</ele><time>2026-03-22T09:18:17.897Z</time></trkpt><trkpt lat="43.1213733" lon="13.5797167"><ele>143.66666666666666</ele><time>2026-03-22T09:18:18.898Z</time></trkpt><trkpt lat="43.1212683" lon="13.5794733"><ele>144.33333333333334</ele><time>2026-03-22T09:18:19.898Z</time></trkpt><trkpt lat="43.121155" lon="13.57924"><ele>145.0</ele><time>2026-03-22T09:18:20.897Z</time></trkpt><trkpt lat="43.1210433" lon="13.57899"><ele>145.0</ele><time>2026-03-22T09:18:21.898Z</time></trkpt><trkpt lat="43.1209333" lon="13.5787333"><ele>145.0</ele><time>2026-03-22T09:18:22.898Z</time></trkpt><trkpt lat="43.1208367" lon="13.5784867"><ele>145.0</ele><time>2026-03-22T09:18:23.898Z</time></trkpt><trkpt lat="43.1207267" lon="13.578235"><ele>145.66666666666669</ele><time>2026-03-22T09:18:24.898Z</time></trkpt><trkpt lat="43.1206183" lon="13.5779783"><ele>146.33333333333334</ele><time>2026-03-22T09:18:25.898Z</time></trkpt><trkpt lat="43.1205183" lon="13.5777183"><ele>147.0</ele><time>2026-03-22T09:18:26.898Z</time></trkpt><trkpt lat="43.1204183" lon="13.5774567"><ele>147.66666666666666</ele><time>2026-03-22T09:18:27.897Z</time></trkpt><trkpt lat="43.120325" lon="13.5771867"><ele>148.33333333333331</ele><time>2026-03-22T09:18:28.898Z</time></trkpt><trkpt lat="43.1202267" lon="13.5769183"><ele>149.0</ele><time>2026-03-22T09:18:29.897Z</time></trkpt><trkpt lat="43.12013" lon="13.5766433"><ele>149.0</ele><time>2026-03-22T09:18:30.897Z</time></trkpt><trkpt lat="43.12004" lon="13.5763717"><ele>149.0</ele><time>2026-03-22T09:18:31.897Z</time></trkpt><trkpt lat="43.1199517" lon="13.576095"><ele>149.0</ele><time>2026-03-22T09:18:32.897Z</time></trkpt><trkpt lat="43.1198667" lon="13.5758267"><ele>149.0</ele><time>2026-03-22T09:18:33.898Z</time></trkpt><trkpt lat="43.1197833" lon="13.57556"><ele>149.0</ele><time>2026-03-22T09:18:34.897Z</time></trkpt><trkpt lat="43.11969" lon="13.5753033"><ele>149.0</ele><time>2026-03-22T09:18:35.897Z</time></trkpt><trkpt lat="43.1196167" lon="13.57506"><ele>149.33333333333331</ele><time>2026-03-22T09:18:36.898Z</time></trkpt><trkpt lat="43.1195433" lon="13.574835"><ele>149.66666666666666</ele><time>2026-03-22T09:18:37.898Z</time></trkpt><trkpt lat="43.1194767" lon="13.5746383"><ele>150.0</ele><time>2026-03-22T09:18:38.898Z</time></trkpt><trkpt lat="43.1194067" lon="13.5744333"><ele>150.66666666666666</ele><time>2026-03-22T09:18:39.897Z</time></trkpt><trkpt lat="43.1193383" lon="13.5742317"><ele>151.33333333333331</ele><time>2026-03-22T09:18:40.897Z</time></trkpt><trkpt lat="43.1192683" lon="13.5740233"><ele>152.0</ele><time>2026-03-22T09:18:41.897Z</time></trkpt><trkpt lat="43.1191967" lon="13.5738167"><ele>152.33333333333331</ele><time>2026-03-22T09:18:42.898Z</time></trkpt><trkpt lat="43.11912" lon="13.5736083"><ele>152.66666666666666</ele><time>2026-03-22T09:18:43.897Z</time></trkpt><trkpt lat="43.1190433" lon="13.5734033"><ele>153.0</ele><time>2026-03-22T09:18:44.898Z</time></trkpt><trkpt lat="43.1189667" lon="13.5732017"><ele>152.33333333333334</ele><time>2026-03-22T09:18:45.898Z</time></trkpt><trkpt lat="43.11889" lon="13.5730017"><ele>151.66666666666669</ele><time>2026-03-22T09:18:46.898Z</time></trkpt><trkpt lat="43.1188133" lon="13.5727967"><ele>151.0</ele><time>2026-03-22T09:18:47.898Z</time></trkpt><trkpt lat="43.1187433" lon="13.5725817"><ele>151.0</ele><time>2026-03-22T09:18:48.898Z</time></trkpt><trkpt lat="43.11867" lon="13.5723833"><ele>151.0</ele><time>2026-03-22T09:18:49.898Z</time></trkpt><trkpt lat="43.1186017" lon="13.5721817"><ele>151.0</ele><time>2026-03-22T09:18:50.898Z</time></trkpt><trkpt lat="43.1185383" lon="13.5719867"><ele>151.75</ele><time>2026-03-22T09:18:51.897Z</time></trkpt><trkpt lat="43.1184817" lon="13.5717967"><ele>152.5</ele><time>2026-03-22T09:18:52.898Z</time></trkpt><trkpt lat="43.1184167" lon="13.5716267"><ele>153.25</ele><time>2026-03-22T09:18:53.897Z</time></trkpt><trkpt lat="43.118335" lon="13.5714517"><ele>154.0</ele><time>2026-03-22T09:18:54.898Z</time></trkpt><trkpt lat="43.118265" lon="13.5712683"><ele>154.0</ele><time>2026-03-22T09:18:55.898Z</time></trkpt><trkpt lat="43.1181867" lon="13.5710617"><ele>154.0</ele><time>2026-03-22T09:18:56.898Z</time></trkpt><trkpt lat="43.1181017" lon="13.570855"><ele>154.0</ele><time>2026-03-22T09:18:57.897Z</time></trkpt><trkpt lat="43.1180233" lon="13.5706117"><ele>154.0</ele><time>2026-03-22T09:18:58.898Z</time></trkpt><trkpt lat="43.1179433" lon="13.57038"><ele>154.0</ele><time>2026-03-22T09:18:59.898Z</time></trkpt><trkpt lat="43.1178633" lon="13.570155"><ele>154.0</ele><time>2026-03-22T09:19:00.897Z</time></trkpt><trkpt lat="43.11778" lon="13.5699483"><ele>154.33333333333334</ele><time>2026-03-22T09:19:01.898Z</time></trkpt><trkpt lat="43.117715" lon="13.5697383"><ele>154.66666666666666</ele><time>2026-03-22T09:19:02.898Z</time></trkpt><trkpt lat="43.11763" lon="13.5695533"><ele>155.0</ele><time>2026-03-22T09:19:03.897Z</time></trkpt><trkpt lat="43.1175517" lon="13.5693917"><ele>155.0</ele><time>2026-03-22T09:19:04.897Z</time></trkpt><trkpt lat="43.1174733" lon="13.5692567"><ele>155.0</ele><time>2026-03-22T09:19:05.897Z</time></trkpt><trkpt lat="43.117395" lon="13.56914"><ele>155.0</ele><time>2026-03-22T09:19:06.898Z</time></trkpt><trkpt lat="43.1173217" lon="13.569045"><ele>155.0</ele><time>2026-03-22T09:19:07.898Z</time></trkpt><trkpt lat="43.1172483" lon="13.5690233"><ele>155.0</ele><time>2026-03-22T09:19:08.898Z</time></trkpt><trkpt lat="43.1171333" lon="13.5690617"><ele>154.8</ele><time>2026-03-22T09:19:10.898Z</time></trkpt><trkpt lat="43.1170633" lon="13.569105"><ele>154.6</ele><time>2026-03-22T09:19:11.897Z</time></trkpt><trkpt lat="43.1169967" lon="13.5691583"><ele>154.4</ele><time>2026-03-22T09:19:12.898Z</time></trkpt><trkpt lat="43.1169117" lon="13.5692"><ele>154.2</ele><time>2026-03-22T09:19:13.897Z</time></trkpt><trkpt lat="43.1168233" lon="13.5692717"><ele>154.0</ele><time>2026-03-22T09:19:14.897Z</time></trkpt><trkpt lat="43.11674" lon="13.569365"><ele>154.0</ele><time>2026-03-22T09:19:15.898Z</time></trkpt><trkpt lat="43.1166633" lon="13.5694817"><ele>154.0</ele><time>2026-03-22T09:19:16.897Z</time></trkpt><trkpt lat="43.1165717" lon="13.5695717"><ele>154.0</ele><time>2026-03-22T09:19:17.898Z</time></trkpt><trkpt lat="43.11646" lon="13.569645"><ele>154.0</ele><time>2026-03-22T09:19:18.898Z</time></trkpt><trkpt lat="43.1163567" lon="13.5697083"><ele>153.6</ele><time>2026-03-22T09:19:19.897Z</time></trkpt><trkpt lat="43.1162633" lon="13.569775"><ele>153.2</ele><time>2026-03-22T09:19:20.898Z</time></trkpt><trkpt lat="43.1161883" lon="13.56985"><ele>152.79999999999998</ele><time>2026-03-22T09:19:21.897Z</time></trkpt><trkpt lat="43.1161267" lon="13.56995"><ele>152.4</ele><time>2026-03-22T09:19:22.898Z</time></trkpt><trkpt lat="43.11606" lon="13.5700833"><ele>152.0</ele><time>2026-03-22T09:19:23.897Z</time></trkpt><trkpt lat="43.1159833" lon="13.5702267"><ele>151.66666666666666</ele><time>2026-03-22T09:19:24.897Z</time></trkpt><trkpt lat="43.1158883" lon="13.57038"><ele>151.33333333333334</ele><time>2026-03-22T09:19:25.898Z</time></trkpt><trkpt lat="43.1157633" lon="13.5705333"><ele>151.0</ele><time>2026-03-22T09:19:26.898Z</time></trkpt><trkpt lat="43.1156383" lon="13.5706983"><ele>150.66666666666669</ele><time>2026-03-22T09:19:27.898Z</time></trkpt><trkpt lat="43.1155167" lon="13.5709017"><ele>150.33333333333334</ele><time>2026-03-22T09:19:28.898Z</time></trkpt><trkpt lat="43.1153833" lon="13.5711317"><ele>150.0</ele><time>2026-03-22T09:19:29.897Z</time></trkpt><trkpt lat="43.1152567" lon="13.571385"><ele>150.0</ele><time>2026-03-22T09:19:30.898Z</time></trkpt><trkpt lat="43.11515" lon="13.5716433"><ele>150.0</ele><time>2026-03-22T09:19:31.898Z</time></trkpt><trkpt lat="43.1150217" lon="13.5718817"><ele>150.0</ele><time>2026-03-22T09:19:32.897Z</time></trkpt><trkpt lat="43.1149" lon="13.5721217"><ele>148.66666666666666</ele><time>2026-03-22T09:19:33.897Z</time></trkpt><trkpt lat="43.11478" lon="13.5723383"><ele>147.33333333333331</ele><time>2026-03-22T09:19:34.898Z</time></trkpt><trkpt lat="43.1146367" lon="13.5725467"><ele>146.0</ele><time>2026-03-22T09:19:35.898Z</time></trkpt><trkpt lat="43.11452" lon="13.5727167"><ele>146.2</ele><time>2026-03-22T09:19:36.897Z</time></trkpt><trkpt lat="43.1144333" lon="13.57287"><ele>146.39999999999998</ele><time>2026-03-22T09:19:37.897Z</time></trkpt><trkpt lat="43.1143483" lon="13.573"><ele>146.6</ele><time>2026-03-22T09:19:38.898Z</time></trkpt><trkpt lat="43.1142783" lon="13.5731"><ele>146.79999999999998</ele><time>2026-03-22T09:19:39.898Z</time></trkpt><trkpt lat="43.114225" lon="13.5731567"><ele>147.0</ele><time>2026-03-22T09:19:40.898Z</time></trkpt><trkpt lat="43.114125" lon="13.5731567"><ele>146.66666666666666</ele><time>2026-03-22T09:19:43.898Z</time></trkpt><trkpt lat="43.1140417" lon="13.5731267"><ele>146.33333333333334</ele><time>2026-03-22T09:19:45.898Z</time></trkpt><trkpt lat="43.1139533" lon="13.573205"><ele>146.0</ele><time>2026-03-22T09:19:47.897Z</time></trkpt><trkpt lat="43.1139017" lon="13.57326"><ele>145.66666666666669</ele><time>2026-03-22T09:19:48.897Z</time></trkpt><trkpt lat="43.11385" lon="13.5733133"><ele>145.33333333333334</ele><time>2026-03-22T09:19:49.897Z</time></trkpt><trkpt lat="43.1137433" lon="13.5733217"><ele>145.0</ele><time>2026-03-22T09:19:51.898Z</time></trkpt><trkpt lat="43.1136283" lon="13.57324"><ele>145.0</ele><time>2026-03-22T09:19:53.897Z</time></trkpt><trkpt lat="43.1135483" lon="13.573185"><ele>145.0</ele><time>2026-03-22T09:19:54.897Z</time></trkpt><trkpt lat="43.1134467" lon="13.5731267"><ele>145.0</ele><time>2026-03-22T09:19:55.898Z</time></trkpt><trkpt lat="43.1133183" lon="13.5730533"><ele>145.0</ele><time>2026-03-22T09:19:56.897Z</time></trkpt><trkpt lat="43.1131817" lon="13.57298"><ele>145.0</ele><time>2026-03-22T09:19:57.898Z</time></trkpt><trkpt lat="43.1130567" lon="13.5729033"><ele>145.0</ele><time>2026-03-22T09:19:58.898Z</time></trkpt><trkpt lat="43.1129467" lon="13.5728517"><ele>145.0</ele><time>2026-03-22T09:19:59.897Z</time></trkpt><trkpt lat="43.1128483" lon="13.5728033"><ele>145.0</ele><time>2026-03-22T09:20:00.898Z</time></trkpt><trkpt lat="43.1127417" lon="13.5727483"><ele>144.25</ele><time>2026-03-22T09:20:01.898Z</time></trkpt><trkpt lat="43.1126183" lon="13.5727083"><ele>143.5</ele><time>2026-03-22T09:20:02.898Z</time></trkpt><trkpt lat="43.1124867" lon="13.5726717"><ele>142.75</ele><time>2026-03-22T09:20:03.897Z</time></trkpt><trkpt lat="43.1123617" lon="13.5726283"><ele>142.0</ele><time>2026-03-22T09:20:04.897Z</time></trkpt><trkpt lat="43.1122467" lon="13.57255"><ele>142.0</ele><time>2026-03-22T09:20:05.897Z</time></trkpt><trkpt lat="43.1121133" lon="13.5724683"><ele>142.0</ele><time>2026-03-22T09:20:06.897Z</time></trkpt><trkpt lat="43.1119867" lon="13.5724017"><ele>142.0</ele><time>2026-03-22T09:20:07.897Z</time></trkpt><trkpt lat="43.11188" lon="13.5723317"><ele>142.0</ele><time>2026-03-22T09:20:08.898Z</time></trkpt><trkpt lat="43.1117767" lon="13.57227"><ele>142.0</ele><time>2026-03-22T09:20:09.898Z</time></trkpt><trkpt lat="43.111675" lon="13.572215"><ele>142.0</ele><time>2026-03-22T09:20:10.897Z</time></trkpt><trkpt lat="43.111575" lon="13.5721733"><ele>142.0</ele><time>2026-03-22T09:20:11.898Z</time></trkpt><trkpt lat="43.1114617" lon="13.5721333"><ele>142.0</ele><time>2026-03-22T09:20:12.897Z</time></trkpt><trkpt lat="43.1113367" lon="13.5720967"><ele>142.4</ele><time>2026-03-22T09:20:13.897Z</time></trkpt><trkpt lat="43.111215" lon="13.572055"><ele>142.79999999999998</ele><time>2026-03-22T09:20:14.898Z</time></trkpt><trkpt lat="43.1111117" lon="13.5720217"><ele>143.2</ele><time>2026-03-22T09:20:15.898Z</time></trkpt><trkpt lat="43.1110183" lon="13.571995"><ele>143.6</ele><time>2026-03-22T09:20:16.897Z</time></trkpt><trkpt lat="43.110935" lon="13.5719733"><ele>144.0</ele><time>2026-03-22T09:20:17.898Z</time></trkpt><trkpt lat="43.11086" lon="13.5719583"><ele>144.16666666666666</ele><time>2026-03-22T09:20:18.898Z</time></trkpt><trkpt lat="43.1108" lon="13.5719267"><ele>144.33333333333334</ele><time>2026-03-22T09:20:19.898Z</time></trkpt><trkpt lat="43.1107183" lon="13.57182"><ele>144.5</ele><time>2026-03-22T09:20:21.898Z</time></trkpt><trkpt lat="43.1106783" lon="13.5716533"><ele>144.66666666666669</ele><time>2026-03-22T09:20:23.898Z</time></trkpt><trkpt lat="43.1106617" lon="13.5715583"><ele>144.83333333333334</ele><time>2026-03-22T09:20:24.897Z</time></trkpt><trkpt lat="43.1106467" lon="13.5714667"><ele>145.0</ele><time>2026-03-22T09:20:25.897Z</time></trkpt><trkpt lat="43.1106033" lon="13.5713233"><ele>145.0</ele><time>2026-03-22T09:20:27.897Z</time></trkpt><trkpt lat="43.1105733" lon="13.571235"><ele>145.0</ele><time>2026-03-22T09:20:28.898Z</time></trkpt><trkpt lat="43.1105383" lon="13.57112"><ele>145.0</ele><time>2026-03-22T09:20:29.898Z</time></trkpt><trkpt lat="43.1105033" lon="13.5709883"><ele>145.0</ele><time>2026-03-22T09:20:30.898Z</time></trkpt><trkpt lat="43.1104633" lon="13.5708233"><ele>145.0</ele><time>2026-03-22T09:20:31.898Z</time></trkpt><trkpt lat="43.1104217" lon="13.570655"><ele>145.25</ele><time>2026-03-22T09:20:32.898Z</time></trkpt><trkpt lat="43.1103717" lon="13.5704967"><ele>145.5</ele><time>2026-03-22T09:20:33.898Z</time></trkpt><trkpt lat="43.110325" lon="13.57034"><ele>145.75</ele><time>2026-03-22T09:20:34.897Z</time></trkpt><trkpt lat="43.11028" lon="13.5701767"><ele>146.0</ele><time>2026-03-22T09:20:35.898Z</time></trkpt><trkpt lat="43.1102367" lon="13.5700233"><ele>146.0</ele><time>2026-03-22T09:20:36.898Z</time></trkpt><trkpt lat="43.1101967" lon="13.5698783"><ele>146.0</ele><time>2026-03-22T09:20:37.898Z</time></trkpt><trkpt lat="43.1101583" lon="13.5697367"><ele>146.0</ele><time>2026-03-22T09:20:38.898Z</time></trkpt><trkpt lat="43.1101267" lon="13.5696033"><ele>146.0</ele><time>2026-03-22T09:20:39.898Z</time></trkpt><trkpt lat="43.1100833" lon="13.5694767"><ele>146.0</ele><time>2026-03-22T09:20:40.898Z</time></trkpt><trkpt lat="43.11005" lon="13.5693583"><ele>146.0</ele><time>2026-03-22T09:20:41.897Z</time></trkpt><trkpt lat="43.1100217" lon="13.5692517"><ele>146.0</ele><time>2026-03-22T09:20:42.897Z</time></trkpt><trkpt lat="43.1100033" lon="13.56915"><ele>146.0</ele><time>2026-03-22T09:20:43.898Z</time></trkpt><trkpt lat="43.1099833" lon="13.5690667"><ele>146.0</ele><time>2026-03-22T09:20:44.897Z</time></trkpt><trkpt lat="43.1099233" lon="13.5689433"><ele>146.0</ele><time>2026-03-22T09:20:46.897Z</time></trkpt><trkpt lat="43.1098483" lon="13.5689233"><ele>146.0</ele><time>2026-03-22T09:20:48.898Z</time></trkpt><trkpt lat="43.10979" lon="13.5689567"><ele>146.0</ele><time>2026-03-22T09:20:49.898Z</time></trkpt><trkpt lat="43.10973" lon="13.5690017"><ele>146.0</ele><time>2026-03-22T09:20:50.897Z</time></trkpt><trkpt lat="43.109655" lon="13.569065"><ele>146.0</ele><time>2026-03-22T09:20:52.897Z</time></trkpt><trkpt lat="43.1096" lon="13.5689817"><ele>146.0</ele><time>2026-03-22T09:20:55.898Z</time></trkpt><trkpt lat="43.1095683" lon="13.56879"><ele>146.0</ele><time>2026-03-22T09:20:57.898Z</time></trkpt><trkpt lat="43.109545" lon="13.5687067"><ele>146.0</ele><time>2026-03-22T09:20:58.898Z</time></trkpt><trkpt lat="43.109495" lon="13.5686083"><ele>146.0</ele><time>2026-03-22T09:21:00.898Z</time></trkpt><trkpt lat="43.1093933" lon="13.5686517"><ele>146.0</ele><time>2026-03-22T09:21:02.897Z</time></trkpt><trkpt lat="43.1093333" lon="13.568755"><ele>146.0</ele><time>2026-03-22T09:21:03.898Z</time></trkpt><trkpt lat="43.10929" lon="13.5689"><ele>146.0</ele><time>2026-03-22T09:21:04.898Z</time></trkpt><trkpt lat="43.1092567" lon="13.5690433"><ele>146.0</ele><time>2026-03-22T09:21:05.898Z</time></trkpt><trkpt lat="43.1092117" lon="13.5691483"><ele>146.0</ele><time>2026-03-22T09:21:06.898Z</time></trkpt><trkpt lat="43.1091833" lon="13.5692333"><ele>146.0</ele><time>2026-03-22T09:21:07.898Z</time></trkpt><trkpt lat="43.109095" lon="13.5692817"><ele>146.0</ele><time>2026-03-22T09:21:09.898Z</time></trkpt><trkpt lat="43.1089883" lon="13.5691667"><ele>146.0</ele><time>2026-03-22T09:21:11.897Z</time></trkpt><trkpt lat="43.108925" lon="13.56904"><ele>146.0</ele><time>2026-03-22T09:21:12.897Z</time></trkpt><trkpt lat="43.10886" lon="13.5688833"><ele>145.33333333333331</ele><time>2026-03-22T09:21:13.898Z</time></trkpt><trkpt lat="43.1087717" lon="13.5687017"><ele>144.66666666666666</ele><time>2026-03-22T09:21:14.898Z</time></trkpt><trkpt lat="43.1086917" lon="13.5685117"><ele>144.0</ele><time>2026-03-22T09:21:15.898Z</time></trkpt><trkpt lat="43.1086083" lon="13.5683483"><ele>144.0</ele><time>2026-03-22T09:21:16.898Z</time></trkpt><trkpt lat="43.1085217" lon="13.5681817"><ele>144.0</ele><time>2026-03-22T09:21:17.897Z</time></trkpt><trkpt lat="43.1084333" lon="13.5680233"><ele>144.0</ele><time>2026-03-22T09:21:18.897Z</time></trkpt><trkpt lat="43.1083467" lon="13.567865"><ele>144.0</ele><time>2026-03-22T09:21:19.898Z</time></trkpt><trkpt lat="43.1082633" lon="13.567715"><ele>143.75</ele><time>2026-03-22T09:21:20.897Z</time></trkpt><trkpt lat="43.1081733" lon="13.567565"><ele>143.5</ele><time>2026-03-22T09:21:21.898Z</time></trkpt><trkpt lat="43.1080867" lon="13.567415"><ele>143.25</ele><time>2026-03-22T09:21:22.897Z</time></trkpt><trkpt lat="43.1079933" lon="13.5672767"><ele>143.0</ele><time>2026-03-22T09:21:23.898Z</time></trkpt><trkpt lat="43.10791" lon="13.5671517"><ele>142.8</ele><time>2026-03-22T09:21:24.898Z</time></trkpt><trkpt lat="43.1078367" lon="13.5670233"><ele>142.60000000000002</ele><time>2026-03-22T09:21:25.897Z</time></trkpt><trkpt lat="43.10777" lon="13.5669133"><ele>142.39999999999998</ele><time>2026-03-22T09:21:26.897Z</time></trkpt><trkpt lat="43.1077117" lon="13.56681"><ele>142.2</ele><time>2026-03-22T09:21:27.897Z</time></trkpt><trkpt lat="43.1076517" lon="13.5667017"><ele>142.0</ele><time>2026-03-22T09:21:28.897Z</time></trkpt><trkpt lat="43.1075867" lon="13.566595"><ele>142.0</ele><time>2026-03-22T09:21:29.897Z</time></trkpt><trkpt lat="43.1075233" lon="13.5664783"><ele>142.0</ele><time>2026-03-22T09:21:30.898Z</time></trkpt><trkpt lat="43.1074533" lon="13.56635"><ele>142.0</ele><time>2026-03-22T09:21:31.897Z</time></trkpt><trkpt lat="43.107375" lon="13.5662083"><ele>142.0</ele><time>2026-03-22T09:21:32.898Z</time></trkpt><trkpt lat="43.1072833" lon="13.5660667"><ele>142.66666666666669</ele><time>2026-03-22T09:21:33.898Z</time></trkpt><trkpt lat="43.1071967" lon="13.565905"><ele>143.33333333333334</ele><time>2026-03-22T09:21:34.897Z</time></trkpt><trkpt lat="43.107105" lon="13.5657317"><ele>144.0</ele><time>2026-03-22T09:21:35.898Z</time></trkpt><trkpt lat="43.1070067" lon="13.565555"><ele>144.33333333333334</ele><time>2026-03-22T09:21:36.897Z</time></trkpt><trkpt lat="43.1069133" lon="13.5653617"><ele>144.66666666666669</ele><time>2026-03-22T09:21:37.898Z</time></trkpt><trkpt lat="43.1068133" lon="13.56518"><ele>145.0</ele><time>2026-03-22T09:21:38.897Z</time></trkpt><trkpt lat="43.1066967" lon="13.5649783"><ele>145.0</ele><time>2026-03-22T09:21:39.897Z</time></trkpt><trkpt lat="43.10658" lon="13.56477"><ele>145.0</ele><time>2026-03-22T09:21:40.897Z</time></trkpt><trkpt lat="43.1064633" lon="13.5645467"><ele>145.0</ele><time>2026-03-22T09:21:41.898Z</time></trkpt><trkpt lat="43.1063533" lon="13.564345"><ele>145.0</ele><time>2026-03-22T09:21:42.897Z</time></trkpt><trkpt lat="43.1062317" lon="13.56414"><ele>145.0</ele><time>2026-03-22T09:21:43.897Z</time></trkpt><trkpt lat="43.106115" lon="13.56393"><ele>145.0</ele><time>2026-03-22T09:21:44.897Z</time></trkpt><trkpt lat="43.1060067" lon="13.5637317"><ele>144.66666666666669</ele><time>2026-03-22T09:21:45.898Z</time></trkpt><trkpt lat="43.105905" lon="13.5635417"><ele>144.33333333333334</ele><time>2026-03-22T09:21:46.898Z</time></trkpt><trkpt lat="43.1058033" lon="13.5633633"><ele>144.0</ele><time>2026-03-22T09:21:47.898Z</time></trkpt><trkpt lat="43.10571" lon="13.5632017"><ele>144.4</ele><time>2026-03-22T09:21:48.897Z</time></trkpt><trkpt lat="43.1056317" lon="13.5630533"><ele>144.8</ele><time>2026-03-22T09:21:49.897Z</time></trkpt><trkpt lat="43.105555" lon="13.56292"><ele>145.2</ele><time>2026-03-22T09:21:50.897Z</time></trkpt><trkpt lat="43.1054967" lon="13.562815"><ele>145.6</ele><time>2026-03-22T09:21:51.898Z</time></trkpt><trkpt lat="43.1054433" lon="13.5627217"><ele>146.0</ele><time>2026-03-22T09:21:52.898Z</time></trkpt><trkpt lat="43.1054017" lon="13.5626317"><ele>146.16666666666666</ele><time>2026-03-22T09:21:53.897Z</time></trkpt><trkpt lat="43.1053567" lon="13.56255"><ele>146.33333333333331</ele><time>2026-03-22T09:21:54.897Z</time></trkpt><trkpt lat="43.1053033" lon="13.5624683"><ele>146.5</ele><time>2026-03-22T09:21:55.898Z</time></trkpt><trkpt lat="43.1052517" lon="13.5623883"><ele>146.66666666666666</ele><time>2026-03-22T09:21:56.898Z</time></trkpt><trkpt lat="43.1051983" lon="13.562305"><ele>146.83333333333334</ele><time>2026-03-22T09:21:57.897Z</time></trkpt><trkpt lat="43.1051533" lon="13.5622233"><ele>147.0</ele><time>2026-03-22T09:21:58.898Z</time></trkpt><trkpt lat="43.1051" lon="13.5620883"><ele>147.2</ele><time>2026-03-22T09:22:00.898Z</time></trkpt><trkpt lat="43.10504" lon="13.56195"><ele>147.39999999999998</ele><time>2026-03-22T09:22:02.897Z</time></trkpt><trkpt lat="43.105005" lon="13.5618617"><ele>147.60000000000002</ele><time>2026-03-22T09:22:03.897Z</time></trkpt><trkpt lat="43.104955" lon="13.561755"><ele>147.8</ele><time>2026-03-22T09:22:04.898Z</time></trkpt><trkpt lat="43.1048983" lon="13.5616367"><ele>148.0</ele><time>2026-03-22T09:22:05.898Z</time></trkpt><trkpt lat="43.1048367" lon="13.5615267"><ele>147.6</ele><time>2026-03-22T09:22:06.898Z</time></trkpt><trkpt lat="43.1047717" lon="13.5614317"><ele>147.20000000000002</ele><time>2026-03-22T09:22:07.898Z</time></trkpt><trkpt lat="43.1047017" lon="13.5613333"><ele>146.8</ele><time>2026-03-22T09:22:08.897Z</time></trkpt><trkpt lat="43.1046367" lon="13.5612317"><ele>146.4</ele><time>2026-03-22T09:22:09.898Z</time></trkpt><trkpt lat="43.1045833" lon="13.5611417"><ele>146.0</ele><time>2026-03-22T09:22:10.898Z</time></trkpt><trkpt lat="43.1045317" lon="13.56106"><ele>146.0</ele><time>2026-03-22T09:22:11.898Z</time></trkpt><trkpt lat="43.104475" lon="13.56097"><ele>146.0</ele><time>2026-03-22T09:22:12.897Z</time></trkpt><trkpt lat="43.10442" lon="13.5608667"><ele>146.0</ele><time>2026-03-22T09:22:13.898Z</time></trkpt><trkpt lat="43.1043567" lon="13.5607383"><ele>146.0</ele><time>2026-03-22T09:22:14.898Z</time></trkpt><trkpt lat="43.1042783" lon="13.5605983"><ele>146.0</ele><time>2026-03-22T09:22:15.898Z</time></trkpt><trkpt lat="43.1042" lon="13.56044"><ele>146.33333333333331</ele><time>2026-03-22T09:22:16.898Z</time></trkpt><trkpt lat="43.1041083" lon="13.5602733"><ele>146.66666666666666</ele><time>2026-03-22T09:22:17.897Z</time></trkpt><trkpt lat="43.1040133" lon="13.5601017"><ele>147.0</ele><time>2026-03-22T09:22:18.898Z</time></trkpt><trkpt lat="43.1039283" lon="13.5599367"><ele>147.33333333333334</ele><time>2026-03-22T09:22:19.897Z</time></trkpt><trkpt lat="43.1038333" lon="13.55977"><ele>147.66666666666669</ele><time>2026-03-22T09:22:20.897Z</time></trkpt><trkpt lat="43.1037317" lon="13.5595967"><ele>148.0</ele><time>2026-03-22T09:22:21.897Z</time></trkpt><trkpt lat="43.1036267" lon="13.5594133"><ele>148.0</ele><time>2026-03-22T09:22:22.898Z</time></trkpt><trkpt lat="43.103525" lon="13.5592233"><ele>148.0</ele><time>2026-03-22T09:22:23.897Z</time></trkpt><trkpt lat="43.1034167" lon="13.5590333"><ele>148.0</ele><time>2026-03-22T09:22:24.898Z</time></trkpt><trkpt lat="43.1033083" lon="13.55885"><ele>148.33333333333334</ele><time>2026-03-22T09:22:25.897Z</time></trkpt><trkpt lat="43.1031967" lon="13.55864"><ele>148.66666666666666</ele><time>2026-03-22T09:22:26.897Z</time></trkpt><trkpt lat="43.10308" lon="13.5584217"><ele>149.0</ele><time>2026-03-22T09:22:27.897Z</time></trkpt><trkpt lat="43.1029783" lon="13.5582317"><ele>149.0</ele><time>2026-03-22T09:22:28.897Z</time></trkpt><trkpt lat="43.1028717" lon="13.55803"><ele>149.0</ele><time>2026-03-22T09:22:29.897Z</time></trkpt><trkpt lat="43.102755" lon="13.5578333"><ele>149.0</ele><time>2026-03-22T09:22:30.898Z</time></trkpt><trkpt lat="43.1026367" lon="13.5576283"><ele>149.0</ele><time>2026-03-22T09:22:31.898Z</time></trkpt><trkpt lat="43.1025217" lon="13.557415"><ele>149.0</ele><time>2026-03-22T09:22:32.898Z</time></trkpt><trkpt lat="43.1024167" lon="13.5572217"><ele>149.0</ele><time>2026-03-22T09:22:33.897Z</time></trkpt><trkpt lat="43.1023167" lon="13.5570383"><ele>148.33333333333331</ele><time>2026-03-22T09:22:34.897Z</time></trkpt><trkpt lat="43.1022183" lon="13.55688"><ele>147.66666666666666</ele><time>2026-03-22T09:22:35.897Z</time></trkpt><trkpt lat="43.102115" lon="13.556725"><ele>147.0</ele><time>2026-03-22T09:22:36.898Z</time></trkpt><trkpt lat="43.102025" lon="13.5565567"><ele>147.0</ele><time>2026-03-22T09:22:37.898Z</time></trkpt><trkpt lat="43.101935" lon="13.55638"><ele>147.0</ele><time>2026-03-22T09:22:38.898Z</time></trkpt><trkpt lat="43.1018533" lon="13.5562167"><ele>147.0</ele><time>2026-03-22T09:22:39.898Z</time></trkpt><trkpt lat="43.1017667" lon="13.5560683"><ele>147.0</ele><time>2026-03-22T09:22:40.898Z</time></trkpt><trkpt lat="43.1016983" lon="13.5559383"><ele>147.0</ele><time>2026-03-22T09:22:41.898Z</time></trkpt><trkpt lat="43.10163" lon="13.5558217"><ele>147.0</ele><time>2026-03-22T09:22:42.898Z</time></trkpt><trkpt lat="43.1015617" lon="13.5557083"><ele>147.0</ele><time>2026-03-22T09:22:43.897Z</time></trkpt><trkpt lat="43.1014933" lon="13.5555917"><ele>147.0</ele><time>2026-03-22T09:22:44.898Z</time></trkpt><trkpt lat="43.1014283" lon="13.555485"><ele>147.0</ele><time>2026-03-22T09:22:45.898Z</time></trkpt><trkpt lat="43.101375" lon="13.555385"><ele>147.33333333333334</ele><time>2026-03-22T09:22:46.898Z</time></trkpt><trkpt lat="43.1013183" lon="13.5552933"><ele>147.66666666666666</ele><time>2026-03-22T09:22:47.898Z</time></trkpt><trkpt lat="43.101265" lon="13.55522"><ele>148.0</ele><time>2026-03-22T09:22:48.897Z</time></trkpt><trkpt lat="43.10123" lon="13.555145"><ele>148.33333333333331</ele><time>2026-03-22T09:22:49.898Z</time></trkpt><trkpt lat="43.1012467" lon="13.5550233"><ele>148.66666666666666</ele><time>2026-03-22T09:22:51.898Z</time></trkpt><trkpt lat="43.1013133" lon="13.5549233"><ele>149.0</ele><time>2026-03-22T09:22:53.897Z</time></trkpt><trkpt lat="43.1014033" lon="13.55482"><ele>149.0</ele><time>2026-03-22T09:22:55.898Z</time></trkpt><trkpt lat="43.1014617" lon="13.55477"><ele>149.0</ele><time>2026-03-22T09:22:56.898Z</time></trkpt><trkpt lat="43.1015167" lon="13.554705"><ele>149.0</ele><time>2026-03-22T09:22:57.898Z</time></trkpt><trkpt lat="43.1015817" lon="13.554635"><ele>149.0</ele><time>2026-03-22T09:22:58.898Z</time></trkpt><trkpt lat="43.1016433" lon="13.5545583"><ele>149.0</ele><time>2026-03-22T09:22:59.897Z</time></trkpt><trkpt lat="43.1017133" lon="13.5544917"><ele>149.0</ele><time>2026-03-22T09:23:00.898Z</time></trkpt><trkpt lat="43.101775" lon="13.554435"><ele>149.6</ele><time>2026-03-22T09:23:01.898Z</time></trkpt><trkpt lat="43.101875" lon="13.5543583"><ele>150.2</ele><time>2026-03-22T09:23:03.897Z</time></trkpt><trkpt lat="43.1019333" lon="13.5543017"><ele>150.79999999999998</ele><time>2026-03-22T09:23:04.898Z</time></trkpt><trkpt lat="43.1020167" lon="13.5542467"><ele>151.4</ele><time>2026-03-22T09:23:05.898Z</time></trkpt><trkpt lat="43.1020717" lon="13.5541383"><ele>152.0</ele><time>2026-03-22T09:23:06.898Z</time></trkpt><trkpt lat="43.10213" lon="13.554035"><ele>152.0</ele><time>2026-03-22T09:23:07.898Z</time></trkpt><trkpt lat="43.1021767" lon="13.5539533"><ele>152.0</ele><time>2026-03-22T09:23:08.897Z</time></trkpt><trkpt lat="43.1022117" lon="13.55388"><ele>152.0</ele><time>2026-03-22T09:23:09.898Z</time></trkpt><trkpt lat="43.1022467" lon="13.553775"><ele>152.0</ele><time>2026-03-22T09:23:11.897Z</time></trkpt><trkpt lat="43.102175" lon="13.5536983"><ele>152.0</ele><time>2026-03-22T09:23:13.898Z</time></trkpt><trkpt lat="43.1021" lon="13.5536717"><ele>152.0</ele><time>2026-03-22T09:23:14.898Z</time></trkpt><trkpt lat="43.101995" lon="13.5536217"><ele>152.25</ele><time>2026-03-22T09:23:15.897Z</time></trkpt><trkpt lat="43.1018933" lon="13.5535483"><ele>152.5</ele><time>2026-03-22T09:23:16.898Z</time></trkpt><trkpt lat="43.10178" lon="13.5534417"><ele>152.75</ele><time>2026-03-22T09:23:17.898Z</time></trkpt><trkpt lat="43.1016767" lon="13.5533417"><ele>153.0</ele><time>2026-03-22T09:23:18.898Z</time></trkpt><trkpt lat="43.1015733" lon="13.55326"><ele>153.0</ele><time>2026-03-22T09:23:19.898Z</time></trkpt><trkpt lat="43.1014867" lon="13.5531817"><ele>153.0</ele><time>2026-03-22T09:23:20.898Z</time></trkpt><trkpt lat="43.10141" lon="13.5531083"><ele>153.0</ele><time>2026-03-22T09:23:21.897Z</time></trkpt><trkpt lat="43.1013433" lon="13.5530267"><ele>153.0</ele><time>2026-03-22T09:23:22.898Z</time></trkpt><trkpt lat="43.10128" lon="13.5529583"><ele>153.0</ele><time>2026-03-22T09:23:23.898Z</time></trkpt><trkpt lat="43.1012117" lon="13.5528967"><ele>153.0</ele><time>2026-03-22T09:23:24.898Z</time></trkpt><trkpt lat="43.1011467" lon="13.5528317"><ele>153.6</ele><time>2026-03-22T09:23:25.898Z</time></trkpt><trkpt lat="43.10107" lon="13.55276"><ele>154.20000000000002</ele><time>2026-03-22T09:23:26.898Z</time></trkpt><trkpt lat="43.1009983" lon="13.55267"><ele>154.8</ele><time>2026-03-22T09:23:27.897Z</time></trkpt><trkpt lat="43.1009267" lon="13.5525767"><ele>155.4</ele><time>2026-03-22T09:23:28.898Z</time></trkpt><trkpt lat="43.100845" lon="13.55247"><ele>156.0</ele><time>2026-03-22T09:23:29.897Z</time></trkpt><trkpt lat="43.10076" lon="13.55238"><ele>155.5</ele><time>2026-03-22T09:23:30.898Z</time></trkpt><trkpt lat="43.1006617" lon="13.5522917"><ele>155.0</ele><time>2026-03-22T09:23:31.898Z</time></trkpt><trkpt lat="43.1005567" lon="13.5522033"><ele>154.5</ele><time>2026-03-22T09:23:32.898Z</time></trkpt><trkpt lat="43.1004483" lon="13.5521233"><ele>154.0</ele><time>2026-03-22T09:23:33.898Z</time></trkpt><trkpt lat="43.1003467" lon="13.55203"><ele>155.25</ele><time>2026-03-22T09:23:34.897Z</time></trkpt><trkpt lat="43.100245" lon="13.5519333"><ele>156.5</ele><time>2026-03-22T09:23:35.898Z</time></trkpt><trkpt lat="43.1001417" lon="13.551845"><ele>157.75</ele><time>2026-03-22T09:23:36.898Z</time></trkpt><trkpt lat="43.1000367" lon="13.5517633"><ele>159.0</ele><time>2026-03-22T09:23:37.897Z</time></trkpt><trkpt lat="43.09994" lon="13.5516867"><ele>157.83333333333334</ele><time>2026-03-22T09:23:38.897Z</time></trkpt><trkpt lat="43.0998533" lon="13.55161"><ele>156.66666666666666</ele><time>2026-03-22T09:23:39.898Z</time></trkpt><trkpt lat="43.099775" lon="13.551545"><ele>155.5</ele><time>2026-03-22T09:23:40.897Z</time></trkpt><trkpt lat="43.0997117" lon="13.551485"><ele>154.33333333333331</ele><time>2026-03-22T09:23:41.898Z</time></trkpt><trkpt lat="43.0996583" lon="13.55143"><ele>153.16666666666666</ele><time>2026-03-22T09:23:42.898Z</time></trkpt><trkpt lat="43.0995817" lon="13.5513233"><ele>152.0</ele><time>2026-03-22T09:23:44.897Z</time></trkpt><trkpt lat="43.0995183" lon="13.5512433"><ele>153.6</ele><time>2026-03-22T09:23:46.898Z</time></trkpt><trkpt lat="43.0994617" lon="13.551185"><ele>155.2</ele><time>2026-03-22T09:23:48.898Z</time></trkpt><trkpt lat="43.0993917" lon="13.5511167"><ele>156.8</ele><time>2026-03-22T09:23:51.897Z</time></trkpt><trkpt lat="43.09932" lon="13.5510583"><ele>158.4</ele><time>2026-03-22T09:23:53.897Z</time></trkpt><trkpt lat="43.099235" lon="13.551"><ele>160.0</ele><time>2026-03-22T09:23:55.897Z</time></trkpt><trkpt lat="43.0991233" lon="13.550945"><ele>159.0</ele><time>2026-03-22T09:23:57.898Z</time></trkpt><trkpt lat="43.09902" lon="13.5508783"><ele>158.0</ele><time>2026-03-22T09:23:59.898Z</time></trkpt><trkpt lat="43.0989167" lon="13.550825"><ele>157.0</ele><time>2026-03-22T09:24:01.898Z</time></trkpt><trkpt lat="43.0988067" lon="13.550775"><ele>156.0</ele><time>2026-03-22T09:24:03.898Z</time></trkpt><trkpt lat="43.0987083" lon="13.550745"><ele>155.0</ele><time>2026-03-22T09:24:05.897Z</time></trkpt><trkpt lat="43.0986317" lon="13.5507"><ele>155.0</ele><time>2026-03-22T09:24:07.897Z</time></trkpt><trkpt lat="43.0985683" lon="13.55067"><ele>155.0</ele><time>2026-03-22T09:24:09.897Z</time></trkpt><trkpt lat="43.09851" lon="13.5506367"><ele>155.0</ele><time>2026-03-22T09:24:11.898Z</time></trkpt><trkpt lat="43.0984283" lon="13.5505817"><ele>155.0</ele><time>2026-03-22T09:24:14.897Z</time></trkpt><trkpt lat="43.098355" lon="13.5505467"><ele>155.0</ele><time>2026-03-22T09:24:16.896Z</time></trkpt><trkpt lat="43.098295" lon="13.55051"><ele>155.0</ele><time>2026-03-22T09:24:18.897Z</time></trkpt><trkpt lat="43.0982317" lon="13.5504567"><ele>155.0</ele><time>2026-03-22T09:24:21.897Z</time></trkpt><trkpt lat="43.0981767" lon="13.5504117"><ele>155.8</ele><time>2026-03-22T09:24:24.896Z</time></trkpt><trkpt lat="43.09812" lon="13.55037"><ele>156.6</ele><time>2026-03-22T09:24:27.896Z</time></trkpt><trkpt lat="43.0980583" lon="13.5502717"><ele>157.4</ele><time>2026-03-22T09:24:30.896Z</time></trkpt><trkpt lat="43.097995" lon="13.5501917"><ele>158.2</ele><time>2026-03-22T09:24:32.897Z</time></trkpt><trkpt lat="43.097925" lon="13.5500983"><ele>159.0</ele><time>2026-03-22T09:24:34.896Z</time></trkpt><trkpt lat="43.0978567" lon="13.549935"><ele>159.0</ele><time>2026-03-22T09:24:36.897Z</time></trkpt><trkpt lat="43.09783" lon="13.5498183"><ele>159.0</ele><time>2026-03-22T09:24:37.896Z</time></trkpt><trkpt lat="43.0978033" lon="13.5496833"><ele>159.0</ele><time>2026-03-22T09:24:38.897Z</time></trkpt><trkpt lat="43.0977717" lon="13.549535"><ele>159.0</ele><time>2026-03-22T09:24:39.896Z</time></trkpt><trkpt lat="43.09773" lon="13.5493733"><ele>159.0</ele><time>2026-03-22T09:24:40.897Z</time></trkpt><trkpt lat="43.0977033" lon="13.54921"><ele>159.0</ele><time>2026-03-22T09:24:41.896Z</time></trkpt><trkpt lat="43.0976867" lon="13.54904"><ele>159.0</ele><time>2026-03-22T09:24:42.897Z</time></trkpt><trkpt lat="43.0977" lon="13.54884"><ele>159.0</ele><time>2026-03-22T09:24:43.896Z</time></trkpt><trkpt lat="43.097705" lon="13.5486817"><ele>159.0</ele><time>2026-03-22T09:24:44.896Z</time></trkpt><trkpt lat="43.0977" lon="13.5485367"><ele>159.0</ele><time>2026-03-22T09:24:45.896Z</time></trkpt><trkpt lat="43.0976933" lon="13.5484133"><ele>159.0</ele><time>2026-03-22T09:24:46.897Z</time></trkpt><trkpt lat="43.0976917" lon="13.5483017"><ele>159.0</ele><time>2026-03-22T09:24:47.896Z</time></trkpt><trkpt lat="43.097715" lon="13.5481783"><ele>159.0</ele><time>2026-03-22T09:24:49.896Z</time></trkpt><trkpt lat="43.0978033" lon="13.5481583"><ele>159.0</ele><time>2026-03-22T09:24:52.897Z</time></trkpt><trkpt lat="43.0978817" lon="13.54813"><ele>159.0</ele><time>2026-03-22T09:24:54.896Z</time></trkpt><trkpt lat="43.09798" lon="13.54797"><ele>158.33333333333334</ele><time>2026-03-22T09:24:56.897Z</time></trkpt><trkpt lat="43.0980283" lon="13.54779"><ele>157.66666666666669</ele><time>2026-03-22T09:24:57.897Z</time></trkpt><trkpt lat="43.0980617" lon="13.54759"><ele>157.0</ele><time>2026-03-22T09:24:58.896Z</time></trkpt><trkpt lat="43.0980867" lon="13.5473417"><ele>157.0</ele><time>2026-03-22T09:24:59.897Z</time></trkpt><trkpt lat="43.0981067" lon="13.5471067"><ele>157.0</ele><time>2026-03-22T09:25:00.896Z</time></trkpt><trkpt lat="43.0981383" lon="13.5468667"><ele>157.0</ele><time>2026-03-22T09:25:01.897Z</time></trkpt><trkpt lat="43.0981767" lon="13.546615"><ele>157.0</ele><time>2026-03-22T09:25:02.896Z</time></trkpt><trkpt lat="43.0982033" lon="13.5463433"><ele>157.0</ele><time>2026-03-22T09:25:03.896Z</time></trkpt><trkpt lat="43.09823" lon="13.5460817"><ele>157.0</ele><time>2026-03-22T09:25:04.897Z</time></trkpt><trkpt lat="43.098255" lon="13.5458383"><ele>157.66666666666669</ele><time>2026-03-22T09:25:05.897Z</time></trkpt><trkpt lat="43.0982917" lon="13.5456117"><ele>158.33333333333334</ele><time>2026-03-22T09:25:06.897Z</time></trkpt><trkpt lat="43.0983167" lon="13.5453617"><ele>159.0</ele><time>2026-03-22T09:25:07.896Z</time></trkpt><trkpt lat="43.098335" lon="13.5451333"><ele>159.0</ele><time>2026-03-22T09:25:08.897Z</time></trkpt><trkpt lat="43.098375" lon="13.5449067"><ele>159.0</ele><time>2026-03-22T09:25:09.896Z</time></trkpt><trkpt lat="43.0984017" lon="13.5446733"><ele>159.0</ele><time>2026-03-22T09:25:10.897Z</time></trkpt><trkpt lat="43.0984317" lon="13.54446"><ele>159.33333333333334</ele><time>2026-03-22T09:25:11.897Z</time></trkpt><trkpt lat="43.0984567" lon="13.5442417"><ele>159.66666666666669</ele><time>2026-03-22T09:25:12.896Z</time></trkpt><trkpt lat="43.0984717" lon="13.5440383"><ele>160.0</ele><time>2026-03-22T09:25:13.897Z</time></trkpt><trkpt lat="43.0985017" lon="13.5438517"><ele>160.0</ele><time>2026-03-22T09:25:14.897Z</time></trkpt><trkpt lat="43.09851" lon="13.54366"><ele>160.0</ele><time>2026-03-22T09:25:15.897Z</time></trkpt><trkpt lat="43.0985383" lon="13.543465"><ele>160.0</ele><time>2026-03-22T09:25:16.896Z</time></trkpt><trkpt lat="43.098555" lon="13.5433017"><ele>160.0</ele><time>2026-03-22T09:25:17.897Z</time></trkpt><trkpt lat="43.0985717" lon="13.5431717"><ele>160.0</ele><time>2026-03-22T09:25:18.897Z</time></trkpt><trkpt lat="43.0985883" lon="13.5430433"><ele>160.0</ele><time>2026-03-22T09:25:19.896Z</time></trkpt><trkpt lat="43.0986117" lon="13.542925"><ele>160.0</ele><time>2026-03-22T09:25:20.896Z</time></trkpt><trkpt lat="43.0986283" lon="13.5428167"><ele>160.0</ele><time>2026-03-22T09:25:21.897Z</time></trkpt><trkpt lat="43.09865" lon="13.5427067"><ele>160.0</ele><time>2026-03-22T09:25:22.897Z</time></trkpt><trkpt lat="43.0986683" lon="13.5426067"><ele>160.0</ele><time>2026-03-22T09:25:23.897Z</time></trkpt><trkpt lat="43.0986983" lon="13.5425267"><ele>160.0</ele><time>2026-03-22T09:25:24.897Z</time></trkpt><trkpt lat="43.0987517" lon="13.5424233"><ele>160.0</ele><time>2026-03-22T09:25:26.897Z</time></trkpt><trkpt lat="43.0988517" lon="13.5423517"><ele>160.0</ele><time>2026-03-22T09:25:28.896Z</time></trkpt><trkpt lat="43.098955" lon="13.5423267"><ele>160.0</ele><time>2026-03-22T09:25:30.897Z</time></trkpt><trkpt lat="43.0989767" lon="13.542245"><ele>160.0</ele><time>2026-03-22T09:25:34.897Z</time></trkpt><trkpt lat="43.098885" lon="13.5422383"><ele>160.0</ele><time>2026-03-22T09:25:36.897Z</time></trkpt><trkpt lat="43.0988033" lon="13.5422633"><ele>160.0</ele><time>2026-03-22T09:25:37.897Z</time></trkpt><trkpt lat="43.0986917" lon="13.5423033"><ele>160.0</ele><time>2026-03-22T09:25:38.896Z</time></trkpt><trkpt lat="43.098565" lon="13.5423267"><ele>160.0</ele><time>2026-03-22T09:25:39.897Z</time></trkpt><trkpt lat="43.09839" lon="13.542345"><ele>159.0</ele><time>2026-03-22T09:25:40.896Z</time></trkpt><trkpt lat="43.0982" lon="13.5423133"><ele>158.0</ele><time>2026-03-22T09:25:41.896Z</time></trkpt><trkpt lat="43.09799" lon="13.542265"><ele>157.0</ele><time>2026-03-22T09:25:42.896Z</time></trkpt><trkpt lat="43.09777" lon="13.5422033"><ele>157.0</ele><time>2026-03-22T09:25:43.897Z</time></trkpt><trkpt lat="43.0975717" lon="13.542125"><ele>157.0</ele><time>2026-03-22T09:25:44.897Z</time></trkpt><trkpt lat="43.0973983" lon="13.542075"><ele>157.0</ele><time>2026-03-22T09:25:45.897Z</time></trkpt><trkpt lat="43.09723" lon="13.542025"><ele>159.33333333333334</ele><time>2026-03-22T09:25:46.897Z</time></trkpt><trkpt lat="43.0970717" lon="13.541965"><ele>161.66666666666666</ele><time>2026-03-22T09:25:47.896Z</time></trkpt><trkpt lat="43.096925" lon="13.5418833"><ele>164.0</ele><time>2026-03-22T09:25:48.897Z</time></trkpt><trkpt lat="43.0968067" lon="13.54178"><ele>164.0</ele><time>2026-03-22T09:25:49.897Z</time></trkpt><trkpt lat="43.096715" lon="13.5416367"><ele>164.0</ele><time>2026-03-22T09:25:50.896Z</time></trkpt><trkpt lat="43.0966483" lon="13.54147"><ele>164.0</ele><time>2026-03-22T09:25:51.896Z</time></trkpt><trkpt lat="43.096595" lon="13.541275"><ele>164.0</ele><time>2026-03-22T09:25:52.897Z</time></trkpt><trkpt lat="43.096545" lon="13.5410483"><ele>169.33333333333331</ele><time>2026-03-22T09:25:53.896Z</time></trkpt><trkpt lat="43.0965217" lon="13.5408033"><ele>174.66666666666666</ele><time>2026-03-22T09:25:54.897Z</time></trkpt><trkpt lat="43.0964867" lon="13.54055"><ele>180.0</ele><time>2026-03-22T09:25:55.896Z</time></trkpt><trkpt lat="43.09643" lon="13.5402917"><ele>180.0</ele><time>2026-03-22T09:25:56.896Z</time></trkpt><trkpt lat="43.09636" lon="13.5400433"><ele>180.0</ele><time>2026-03-22T09:25:57.897Z</time></trkpt><trkpt lat="43.0962817" lon="13.5398067"><ele>180.0</ele><time>2026-03-22T09:25:58.896Z</time></trkpt><trkpt lat="43.0962083" lon="13.53956"><ele>179.25</ele><time>2026-03-22T09:25:59.896Z</time></trkpt><trkpt lat="43.096165" lon="13.5393417"><ele>178.5</ele><time>2026-03-22T09:26:00.897Z</time></trkpt><trkpt lat="43.0961383" lon="13.5391467"><ele>177.75</ele><time>2026-03-22T09:26:01.897Z</time></trkpt><trkpt lat="43.0960883" lon="13.538975"><ele>177.0</ele><time>2026-03-22T09:26:02.896Z</time></trkpt><trkpt lat="43.096" lon="13.5388133"><ele>176.0</ele><time>2026-03-22T09:26:03.896Z</time></trkpt><trkpt lat="43.0959217" lon="13.538645"><ele>175.0</ele><time>2026-03-22T09:26:04.897Z</time></trkpt><trkpt lat="43.0958483" lon="13.5384683"><ele>174.0</ele><time>2026-03-22T09:26:05.897Z</time></trkpt><trkpt lat="43.09575" lon="13.538245"><ele>179.33333333333334</ele><time>2026-03-22T09:26:06.897Z</time></trkpt><trkpt lat="43.0956633" lon="13.5380367"><ele>184.66666666666669</ele><time>2026-03-22T09:26:07.897Z</time></trkpt><trkpt lat="43.09564" lon="13.5378333"><ele>190.0</ele><time>2026-03-22T09:26:08.896Z</time></trkpt><trkpt lat="43.095625" lon="13.53765"><ele>190.5</ele><time>2026-03-22T09:26:09.896Z</time></trkpt><trkpt lat="43.0956283" lon="13.53746"><ele>191.0</ele><time>2026-03-22T09:26:10.897Z</time></trkpt><trkpt lat="43.095585" lon="13.5372583"><ele>191.5</ele><time>2026-03-22T09:26:11.896Z</time></trkpt><trkpt lat="43.09561" lon="13.5370733"><ele>192.0</ele><time>2026-03-22T09:26:12.897Z</time></trkpt><trkpt lat="43.0956683" lon="13.53686"><ele>193.66666666666669</ele><time>2026-03-22T09:26:13.896Z</time></trkpt><trkpt lat="43.09574" lon="13.5366417"><ele>195.33333333333334</ele><time>2026-03-22T09:26:14.897Z</time></trkpt><trkpt lat="43.0958167" lon="13.5364333"><ele>197.0</ele><time>2026-03-22T09:26:15.896Z</time></trkpt><trkpt lat="43.0958817" lon="13.5362217"><ele>192.25</ele><time>2026-03-22T09:26:16.897Z</time></trkpt><trkpt lat="43.095945" lon="13.5360367"><ele>187.5</ele><time>2026-03-22T09:26:17.897Z</time></trkpt><trkpt lat="43.0959833" lon="13.5358517"><ele>182.75</ele><time>2026-03-22T09:26:18.896Z</time></trkpt><trkpt lat="43.0960083" lon="13.5356933"><ele>178.0</ele><time>2026-03-22T09:26:19.897Z</time></trkpt><trkpt lat="43.0960217" lon="13.5355383"><ele>178.0</ele><time>2026-03-22T09:26:20.897Z</time></trkpt><trkpt lat="43.096035" lon="13.5354017"><ele>178.0</ele><time>2026-03-22T09:26:21.896Z</time></trkpt><trkpt lat="43.096035" lon="13.5352983"><ele>178.0</ele><time>2026-03-22T09:26:22.897Z</time></trkpt><trkpt lat="43.09606" lon="13.5351783"><ele>178.0</ele><time>2026-03-22T09:26:24.897Z</time></trkpt><trkpt lat="43.0961783" lon="13.5351583"><ele>178.0</ele><time>2026-03-22T09:26:26.897Z</time></trkpt><trkpt lat="43.0962633" lon="13.5351783"><ele>178.33333333333334</ele><time>2026-03-22T09:26:27.897Z</time></trkpt><trkpt lat="43.09634" lon="13.535205"><ele>178.66666666666669</ele><time>2026-03-22T09:26:28.896Z</time></trkpt><trkpt lat="43.09643" lon="13.5352467"><ele>179.0</ele><time>2026-03-22T09:26:30.897Z</time></trkpt><trkpt lat="43.0964867" lon="13.5352867"><ele>179.33333333333334</ele><time>2026-03-22T09:26:33.897Z</time></trkpt><trkpt lat="43.096555" lon="13.5353117"><ele>179.66666666666666</ele><time>2026-03-22T09:26:38.896Z</time></trkpt><trkpt lat="43.0966483" lon="13.53532"><ele>180.0</ele><time>2026-03-22T09:26:40.897Z</time></trkpt><trkpt lat="43.0967517" lon="13.5353267"><ele>177.4</ele><time>2026-03-22T09:26:42.896Z</time></trkpt><trkpt lat="43.09685" lon="13.5352033"><ele>174.8</ele><time>2026-03-22T09:26:44.897Z</time></trkpt><trkpt lat="43.0969617" lon="13.5350883"><ele>172.2</ele><time>2026-03-22T09:26:46.897Z</time></trkpt><trkpt lat="43.0970483" lon="13.5350583"><ele>169.6</ele><time>2026-03-22T09:26:48.896Z</time></trkpt><trkpt lat="43.0971117" lon="13.5350533"><ele>167.0</ele><time>2026-03-22T09:26:50.897Z</time></trkpt><trkpt lat="43.0971783" lon="13.53502"><ele>167.0</ele><time>2026-03-22T09:26:52.896Z</time></trkpt><trkpt lat="43.097235" lon="13.5349733"><ele>167.0</ele><time>2026-03-22T09:26:54.896Z</time></trkpt><trkpt lat="43.0973" lon="13.53491"><ele>167.0</ele><time>2026-03-22T09:26:57.897Z</time></trkpt><trkpt lat="43.09737" lon="13.5348167"><ele>167.0</ele><time>2026-03-22T09:27:00.896Z</time></trkpt><trkpt lat="43.097415" lon="13.5347183"><ele>167.0</ele><time>2026-03-22T09:27:02.897Z</time></trkpt><trkpt lat="43.0974183" lon="13.5345817"><ele>167.0</ele><time>2026-03-22T09:27:04.896Z</time></trkpt><trkpt lat="43.0974017" lon="13.5344883"><ele>167.39999999999998</ele><time>2026-03-22T09:27:05.897Z</time></trkpt><trkpt lat="43.097375" lon="13.5343817"><ele>167.79999999999998</ele><time>2026-03-22T09:27:06.897Z</time></trkpt><trkpt lat="43.0973483" lon="13.5342533"><ele>168.2</ele><time>2026-03-22T09:27:07.897Z</time></trkpt><trkpt lat="43.0973267" lon="13.534105"><ele>168.6</ele><time>2026-03-22T09:27:08.896Z</time></trkpt><trkpt lat="43.097315" lon="13.5339633"><ele>169.0</ele><time>2026-03-22T09:27:09.897Z</time></trkpt><trkpt lat="43.0973083" lon="13.53383"><ele>168.71428571428572</ele><time>2026-03-22T09:27:10.897Z</time></trkpt><trkpt lat="43.097295" lon="13.5337133"><ele>168.42857142857142</ele><time>2026-03-22T09:27:11.897Z</time></trkpt><trkpt lat="43.09728" lon="13.5336083"><ele>168.14285714285714</ele><time>2026-03-22T09:27:12.896Z</time></trkpt><trkpt lat="43.097255" lon="13.5335217"><ele>167.85714285714286</ele><time>2026-03-22T09:27:13.897Z</time></trkpt><trkpt lat="43.0972183" lon="13.53344"><ele>167.57142857142858</ele><time>2026-03-22T09:27:14.896Z</time></trkpt><trkpt lat="43.0971767" lon="13.5333667"><ele>167.28571428571428</ele><time>2026-03-22T09:27:15.896Z</time></trkpt><trkpt lat="43.0971383" lon="13.533295"><ele>167.0</ele><time>2026-03-22T09:27:16.896Z</time></trkpt><trkpt lat="43.0971067" lon="13.5332183"><ele>167.0</ele><time>2026-03-22T09:27:17.897Z</time></trkpt><trkpt lat="43.09707" lon="13.5330967"><ele>167.0</ele><time>2026-03-22T09:27:18.897Z</time></trkpt><trkpt lat="43.0970283" lon="13.53294"><ele>167.0</ele><time>2026-03-22T09:27:19.897Z</time></trkpt><trkpt lat="43.0969967" lon="13.5327617"><ele>167.0</ele><time>2026-03-22T09:27:20.897Z</time></trkpt><trkpt lat="43.0969567" lon="13.53259"><ele>166.25</ele><time>2026-03-22T09:27:21.897Z</time></trkpt><trkpt lat="43.0969133" lon="13.5323983"><ele>165.5</ele><time>2026-03-22T09:27:22.896Z</time></trkpt><trkpt lat="43.0968767" lon="13.5322017"><ele>164.75</ele><time>2026-03-22T09:27:23.896Z</time></trkpt><trkpt lat="43.0968333" lon="13.5320117"><ele>164.0</ele><time>2026-03-22T09:27:24.897Z</time></trkpt><trkpt lat="43.0967917" lon="13.5318283"><ele>164.0</ele><time>2026-03-22T09:27:25.896Z</time></trkpt><trkpt lat="43.0967567" lon="13.5316667"><ele>164.0</ele><time>2026-03-22T09:27:26.897Z</time></trkpt><trkpt lat="43.0967367" lon="13.5315183"><ele>164.0</ele><time>2026-03-22T09:27:27.897Z</time></trkpt><trkpt lat="43.09672" lon="13.531395"><ele>164.0</ele><time>2026-03-22T09:27:28.897Z</time></trkpt><trkpt lat="43.096705" lon="13.531305"><ele>164.0</ele><time>2026-03-22T09:27:29.896Z</time></trkpt><trkpt lat="43.0966867" lon="13.531215"><ele>164.16666666666666</ele><time>2026-03-22T09:27:30.897Z</time></trkpt><trkpt lat="43.09666" lon="13.531105"><ele>164.33333333333331</ele><time>2026-03-22T09:27:31.897Z</time></trkpt><trkpt lat="43.0966533" lon="13.5310017"><ele>164.5</ele><time>2026-03-22T09:27:32.896Z</time></trkpt><trkpt lat="43.0966533" lon="13.53089"><ele>164.66666666666666</ele><time>2026-03-22T09:27:33.896Z</time></trkpt><trkpt lat="43.0966617" lon="13.5307717"><ele>164.83333333333334</ele><time>2026-03-22T09:27:34.897Z</time></trkpt><trkpt lat="43.0966717" lon="13.5306583"><ele>165.0</ele><time>2026-03-22T09:27:35.897Z</time></trkpt><trkpt lat="43.0966717" lon="13.530525"><ele>165.0</ele><time>2026-03-22T09:27:36.897Z</time></trkpt><trkpt lat="43.096675" lon="13.530415"><ele>165.0</ele><time>2026-03-22T09:27:37.896Z</time></trkpt><trkpt lat="43.0966767" lon="13.530315"><ele>165.0</ele><time>2026-03-22T09:27:38.897Z</time></trkpt><trkpt lat="43.0966633" lon="13.5302"><ele>165.0</ele><time>2026-03-22T09:27:39.897Z</time></trkpt><trkpt lat="43.0966533" lon="13.5300783"><ele>165.0</ele><time>2026-03-22T09:27:40.897Z</time></trkpt><trkpt lat="43.09664" lon="13.5299383"><ele>165.0</ele><time>2026-03-22T09:27:41.897Z</time></trkpt><trkpt lat="43.0966217" lon="13.5297967"><ele>165.0</ele><time>2026-03-22T09:27:42.897Z</time></trkpt><trkpt lat="43.0966083" lon="13.52964"><ele>165.0</ele><time>2026-03-22T09:27:43.897Z</time></trkpt><trkpt lat="43.09659" lon="13.529455"><ele>165.0</ele><time>2026-03-22T09:27:44.896Z</time></trkpt><trkpt lat="43.09657" lon="13.5292433"><ele>165.0</ele><time>2026-03-22T09:27:45.897Z</time></trkpt><trkpt lat="43.096545" lon="13.5290183"><ele>165.66666666666666</ele><time>2026-03-22T09:27:46.896Z</time></trkpt><trkpt lat="43.0965167" lon="13.5287967"><ele>166.33333333333331</ele><time>2026-03-22T09:27:47.897Z</time></trkpt><trkpt lat="43.09651" lon="13.528585"><ele>167.0</ele><time>2026-03-22T09:27:48.897Z</time></trkpt><trkpt lat="43.0965083" lon="13.5283983"><ele>167.6</ele><time>2026-03-22T09:27:49.897Z</time></trkpt><trkpt lat="43.096515" lon="13.5282117"><ele>168.2</ele><time>2026-03-22T09:27:50.897Z</time></trkpt><trkpt lat="43.0965" lon="13.5280617"><ele>168.8</ele><time>2026-03-22T09:27:51.897Z</time></trkpt><trkpt lat="43.09651" lon="13.5279533"><ele>169.4</ele><time>2026-03-22T09:27:52.897Z</time></trkpt><trkpt lat="43.0965" lon="13.5278567"><ele>170.0</ele><time>2026-03-22T09:27:53.897Z</time></trkpt><trkpt lat="43.09648" lon="13.5277667"><ele>170.2</ele><time>2026-03-22T09:27:54.897Z</time></trkpt><trkpt lat="43.0964483" lon="13.5276733"><ele>170.4</ele><time>2026-03-22T09:27:55.897Z</time></trkpt><trkpt lat="43.09642" lon="13.5275617"><ele>170.60000000000002</ele><time>2026-03-22T09:27:56.897Z</time></trkpt><trkpt lat="43.096395" lon="13.527425"><ele>170.8</ele><time>2026-03-22T09:27:57.897Z</time></trkpt><trkpt lat="43.0963867" lon="13.5272817"><ele>171.0</ele><time>2026-03-22T09:27:58.897Z</time></trkpt><trkpt lat="43.0963817" lon="13.52713"><ele>170.60000000000002</ele><time>2026-03-22T09:27:59.896Z</time></trkpt><trkpt lat="43.0963767" lon="13.52698"><ele>170.2</ele><time>2026-03-22T09:28:00.897Z</time></trkpt><trkpt lat="43.09636" lon="13.5268383"><ele>169.8</ele><time>2026-03-22T09:28:01.897Z</time></trkpt><trkpt lat="43.0963417" lon="13.5267167"><ele>169.39999999999998</ele><time>2026-03-22T09:28:02.897Z</time></trkpt><trkpt lat="43.09632" lon="13.5266067"><ele>169.0</ele><time>2026-03-22T09:28:03.897Z</time></trkpt><trkpt lat="43.0963167" lon="13.5264817"><ele>169.0</ele><time>2026-03-22T09:28:04.897Z</time></trkpt><trkpt lat="43.09631" lon="13.526355"><ele>169.0</ele><time>2026-03-22T09:28:05.896Z</time></trkpt><trkpt lat="43.0963083" lon="13.5262417"><ele>169.0</ele><time>2026-03-22T09:28:06.897Z</time></trkpt><trkpt lat="43.0963083" lon="13.5261283"><ele>169.0</ele><time>2026-03-22T09:28:07.897Z</time></trkpt><trkpt lat="43.0963067" lon="13.526005"><ele>169.0</ele><time>2026-03-22T09:28:08.897Z</time></trkpt><trkpt lat="43.0962967" lon="13.525875"><ele>169.0</ele><time>2026-03-22T09:28:09.896Z</time></trkpt><trkpt lat="43.0962933" lon="13.52574"><ele>169.0</ele><time>2026-03-22T09:28:10.897Z</time></trkpt><trkpt lat="43.09627" lon="13.5256"><ele>169.0</ele><time>2026-03-22T09:28:11.897Z</time></trkpt><trkpt lat="43.0962567" lon="13.52545"><ele>169.0</ele><time>2026-03-22T09:28:12.896Z</time></trkpt><trkpt lat="43.0962317" lon="13.5253067"><ele>169.0</ele><time>2026-03-22T09:28:13.897Z</time></trkpt><trkpt lat="43.0962033" lon="13.5251717"><ele>169.0</ele><time>2026-03-22T09:28:14.896Z</time></trkpt><trkpt lat="43.09617" lon="13.52501"><ele>168.5</ele><time>2026-03-22T09:28:15.897Z</time></trkpt><trkpt lat="43.09615" lon="13.5248367"><ele>168.0</ele><time>2026-03-22T09:28:16.897Z</time></trkpt><trkpt lat="43.09613" lon="13.5246633"><ele>167.5</ele><time>2026-03-22T09:28:17.897Z</time></trkpt><trkpt lat="43.09611" lon="13.5244883"><ele>167.0</ele><time>2026-03-22T09:28:18.896Z</time></trkpt><trkpt lat="43.0960767" lon="13.52432"><ele>167.0</ele><time>2026-03-22T09:28:19.897Z</time></trkpt><trkpt lat="43.09604" lon="13.5241767"><ele>167.0</ele><time>2026-03-22T09:28:20.897Z</time></trkpt><trkpt lat="43.0960117" lon="13.5240317"><ele>167.0</ele><time>2026-03-22T09:28:21.896Z</time></trkpt><trkpt lat="43.0959917" lon="13.5238983"><ele>167.0</ele><time>2026-03-22T09:28:22.897Z</time></trkpt><trkpt lat="43.0959833" lon="13.5237583"><ele>167.0</ele><time>2026-03-22T09:28:23.897Z</time></trkpt><trkpt lat="43.0959567" lon="13.5236267"><ele>167.2</ele><time>2026-03-22T09:28:24.897Z</time></trkpt><trkpt lat="43.095925" lon="13.52351"><ele>167.39999999999998</ele><time>2026-03-22T09:28:25.896Z</time></trkpt><trkpt lat="43.09591" lon="13.5233583"><ele>167.60000000000002</ele><time>2026-03-22T09:28:26.896Z</time></trkpt><trkpt lat="43.0959067" lon="13.5232217"><ele>167.8</ele><time>2026-03-22T09:28:27.897Z</time></trkpt><trkpt lat="43.0959167" lon="13.523085"><ele>168.0</ele><time>2026-03-22T09:28:28.896Z</time></trkpt><trkpt lat="43.0959483" lon="13.52292"><ele>167.5</ele><time>2026-03-22T09:28:29.897Z</time></trkpt><trkpt lat="43.0959933" lon="13.5227417"><ele>167.0</ele><time>2026-03-22T09:28:30.897Z</time></trkpt><trkpt lat="43.0960483" lon="13.522595"><ele>166.5</ele><time>2026-03-22T09:28:31.897Z</time></trkpt><trkpt lat="43.0960833" lon="13.5224667"><ele>166.0</ele><time>2026-03-22T09:28:32.897Z</time></trkpt><trkpt lat="43.0960933" lon="13.52234"><ele>166.0</ele><time>2026-03-22T09:28:33.897Z</time></trkpt><trkpt lat="43.0960867" lon="13.5222067"><ele>166.0</ele><time>2026-03-22T09:28:34.897Z</time></trkpt><trkpt lat="43.0960683" lon="13.5220683"><ele>166.0</ele><time>2026-03-22T09:28:35.896Z</time></trkpt><trkpt lat="43.0960567" lon="13.5219167"><ele>166.0</ele><time>2026-03-22T09:28:36.896Z</time></trkpt><trkpt lat="43.096035" lon="13.5217217"><ele>166.0</ele><time>2026-03-22T09:28:37.897Z</time></trkpt><trkpt lat="43.09602" lon="13.5214967"><ele>166.0</ele><time>2026-03-22T09:28:38.897Z</time></trkpt><trkpt lat="43.0960133" lon="13.521275"><ele>166.0</ele><time>2026-03-22T09:28:39.897Z</time></trkpt><trkpt lat="43.0960117" lon="13.52108"><ele>166.0</ele><time>2026-03-22T09:28:40.897Z</time></trkpt><trkpt lat="43.0960067" lon="13.520915"><ele>166.0</ele><time>2026-03-22T09:28:41.896Z</time></trkpt><trkpt lat="43.0960067" lon="13.520765"><ele>166.0</ele><time>2026-03-22T09:28:42.897Z</time></trkpt><trkpt lat="43.096" lon="13.5206133"><ele>166.0</ele><time>2026-03-22T09:28:43.897Z</time></trkpt><trkpt lat="43.0959917" lon="13.5204833"><ele>166.0</ele><time>2026-03-22T09:28:44.897Z</time></trkpt><trkpt lat="43.095975" lon="13.520365"><ele>166.0</ele><time>2026-03-22T09:28:45.896Z</time></trkpt><trkpt lat="43.0959583" lon="13.5202433"><ele>166.0</ele><time>2026-03-22T09:28:46.897Z</time></trkpt><trkpt lat="43.0959283" lon="13.520115"><ele>166.0</ele><time>2026-03-22T09:28:47.896Z</time></trkpt><trkpt lat="43.0958767" lon="13.5199617"><ele>166.0</ele><time>2026-03-22T09:28:48.897Z</time></trkpt><trkpt lat="43.09581" lon="13.5197933"><ele>166.5</ele><time>2026-03-22T09:28:49.897Z</time></trkpt><trkpt lat="43.0957417" lon="13.5196067"><ele>167.0</ele><time>2026-03-22T09:28:50.897Z</time></trkpt><trkpt lat="43.09569" lon="13.51945"><ele>167.5</ele><time>2026-03-22T09:28:51.896Z</time></trkpt><trkpt lat="43.09563" lon="13.51931"><ele>168.0</ele><time>2026-03-22T09:28:52.897Z</time></trkpt><trkpt lat="43.0955417" lon="13.519175"><ele>168.0</ele><time>2026-03-22T09:28:53.896Z</time></trkpt><trkpt lat="43.095475" lon="13.519045"><ele>168.0</ele><time>2026-03-22T09:28:54.897Z</time></trkpt><trkpt lat="43.0953933" lon="13.518905"><ele>168.0</ele><time>2026-03-22T09:28:55.897Z</time></trkpt><trkpt lat="43.0953033" lon="13.5187633"><ele>168.0</ele><time>2026-03-22T09:28:56.896Z</time></trkpt><trkpt lat="43.0952083" lon="13.5186067"><ele>168.0</ele><time>2026-03-22T09:28:57.897Z</time></trkpt><trkpt lat="43.09512" lon="13.518445"><ele>168.0</ele><time>2026-03-22T09:28:58.897Z</time></trkpt><trkpt lat="43.0950517" lon="13.5182983"><ele>168.0</ele><time>2026-03-22T09:28:59.897Z</time></trkpt><trkpt lat="43.0949833" lon="13.5181567"><ele>168.0</ele><time>2026-03-22T09:29:00.897Z</time></trkpt><trkpt lat="43.0949383" lon="13.5180267"><ele>168.33333333333334</ele><time>2026-03-22T09:29:01.897Z</time></trkpt><trkpt lat="43.0949" lon="13.51791"><ele>168.66666666666666</ele><time>2026-03-22T09:29:02.897Z</time></trkpt><trkpt lat="43.094865" lon="13.517815"><ele>169.0</ele><time>2026-03-22T09:29:03.896Z</time></trkpt><trkpt lat="43.094825" lon="13.5176783"><ele>169.33333333333331</ele><time>2026-03-22T09:29:05.897Z</time></trkpt><trkpt lat="43.0947583" lon="13.5176433"><ele>169.66666666666666</ele><time>2026-03-22T09:29:08.896Z</time></trkpt><trkpt lat="43.0946867" lon="13.5177067"><ele>170.0</ele><time>2026-03-22T09:29:10.897Z</time></trkpt><trkpt lat="43.09463" lon="13.517775"><ele>170.0</ele><time>2026-03-22T09:29:11.897Z</time></trkpt><trkpt lat="43.0945617" lon="13.5178417"><ele>170.0</ele><time>2026-03-22T09:29:12.897Z</time></trkpt><trkpt lat="43.0944817" lon="13.5179333"><ele>170.0</ele><time>2026-03-22T09:29:13.896Z</time></trkpt><trkpt lat="43.0943917" lon="13.51804"><ele>170.0</ele><time>2026-03-22T09:29:14.897Z</time></trkpt><trkpt lat="43.0942933" lon="13.5181517"><ele>170.0</ele><time>2026-03-22T09:29:15.896Z</time></trkpt><trkpt lat="43.0941833" lon="13.5182917"><ele>171.33333333333331</ele><time>2026-03-22T09:29:16.897Z</time></trkpt><trkpt lat="43.0940633" lon="13.5184333"><ele>172.66666666666666</ele><time>2026-03-22T09:29:17.897Z</time></trkpt><trkpt lat="43.0939317" lon="13.51858"><ele>174.0</ele><time>2026-03-22T09:29:18.897Z</time></trkpt><trkpt lat="43.0937983" lon="13.5187183"><ele>174.0</ele><time>2026-03-22T09:29:19.896Z</time></trkpt><trkpt lat="43.0936817" lon="13.518845"><ele>174.0</ele><time>2026-03-22T09:29:20.897Z</time></trkpt><trkpt lat="43.0935783" lon="13.5189633"><ele>174.0</ele><time>2026-03-22T09:29:21.896Z</time></trkpt><trkpt lat="43.09348" lon="13.5190617"><ele>174.0</ele><time>2026-03-22T09:29:22.897Z</time></trkpt><trkpt lat="43.093395" lon="13.5191533"><ele>174.0</ele><time>2026-03-22T09:29:23.896Z</time></trkpt><trkpt lat="43.09332" lon="13.519235"><ele>174.0</ele><time>2026-03-22T09:29:24.897Z</time></trkpt><trkpt lat="43.0932617" lon="13.5192883"><ele>174.0</ele><time>2026-03-22T09:29:25.896Z</time></trkpt><trkpt lat="43.09315" lon="13.5193183"><ele>174.0</ele><time>2026-03-22T09:29:27.897Z</time></trkpt><trkpt lat="43.0930667" lon="13.5192483"><ele>174.0</ele><time>2026-03-22T09:29:29.896Z</time></trkpt><trkpt lat="43.09303" lon="13.5191533"><ele>174.75</ele><time>2026-03-22T09:29:30.897Z</time></trkpt><trkpt lat="43.0929883" lon="13.5190233"><ele>175.5</ele><time>2026-03-22T09:29:31.897Z</time></trkpt><trkpt lat="43.09294" lon="13.5188817"><ele>176.25</ele><time>2026-03-22T09:29:32.897Z</time></trkpt><trkpt lat="43.0928683" lon="13.518715"><ele>177.0</ele><time>2026-03-22T09:29:33.897Z</time></trkpt><trkpt lat="43.0927983" lon="13.51855"><ele>177.66666666666666</ele><time>2026-03-22T09:29:34.896Z</time></trkpt><trkpt lat="43.0927217" lon="13.51838"><ele>178.33333333333331</ele><time>2026-03-22T09:29:35.897Z</time></trkpt><trkpt lat="43.0926483" lon="13.5182017"><ele>179.0</ele><time>2026-03-22T09:29:36.897Z</time></trkpt><trkpt lat="43.0925733" lon="13.5180167"><ele>179.0</ele><time>2026-03-22T09:29:37.896Z</time></trkpt><trkpt lat="43.0924867" lon="13.5178217"><ele>179.0</ele><time>2026-03-22T09:29:38.897Z</time></trkpt><trkpt lat="43.0923983" lon="13.517615"><ele>179.0</ele><time>2026-03-22T09:29:39.897Z</time></trkpt><trkpt lat="43.0923017" lon="13.5174117"><ele>179.66666666666666</ele><time>2026-03-22T09:29:40.897Z</time></trkpt><trkpt lat="43.0922067" lon="13.5172117"><ele>180.33333333333334</ele><time>2026-03-22T09:29:41.897Z</time></trkpt><trkpt lat="43.0921133" lon="13.517005"><ele>181.0</ele><time>2026-03-22T09:29:42.897Z</time></trkpt><trkpt lat="43.0920083" lon="13.51679"><ele>181.0</ele><time>2026-03-22T09:29:43.897Z</time></trkpt><trkpt lat="43.0919033" lon="13.5165783"><ele>181.0</ele><time>2026-03-22T09:29:44.896Z</time></trkpt><trkpt lat="43.0917933" lon="13.5163467"><ele>181.0</ele><time>2026-03-22T09:29:45.896Z</time></trkpt><trkpt lat="43.091685" lon="13.51611"><ele>183.0</ele><time>2026-03-22T09:29:46.896Z</time></trkpt><trkpt lat="43.0915833" lon="13.5158717"><ele>185.0</ele><time>2026-03-22T09:29:47.896Z</time></trkpt><trkpt lat="43.0914683" lon="13.5156283"><ele>187.0</ele><time>2026-03-22T09:29:48.897Z</time></trkpt><trkpt lat="43.09135" lon="13.5153867"><ele>187.0</ele><time>2026-03-22T09:29:49.897Z</time></trkpt><trkpt lat="43.0912267" lon="13.5151417"><ele>187.0</ele><time>2026-03-22T09:29:50.896Z</time></trkpt><trkpt lat="43.0911183" lon="13.5148817"><ele>187.0</ele><time>2026-03-22T09:29:51.896Z</time></trkpt><trkpt lat="43.0910033" lon="13.5146283"><ele>187.66666666666669</ele><time>2026-03-22T09:29:52.896Z</time></trkpt><trkpt lat="43.0908817" lon="13.5143733"><ele>188.33333333333334</ele><time>2026-03-22T09:29:53.896Z</time></trkpt><trkpt lat="43.090765" lon="13.5141233"><ele>189.0</ele><time>2026-03-22T09:29:54.897Z</time></trkpt><trkpt lat="43.0906417" lon="13.513875"><ele>187.0</ele><time>2026-03-22T09:29:55.897Z</time></trkpt><trkpt lat="43.0905283" lon="13.5136267"><ele>185.0</ele><time>2026-03-22T09:29:56.897Z</time></trkpt><trkpt lat="43.090415" lon="13.51337"><ele>183.0</ele><time>2026-03-22T09:29:57.897Z</time></trkpt><trkpt lat="43.0902967" lon="13.51313"><ele>183.66666666666666</ele><time>2026-03-22T09:29:58.897Z</time></trkpt><trkpt lat="43.0901833" lon="13.5128967"><ele>184.33333333333331</ele><time>2026-03-22T09:29:59.896Z</time></trkpt><trkpt lat="43.0900533" lon="13.5126667"><ele>185.0</ele><time>2026-03-22T09:30:00.897Z</time></trkpt><trkpt lat="43.0899217" lon="13.512425"><ele>185.0</ele><time>2026-03-22T09:30:01.897Z</time></trkpt><trkpt lat="43.08977" lon="13.5121783"><ele>185.0</ele><time>2026-03-22T09:30:02.897Z</time></trkpt><trkpt lat="43.0896333" lon="13.511945"><ele>183.33333333333331</ele><time>2026-03-22T09:30:03.896Z</time></trkpt><trkpt lat="43.0895017" lon="13.5117033"><ele>181.66666666666666</ele><time>2026-03-22T09:30:04.897Z</time></trkpt><trkpt lat="43.089375" lon="13.511475"><ele>180.0</ele><time>2026-03-22T09:30:05.896Z</time></trkpt><trkpt lat="43.0892483" lon="13.5112433"><ele>179.33333333333334</ele><time>2026-03-22T09:30:06.897Z</time></trkpt><trkpt lat="43.0891133" lon="13.5110217"><ele>178.66666666666669</ele><time>2026-03-22T09:30:07.897Z</time></trkpt><trkpt lat="43.0889717" lon="13.510805"><ele>178.0</ele><time>2026-03-22T09:30:08.896Z</time></trkpt><trkpt lat="43.0888317" lon="13.510595"><ele>179.66666666666669</ele><time>2026-03-22T09:30:09.897Z</time></trkpt><trkpt lat="43.0886933" lon="13.51038"><ele>181.33333333333334</ele><time>2026-03-22T09:30:10.896Z</time></trkpt><trkpt lat="43.0885533" lon="13.5101683"><ele>183.0</ele><time>2026-03-22T09:30:11.897Z</time></trkpt><trkpt lat="43.0884183" lon="13.5099617"><ele>183.0</ele><time>2026-03-22T09:30:12.896Z</time></trkpt><trkpt lat="43.088295" lon="13.50976"><ele>183.0</ele><time>2026-03-22T09:30:13.897Z</time></trkpt><trkpt lat="43.088175" lon="13.5095367"><ele>183.0</ele><time>2026-03-22T09:30:14.896Z</time></trkpt><trkpt lat="43.0880867" lon="13.5093067"><ele>183.33333333333334</ele><time>2026-03-22T09:30:15.897Z</time></trkpt><trkpt lat="43.0880033" lon="13.5090383"><ele>183.66666666666669</ele><time>2026-03-22T09:30:16.897Z</time></trkpt><trkpt lat="43.0879317" lon="13.5087717"><ele>184.0</ele><time>2026-03-22T09:30:17.897Z</time></trkpt><trkpt lat="43.0878717" lon="13.5084933"><ele>184.0</ele><time>2026-03-22T09:30:18.897Z</time></trkpt><trkpt lat="43.0878067" lon="13.5082233"><ele>184.0</ele><time>2026-03-22T09:30:19.897Z</time></trkpt><trkpt lat="43.0877433" lon="13.5079383"><ele>184.0</ele><time>2026-03-22T09:30:20.896Z</time></trkpt><trkpt lat="43.087685" lon="13.5076733"><ele>183.33333333333334</ele><time>2026-03-22T09:30:21.897Z</time></trkpt><trkpt lat="43.087625" lon="13.5073967"><ele>182.66666666666666</ele><time>2026-03-22T09:30:22.896Z</time></trkpt><trkpt lat="43.0875733" lon="13.5071183"><ele>182.0</ele><time>2026-03-22T09:30:23.897Z</time></trkpt><trkpt lat="43.0875133" lon="13.506845"><ele>181.33333333333331</ele><time>2026-03-22T09:30:24.896Z</time></trkpt><trkpt lat="43.087445" lon="13.5065833"><ele>180.66666666666666</ele><time>2026-03-22T09:30:25.897Z</time></trkpt><trkpt lat="43.0873583" lon="13.5063367"><ele>180.0</ele><time>2026-03-22T09:30:26.897Z</time></trkpt><trkpt lat="43.0872817" lon="13.506115"><ele>182.33333333333334</ele><time>2026-03-22T09:30:27.897Z</time></trkpt><trkpt lat="43.08717" lon="13.5059183"><ele>184.66666666666669</ele><time>2026-03-22T09:30:28.896Z</time></trkpt><trkpt lat="43.08705" lon="13.5057083"><ele>187.0</ele><time>2026-03-22T09:30:29.897Z</time></trkpt><trkpt lat="43.08692" lon="13.505505"><ele>185.33333333333334</ele><time>2026-03-22T09:30:30.896Z</time></trkpt><trkpt lat="43.086795" lon="13.5052917"><ele>183.66666666666666</ele><time>2026-03-22T09:30:31.896Z</time></trkpt><trkpt lat="43.08668" lon="13.5050733"><ele>182.0</ele><time>2026-03-22T09:30:32.896Z</time></trkpt><trkpt lat="43.08659" lon="13.5048383"><ele>184.33333333333331</ele><time>2026-03-22T09:30:33.897Z</time></trkpt><trkpt lat="43.08651" lon="13.504595"><ele>186.66666666666666</ele><time>2026-03-22T09:30:34.897Z</time></trkpt><trkpt lat="43.08643" lon="13.5043467"><ele>189.0</ele><time>2026-03-22T09:30:35.896Z</time></trkpt><trkpt lat="43.0863567" lon="13.504095"><ele>189.0</ele><time>2026-03-22T09:30:36.897Z</time></trkpt><trkpt lat="43.0862967" lon="13.5038117"><ele>189.0</ele><time>2026-03-22T09:30:37.896Z</time></trkpt><trkpt lat="43.086225" lon="13.5035317"><ele>189.0</ele><time>2026-03-22T09:30:38.897Z</time></trkpt><trkpt lat="43.0861717" lon="13.5032433"><ele>187.33333333333334</ele><time>2026-03-22T09:30:39.897Z</time></trkpt><trkpt lat="43.0861117" lon="13.50298"><ele>185.66666666666669</ele><time>2026-03-22T09:30:40.897Z</time></trkpt><trkpt lat="43.0860383" lon="13.5027183"><ele>184.0</ele><time>2026-03-22T09:30:41.897Z</time></trkpt><trkpt lat="43.0859667" lon="13.5024567"><ele>183.33333333333334</ele><time>2026-03-22T09:30:42.896Z</time></trkpt><trkpt lat="43.0859033" lon="13.5022017"><ele>182.66666666666666</ele><time>2026-03-22T09:30:43.897Z</time></trkpt><trkpt lat="43.0858167" lon="13.5019383"><ele>182.0</ele><time>2026-03-22T09:30:44.897Z</time></trkpt><trkpt lat="43.085755" lon="13.5016667"><ele>183.33333333333331</ele><time>2026-03-22T09:30:45.896Z</time></trkpt><trkpt lat="43.085705" lon="13.5013933"><ele>184.66666666666666</ele><time>2026-03-22T09:30:46.897Z</time></trkpt><trkpt lat="43.0856267" lon="13.5011333"><ele>186.0</ele><time>2026-03-22T09:30:47.897Z</time></trkpt><trkpt lat="43.085545" lon="13.5008683"><ele>186.0</ele><time>2026-03-22T09:30:48.896Z</time></trkpt><trkpt lat="43.0854833" lon="13.5006"><ele>186.0</ele><time>2026-03-22T09:30:49.897Z</time></trkpt><trkpt lat="43.0854367" lon="13.50034"><ele>186.0</ele><time>2026-03-22T09:30:50.896Z</time></trkpt><trkpt lat="43.0853783" lon="13.5000717"><ele>185.33333333333334</ele><time>2026-03-22T09:30:51.897Z</time></trkpt><trkpt lat="43.0853233" lon="13.4998033"><ele>184.66666666666669</ele><time>2026-03-22T09:30:52.897Z</time></trkpt><trkpt lat="43.0852733" lon="13.4995383"><ele>184.0</ele><time>2026-03-22T09:30:53.897Z</time></trkpt><trkpt lat="43.085245" lon="13.4992717"><ele>184.0</ele><time>2026-03-22T09:30:54.896Z</time></trkpt><trkpt lat="43.0852233" lon="13.499"><ele>184.0</ele><time>2026-03-22T09:30:55.897Z</time></trkpt><trkpt lat="43.0852167" lon="13.498725"><ele>184.0</ele><time>2026-03-22T09:30:56.896Z</time></trkpt><trkpt lat="43.0852383" lon="13.4984683"><ele>184.33333333333334</ele><time>2026-03-22T09:30:57.897Z</time></trkpt><trkpt lat="43.085275" lon="13.4982067"><ele>184.66666666666666</ele><time>2026-03-22T09:30:58.896Z</time></trkpt><trkpt lat="43.0853317" lon="13.4979533"><ele>185.0</ele><time>2026-03-22T09:30:59.897Z</time></trkpt><trkpt lat="43.085375" lon="13.4977117"><ele>185.0</ele><time>2026-03-22T09:31:00.897Z</time></trkpt><trkpt lat="43.0853967" lon="13.4974517"><ele>185.0</ele><time>2026-03-22T09:31:01.896Z</time></trkpt><trkpt lat="43.0853867" lon="13.497165"><ele>185.0</ele><time>2026-03-22T09:31:02.897Z</time></trkpt><trkpt lat="43.0853767" lon="13.4968867"><ele>185.0</ele><time>2026-03-22T09:31:03.896Z</time></trkpt><trkpt lat="43.08537" lon="13.4966233"><ele>185.0</ele><time>2026-03-22T09:31:04.897Z</time></trkpt><trkpt lat="43.08534" lon="13.4963533"><ele>185.0</ele><time>2026-03-22T09:31:05.897Z</time></trkpt><trkpt lat="43.0852817" lon="13.4961"><ele>185.0</ele><time>2026-03-22T09:31:06.897Z</time></trkpt><trkpt lat="43.0852267" lon="13.4958583"><ele>185.0</ele><time>2026-03-22T09:31:07.896Z</time></trkpt><trkpt lat="43.0851633" lon="13.4956133"><ele>185.0</ele><time>2026-03-22T09:31:08.896Z</time></trkpt><trkpt lat="43.0851067" lon="13.4953683"><ele>184.33333333333331</ele><time>2026-03-22T09:31:09.897Z</time></trkpt><trkpt lat="43.0850517" lon="13.495125"><ele>183.66666666666666</ele><time>2026-03-22T09:31:10.896Z</time></trkpt><trkpt lat="43.084985" lon="13.4949067"><ele>183.0</ele><time>2026-03-22T09:31:11.897Z</time></trkpt><trkpt lat="43.0849117" lon="13.4946767"><ele>184.66666666666666</ele><time>2026-03-22T09:31:12.897Z</time></trkpt><trkpt lat="43.084855" lon="13.4944517"><ele>186.33333333333331</ele><time>2026-03-22T09:31:13.896Z</time></trkpt><trkpt lat="43.0848" lon="13.4942367"><ele>188.0</ele><time>2026-03-22T09:31:14.896Z</time></trkpt><trkpt lat="43.0847483" lon="13.4940317"><ele>188.0</ele><time>2026-03-22T09:31:15.896Z</time></trkpt><trkpt lat="43.084695" lon="13.4938367"><ele>188.0</ele><time>2026-03-22T09:31:16.897Z</time></trkpt><trkpt lat="43.0846467" lon="13.4936533"><ele>188.0</ele><time>2026-03-22T09:31:17.896Z</time></trkpt><trkpt lat="43.0846117" lon="13.4934783"><ele>188.0</ele><time>2026-03-22T09:31:18.897Z</time></trkpt><trkpt lat="43.0845717" lon="13.4932933"><ele>187.8</ele><time>2026-03-22T09:31:19.897Z</time></trkpt><trkpt lat="43.084525" lon="13.4931383"><ele>187.60000000000002</ele><time>2026-03-22T09:31:20.897Z</time></trkpt><trkpt lat="43.084485" lon="13.492995"><ele>187.39999999999998</ele><time>2026-03-22T09:31:21.897Z</time></trkpt><trkpt lat="43.0844383" lon="13.4929083"><ele>187.2</ele><time>2026-03-22T09:31:22.896Z</time></trkpt><trkpt lat="43.08441" lon="13.4928217"><ele>187.0</ele><time>2026-03-22T09:31:23.896Z</time></trkpt><trkpt lat="43.0843867" lon="13.4927283"><ele>187.0</ele><time>2026-03-22T09:31:24.897Z</time></trkpt><trkpt lat="43.084365" lon="13.49264"><ele>187.0</ele><time>2026-03-22T09:31:25.896Z</time></trkpt><trkpt lat="43.0843417" lon="13.4925517"><ele>187.0</ele><time>2026-03-22T09:31:26.897Z</time></trkpt><trkpt lat="43.08431" lon="13.49245"><ele>187.0</ele><time>2026-03-22T09:31:27.896Z</time></trkpt><trkpt lat="43.084275" lon="13.4923533"><ele>187.0</ele><time>2026-03-22T09:31:28.897Z</time></trkpt><trkpt lat="43.0842367" lon="13.4922283"><ele>187.0</ele><time>2026-03-22T09:31:29.897Z</time></trkpt><trkpt lat="43.0842" lon="13.4920667"><ele>187.5</ele><time>2026-03-22T09:31:30.896Z</time></trkpt><trkpt lat="43.08415" lon="13.491895"><ele>188.0</ele><time>2026-03-22T09:31:31.896Z</time></trkpt><trkpt lat="43.0840833" lon="13.49172"><ele>188.5</ele><time>2026-03-22T09:31:32.897Z</time></trkpt><trkpt lat="43.084035" lon="13.4915517"><ele>189.0</ele><time>2026-03-22T09:31:33.897Z</time></trkpt><trkpt lat="43.0839767" lon="13.4913583"><ele>191.33333333333331</ele><time>2026-03-22T09:31:34.896Z</time></trkpt><trkpt lat="43.0839" lon="13.491165"><ele>193.66666666666666</ele><time>2026-03-22T09:31:35.896Z</time></trkpt><trkpt lat="43.083835" lon="13.4909783"><ele>196.0</ele><time>2026-03-22T09:31:36.897Z</time></trkpt><trkpt lat="43.0837617" lon="13.4907933"><ele>196.0</ele><time>2026-03-22T09:31:37.896Z</time></trkpt><trkpt lat="43.0837017" lon="13.4906367"><ele>196.0</ele><time>2026-03-22T09:31:38.897Z</time></trkpt><trkpt lat="43.0836483" lon="13.4905017"><ele>196.0</ele><time>2026-03-22T09:31:39.896Z</time></trkpt><trkpt lat="43.0836017" lon="13.4903933"><ele>196.0</ele><time>2026-03-22T09:31:40.897Z</time></trkpt><trkpt lat="43.0835733" lon="13.4902733"><ele>196.0</ele><time>2026-03-22T09:31:41.897Z</time></trkpt><trkpt lat="43.083545" lon="13.4901333"><ele>194.8</ele><time>2026-03-22T09:31:42.897Z</time></trkpt><trkpt lat="43.0835133" lon="13.4899933"><ele>193.60000000000002</ele><time>2026-03-22T09:31:43.896Z</time></trkpt><trkpt lat="43.0834667" lon="13.4898567"><ele>192.4</ele><time>2026-03-22T09:31:44.897Z</time></trkpt><trkpt lat="43.0834217" lon="13.4897283"><ele>191.2</ele><time>2026-03-22T09:31:45.897Z</time></trkpt><trkpt lat="43.0833667" lon="13.4896283"><ele>190.0</ele><time>2026-03-22T09:31:46.897Z</time></trkpt><trkpt lat="43.0833467" lon="13.4895117"><ele>189.5</ele><time>2026-03-22T09:31:48.897Z</time></trkpt><trkpt lat="43.083335" lon="13.4894217"><ele>189.0</ele><time>2026-03-22T09:31:49.896Z</time></trkpt><trkpt lat="43.0833417" lon="13.4893283"><ele>188.5</ele><time>2026-03-22T09:31:50.897Z</time></trkpt><trkpt lat="43.0833117" lon="13.4891817"><ele>188.0</ele><time>2026-03-22T09:31:52.897Z</time></trkpt><trkpt lat="43.0832733" lon="13.489095"><ele>187.5</ele><time>2026-03-22T09:31:53.897Z</time></trkpt><trkpt lat="43.0832083" lon="13.489"><ele>187.0</ele><time>2026-03-22T09:31:54.897Z</time></trkpt><trkpt lat="43.0831417" lon="13.4888817"><ele>186.75</ele><time>2026-03-22T09:31:55.897Z</time></trkpt><trkpt lat="43.083055" lon="13.4887333"><ele>186.5</ele><time>2026-03-22T09:31:56.897Z</time></trkpt><trkpt lat="43.0829817" lon="13.4885883"><ele>186.25</ele><time>2026-03-22T09:31:57.897Z</time></trkpt><trkpt lat="43.0828983" lon="13.4884483"><ele>186.0</ele><time>2026-03-22T09:31:58.896Z</time></trkpt><trkpt lat="43.0828267" lon="13.4883217"><ele>186.0</ele><time>2026-03-22T09:31:59.897Z</time></trkpt><trkpt lat="43.082765" lon="13.4882"><ele>186.0</ele><time>2026-03-22T09:32:00.897Z</time></trkpt><trkpt lat="43.082705" lon="13.4880833"><ele>186.0</ele><time>2026-03-22T09:32:01.897Z</time></trkpt><trkpt lat="43.08263" lon="13.4879883"><ele>186.0</ele><time>2026-03-22T09:32:02.897Z</time></trkpt><trkpt lat="43.082555" lon="13.4879233"><ele>186.0</ele><time>2026-03-22T09:32:03.897Z</time></trkpt><trkpt lat="43.08249" lon="13.4878733"><ele>186.20000000000002</ele><time>2026-03-22T09:32:04.897Z</time></trkpt><trkpt lat="43.082435" lon="13.4878233"><ele>186.4</ele><time>2026-03-22T09:32:05.897Z</time></trkpt><trkpt lat="43.082395" lon="13.4877467"><ele>186.6</ele><time>2026-03-22T09:32:06.897Z</time></trkpt><trkpt lat="43.08234" lon="13.4876483"><ele>186.8</ele><time>2026-03-22T09:32:07.897Z</time></trkpt><trkpt lat="43.08227" lon="13.48753"><ele>187.0</ele><time>2026-03-22T09:32:08.897Z</time></trkpt><trkpt lat="43.08218" lon="13.4874083"><ele>187.75</ele><time>2026-03-22T09:32:09.897Z</time></trkpt><trkpt lat="43.0820867" lon="13.4872867"><ele>188.5</ele><time>2026-03-22T09:32:10.897Z</time></trkpt><trkpt lat="43.082" lon="13.487165"><ele>189.25</ele><time>2026-03-22T09:32:11.897Z</time></trkpt><trkpt lat="43.0819183" lon="13.4870483"><ele>190.0</ele><time>2026-03-22T09:32:12.896Z</time></trkpt><trkpt lat="43.0818283" lon="13.4869217"><ele>190.25</ele><time>2026-03-22T09:32:13.897Z</time></trkpt><trkpt lat="43.0817183" lon="13.4867983"><ele>190.5</ele><time>2026-03-22T09:32:14.897Z</time></trkpt><trkpt lat="43.08161" lon="13.4866633"><ele>190.75</ele><time>2026-03-22T09:32:15.896Z</time></trkpt><trkpt lat="43.0814967" lon="13.4865317"><ele>191.0</ele><time>2026-03-22T09:32:16.897Z</time></trkpt><trkpt lat="43.0813817" lon="13.4863833"><ele>192.0</ele><time>2026-03-22T09:32:17.896Z</time></trkpt><trkpt lat="43.081265" lon="13.4862417"><ele>193.0</ele><time>2026-03-22T09:32:18.897Z</time></trkpt><trkpt lat="43.0811483" lon="13.4861117"><ele>194.0</ele><time>2026-03-22T09:32:19.897Z</time></trkpt><trkpt lat="43.0810267" lon="13.4859917"><ele>194.0</ele><time>2026-03-22T09:32:20.896Z</time></trkpt><trkpt lat="43.0809067" lon="13.4858667"><ele>194.0</ele><time>2026-03-22T09:32:21.897Z</time></trkpt><trkpt lat="43.08077" lon="13.48575"><ele>194.0</ele><time>2026-03-22T09:32:22.897Z</time></trkpt><trkpt lat="43.0806567" lon="13.4856217"><ele>194.5</ele><time>2026-03-22T09:32:23.897Z</time></trkpt><trkpt lat="43.080545" lon="13.4855"><ele>195.0</ele><time>2026-03-22T09:32:24.897Z</time></trkpt><trkpt lat="43.0804317" lon="13.485365"><ele>195.5</ele><time>2026-03-22T09:32:25.896Z</time></trkpt><trkpt lat="43.0803167" lon="13.4852517"><ele>196.0</ele><time>2026-03-22T09:32:26.896Z</time></trkpt><trkpt lat="43.0802" lon="13.4851267"><ele>196.0</ele><time>2026-03-22T09:32:27.896Z</time></trkpt><trkpt lat="43.0800883" lon="13.4849817"><ele>196.0</ele><time>2026-03-22T09:32:28.897Z</time></trkpt><trkpt lat="43.0799783" lon="13.4848517"><ele>196.0</ele><time>2026-03-22T09:32:29.896Z</time></trkpt><trkpt lat="43.079865" lon="13.4846983"><ele>195.66666666666666</ele><time>2026-03-22T09:32:30.897Z</time></trkpt><trkpt lat="43.079715" lon="13.484545"><ele>195.33333333333331</ele><time>2026-03-22T09:32:31.897Z</time></trkpt><trkpt lat="43.079595" lon="13.484385"><ele>195.0</ele><time>2026-03-22T09:32:32.897Z</time></trkpt><trkpt lat="43.079465" lon="13.4842067"><ele>195.0</ele><time>2026-03-22T09:32:33.897Z</time></trkpt><trkpt lat="43.0793267" lon="13.4840533"><ele>195.0</ele><time>2026-03-22T09:32:34.897Z</time></trkpt><trkpt lat="43.0792017" lon="13.4838917"><ele>195.0</ele><time>2026-03-22T09:32:35.896Z</time></trkpt><trkpt lat="43.0790833" lon="13.4837283"><ele>194.66666666666669</ele><time>2026-03-22T09:32:36.897Z</time></trkpt><trkpt lat="43.0789633" lon="13.483575"><ele>194.33333333333334</ele><time>2026-03-22T09:32:37.897Z</time></trkpt><trkpt lat="43.0788533" lon="13.4834183"><ele>194.0</ele><time>2026-03-22T09:32:38.897Z</time></trkpt><trkpt lat="43.07874" lon="13.483255"><ele>194.0</ele><time>2026-03-22T09:32:39.897Z</time></trkpt><trkpt lat="43.078635" lon="13.48308"><ele>194.0</ele><time>2026-03-22T09:32:40.897Z</time></trkpt><trkpt lat="43.0785183" lon="13.4829217"><ele>194.0</ele><time>2026-03-22T09:32:41.896Z</time></trkpt><trkpt lat="43.0783967" lon="13.4827767"><ele>193.66666666666669</ele><time>2026-03-22T09:32:42.897Z</time></trkpt><trkpt lat="43.0782833" lon="13.4826217"><ele>193.33333333333331</ele><time>2026-03-22T09:32:43.897Z</time></trkpt><trkpt lat="43.0781683" lon="13.4824417"><ele>193.0</ele><time>2026-03-22T09:32:44.897Z</time></trkpt><trkpt lat="43.078045" lon="13.4822533"><ele>194.33333333333331</ele><time>2026-03-22T09:32:45.897Z</time></trkpt><trkpt lat="43.077925" lon="13.4820717"><ele>195.66666666666669</ele><time>2026-03-22T09:32:46.896Z</time></trkpt><trkpt lat="43.07782" lon="13.48191"><ele>197.0</ele><time>2026-03-22T09:32:47.897Z</time></trkpt><trkpt lat="43.07771" lon="13.4817617"><ele>197.0</ele><time>2026-03-22T09:32:48.896Z</time></trkpt><trkpt lat="43.0776283" lon="13.481605"><ele>197.0</ele><time>2026-03-22T09:32:49.897Z</time></trkpt><trkpt lat="43.0775633" lon="13.4814583"><ele>197.0</ele><time>2026-03-22T09:32:50.896Z</time></trkpt><trkpt lat="43.07751" lon="13.48136"><ele>197.0</ele><time>2026-03-22T09:32:51.897Z</time></trkpt><trkpt lat="43.0774683" lon="13.4812767"><ele>197.0</ele><time>2026-03-22T09:32:52.897Z</time></trkpt><trkpt lat="43.0774183" lon="13.481145"><ele>197.00000000000003</ele><time>2026-03-22T09:32:54.897Z</time></trkpt><trkpt lat="43.07747" lon="13.4810783"><ele>197.0</ele><time>2026-03-22T09:32:57.897Z</time></trkpt><trkpt lat="43.077575" lon="13.4811367"><ele>197.0</ele><time>2026-03-22T09:32:59.897Z</time></trkpt><trkpt lat="43.0776533" lon="13.4811867"><ele>197.0</ele><time>2026-03-22T09:33:00.897Z</time></trkpt><trkpt lat="43.077715" lon="13.481205"><ele>197.00000000000003</ele><time>2026-03-22T09:33:01.897Z</time></trkpt><trkpt lat="43.0777967" lon="13.4812133"><ele>197.0</ele><time>2026-03-22T09:33:03.896Z</time></trkpt><trkpt lat="43.0778083" lon="13.4810767"><ele>197.0</ele><time>2026-03-22T09:33:06.897Z</time></trkpt><trkpt lat="43.0777867" lon="13.4809083"><ele>197.0</ele><time>2026-03-22T09:33:08.897Z</time></trkpt><trkpt lat="43.07776" lon="13.4808067"><ele>197.0</ele><time>2026-03-22T09:33:09.896Z</time></trkpt><trkpt lat="43.07773" lon="13.48071"><ele>197.0</ele><time>2026-03-22T09:33:10.897Z</time></trkpt><trkpt lat="43.07769" lon="13.4806083"><ele>197.0</ele><time>2026-03-22T09:33:11.897Z</time></trkpt><trkpt lat="43.077645" lon="13.4805017"><ele>197.0</ele><time>2026-03-22T09:33:12.897Z</time></trkpt><trkpt lat="43.077585" lon="13.4804"><ele>197.0</ele><time>2026-03-22T09:33:13.897Z</time></trkpt><trkpt lat="43.07751" lon="13.48029"><ele>197.0</ele><time>2026-03-22T09:33:14.896Z</time></trkpt><trkpt lat="43.0774233" lon="13.4801683"><ele>197.0</ele><time>2026-03-22T09:33:15.897Z</time></trkpt><trkpt lat="43.077345" lon="13.4800533"><ele>197.0</ele><time>2026-03-22T09:33:16.897Z</time></trkpt><trkpt lat="43.0772633" lon="13.4799417"><ele>197.0</ele><time>2026-03-22T09:33:17.897Z</time></trkpt><trkpt lat="43.0771817" lon="13.4798367"><ele>197.0</ele><time>2026-03-22T09:33:18.895Z</time></trkpt><trkpt lat="43.0770967" lon="13.479735"><ele>197.0</ele><time>2026-03-22T09:33:19.896Z</time></trkpt><trkpt lat="43.077015" lon="13.4796417"><ele>197.0</ele><time>2026-03-22T09:33:20.895Z</time></trkpt><trkpt lat="43.076935" lon="13.4795467"><ele>197.0</ele><time>2026-03-22T09:33:21.896Z</time></trkpt><trkpt lat="43.0768583" lon="13.479455"><ele>196.83333333333334</ele><time>2026-03-22T09:33:22.895Z</time></trkpt><trkpt lat="43.076785" lon="13.4793733"><ele>196.66666666666669</ele><time>2026-03-22T09:33:23.896Z</time></trkpt><trkpt lat="43.076715" lon="13.4793083"><ele>196.5</ele><time>2026-03-22T09:33:24.896Z</time></trkpt><trkpt lat="43.0766617" lon="13.479245"><ele>196.33333333333331</ele><time>2026-03-22T09:33:25.896Z</time></trkpt><trkpt lat="43.0766167" lon="13.4791817"><ele>196.16666666666666</ele><time>2026-03-22T09:33:26.896Z</time></trkpt><trkpt lat="43.076585" lon="13.4790483"><ele>196.0</ele><time>2026-03-22T09:33:28.896Z</time></trkpt><trkpt lat="43.0765333" lon="13.4789433"><ele>196.33333333333331</ele><time>2026-03-22T09:33:30.895Z</time></trkpt><trkpt lat="43.0764717" lon="13.4788133"><ele>196.66666666666666</ele><time>2026-03-22T09:33:32.895Z</time></trkpt><trkpt lat="43.0763967" lon="13.4786817"><ele>197.0</ele><time>2026-03-22T09:33:34.896Z</time></trkpt><trkpt lat="43.076355" lon="13.4786167"><ele>197.33333333333331</ele><time>2026-03-22T09:33:35.896Z</time></trkpt><trkpt lat="43.076305" lon="13.478545"><ele>197.66666666666666</ele><time>2026-03-22T09:33:36.896Z</time></trkpt><trkpt lat="43.0762517" lon="13.4784817"><ele>198.0</ele><time>2026-03-22T09:33:37.896Z</time></trkpt><trkpt lat="43.076195" lon="13.478405"><ele>198.0</ele><time>2026-03-22T09:33:38.896Z</time></trkpt><trkpt lat="43.0761433" lon="13.47833"><ele>198.0</ele><time>2026-03-22T09:33:39.895Z</time></trkpt><trkpt lat="43.0760833" lon="13.4782333"><ele>198.0</ele><time>2026-03-22T09:33:40.895Z</time></trkpt><trkpt lat="43.0760133" lon="13.478135"><ele>198.0</ele><time>2026-03-22T09:33:41.896Z</time></trkpt><trkpt lat="43.0759483" lon="13.47806"><ele>198.0</ele><time>2026-03-22T09:33:42.896Z</time></trkpt><trkpt lat="43.0758783" lon="13.4779867"><ele>198.0</ele><time>2026-03-22T09:33:43.896Z</time></trkpt><trkpt lat="43.0757967" lon="13.47792"><ele>198.2</ele><time>2026-03-22T09:33:44.896Z</time></trkpt><trkpt lat="43.0757133" lon="13.477865"><ele>198.4</ele><time>2026-03-22T09:33:45.895Z</time></trkpt><trkpt lat="43.075625" lon="13.4778183"><ele>198.6</ele><time>2026-03-22T09:33:46.896Z</time></trkpt><trkpt lat="43.07554" lon="13.4777633"><ele>198.79999999999998</ele><time>2026-03-22T09:33:47.895Z</time></trkpt><trkpt lat="43.0754617" lon="13.4777083"><ele>199.0</ele><time>2026-03-22T09:33:48.896Z</time></trkpt><trkpt lat="43.0753883" lon="13.4776567"><ele>199.0</ele><time>2026-03-22T09:33:49.896Z</time></trkpt><trkpt lat="43.0753267" lon="13.47761"><ele>199.0</ele><time>2026-03-22T09:33:50.896Z</time></trkpt><trkpt lat="43.0752433" lon="13.4775117"><ele>199.0</ele><time>2026-03-22T09:33:52.895Z</time></trkpt><trkpt lat="43.0751917" lon="13.47737"><ele>199.0</ele><time>2026-03-22T09:33:54.896Z</time></trkpt><trkpt lat="43.075175" lon="13.47723"><ele>199.0</ele><time>2026-03-22T09:33:56.896Z</time></trkpt><trkpt lat="43.075135" lon="13.4771417"><ele>198.6</ele><time>2026-03-22T09:33:59.896Z</time></trkpt><trkpt lat="43.0751383" lon="13.477025"><ele>198.2</ele><time>2026-03-22T09:34:01.895Z</time></trkpt><trkpt lat="43.0751133" lon="13.47687"><ele>197.79999999999998</ele><time>2026-03-22T09:34:03.895Z</time></trkpt><trkpt lat="43.07508" lon="13.4767067"><ele>197.39999999999998</ele><time>2026-03-22T09:34:05.895Z</time></trkpt><trkpt lat="43.07505" lon="13.4765933"><ele>197.0</ele><time>2026-03-22T09:34:07.896Z</time></trkpt><trkpt lat="43.0749817" lon="13.47652"><ele>198.6</ele><time>2026-03-22T09:34:09.896Z</time></trkpt><trkpt lat="43.0749117" lon="13.476435"><ele>200.2</ele><time>2026-03-22T09:34:11.896Z</time></trkpt><trkpt lat="43.0748733" lon="13.4762883"><ele>201.8</ele><time>2026-03-22T09:34:13.896Z</time></trkpt><trkpt lat="43.0748167" lon="13.4761833"><ele>203.4</ele><time>2026-03-22T09:34:15.896Z</time></trkpt><trkpt lat="43.0747483" lon="13.4761567"><ele>205.0</ele><time>2026-03-22T09:34:17.896Z</time></trkpt><trkpt lat="43.074655" lon="13.4761817"><ele>204.99999999999997</ele><time>2026-03-22T09:34:19.896Z</time></trkpt><trkpt lat="43.074585" lon="13.47619"><ele>205.0</ele><time>2026-03-22T09:34:20.896Z</time></trkpt><trkpt lat="43.0745083" lon="13.4762"><ele>205.0</ele><time>2026-03-22T09:34:21.896Z</time></trkpt><trkpt lat="43.0744267" lon="13.4762033"><ele>205.0</ele><time>2026-03-22T09:34:22.896Z</time></trkpt><trkpt lat="43.07434" lon="13.4762183"><ele>204.99999999999997</ele><time>2026-03-22T09:34:23.895Z</time></trkpt><trkpt lat="43.074265" lon="13.47626"><ele>205.0</ele><time>2026-03-22T09:34:24.896Z</time></trkpt><trkpt lat="43.0741867" lon="13.4762583"><ele>205.0</ele><time>2026-03-22T09:34:25.896Z</time></trkpt><trkpt lat="43.0741117" lon="13.4762417"><ele>205.0</ele><time>2026-03-22T09:34:26.896Z</time></trkpt><trkpt lat="43.0740383" lon="13.4762067"><ele>205.0</ele><time>2026-03-22T09:34:27.895Z</time></trkpt><trkpt lat="43.0739833" lon="13.4761517"><ele>205.0</ele><time>2026-03-22T09:34:28.896Z</time></trkpt><trkpt lat="43.0739333" lon="13.4760917"><ele>205.0</ele><time>2026-03-22T09:34:29.895Z</time></trkpt><trkpt lat="43.073905" lon="13.4760067"><ele>205.0</ele><time>2026-03-22T09:34:30.896Z</time></trkpt><trkpt lat="43.0738783" lon="13.475895"><ele>205.0</ele><time>2026-03-22T09:34:31.896Z</time></trkpt><trkpt lat="43.073855" lon="13.4757533"><ele>208.25</ele><time>2026-03-22T09:34:32.896Z</time></trkpt><trkpt lat="43.0738467" lon="13.4756133"><ele>211.5</ele><time>2026-03-22T09:34:33.895Z</time></trkpt><trkpt lat="43.0737967" lon="13.4754767"><ele>214.75</ele><time>2026-03-22T09:34:34.896Z</time></trkpt><trkpt lat="43.0737383" lon="13.47532"><ele>218.0</ele><time>2026-03-22T09:34:35.896Z</time></trkpt><trkpt lat="43.0736717" lon="13.4751517"><ele>218.0</ele><time>2026-03-22T09:34:36.896Z</time></trkpt><trkpt lat="43.0736117" lon="13.4749783"><ele>218.0</ele><time>2026-03-22T09:34:37.896Z</time></trkpt><trkpt lat="43.0735367" lon="13.4748083"><ele>218.0</ele><time>2026-03-22T09:34:38.895Z</time></trkpt><trkpt lat="43.0734717" lon="13.4746517"><ele>218.0</ele><time>2026-03-22T09:34:39.895Z</time></trkpt><trkpt lat="43.0734017" lon="13.4745"><ele>218.5</ele><time>2026-03-22T09:34:40.896Z</time></trkpt><trkpt lat="43.073325" lon="13.47435"><ele>219.0</ele><time>2026-03-22T09:34:41.895Z</time></trkpt><trkpt lat="43.0732533" lon="13.474195"><ele>219.5</ele><time>2026-03-22T09:34:42.895Z</time></trkpt><trkpt lat="43.073165" lon="13.4740183"><ele>220.0</ele><time>2026-03-22T09:34:43.896Z</time></trkpt><trkpt lat="43.0730717" lon="13.4738467"><ele>217.25</ele><time>2026-03-22T09:34:44.896Z</time></trkpt><trkpt lat="43.0729867" lon="13.4737083"><ele>214.5</ele><time>2026-03-22T09:34:45.896Z</time></trkpt><trkpt lat="43.0728967" lon="13.4735517"><ele>211.75</ele><time>2026-03-22T09:34:46.895Z</time></trkpt><trkpt lat="43.072815" lon="13.4734217"><ele>209.0</ele><time>2026-03-22T09:34:47.896Z</time></trkpt><trkpt lat="43.072735" lon="13.473295"><ele>209.0</ele><time>2026-03-22T09:34:48.896Z</time></trkpt><trkpt lat="43.072655" lon="13.473185"><ele>209.0</ele><time>2026-03-22T09:34:49.896Z</time></trkpt><trkpt lat="43.0725417" lon="13.4731033"><ele>209.0</ele><time>2026-03-22T09:34:50.895Z</time></trkpt><trkpt lat="43.0724333" lon="13.4730467"><ele>209.0</ele><time>2026-03-22T09:34:51.896Z</time></trkpt><trkpt lat="43.0723433" lon="13.4729967"><ele>209.50000000000003</ele><time>2026-03-22T09:34:52.896Z</time></trkpt><trkpt lat="43.0722667" lon="13.4729633"><ele>210.0</ele><time>2026-03-22T09:34:53.896Z</time></trkpt><trkpt lat="43.072205" lon="13.4729383"><ele>210.5</ele><time>2026-03-22T09:34:54.896Z</time></trkpt><trkpt lat="43.072105" lon="13.4729033"><ele>211.0</ele><time>2026-03-22T09:34:56.896Z</time></trkpt><trkpt lat="43.0720367" lon="13.47287"><ele>211.50000000000003</ele><time>2026-03-22T09:34:58.895Z</time></trkpt><trkpt lat="43.071955" lon="13.47282"><ele>212.0</ele><time>2026-03-22T09:35:01.896Z</time></trkpt><trkpt lat="43.0718333" lon="13.4727267"><ele>212.0</ele><time>2026-03-22T09:35:03.896Z</time></trkpt><trkpt lat="43.07175" lon="13.4726533"><ele>212.0</ele><time>2026-03-22T09:35:04.896Z</time></trkpt><trkpt lat="43.0716617" lon="13.4725567"><ele>212.0</ele><time>2026-03-22T09:35:05.896Z</time></trkpt><trkpt lat="43.07159" lon="13.4724817"><ele>212.0</ele><time>2026-03-22T09:35:06.896Z</time></trkpt><trkpt lat="43.0715083" lon="13.47238"><ele>212.0</ele><time>2026-03-22T09:35:07.896Z</time></trkpt><trkpt lat="43.07143" lon="13.4722767"><ele>212.5</ele><time>2026-03-22T09:35:08.896Z</time></trkpt><trkpt lat="43.0713367" lon="13.4721583"><ele>213.0</ele><time>2026-03-22T09:35:09.896Z</time></trkpt><trkpt lat="43.0712467" lon="13.4720533"><ele>213.5</ele><time>2026-03-22T09:35:10.895Z</time></trkpt><trkpt lat="43.0711567" lon="13.4719433"><ele>214.0</ele><time>2026-03-22T09:35:11.895Z</time></trkpt><trkpt lat="43.0710683" lon="13.4718333"><ele>214.0</ele><time>2026-03-22T09:35:12.896Z</time></trkpt><trkpt lat="43.070975" lon="13.4717217"><ele>214.0</ele><time>2026-03-22T09:35:13.896Z</time></trkpt><trkpt lat="43.0708833" lon="13.4716133"><ele>214.0</ele><time>2026-03-22T09:35:14.896Z</time></trkpt><trkpt lat="43.070795" lon="13.4715117"><ele>214.0</ele><time>2026-03-22T09:35:15.896Z</time></trkpt><trkpt lat="43.0707167" lon="13.4714267"><ele>212.5</ele><time>2026-03-22T09:35:16.895Z</time></trkpt><trkpt lat="43.0706233" lon="13.4713467"><ele>211.0</ele><time>2026-03-22T09:35:17.896Z</time></trkpt><trkpt lat="43.0705233" lon="13.47128"><ele>209.5</ele><time>2026-03-22T09:35:18.896Z</time></trkpt><trkpt lat="43.070405" lon="13.4712283"><ele>208.0</ele><time>2026-03-22T09:35:19.896Z</time></trkpt><trkpt lat="43.0702817" lon="13.471185"><ele>208.0</ele><time>2026-03-22T09:35:20.896Z</time></trkpt><trkpt lat="43.070145" lon="13.4711567"><ele>208.0</ele><time>2026-03-22T09:35:21.896Z</time></trkpt><trkpt lat="43.0700067" lon="13.4711483"><ele>208.0</ele><time>2026-03-22T09:35:22.896Z</time></trkpt><trkpt lat="43.0698683" lon="13.4711467"><ele>208.0</ele><time>2026-03-22T09:35:23.896Z</time></trkpt><trkpt lat="43.06973" lon="13.4711483"><ele>209.0</ele><time>2026-03-22T09:35:24.896Z</time></trkpt><trkpt lat="43.0695867" lon="13.4711383"><ele>210.0</ele><time>2026-03-22T09:35:25.896Z</time></trkpt><trkpt lat="43.069445" lon="13.47113"><ele>211.0</ele><time>2026-03-22T09:35:26.895Z</time></trkpt><trkpt lat="43.0693" lon="13.4711333"><ele>212.0</ele><time>2026-03-22T09:35:27.895Z</time></trkpt><trkpt lat="43.0691533" lon="13.4711283"><ele>212.25</ele><time>2026-03-22T09:35:28.895Z</time></trkpt><trkpt lat="43.0690067" lon="13.47113"><ele>212.5</ele><time>2026-03-22T09:35:29.896Z</time></trkpt><trkpt lat="43.0688683" lon="13.4711367"><ele>212.75</ele><time>2026-03-22T09:35:30.896Z</time></trkpt><trkpt lat="43.068725" lon="13.4711417"><ele>213.0</ele><time>2026-03-22T09:35:31.895Z</time></trkpt><trkpt lat="43.0686" lon="13.471135"><ele>213.0</ele><time>2026-03-22T09:35:32.895Z</time></trkpt><trkpt lat="43.068465" lon="13.4710767"><ele>213.0</ele><time>2026-03-22T09:35:33.895Z</time></trkpt><trkpt lat="43.0683583" lon="13.4710867"><ele>213.0</ele><time>2026-03-22T09:35:34.896Z</time></trkpt><trkpt lat="43.06828" lon="13.47108"><ele>213.0</ele><time>2026-03-22T09:35:35.896Z</time></trkpt><trkpt lat="43.068165" lon="13.4710983"><ele>213.0</ele><time>2026-03-22T09:35:37.895Z</time></trkpt><trkpt lat="43.068075" lon="13.4712267"><ele>217.0</ele><time>2026-03-22T09:35:39.895Z</time></trkpt><trkpt lat="43.0680133" lon="13.471295"><ele>221.0</ele><time>2026-03-22T09:35:40.896Z</time></trkpt><trkpt lat="43.0679367" lon="13.4713583"><ele>225.0</ele><time>2026-03-22T09:35:41.896Z</time></trkpt><trkpt lat="43.0678417" lon="13.4714233"><ele>229.0</ele><time>2026-03-22T09:35:42.896Z</time></trkpt><trkpt lat="43.067755" lon="13.471475"><ele>233.0</ele><time>2026-03-22T09:35:43.896Z</time></trkpt><trkpt lat="43.06767" lon="13.4715117"><ele>233.0</ele><time>2026-03-22T09:35:44.896Z</time></trkpt><trkpt lat="43.0675917" lon="13.4715517"><ele>233.0</ele><time>2026-03-22T09:35:45.895Z</time></trkpt><trkpt lat="43.06751" lon="13.4715983"><ele>233.0</ele><time>2026-03-22T09:35:46.895Z</time></trkpt><trkpt lat="43.0674183" lon="13.4716283"><ele>233.0</ele><time>2026-03-22T09:35:47.895Z</time></trkpt><trkpt lat="43.0673167" lon="13.471645"><ele>233.0</ele><time>2026-03-22T09:35:48.895Z</time></trkpt><trkpt lat="43.0672" lon="13.4716583"><ele>232.25</ele><time>2026-03-22T09:35:49.896Z</time></trkpt><trkpt lat="43.0670617" lon="13.47165"><ele>231.5</ele><time>2026-03-22T09:35:50.895Z</time></trkpt><trkpt lat="43.0669267" lon="13.47163"><ele>230.75</ele><time>2026-03-22T09:35:51.896Z</time></trkpt><trkpt lat="43.06678" lon="13.4715967"><ele>230.0</ele><time>2026-03-22T09:35:52.895Z</time></trkpt><trkpt lat="43.0666367" lon="13.4715417"><ele>234.0</ele><time>2026-03-22T09:35:53.896Z</time></trkpt><trkpt lat="43.0664867" lon="13.47149"><ele>238.0</ele><time>2026-03-22T09:35:54.895Z</time></trkpt><trkpt lat="43.0663367" lon="13.47143"><ele>242.0</ele><time>2026-03-22T09:35:55.896Z</time></trkpt><trkpt lat="43.0661733" lon="13.471365"><ele>242.0</ele><time>2026-03-22T09:35:56.896Z</time></trkpt><trkpt lat="43.066005" lon="13.4712933"><ele>242.0</ele><time>2026-03-22T09:35:57.895Z</time></trkpt><trkpt lat="43.0658383" lon="13.47122"><ele>242.0</ele><time>2026-03-22T09:35:58.896Z</time></trkpt><trkpt lat="43.065665" lon="13.4711417"><ele>234.66666666666669</ele><time>2026-03-22T09:35:59.896Z</time></trkpt><trkpt lat="43.0654967" lon="13.4710817"><ele>227.33333333333331</ele><time>2026-03-22T09:36:00.896Z</time></trkpt><trkpt lat="43.0653317" lon="13.4710167"><ele>220.0</ele><time>2026-03-22T09:36:01.896Z</time></trkpt><trkpt lat="43.065175" lon="13.47102"><ele>220.0</ele><time>2026-03-22T09:36:02.896Z</time></trkpt><trkpt lat="43.065015" lon="13.4710517"><ele>220.0</ele><time>2026-03-22T09:36:03.895Z</time></trkpt><trkpt lat="43.064875" lon="13.4711317"><ele>220.0</ele><time>2026-03-22T09:36:04.896Z</time></trkpt><trkpt lat="43.06473" lon="13.4712367"><ele>223.33333333333331</ele><time>2026-03-22T09:36:05.896Z</time></trkpt><trkpt lat="43.064585" lon="13.47134"><ele>226.66666666666669</ele><time>2026-03-22T09:36:06.896Z</time></trkpt><trkpt lat="43.0644333" lon="13.4714483"><ele>230.0</ele><time>2026-03-22T09:36:07.896Z</time></trkpt><trkpt lat="43.064275" lon="13.471555"><ele>230.0</ele><time>2026-03-22T09:36:08.896Z</time></trkpt><trkpt lat="43.0641133" lon="13.4716483"><ele>230.0</ele><time>2026-03-22T09:36:09.895Z</time></trkpt><trkpt lat="43.06394" lon="13.4717217"><ele>230.0</ele><time>2026-03-22T09:36:10.896Z</time></trkpt><trkpt lat="43.0637617" lon="13.4717683"><ele>229.33333333333334</ele><time>2026-03-22T09:36:11.895Z</time></trkpt><trkpt lat="43.0635817" lon="13.471795"><ele>228.66666666666669</ele><time>2026-03-22T09:36:12.896Z</time></trkpt><trkpt lat="43.0634067" lon="13.4718133"><ele>228.0</ele><time>2026-03-22T09:36:13.896Z</time></trkpt><trkpt lat="43.0632233" lon="13.4718067"><ele>227.66666666666669</ele><time>2026-03-22T09:36:14.896Z</time></trkpt><trkpt lat="43.06303" lon="13.4717883"><ele>227.33333333333334</ele><time>2026-03-22T09:36:15.896Z</time></trkpt><trkpt lat="43.0628583" lon="13.4717833"><ele>227.0</ele><time>2026-03-22T09:36:16.895Z</time></trkpt><trkpt lat="43.0626733" lon="13.471765"><ele>227.0</ele><time>2026-03-22T09:36:17.895Z</time></trkpt><trkpt lat="43.0624867" lon="13.4716867"><ele>227.0</ele><time>2026-03-22T09:36:18.895Z</time></trkpt><trkpt lat="43.0623167" lon="13.471625"><ele>227.0</ele><time>2026-03-22T09:36:19.895Z</time></trkpt><trkpt lat="43.0621617" lon="13.471555"><ele>226.66666666666669</ele><time>2026-03-22T09:36:20.896Z</time></trkpt><trkpt lat="43.0620233" lon="13.4714283"><ele>226.33333333333331</ele><time>2026-03-22T09:36:21.896Z</time></trkpt><trkpt lat="43.0619017" lon="13.471295"><ele>226.0</ele><time>2026-03-22T09:36:22.895Z</time></trkpt><trkpt lat="43.0618017" lon="13.4711467"><ele>226.0</ele><time>2026-03-22T09:36:23.895Z</time></trkpt><trkpt lat="43.061695" lon="13.471015"><ele>226.0</ele><time>2026-03-22T09:36:24.896Z</time></trkpt><trkpt lat="43.0615717" lon="13.4709417"><ele>226.0</ele><time>2026-03-22T09:36:25.896Z</time></trkpt><trkpt lat="43.0614283" lon="13.4709183"><ele>226.0</ele><time>2026-03-22T09:36:26.896Z</time></trkpt><trkpt lat="43.0612767" lon="13.4709433"><ele>227.0</ele><time>2026-03-22T09:36:27.895Z</time></trkpt><trkpt lat="43.0611283" lon="13.4710067"><ele>228.0</ele><time>2026-03-22T09:36:28.895Z</time></trkpt><trkpt lat="43.06097" lon="13.4711283"><ele>229.0</ele><time>2026-03-22T09:36:29.895Z</time></trkpt><trkpt lat="43.06081" lon="13.4712217"><ele>230.0</ele><time>2026-03-22T09:36:30.896Z</time></trkpt><trkpt lat="43.06064" lon="13.471305"><ele>231.0</ele><time>2026-03-22T09:36:31.895Z</time></trkpt><trkpt lat="43.06048" lon="13.4713983"><ele>232.0</ele><time>2026-03-22T09:36:32.896Z</time></trkpt><trkpt lat="43.0603183" lon="13.4714933"><ele>232.0</ele><time>2026-03-22T09:36:33.895Z</time></trkpt><trkpt lat="43.0601517" lon="13.4715717"><ele>232.0</ele><time>2026-03-22T09:36:34.896Z</time></trkpt><trkpt lat="43.0599867" lon="13.47168"><ele>232.0</ele><time>2026-03-22T09:36:35.895Z</time></trkpt><trkpt lat="43.05982" lon="13.471765"><ele>232.33333333333331</ele><time>2026-03-22T09:36:36.895Z</time></trkpt><trkpt lat="43.0596517" lon="13.47184"><ele>232.66666666666669</ele><time>2026-03-22T09:36:37.895Z</time></trkpt><trkpt lat="43.0594733" lon="13.4718933"><ele>233.0</ele><time>2026-03-22T09:36:38.896Z</time></trkpt><trkpt lat="43.0592883" lon="13.471925"><ele>234.0</ele><time>2026-03-22T09:36:39.896Z</time></trkpt><trkpt lat="43.0591017" lon="13.4719083"><ele>235.0</ele><time>2026-03-22T09:36:40.896Z</time></trkpt><trkpt lat="43.0589183" lon="13.4718567"><ele>236.0</ele><time>2026-03-22T09:36:41.896Z</time></trkpt><trkpt lat="43.0587333" lon="13.4717883"><ele>236.0</ele><time>2026-03-22T09:36:42.896Z</time></trkpt><trkpt lat="43.0585717" lon="13.47168"><ele>236.0</ele><time>2026-03-22T09:36:43.896Z</time></trkpt><trkpt lat="43.0584067" lon="13.471545"><ele>236.0</ele><time>2026-03-22T09:36:44.895Z</time></trkpt><trkpt lat="43.058255" lon="13.4714183"><ele>236.33333333333334</ele><time>2026-03-22T09:36:45.896Z</time></trkpt><trkpt lat="43.058095" lon="13.47124"><ele>236.66666666666669</ele><time>2026-03-22T09:36:46.896Z</time></trkpt><trkpt lat="43.0579433" lon="13.4710567"><ele>237.0</ele><time>2026-03-22T09:36:47.896Z</time></trkpt><trkpt lat="43.057795" lon="13.47088"><ele>237.0</ele><time>2026-03-22T09:36:48.896Z</time></trkpt><trkpt lat="43.057645" lon="13.47069"><ele>237.0</ele><time>2026-03-22T09:36:49.895Z</time></trkpt><trkpt lat="43.0574933" lon="13.47051"><ele>237.0</ele><time>2026-03-22T09:36:50.896Z</time></trkpt><trkpt lat="43.0573467" lon="13.4703483"><ele>237.0</ele><time>2026-03-22T09:36:51.896Z</time></trkpt><trkpt lat="43.0571983" lon="13.47018"><ele>237.0</ele><time>2026-03-22T09:36:52.896Z</time></trkpt><trkpt lat="43.0570533" lon="13.4700117"><ele>237.0</ele><time>2026-03-22T09:36:53.895Z</time></trkpt><trkpt lat="43.0569067" lon="13.4698583"><ele>237.0</ele><time>2026-03-22T09:36:54.896Z</time></trkpt><trkpt lat="43.0567667" lon="13.4696933"><ele>237.0</ele><time>2026-03-22T09:36:55.896Z</time></trkpt><trkpt lat="43.0566283" lon="13.469535"><ele>237.0</ele><time>2026-03-22T09:36:56.896Z</time></trkpt><trkpt lat="43.056485" lon="13.46937"><ele>237.33333333333331</ele><time>2026-03-22T09:36:57.896Z</time></trkpt><trkpt lat="43.0563467" lon="13.4692133"><ele>237.66666666666666</ele><time>2026-03-22T09:36:58.896Z</time></trkpt><trkpt lat="43.05621" lon="13.4690567"><ele>238.0</ele><time>2026-03-22T09:36:59.896Z</time></trkpt><trkpt lat="43.0560683" lon="13.4689117"><ele>238.0</ele><time>2026-03-22T09:37:00.896Z</time></trkpt><trkpt lat="43.0559233" lon="13.4687817"><ele>238.0</ele><time>2026-03-22T09:37:01.895Z</time></trkpt><trkpt lat="43.0557667" lon="13.4686817"><ele>238.0</ele><time>2026-03-22T09:37:02.896Z</time></trkpt><trkpt lat="43.0556033" lon="13.4686183"><ele>238.33333333333331</ele><time>2026-03-22T09:37:03.895Z</time></trkpt><trkpt lat="43.055445" lon="13.4685817"><ele>238.66666666666669</ele><time>2026-03-22T09:37:04.895Z</time></trkpt><trkpt lat="43.0552733" lon="13.46858"><ele>239.0</ele><time>2026-03-22T09:37:05.895Z</time></trkpt><trkpt lat="43.0550933" lon="13.46859"><ele>238.0</ele><time>2026-03-22T09:37:06.896Z</time></trkpt><trkpt lat="43.0549233" lon="13.4686283"><ele>237.0</ele><time>2026-03-22T09:37:07.896Z</time></trkpt><trkpt lat="43.0547467" lon="13.468675"><ele>236.0</ele><time>2026-03-22T09:37:08.895Z</time></trkpt><trkpt lat="43.0545717" lon="13.468705"><ele>236.0</ele><time>2026-03-22T09:37:09.896Z</time></trkpt><trkpt lat="43.0543867" lon="13.4687533"><ele>236.0</ele><time>2026-03-22T09:37:10.896Z</time></trkpt><trkpt lat="43.0541983" lon="13.468805"><ele>236.0</ele><time>2026-03-22T09:37:11.895Z</time></trkpt><trkpt lat="43.0540183" lon="13.468845"><ele>237.66666666666669</ele><time>2026-03-22T09:37:12.896Z</time></trkpt><trkpt lat="43.05383" lon="13.4688883"><ele>239.33333333333331</ele><time>2026-03-22T09:37:13.896Z</time></trkpt><trkpt lat="43.0536417" lon="13.46893"><ele>241.0</ele><time>2026-03-22T09:37:14.896Z</time></trkpt><trkpt lat="43.0534483" lon="13.4689617"><ele>241.0</ele><time>2026-03-22T09:37:15.895Z</time></trkpt><trkpt lat="43.0532517" lon="13.4689817"><ele>241.0</ele><time>2026-03-22T09:37:16.896Z</time></trkpt><trkpt lat="43.0530583" lon="13.4690217"><ele>241.0</ele><time>2026-03-22T09:37:17.895Z</time></trkpt><trkpt lat="43.0528633" lon="13.4690567"><ele>241.0</ele><time>2026-03-22T09:37:18.896Z</time></trkpt><trkpt lat="43.0526717" lon="13.4690917"><ele>241.0</ele><time>2026-03-22T09:37:19.895Z</time></trkpt><trkpt lat="43.0524833" lon="13.46912"><ele>241.0</ele><time>2026-03-22T09:37:20.896Z</time></trkpt><trkpt lat="43.052295" lon="13.4691517"><ele>240.33333333333331</ele><time>2026-03-22T09:37:21.895Z</time></trkpt><trkpt lat="43.0521033" lon="13.4691817"><ele>239.66666666666669</ele><time>2026-03-22T09:37:22.896Z</time></trkpt><trkpt lat="43.0519167" lon="13.4692167"><ele>239.0</ele><time>2026-03-22T09:37:23.896Z</time></trkpt><trkpt lat="43.0517267" lon="13.4692517"><ele>239.0</ele><time>2026-03-22T09:37:24.896Z</time></trkpt><trkpt lat="43.0515367" lon="13.46928"><ele>239.0</ele><time>2026-03-22T09:37:25.896Z</time></trkpt><trkpt lat="43.0513533" lon="13.4693183"><ele>239.0</ele><time>2026-03-22T09:37:26.896Z</time></trkpt><trkpt lat="43.051155" lon="13.4693533"><ele>239.0</ele><time>2026-03-22T09:37:27.896Z</time></trkpt><trkpt lat="43.0509633" lon="13.46939"><ele>239.0</ele><time>2026-03-22T09:37:28.895Z</time></trkpt><trkpt lat="43.0507667" lon="13.469415"><ele>239.0</ele><time>2026-03-22T09:37:29.895Z</time></trkpt><trkpt lat="43.05058" lon="13.4694517"><ele>239.66666666666669</ele><time>2026-03-22T09:37:30.896Z</time></trkpt><trkpt lat="43.0503933" lon="13.4694967"><ele>240.33333333333331</ele><time>2026-03-22T09:37:31.895Z</time></trkpt><trkpt lat="43.0502017" lon="13.4695333"><ele>241.0</ele><time>2026-03-22T09:37:32.895Z</time></trkpt><trkpt lat="43.050015" lon="13.4695733"><ele>242.66666666666666</ele><time>2026-03-22T09:37:33.895Z</time></trkpt><trkpt lat="43.0498333" lon="13.4696283"><ele>244.33333333333331</ele><time>2026-03-22T09:37:34.896Z</time></trkpt><trkpt lat="43.0496483" lon="13.4696933"><ele>246.0</ele><time>2026-03-22T09:37:35.896Z</time></trkpt><trkpt lat="43.0494683" lon="13.4697617"><ele>246.0</ele><time>2026-03-22T09:37:36.896Z</time></trkpt><trkpt lat="43.04928" lon="13.46983"><ele>246.0</ele><time>2026-03-22T09:37:37.896Z</time></trkpt><trkpt lat="43.0490933" lon="13.469905"><ele>246.0</ele><time>2026-03-22T09:37:38.896Z</time></trkpt><trkpt lat="43.0488917" lon="13.4699617"><ele>246.0</ele><time>2026-03-22T09:37:39.896Z</time></trkpt><trkpt lat="43.0487" lon="13.4700267"><ele>246.0</ele><time>2026-03-22T09:37:40.895Z</time></trkpt><trkpt lat="43.0485067" lon="13.4700867"><ele>246.0</ele><time>2026-03-22T09:37:41.896Z</time></trkpt><trkpt lat="43.0483167" lon="13.4701467"><ele>245.33333333333331</ele><time>2026-03-22T09:37:42.896Z</time></trkpt><trkpt lat="43.048135" lon="13.4702217"><ele>244.66666666666666</ele><time>2026-03-22T09:37:43.896Z</time></trkpt><trkpt lat="43.0479417" lon="13.470285"><ele>244.0</ele><time>2026-03-22T09:37:44.895Z</time></trkpt><trkpt lat="43.0477467" lon="13.470355"><ele>244.0</ele><time>2026-03-22T09:37:45.896Z</time></trkpt><trkpt lat="43.0475567" lon="13.47042"><ele>244.0</ele><time>2026-03-22T09:37:46.896Z</time></trkpt><trkpt lat="43.0473667" lon="13.47049"><ele>244.0</ele><time>2026-03-22T09:37:47.896Z</time></trkpt><trkpt lat="43.0471783" lon="13.4705767"><ele>244.33333333333331</ele><time>2026-03-22T09:37:48.896Z</time></trkpt><trkpt lat="43.0469967" lon="13.4706783"><ele>244.66666666666669</ele><time>2026-03-22T09:37:49.895Z</time></trkpt><trkpt lat="43.0468233" lon="13.4708"><ele>245.0</ele><time>2026-03-22T09:37:50.896Z</time></trkpt><trkpt lat="43.046655" lon="13.47091"><ele>244.0</ele><time>2026-03-22T09:37:51.895Z</time></trkpt><trkpt lat="43.0464883" lon="13.4710217"><ele>243.0</ele><time>2026-03-22T09:37:52.896Z</time></trkpt><trkpt lat="43.04632" lon="13.471135"><ele>242.0</ele><time>2026-03-22T09:37:53.896Z</time></trkpt><trkpt lat="43.0461433" lon="13.4712483"><ele>243.0</ele><time>2026-03-22T09:37:54.896Z</time></trkpt><trkpt lat="43.045965" lon="13.471345"><ele>244.0</ele><time>2026-03-22T09:37:55.896Z</time></trkpt><trkpt lat="43.04578" lon="13.4714233"><ele>245.0</ele><time>2026-03-22T09:37:56.896Z</time></trkpt><trkpt lat="43.04559" lon="13.471475"><ele>245.33333333333334</ele><time>2026-03-22T09:37:57.895Z</time></trkpt><trkpt lat="43.0454033" lon="13.471515"><ele>245.66666666666669</ele><time>2026-03-22T09:37:58.895Z</time></trkpt><trkpt lat="43.0452133" lon="13.4715283"><ele>246.0</ele><time>2026-03-22T09:37:59.896Z</time></trkpt><trkpt lat="43.0450217" lon="13.4715083"><ele>246.33333333333331</ele><time>2026-03-22T09:38:00.895Z</time></trkpt><trkpt lat="43.0448367" lon="13.4714583"><ele>246.66666666666666</ele><time>2026-03-22T09:38:01.895Z</time></trkpt><trkpt lat="43.044655" lon="13.4714067"><ele>247.0</ele><time>2026-03-22T09:38:02.896Z</time></trkpt><trkpt lat="43.0444817" lon="13.4713717"><ele>247.0</ele><time>2026-03-22T09:38:03.895Z</time></trkpt><trkpt lat="43.0443" lon="13.47135"><ele>247.0</ele><time>2026-03-22T09:38:04.895Z</time></trkpt><trkpt lat="43.04412" lon="13.4713267"><ele>247.0</ele><time>2026-03-22T09:38:05.895Z</time></trkpt><trkpt lat="43.043935" lon="13.4712833"><ele>246.66666666666666</ele><time>2026-03-22T09:38:06.896Z</time></trkpt><trkpt lat="43.0437533" lon="13.4712467"><ele>246.33333333333331</ele><time>2026-03-22T09:38:07.896Z</time></trkpt><trkpt lat="43.0435783" lon="13.4712133"><ele>246.0</ele><time>2026-03-22T09:38:08.895Z</time></trkpt><trkpt lat="43.0434017" lon="13.4711617"><ele>247.33333333333331</ele><time>2026-03-22T09:38:09.896Z</time></trkpt><trkpt lat="43.0432283" lon="13.4711317"><ele>248.66666666666666</ele><time>2026-03-22T09:38:10.895Z</time></trkpt><trkpt lat="43.04305" lon="13.4710267"><ele>250.0</ele><time>2026-03-22T09:38:11.896Z</time></trkpt><trkpt lat="43.0428967" lon="13.4709033"><ele>250.0</ele><time>2026-03-22T09:38:12.895Z</time></trkpt><trkpt lat="43.042755" lon="13.4707333"><ele>250.0</ele><time>2026-03-22T09:38:13.895Z</time></trkpt><trkpt lat="43.042635" lon="13.4705317"><ele>250.0</ele><time>2026-03-22T09:38:14.895Z</time></trkpt><trkpt lat="43.0425117" lon="13.4703433"><ele>251.33333333333331</ele><time>2026-03-22T09:38:15.896Z</time></trkpt><trkpt lat="43.04239" lon="13.4701433"><ele>252.66666666666669</ele><time>2026-03-22T09:38:16.896Z</time></trkpt><trkpt lat="43.0422917" lon="13.4699183"><ele>254.0</ele><time>2026-03-22T09:38:17.896Z</time></trkpt><trkpt lat="43.0421867" lon="13.4697133"><ele>252.66666666666669</ele><time>2026-03-22T09:38:18.896Z</time></trkpt><trkpt lat="43.04206" lon="13.469525"><ele>251.33333333333331</ele><time>2026-03-22T09:38:19.896Z</time></trkpt><trkpt lat="43.0419367" lon="13.4693383"><ele>250.0</ele><time>2026-03-22T09:38:20.895Z</time></trkpt><trkpt lat="43.0418067" lon="13.4691533"><ele>250.0</ele><time>2026-03-22T09:38:21.895Z</time></trkpt><trkpt lat="43.0416583" lon="13.4689517"><ele>250.0</ele><time>2026-03-22T09:38:22.896Z</time></trkpt><trkpt lat="43.0415267" lon="13.4687567"><ele>250.0</ele><time>2026-03-22T09:38:23.895Z</time></trkpt><trkpt lat="43.0413883" lon="13.4685567"><ele>252.0</ele><time>2026-03-22T09:38:24.896Z</time></trkpt><trkpt lat="43.0412517" lon="13.46837"><ele>254.0</ele><time>2026-03-22T09:38:25.895Z</time></trkpt><trkpt lat="43.04113" lon="13.468185"><ele>256.0</ele><time>2026-03-22T09:38:26.896Z</time></trkpt><trkpt lat="43.041005" lon="13.4680133"><ele>255.66666666666666</ele><time>2026-03-22T09:38:27.896Z</time></trkpt><trkpt lat="43.0408633" lon="13.46785"><ele>255.33333333333331</ele><time>2026-03-22T09:38:28.895Z</time></trkpt><trkpt lat="43.0407083" lon="13.46772"><ele>255.0</ele><time>2026-03-22T09:38:29.896Z</time></trkpt><trkpt lat="43.0405333" lon="13.4676267"><ele>255.0</ele><time>2026-03-22T09:38:30.896Z</time></trkpt><trkpt lat="43.040355" lon="13.4675467"><ele>255.0</ele><time>2026-03-22T09:38:31.896Z</time></trkpt><trkpt lat="43.0401783" lon="13.4674833"><ele>255.0</ele><time>2026-03-22T09:38:32.896Z</time></trkpt><trkpt lat="43.0399983" lon="13.46743"><ele>256.3333333333333</ele><time>2026-03-22T09:38:33.896Z</time></trkpt><trkpt lat="43.039815" lon="13.4673833"><ele>257.66666666666663</ele><time>2026-03-22T09:38:34.895Z</time></trkpt><trkpt lat="43.039635" lon="13.4673367"><ele>259.0</ele><time>2026-03-22T09:38:35.895Z</time></trkpt><trkpt lat="43.0394433" lon="13.4672817"><ele>259.0</ele><time>2026-03-22T09:38:36.896Z</time></trkpt><trkpt lat="43.0392617" lon="13.4672117"><ele>259.0</ele><time>2026-03-22T09:38:37.895Z</time></trkpt><trkpt lat="43.0390683" lon="13.467145"><ele>259.0</ele><time>2026-03-22T09:38:38.896Z</time></trkpt><trkpt lat="43.0388667" lon="13.4670733"><ele>259.0</ele><time>2026-03-22T09:38:39.895Z</time></trkpt><trkpt lat="43.0386683" lon="13.466995"><ele>259.0</ele><time>2026-03-22T09:38:40.896Z</time></trkpt><trkpt lat="43.038475" lon="13.4669133"><ele>259.0</ele><time>2026-03-22T09:38:41.895Z</time></trkpt><trkpt lat="43.0382783" lon="13.466835"><ele>261.3333333333333</ele><time>2026-03-22T09:38:42.896Z</time></trkpt><trkpt lat="43.0380817" lon="13.4667533"><ele>263.6666666666667</ele><time>2026-03-22T09:38:43.895Z</time></trkpt><trkpt lat="43.0378883" lon="13.4666783"><ele>266.0</ele><time>2026-03-22T09:38:44.895Z</time></trkpt><trkpt lat="43.0377" lon="13.4666117"><ele>266.0</ele><time>2026-03-22T09:38:45.896Z</time></trkpt><trkpt lat="43.0375117" lon="13.4665567"><ele>266.0</ele><time>2026-03-22T09:38:46.896Z</time></trkpt><trkpt lat="43.0373233" lon="13.4665083"><ele>266.0</ele><time>2026-03-22T09:38:47.895Z</time></trkpt><trkpt lat="43.0371367" lon="13.466485"><ele>265.33333333333337</ele><time>2026-03-22T09:38:48.896Z</time></trkpt><trkpt lat="43.03695" lon="13.466505"><ele>264.6666666666667</ele><time>2026-03-22T09:38:49.895Z</time></trkpt><trkpt lat="43.03677" lon="13.46656"><ele>264.0</ele><time>2026-03-22T09:38:50.896Z</time></trkpt><trkpt lat="43.036585" lon="13.4666183"><ele>263.3333333333333</ele><time>2026-03-22T09:38:51.895Z</time></trkpt><trkpt lat="43.0364017" lon="13.4666433"><ele>262.66666666666663</ele><time>2026-03-22T09:38:52.896Z</time></trkpt><trkpt lat="43.0362117" lon="13.4667133"><ele>262.0</ele><time>2026-03-22T09:38:53.896Z</time></trkpt><trkpt lat="43.0360233" lon="13.466755"><ele>262.0</ele><time>2026-03-22T09:38:54.896Z</time></trkpt><trkpt lat="43.035845" lon="13.46679"><ele>262.0</ele><time>2026-03-22T09:38:55.896Z</time></trkpt><trkpt lat="43.03568" lon="13.4668067"><ele>262.0</ele><time>2026-03-22T09:38:56.896Z</time></trkpt><trkpt lat="43.0354983" lon="13.4667717"><ele>263.66666666666663</ele><time>2026-03-22T09:38:57.895Z</time></trkpt><trkpt lat="43.0353267" lon="13.4667383"><ele>265.3333333333333</ele><time>2026-03-22T09:38:58.896Z</time></trkpt><trkpt lat="43.0351383" lon="13.4667117"><ele>267.0</ele><time>2026-03-22T09:38:59.896Z</time></trkpt><trkpt lat="43.0349567" lon="13.4666667"><ele>268.0</ele><time>2026-03-22T09:39:00.896Z</time></trkpt><trkpt lat="43.0347667" lon="13.466625"><ele>269.0</ele><time>2026-03-22T09:39:01.896Z</time></trkpt><trkpt lat="43.03457" lon="13.4665917"><ele>270.0</ele><time>2026-03-22T09:39:02.896Z</time></trkpt><trkpt lat="43.0343817" lon="13.466555"><ele>270.0</ele><time>2026-03-22T09:39:03.895Z</time></trkpt><trkpt lat="43.0341917" lon="13.4665233"><ele>270.0</ele><time>2026-03-22T09:39:04.895Z</time></trkpt><trkpt lat="43.034005" lon="13.4664967"><ele>270.0</ele><time>2026-03-22T09:39:05.896Z</time></trkpt><trkpt lat="43.03381" lon="13.466425"><ele>269.6666666666667</ele><time>2026-03-22T09:39:06.896Z</time></trkpt><trkpt lat="43.0336317" lon="13.4664183"><ele>269.33333333333337</ele><time>2026-03-22T09:39:07.896Z</time></trkpt><trkpt lat="43.033445" lon="13.4664533"><ele>269.0</ele><time>2026-03-22T09:39:08.896Z</time></trkpt><trkpt lat="43.0332667" lon="13.466495"><ele>270.0</ele><time>2026-03-22T09:39:09.895Z</time></trkpt><trkpt lat="43.0330833" lon="13.4665433"><ele>271.0</ele><time>2026-03-22T09:39:10.896Z</time></trkpt><trkpt lat="43.0329117" lon="13.466575"><ele>272.0</ele><time>2026-03-22T09:39:11.895Z</time></trkpt><trkpt lat="43.0327383" lon="13.46659"><ele>272.0</ele><time>2026-03-22T09:39:12.896Z</time></trkpt><trkpt lat="43.0325617" lon="13.4665767"><ele>272.0</ele><time>2026-03-22T09:39:13.895Z</time></trkpt><trkpt lat="43.03238" lon="13.466525"><ele>272.0</ele><time>2026-03-22T09:39:14.896Z</time></trkpt><trkpt lat="43.0321983" lon="13.4664617"><ele>274.6666666666667</ele><time>2026-03-22T09:39:15.895Z</time></trkpt><trkpt lat="43.0320217" lon="13.4663817"><ele>277.3333333333333</ele><time>2026-03-22T09:39:16.895Z</time></trkpt><trkpt lat="43.0318417" lon="13.4662717"><ele>280.0</ele><time>2026-03-22T09:39:17.896Z</time></trkpt><trkpt lat="43.031665" lon="13.4661683"><ele>276.0</ele><time>2026-03-22T09:39:18.895Z</time></trkpt><trkpt lat="43.03148" lon="13.4660833"><ele>272.0</ele><time>2026-03-22T09:39:19.895Z</time></trkpt><trkpt lat="43.03129" lon="13.4660133"><ele>268.0</ele><time>2026-03-22T09:39:20.896Z</time></trkpt><trkpt lat="43.0311" lon="13.4659567"><ele>268.0</ele><time>2026-03-22T09:39:21.895Z</time></trkpt><trkpt lat="43.030915" lon="13.4659133"><ele>268.0</ele><time>2026-03-22T09:39:22.896Z</time></trkpt><trkpt lat="43.030735" lon="13.4658533"><ele>268.0</ele><time>2026-03-22T09:39:23.896Z</time></trkpt><trkpt lat="43.0305617" lon="13.46577"><ele>268.0</ele><time>2026-03-22T09:39:24.895Z</time></trkpt><trkpt lat="43.03042" lon="13.4656367"><ele>268.0</ele><time>2026-03-22T09:39:25.896Z</time></trkpt><trkpt lat="43.030275" lon="13.4654467"><ele>268.0</ele><time>2026-03-22T09:39:26.896Z</time></trkpt><trkpt lat="43.030155" lon="13.4652683"><ele>268.0</ele><time>2026-03-22T09:39:27.895Z</time></trkpt><trkpt lat="43.0300283" lon="13.4650983"><ele>268.0</ele><time>2026-03-22T09:39:28.896Z</time></trkpt><trkpt lat="43.029895" lon="13.46492"><ele>268.0</ele><time>2026-03-22T09:39:29.896Z</time></trkpt><trkpt lat="43.029755" lon="13.4647583"><ele>269.66666666666663</ele><time>2026-03-22T09:39:30.895Z</time></trkpt><trkpt lat="43.0296233" lon="13.464635"><ele>271.3333333333333</ele><time>2026-03-22T09:39:31.896Z</time></trkpt><trkpt lat="43.029465" lon="13.4645533"><ele>273.0</ele><time>2026-03-22T09:39:32.895Z</time></trkpt><trkpt lat="43.0293083" lon="13.4645283"><ele>270.6666666666667</ele><time>2026-03-22T09:39:33.896Z</time></trkpt><trkpt lat="43.029155" lon="13.4645367"><ele>268.33333333333337</ele><time>2026-03-22T09:39:34.895Z</time></trkpt><trkpt lat="43.0289983" lon="13.4645983"><ele>266.0</ele><time>2026-03-22T09:39:35.896Z</time></trkpt><trkpt lat="43.0288533" lon="13.4647633"><ele>266.0</ele><time>2026-03-22T09:39:36.895Z</time></trkpt><trkpt lat="43.0287183" lon="13.4648983"><ele>266.0</ele><time>2026-03-22T09:39:37.896Z</time></trkpt><trkpt lat="43.0285833" lon="13.4650283"><ele>266.0</ele><time>2026-03-22T09:39:38.896Z</time></trkpt><trkpt lat="43.0284533" lon="13.465145"><ele>265.33333333333337</ele><time>2026-03-22T09:39:39.896Z</time></trkpt><trkpt lat="43.0283083" lon="13.4652533"><ele>264.6666666666667</ele><time>2026-03-22T09:39:40.896Z</time></trkpt><trkpt lat="43.02815" lon="13.465345"><ele>264.0</ele><time>2026-03-22T09:39:41.896Z</time></trkpt><trkpt lat="43.027985" lon="13.4654033"><ele>264.0</ele><time>2026-03-22T09:39:42.896Z</time></trkpt><trkpt lat="43.0278117" lon="13.4654133"><ele>264.0</ele><time>2026-03-22T09:39:43.895Z</time></trkpt><trkpt lat="43.0276383" lon="13.4653767"><ele>264.0</ele><time>2026-03-22T09:39:44.896Z</time></trkpt><trkpt lat="43.0274617" lon="13.465315"><ele>264.3333333333333</ele><time>2026-03-22T09:39:45.896Z</time></trkpt><trkpt lat="43.0272883" lon="13.465265"><ele>264.66666666666663</ele><time>2026-03-22T09:39:46.896Z</time></trkpt><trkpt lat="43.0271217" lon="13.4652167"><ele>265.0</ele><time>2026-03-22T09:39:47.896Z</time></trkpt><trkpt lat="43.0269517" lon="13.4651783"><ele>265.0</ele><time>2026-03-22T09:39:48.895Z</time></trkpt><trkpt lat="43.0267817" lon="13.465135"><ele>265.0</ele><time>2026-03-22T09:39:49.895Z</time></trkpt><trkpt lat="43.02663" lon="13.4650717"><ele>265.0</ele><time>2026-03-22T09:39:50.896Z</time></trkpt><trkpt lat="43.0264983" lon="13.465"><ele>267.5</ele><time>2026-03-22T09:39:51.896Z</time></trkpt><trkpt lat="43.0263667" lon="13.4649267"><ele>270.0</ele><time>2026-03-22T09:39:52.896Z</time></trkpt><trkpt lat="43.0262533" lon="13.46482"><ele>272.5</ele><time>2026-03-22T09:39:53.895Z</time></trkpt><trkpt lat="43.0261633" lon="13.4646733"><ele>275.0</ele><time>2026-03-22T09:39:54.896Z</time></trkpt><trkpt lat="43.02608" lon="13.46449"><ele>275.0</ele><time>2026-03-22T09:39:55.896Z</time></trkpt><trkpt lat="43.0260367" lon="13.464265"><ele>275.0</ele><time>2026-03-22T09:39:56.896Z</time></trkpt><trkpt lat="43.025975" lon="13.4640483"><ele>275.0</ele><time>2026-03-22T09:39:57.896Z</time></trkpt><trkpt lat="43.0259067" lon="13.4638683"><ele>278.6666666666667</ele><time>2026-03-22T09:39:58.896Z</time></trkpt><trkpt lat="43.0257967" lon="13.463695"><ele>282.3333333333333</ele><time>2026-03-22T09:39:59.896Z</time></trkpt><trkpt lat="43.025675" lon="13.46353"><ele>286.0</ele><time>2026-03-22T09:40:00.896Z</time></trkpt><trkpt lat="43.0255583" lon="13.46335"><ele>286.0</ele><time>2026-03-22T09:40:01.895Z</time></trkpt><trkpt lat="43.0254517" lon="13.4631633"><ele>286.0</ele><time>2026-03-22T09:40:02.896Z</time></trkpt><trkpt lat="43.0253517" lon="13.4630033"><ele>286.0</ele><time>2026-03-22T09:40:03.895Z</time></trkpt><trkpt lat="43.0252467" lon="13.46287"><ele>285.75</ele><time>2026-03-22T09:40:04.896Z</time></trkpt><trkpt lat="43.0251233" lon="13.462795"><ele>285.5</ele><time>2026-03-22T09:40:05.896Z</time></trkpt><trkpt lat="43.02499" lon="13.462765"><ele>285.25</ele><time>2026-03-22T09:40:06.895Z</time></trkpt><trkpt lat="43.0248483" lon="13.46278"><ele>285.0</ele><time>2026-03-22T09:40:07.896Z</time></trkpt><trkpt lat="43.0247067" lon="13.46278"><ele>285.0</ele><time>2026-03-22T09:40:08.896Z</time></trkpt><trkpt lat="43.0245633" lon="13.46276"><ele>285.0</ele><time>2026-03-22T09:40:09.896Z</time></trkpt><trkpt lat="43.02442" lon="13.4627117"><ele>285.0</ele><time>2026-03-22T09:40:10.895Z</time></trkpt><trkpt lat="43.024305" lon="13.462625"><ele>285.0</ele><time>2026-03-22T09:40:11.896Z</time></trkpt><trkpt lat="43.0242333" lon="13.4624617"><ele>285.0</ele><time>2026-03-22T09:40:12.896Z</time></trkpt><trkpt lat="43.02417" lon="13.4623033"><ele>285.0</ele><time>2026-03-22T09:40:13.895Z</time></trkpt><trkpt lat="43.0240817" lon="13.4621683"><ele>285.0</ele><time>2026-03-22T09:40:14.896Z</time></trkpt><trkpt lat="43.0239967" lon="13.4621167"><ele>285.0</ele><time>2026-03-22T09:40:15.895Z</time></trkpt><trkpt lat="43.023885" lon="13.4620867"><ele>284.2</ele><time>2026-03-22T09:40:16.896Z</time></trkpt><trkpt lat="43.0237717" lon="13.4621117"><ele>283.4</ele><time>2026-03-22T09:40:17.895Z</time></trkpt><trkpt lat="43.0236583" lon="13.462125"><ele>282.6</ele><time>2026-03-22T09:40:18.896Z</time></trkpt><trkpt lat="43.02356" lon="13.46212"><ele>281.8</ele><time>2026-03-22T09:40:19.896Z</time></trkpt><trkpt lat="43.0234817" lon="13.462065"><ele>281.0</ele><time>2026-03-22T09:40:20.896Z</time></trkpt><trkpt lat="43.0234267" lon="13.4619767"><ele>281.0</ele><time>2026-03-22T09:40:21.895Z</time></trkpt><trkpt lat="43.0233867" lon="13.461875"><ele>281.0</ele><time>2026-03-22T09:40:22.896Z</time></trkpt><trkpt lat="43.0233717" lon="13.4617417"><ele>281.0</ele><time>2026-03-22T09:40:23.896Z</time></trkpt><trkpt lat="43.0233633" lon="13.4616167"><ele>281.0</ele><time>2026-03-22T09:40:24.896Z</time></trkpt><trkpt lat="43.0234167" lon="13.4614617"><ele>281.0</ele><time>2026-03-22T09:40:25.896Z</time></trkpt><trkpt lat="43.02352" lon="13.4613417"><ele>286.33333333333337</ele><time>2026-03-22T09:40:26.896Z</time></trkpt><trkpt lat="43.0236567" lon="13.4612083"><ele>291.6666666666667</ele><time>2026-03-22T09:40:27.896Z</time></trkpt><trkpt lat="43.0238183" lon="13.4611217"><ele>297.0</ele><time>2026-03-22T09:40:28.896Z</time></trkpt><trkpt lat="43.024005" lon="13.4611033"><ele>295.6666666666667</ele><time>2026-03-22T09:40:29.896Z</time></trkpt><trkpt lat="43.0241817" lon="13.4611233"><ele>294.33333333333337</ele><time>2026-03-22T09:40:30.896Z</time></trkpt><trkpt lat="43.0243317" lon="13.4611633"><ele>293.0</ele><time>2026-03-22T09:40:31.896Z</time></trkpt><trkpt lat="43.0244583" lon="13.4612183"><ele>293.0</ele><time>2026-03-22T09:40:32.895Z</time></trkpt><trkpt lat="43.0245767" lon="13.4612817"><ele>293.0</ele><time>2026-03-22T09:40:33.895Z</time></trkpt><trkpt lat="43.024695" lon="13.4612933"><ele>293.0</ele><time>2026-03-22T09:40:34.896Z</time></trkpt><trkpt lat="43.024805" lon="13.4612883"><ele>293.0</ele><time>2026-03-22T09:40:35.895Z</time></trkpt><trkpt lat="43.0249117" lon="13.46123"><ele>292.75</ele><time>2026-03-22T09:40:36.895Z</time></trkpt><trkpt lat="43.0250133" lon="13.461135"><ele>292.5</ele><time>2026-03-22T09:40:37.895Z</time></trkpt><trkpt lat="43.0251167" lon="13.4610383"><ele>292.25</ele><time>2026-03-22T09:40:38.896Z</time></trkpt><trkpt lat="43.0252233" lon="13.4609533"><ele>292.0</ele><time>2026-03-22T09:40:39.895Z</time></trkpt><trkpt lat="43.0253283" lon="13.4608717"><ele>292.0</ele><time>2026-03-22T09:40:40.895Z</time></trkpt><trkpt lat="43.0254267" lon="13.4607917"><ele>292.0</ele><time>2026-03-22T09:40:41.896Z</time></trkpt><trkpt lat="43.02552" lon="13.4606967"><ele>292.0</ele><time>2026-03-22T09:40:42.896Z</time></trkpt><trkpt lat="43.0255917" lon="13.46059"><ele>292.0</ele><time>2026-03-22T09:40:43.896Z</time></trkpt><trkpt lat="43.025635" lon="13.4604633"><ele>292.0</ele><time>2026-03-22T09:40:44.896Z</time></trkpt><trkpt lat="43.0256567" lon="13.460315"><ele>293.75</ele><time>2026-03-22T09:40:45.895Z</time></trkpt><trkpt lat="43.0256383" lon="13.4601617"><ele>295.5</ele><time>2026-03-22T09:40:46.896Z</time></trkpt><trkpt lat="43.0255783" lon="13.4600167"><ele>297.25</ele><time>2026-03-22T09:40:47.895Z</time></trkpt><trkpt lat="43.02551" lon="13.459875"><ele>299.0</ele><time>2026-03-22T09:40:48.896Z</time></trkpt><trkpt lat="43.02542" lon="13.45973"><ele>296.75</ele><time>2026-03-22T09:40:49.895Z</time></trkpt><trkpt lat="43.025335" lon="13.4595883"><ele>294.5</ele><time>2026-03-22T09:40:50.896Z</time></trkpt><trkpt lat="43.0252667" lon="13.459455"><ele>292.25</ele><time>2026-03-22T09:40:51.896Z</time></trkpt><trkpt lat="43.025195" lon="13.4593167"><ele>290.0</ele><time>2026-03-22T09:40:52.896Z</time></trkpt><trkpt lat="43.0251283" lon="13.459205"><ele>290.0</ele><time>2026-03-22T09:40:53.895Z</time></trkpt><trkpt lat="43.0250483" lon="13.4591333"><ele>290.0</ele><time>2026-03-22T09:40:54.895Z</time></trkpt><trkpt lat="43.0249533" lon="13.4590917"><ele>290.0</ele><time>2026-03-22T09:40:55.895Z</time></trkpt><trkpt lat="43.02485" lon="13.459095"><ele>290.0</ele><time>2026-03-22T09:40:56.895Z</time></trkpt><trkpt lat="43.0247417" lon="13.45913"><ele>290.0</ele><time>2026-03-22T09:40:57.895Z</time></trkpt><trkpt lat="43.024645" lon="13.459145"><ele>291.6</ele><time>2026-03-22T09:40:58.896Z</time></trkpt><trkpt lat="43.0245483" lon="13.45912"><ele>293.2</ele><time>2026-03-22T09:40:59.896Z</time></trkpt><trkpt lat="43.0244583" lon="13.4590667"><ele>294.8</ele><time>2026-03-22T09:41:00.895Z</time></trkpt><trkpt lat="43.0243783" lon="13.4589583"><ele>296.4</ele><time>2026-03-22T09:41:01.896Z</time></trkpt><trkpt lat="43.02433" lon="13.4588417"><ele>298.0</ele><time>2026-03-22T09:41:02.895Z</time></trkpt><trkpt lat="43.0242967" lon="13.458715"><ele>298.0</ele><time>2026-03-22T09:41:03.895Z</time></trkpt><trkpt lat="43.0242817" lon="13.458575"><ele>298.0</ele><time>2026-03-22T09:41:04.896Z</time></trkpt><trkpt lat="43.02429" lon="13.45841"><ele>298.0</ele><time>2026-03-22T09:41:05.896Z</time></trkpt><trkpt lat="43.0243167" lon="13.4582633"><ele>298.0</ele><time>2026-03-22T09:41:06.896Z</time></trkpt><trkpt lat="43.0243533" lon="13.45811"><ele>298.0</ele><time>2026-03-22T09:41:07.895Z</time></trkpt><trkpt lat="43.02439" lon="13.4579683"><ele>298.0</ele><time>2026-03-22T09:41:08.896Z</time></trkpt><trkpt lat="43.0244067" lon="13.457835"><ele>298.0</ele><time>2026-03-22T09:41:09.895Z</time></trkpt><trkpt lat="43.0244083" lon="13.4577133"><ele>298.0</ele><time>2026-03-22T09:41:10.895Z</time></trkpt><trkpt lat="43.0243817" lon="13.4575967"><ele>298.0</ele><time>2026-03-22T09:41:11.896Z</time></trkpt><trkpt lat="43.02433" lon="13.4574967"><ele>297.8</ele><time>2026-03-22T09:41:12.895Z</time></trkpt><trkpt lat="43.0242433" lon="13.4574333"><ele>297.6</ele><time>2026-03-22T09:41:13.896Z</time></trkpt><trkpt lat="43.0241383" lon="13.457395"><ele>297.4</ele><time>2026-03-22T09:41:14.895Z</time></trkpt><trkpt lat="43.0240317" lon="13.45739"><ele>297.2</ele><time>2026-03-22T09:41:15.895Z</time></trkpt><trkpt lat="43.02392" lon="13.457415"><ele>297.0</ele><time>2026-03-22T09:41:16.896Z</time></trkpt><trkpt lat="43.0238167" lon="13.4574567"><ele>297.0</ele><time>2026-03-22T09:41:17.896Z</time></trkpt><trkpt lat="43.0237133" lon="13.4574817"><ele>297.0</ele><time>2026-03-22T09:41:18.896Z</time></trkpt><trkpt lat="43.0235933" lon="13.457495"><ele>297.0</ele><time>2026-03-22T09:41:19.895Z</time></trkpt><trkpt lat="43.02347" lon="13.457495"><ele>297.0</ele><time>2026-03-22T09:41:20.896Z</time></trkpt><trkpt lat="43.0233333" lon="13.4574567"><ele>300.0</ele><time>2026-03-22T09:41:21.896Z</time></trkpt><trkpt lat="43.023195" lon="13.45738"><ele>303.0</ele><time>2026-03-22T09:41:22.895Z</time></trkpt><trkpt lat="43.0230467" lon="13.4573"><ele>306.0</ele><time>2026-03-22T09:41:23.896Z</time></trkpt><trkpt lat="43.0229067" lon="13.45715"><ele>303.0</ele><time>2026-03-22T09:41:24.896Z</time></trkpt><trkpt lat="43.0227783" lon="13.4569567"><ele>300.0</ele><time>2026-03-22T09:41:25.895Z</time></trkpt><trkpt lat="43.0226567" lon="13.4567467"><ele>297.0</ele><time>2026-03-22T09:41:26.896Z</time></trkpt><trkpt lat="43.0225633" lon="13.4565083"><ele>307.0</ele><time>2026-03-22T09:41:27.896Z</time></trkpt><trkpt lat="43.0224633" lon="13.4562383"><ele>317.0</ele><time>2026-03-22T09:41:28.895Z</time></trkpt><trkpt lat="43.0223583" lon="13.4559533"><ele>317.0</ele><time>2026-03-22T09:41:29.895Z</time></trkpt><trkpt lat="43.022235" lon="13.455685"><ele>317.0</ele><time>2026-03-22T09:41:30.896Z</time></trkpt><trkpt lat="43.0221367" lon="13.455415"><ele>317.0</ele><time>2026-03-22T09:41:31.895Z</time></trkpt><trkpt lat="43.0220567" lon="13.4551667"><ele>317.0</ele><time>2026-03-22T09:41:32.895Z</time></trkpt><trkpt lat="43.0219717" lon="13.4549167"><ele>317.0</ele><time>2026-03-22T09:41:33.896Z</time></trkpt><trkpt lat="43.0219117" lon="13.4546433"><ele>312.6666666666667</ele><time>2026-03-22T09:41:34.896Z</time></trkpt><trkpt lat="43.0218683" lon="13.4543417"><ele>308.3333333333333</ele><time>2026-03-22T09:41:35.896Z</time></trkpt><trkpt lat="43.0218233" lon="13.454055"><ele>304.0</ele><time>2026-03-22T09:41:36.896Z</time></trkpt><trkpt lat="43.0217883" lon="13.453765"><ele>305.0</ele><time>2026-03-22T09:41:37.895Z</time></trkpt><trkpt lat="43.0217533" lon="13.45347"><ele>306.0</ele><time>2026-03-22T09:41:38.896Z</time></trkpt><trkpt lat="43.02172" lon="13.453195"><ele>307.0</ele><time>2026-03-22T09:41:39.896Z</time></trkpt><trkpt lat="43.0217217" lon="13.4529083"><ele>307.0</ele><time>2026-03-22T09:41:40.896Z</time></trkpt><trkpt lat="43.0217133" lon="13.452625"><ele>307.0</ele><time>2026-03-22T09:41:41.896Z</time></trkpt><trkpt lat="43.0216867" lon="13.4523367"><ele>307.0</ele><time>2026-03-22T09:41:42.896Z</time></trkpt><trkpt lat="43.0217217" lon="13.4520617"><ele>307.66666666666663</ele><time>2026-03-22T09:41:43.896Z</time></trkpt><trkpt lat="43.02176" lon="13.4517933"><ele>308.3333333333333</ele><time>2026-03-22T09:41:44.895Z</time></trkpt><trkpt lat="43.0218067" lon="13.4515283"><ele>309.0</ele><time>2026-03-22T09:41:45.895Z</time></trkpt><trkpt lat="43.0218717" lon="13.45127"><ele>311.0</ele><time>2026-03-22T09:41:46.896Z</time></trkpt><trkpt lat="43.0219483" lon="13.4510217"><ele>313.0</ele><time>2026-03-22T09:41:47.896Z</time></trkpt><trkpt lat="43.0220683" lon="13.4507933"><ele>315.0</ele><time>2026-03-22T09:41:48.895Z</time></trkpt><trkpt lat="43.0222017" lon="13.4505967"><ele>316.0</ele><time>2026-03-22T09:41:49.895Z</time></trkpt><trkpt lat="43.0223183" lon="13.450395"><ele>317.0</ele><time>2026-03-22T09:41:50.896Z</time></trkpt><trkpt lat="43.0224533" lon="13.450195"><ele>318.0</ele><time>2026-03-22T09:41:51.896Z</time></trkpt><trkpt lat="43.02259" lon="13.4499917"><ele>317.3333333333333</ele><time>2026-03-22T09:41:52.896Z</time></trkpt><trkpt lat="43.02271" lon="13.449775"><ele>316.66666666666663</ele><time>2026-03-22T09:41:53.896Z</time></trkpt><trkpt lat="43.0228167" lon="13.4495467"><ele>316.0</ele><time>2026-03-22T09:41:54.896Z</time></trkpt><trkpt lat="43.0229233" lon="13.44932"><ele>316.0</ele><time>2026-03-22T09:41:55.895Z</time></trkpt><trkpt lat="43.0230267" lon="13.4490817"><ele>316.0</ele><time>2026-03-22T09:41:56.896Z</time></trkpt><trkpt lat="43.0231283" lon="13.4488517"><ele>316.0</ele><time>2026-03-22T09:41:57.895Z</time></trkpt><trkpt lat="43.023225" lon="13.4486183"><ele>312.66666666666663</ele><time>2026-03-22T09:41:58.896Z</time></trkpt><trkpt lat="43.0233167" lon="13.4483867"><ele>309.3333333333333</ele><time>2026-03-22T09:41:59.896Z</time></trkpt><trkpt lat="43.0233683" lon="13.4481383"><ele>306.0</ele><time>2026-03-22T09:42:00.896Z</time></trkpt><trkpt lat="43.023385" lon="13.4478917"><ele>306.0</ele><time>2026-03-22T09:42:01.895Z</time></trkpt><trkpt lat="43.023365" lon="13.4476383"><ele>306.0</ele><time>2026-03-22T09:42:02.895Z</time></trkpt><trkpt lat="43.023285" lon="13.4473933"><ele>306.0</ele><time>2026-03-22T09:42:03.896Z</time></trkpt><trkpt lat="43.0231983" lon="13.44716"><ele>311.6666666666667</ele><time>2026-03-22T09:42:04.896Z</time></trkpt><trkpt lat="43.0231133" lon="13.4469133"><ele>317.33333333333337</ele><time>2026-03-22T09:42:05.895Z</time></trkpt><trkpt lat="43.0230317" lon="13.4466483"><ele>323.0</ele><time>2026-03-22T09:42:06.896Z</time></trkpt><trkpt lat="43.0229617" lon="13.4463933"><ele>323.33333333333337</ele><time>2026-03-22T09:42:07.896Z</time></trkpt><trkpt lat="43.022895" lon="13.4461417"><ele>323.6666666666667</ele><time>2026-03-22T09:42:08.896Z</time></trkpt><trkpt lat="43.0228217" lon="13.445885"><ele>324.0</ele><time>2026-03-22T09:42:09.895Z</time></trkpt><trkpt lat="43.0227617" lon="13.4456367"><ele>323.0</ele><time>2026-03-22T09:42:10.895Z</time></trkpt><trkpt lat="43.02271" lon="13.4453567"><ele>322.0</ele><time>2026-03-22T09:42:11.895Z</time></trkpt><trkpt lat="43.022715" lon="13.44507"><ele>321.0</ele><time>2026-03-22T09:42:12.896Z</time></trkpt><trkpt lat="43.02276" lon="13.44478"><ele>321.3333333333333</ele><time>2026-03-22T09:42:13.895Z</time></trkpt><trkpt lat="43.0228067" lon="13.4445083"><ele>321.66666666666663</ele><time>2026-03-22T09:42:14.896Z</time></trkpt><trkpt lat="43.0228383" lon="13.4442167"><ele>322.0</ele><time>2026-03-22T09:42:15.895Z</time></trkpt><trkpt lat="43.0228717" lon="13.4439083"><ele>320.66666666666663</ele><time>2026-03-22T09:42:16.896Z</time></trkpt><trkpt lat="43.0229" lon="13.4436"><ele>319.3333333333333</ele><time>2026-03-22T09:42:17.896Z</time></trkpt><trkpt lat="43.022935" lon="13.4433017"><ele>318.0</ele><time>2026-03-22T09:42:18.895Z</time></trkpt><trkpt lat="43.02296" lon="13.4430183"><ele>319.3333333333333</ele><time>2026-03-22T09:42:19.896Z</time></trkpt><trkpt lat="43.0229967" lon="13.4427283"><ele>320.66666666666663</ele><time>2026-03-22T09:42:20.895Z</time></trkpt><trkpt lat="43.0230117" lon="13.4424533"><ele>322.0</ele><time>2026-03-22T09:42:21.896Z</time></trkpt><trkpt lat="43.0230217" lon="13.4421617"><ele>324.0</ele><time>2026-03-22T09:42:22.896Z</time></trkpt><trkpt lat="43.02305" lon="13.4418833"><ele>326.0</ele><time>2026-03-22T09:42:23.896Z</time></trkpt><trkpt lat="43.02306" lon="13.4415983"><ele>328.0</ele><time>2026-03-22T09:42:24.895Z</time></trkpt><trkpt lat="43.0230417" lon="13.4413167"><ele>324.3333333333333</ele><time>2026-03-22T09:42:25.896Z</time></trkpt><trkpt lat="43.0229917" lon="13.4410517"><ele>320.6666666666667</ele><time>2026-03-22T09:42:26.896Z</time></trkpt><trkpt lat="43.0228783" lon="13.440805"><ele>317.0</ele><time>2026-03-22T09:42:27.896Z</time></trkpt><trkpt lat="43.0227633" lon="13.4405883"><ele>313.6666666666667</ele><time>2026-03-22T09:42:28.896Z</time></trkpt><trkpt lat="43.0226417" lon="13.4403567"><ele>310.3333333333333</ele><time>2026-03-22T09:42:29.896Z</time></trkpt><trkpt lat="43.02252" lon="13.440105"><ele>307.0</ele><time>2026-03-22T09:42:30.896Z</time></trkpt><trkpt lat="43.0223967" lon="13.43987"><ele>310.3333333333333</ele><time>2026-03-22T09:42:31.896Z</time></trkpt><trkpt lat="43.0222683" lon="13.4396317"><ele>313.6666666666667</ele><time>2026-03-22T09:42:32.896Z</time></trkpt><trkpt lat="43.0221567" lon="13.4394"><ele>317.0</ele><time>2026-03-22T09:42:33.895Z</time></trkpt><trkpt lat="43.0220617" lon="13.4391783"><ele>317.0</ele><time>2026-03-22T09:42:34.895Z</time></trkpt><trkpt lat="43.02197" lon="13.43894"><ele>317.0</ele><time>2026-03-22T09:42:35.895Z</time></trkpt><trkpt lat="43.021915" lon="13.4387017"><ele>317.0</ele><time>2026-03-22T09:42:36.896Z</time></trkpt><trkpt lat="43.0218883" lon="13.4384567"><ele>317.33333333333337</ele><time>2026-03-22T09:42:37.896Z</time></trkpt><trkpt lat="43.0218933" lon="13.4381933"><ele>317.6666666666667</ele><time>2026-03-22T09:42:38.895Z</time></trkpt><trkpt lat="43.0219367" lon="13.4379217"><ele>318.0</ele><time>2026-03-22T09:42:39.896Z</time></trkpt><trkpt lat="43.021915" lon="13.437655"><ele>318.3333333333333</ele><time>2026-03-22T09:42:40.896Z</time></trkpt><trkpt lat="43.0218833" lon="13.4373683"><ele>318.66666666666663</ele><time>2026-03-22T09:42:41.896Z</time></trkpt><trkpt lat="43.0218433" lon="13.4370917"><ele>319.0</ele><time>2026-03-22T09:42:42.895Z</time></trkpt><trkpt lat="43.0217983" lon="13.4368017"><ele>317.0</ele><time>2026-03-22T09:42:43.895Z</time></trkpt><trkpt lat="43.021745" lon="13.43652"><ele>315.0</ele><time>2026-03-22T09:42:44.895Z</time></trkpt><trkpt lat="43.02169" lon="13.43624"><ele>313.0</ele><time>2026-03-22T09:42:45.895Z</time></trkpt><trkpt lat="43.0216683" lon="13.4359467"><ele>316.0</ele><time>2026-03-22T09:42:46.896Z</time></trkpt><trkpt lat="43.0216167" lon="13.4356467"><ele>319.0</ele><time>2026-03-22T09:42:47.895Z</time></trkpt><trkpt lat="43.0215983" lon="13.4353417"><ele>322.0</ele><time>2026-03-22T09:42:48.896Z</time></trkpt><trkpt lat="43.021615" lon="13.4350467"><ele>322.3333333333333</ele><time>2026-03-22T09:42:49.895Z</time></trkpt><trkpt lat="43.0216267" lon="13.4347483"><ele>322.6666666666667</ele><time>2026-03-22T09:42:50.896Z</time></trkpt><trkpt lat="43.021645" lon="13.434445"><ele>323.0</ele><time>2026-03-22T09:42:51.895Z</time></trkpt><trkpt lat="43.0216583" lon="13.4341417"><ele>317.5</ele><time>2026-03-22T09:42:52.896Z</time></trkpt><trkpt lat="43.0216733" lon="13.4338417"><ele>312.0</ele><time>2026-03-22T09:42:53.896Z</time></trkpt><trkpt lat="43.02168" lon="13.433525"><ele>312.0</ele><time>2026-03-22T09:42:54.895Z</time></trkpt><trkpt lat="43.02167" lon="13.4332283"><ele>312.0</ele><time>2026-03-22T09:42:55.895Z</time></trkpt><trkpt lat="43.021665" lon="13.4329417"><ele>312.0</ele><time>2026-03-22T09:42:56.896Z</time></trkpt><trkpt lat="43.0216583" lon="13.4326433"><ele>319.3333333333333</ele><time>2026-03-22T09:42:57.895Z</time></trkpt><trkpt lat="43.0216383" lon="13.43234"><ele>326.66666666666663</ele><time>2026-03-22T09:42:58.895Z</time></trkpt><trkpt lat="43.0216167" lon="13.4320483"><ele>334.0</ele><time>2026-03-22T09:42:59.895Z</time></trkpt><trkpt lat="43.0215867" lon="13.4317667"><ele>334.0</ele><time>2026-03-22T09:43:00.896Z</time></trkpt><trkpt lat="43.0215483" lon="13.4314817"><ele>334.0</ele><time>2026-03-22T09:43:01.896Z</time></trkpt><trkpt lat="43.0214783" lon="13.4312067"><ele>334.0</ele><time>2026-03-22T09:43:02.895Z</time></trkpt><trkpt lat="43.0214067" lon="13.43094"><ele>332.66666666666663</ele><time>2026-03-22T09:43:03.896Z</time></trkpt><trkpt lat="43.0213433" lon="13.430685"><ele>331.3333333333333</ele><time>2026-03-22T09:43:04.896Z</time></trkpt><trkpt lat="43.0212917" lon="13.4304383"><ele>330.0</ele><time>2026-03-22T09:43:05.895Z</time></trkpt><trkpt lat="43.021185" lon="13.4301883"><ele>327.6666666666667</ele><time>2026-03-22T09:43:06.896Z</time></trkpt><trkpt lat="43.0211117" lon="13.4299733"><ele>325.33333333333337</ele><time>2026-03-22T09:43:07.895Z</time></trkpt><trkpt lat="43.0210083" lon="13.4297933"><ele>323.0</ele><time>2026-03-22T09:43:08.895Z</time></trkpt><trkpt lat="43.0208767" lon="13.4296217"><ele>324.33333333333337</ele><time>2026-03-22T09:43:09.896Z</time></trkpt><trkpt lat="43.0207383" lon="13.4294417"><ele>325.6666666666667</ele><time>2026-03-22T09:43:10.895Z</time></trkpt><trkpt lat="43.02059" lon="13.4292583"><ele>327.0</ele><time>2026-03-22T09:43:11.896Z</time></trkpt><trkpt lat="43.0204317" lon="13.4290783"><ele>327.0</ele><time>2026-03-22T09:43:12.895Z</time></trkpt><trkpt lat="43.02027" lon="13.4288917"><ele>327.0</ele><time>2026-03-22T09:43:13.896Z</time></trkpt><trkpt lat="43.02011" lon="13.4287"><ele>327.0</ele><time>2026-03-22T09:43:14.896Z</time></trkpt><trkpt lat="43.0199417" lon="13.428535"><ele>328.3333333333333</ele><time>2026-03-22T09:43:15.896Z</time></trkpt><trkpt lat="43.0197733" lon="13.42837"><ele>329.66666666666663</ele><time>2026-03-22T09:43:16.895Z</time></trkpt><trkpt lat="43.0196017" lon="13.4282167"><ele>331.0</ele><time>2026-03-22T09:43:17.896Z</time></trkpt><trkpt lat="43.0194317" lon="13.42807"><ele>330.3333333333333</ele><time>2026-03-22T09:43:18.896Z</time></trkpt><trkpt lat="43.019265" lon="13.427915"><ele>329.6666666666667</ele><time>2026-03-22T09:43:19.896Z</time></trkpt><trkpt lat="43.0191083" lon="13.4277567"><ele>329.0</ele><time>2026-03-22T09:43:20.895Z</time></trkpt><trkpt lat="43.0189583" lon="13.427595"><ele>329.0</ele><time>2026-03-22T09:43:21.896Z</time></trkpt><trkpt lat="43.0187983" lon="13.4274533"><ele>329.0</ele><time>2026-03-22T09:43:22.895Z</time></trkpt><trkpt lat="43.0186183" lon="13.427345"><ele>329.0</ele><time>2026-03-22T09:43:23.896Z</time></trkpt><trkpt lat="43.0184283" lon="13.4272667"><ele>327.33333333333337</ele><time>2026-03-22T09:43:24.895Z</time></trkpt><trkpt lat="43.018235" lon="13.4272133"><ele>325.6666666666667</ele><time>2026-03-22T09:43:25.896Z</time></trkpt><trkpt lat="43.01804" lon="13.427175"><ele>324.0</ele><time>2026-03-22T09:43:26.896Z</time></trkpt><trkpt lat="43.017845" lon="13.4271167"><ele>324.0</ele><time>2026-03-22T09:43:27.896Z</time></trkpt><trkpt lat="43.0176633" lon="13.4270167"><ele>324.0</ele><time>2026-03-22T09:43:28.895Z</time></trkpt><trkpt lat="43.0174883" lon="13.4269"><ele>324.0</ele><time>2026-03-22T09:43:29.896Z</time></trkpt><trkpt lat="43.01732" lon="13.426745"><ele>328.0</ele><time>2026-03-22T09:43:30.896Z</time></trkpt><trkpt lat="43.0171917" lon="13.4265483"><ele>332.0</ele><time>2026-03-22T09:43:31.895Z</time></trkpt><trkpt lat="43.0170717" lon="13.4263067"><ele>336.0</ele><time>2026-03-22T09:43:32.895Z</time></trkpt><trkpt lat="43.0169767" lon="13.4260483"><ele>336.0</ele><time>2026-03-22T09:43:33.895Z</time></trkpt><trkpt lat="43.01688" lon="13.4257767"><ele>336.0</ele><time>2026-03-22T09:43:34.896Z</time></trkpt><trkpt lat="43.016785" lon="13.4255383"><ele>336.0</ele><time>2026-03-22T09:43:35.896Z</time></trkpt><trkpt lat="43.0167" lon="13.4253183"><ele>336.6666666666667</ele><time>2026-03-22T09:43:36.896Z</time></trkpt><trkpt lat="43.016605" lon="13.425095"><ele>337.33333333333337</ele><time>2026-03-22T09:43:37.895Z</time></trkpt><trkpt lat="43.0164917" lon="13.4248867"><ele>338.0</ele><time>2026-03-22T09:43:38.896Z</time></trkpt><trkpt lat="43.01636" lon="13.42469"><ele>335.6666666666667</ele><time>2026-03-22T09:43:39.895Z</time></trkpt><trkpt lat="43.0162267" lon="13.4245083"><ele>333.3333333333333</ele><time>2026-03-22T09:43:40.896Z</time></trkpt><trkpt lat="43.01606" lon="13.4243333"><ele>331.0</ele><time>2026-03-22T09:43:41.896Z</time></trkpt><trkpt lat="43.015925" lon="13.42415"><ele>332.3333333333333</ele><time>2026-03-22T09:43:42.896Z</time></trkpt><trkpt lat="43.015785" lon="13.42397"><ele>333.6666666666667</ele><time>2026-03-22T09:43:43.895Z</time></trkpt><trkpt lat="43.0156633" lon="13.423765"><ele>335.0</ele><time>2026-03-22T09:43:44.895Z</time></trkpt><trkpt lat="43.0155517" lon="13.4235267"><ele>335.0</ele><time>2026-03-22T09:43:45.896Z</time></trkpt><trkpt lat="43.0154467" lon="13.4233067"><ele>335.0</ele><time>2026-03-22T09:43:46.895Z</time></trkpt><trkpt lat="43.0153483" lon="13.4230817"><ele>335.0</ele><time>2026-03-22T09:43:47.896Z</time></trkpt><trkpt lat="43.0152483" lon="13.4228633"><ele>334.33333333333337</ele><time>2026-03-22T09:43:48.896Z</time></trkpt><trkpt lat="43.0151483" lon="13.42264"><ele>333.6666666666667</ele><time>2026-03-22T09:43:49.896Z</time></trkpt><trkpt lat="43.0150517" lon="13.4224317"><ele>333.0</ele><time>2026-03-22T09:43:50.895Z</time></trkpt><trkpt lat="43.0149383" lon="13.422245"><ele>332.6666666666667</ele><time>2026-03-22T09:43:51.896Z</time></trkpt><trkpt lat="43.0148167" lon="13.422095"><ele>332.33333333333337</ele><time>2026-03-22T09:43:52.895Z</time></trkpt><trkpt lat="43.014665" lon="13.42199"><ele>332.0</ele><time>2026-03-22T09:43:53.895Z</time></trkpt><trkpt lat="43.0144983" lon="13.421945"><ele>332.0</ele><time>2026-03-22T09:43:54.895Z</time></trkpt><trkpt lat="43.01432" lon="13.4219283"><ele>332.0</ele><time>2026-03-22T09:43:55.896Z</time></trkpt><trkpt lat="43.0141383" lon="13.4219317"><ele>332.0</ele><time>2026-03-22T09:43:56.895Z</time></trkpt><trkpt lat="43.0139483" lon="13.4219333"><ele>332.33333333333337</ele><time>2026-03-22T09:43:57.896Z</time></trkpt><trkpt lat="43.0137533" lon="13.4219367"><ele>332.6666666666667</ele><time>2026-03-22T09:43:58.896Z</time></trkpt><trkpt lat="43.0135633" lon="13.421935"><ele>333.0</ele><time>2026-03-22T09:43:59.896Z</time></trkpt><trkpt lat="43.0133733" lon="13.4219033"><ele>334.6666666666667</ele><time>2026-03-22T09:44:00.895Z</time></trkpt><trkpt lat="43.0131833" lon="13.4218733"><ele>336.33333333333337</ele><time>2026-03-22T09:44:01.895Z</time></trkpt><trkpt lat="43.0129883" lon="13.421865"><ele>338.0</ele><time>2026-03-22T09:44:02.896Z</time></trkpt><trkpt lat="43.0127883" lon="13.4218567"><ele>338.0</ele><time>2026-03-22T09:44:03.895Z</time></trkpt><trkpt lat="43.0125967" lon="13.4218617"><ele>338.0</ele><time>2026-03-22T09:44:04.896Z</time></trkpt><trkpt lat="43.0124167" lon="13.4218483"><ele>338.0</ele><time>2026-03-22T09:44:05.896Z</time></trkpt><trkpt lat="43.01225" lon="13.42182"><ele>339.25</ele><time>2026-03-22T09:44:06.896Z</time></trkpt><trkpt lat="43.01211" lon="13.4217783"><ele>340.5</ele><time>2026-03-22T09:44:07.895Z</time></trkpt><trkpt lat="43.0119783" lon="13.4217017"><ele>341.75</ele><time>2026-03-22T09:44:08.896Z</time></trkpt><trkpt lat="43.0118683" lon="13.4215867"><ele>343.0</ele><time>2026-03-22T09:44:09.896Z</time></trkpt><trkpt lat="43.01181" lon="13.4213717"><ele>344.0</ele><time>2026-03-22T09:44:10.896Z</time></trkpt><trkpt lat="43.0117633" lon="13.4211483"><ele>345.0</ele><time>2026-03-22T09:44:11.896Z</time></trkpt><trkpt lat="43.0116683" lon="13.42098"><ele>346.0</ele><time>2026-03-22T09:44:12.896Z</time></trkpt><trkpt lat="43.0115533" lon="13.4208317"><ele>346.0</ele><time>2026-03-22T09:44:13.895Z</time></trkpt><trkpt lat="43.01142" lon="13.4206617"><ele>346.0</ele><time>2026-03-22T09:44:14.895Z</time></trkpt><trkpt lat="43.0112633" lon="13.4205117"><ele>346.0</ele><time>2026-03-22T09:44:15.896Z</time></trkpt><trkpt lat="43.01109" lon="13.4203717"><ele>347.66666666666663</ele><time>2026-03-22T09:44:16.895Z</time></trkpt><trkpt lat="43.010915" lon="13.4202317"><ele>349.3333333333333</ele><time>2026-03-22T09:44:17.895Z</time></trkpt><trkpt lat="43.0107433" lon="13.420085"><ele>351.0</ele><time>2026-03-22T09:44:18.895Z</time></trkpt><trkpt lat="43.0105683" lon="13.4199367"><ele>351.0</ele><time>2026-03-22T09:44:19.895Z</time></trkpt><trkpt lat="43.0104067" lon="13.4197833"><ele>351.0</ele><time>2026-03-22T09:44:20.896Z</time></trkpt><trkpt lat="43.0102517" lon="13.4196083"><ele>351.0</ele><time>2026-03-22T09:44:21.896Z</time></trkpt><trkpt lat="43.0101017" lon="13.41941"><ele>349.6666666666667</ele><time>2026-03-22T09:44:22.896Z</time></trkpt><trkpt lat="43.00997" lon="13.4192033"><ele>348.33333333333337</ele><time>2026-03-22T09:44:23.896Z</time></trkpt><trkpt lat="43.0098417" lon="13.419"><ele>347.0</ele><time>2026-03-22T09:44:24.895Z</time></trkpt><trkpt lat="43.00971" lon="13.418795"><ele>347.0</ele><time>2026-03-22T09:44:25.896Z</time></trkpt><trkpt lat="43.0095767" lon="13.41859"><ele>347.0</ele><time>2026-03-22T09:44:26.895Z</time></trkpt><trkpt lat="43.00944" lon="13.4183833"><ele>347.0</ele><time>2026-03-22T09:44:27.896Z</time></trkpt><trkpt lat="43.0093033" lon="13.4181783"><ele>343.6666666666667</ele><time>2026-03-22T09:44:28.896Z</time></trkpt><trkpt lat="43.0091717" lon="13.417965"><ele>340.3333333333333</ele><time>2026-03-22T09:44:29.895Z</time></trkpt><trkpt lat="43.0090333" lon="13.4177667"><ele>337.0</ele><time>2026-03-22T09:44:30.895Z</time></trkpt><trkpt lat="43.0089033" lon="13.4175667"><ele>339.3333333333333</ele><time>2026-03-22T09:44:31.895Z</time></trkpt><trkpt lat="43.0087733" lon="13.4173683"><ele>341.6666666666667</ele><time>2026-03-22T09:44:32.896Z</time></trkpt><trkpt lat="43.0086433" lon="13.4171717"><ele>344.0</ele><time>2026-03-22T09:44:33.895Z</time></trkpt><trkpt lat="43.00851" lon="13.4169767"><ele>344.0</ele><time>2026-03-22T09:44:34.896Z</time></trkpt><trkpt lat="43.0083583" lon="13.4167917"><ele>344.0</ele><time>2026-03-22T09:44:35.896Z</time></trkpt><trkpt lat="43.008215" lon="13.4166033"><ele>344.0</ele><time>2026-03-22T09:44:36.896Z</time></trkpt><trkpt lat="43.00807" lon="13.4164217"><ele>350.0</ele><time>2026-03-22T09:44:37.895Z</time></trkpt><trkpt lat="43.00792" lon="13.4162517"><ele>356.0</ele><time>2026-03-22T09:44:38.896Z</time></trkpt><trkpt lat="43.0077833" lon="13.4160867"><ele>362.0</ele><time>2026-03-22T09:44:39.895Z</time></trkpt><trkpt lat="43.0076683" lon="13.41591"><ele>362.0</ele><time>2026-03-22T09:44:40.895Z</time></trkpt><trkpt lat="43.0075783" lon="13.415705"><ele>362.0</ele><time>2026-03-22T09:44:41.895Z</time></trkpt><trkpt lat="43.007525" lon="13.4155"><ele>362.0</ele><time>2026-03-22T09:44:42.896Z</time></trkpt><trkpt lat="43.0074883" lon="13.415305"><ele>357.6666666666667</ele><time>2026-03-22T09:44:43.896Z</time></trkpt><trkpt lat="43.0075317" lon="13.4151183"><ele>353.3333333333333</ele><time>2026-03-22T09:44:44.896Z</time></trkpt><trkpt lat="43.0076483" lon="13.4149367"><ele>349.0</ele><time>2026-03-22T09:44:45.895Z</time></trkpt><trkpt lat="43.0077617" lon="13.4147883"><ele>346.66666666666663</ele><time>2026-03-22T09:44:46.896Z</time></trkpt><trkpt lat="43.0078583" lon="13.4146017"><ele>344.3333333333333</ele><time>2026-03-22T09:44:47.896Z</time></trkpt><trkpt lat="43.0079483" lon="13.414405"><ele>342.0</ele><time>2026-03-22T09:44:48.895Z</time></trkpt><trkpt lat="43.00801" lon="13.4142017"><ele>342.0</ele><time>2026-03-22T09:44:49.895Z</time></trkpt><trkpt lat="43.00801" lon="13.4139783"><ele>342.0</ele><time>2026-03-22T09:44:50.896Z</time></trkpt><trkpt lat="43.0079733" lon="13.41376"><ele>342.0</ele><time>2026-03-22T09:44:51.896Z</time></trkpt><trkpt lat="43.0078917" lon="13.4135617"><ele>340.0</ele><time>2026-03-22T09:44:52.895Z</time></trkpt><trkpt lat="43.0077667" lon="13.4133867"><ele>338.0</ele><time>2026-03-22T09:44:53.896Z</time></trkpt><trkpt lat="43.00762" lon="13.413225"><ele>336.0</ele><time>2026-03-22T09:44:54.895Z</time></trkpt><trkpt lat="43.0074667" lon="13.413075"><ele>340.0</ele><time>2026-03-22T09:44:55.896Z</time></trkpt><trkpt lat="43.0073267" lon="13.4129267"><ele>344.0</ele><time>2026-03-22T09:44:56.896Z</time></trkpt><trkpt lat="43.0072067" lon="13.412775"><ele>348.0</ele><time>2026-03-22T09:44:57.896Z</time></trkpt><trkpt lat="43.00711" lon="13.4125967"><ele>348.0</ele><time>2026-03-22T09:44:58.896Z</time></trkpt><trkpt lat="43.0070483" lon="13.4123933"><ele>348.0</ele><time>2026-03-22T09:44:59.895Z</time></trkpt><trkpt lat="43.0070217" lon="13.412175"><ele>348.0</ele><time>2026-03-22T09:45:00.895Z</time></trkpt><trkpt lat="43.0070283" lon="13.4119333"><ele>344.6666666666667</ele><time>2026-03-22T09:45:01.896Z</time></trkpt><trkpt lat="43.0070433" lon="13.4116867"><ele>341.33333333333337</ele><time>2026-03-22T09:45:02.895Z</time></trkpt><trkpt lat="43.0070433" lon="13.4114317"><ele>338.0</ele><time>2026-03-22T09:45:03.896Z</time></trkpt><trkpt lat="43.0070467" lon="13.4111783"><ele>338.0</ele><time>2026-03-22T09:45:04.896Z</time></trkpt><trkpt lat="43.0070633" lon="13.4109183"><ele>338.0</ele><time>2026-03-22T09:45:05.896Z</time></trkpt><trkpt lat="43.00711" lon="13.410655"><ele>338.0</ele><time>2026-03-22T09:45:06.895Z</time></trkpt><trkpt lat="43.0071717" lon="13.4104"><ele>340.33333333333337</ele><time>2026-03-22T09:45:07.896Z</time></trkpt><trkpt lat="43.007245" lon="13.41016"><ele>342.6666666666667</ele><time>2026-03-22T09:45:08.896Z</time></trkpt><trkpt lat="43.0073267" lon="13.4099317"><ele>345.0</ele><time>2026-03-22T09:45:09.896Z</time></trkpt><trkpt lat="43.0073867" lon="13.4096817"><ele>345.3333333333333</ele><time>2026-03-22T09:45:10.895Z</time></trkpt><trkpt lat="43.00743" lon="13.4094367"><ele>345.66666666666663</ele><time>2026-03-22T09:45:11.895Z</time></trkpt><trkpt lat="43.0074983" lon="13.4091817"><ele>346.0</ele><time>2026-03-22T09:45:12.896Z</time></trkpt><trkpt lat="43.0075583" lon="13.4089383"><ele>347.0</ele><time>2026-03-22T09:45:13.896Z</time></trkpt><trkpt lat="43.007615" lon="13.4086883"><ele>348.0</ele><time>2026-03-22T09:45:14.895Z</time></trkpt><trkpt lat="43.0077183" lon="13.4084533"><ele>349.0</ele><time>2026-03-22T09:45:15.895Z</time></trkpt><trkpt lat="43.0077517" lon="13.40821"><ele>347.66666666666663</ele><time>2026-03-22T09:45:16.896Z</time></trkpt><trkpt lat="43.0077567" lon="13.4079833"><ele>346.3333333333333</ele><time>2026-03-22T09:45:17.895Z</time></trkpt><trkpt lat="43.007705" lon="13.4077733"><ele>345.0</ele><time>2026-03-22T09:45:18.896Z</time></trkpt><trkpt lat="43.0076617" lon="13.40761"><ele>345.0</ele><time>2026-03-22T09:45:19.895Z</time></trkpt><trkpt lat="43.00763" lon="13.4074617"><ele>345.0</ele><time>2026-03-22T09:45:20.896Z</time></trkpt><trkpt lat="43.0076533" lon="13.40737"><ele>345.0</ele><time>2026-03-22T09:45:21.896Z</time></trkpt><trkpt lat="43.0077117" lon="13.40724"><ele>345.0</ele><time>2026-03-22T09:45:23.895Z</time></trkpt><trkpt lat="43.0077817" lon="13.4072383"><ele>345.0</ele><time>2026-03-22T09:45:24.896Z</time></trkpt><trkpt lat="43.00786" lon="13.4072633"><ele>345.0</ele><time>2026-03-22T09:45:25.895Z</time></trkpt><trkpt lat="43.0079433" lon="13.4073167"><ele>345.0</ele><time>2026-03-22T09:45:26.896Z</time></trkpt><trkpt lat="43.0080267" lon="13.4073717"><ele>345.0</ele><time>2026-03-22T09:45:27.895Z</time></trkpt><trkpt lat="43.0081017" lon="13.4074517"><ele>345.0</ele><time>2026-03-22T09:45:28.895Z</time></trkpt><trkpt lat="43.0081833" lon="13.4075467"><ele>345.0</ele><time>2026-03-22T09:45:29.896Z</time></trkpt><trkpt lat="43.0082833" lon="13.4076833"><ele>345.0</ele><time>2026-03-22T09:45:30.896Z</time></trkpt><trkpt lat="43.0083683" lon="13.4078117"><ele>343.2</ele><time>2026-03-22T09:45:31.896Z</time></trkpt><trkpt lat="43.0084467" lon="13.4079267"><ele>341.4</ele><time>2026-03-22T09:45:32.896Z</time></trkpt><trkpt lat="43.00851" lon="13.4080333"><ele>339.6</ele><time>2026-03-22T09:45:33.895Z</time></trkpt><trkpt lat="43.0085733" lon="13.40812"><ele>337.8</ele><time>2026-03-22T09:45:34.896Z</time></trkpt><trkpt lat="43.0086417" lon="13.4082183"><ele>336.0</ele><time>2026-03-22T09:45:36.895Z</time></trkpt><trkpt lat="43.0086967" lon="13.4082933"><ele>336.0</ele><time>2026-03-22T09:46:07.896Z</time></trkpt><trkpt lat="43.0087633" lon="13.40833"><ele>336.0</ele><time>2026-03-22T09:46:17.896Z</time></trkpt><trkpt lat="43.00871" lon="13.4082667"><ele>336.0</ele><time>2026-03-22T09:46:25.896Z</time></trkpt><trkpt lat="43.0086533" lon="13.408215"><ele>336.0</ele><time>2026-03-22T09:46:28.896Z</time></trkpt><trkpt lat="43.00859" lon="13.4081433"><ele>336.0</ele><time>2026-03-22T09:47:33.894Z</time></trkpt><trkpt lat="43.008525" lon="13.4080717"><ele>336.0</ele><time>2026-03-22T09:47:35.894Z</time></trkpt><trkpt lat="43.0084183" lon="13.4079767"><ele>336.0</ele><time>2026-03-22T09:47:37.895Z</time></trkpt><trkpt lat="43.00833" lon="13.4078667"><ele>336.0</ele><time>2026-03-22T09:47:39.894Z</time></trkpt><trkpt lat="43.0082733" lon="13.4078"><ele>336.0</ele><time>2026-03-22T09:47:40.894Z</time></trkpt><trkpt lat="43.0082267" lon="13.40772"><ele>336.0</ele><time>2026-03-22T09:47:41.895Z</time></trkpt><trkpt lat="43.00817" lon="13.4076317"><ele>336.0</ele><time>2026-03-22T09:47:42.895Z</time></trkpt><trkpt lat="43.0080983" lon="13.40756"><ele>336.0</ele><time>2026-03-22T09:47:43.895Z</time></trkpt><trkpt lat="43.0079883" lon="13.4075067"><ele>337.5</ele><time>2026-03-22T09:47:44.895Z</time></trkpt><trkpt lat="43.0079" lon="13.4074617"><ele>339.0</ele><time>2026-03-22T09:47:45.895Z</time></trkpt><trkpt lat="43.0078167" lon="13.40743"><ele>340.5</ele><time>2026-03-22T09:47:46.895Z</time></trkpt><trkpt lat="43.0077467" lon="13.4073883"><ele>342.0</ele><time>2026-03-22T09:47:47.895Z</time></trkpt><trkpt lat="43.007685" lon="13.4073633"><ele>343.5</ele><time>2026-03-22T09:47:48.895Z</time></trkpt><trkpt lat="43.0076033" lon="13.4072917"><ele>345.0</ele><time>2026-03-22T09:47:50.895Z</time></trkpt><trkpt lat="43.007615" lon="13.4071667"><ele>345.75</ele><time>2026-03-22T09:47:52.895Z</time></trkpt><trkpt lat="43.007655" lon="13.4070767"><ele>346.5</ele><time>2026-03-22T09:47:53.895Z</time></trkpt><trkpt lat="43.0077167" lon="13.4069617"><ele>347.25</ele><time>2026-03-22T09:47:54.894Z</time></trkpt><trkpt lat="43.0077983" lon="13.4068317"><ele>348.0</ele><time>2026-03-22T09:47:55.894Z</time></trkpt><trkpt lat="43.0078883" lon="13.4066567"><ele>348.0</ele><time>2026-03-22T09:47:56.895Z</time></trkpt><trkpt lat="43.007975" lon="13.4064783"><ele>348.0</ele><time>2026-03-22T09:47:57.895Z</time></trkpt><trkpt lat="43.00806" lon="13.406285"><ele>348.0</ele><time>2026-03-22T09:47:58.895Z</time></trkpt><trkpt lat="43.008145" lon="13.4060683"><ele>349.3333333333333</ele><time>2026-03-22T09:47:59.895Z</time></trkpt><trkpt lat="43.0081783" lon="13.4058417"><ele>350.66666666666663</ele><time>2026-03-22T09:48:00.894Z</time></trkpt><trkpt lat="43.0081917" lon="13.40559"><ele>352.0</ele><time>2026-03-22T09:48:01.895Z</time></trkpt><trkpt lat="43.0081717" lon="13.4053383"><ele>353.0</ele><time>2026-03-22T09:48:02.894Z</time></trkpt><trkpt lat="43.00813" lon="13.4050583"><ele>354.0</ele><time>2026-03-22T09:48:03.894Z</time></trkpt><trkpt lat="43.0081" lon="13.4047967"><ele>355.0</ele><time>2026-03-22T09:48:04.895Z</time></trkpt><trkpt lat="43.00808" lon="13.4045383"><ele>356.0</ele><time>2026-03-22T09:48:05.894Z</time></trkpt><trkpt lat="43.0080667" lon="13.4042767"><ele>357.0</ele><time>2026-03-22T09:48:06.895Z</time></trkpt><trkpt lat="43.00805" lon="13.4040183"><ele>358.0</ele><time>2026-03-22T09:48:07.895Z</time></trkpt><trkpt lat="43.0080167" lon="13.4037483"><ele>358.66666666666663</ele><time>2026-03-22T09:48:08.895Z</time></trkpt><trkpt lat="43.00799" lon="13.4034817"><ele>359.3333333333333</ele><time>2026-03-22T09:48:09.895Z</time></trkpt><trkpt lat="43.00796" lon="13.40322"><ele>360.0</ele><time>2026-03-22T09:48:10.894Z</time></trkpt><trkpt lat="43.00793" lon="13.4029617"><ele>360.0</ele><time>2026-03-22T09:48:11.895Z</time></trkpt><trkpt lat="43.0079083" lon="13.4027067"><ele>360.0</ele><time>2026-03-22T09:48:12.895Z</time></trkpt><trkpt lat="43.007905" lon="13.40247"><ele>360.0</ele><time>2026-03-22T09:48:13.894Z</time></trkpt><trkpt lat="43.00793" lon="13.402265"><ele>359.75</ele><time>2026-03-22T09:48:14.894Z</time></trkpt><trkpt lat="43.0080083" lon="13.4020967"><ele>359.5</ele><time>2026-03-22T09:48:15.895Z</time></trkpt><trkpt lat="43.0080733" lon="13.4019317"><ele>359.25</ele><time>2026-03-22T09:48:16.895Z</time></trkpt><trkpt lat="43.0081533" lon="13.4017717"><ele>359.0</ele><time>2026-03-22T09:48:17.895Z</time></trkpt><trkpt lat="43.008235" lon="13.4016117"><ele>359.33333333333337</ele><time>2026-03-22T09:48:18.895Z</time></trkpt><trkpt lat="43.0083317" lon="13.40142"><ele>359.6666666666667</ele><time>2026-03-22T09:48:19.895Z</time></trkpt><trkpt lat="43.00839" lon="13.4012033"><ele>360.0</ele><time>2026-03-22T09:48:20.895Z</time></trkpt><trkpt lat="43.00842" lon="13.4009717"><ele>361.3333333333333</ele><time>2026-03-22T09:48:21.894Z</time></trkpt><trkpt lat="43.0084333" lon="13.4007033"><ele>362.66666666666663</ele><time>2026-03-22T09:48:22.895Z</time></trkpt><trkpt lat="43.0084167" lon="13.4004283"><ele>364.0</ele><time>2026-03-22T09:48:23.894Z</time></trkpt><trkpt lat="43.0084083" lon="13.40017"><ele>364.66666666666663</ele><time>2026-03-22T09:48:24.895Z</time></trkpt><trkpt lat="43.0083967" lon="13.3999267"><ele>365.3333333333333</ele><time>2026-03-22T09:48:25.895Z</time></trkpt><trkpt lat="43.0083867" lon="13.3997067"><ele>366.0</ele><time>2026-03-22T09:48:26.894Z</time></trkpt><trkpt lat="43.0083733" lon="13.3995083"><ele>366.20000000000005</ele><time>2026-03-22T09:48:27.895Z</time></trkpt><trkpt lat="43.0083517" lon="13.3993367"><ele>366.40000000000003</ele><time>2026-03-22T09:48:28.894Z</time></trkpt><trkpt lat="43.0083733" lon="13.39921"><ele>366.6</ele><time>2026-03-22T09:48:29.895Z</time></trkpt><trkpt lat="43.008395" lon="13.3991"><ele>366.8</ele><time>2026-03-22T09:48:30.894Z</time></trkpt><trkpt lat="43.008435" lon="13.39901"><ele>367.0</ele><time>2026-03-22T09:48:31.894Z</time></trkpt><trkpt lat="43.00852" lon="13.3989567"><ele>367.0</ele><time>2026-03-22T09:48:32.894Z</time></trkpt><trkpt lat="43.0086" lon="13.3988967"><ele>367.0</ele><time>2026-03-22T09:48:33.894Z</time></trkpt><trkpt lat="43.0086717" lon="13.3988317"><ele>367.0</ele><time>2026-03-22T09:48:34.895Z</time></trkpt><trkpt lat="43.0087333" lon="13.3987583"><ele>367.0</ele><time>2026-03-22T09:48:35.895Z</time></trkpt><trkpt lat="43.0087933" lon="13.398665"><ele>367.0</ele><time>2026-03-22T09:48:36.895Z</time></trkpt><trkpt lat="43.0088233" lon="13.39855"><ele>367.0</ele><time>2026-03-22T09:48:37.895Z</time></trkpt><trkpt lat="43.0088417" lon="13.398395"><ele>367.75</ele><time>2026-03-22T09:48:38.895Z</time></trkpt><trkpt lat="43.008835" lon="13.3982183"><ele>368.5</ele><time>2026-03-22T09:48:39.894Z</time></trkpt><trkpt lat="43.0088333" lon="13.3980433"><ele>369.25</ele><time>2026-03-22T09:48:40.895Z</time></trkpt><trkpt lat="43.0088317" lon="13.3978833"><ele>370.0</ele><time>2026-03-22T09:48:41.894Z</time></trkpt><trkpt lat="43.0088233" lon="13.3977317"><ele>370.3333333333333</ele><time>2026-03-22T09:48:42.895Z</time></trkpt><trkpt lat="43.0088317" lon="13.3976067"><ele>370.66666666666663</ele><time>2026-03-22T09:48:43.895Z</time></trkpt><trkpt lat="43.00887" lon="13.39751"><ele>371.0</ele><time>2026-03-22T09:48:44.895Z</time></trkpt><trkpt lat="43.00891" lon="13.39742"><ele>371.3333333333333</ele><time>2026-03-22T09:48:45.895Z</time></trkpt><trkpt lat="43.0089733" lon="13.3973567"><ele>371.6666666666667</ele><time>2026-03-22T09:48:46.895Z</time></trkpt><trkpt lat="43.0090467" lon="13.397335"><ele>372.0</ele><time>2026-03-22T09:48:47.895Z</time></trkpt><trkpt lat="43.0091467" lon="13.39735"><ele>365.5</ele><time>2026-03-22T09:48:48.894Z</time></trkpt><trkpt lat="43.0092667" lon="13.3973733"><ele>359.0</ele><time>2026-03-22T09:48:49.895Z</time></trkpt><trkpt lat="43.0093917" lon="13.3973967"><ele>352.5</ele><time>2026-03-22T09:48:50.894Z</time></trkpt><trkpt lat="43.0095183" lon="13.3974033"><ele>346.0</ele><time>2026-03-22T09:48:51.895Z</time></trkpt><trkpt lat="43.0096417" lon="13.3974117"><ele>346.0</ele><time>2026-03-22T09:48:52.895Z</time></trkpt><trkpt lat="43.0097583" lon="13.3974067"><ele>346.0</ele><time>2026-03-22T09:48:53.894Z</time></trkpt><trkpt lat="43.00988" lon="13.3974033"><ele>346.0</ele><time>2026-03-22T09:48:54.895Z</time></trkpt><trkpt lat="43.01" lon="13.3974033"><ele>346.0</ele><time>2026-03-22T09:48:55.895Z</time></trkpt><trkpt lat="43.0101167" lon="13.397405"><ele>344.25</ele><time>2026-03-22T09:48:56.894Z</time></trkpt><trkpt lat="43.0102283" lon="13.3974"><ele>342.5</ele><time>2026-03-22T09:48:57.895Z</time></trkpt><trkpt lat="43.0103417" lon="13.3973733"><ele>340.75</ele><time>2026-03-22T09:48:58.895Z</time></trkpt><trkpt lat="43.0104567" lon="13.3973183"><ele>339.0</ele><time>2026-03-22T09:48:59.895Z</time></trkpt><trkpt lat="43.010565" lon="13.3972133"><ele>339.75</ele><time>2026-03-22T09:49:00.895Z</time></trkpt><trkpt lat="43.0106717" lon="13.3970933"><ele>340.5</ele><time>2026-03-22T09:49:01.894Z</time></trkpt><trkpt lat="43.01077" lon="13.3969633"><ele>341.25</ele><time>2026-03-22T09:49:02.895Z</time></trkpt><trkpt lat="43.0108683" lon="13.39683"><ele>342.0</ele><time>2026-03-22T09:49:03.895Z</time></trkpt><trkpt lat="43.0109667" lon="13.396685"><ele>344.0</ele><time>2026-03-22T09:49:04.895Z</time></trkpt><trkpt lat="43.01107" lon="13.3965367"><ele>346.0</ele><time>2026-03-22T09:49:05.894Z</time></trkpt><trkpt lat="43.011175" lon="13.396385"><ele>348.0</ele><time>2026-03-22T09:49:06.895Z</time></trkpt><trkpt lat="43.01127" lon="13.3962317"><ele>350.0</ele><time>2026-03-22T09:49:07.894Z</time></trkpt><trkpt lat="43.0113467" lon="13.3960867"><ele>350.0</ele><time>2026-03-22T09:49:08.894Z</time></trkpt><trkpt lat="43.01142" lon="13.3959483"><ele>350.0</ele><time>2026-03-22T09:49:09.895Z</time></trkpt><trkpt lat="43.01149" lon="13.3958133"><ele>350.0</ele><time>2026-03-22T09:49:10.894Z</time></trkpt><trkpt lat="43.01154" lon="13.3956783"><ele>350.0</ele><time>2026-03-22T09:49:11.895Z</time></trkpt><trkpt lat="43.0115567" lon="13.3955333"><ele>349.33333333333337</ele><time>2026-03-22T09:49:12.895Z</time></trkpt><trkpt lat="43.0115533" lon="13.3953833"><ele>348.6666666666667</ele><time>2026-03-22T09:49:13.895Z</time></trkpt><trkpt lat="43.011555" lon="13.395255"><ele>348.0</ele><time>2026-03-22T09:49:14.895Z</time></trkpt><trkpt lat="43.0115483" lon="13.395145"><ele>347.3333333333333</ele><time>2026-03-22T09:49:15.895Z</time></trkpt><trkpt lat="43.0115533" lon="13.3950483"><ele>346.66666666666663</ele><time>2026-03-22T09:49:16.895Z</time></trkpt><trkpt lat="43.0115517" lon="13.3949417"><ele>346.0</ele><time>2026-03-22T09:49:17.895Z</time></trkpt><trkpt lat="43.011565" lon="13.3948317"><ele>346.0</ele><time>2026-03-22T09:49:18.894Z</time></trkpt><trkpt lat="43.011585" lon="13.394725"><ele>346.0</ele><time>2026-03-22T09:49:19.895Z</time></trkpt><trkpt lat="43.0116117" lon="13.394605"><ele>346.0</ele><time>2026-03-22T09:49:20.895Z</time></trkpt><trkpt lat="43.011645" lon="13.3944833"><ele>346.0</ele><time>2026-03-22T09:49:21.894Z</time></trkpt><trkpt lat="43.01168" lon="13.3943583"><ele>346.0</ele><time>2026-03-22T09:49:22.895Z</time></trkpt><trkpt lat="43.0117183" lon="13.3942267"><ele>346.0</ele><time>2026-03-22T09:49:23.895Z</time></trkpt><trkpt lat="43.0117583" lon="13.3941033"><ele>346.0</ele><time>2026-03-22T09:49:24.894Z</time></trkpt><trkpt lat="43.0118083" lon="13.3939817"><ele>346.0</ele><time>2026-03-22T09:49:25.895Z</time></trkpt><trkpt lat="43.01186" lon="13.393875"><ele>346.0</ele><time>2026-03-22T09:49:26.895Z</time></trkpt><trkpt lat="43.0119233" lon="13.3937717"><ele>346.0</ele><time>2026-03-22T09:49:27.895Z</time></trkpt><trkpt lat="43.0119867" lon="13.39369"><ele>346.0</ele><time>2026-03-22T09:49:28.895Z</time></trkpt><trkpt lat="43.0120567" lon="13.39362"><ele>346.0</ele><time>2026-03-22T09:49:29.895Z</time></trkpt><trkpt lat="43.0121517" lon="13.3935533"><ele>346.0</ele><time>2026-03-22T09:49:30.895Z</time></trkpt><trkpt lat="43.012245" lon="13.3934917"><ele>346.0</ele><time>2026-03-22T09:49:31.894Z</time></trkpt><trkpt lat="43.0123383" lon="13.3934333"><ele>346.0</ele><time>2026-03-22T09:49:32.895Z</time></trkpt><trkpt lat="43.01243" lon="13.39338"><ele>348.16666666666663</ele><time>2026-03-22T09:49:33.895Z</time></trkpt><trkpt lat="43.0125233" lon="13.3933467"><ele>350.3333333333333</ele><time>2026-03-22T09:49:34.894Z</time></trkpt><trkpt lat="43.012605" lon="13.3932833"><ele>352.5</ele><time>2026-03-22T09:49:35.895Z</time></trkpt><trkpt lat="43.012675" lon="13.3932217"><ele>354.6666666666667</ele><time>2026-03-22T09:49:36.894Z</time></trkpt><trkpt lat="43.0127333" lon="13.3931883"><ele>356.83333333333337</ele><time>2026-03-22T09:49:37.895Z</time></trkpt><trkpt lat="43.0128083" lon="13.3931567"><ele>359.0</ele><time>2026-03-22T09:49:39.894Z</time></trkpt><trkpt lat="43.0127683" lon="13.3930717"><ele>359.1666666666667</ele><time>2026-03-22T09:50:03.894Z</time></trkpt><trkpt lat="43.0127217" lon="13.392975"><ele>359.33333333333337</ele><time>2026-03-22T09:50:05.894Z</time></trkpt><trkpt lat="43.0126733" lon="13.3928867"><ele>359.5</ele><time>2026-03-22T09:50:07.895Z</time></trkpt><trkpt lat="43.012615" lon="13.3928383"><ele>359.6666666666667</ele><time>2026-03-22T09:50:09.895Z</time></trkpt><trkpt lat="43.0125167" lon="13.3928"><ele>359.8333333333333</ele><time>2026-03-22T09:50:12.895Z</time></trkpt><trkpt lat="43.0124433" lon="13.3927767"><ele>360.0</ele><time>2026-03-22T09:50:14.895Z</time></trkpt><trkpt lat="43.0123767" lon="13.392745"><ele>357.2</ele><time>2026-03-22T09:50:19.895Z</time></trkpt><trkpt lat="43.0122867" lon="13.3927483"><ele>354.4</ele><time>2026-03-22T09:50:22.895Z</time></trkpt><trkpt lat="43.0122133" lon="13.392775"><ele>351.6</ele><time>2026-03-22T09:50:24.894Z</time></trkpt><trkpt lat="43.0121233" lon="13.3928183"><ele>348.8</ele><time>2026-03-22T09:50:26.894Z</time></trkpt><trkpt lat="43.01203" lon="13.3928467"><ele>346.0</ele><time>2026-03-22T09:50:28.894Z</time></trkpt><trkpt lat="43.0119383" lon="13.3928183"><ele>346.0</ele><time>2026-03-22T09:50:30.895Z</time></trkpt><trkpt lat="43.0119" lon="13.3927217"><ele>346.0</ele><time>2026-03-22T09:50:32.895Z</time></trkpt><trkpt lat="43.0119183" lon="13.3925783"><ele>346.0</ele><time>2026-03-22T09:50:34.895Z</time></trkpt><trkpt lat="43.0119483" lon="13.3925017"><ele>346.0</ele><time>2026-03-22T09:50:35.895Z</time></trkpt><trkpt lat="43.01199" lon="13.3924133"><ele>346.0</ele><time>2026-03-22T09:50:36.895Z</time></trkpt><trkpt lat="43.01202" lon="13.39231"><ele>346.0</ele><time>2026-03-22T09:50:37.895Z</time></trkpt><trkpt lat="43.01205" lon="13.3921967"><ele>346.0</ele><time>2026-03-22T09:50:38.895Z</time></trkpt><trkpt lat="43.0120733" lon="13.3920783"><ele>346.0</ele><time>2026-03-22T09:50:39.895Z</time></trkpt><trkpt lat="43.0120933" lon="13.39196"><ele>346.0</ele><time>2026-03-22T09:50:40.894Z</time></trkpt><trkpt lat="43.0121167" lon="13.3918383"><ele>346.0</ele><time>2026-03-22T09:50:41.895Z</time></trkpt><trkpt lat="43.01215" lon="13.391725"><ele>346.0</ele><time>2026-03-22T09:50:42.895Z</time></trkpt><trkpt lat="43.0121833" lon="13.3916133"><ele>346.0</ele><time>2026-03-22T09:50:43.895Z</time></trkpt><trkpt lat="43.0122167" lon="13.3915067"><ele>346.0</ele><time>2026-03-22T09:50:44.894Z</time></trkpt><trkpt lat="43.0122567" lon="13.39142"><ele>346.0</ele><time>2026-03-22T09:50:45.895Z</time></trkpt><trkpt lat="43.0123017" lon="13.3913467"><ele>346.0</ele><time>2026-03-22T09:50:46.895Z</time></trkpt><trkpt lat="43.0124067" lon="13.3912617"><ele>346.0</ele><time>2026-03-22T09:50:48.894Z</time></trkpt><trkpt lat="43.0124817" lon="13.391255"><ele>346.0</ele><time>2026-03-22T09:50:49.894Z</time></trkpt><trkpt lat="43.0125717" lon="13.3912617"><ele>346.0</ele><time>2026-03-22T09:50:50.895Z</time></trkpt><trkpt lat="43.0126567" lon="13.3912767"><ele>348.20000000000005</ele><time>2026-03-22T09:50:51.895Z</time></trkpt><trkpt lat="43.01276" lon="13.3912533"><ele>350.40000000000003</ele><time>2026-03-22T09:50:53.895Z</time></trkpt><trkpt lat="43.0128217" lon="13.3911683"><ele>352.6</ele><time>2026-03-22T09:50:55.895Z</time></trkpt><trkpt lat="43.0128017" lon="13.3910483"><ele>354.8</ele><time>2026-03-22T09:50:57.895Z</time></trkpt><trkpt lat="43.012705" lon="13.39097"><ele>357.0</ele><time>2026-03-22T09:50:59.895Z</time></trkpt><trkpt lat="43.0126317" lon="13.3909467"><ele>357.0</ele><time>2026-03-22T09:51:00.895Z</time></trkpt><trkpt lat="43.01255" lon="13.3909283"><ele>357.0</ele><time>2026-03-22T09:51:01.894Z</time></trkpt><trkpt lat="43.01248" lon="13.39089"><ele>357.0</ele><time>2026-03-22T09:51:02.894Z</time></trkpt><trkpt lat="43.0124217" lon="13.3908333"><ele>357.0</ele><time>2026-03-22T09:51:03.895Z</time></trkpt><trkpt lat="43.012365" lon="13.3907583"><ele>357.0</ele><time>2026-03-22T09:51:04.895Z</time></trkpt><trkpt lat="43.012325" lon="13.3906717"><ele>357.0</ele><time>2026-03-22T09:51:05.894Z</time></trkpt><trkpt lat="43.0123083" lon="13.3905533"><ele>354.6</ele><time>2026-03-22T09:51:06.895Z</time></trkpt><trkpt lat="43.0123067" lon="13.3904267"><ele>352.20000000000005</ele><time>2026-03-22T09:51:07.894Z</time></trkpt><trkpt lat="43.0123067" lon="13.390295"><ele>349.8</ele><time>2026-03-22T09:51:08.895Z</time></trkpt><trkpt lat="43.0123167" lon="13.3901567"><ele>347.4</ele><time>2026-03-22T09:51:09.895Z</time></trkpt><trkpt lat="43.0123233" lon="13.3900217"><ele>345.0</ele><time>2026-03-22T09:51:10.895Z</time></trkpt><trkpt lat="43.012325" lon="13.3898933"><ele>345.0</ele><time>2026-03-22T09:51:11.895Z</time></trkpt><trkpt lat="43.012325" lon="13.3897717"><ele>345.0</ele><time>2026-03-22T09:51:12.895Z</time></trkpt><trkpt lat="43.0123333" lon="13.389645"><ele>345.0</ele><time>2026-03-22T09:51:13.895Z</time></trkpt><trkpt lat="43.012335" lon="13.3895367"><ele>345.0</ele><time>2026-03-22T09:51:14.895Z</time></trkpt><trkpt lat="43.0123483" lon="13.38942"><ele>345.0</ele><time>2026-03-22T09:51:15.895Z</time></trkpt><trkpt lat="43.0123617" lon="13.3893133"><ele>345.0</ele><time>2026-03-22T09:51:16.895Z</time></trkpt><trkpt lat="43.0123833" lon="13.38919"><ele>345.0</ele><time>2026-03-22T09:51:17.895Z</time></trkpt><trkpt lat="43.0124083" lon="13.3890633"><ele>345.0</ele><time>2026-03-22T09:51:18.895Z</time></trkpt><trkpt lat="43.0124383" lon="13.38896"><ele>345.0</ele><time>2026-03-22T09:51:19.895Z</time></trkpt><trkpt lat="43.012465" lon="13.3888533"><ele>345.0</ele><time>2026-03-22T09:51:20.895Z</time></trkpt><trkpt lat="43.01249" lon="13.3887483"><ele>345.0</ele><time>2026-03-22T09:51:21.894Z</time></trkpt><trkpt lat="43.0125183" lon="13.3886333"><ele>345.0</ele><time>2026-03-22T09:51:22.895Z</time></trkpt><trkpt lat="43.012545" lon="13.3885383"><ele>347.5</ele><time>2026-03-22T09:51:23.895Z</time></trkpt><trkpt lat="43.0125583" lon="13.3884433"><ele>350.0</ele><time>2026-03-22T09:51:24.895Z</time></trkpt><trkpt lat="43.0125667" lon="13.38835"><ele>352.5</ele><time>2026-03-22T09:51:25.895Z</time></trkpt><trkpt lat="43.01256" lon="13.38823"><ele>355.0</ele><time>2026-03-22T09:51:26.894Z</time></trkpt><trkpt lat="43.01256" lon="13.3881017"><ele>357.5</ele><time>2026-03-22T09:51:27.894Z</time></trkpt><trkpt lat="43.0125383" lon="13.3879633"><ele>360.0</ele><time>2026-03-22T09:51:28.895Z</time></trkpt><trkpt lat="43.0125117" lon="13.387825"><ele>360.25</ele><time>2026-03-22T09:51:29.895Z</time></trkpt><trkpt lat="43.0125" lon="13.3876783"><ele>360.5</ele><time>2026-03-22T09:51:30.895Z</time></trkpt><trkpt lat="43.01249" lon="13.3875317"><ele>360.75</ele><time>2026-03-22T09:51:31.895Z</time></trkpt><trkpt lat="43.0124833" lon="13.3873733"><ele>361.0</ele><time>2026-03-22T09:51:32.894Z</time></trkpt><trkpt lat="43.0124533" lon="13.38721"><ele>357.5</ele><time>2026-03-22T09:51:33.895Z</time></trkpt><trkpt lat="43.0124133" lon="13.3870517"><ele>354.0</ele><time>2026-03-22T09:51:34.894Z</time></trkpt><trkpt lat="43.0123767" lon="13.38691"><ele>350.5</ele><time>2026-03-22T09:51:35.895Z</time></trkpt><trkpt lat="43.0123383" lon="13.3867583"><ele>347.0</ele><time>2026-03-22T09:51:36.895Z</time></trkpt><trkpt lat="43.0123133" lon="13.3866017"><ele>347.0</ele><time>2026-03-22T09:51:37.895Z</time></trkpt><trkpt lat="43.0122967" lon="13.3864433"><ele>347.0</ele><time>2026-03-22T09:51:38.895Z</time></trkpt><trkpt lat="43.0122967" lon="13.3862917"><ele>347.0</ele><time>2026-03-22T09:51:39.895Z</time></trkpt><trkpt lat="43.012295" lon="13.3861383"><ele>347.0</ele><time>2026-03-22T09:51:40.895Z</time></trkpt><trkpt lat="43.012295" lon="13.385985"><ele>347.8</ele><time>2026-03-22T09:51:41.895Z</time></trkpt><trkpt lat="43.0122933" lon="13.3858333"><ele>348.6</ele><time>2026-03-22T09:51:42.895Z</time></trkpt><trkpt lat="43.0122917" lon="13.3856867"><ele>349.40000000000003</ele><time>2026-03-22T09:51:43.895Z</time></trkpt><trkpt lat="43.0122833" lon="13.3855433"><ele>350.20000000000005</ele><time>2026-03-22T09:51:44.895Z</time></trkpt><trkpt lat="43.0122717" lon="13.3854067"><ele>351.0</ele><time>2026-03-22T09:51:45.894Z</time></trkpt><trkpt lat="43.0122567" lon="13.38528"><ele>351.1666666666667</ele><time>2026-03-22T09:51:46.895Z</time></trkpt><trkpt lat="43.01225" lon="13.38517"><ele>351.3333333333333</ele><time>2026-03-22T09:51:47.894Z</time></trkpt><trkpt lat="43.012235" lon="13.385075"><ele>351.5</ele><time>2026-03-22T09:51:48.894Z</time></trkpt><trkpt lat="43.0122083" lon="13.3849767"><ele>351.66666666666663</ele><time>2026-03-22T09:51:49.894Z</time></trkpt><trkpt lat="43.0121667" lon="13.3848683"><ele>351.8333333333333</ele><time>2026-03-22T09:51:50.894Z</time></trkpt><trkpt lat="43.012105" lon="13.384775"><ele>352.0</ele><time>2026-03-22T09:51:51.895Z</time></trkpt><trkpt lat="43.01204" lon="13.3846817"><ele>354.6</ele><time>2026-03-22T09:51:52.895Z</time></trkpt><trkpt lat="43.0119717" lon="13.3845917"><ele>357.20000000000005</ele><time>2026-03-22T09:51:53.895Z</time></trkpt><trkpt lat="43.0119067" lon="13.3844867"><ele>359.8</ele><time>2026-03-22T09:51:54.894Z</time></trkpt><trkpt lat="43.0118467" lon="13.3843767"><ele>362.4</ele><time>2026-03-22T09:51:55.894Z</time></trkpt><trkpt lat="43.0117867" lon="13.3842667"><ele>365.0</ele><time>2026-03-22T09:51:56.894Z</time></trkpt><trkpt lat="43.0117217" lon="13.3841583"><ele>363.4</ele><time>2026-03-22T09:51:57.895Z</time></trkpt><trkpt lat="43.0116433" lon="13.38406"><ele>361.8</ele><time>2026-03-22T09:51:58.895Z</time></trkpt><trkpt lat="43.011565" lon="13.383955"><ele>360.20000000000005</ele><time>2026-03-22T09:51:59.895Z</time></trkpt><trkpt lat="43.0114967" lon="13.3838517"><ele>358.6</ele><time>2026-03-22T09:52:00.894Z</time></trkpt><trkpt lat="43.0114367" lon="13.3837583"><ele>357.0</ele><time>2026-03-22T09:52:01.895Z</time></trkpt><trkpt lat="43.0113683" lon="13.383675"><ele>357.0</ele><time>2026-03-22T09:52:02.895Z</time></trkpt><trkpt lat="43.0113" lon="13.3835883"><ele>357.0</ele><time>2026-03-22T09:52:03.895Z</time></trkpt><trkpt lat="43.01123" lon="13.383515"><ele>357.0</ele><time>2026-03-22T09:52:04.894Z</time></trkpt><trkpt lat="43.0111717" lon="13.3834533"><ele>357.0</ele><time>2026-03-22T09:52:05.895Z</time></trkpt><trkpt lat="43.0111167" lon="13.3833933"><ele>357.0</ele><time>2026-03-22T09:52:06.895Z</time></trkpt><trkpt lat="43.0110317" lon="13.3833117"><ele>357.0</ele><time>2026-03-22T09:52:08.894Z</time></trkpt><trkpt lat="43.0109817" lon="13.383245"><ele>357.0</ele><time>2026-03-22T09:52:10.895Z</time></trkpt><trkpt lat="43.0109333" lon="13.3831433"><ele>357.0</ele><time>2026-03-22T09:52:12.894Z</time></trkpt><trkpt lat="43.0109" lon="13.3829767"><ele>357.0</ele><time>2026-03-22T09:52:14.894Z</time></trkpt><trkpt lat="43.0108717" lon="13.38288"><ele>357.0</ele><time>2026-03-22T09:52:15.894Z</time></trkpt><trkpt lat="43.010835" lon="13.382785"><ele>357.0</ele><time>2026-03-22T09:52:16.895Z</time></trkpt><trkpt lat="43.0107867" lon="13.38267"><ele>355.25</ele><time>2026-03-22T09:52:17.895Z</time></trkpt><trkpt lat="43.0107383" lon="13.382555"><ele>353.5</ele><time>2026-03-22T09:52:18.894Z</time></trkpt><trkpt lat="43.0106683" lon="13.3824467"><ele>351.75</ele><time>2026-03-22T09:52:19.895Z</time></trkpt><trkpt lat="43.01058" lon="13.3823383"><ele>350.0</ele><time>2026-03-22T09:52:20.895Z</time></trkpt><trkpt lat="43.0104817" lon="13.38221"><ele>352.0</ele><time>2026-03-22T09:52:21.895Z</time></trkpt><trkpt lat="43.01038" lon="13.382075"><ele>354.0</ele><time>2026-03-22T09:52:22.895Z</time></trkpt><trkpt lat="43.0102717" lon="13.3819467"><ele>356.0</ele><time>2026-03-22T09:52:23.895Z</time></trkpt><trkpt lat="43.0101217" lon="13.3818417"><ele>355.0</ele><time>2026-03-22T09:52:24.895Z</time></trkpt><trkpt lat="43.0099733" lon="13.381745"><ele>354.0</ele><time>2026-03-22T09:52:25.894Z</time></trkpt><trkpt lat="43.0098233" lon="13.3816633"><ele>353.0</ele><time>2026-03-22T09:52:26.894Z</time></trkpt><trkpt lat="43.0096517" lon="13.3815967"><ele>353.0</ele><time>2026-03-22T09:52:27.895Z</time></trkpt><trkpt lat="43.0094783" lon="13.3815467"><ele>353.0</ele><time>2026-03-22T09:52:28.895Z</time></trkpt><trkpt lat="43.0093117" lon="13.3815083"><ele>353.0</ele><time>2026-03-22T09:52:29.895Z</time></trkpt><trkpt lat="43.0091567" lon="13.3815017"><ele>353.0</ele><time>2026-03-22T09:52:30.894Z</time></trkpt><trkpt lat="43.00903" lon="13.3814583"><ele>353.0</ele><time>2026-03-22T09:52:31.894Z</time></trkpt><trkpt lat="43.0089217" lon="13.3814117"><ele>353.0</ele><time>2026-03-22T09:52:32.895Z</time></trkpt><trkpt lat="43.0088183" lon="13.3813333"><ele>353.0</ele><time>2026-03-22T09:52:33.895Z</time></trkpt><trkpt lat="43.0087233" lon="13.3812317"><ele>353.0</ele><time>2026-03-22T09:52:34.894Z</time></trkpt><trkpt lat="43.00862" lon="13.3811033"><ele>353.0</ele><time>2026-03-22T09:52:35.895Z</time></trkpt><trkpt lat="43.0085217" lon="13.380965"><ele>353.0</ele><time>2026-03-22T09:52:36.895Z</time></trkpt><trkpt lat="43.0084183" lon="13.3808233"><ele>353.0</ele><time>2026-03-22T09:52:37.894Z</time></trkpt><trkpt lat="43.0083117" lon="13.3806733"><ele>353.33333333333337</ele><time>2026-03-22T09:52:38.894Z</time></trkpt><trkpt lat="43.0082117" lon="13.380515"><ele>353.6666666666667</ele><time>2026-03-22T09:52:39.895Z</time></trkpt><trkpt lat="43.0081083" lon="13.38035"><ele>354.0</ele><time>2026-03-22T09:52:40.894Z</time></trkpt><trkpt lat="43.008005" lon="13.38017"><ele>354.0</ele><time>2026-03-22T09:52:41.895Z</time></trkpt><trkpt lat="43.0078983" lon="13.3799933"><ele>354.0</ele><time>2026-03-22T09:52:42.894Z</time></trkpt><trkpt lat="43.0077983" lon="13.3798367"><ele>354.0</ele><time>2026-03-22T09:52:43.894Z</time></trkpt><trkpt lat="43.007695" lon="13.3796817"><ele>354.0</ele><time>2026-03-22T09:52:44.895Z</time></trkpt><trkpt lat="43.0075933" lon="13.3795083"><ele>354.0</ele><time>2026-03-22T09:52:45.895Z</time></trkpt><trkpt lat="43.0074917" lon="13.3793533"><ele>354.0</ele><time>2026-03-22T09:52:46.895Z</time></trkpt><trkpt lat="43.007415" lon="13.379215"><ele>354.0</ele><time>2026-03-22T09:52:47.894Z</time></trkpt><trkpt lat="43.007355" lon="13.37909"><ele>354.2</ele><time>2026-03-22T09:52:48.895Z</time></trkpt><trkpt lat="43.00732" lon="13.3789667"><ele>354.4</ele><time>2026-03-22T09:52:49.894Z</time></trkpt><trkpt lat="43.007285" lon="13.37885"><ele>354.6</ele><time>2026-03-22T09:52:50.895Z</time></trkpt><trkpt lat="43.0072267" lon="13.378735"><ele>354.8</ele><time>2026-03-22T09:52:51.895Z</time></trkpt><trkpt lat="43.007155" lon="13.3785983"><ele>355.0</ele><time>2026-03-22T09:52:52.895Z</time></trkpt><trkpt lat="43.0070633" lon="13.3784417"><ele>355.0</ele><time>2026-03-22T09:52:53.894Z</time></trkpt><trkpt lat="43.0069733" lon="13.3782917"><ele>355.0</ele><time>2026-03-22T09:52:54.895Z</time></trkpt><trkpt lat="43.0068767" lon="13.378145"><ele>355.0</ele><time>2026-03-22T09:52:55.894Z</time></trkpt><trkpt lat="43.0067817" lon="13.37801"><ele>355.0</ele><time>2026-03-22T09:52:56.895Z</time></trkpt><trkpt lat="43.006695" lon="13.3778783"><ele>355.0</ele><time>2026-03-22T09:52:57.895Z</time></trkpt><trkpt lat="43.0066117" lon="13.3777683"><ele>355.0</ele><time>2026-03-22T09:52:58.895Z</time></trkpt><trkpt lat="43.0065483" lon="13.377665"><ele>355.0</ele><time>2026-03-22T09:52:59.895Z</time></trkpt><trkpt lat="43.0065033" lon="13.37756"><ele>355.0</ele><time>2026-03-22T09:53:00.895Z</time></trkpt><trkpt lat="43.006485" lon="13.3774567"><ele>355.0</ele><time>2026-03-22T09:53:01.894Z</time></trkpt><trkpt lat="43.0064783" lon="13.377345"><ele>355.0</ele><time>2026-03-22T09:53:02.895Z</time></trkpt><trkpt lat="43.0065167" lon="13.3772133"><ele>355.0</ele><time>2026-03-22T09:53:03.895Z</time></trkpt><trkpt lat="43.0065933" lon="13.37707"><ele>355.0</ele><time>2026-03-22T09:53:04.894Z</time></trkpt><trkpt lat="43.0067183" lon="13.37691"><ele>355.0</ele><time>2026-03-22T09:53:05.894Z</time></trkpt><trkpt lat="43.0068033" lon="13.3767783"><ele>356.5</ele><time>2026-03-22T09:53:06.895Z</time></trkpt><trkpt lat="43.006845" lon="13.3766617"><ele>358.0</ele><time>2026-03-22T09:53:07.894Z</time></trkpt><trkpt lat="43.0068617" lon="13.3765717"><ele>359.5</ele><time>2026-03-22T09:53:08.895Z</time></trkpt><trkpt lat="43.0068583" lon="13.376465"><ele>361.0</ele><time>2026-03-22T09:53:09.894Z</time></trkpt><trkpt lat="43.0068383" lon="13.3763683"><ele>362.5</ele><time>2026-03-22T09:53:10.895Z</time></trkpt><trkpt lat="43.0068083" lon="13.3762683"><ele>364.0</ele><time>2026-03-22T09:53:11.895Z</time></trkpt><trkpt lat="43.0067583" lon="13.3761583"><ele>365.4</ele><time>2026-03-22T09:53:12.895Z</time></trkpt><trkpt lat="43.0067183" lon="13.3760367"><ele>366.79999999999995</ele><time>2026-03-22T09:53:13.894Z</time></trkpt><trkpt lat="43.0066817" lon="13.3759317"><ele>368.20000000000005</ele><time>2026-03-22T09:53:14.895Z</time></trkpt><trkpt lat="43.0066517" lon="13.37581"><ele>369.6</ele><time>2026-03-22T09:53:15.895Z</time></trkpt><trkpt lat="43.0066333" lon="13.375675"><ele>371.0</ele><time>2026-03-22T09:53:16.894Z</time></trkpt><trkpt lat="43.00662" lon="13.37555"><ele>373.33333333333337</ele><time>2026-03-22T09:53:17.895Z</time></trkpt><trkpt lat="43.0065983" lon="13.3754533"><ele>375.6666666666667</ele><time>2026-03-22T09:53:18.895Z</time></trkpt><trkpt lat="43.0065567" lon="13.375365"><ele>378.0</ele><time>2026-03-22T09:53:19.894Z</time></trkpt><trkpt lat="43.0065017" lon="13.375285"><ele>380.33333333333337</ele><time>2026-03-22T09:53:20.894Z</time></trkpt><trkpt lat="43.006415" lon="13.375215"><ele>382.6666666666667</ele><time>2026-03-22T09:53:21.895Z</time></trkpt><trkpt lat="43.0063217" lon="13.375145"><ele>385.0</ele><time>2026-03-22T09:53:22.895Z</time></trkpt><trkpt lat="43.0062383" lon="13.375045"><ele>385.0</ele><time>2026-03-22T09:53:23.894Z</time></trkpt><trkpt lat="43.0061667" lon="13.3749067"><ele>385.0</ele><time>2026-03-22T09:53:24.895Z</time></trkpt><trkpt lat="43.006115" lon="13.3747483"><ele>385.0</ele><time>2026-03-22T09:53:25.894Z</time></trkpt><trkpt lat="43.0060633" lon="13.3745783"><ele>385.0</ele><time>2026-03-22T09:53:26.894Z</time></trkpt><trkpt lat="43.00601" lon="13.3744017"><ele>386.5</ele><time>2026-03-22T09:53:27.895Z</time></trkpt><trkpt lat="43.00597" lon="13.3742133"><ele>388.0</ele><time>2026-03-22T09:53:28.895Z</time></trkpt><trkpt lat="43.0059517" lon="13.3740433"><ele>389.5</ele><time>2026-03-22T09:53:29.894Z</time></trkpt><trkpt lat="43.0059267" lon="13.37389"><ele>391.0</ele><time>2026-03-22T09:53:30.894Z</time></trkpt><trkpt lat="43.0059183" lon="13.3737417"><ele>392.20000000000005</ele><time>2026-03-22T09:53:31.895Z</time></trkpt><trkpt lat="43.00591" lon="13.3735967"><ele>393.40000000000003</ele><time>2026-03-22T09:53:32.895Z</time></trkpt><trkpt lat="43.0059133" lon="13.3734633"><ele>394.6</ele><time>2026-03-22T09:53:33.895Z</time></trkpt><trkpt lat="43.0059067" lon="13.3733133"><ele>395.8</ele><time>2026-03-22T09:53:34.894Z</time></trkpt><trkpt lat="43.0058867" lon="13.3731517"><ele>397.0</ele><time>2026-03-22T09:53:35.895Z</time></trkpt><trkpt lat="43.0058783" lon="13.3729717"><ele>398.0</ele><time>2026-03-22T09:53:36.894Z</time></trkpt><trkpt lat="43.0058417" lon="13.37278"><ele>399.0</ele><time>2026-03-22T09:53:37.894Z</time></trkpt><trkpt lat="43.0057967" lon="13.37256"><ele>400.0</ele><time>2026-03-22T09:53:38.895Z</time></trkpt><trkpt lat="43.0057633" lon="13.3723367"><ele>401.5</ele><time>2026-03-22T09:53:39.895Z</time></trkpt><trkpt lat="43.0057367" lon="13.3721167"><ele>403.0</ele><time>2026-03-22T09:53:40.895Z</time></trkpt><trkpt lat="43.005715" lon="13.3719167"><ele>404.5</ele><time>2026-03-22T09:53:41.894Z</time></trkpt><trkpt lat="43.00569" lon="13.371745"><ele>406.0</ele><time>2026-03-22T09:53:42.894Z</time></trkpt><trkpt lat="43.0056483" lon="13.3716017"><ele>406.0</ele><time>2026-03-22T09:53:43.895Z</time></trkpt><trkpt lat="43.0055833" lon="13.3715"><ele>406.0</ele><time>2026-03-22T09:53:44.895Z</time></trkpt><trkpt lat="43.005475" lon="13.37144"><ele>406.0</ele><time>2026-03-22T09:53:45.895Z</time></trkpt><trkpt lat="43.005355" lon="13.3713967"><ele>406.0</ele><time>2026-03-22T09:53:46.894Z</time></trkpt><trkpt lat="43.0052117" lon="13.371375"><ele>406.0</ele><time>2026-03-22T09:53:47.895Z</time></trkpt><trkpt lat="43.00506" lon="13.3713583"><ele>406.0</ele><time>2026-03-22T09:53:48.894Z</time></trkpt><trkpt lat="43.0049117" lon="13.37132"><ele>406.0</ele><time>2026-03-22T09:53:49.895Z</time></trkpt><trkpt lat="43.004765" lon="13.3712783"><ele>406.0</ele><time>2026-03-22T09:53:50.895Z</time></trkpt><trkpt lat="43.00463" lon="13.371275"><ele>406.0</ele><time>2026-03-22T09:53:51.894Z</time></trkpt><trkpt lat="43.004485" lon="13.3712983"><ele>406.0</ele><time>2026-03-22T09:53:52.895Z</time></trkpt><trkpt lat="43.0043417" lon="13.3713517"><ele>406.0</ele><time>2026-03-22T09:53:53.894Z</time></trkpt><trkpt lat="43.0042083" lon="13.371415"><ele>405.25</ele><time>2026-03-22T09:53:54.894Z</time></trkpt><trkpt lat="43.00408" lon="13.3714833"><ele>404.5</ele><time>2026-03-22T09:53:55.895Z</time></trkpt><trkpt lat="43.0039517" lon="13.3715417"><ele>403.75</ele><time>2026-03-22T09:53:56.895Z</time></trkpt><trkpt lat="43.003835" lon="13.3715833"><ele>403.0</ele><time>2026-03-22T09:53:57.895Z</time></trkpt><trkpt lat="43.00372" lon="13.371575"><ele>403.0</ele><time>2026-03-22T09:53:58.894Z</time></trkpt><trkpt lat="43.0036167" lon="13.3715517"><ele>403.0</ele><time>2026-03-22T09:53:59.895Z</time></trkpt><trkpt lat="43.00351" lon="13.3715433"><ele>403.0</ele><time>2026-03-22T09:54:00.894Z</time></trkpt><trkpt lat="43.0034" lon="13.3715617"><ele>403.0</ele><time>2026-03-22T09:54:01.895Z</time></trkpt><trkpt lat="43.003285" lon="13.3716"><ele>403.0</ele><time>2026-03-22T09:54:02.895Z</time></trkpt><trkpt lat="43.0031533" lon="13.3716517"><ele>402.5</ele><time>2026-03-22T09:54:03.895Z</time></trkpt><trkpt lat="43.00301" lon="13.3716933"><ele>402.0</ele><time>2026-03-22T09:54:04.894Z</time></trkpt><trkpt lat="43.0028667" lon="13.3717333"><ele>401.5</ele><time>2026-03-22T09:54:05.895Z</time></trkpt><trkpt lat="43.002715" lon="13.3717833"><ele>401.0</ele><time>2026-03-22T09:54:06.895Z</time></trkpt><trkpt lat="43.0025633" lon="13.3718433"><ele>401.3333333333333</ele><time>2026-03-22T09:54:07.894Z</time></trkpt><trkpt lat="43.0024" lon="13.3718917"><ele>401.66666666666663</ele><time>2026-03-22T09:54:08.895Z</time></trkpt><trkpt lat="43.00224" lon="13.371945"><ele>402.0</ele><time>2026-03-22T09:54:09.895Z</time></trkpt><trkpt lat="43.0021" lon="13.3720067"><ele>402.0</ele><time>2026-03-22T09:54:10.894Z</time></trkpt><trkpt lat="43.00197" lon="13.3720567"><ele>402.0</ele><time>2026-03-22T09:54:11.895Z</time></trkpt><trkpt lat="43.00185" lon="13.3721067"><ele>402.0</ele><time>2026-03-22T09:54:12.895Z</time></trkpt><trkpt lat="43.0017283" lon="13.3721317"><ele>402.0</ele><time>2026-03-22T09:54:13.895Z</time></trkpt><trkpt lat="43.00161" lon="13.3721683"><ele>401.0</ele><time>2026-03-22T09:54:14.894Z</time></trkpt><trkpt lat="43.0015017" lon="13.37222"><ele>400.0</ele><time>2026-03-22T09:54:15.894Z</time></trkpt><trkpt lat="43.0014" lon="13.3722533"><ele>399.0</ele><time>2026-03-22T09:54:16.895Z</time></trkpt><trkpt lat="43.0013033" lon="13.3722367"><ele>398.0</ele><time>2026-03-22T09:54:17.894Z</time></trkpt><trkpt lat="43.0012117" lon="13.3721933"><ele>397.0</ele><time>2026-03-22T09:54:18.895Z</time></trkpt><trkpt lat="43.0011233" lon="13.3721133"><ele>397.0</ele><time>2026-03-22T09:54:19.895Z</time></trkpt><trkpt lat="43.0010433" lon="13.3720133"><ele>397.0</ele><time>2026-03-22T09:54:20.895Z</time></trkpt><trkpt lat="43.0009833" lon="13.3718783"><ele>397.0</ele><time>2026-03-22T09:54:21.895Z</time></trkpt><trkpt lat="43.00096" lon="13.371705"><ele>397.0</ele><time>2026-03-22T09:54:22.895Z</time></trkpt><trkpt lat="43.0009217" lon="13.371545"><ele>397.0</ele><time>2026-03-22T09:54:23.895Z</time></trkpt><trkpt lat="43.00087" lon="13.3714167"><ele>397.0</ele><time>2026-03-22T09:54:24.895Z</time></trkpt><trkpt lat="43.0008017" lon="13.3713333"><ele>397.0</ele><time>2026-03-22T09:54:25.895Z</time></trkpt><trkpt lat="43.0007183" lon="13.3712483"><ele>397.0</ele><time>2026-03-22T09:54:26.895Z</time></trkpt><trkpt lat="43.0006117" lon="13.3711683"><ele>397.0</ele><time>2026-03-22T09:54:27.894Z</time></trkpt><trkpt lat="43.00051" lon="13.3710717"><ele>398.40000000000003</ele><time>2026-03-22T09:54:28.895Z</time></trkpt><trkpt lat="43.000415" lon="13.3709717"><ele>399.8</ele><time>2026-03-22T09:54:29.894Z</time></trkpt><trkpt lat="43.0003283" lon="13.3708683"><ele>401.2</ele><time>2026-03-22T09:54:30.895Z</time></trkpt><trkpt lat="43.0002667" lon="13.370745"><ele>402.6</ele><time>2026-03-22T09:54:31.894Z</time></trkpt><trkpt lat="43.000205" lon="13.3706283"><ele>404.0</ele><time>2026-03-22T09:54:32.895Z</time></trkpt><trkpt lat="43.0001433" lon="13.370565"><ele>407.2</ele><time>2026-03-22T09:54:33.895Z</time></trkpt><trkpt lat="43.000085" lon="13.370515"><ele>410.4</ele><time>2026-03-22T09:54:34.895Z</time></trkpt><trkpt lat="43.0000033" lon="13.37048"><ele>413.6</ele><time>2026-03-22T09:54:35.895Z</time></trkpt><trkpt lat="42.9999017" lon="13.3704433"><ele>416.8</ele><time>2026-03-22T09:54:36.895Z</time></trkpt><trkpt lat="42.9997717" lon="13.37043"><ele>420.0</ele><time>2026-03-22T09:54:37.894Z</time></trkpt><trkpt lat="42.9996467" lon="13.3704283"><ele>420.0</ele><time>2026-03-22T09:54:38.894Z</time></trkpt><trkpt lat="42.9995133" lon="13.3704633"><ele>420.0</ele><time>2026-03-22T09:54:39.895Z</time></trkpt><trkpt lat="42.9993983" lon="13.3705133"><ele>420.0</ele><time>2026-03-22T09:54:40.894Z</time></trkpt><trkpt lat="42.99929" lon="13.370555"><ele>420.0</ele><time>2026-03-22T09:54:41.894Z</time></trkpt><trkpt lat="42.9991683" lon="13.370575"><ele>416.0</ele><time>2026-03-22T09:54:42.895Z</time></trkpt><trkpt lat="42.9990667" lon="13.3705717"><ele>412.0</ele><time>2026-03-22T09:54:43.894Z</time></trkpt><trkpt lat="42.9989733" lon="13.3705917"><ele>408.0</ele><time>2026-03-22T09:54:44.894Z</time></trkpt><trkpt lat="42.9989" lon="13.3706367"><ele>404.0</ele><time>2026-03-22T09:54:45.894Z</time></trkpt><trkpt lat="42.9988167" lon="13.37068"><ele>400.0</ele><time>2026-03-22T09:54:46.894Z</time></trkpt><trkpt lat="42.9987067" lon="13.3707033"><ele>400.0</ele><time>2026-03-22T09:54:47.894Z</time></trkpt><trkpt lat="42.9985867" lon="13.3706983"><ele>400.0</ele><time>2026-03-22T09:54:48.894Z</time></trkpt><trkpt lat="42.9984567" lon="13.3706983"><ele>400.0</ele><time>2026-03-22T09:54:49.895Z</time></trkpt><trkpt lat="42.99832" lon="13.370675"><ele>400.0</ele><time>2026-03-22T09:54:50.895Z</time></trkpt><trkpt lat="42.998165" lon="13.3706567"><ele>399.75</ele><time>2026-03-22T09:54:51.895Z</time></trkpt><trkpt lat="42.9980033" lon="13.370645"><ele>399.5</ele><time>2026-03-22T09:54:52.895Z</time></trkpt><trkpt lat="42.9978567" lon="13.3706417"><ele>399.25</ele><time>2026-03-22T09:54:53.895Z</time></trkpt><trkpt lat="42.9977283" lon="13.37064"><ele>399.0</ele><time>2026-03-22T09:54:54.894Z</time></trkpt><trkpt lat="42.9976033" lon="13.370645"><ele>398.25</ele><time>2026-03-22T09:54:55.895Z</time></trkpt><trkpt lat="42.9975" lon="13.3706917"><ele>397.5</ele><time>2026-03-22T09:54:56.895Z</time></trkpt><trkpt lat="42.9974033" lon="13.3707917"><ele>396.75</ele><time>2026-03-22T09:54:57.895Z</time></trkpt><trkpt lat="42.9973083" lon="13.3709017"><ele>396.0</ele><time>2026-03-22T09:54:58.894Z</time></trkpt><trkpt lat="42.9972217" lon="13.371005"><ele>396.0</ele><time>2026-03-22T09:54:59.895Z</time></trkpt><trkpt lat="42.9971417" lon="13.3710983"><ele>396.0</ele><time>2026-03-22T09:55:00.895Z</time></trkpt><trkpt lat="42.9970583" lon="13.3711717"><ele>396.0</ele><time>2026-03-22T09:55:01.895Z</time></trkpt><trkpt lat="42.996975" lon="13.3712217"><ele>396.0</ele><time>2026-03-22T09:55:02.894Z</time></trkpt><trkpt lat="42.9968933" lon="13.37127"><ele>396.0</ele><time>2026-03-22T09:55:03.895Z</time></trkpt><trkpt lat="42.99681" lon="13.37129"><ele>396.0</ele><time>2026-03-22T09:55:04.894Z</time></trkpt><trkpt lat="42.996725" lon="13.371295"><ele>396.0</ele><time>2026-03-22T09:55:05.895Z</time></trkpt><trkpt lat="42.9966317" lon="13.3712933"><ele>396.0</ele><time>2026-03-22T09:55:06.894Z</time></trkpt><trkpt lat="42.99654" lon="13.371245"><ele>396.0</ele><time>2026-03-22T09:55:07.895Z</time></trkpt><trkpt lat="42.9964567" lon="13.37115"><ele>396.0</ele><time>2026-03-22T09:55:08.895Z</time></trkpt><trkpt lat="42.9963533" lon="13.3710717"><ele>393.66666666666663</ele><time>2026-03-22T09:55:09.895Z</time></trkpt><trkpt lat="42.9962133" lon="13.3710083"><ele>391.3333333333333</ele><time>2026-03-22T09:55:10.895Z</time></trkpt><trkpt lat="42.996045" lon="13.3709583"><ele>389.0</ele><time>2026-03-22T09:55:11.895Z</time></trkpt><trkpt lat="42.99587" lon="13.3708833"><ele>384.3333333333333</ele><time>2026-03-22T09:55:12.894Z</time></trkpt><trkpt lat="42.9956917" lon="13.370805"><ele>379.66666666666663</ele><time>2026-03-22T09:55:13.895Z</time></trkpt><trkpt lat="42.9955133" lon="13.3707333"><ele>375.0</ele><time>2026-03-22T09:55:14.895Z</time></trkpt><trkpt lat="42.995355" lon="13.3706867"><ele>375.0</ele><time>2026-03-22T09:55:15.895Z</time></trkpt><trkpt lat="42.9951917" lon="13.37063"><ele>375.0</ele><time>2026-03-22T09:55:16.895Z</time></trkpt><trkpt lat="42.9950283" lon="13.370585"><ele>375.0</ele><time>2026-03-22T09:55:17.894Z</time></trkpt><trkpt lat="42.9948683" lon="13.3705433"><ele>376.0</ele><time>2026-03-22T09:55:18.895Z</time></trkpt><trkpt lat="42.9947033" lon="13.370515"><ele>377.0</ele><time>2026-03-22T09:55:19.894Z</time></trkpt><trkpt lat="42.994525" lon="13.3705033"><ele>378.0</ele><time>2026-03-22T09:55:20.894Z</time></trkpt><trkpt lat="42.99434" lon="13.37052"><ele>375.3333333333333</ele><time>2026-03-22T09:55:21.894Z</time></trkpt><trkpt lat="42.9941433" lon="13.3705333"><ele>372.66666666666663</ele><time>2026-03-22T09:55:22.894Z</time></trkpt><trkpt lat="42.9939417" lon="13.3705517"><ele>370.0</ele><time>2026-03-22T09:55:23.895Z</time></trkpt><trkpt lat="42.9937367" lon="13.3705567"><ele>370.0</ele><time>2026-03-22T09:55:24.895Z</time></trkpt><trkpt lat="42.99352" lon="13.37056"><ele>370.0</ele><time>2026-03-22T09:55:25.895Z</time></trkpt><trkpt lat="42.9933017" lon="13.370565"><ele>370.0</ele><time>2026-03-22T09:55:26.894Z</time></trkpt><trkpt lat="42.99306" lon="13.37057"><ele>370.0</ele><time>2026-03-22T09:55:27.895Z</time></trkpt><trkpt lat="42.99282" lon="13.3705783"><ele>370.0</ele><time>2026-03-22T09:55:28.894Z</time></trkpt><trkpt lat="42.992595" lon="13.3706217"><ele>370.66666666666663</ele><time>2026-03-22T09:55:29.895Z</time></trkpt><trkpt lat="42.9923733" lon="13.3706583"><ele>371.3333333333333</ele><time>2026-03-22T09:55:30.895Z</time></trkpt><trkpt lat="42.9921633" lon="13.37071"><ele>372.0</ele><time>2026-03-22T09:55:31.895Z</time></trkpt><trkpt lat="42.9919667" lon="13.3707583"><ele>372.0</ele><time>2026-03-22T09:55:32.894Z</time></trkpt><trkpt lat="42.9917767" lon="13.3707917"><ele>372.0</ele><time>2026-03-22T09:55:33.895Z</time></trkpt><trkpt lat="42.9915883" lon="13.3708033"><ele>372.0</ele><time>2026-03-22T09:55:34.895Z</time></trkpt><trkpt lat="42.9913983" lon="13.3707833"><ele>373.6666666666667</ele><time>2026-03-22T09:55:35.894Z</time></trkpt><trkpt lat="42.9912033" lon="13.3707733"><ele>375.33333333333337</ele><time>2026-03-22T09:55:36.895Z</time></trkpt><trkpt lat="42.9910033" lon="13.3707617"><ele>377.0</ele><time>2026-03-22T09:55:37.895Z</time></trkpt><trkpt lat="42.9907983" lon="13.3707483"><ele>377.0</ele><time>2026-03-22T09:55:38.894Z</time></trkpt><trkpt lat="42.9906017" lon="13.37075"><ele>377.0</ele><time>2026-03-22T09:55:39.895Z</time></trkpt><trkpt lat="42.99041" lon="13.370755"><ele>377.0</ele><time>2026-03-22T09:55:40.895Z</time></trkpt><trkpt lat="42.99022" lon="13.3707417"><ele>377.33333333333337</ele><time>2026-03-22T09:55:41.895Z</time></trkpt><trkpt lat="42.9900083" lon="13.3706733"><ele>377.6666666666667</ele><time>2026-03-22T09:55:42.895Z</time></trkpt><trkpt lat="42.9898017" lon="13.3705867"><ele>378.0</ele><time>2026-03-22T09:55:43.894Z</time></trkpt><trkpt lat="42.9896017" lon="13.3705117"><ele>377.3333333333333</ele><time>2026-03-22T09:55:44.894Z</time></trkpt><trkpt lat="42.9894" lon="13.3704233"><ele>376.66666666666663</ele><time>2026-03-22T09:55:45.895Z</time></trkpt><trkpt lat="42.9892083" lon="13.37032"><ele>376.0</ele><time>2026-03-22T09:55:46.894Z</time></trkpt><trkpt lat="42.989025" lon="13.37021"><ele>376.0</ele><time>2026-03-22T09:55:47.895Z</time></trkpt><trkpt lat="42.9888517" lon="13.37009"><ele>376.0</ele><time>2026-03-22T09:55:48.895Z</time></trkpt><trkpt lat="42.988655" lon="13.3699717"><ele>376.0</ele><time>2026-03-22T09:55:49.895Z</time></trkpt><trkpt lat="42.9884683" lon="13.3698467"><ele>376.0</ele><time>2026-03-22T09:55:50.895Z</time></trkpt><trkpt lat="42.9882783" lon="13.369715"><ele>376.0</ele><time>2026-03-22T09:55:51.894Z</time></trkpt><trkpt lat="42.9880917" lon="13.3695867"><ele>376.0</ele><time>2026-03-22T09:55:52.895Z</time></trkpt><trkpt lat="42.9878983" lon="13.3694483"><ele>377.3333333333333</ele><time>2026-03-22T09:55:53.895Z</time></trkpt><trkpt lat="42.98771" lon="13.36932"><ele>378.6666666666667</ele><time>2026-03-22T09:55:54.894Z</time></trkpt><trkpt lat="42.987525" lon="13.369205"><ele>380.0</ele><time>2026-03-22T09:55:55.894Z</time></trkpt><trkpt lat="42.9873433" lon="13.3690583"><ele>380.0</ele><time>2026-03-22T09:55:56.895Z</time></trkpt><trkpt lat="42.98717" lon="13.3689133"><ele>380.0</ele><time>2026-03-22T09:55:57.895Z</time></trkpt><trkpt lat="42.9869917" lon="13.3688083"><ele>380.0</ele><time>2026-03-22T09:55:58.894Z</time></trkpt><trkpt lat="42.9868133" lon="13.3686983"><ele>381.33333333333337</ele><time>2026-03-22T09:55:59.894Z</time></trkpt><trkpt lat="42.986625" lon="13.3686033"><ele>382.6666666666667</ele><time>2026-03-22T09:56:00.895Z</time></trkpt><trkpt lat="42.986425" lon="13.3684967"><ele>384.0</ele><time>2026-03-22T09:56:01.894Z</time></trkpt><trkpt lat="42.98624" lon="13.3683683"><ele>384.0</ele><time>2026-03-22T09:56:02.894Z</time></trkpt><trkpt lat="42.9860717" lon="13.36823"><ele>384.0</ele><time>2026-03-22T09:56:03.895Z</time></trkpt><trkpt lat="42.9859067" lon="13.36809"><ele>384.0</ele><time>2026-03-22T09:56:04.895Z</time></trkpt><trkpt lat="42.9857483" lon="13.3679433"><ele>386.33333333333337</ele><time>2026-03-22T09:56:05.894Z</time></trkpt><trkpt lat="42.9856133" lon="13.3677983"><ele>388.6666666666667</ele><time>2026-03-22T09:56:06.895Z</time></trkpt><trkpt lat="42.9854783" lon="13.3676817"><ele>391.0</ele><time>2026-03-22T09:56:07.894Z</time></trkpt><trkpt lat="42.9853483" lon="13.3675933"><ele>391.0</ele><time>2026-03-22T09:56:08.895Z</time></trkpt><trkpt lat="42.9852333" lon="13.36754"><ele>391.0</ele><time>2026-03-22T09:56:09.895Z</time></trkpt><trkpt lat="42.9851267" lon="13.36754"><ele>391.0</ele><time>2026-03-22T09:56:10.895Z</time></trkpt><trkpt lat="42.9850533" lon="13.3675167"><ele>391.0</ele><time>2026-03-22T09:56:11.894Z</time></trkpt><trkpt lat="42.9849933" lon="13.367485"><ele>391.0</ele><time>2026-03-22T09:56:12.895Z</time></trkpt><trkpt lat="42.98498" lon="13.3673583"><ele>391.0</ele><time>2026-03-22T09:56:14.895Z</time></trkpt><trkpt lat="42.9850383" lon="13.3673"><ele>391.0</ele><time>2026-03-22T09:56:15.895Z</time></trkpt><trkpt lat="42.985145" lon="13.36725"><ele>391.0</ele><time>2026-03-22T09:56:16.894Z</time></trkpt><trkpt lat="42.9852433" lon="13.3671967"><ele>391.0</ele><time>2026-03-22T09:56:17.895Z</time></trkpt><trkpt lat="42.9853183" lon="13.3671233"><ele>391.0</ele><time>2026-03-22T09:56:18.895Z</time></trkpt><trkpt lat="42.9853683" lon="13.3670317"><ele>392.0</ele><time>2026-03-22T09:56:19.895Z</time></trkpt><trkpt lat="42.9853817" lon="13.3669"><ele>393.0</ele><time>2026-03-22T09:56:21.895Z</time></trkpt><trkpt lat="42.9852883" lon="13.366845"><ele>394.0</ele><time>2026-03-22T09:56:23.895Z</time></trkpt><trkpt lat="42.9851983" lon="13.3668567"><ele>395.0</ele><time>2026-03-22T09:56:24.895Z</time></trkpt><trkpt lat="42.98509" lon="13.3668717"><ele>396.0</ele><time>2026-03-22T09:56:25.895Z</time></trkpt><trkpt lat="42.9849683" lon="13.366875"><ele>398.4</ele><time>2026-03-22T09:56:26.895Z</time></trkpt><trkpt lat="42.9848583" lon="13.3668467"><ele>400.8</ele><time>2026-03-22T09:56:27.895Z</time></trkpt><trkpt lat="42.984755" lon="13.3667833"><ele>403.2</ele><time>2026-03-22T09:56:28.895Z</time></trkpt><trkpt lat="42.9846833" lon="13.3666967"><ele>405.59999999999997</ele><time>2026-03-22T09:56:29.895Z</time></trkpt><trkpt lat="42.9846367" lon="13.3665817"><ele>408.0</ele><time>2026-03-22T09:56:30.894Z</time></trkpt><trkpt lat="42.984605" lon="13.3664533"><ele>408.0</ele><time>2026-03-22T09:56:31.894Z</time></trkpt><trkpt lat="42.9845617" lon="13.3663667"><ele>408.0</ele><time>2026-03-22T09:56:32.894Z</time></trkpt><trkpt lat="42.9844517" lon="13.3662933"><ele>408.0</ele><time>2026-03-22T09:56:34.895Z</time></trkpt><trkpt lat="42.984325" lon="13.3663567"><ele>408.0</ele><time>2026-03-22T09:56:36.894Z</time></trkpt><trkpt lat="42.9842633" lon="13.3663817"><ele>408.0</ele><time>2026-03-22T09:56:37.895Z</time></trkpt><trkpt lat="42.98416" lon="13.36639"><ele>412.0</ele><time>2026-03-22T09:56:39.894Z</time></trkpt><trkpt lat="42.984115" lon="13.366295"><ele>416.0</ele><time>2026-03-22T09:56:42.895Z</time></trkpt><trkpt lat="42.9841133" lon="13.3661983"><ele>420.0</ele><time>2026-03-22T09:56:44.894Z</time></trkpt><trkpt lat="42.9840567" lon="13.36605"><ele>424.0</ele><time>2026-03-22T09:56:46.894Z</time></trkpt><trkpt lat="42.9840033" lon="13.3659683"><ele>428.0</ele><time>2026-03-22T09:56:47.895Z</time></trkpt><trkpt lat="42.9839233" lon="13.36591"><ele>432.0</ele><time>2026-03-22T09:56:48.895Z</time></trkpt><trkpt lat="42.983835" lon="13.3658667"><ele>432.0</ele><time>2026-03-22T09:56:49.894Z</time></trkpt><trkpt lat="42.983745" lon="13.36582"><ele>432.00000000000006</ele><time>2026-03-22T09:56:50.895Z</time></trkpt><trkpt lat="42.9836683" lon="13.3657317"><ele>432.00000000000006</ele><time>2026-03-22T09:56:51.895Z</time></trkpt><trkpt lat="42.983615" lon="13.3655967"><ele>432.0</ele><time>2026-03-22T09:56:52.895Z</time></trkpt><trkpt lat="42.9835667" lon="13.3654683"><ele>432.0</ele><time>2026-03-22T09:56:53.894Z</time></trkpt><trkpt lat="42.9835067" lon="13.3653517"><ele>430.25</ele><time>2026-03-22T09:56:54.894Z</time></trkpt><trkpt lat="42.9834167" lon="13.3652633"><ele>428.5</ele><time>2026-03-22T09:56:55.894Z</time></trkpt><trkpt lat="42.9833117" lon="13.3651883"><ele>426.75</ele><time>2026-03-22T09:56:56.895Z</time></trkpt><trkpt lat="42.9831517" lon="13.3651567"><ele>425.0</ele><time>2026-03-22T09:56:57.895Z</time></trkpt><trkpt lat="42.9830133" lon="13.3650983"><ele>434.0</ele><time>2026-03-22T09:56:58.894Z</time></trkpt><trkpt lat="42.9828733" lon="13.3650467"><ele>443.0</ele><time>2026-03-22T09:56:59.894Z</time></trkpt><trkpt lat="42.982715" lon="13.364985"><ele>452.0</ele><time>2026-03-22T09:57:00.895Z</time></trkpt><trkpt lat="42.9825517" lon="13.36493"><ele>451.0</ele><time>2026-03-22T09:57:01.895Z</time></trkpt><trkpt lat="42.9823767" lon="13.364865"><ele>450.0</ele><time>2026-03-22T09:57:02.894Z</time></trkpt><trkpt lat="42.9821817" lon="13.36479"><ele>449.0</ele><time>2026-03-22T09:57:03.895Z</time></trkpt><trkpt lat="42.98201" lon="13.3647083"><ele>458.0</ele><time>2026-03-22T09:57:04.895Z</time></trkpt><trkpt lat="42.9818333" lon="13.364625"><ele>467.0</ele><time>2026-03-22T09:57:05.895Z</time></trkpt><trkpt lat="42.98168" lon="13.364475"><ele>476.0</ele><time>2026-03-22T09:57:06.895Z</time></trkpt><trkpt lat="42.98151" lon="13.36435"><ele>476.0</ele><time>2026-03-22T09:57:07.894Z</time></trkpt><trkpt lat="42.9813633" lon="13.36419"><ele>476.0</ele><time>2026-03-22T09:57:08.895Z</time></trkpt><trkpt lat="42.9812283" lon="13.3640283"><ele>476.0</ele><time>2026-03-22T09:57:09.895Z</time></trkpt><trkpt lat="42.9811017" lon="13.3638717"><ele>474.25</ele><time>2026-03-22T09:57:10.894Z</time></trkpt><trkpt lat="42.9809933" lon="13.3637267"><ele>472.5</ele><time>2026-03-22T09:57:11.895Z</time></trkpt><trkpt lat="42.9808933" lon="13.363565"><ele>470.75</ele><time>2026-03-22T09:57:12.895Z</time></trkpt><trkpt lat="42.9808217" lon="13.3634033"><ele>469.0</ele><time>2026-03-22T09:57:13.894Z</time></trkpt><trkpt lat="42.9808" lon="13.3632317"><ele>469.0</ele><time>2026-03-22T09:57:14.894Z</time></trkpt><trkpt lat="42.9807833" lon="13.3630417"><ele>469.0</ele><time>2026-03-22T09:57:15.894Z</time></trkpt><trkpt lat="42.9807567" lon="13.362865"><ele>469.0</ele><time>2026-03-22T09:57:16.894Z</time></trkpt><trkpt lat="42.9806983" lon="13.362675"><ele>469.0</ele><time>2026-03-22T09:57:17.895Z</time></trkpt><trkpt lat="42.9806167" lon="13.3625133"><ele>476.33333333333337</ele><time>2026-03-22T09:57:18.895Z</time></trkpt><trkpt lat="42.9805233" lon="13.3623483"><ele>483.66666666666663</ele><time>2026-03-22T09:57:19.895Z</time></trkpt><trkpt lat="42.980435" lon="13.3621833"><ele>491.0</ele><time>2026-03-22T09:57:20.895Z</time></trkpt><trkpt lat="42.98041" lon="13.36195"><ele>496.0</ele><time>2026-03-22T09:57:21.894Z</time></trkpt><trkpt lat="42.9803783" lon="13.3617417"><ele>501.0</ele><time>2026-03-22T09:57:22.894Z</time></trkpt><trkpt lat="42.9803133" lon="13.3615583"><ele>506.0</ele><time>2026-03-22T09:57:23.895Z</time></trkpt><trkpt lat="42.9802" lon="13.36139"><ele>504.0</ele><time>2026-03-22T09:57:24.894Z</time></trkpt><trkpt lat="42.980085" lon="13.3612533"><ele>502.0</ele><time>2026-03-22T09:57:25.894Z</time></trkpt><trkpt lat="42.9799517" lon="13.3611183"><ele>500.0</ele><time>2026-03-22T09:57:26.895Z</time></trkpt><trkpt lat="42.9798233" lon="13.360975"><ele>500.0</ele><time>2026-03-22T09:57:27.894Z</time></trkpt><trkpt lat="42.9796733" lon="13.3608517"><ele>500.0</ele><time>2026-03-22T09:57:28.895Z</time></trkpt><trkpt lat="42.9795433" lon="13.3607267"><ele>500.0</ele><time>2026-03-22T09:57:29.894Z</time></trkpt><trkpt lat="42.979495" lon="13.3605817"><ele>502.75</ele><time>2026-03-22T09:57:30.894Z</time></trkpt><trkpt lat="42.979485" lon="13.360415"><ele>505.5</ele><time>2026-03-22T09:57:31.894Z</time></trkpt><trkpt lat="42.9795267" lon="13.3602183"><ele>508.25</ele><time>2026-03-22T09:57:32.895Z</time></trkpt><trkpt lat="42.9795767" lon="13.359995"><ele>511.0</ele><time>2026-03-22T09:57:33.894Z</time></trkpt><trkpt lat="42.9796133" lon="13.35976"><ele>514.0</ele><time>2026-03-22T09:57:34.895Z</time></trkpt><trkpt lat="42.9796233" lon="13.35953"><ele>517.0</ele><time>2026-03-22T09:57:35.895Z</time></trkpt><trkpt lat="42.979615" lon="13.3593067"><ele>520.0</ele><time>2026-03-22T09:57:36.895Z</time></trkpt><trkpt lat="42.9795817" lon="13.3590983"><ele>520.0</ele><time>2026-03-22T09:57:37.895Z</time></trkpt><trkpt lat="42.9795217" lon="13.3588983"><ele>520.0</ele><time>2026-03-22T09:57:38.895Z</time></trkpt><trkpt lat="42.97942" lon="13.35874"><ele>520.0</ele><time>2026-03-22T09:57:39.895Z</time></trkpt><trkpt lat="42.9793317" lon="13.3585783"><ele>521.3333333333334</ele><time>2026-03-22T09:57:40.895Z</time></trkpt><trkpt lat="42.97926" lon="13.358395"><ele>522.6666666666666</ele><time>2026-03-22T09:57:41.894Z</time></trkpt><trkpt lat="42.97924" lon="13.358185"><ele>524.0</ele><time>2026-03-22T09:57:42.895Z</time></trkpt><trkpt lat="42.9792233" lon="13.35795"><ele>524.25</ele><time>2026-03-22T09:57:43.895Z</time></trkpt><trkpt lat="42.9791967" lon="13.357735"><ele>524.5</ele><time>2026-03-22T09:57:44.894Z</time></trkpt><trkpt lat="42.979185" lon="13.357525"><ele>524.75</ele><time>2026-03-22T09:57:45.895Z</time></trkpt><trkpt lat="42.9791817" lon="13.3573417"><ele>525.0</ele><time>2026-03-22T09:57:46.895Z</time></trkpt><trkpt lat="42.9792017" lon="13.3571833"><ele>519.75</ele><time>2026-03-22T09:57:47.895Z</time></trkpt><trkpt lat="42.97925" lon="13.357075"><ele>514.5</ele><time>2026-03-22T09:57:48.894Z</time></trkpt><trkpt lat="42.9793467" lon="13.3569633"><ele>509.25</ele><time>2026-03-22T09:57:49.894Z</time></trkpt><trkpt lat="42.9794383" lon="13.3568417"><ele>504.0</ele><time>2026-03-22T09:57:50.895Z</time></trkpt><trkpt lat="42.979545" lon="13.3567033"><ele>504.0</ele><time>2026-03-22T09:57:51.895Z</time></trkpt><trkpt lat="42.9796583" lon="13.3566"><ele>504.0</ele><time>2026-03-22T09:57:52.895Z</time></trkpt><trkpt lat="42.9797617" lon="13.356495"><ele>504.0</ele><time>2026-03-22T09:57:53.895Z</time></trkpt><trkpt lat="42.9798583" lon="13.3563883"><ele>504.0</ele><time>2026-03-22T09:57:54.895Z</time></trkpt><trkpt lat="42.979945" lon="13.356295"><ele>503.5</ele><time>2026-03-22T09:57:55.895Z</time></trkpt><trkpt lat="42.9800017" lon="13.3562217"><ele>503.0</ele><time>2026-03-22T09:57:56.895Z</time></trkpt><trkpt lat="42.9800667" lon="13.3560967"><ele>502.5</ele><time>2026-03-22T09:57:58.895Z</time></trkpt><trkpt lat="42.9800933" lon="13.3560133"><ele>502.0</ele><time>2026-03-22T09:58:00.894Z</time></trkpt><trkpt lat="42.9800467" lon="13.355925"><ele>501.5</ele><time>2026-03-22T09:58:08.894Z</time></trkpt><trkpt lat="42.979995" lon="13.3558283"><ele>501.0</ele><time>2026-03-22T09:58:10.894Z</time></trkpt><trkpt lat="42.9798867" lon="13.3557383"><ele>500.6666666666667</ele><time>2026-03-22T09:58:12.895Z</time></trkpt><trkpt lat="42.9797717" lon="13.3557067"><ele>500.33333333333337</ele><time>2026-03-22T09:58:14.894Z</time></trkpt><trkpt lat="42.9796617" lon="13.355705"><ele>500.0</ele><time>2026-03-22T09:58:16.895Z</time></trkpt><trkpt lat="42.9795983" lon="13.355705"><ele>499.6666666666667</ele><time>2026-03-22T09:58:17.895Z</time></trkpt><trkpt lat="42.9795133" lon="13.3556883"><ele>499.33333333333337</ele><time>2026-03-22T09:58:18.894Z</time></trkpt><trkpt lat="42.9794417" lon="13.35567"><ele>499.0</ele><time>2026-03-22T09:58:19.894Z</time></trkpt><trkpt lat="42.9793617" lon="13.3556533"><ele>499.0</ele><time>2026-03-22T09:58:20.894Z</time></trkpt><trkpt lat="42.97928" lon="13.3556567"><ele>499.0</ele><time>2026-03-22T09:58:21.895Z</time></trkpt><trkpt lat="42.9791867" lon="13.3556433"><ele>499.0</ele><time>2026-03-22T09:58:22.895Z</time></trkpt><trkpt lat="42.9790867" lon="13.3556133"><ele>499.0</ele><time>2026-03-22T09:58:23.895Z</time></trkpt><trkpt lat="42.9789817" lon="13.3555767"><ele>499.0</ele><time>2026-03-22T09:58:24.894Z</time></trkpt><trkpt lat="42.9788867" lon="13.35552"><ele>500.2</ele><time>2026-03-22T09:58:25.894Z</time></trkpt><trkpt lat="42.9788183" lon="13.3554367"><ele>501.4</ele><time>2026-03-22T09:58:26.895Z</time></trkpt><trkpt lat="42.978745" lon="13.355345"><ele>502.6</ele><time>2026-03-22T09:58:27.894Z</time></trkpt><trkpt lat="42.9787067" lon="13.3552367"><ele>503.8</ele><time>2026-03-22T09:58:28.894Z</time></trkpt><trkpt lat="42.9786633" lon="13.3551133"><ele>505.0</ele><time>2026-03-22T09:58:29.895Z</time></trkpt><trkpt lat="42.97867" lon="13.3549183"><ele>505.0</ele><time>2026-03-22T09:58:30.895Z</time></trkpt><trkpt lat="42.9786817" lon="13.3547233"><ele>505.0</ele><time>2026-03-22T09:58:31.894Z</time></trkpt><trkpt lat="42.9786817" lon="13.3545583"><ele>505.0</ele><time>2026-03-22T09:58:32.894Z</time></trkpt><trkpt lat="42.97868" lon="13.35443"><ele>505.0</ele><time>2026-03-22T09:58:33.895Z</time></trkpt><trkpt lat="42.9786817" lon="13.35433"><ele>505.0</ele><time>2026-03-22T09:58:34.895Z</time></trkpt><trkpt lat="42.978665" lon="13.354185"><ele>504.6</ele><time>2026-03-22T09:58:36.895Z</time></trkpt><trkpt lat="42.9786433" lon="13.3540333"><ele>504.2</ele><time>2026-03-22T09:58:38.895Z</time></trkpt><trkpt lat="42.9786233" lon="13.3539267"><ele>503.79999999999995</ele><time>2026-03-22T09:58:39.895Z</time></trkpt><trkpt lat="42.9786133" lon="13.35381"><ele>503.4</ele><time>2026-03-22T09:58:40.895Z</time></trkpt><trkpt lat="42.9785733" lon="13.3536983"><ele>503.0</ele><time>2026-03-22T09:58:41.895Z</time></trkpt><trkpt lat="42.978545" lon="13.353585"><ele>502.2</ele><time>2026-03-22T09:58:42.895Z</time></trkpt><trkpt lat="42.9784867" lon="13.3534683"><ele>501.4</ele><time>2026-03-22T09:58:43.895Z</time></trkpt><trkpt lat="42.978445" lon="13.3533667"><ele>500.59999999999997</ele><time>2026-03-22T09:58:44.895Z</time></trkpt><trkpt lat="42.9783817" lon="13.3532533"><ele>499.79999999999995</ele><time>2026-03-22T09:58:45.894Z</time></trkpt><trkpt lat="42.9783117" lon="13.3531383"><ele>499.0</ele><time>2026-03-22T09:58:46.894Z</time></trkpt><trkpt lat="42.97824" lon="13.3530117"><ele>496.6</ele><time>2026-03-22T09:58:47.895Z</time></trkpt><trkpt lat="42.978175" lon="13.35289"><ele>494.2</ele><time>2026-03-22T09:58:48.895Z</time></trkpt><trkpt lat="42.9781267" lon="13.3527633"><ele>491.80000000000007</ele><time>2026-03-22T09:58:49.895Z</time></trkpt><trkpt lat="42.9780617" lon="13.352645"><ele>489.40000000000003</ele><time>2026-03-22T09:58:50.894Z</time></trkpt><trkpt lat="42.9779967" lon="13.3525283"><ele>487.0</ele><time>2026-03-22T09:58:51.894Z</time></trkpt><trkpt lat="42.9779217" lon="13.3524083"><ele>487.0</ele><time>2026-03-22T09:58:52.895Z</time></trkpt><trkpt lat="42.9778417" lon="13.3522933"><ele>487.0</ele><time>2026-03-22T09:58:53.894Z</time></trkpt><trkpt lat="42.977765" lon="13.3521767"><ele>487.0</ele><time>2026-03-22T09:58:54.894Z</time></trkpt><trkpt lat="42.9776967" lon="13.3520483"><ele>487.0</ele><time>2026-03-22T09:58:55.894Z</time></trkpt><trkpt lat="42.9776317" lon="13.3519283"><ele>485.0</ele><time>2026-03-22T09:58:56.895Z</time></trkpt><trkpt lat="42.977565" lon="13.35182"><ele>483.00000000000006</ele><time>2026-03-22T09:58:57.895Z</time></trkpt><trkpt lat="42.9774917" lon="13.3517183"><ele>481.00000000000006</ele><time>2026-03-22T09:58:58.895Z</time></trkpt><trkpt lat="42.9774033" lon="13.3516033"><ele>479.0</ele><time>2026-03-22T09:58:59.895Z</time></trkpt><trkpt lat="42.9773133" lon="13.3515033"><ele>477.0</ele><time>2026-03-22T09:59:00.895Z</time></trkpt><trkpt lat="42.97722" lon="13.3514033"><ele>479.0</ele><time>2026-03-22T09:59:01.894Z</time></trkpt><trkpt lat="42.9771233" lon="13.351315"><ele>481.00000000000006</ele><time>2026-03-22T09:59:02.894Z</time></trkpt><trkpt lat="42.9770317" lon="13.3512367"><ele>483.00000000000006</ele><time>2026-03-22T09:59:03.895Z</time></trkpt><trkpt lat="42.9769367" lon="13.3511817"><ele>485.0</ele><time>2026-03-22T09:59:04.895Z</time></trkpt><trkpt lat="42.9768483" lon="13.3511183"><ele>487.0</ele><time>2026-03-22T09:59:05.894Z</time></trkpt><trkpt lat="42.9767583" lon="13.3510883"><ele>484.6666666666667</ele><time>2026-03-22T09:59:06.894Z</time></trkpt><trkpt lat="42.9766733" lon="13.351045"><ele>482.33333333333337</ele><time>2026-03-22T09:59:07.895Z</time></trkpt><trkpt lat="42.9766117" lon="13.3509983"><ele>480.0</ele><time>2026-03-22T09:59:08.895Z</time></trkpt><trkpt lat="42.97655" lon="13.3509683"><ele>477.66666666666663</ele><time>2026-03-22T09:59:09.895Z</time></trkpt><trkpt lat="42.9764817" lon="13.35093"><ele>475.3333333333333</ele><time>2026-03-22T09:59:10.894Z</time></trkpt><trkpt lat="42.9764167" lon="13.3509017"><ele>473.0</ele><time>2026-03-22T09:59:11.894Z</time></trkpt><trkpt lat="42.9763117" lon="13.3508317"><ele>473.0</ele><time>2026-03-22T09:59:13.893Z</time></trkpt><trkpt lat="42.976245" lon="13.3507783"><ele>472.99999999999994</ele><time>2026-03-22T09:59:15.894Z</time></trkpt><trkpt lat="42.97618" lon="13.3506917"><ele>472.99999999999994</ele><time>2026-03-22T09:59:17.894Z</time></trkpt><trkpt lat="42.9761233" lon="13.3505867"><ele>473.0</ele><time>2026-03-22T09:59:19.894Z</time></trkpt><trkpt lat="42.9760417" lon="13.3504483"><ele>473.0</ele><time>2026-03-22T09:59:21.893Z</time></trkpt><trkpt lat="42.975995" lon="13.3503667"><ele>472.5</ele><time>2026-03-22T09:59:22.894Z</time></trkpt><trkpt lat="42.97594" lon="13.3502617"><ele>472.0</ele><time>2026-03-22T09:59:23.893Z</time></trkpt><trkpt lat="42.975855" lon="13.3501367"><ele>471.5</ele><time>2026-03-22T09:59:24.894Z</time></trkpt><trkpt lat="42.975765" lon="13.3500133"><ele>471.0</ele><time>2026-03-22T09:59:25.893Z</time></trkpt><trkpt lat="42.975665" lon="13.34986"><ele>472.5</ele><time>2026-03-22T09:59:26.894Z</time></trkpt><trkpt lat="42.9755567" lon="13.3497083"><ele>474.0</ele><time>2026-03-22T09:59:27.894Z</time></trkpt><trkpt lat="42.975475" lon="13.3495683"><ele>475.5</ele><time>2026-03-22T09:59:28.893Z</time></trkpt><trkpt lat="42.9753967" lon="13.349425"><ele>477.0</ele><time>2026-03-22T09:59:29.894Z</time></trkpt><trkpt lat="42.9753217" lon="13.3492833"><ele>477.0</ele><time>2026-03-22T09:59:30.894Z</time></trkpt><trkpt lat="42.9752533" lon="13.349155"><ele>477.0</ele><time>2026-03-22T09:59:31.894Z</time></trkpt><trkpt lat="42.9751833" lon="13.3490217"><ele>477.0</ele><time>2026-03-22T09:59:32.894Z</time></trkpt><trkpt lat="42.9751267" lon="13.34889"><ele>477.0</ele><time>2026-03-22T09:59:33.894Z</time></trkpt><trkpt lat="42.9750633" lon="13.348735"><ele>478.25</ele><time>2026-03-22T09:59:34.893Z</time></trkpt><trkpt lat="42.9750033" lon="13.3485483"><ele>479.5</ele><time>2026-03-22T09:59:35.893Z</time></trkpt><trkpt lat="42.9749433" lon="13.34836"><ele>480.75</ele><time>2026-03-22T09:59:36.893Z</time></trkpt><trkpt lat="42.9748833" lon="13.3481733"><ele>482.0</ele><time>2026-03-22T09:59:37.894Z</time></trkpt><trkpt lat="42.9748167" lon="13.34801"><ele>482.0</ele><time>2026-03-22T09:59:38.894Z</time></trkpt><trkpt lat="42.9747417" lon="13.3478483"><ele>482.0</ele><time>2026-03-22T09:59:39.894Z</time></trkpt><trkpt lat="42.97467" lon="13.347695"><ele>482.0</ele><time>2026-03-22T09:59:40.894Z</time></trkpt><trkpt lat="42.9745783" lon="13.347545"><ele>482.0</ele><time>2026-03-22T09:59:41.894Z</time></trkpt><trkpt lat="42.9744867" lon="13.3473967"><ele>482.0</ele><time>2026-03-22T09:59:42.894Z</time></trkpt><trkpt lat="42.9743983" lon="13.3472333"><ele>482.0</ele><time>2026-03-22T09:59:43.893Z</time></trkpt><trkpt lat="42.9743117" lon="13.347055"><ele>482.0</ele><time>2026-03-22T09:59:44.894Z</time></trkpt><trkpt lat="42.974215" lon="13.3468633"><ele>481.3333333333333</ele><time>2026-03-22T09:59:45.894Z</time></trkpt><trkpt lat="42.9741167" lon="13.346675"><ele>480.66666666666663</ele><time>2026-03-22T09:59:46.894Z</time></trkpt><trkpt lat="42.9740417" lon="13.3464617"><ele>480.0</ele><time>2026-03-22T09:59:47.893Z</time></trkpt><trkpt lat="42.97395" lon="13.3462533"><ele>482.33333333333337</ele><time>2026-03-22T09:59:48.893Z</time></trkpt><trkpt lat="42.9738417" lon="13.346055"><ele>484.6666666666667</ele><time>2026-03-22T09:59:49.893Z</time></trkpt><trkpt lat="42.9737317" lon="13.34585"><ele>487.0</ele><time>2026-03-22T09:59:50.894Z</time></trkpt><trkpt lat="42.9735917" lon="13.3456783"><ele>485.33333333333337</ele><time>2026-03-22T09:59:51.894Z</time></trkpt><trkpt lat="42.97349" lon="13.345515"><ele>483.66666666666663</ele><time>2026-03-22T09:59:52.893Z</time></trkpt><trkpt lat="42.9733317" lon="13.3453967"><ele>482.0</ele><time>2026-03-22T09:59:53.894Z</time></trkpt><trkpt lat="42.97319" lon="13.3452833"><ele>480.3333333333333</ele><time>2026-03-22T09:59:54.893Z</time></trkpt><trkpt lat="42.9730517" lon="13.3451717"><ele>478.66666666666663</ele><time>2026-03-22T09:59:55.894Z</time></trkpt><trkpt lat="42.9729183" lon="13.34507"><ele>477.0</ele><time>2026-03-22T09:59:56.894Z</time></trkpt><trkpt lat="42.9727683" lon="13.345"><ele>477.0</ele><time>2026-03-22T09:59:57.894Z</time></trkpt><trkpt lat="42.9726183" lon="13.3449867"><ele>477.0</ele><time>2026-03-22T09:59:58.894Z</time></trkpt><trkpt lat="42.9724633" lon="13.3450133"><ele>477.0</ele><time>2026-03-22T09:59:59.894Z</time></trkpt><trkpt lat="42.9722983" lon="13.345095"><ele>475.66666666666663</ele><time>2026-03-22T10:00:00.893Z</time></trkpt><trkpt lat="42.9721517" lon="13.3452067"><ele>474.3333333333333</ele><time>2026-03-22T10:00:01.894Z</time></trkpt><trkpt lat="42.9720233" lon="13.3453067"><ele>473.0</ele><time>2026-03-22T10:00:02.894Z</time></trkpt><trkpt lat="42.971885" lon="13.3453633"><ele>473.0</ele><time>2026-03-22T10:00:03.894Z</time></trkpt><trkpt lat="42.9717533" lon="13.3453683"><ele>473.0</ele><time>2026-03-22T10:00:04.894Z</time></trkpt><trkpt lat="42.9716033" lon="13.3453067"><ele>473.0</ele><time>2026-03-22T10:00:05.894Z</time></trkpt><trkpt lat="42.97145" lon="13.34525"><ele>473.0</ele><time>2026-03-22T10:00:06.894Z</time></trkpt><trkpt lat="42.9713133" lon="13.3451817"><ele>471.66666666666663</ele><time>2026-03-22T10:00:07.893Z</time></trkpt><trkpt lat="42.9711867" lon="13.3450617"><ele>470.33333333333337</ele><time>2026-03-22T10:00:08.894Z</time></trkpt><trkpt lat="42.971075" lon="13.3449383"><ele>469.0</ele><time>2026-03-22T10:00:09.893Z</time></trkpt><trkpt lat="42.9709767" lon="13.3447767"><ele>468.5</ele><time>2026-03-22T10:00:10.893Z</time></trkpt><trkpt lat="42.970865" lon="13.344665"><ele>468.0</ele><time>2026-03-22T10:00:11.894Z</time></trkpt><trkpt lat="42.9707667" lon="13.3445333"><ele>467.5</ele><time>2026-03-22T10:00:12.894Z</time></trkpt><trkpt lat="42.9706517" lon="13.344415"><ele>467.0</ele><time>2026-03-22T10:00:13.893Z</time></trkpt><trkpt lat="42.9705667" lon="13.344285"><ele>467.0</ele><time>2026-03-22T10:00:14.894Z</time></trkpt><trkpt lat="42.970445" lon="13.3441983"><ele>467.0</ele><time>2026-03-22T10:00:15.894Z</time></trkpt><trkpt lat="42.97029" lon="13.344135"><ele>467.0</ele><time>2026-03-22T10:00:16.894Z</time></trkpt><trkpt lat="42.97013" lon="13.3440917"><ele>463.66666666666663</ele><time>2026-03-22T10:00:17.894Z</time></trkpt><trkpt lat="42.969965" lon="13.3440783"><ele>460.33333333333337</ele><time>2026-03-22T10:00:18.894Z</time></trkpt><trkpt lat="42.9697683" lon="13.3440767"><ele>457.0</ele><time>2026-03-22T10:00:19.894Z</time></trkpt><trkpt lat="42.9695683" lon="13.3440783"><ele>457.0</ele><time>2026-03-22T10:00:20.893Z</time></trkpt><trkpt lat="42.969375" lon="13.344075"><ele>457.0</ele><time>2026-03-22T10:00:21.894Z</time></trkpt><trkpt lat="42.969155" lon="13.3440483"><ele>457.0</ele><time>2026-03-22T10:00:22.894Z</time></trkpt><trkpt lat="42.968975" lon="13.3440367"><ele>457.0</ele><time>2026-03-22T10:00:23.893Z</time></trkpt><trkpt lat="42.9687917" lon="13.3440183"><ele>457.0</ele><time>2026-03-22T10:00:24.894Z</time></trkpt><trkpt lat="42.96861" lon="13.344"><ele>457.0</ele><time>2026-03-22T10:00:25.894Z</time></trkpt><trkpt lat="42.9684267" lon="13.3439867"><ele>455.6666666666667</ele><time>2026-03-22T10:00:26.894Z</time></trkpt><trkpt lat="42.9682417" lon="13.3439667"><ele>454.33333333333337</ele><time>2026-03-22T10:00:27.893Z</time></trkpt><trkpt lat="42.9680383" lon="13.343955"><ele>453.0</ele><time>2026-03-22T10:00:28.894Z</time></trkpt><trkpt lat="42.9678467" lon="13.343955"><ele>453.0</ele><time>2026-03-22T10:00:29.894Z</time></trkpt><trkpt lat="42.9676417" lon="13.34396"><ele>453.0</ele><time>2026-03-22T10:00:30.894Z</time></trkpt><trkpt lat="42.96745" lon="13.343975"><ele>453.0</ele><time>2026-03-22T10:00:31.894Z</time></trkpt><trkpt lat="42.967265" lon="13.3439967"><ele>451.0</ele><time>2026-03-22T10:00:32.893Z</time></trkpt><trkpt lat="42.9670967" lon="13.344025"><ele>449.0</ele><time>2026-03-22T10:00:33.894Z</time></trkpt><trkpt lat="42.96693" lon="13.3441017"><ele>447.0</ele><time>2026-03-22T10:00:34.893Z</time></trkpt><trkpt lat="42.966785" lon="13.3442283"><ele>447.66666666666663</ele><time>2026-03-22T10:00:35.894Z</time></trkpt><trkpt lat="42.9666483" lon="13.34437"><ele>448.3333333333333</ele><time>2026-03-22T10:00:36.894Z</time></trkpt><trkpt lat="42.966515" lon="13.3445433"><ele>449.0</ele><time>2026-03-22T10:00:37.894Z</time></trkpt><trkpt lat="42.9664167" lon="13.34475"><ele>449.0</ele><time>2026-03-22T10:00:38.894Z</time></trkpt><trkpt lat="42.966295" lon="13.344935"><ele>449.0</ele><time>2026-03-22T10:00:39.893Z</time></trkpt><trkpt lat="42.966165" lon="13.3450867"><ele>449.0</ele><time>2026-03-22T10:00:40.894Z</time></trkpt><trkpt lat="42.9660283" lon="13.3452183"><ele>449.0</ele><time>2026-03-22T10:00:41.893Z</time></trkpt><trkpt lat="42.96588" lon="13.3453133"><ele>449.0</ele><time>2026-03-22T10:00:42.894Z</time></trkpt><trkpt lat="42.96574" lon="13.3453867"><ele>449.0</ele><time>2026-03-22T10:00:43.894Z</time></trkpt><trkpt lat="42.9656033" lon="13.3453967"><ele>451.66666666666663</ele><time>2026-03-22T10:00:44.894Z</time></trkpt><trkpt lat="42.9655183" lon="13.3452783"><ele>454.33333333333337</ele><time>2026-03-22T10:00:45.894Z</time></trkpt><trkpt lat="42.965435" lon="13.3451167"><ele>457.0</ele><time>2026-03-22T10:00:46.893Z</time></trkpt><trkpt lat="42.9654417" lon="13.3447883"><ele>458.0</ele><time>2026-03-22T10:00:47.894Z</time></trkpt><trkpt lat="42.9654183" lon="13.3445383"><ele>459.0</ele><time>2026-03-22T10:00:48.894Z</time></trkpt><trkpt lat="42.9653417" lon="13.3443233"><ele>460.0</ele><time>2026-03-22T10:00:49.893Z</time></trkpt><trkpt lat="42.9652067" lon="13.3441683"><ele>460.0</ele><time>2026-03-22T10:00:50.893Z</time></trkpt><trkpt lat="42.9650533" lon="13.3440567"><ele>460.0</ele><time>2026-03-22T10:00:51.893Z</time></trkpt><trkpt lat="42.9648783" lon="13.3439667"><ele>460.0</ele><time>2026-03-22T10:00:52.893Z</time></trkpt><trkpt lat="42.9646883" lon="13.3438767"><ele>465.0</ele><time>2026-03-22T10:00:53.893Z</time></trkpt><trkpt lat="42.9644917" lon="13.3438183"><ele>470.0</ele><time>2026-03-22T10:00:54.893Z</time></trkpt><trkpt lat="42.964295" lon="13.3437633"><ele>475.0</ele><time>2026-03-22T10:00:55.893Z</time></trkpt><trkpt lat="42.964105" lon="13.3437317"><ele>475.6666666666667</ele><time>2026-03-22T10:00:56.894Z</time></trkpt><trkpt lat="42.9639133" lon="13.343715"><ele>476.33333333333337</ele><time>2026-03-22T10:00:57.893Z</time></trkpt><trkpt lat="42.963715" lon="13.3437233"><ele>477.0</ele><time>2026-03-22T10:00:58.894Z</time></trkpt><trkpt lat="42.9635183" lon="13.3437733"><ele>477.33333333333337</ele><time>2026-03-22T10:00:59.894Z</time></trkpt><trkpt lat="42.9633233" lon="13.3438617"><ele>477.6666666666667</ele><time>2026-03-22T10:01:00.894Z</time></trkpt><trkpt lat="42.9631367" lon="13.343985"><ele>478.0</ele><time>2026-03-22T10:01:01.893Z</time></trkpt><trkpt lat="42.96295" lon="13.3441233"><ele>473.33333333333337</ele><time>2026-03-22T10:01:02.893Z</time></trkpt><trkpt lat="42.96277" lon="13.3442667"><ele>468.66666666666663</ele><time>2026-03-22T10:01:03.893Z</time></trkpt><trkpt lat="42.9626017" lon="13.3443917"><ele>464.0</ele><time>2026-03-22T10:01:04.893Z</time></trkpt><trkpt lat="42.9624267" lon="13.3444633"><ele>464.0</ele><time>2026-03-22T10:01:05.894Z</time></trkpt><trkpt lat="42.9622583" lon="13.3444667"><ele>464.0</ele><time>2026-03-22T10:01:06.893Z</time></trkpt><trkpt lat="42.9620883" lon="13.34442"><ele>464.0</ele><time>2026-03-22T10:01:07.893Z</time></trkpt><trkpt lat="42.96195" lon="13.3442917"><ele>464.0</ele><time>2026-03-22T10:01:08.893Z</time></trkpt><trkpt lat="42.961795" lon="13.3441517"><ele>464.0</ele><time>2026-03-22T10:01:09.894Z</time></trkpt><trkpt lat="42.9616467" lon="13.3440567"><ele>464.0</ele><time>2026-03-22T10:01:10.894Z</time></trkpt><trkpt lat="42.96149" lon="13.343995"><ele>463.66666666666663</ele><time>2026-03-22T10:01:11.894Z</time></trkpt><trkpt lat="42.9613233" lon="13.3439767"><ele>463.33333333333337</ele><time>2026-03-22T10:01:12.893Z</time></trkpt><trkpt lat="42.9611133" lon="13.344"><ele>463.0</ele><time>2026-03-22T10:01:13.894Z</time></trkpt><trkpt lat="42.96088" lon="13.34401"><ele>462.5</ele><time>2026-03-22T10:01:14.894Z</time></trkpt><trkpt lat="42.96064" lon="13.3440267"><ele>462.0</ele><time>2026-03-22T10:01:15.894Z</time></trkpt><trkpt lat="42.9603867" lon="13.3440583"><ele>462.0</ele><time>2026-03-22T10:01:16.894Z</time></trkpt><trkpt lat="42.9601433" lon="13.3440783"><ele>462.0</ele><time>2026-03-22T10:01:17.893Z</time></trkpt><trkpt lat="42.9599133" lon="13.3441033"><ele>464.0</ele><time>2026-03-22T10:01:18.894Z</time></trkpt><trkpt lat="42.959695" lon="13.34414"><ele>466.0</ele><time>2026-03-22T10:01:19.894Z</time></trkpt><trkpt lat="42.9594917" lon="13.3441683"><ele>468.0</ele><time>2026-03-22T10:01:20.893Z</time></trkpt><trkpt lat="42.9592883" lon="13.3441967"><ele>468.0</ele><time>2026-03-22T10:01:21.894Z</time></trkpt><trkpt lat="42.95909" lon="13.34421"><ele>468.0</ele><time>2026-03-22T10:01:22.894Z</time></trkpt><trkpt lat="42.9589133" lon="13.3441783"><ele>468.0</ele><time>2026-03-22T10:01:23.894Z</time></trkpt><trkpt lat="42.9587333" lon="13.3441267"><ele>468.0</ele><time>2026-03-22T10:01:24.894Z</time></trkpt><trkpt lat="42.95855" lon="13.3440517"><ele>468.0</ele><time>2026-03-22T10:01:25.893Z</time></trkpt><trkpt lat="42.9583967" lon="13.3439133"><ele>468.0</ele><time>2026-03-22T10:01:26.894Z</time></trkpt><trkpt lat="42.9582517" lon="13.34375"><ele>467.33333333333337</ele><time>2026-03-22T10:01:27.893Z</time></trkpt><trkpt lat="42.9581383" lon="13.3435333"><ele>466.6666666666667</ele><time>2026-03-22T10:01:28.894Z</time></trkpt><trkpt lat="42.9579633" lon="13.3433633"><ele>466.0</ele><time>2026-03-22T10:01:29.893Z</time></trkpt><trkpt lat="42.9577883" lon="13.3432117"><ele>466.0</ele><time>2026-03-22T10:01:30.893Z</time></trkpt><trkpt lat="42.9576233" lon="13.3430533"><ele>466.0</ele><time>2026-03-22T10:01:31.894Z</time></trkpt><trkpt lat="42.9574617" lon="13.3429217"><ele>466.0</ele><time>2026-03-22T10:01:32.893Z</time></trkpt><trkpt lat="42.95731" lon="13.3427883"><ele>469.6666666666667</ele><time>2026-03-22T10:01:33.894Z</time></trkpt><trkpt lat="42.95716" lon="13.34261"><ele>473.33333333333337</ele><time>2026-03-22T10:01:34.894Z</time></trkpt><trkpt lat="42.9570233" lon="13.342425"><ele>477.0</ele><time>2026-03-22T10:01:35.894Z</time></trkpt><trkpt lat="42.9569033" lon="13.3422067"><ele>482.0</ele><time>2026-03-22T10:01:36.893Z</time></trkpt><trkpt lat="42.95679" lon="13.3420133"><ele>487.0</ele><time>2026-03-22T10:01:37.894Z</time></trkpt><trkpt lat="42.95666" lon="13.3418317"><ele>492.0</ele><time>2026-03-22T10:01:38.893Z</time></trkpt><trkpt lat="42.9565317" lon="13.3416833"><ele>492.0</ele><time>2026-03-22T10:01:39.894Z</time></trkpt><trkpt lat="42.9564033" lon="13.3415767"><ele>492.0</ele><time>2026-03-22T10:01:40.893Z</time></trkpt><trkpt lat="42.9562617" lon="13.3415183"><ele>492.0</ele><time>2026-03-22T10:01:41.894Z</time></trkpt><trkpt lat="42.9560933" lon="13.3415267"><ele>492.0</ele><time>2026-03-22T10:01:42.894Z</time></trkpt><trkpt lat="42.955935" lon="13.34152"><ele>492.0</ele><time>2026-03-22T10:01:43.893Z</time></trkpt><trkpt lat="42.955785" lon="13.3415167"><ele>492.0</ele><time>2026-03-22T10:01:44.894Z</time></trkpt><trkpt lat="42.9556217" lon="13.3415433"><ele>490.0</ele><time>2026-03-22T10:01:45.894Z</time></trkpt><trkpt lat="42.9554983" lon="13.3415517"><ele>488.0</ele><time>2026-03-22T10:01:46.893Z</time></trkpt><trkpt lat="42.9553717" lon="13.34157"><ele>486.0</ele><time>2026-03-22T10:01:47.893Z</time></trkpt><trkpt lat="42.95528" lon="13.3416517"><ele>484.0</ele><time>2026-03-22T10:01:48.894Z</time></trkpt><trkpt lat="42.95521" lon="13.341755"><ele>484.0</ele><time>2026-03-22T10:01:49.894Z</time></trkpt><trkpt lat="42.9551767" lon="13.3419017"><ele>484.0</ele><time>2026-03-22T10:01:50.894Z</time></trkpt><trkpt lat="42.955175" lon="13.34206"><ele>484.0</ele><time>2026-03-22T10:01:51.894Z</time></trkpt><trkpt lat="42.9551533" lon="13.34219"><ele>484.0</ele><time>2026-03-22T10:01:52.893Z</time></trkpt><trkpt lat="42.9551267" lon="13.34228"><ele>484.0</ele><time>2026-03-22T10:01:53.894Z</time></trkpt><trkpt lat="42.955055" lon="13.3424017"><ele>483.4</ele><time>2026-03-22T10:01:55.893Z</time></trkpt><trkpt lat="42.9549783" lon="13.3423883"><ele>482.79999999999995</ele><time>2026-03-22T10:01:57.894Z</time></trkpt><trkpt lat="42.9549417" lon="13.3423117"><ele>482.20000000000005</ele><time>2026-03-22T10:01:58.894Z</time></trkpt><trkpt lat="42.9548917" lon="13.3421883"><ele>481.6</ele><time>2026-03-22T10:01:59.894Z</time></trkpt><trkpt lat="42.9548433" lon="13.3420517"><ele>481.0</ele><time>2026-03-22T10:02:00.894Z</time></trkpt><trkpt lat="42.9547717" lon="13.3419283"><ele>481.0</ele><time>2026-03-22T10:02:01.894Z</time></trkpt><trkpt lat="42.9546933" lon="13.3417633"><ele>481.0</ele><time>2026-03-22T10:02:02.894Z</time></trkpt><trkpt lat="42.954615" lon="13.3415933"><ele>481.0</ele><time>2026-03-22T10:02:03.894Z</time></trkpt><trkpt lat="42.9545417" lon="13.3414033"><ele>481.0</ele><time>2026-03-22T10:02:04.894Z</time></trkpt><trkpt lat="42.9544783" lon="13.3412383"><ele>484.0</ele><time>2026-03-22T10:02:05.894Z</time></trkpt><trkpt lat="42.95443" lon="13.3410983"><ele>487.0</ele><time>2026-03-22T10:02:06.894Z</time></trkpt><trkpt lat="42.954385" lon="13.34098"><ele>490.0</ele><time>2026-03-22T10:02:07.893Z</time></trkpt><trkpt lat="42.9543233" lon="13.3409083"><ele>493.0</ele><time>2026-03-22T10:02:08.894Z</time></trkpt><trkpt lat="42.9542567" lon="13.3408483"><ele>496.0</ele><time>2026-03-22T10:02:09.893Z</time></trkpt><trkpt lat="42.9541833" lon="13.3407867"><ele>496.00000000000006</ele><time>2026-03-22T10:02:10.894Z</time></trkpt><trkpt lat="42.9541167" lon="13.3406983"><ele>496.0</ele><time>2026-03-22T10:02:11.894Z</time></trkpt><trkpt lat="42.954035" lon="13.3406333"><ele>496.0</ele><time>2026-03-22T10:02:12.893Z</time></trkpt><trkpt lat="42.953965" lon="13.340585"><ele>496.0</ele><time>2026-03-22T10:02:13.894Z</time></trkpt><trkpt lat="42.953895" lon="13.340565"><ele>496.00000000000006</ele><time>2026-03-22T10:02:14.894Z</time></trkpt><trkpt lat="42.9538183" lon="13.3405833"><ele>496.0</ele><time>2026-03-22T10:02:15.893Z</time></trkpt><trkpt lat="42.9537417" lon="13.3406067"><ele>496.0</ele><time>2026-03-22T10:02:16.893Z</time></trkpt><trkpt lat="42.953655" lon="13.3406483"><ele>496.0</ele><time>2026-03-22T10:02:17.894Z</time></trkpt><trkpt lat="42.9535367" lon="13.34071"><ele>496.0</ele><time>2026-03-22T10:02:18.893Z</time></trkpt><trkpt lat="42.9534117" lon="13.340735"><ele>496.0</ele><time>2026-03-22T10:02:19.894Z</time></trkpt><trkpt lat="42.9533017" lon="13.3407583"><ele>495.8</ele><time>2026-03-22T10:02:20.893Z</time></trkpt><trkpt lat="42.953195" lon="13.3407717"><ele>495.6</ele><time>2026-03-22T10:02:21.894Z</time></trkpt><trkpt lat="42.9531083" lon="13.34074"><ele>495.4</ele><time>2026-03-22T10:02:22.894Z</time></trkpt><trkpt lat="42.9530133" lon="13.34074"><ele>495.2</ele><time>2026-03-22T10:02:23.893Z</time></trkpt><trkpt lat="42.9529317" lon="13.3407383"><ele>495.0</ele><time>2026-03-22T10:02:24.893Z</time></trkpt><trkpt lat="42.9528483" lon="13.340745"><ele>495.0</ele><time>2026-03-22T10:02:25.893Z</time></trkpt><trkpt lat="42.9527633" lon="13.3407433"><ele>495.0</ele><time>2026-03-22T10:02:26.894Z</time></trkpt><trkpt lat="42.952685" lon="13.3407383"><ele>495.0</ele><time>2026-03-22T10:02:27.894Z</time></trkpt><trkpt lat="42.952605" lon="13.3407233"><ele>495.0</ele><time>2026-03-22T10:02:28.893Z</time></trkpt><trkpt lat="42.95253" lon="13.340675"><ele>495.0</ele><time>2026-03-22T10:02:29.894Z</time></trkpt><trkpt lat="42.9524617" lon="13.3406367"><ele>495.0</ele><time>2026-03-22T10:02:30.893Z</time></trkpt><trkpt lat="42.9523983" lon="13.3405867"><ele>496.1666666666667</ele><time>2026-03-22T10:02:31.893Z</time></trkpt><trkpt lat="42.9523283" lon="13.340535"><ele>497.33333333333337</ele><time>2026-03-22T10:02:32.893Z</time></trkpt><trkpt lat="42.9522633" lon="13.3404667"><ele>498.5</ele><time>2026-03-22T10:02:33.894Z</time></trkpt><trkpt lat="42.952195" lon="13.3403833"><ele>499.6666666666667</ele><time>2026-03-22T10:02:34.893Z</time></trkpt><trkpt lat="42.9521333" lon="13.340285"><ele>500.83333333333337</ele><time>2026-03-22T10:02:35.894Z</time></trkpt><trkpt lat="42.9520883" lon="13.34017"><ele>502.0</ele><time>2026-03-22T10:02:36.894Z</time></trkpt><trkpt lat="42.952035" lon="13.340055"><ele>502.00000000000006</ele><time>2026-03-22T10:02:37.894Z</time></trkpt><trkpt lat="42.9519733" lon="13.3399633"><ele>502.0</ele><time>2026-03-22T10:02:38.893Z</time></trkpt><trkpt lat="42.9518967" lon="13.3398767"><ele>502.0</ele><time>2026-03-22T10:02:39.894Z</time></trkpt><trkpt lat="42.951815" lon="13.3398083"><ele>502.0</ele><time>2026-03-22T10:02:40.893Z</time></trkpt><trkpt lat="42.9517383" lon="13.33976"><ele>502.00000000000006</ele><time>2026-03-22T10:02:41.894Z</time></trkpt><trkpt lat="42.9516717" lon="13.3397083"><ele>502.0</ele><time>2026-03-22T10:02:42.894Z</time></trkpt><trkpt lat="42.9516267" lon="13.3396417"><ele>503.6666666666667</ele><time>2026-03-22T10:02:43.894Z</time></trkpt><trkpt lat="42.9516033" lon="13.33956"><ele>505.33333333333337</ele><time>2026-03-22T10:02:44.893Z</time></trkpt><trkpt lat="42.9515917" lon="13.3394183"><ele>507.0</ele><time>2026-03-22T10:02:46.893Z</time></trkpt><trkpt lat="42.95158" lon="13.339305"><ele>508.66666666666663</ele><time>2026-03-22T10:02:48.894Z</time></trkpt><trkpt lat="42.9515033" lon="13.3392933"><ele>510.3333333333333</ele><time>2026-03-22T10:02:50.894Z</time></trkpt><trkpt lat="42.9514383" lon="13.3393117"><ele>512.0</ele><time>2026-03-22T10:02:51.894Z</time></trkpt><trkpt lat="42.95137" lon="13.33935"><ele>512.0</ele><time>2026-03-22T10:02:52.893Z</time></trkpt><trkpt lat="42.95128" lon="13.3393667"><ele>512.0</ele><time>2026-03-22T10:02:53.894Z</time></trkpt><trkpt lat="42.9511683" lon="13.3394033"><ele>512.0</ele><time>2026-03-22T10:02:54.893Z</time></trkpt><trkpt lat="42.9510583" lon="13.3393733"><ele>512.0</ele><time>2026-03-22T10:02:55.894Z</time></trkpt><trkpt lat="42.9509267" lon="13.339325"><ele>512.5</ele><time>2026-03-22T10:02:56.894Z</time></trkpt><trkpt lat="42.950785" lon="13.33926"><ele>513.0</ele><time>2026-03-22T10:02:57.893Z</time></trkpt><trkpt lat="42.9506417" lon="13.33921"><ele>513.5</ele><time>2026-03-22T10:02:58.893Z</time></trkpt><trkpt lat="42.9505033" lon="13.3391883"><ele>514.0</ele><time>2026-03-22T10:02:59.893Z</time></trkpt><trkpt lat="42.9503717" lon="13.3391583"><ele>514.0</ele><time>2026-03-22T10:03:00.894Z</time></trkpt><trkpt lat="42.950255" lon="13.3391317"><ele>514.0</ele><time>2026-03-22T10:03:01.894Z</time></trkpt><trkpt lat="42.95016" lon="13.3391067"><ele>514.0</ele><time>2026-03-22T10:03:02.893Z</time></trkpt><trkpt lat="42.9500967" lon="13.3390767"><ele>514.0</ele><time>2026-03-22T10:03:03.893Z</time></trkpt><trkpt lat="42.95" lon="13.3390333"><ele>514.0</ele><time>2026-03-22T10:03:05.893Z</time></trkpt><trkpt lat="42.949915" lon="13.33899"><ele>512.6666666666667</ele><time>2026-03-22T10:03:08.893Z</time></trkpt><trkpt lat="42.9498483" lon="13.338945"><ele>511.33333333333337</ele><time>2026-03-22T10:03:12.893Z</time></trkpt><trkpt lat="42.9497433" lon="13.3389117"><ele>510.0</ele><time>2026-03-22T10:03:15.894Z</time></trkpt><trkpt lat="42.9496783" lon="13.338905"><ele>508.66666666666663</ele><time>2026-03-22T10:03:16.894Z</time></trkpt><trkpt lat="42.9496033" lon="13.3389"><ele>507.3333333333333</ele><time>2026-03-22T10:03:17.893Z</time></trkpt><trkpt lat="42.9495133" lon="13.3388867"><ele>506.0</ele><time>2026-03-22T10:03:18.894Z</time></trkpt><trkpt lat="42.9494083" lon="13.3388833"><ele>504.0</ele><time>2026-03-22T10:03:19.894Z</time></trkpt><trkpt lat="42.949295" lon="13.33888"><ele>502.0</ele><time>2026-03-22T10:03:20.893Z</time></trkpt><trkpt lat="42.9491733" lon="13.3388983"><ele>500.0</ele><time>2026-03-22T10:03:21.893Z</time></trkpt><trkpt lat="42.9490367" lon="13.3389"><ele>498.0</ele><time>2026-03-22T10:03:22.894Z</time></trkpt><trkpt lat="42.9488933" lon="13.3389117"><ele>498.0</ele><time>2026-03-22T10:03:23.894Z</time></trkpt><trkpt lat="42.9487483" lon="13.338905"><ele>498.0</ele><time>2026-03-22T10:03:24.894Z</time></trkpt><trkpt lat="42.9486117" lon="13.3388867"><ele>498.0</ele><time>2026-03-22T10:03:25.893Z</time></trkpt><trkpt lat="42.948465" lon="13.338895"><ele>498.0</ele><time>2026-03-22T10:03:26.893Z</time></trkpt><trkpt lat="42.9483417" lon="13.3388933"><ele>503.25</ele><time>2026-03-22T10:03:27.894Z</time></trkpt><trkpt lat="42.9482183" lon="13.3388667"><ele>508.5</ele><time>2026-03-22T10:03:28.893Z</time></trkpt><trkpt lat="42.94811" lon="13.338835"><ele>513.75</ele><time>2026-03-22T10:03:29.894Z</time></trkpt><trkpt lat="42.94801" lon="13.3387783"><ele>519.0</ele><time>2026-03-22T10:03:30.894Z</time></trkpt><trkpt lat="42.94792" lon="13.3386883"><ele>519.0</ele><time>2026-03-22T10:03:31.893Z</time></trkpt><trkpt lat="42.947825" lon="13.338565"><ele>519.0</ele><time>2026-03-22T10:03:32.893Z</time></trkpt><trkpt lat="42.9477317" lon="13.3384267"><ele>519.0</ele><time>2026-03-22T10:03:33.894Z</time></trkpt><trkpt lat="42.9476467" lon="13.3382683"><ele>519.0</ele><time>2026-03-22T10:03:34.894Z</time></trkpt><trkpt lat="42.9475733" lon="13.3381"><ele>519.0</ele><time>2026-03-22T10:03:35.893Z</time></trkpt><trkpt lat="42.9475033" lon="13.337935"><ele>519.0</ele><time>2026-03-22T10:03:36.893Z</time></trkpt><trkpt lat="42.9474367" lon="13.3377817"><ele>519.0</ele><time>2026-03-22T10:03:37.893Z</time></trkpt><trkpt lat="42.9473683" lon="13.3376417"><ele>519.0</ele><time>2026-03-22T10:03:38.893Z</time></trkpt><trkpt lat="42.9472917" lon="13.3375117"><ele>519.0</ele><time>2026-03-22T10:03:39.893Z</time></trkpt><trkpt lat="42.9471917" lon="13.3373767"><ele>519.0</ele><time>2026-03-22T10:03:40.894Z</time></trkpt><trkpt lat="42.947075" lon="13.3372617"><ele>519.0</ele><time>2026-03-22T10:03:41.893Z</time></trkpt><trkpt lat="42.9469483" lon="13.3371467"><ele>519.0</ele><time>2026-03-22T10:03:42.894Z</time></trkpt><trkpt lat="42.9468017" lon="13.3370467"><ele>520.3333333333334</ele><time>2026-03-22T10:03:43.893Z</time></trkpt><trkpt lat="42.9466533" lon="13.3369317"><ele>521.6666666666667</ele><time>2026-03-22T10:03:44.894Z</time></trkpt><trkpt lat="42.94651" lon="13.3368167"><ele>523.0</ele><time>2026-03-22T10:03:45.894Z</time></trkpt><trkpt lat="42.9463617" lon="13.3367083"><ele>523.0</ele><time>2026-03-22T10:03:46.893Z</time></trkpt><trkpt lat="42.9462183" lon="13.33663"><ele>523.0</ele><time>2026-03-22T10:03:47.893Z</time></trkpt><trkpt lat="42.946105" lon="13.3365433"><ele>523.0</ele><time>2026-03-22T10:03:48.894Z</time></trkpt><trkpt lat="42.9460117" lon="13.3364867"><ele>523.0</ele><time>2026-03-22T10:03:49.893Z</time></trkpt><trkpt lat="42.9459267" lon="13.3364333"><ele>521.0</ele><time>2026-03-22T10:03:50.894Z</time></trkpt><trkpt lat="42.9458617" lon="13.33634"><ele>519.0</ele><time>2026-03-22T10:03:51.894Z</time></trkpt><trkpt lat="42.9458167" lon="13.336225"><ele>517.0</ele><time>2026-03-22T10:03:52.894Z</time></trkpt><trkpt lat="42.9457867" lon="13.3360833"><ele>515.0</ele><time>2026-03-22T10:03:53.894Z</time></trkpt><trkpt lat="42.9457567" lon="13.3359183"><ele>513.0</ele><time>2026-03-22T10:03:54.894Z</time></trkpt><trkpt lat="42.9457167" lon="13.33574"><ele>513.0</ele><time>2026-03-22T10:03:55.893Z</time></trkpt><trkpt lat="42.9456683" lon="13.3355567"><ele>513.0</ele><time>2026-03-22T10:03:56.893Z</time></trkpt><trkpt lat="42.9456083" lon="13.33538"><ele>513.0</ele><time>2026-03-22T10:03:57.894Z</time></trkpt><trkpt lat="42.945545" lon="13.3352017"><ele>513.0</ele><time>2026-03-22T10:03:58.894Z</time></trkpt><trkpt lat="42.9454883" lon="13.3350367"><ele>515.25</ele><time>2026-03-22T10:03:59.893Z</time></trkpt><trkpt lat="42.9454167" lon="13.3348783"><ele>517.5</ele><time>2026-03-22T10:04:00.893Z</time></trkpt><trkpt lat="42.94535" lon="13.3347283"><ele>519.75</ele><time>2026-03-22T10:04:01.894Z</time></trkpt><trkpt lat="42.9452683" lon="13.3345983"><ele>522.0</ele><time>2026-03-22T10:04:02.894Z</time></trkpt><trkpt lat="42.94515" lon="13.3344867"><ele>520.6666666666666</ele><time>2026-03-22T10:04:03.894Z</time></trkpt><trkpt lat="42.9450217" lon="13.3343983"><ele>519.3333333333333</ele><time>2026-03-22T10:04:04.894Z</time></trkpt><trkpt lat="42.944885" lon="13.3343033"><ele>518.0</ele><time>2026-03-22T10:04:05.894Z</time></trkpt><trkpt lat="42.9447367" lon="13.3342383"><ele>518.0</ele><time>2026-03-22T10:04:06.894Z</time></trkpt><trkpt lat="42.944605" lon="13.334165"><ele>518.0</ele><time>2026-03-22T10:04:07.894Z</time></trkpt><trkpt lat="42.944465" lon="13.3341217"><ele>518.0</ele><time>2026-03-22T10:04:08.894Z</time></trkpt><trkpt lat="42.944325" lon="13.33409"><ele>518.0</ele><time>2026-03-22T10:04:09.893Z</time></trkpt><trkpt lat="42.9441783" lon="13.3340717"><ele>516.1999999999999</ele><time>2026-03-22T10:04:10.893Z</time></trkpt><trkpt lat="42.944045" lon="13.3340567"><ele>514.4</ele><time>2026-03-22T10:04:11.894Z</time></trkpt><trkpt lat="42.9439283" lon="13.3340383"><ele>512.5999999999999</ele><time>2026-03-22T10:04:12.894Z</time></trkpt><trkpt lat="42.9438383" lon="13.334025"><ele>510.79999999999995</ele><time>2026-03-22T10:04:13.894Z</time></trkpt><trkpt lat="42.94376" lon="13.333975"><ele>509.0</ele><time>2026-03-22T10:04:14.893Z</time></trkpt><trkpt lat="42.9436983" lon="13.3339333"><ele>510.3333333333333</ele><time>2026-03-22T10:04:15.894Z</time></trkpt><trkpt lat="42.94365" lon="13.3338733"><ele>511.66666666666663</ele><time>2026-03-22T10:04:16.893Z</time></trkpt><trkpt lat="42.9436167" lon="13.33377"><ele>513.0</ele><time>2026-03-22T10:04:18.893Z</time></trkpt><trkpt lat="42.9436467" lon="13.333665"><ele>514.3333333333334</ele><time>2026-03-22T10:04:25.894Z</time></trkpt><trkpt lat="42.9436683" lon="13.333565"><ele>515.6666666666667</ele><time>2026-03-22T10:04:26.893Z</time></trkpt><trkpt lat="42.9437" lon="13.33347"><ele>517.0</ele><time>2026-03-22T10:04:27.894Z</time></trkpt><trkpt lat="42.9437483" lon="13.3333433"><ele>517.0</ele><time>2026-03-22T10:04:28.894Z</time></trkpt><trkpt lat="42.943795" lon="13.3332217"><ele>517.0</ele><time>2026-03-22T10:04:29.893Z</time></trkpt><trkpt lat="42.943835" lon="13.3331"><ele>517.0</ele><time>2026-03-22T10:04:30.894Z</time></trkpt><trkpt lat="42.94388" lon="13.3329867"><ele>517.0</ele><time>2026-03-22T10:04:31.894Z</time></trkpt><trkpt lat="42.94392" lon="13.332885"><ele>517.0</ele><time>2026-03-22T10:04:32.893Z</time></trkpt><trkpt lat="42.9439633" lon="13.3327967"><ele>517.1666666666667</ele><time>2026-03-22T10:04:33.893Z</time></trkpt><trkpt lat="42.9439983" lon="13.332705"><ele>517.3333333333334</ele><time>2026-03-22T10:04:34.894Z</time></trkpt><trkpt lat="42.9440217" lon="13.3326183"><ele>517.5</ele><time>2026-03-22T10:04:35.894Z</time></trkpt><trkpt lat="42.9440583" lon="13.3325217"><ele>517.6666666666666</ele><time>2026-03-22T10:04:36.894Z</time></trkpt><trkpt lat="42.944095" lon="13.3324133"><ele>517.8333333333333</ele><time>2026-03-22T10:04:37.894Z</time></trkpt><trkpt lat="42.94413" lon="13.3323083"><ele>518.0</ele><time>2026-03-22T10:04:38.893Z</time></trkpt><trkpt lat="42.94417" lon="13.3322117"><ele>518.0</ele><time>2026-03-22T10:04:39.894Z</time></trkpt><trkpt lat="42.9442083" lon="13.33211"><ele>518.0</ele><time>2026-03-22T10:04:40.894Z</time></trkpt><trkpt lat="42.9442383" lon="13.331995"><ele>518.0</ele><time>2026-03-22T10:04:41.894Z</time></trkpt><trkpt lat="42.9442833" lon="13.33189"><ele>518.0</ele><time>2026-03-22T10:04:42.894Z</time></trkpt><trkpt lat="42.9443317" lon="13.3317817"><ele>518.0</ele><time>2026-03-22T10:04:43.894Z</time></trkpt><trkpt lat="42.9443783" lon="13.331675"><ele>518.0</ele><time>2026-03-22T10:04:44.894Z</time></trkpt><trkpt lat="42.9444217" lon="13.3315633"><ele>519.75</ele><time>2026-03-22T10:04:45.894Z</time></trkpt><trkpt lat="42.9444717" lon="13.3314433"><ele>521.5</ele><time>2026-03-22T10:04:46.893Z</time></trkpt><trkpt lat="42.9445317" lon="13.3313083"><ele>523.25</ele><time>2026-03-22T10:04:47.894Z</time></trkpt><trkpt lat="42.9445983" lon="13.3311583"><ele>525.0</ele><time>2026-03-22T10:04:48.894Z</time></trkpt><trkpt lat="42.9447067" lon="13.3310083"><ele>525.6666666666666</ele><time>2026-03-22T10:04:49.894Z</time></trkpt><trkpt lat="42.944815" lon="13.330865"><ele>526.3333333333333</ele><time>2026-03-22T10:04:50.894Z</time></trkpt><trkpt lat="42.9449517" lon="13.3307233"><ele>527.0</ele><time>2026-03-22T10:04:51.894Z</time></trkpt><trkpt lat="42.945115" lon="13.3306033"><ele>528.3333333333333</ele><time>2026-03-22T10:04:52.894Z</time></trkpt><trkpt lat="42.9452817" lon="13.3304767"><ele>529.6666666666666</ele><time>2026-03-22T10:04:53.894Z</time></trkpt><trkpt lat="42.9454617" lon="13.3303783"><ele>531.0</ele><time>2026-03-22T10:04:54.893Z</time></trkpt><trkpt lat="42.945635" lon="13.3302567"><ele>531.0</ele><time>2026-03-22T10:04:55.894Z</time></trkpt><trkpt lat="42.9458267" lon="13.3301183"><ele>531.0</ele><time>2026-03-22T10:04:56.894Z</time></trkpt><trkpt lat="42.9460133" lon="13.3299633"><ele>531.0</ele><time>2026-03-22T10:04:57.894Z</time></trkpt><trkpt lat="42.9462" lon="13.32979"><ele>533.0</ele><time>2026-03-22T10:04:58.894Z</time></trkpt><trkpt lat="42.9463867" lon="13.329585"><ele>535.0</ele><time>2026-03-22T10:04:59.894Z</time></trkpt><trkpt lat="42.94659" lon="13.3293983"><ele>541.0</ele><time>2026-03-22T10:05:00.893Z</time></trkpt><trkpt lat="42.9468033" lon="13.3291883"><ele>547.0</ele><time>2026-03-22T10:05:01.894Z</time></trkpt><trkpt lat="42.9470167" lon="13.32899"><ele>541.5</ele><time>2026-03-22T10:05:02.894Z</time></trkpt><trkpt lat="42.9472283" lon="13.3287867"><ele>536.0</ele><time>2026-03-22T10:05:03.894Z</time></trkpt><trkpt lat="42.947455" lon="13.3285833"><ele>544.0</ele><time>2026-03-22T10:05:04.894Z</time></trkpt><trkpt lat="42.94768" lon="13.3283833"><ele>552.0</ele><time>2026-03-22T10:05:05.893Z</time></trkpt><trkpt lat="42.9478917" lon="13.3282017"><ele>546.0</ele><time>2026-03-22T10:05:06.893Z</time></trkpt><trkpt lat="42.9480933" lon="13.32802"><ele>540.0</ele><time>2026-03-22T10:05:07.894Z</time></trkpt><trkpt lat="42.9482717" lon="13.32782"><ele>547.0</ele><time>2026-03-22T10:05:08.894Z</time></trkpt><trkpt lat="42.9484683" lon="13.327625"><ele>554.0</ele><time>2026-03-22T10:05:09.894Z</time></trkpt><trkpt lat="42.9486433" lon="13.327425"><ele>554.0</ele><time>2026-03-22T10:05:10.894Z</time></trkpt><trkpt lat="42.948825" lon="13.3272283"><ele>554.0</ele><time>2026-03-22T10:05:11.893Z</time></trkpt><trkpt lat="42.9490083" lon="13.3270183"><ele>548.0</ele><time>2026-03-22T10:05:12.894Z</time></trkpt><trkpt lat="42.9491917" lon="13.326825"><ele>542.0</ele><time>2026-03-22T10:05:13.894Z</time></trkpt><trkpt lat="42.9494" lon="13.3266533"><ele>546.5</ele><time>2026-03-22T10:05:14.894Z</time></trkpt><trkpt lat="42.9495883" lon="13.326465"><ele>551.0</ele><time>2026-03-22T10:05:15.894Z</time></trkpt><trkpt lat="42.9497717" lon="13.3262567"><ele>551.0</ele><time>2026-03-22T10:05:16.893Z</time></trkpt><trkpt lat="42.9499533" lon="13.3260483"><ele>551.0</ele><time>2026-03-22T10:05:17.894Z</time></trkpt><trkpt lat="42.9501333" lon="13.3258233"><ele>553.0</ele><time>2026-03-22T10:05:18.894Z</time></trkpt><trkpt lat="42.9503083" lon="13.3256"><ele>555.0</ele><time>2026-03-22T10:05:19.894Z</time></trkpt><trkpt lat="42.9504817" lon="13.3253883"><ele>555.0</ele><time>2026-03-22T10:05:20.894Z</time></trkpt><trkpt lat="42.9506617" lon="13.3251717"><ele>555.0</ele><time>2026-03-22T10:05:21.894Z</time></trkpt><trkpt lat="42.9508417" lon="13.3249617"><ele>556.5</ele><time>2026-03-22T10:05:22.894Z</time></trkpt><trkpt lat="42.951015" lon="13.3247483"><ele>558.0</ele><time>2026-03-22T10:05:23.893Z</time></trkpt><trkpt lat="42.95118" lon="13.32452"><ele>558.0</ele><time>2026-03-22T10:05:24.893Z</time></trkpt><trkpt lat="42.9513483" lon="13.3243"><ele>558.0</ele><time>2026-03-22T10:05:25.893Z</time></trkpt><trkpt lat="42.95151" lon="13.3240933"><ele>558.0</ele><time>2026-03-22T10:05:26.894Z</time></trkpt><trkpt lat="42.9516433" lon="13.3239167"><ele>558.0</ele><time>2026-03-22T10:05:27.894Z</time></trkpt><trkpt lat="42.9517917" lon="13.32373"><ele>558.0</ele><time>2026-03-22T10:05:28.894Z</time></trkpt><trkpt lat="42.9519367" lon="13.32353"><ele>560.6666666666666</ele><time>2026-03-22T10:05:29.894Z</time></trkpt><trkpt lat="42.95208" lon="13.3233333"><ele>563.3333333333333</ele><time>2026-03-22T10:05:30.893Z</time></trkpt><trkpt lat="42.9521917" lon="13.3231083"><ele>566.0</ele><time>2026-03-22T10:05:31.893Z</time></trkpt><trkpt lat="42.9523" lon="13.3228817"><ele>566.0</ele><time>2026-03-22T10:05:32.893Z</time></trkpt><trkpt lat="42.9523983" lon="13.3226467"><ele>566.0</ele><time>2026-03-22T10:05:33.894Z</time></trkpt><trkpt lat="42.9524867" lon="13.3223967"><ele>566.0</ele><time>2026-03-22T10:05:34.893Z</time></trkpt><trkpt lat="42.9525517" lon="13.32214"><ele>566.6666666666666</ele><time>2026-03-22T10:05:35.894Z</time></trkpt><trkpt lat="42.9526283" lon="13.32188"><ele>567.3333333333334</ele><time>2026-03-22T10:05:36.893Z</time></trkpt><trkpt lat="42.9526883" lon="13.3216033"><ele>568.0</ele><time>2026-03-22T10:05:37.893Z</time></trkpt><trkpt lat="42.9527433" lon="13.3213367"><ele>568.0</ele><time>2026-03-22T10:05:38.894Z</time></trkpt><trkpt lat="42.9528033" lon="13.3211083"><ele>568.0</ele><time>2026-03-22T10:05:39.894Z</time></trkpt><trkpt lat="42.952875" lon="13.3208983"><ele>568.0</ele><time>2026-03-22T10:05:40.893Z</time></trkpt><trkpt lat="42.952935" lon="13.320685"><ele>568.0</ele><time>2026-03-22T10:05:41.894Z</time></trkpt><trkpt lat="42.95298" lon="13.3204667"><ele>568.0</ele><time>2026-03-22T10:05:42.893Z</time></trkpt><trkpt lat="42.9530283" lon="13.3202733"><ele>568.0</ele><time>2026-03-22T10:05:43.894Z</time></trkpt><trkpt lat="42.9530633" lon="13.32008"><ele>568.0</ele><time>2026-03-22T10:05:44.894Z</time></trkpt><trkpt lat="42.9530917" lon="13.3199033"><ele>568.0</ele><time>2026-03-22T10:05:45.893Z</time></trkpt><trkpt lat="42.9531183" lon="13.3197383"><ele>568.0</ele><time>2026-03-22T10:05:46.893Z</time></trkpt><trkpt lat="42.9531367" lon="13.3195733"><ele>568.0</ele><time>2026-03-22T10:05:47.894Z</time></trkpt><trkpt lat="42.9531333" lon="13.3194117"><ele>568.25</ele><time>2026-03-22T10:05:48.893Z</time></trkpt><trkpt lat="42.9531267" lon="13.3192483"><ele>568.5</ele><time>2026-03-22T10:05:49.893Z</time></trkpt><trkpt lat="42.9531517" lon="13.31908"><ele>568.75</ele><time>2026-03-22T10:05:50.893Z</time></trkpt><trkpt lat="42.9531883" lon="13.3189233"><ele>569.0</ele><time>2026-03-22T10:05:51.894Z</time></trkpt><trkpt lat="42.9532317" lon="13.318765"><ele>569.75</ele><time>2026-03-22T10:05:52.894Z</time></trkpt><trkpt lat="42.9532917" lon="13.31861"><ele>570.5</ele><time>2026-03-22T10:05:53.894Z</time></trkpt><trkpt lat="42.9533583" lon="13.318445"><ele>571.25</ele><time>2026-03-22T10:05:54.894Z</time></trkpt><trkpt lat="42.953445" lon="13.3182567"><ele>572.0</ele><time>2026-03-22T10:05:55.893Z</time></trkpt><trkpt lat="42.953535" lon="13.3180583"><ele>582.6666666666666</ele><time>2026-03-22T10:05:56.894Z</time></trkpt><trkpt lat="42.9536333" lon="13.31786"><ele>593.3333333333334</ele><time>2026-03-22T10:05:57.894Z</time></trkpt><trkpt lat="42.953705" lon="13.3176467"><ele>604.0</ele><time>2026-03-22T10:05:58.894Z</time></trkpt><trkpt lat="42.9537533" lon="13.3174217"><ele>606.6666666666667</ele><time>2026-03-22T10:05:59.894Z</time></trkpt><trkpt lat="42.9537567" lon="13.3171717"><ele>609.3333333333334</ele><time>2026-03-22T10:06:00.894Z</time></trkpt><trkpt lat="42.953735" lon="13.316915"><ele>612.0</ele><time>2026-03-22T10:06:01.893Z</time></trkpt><trkpt lat="42.9536867" lon="13.31669"><ele>612.0</ele><time>2026-03-22T10:06:02.894Z</time></trkpt><trkpt lat="42.9536517" lon="13.3164617"><ele>612.0</ele><time>2026-03-22T10:06:03.893Z</time></trkpt><trkpt lat="42.95361" lon="13.3162333"><ele>612.0</ele><time>2026-03-22T10:06:04.893Z</time></trkpt><trkpt lat="42.9535467" lon="13.3159817"><ele>613.6666666666666</ele><time>2026-03-22T10:06:05.893Z</time></trkpt><trkpt lat="42.9534933" lon="13.31575"><ele>615.3333333333333</ele><time>2026-03-22T10:06:06.894Z</time></trkpt><trkpt lat="42.953445" lon="13.3155233"><ele>617.0</ele><time>2026-03-22T10:06:07.894Z</time></trkpt><trkpt lat="42.9534" lon="13.3152933"><ele>617.0</ele><time>2026-03-22T10:06:08.893Z</time></trkpt><trkpt lat="42.95341" lon="13.3150533"><ele>617.0</ele><time>2026-03-22T10:06:09.894Z</time></trkpt><trkpt lat="42.953415" lon="13.314815"><ele>617.0</ele><time>2026-03-22T10:06:10.893Z</time></trkpt><trkpt lat="42.9533983" lon="13.3145717"><ele>609.6666666666666</ele><time>2026-03-22T10:06:11.893Z</time></trkpt><trkpt lat="42.9533583" lon="13.314335"><ele>602.3333333333334</ele><time>2026-03-22T10:06:12.894Z</time></trkpt><trkpt lat="42.953295" lon="13.3140967"><ele>595.0</ele><time>2026-03-22T10:06:13.894Z</time></trkpt><trkpt lat="42.953205" lon="13.31386"><ele>595.0</ele><time>2026-03-22T10:06:14.894Z</time></trkpt><trkpt lat="42.9531083" lon="13.3136317"><ele>595.0</ele><time>2026-03-22T10:06:15.893Z</time></trkpt><trkpt lat="42.953005" lon="13.3134167"><ele>595.0</ele><time>2026-03-22T10:06:16.893Z</time></trkpt><trkpt lat="42.952915" lon="13.3131983"><ele>597.6666666666667</ele><time>2026-03-22T10:06:17.894Z</time></trkpt><trkpt lat="42.9528433" lon="13.312975"><ele>600.3333333333334</ele><time>2026-03-22T10:06:18.894Z</time></trkpt><trkpt lat="42.952785" lon="13.3127683"><ele>603.0</ele><time>2026-03-22T10:06:19.894Z</time></trkpt><trkpt lat="42.9527333" lon="13.31257"><ele>603.0</ele><time>2026-03-22T10:06:20.894Z</time></trkpt><trkpt lat="42.95271" lon="13.312355"><ele>603.0</ele><time>2026-03-22T10:06:21.893Z</time></trkpt><trkpt lat="42.9527133" lon="13.312145"><ele>603.0</ele><time>2026-03-22T10:06:22.893Z</time></trkpt><trkpt lat="42.95276" lon="13.31196"><ele>602.75</ele><time>2026-03-22T10:06:23.894Z</time></trkpt><trkpt lat="42.9528083" lon="13.3117867"><ele>602.5</ele><time>2026-03-22T10:06:24.893Z</time></trkpt><trkpt lat="42.95289" lon="13.3116267"><ele>602.25</ele><time>2026-03-22T10:06:25.894Z</time></trkpt><trkpt lat="42.952965" lon="13.3114333"><ele>602.0</ele><time>2026-03-22T10:06:26.893Z</time></trkpt><trkpt lat="42.9530467" lon="13.31123"><ele>602.0</ele><time>2026-03-22T10:06:27.893Z</time></trkpt><trkpt lat="42.9531867" lon="13.3110683"><ele>602.0</ele><time>2026-03-22T10:06:28.894Z</time></trkpt><trkpt lat="42.95323" lon="13.31087"><ele>602.0</ele><time>2026-03-22T10:06:29.894Z</time></trkpt><trkpt lat="42.95324" lon="13.31066"><ele>610.0</ele><time>2026-03-22T10:06:30.893Z</time></trkpt><trkpt lat="42.953195" lon="13.31043"><ele>618.0</ele><time>2026-03-22T10:06:31.894Z</time></trkpt><trkpt lat="42.9531283" lon="13.310205"><ele>626.0</ele><time>2026-03-22T10:06:32.893Z</time></trkpt><trkpt lat="42.9530217" lon="13.3100017"><ele>626.0</ele><time>2026-03-22T10:06:33.893Z</time></trkpt><trkpt lat="42.9529067" lon="13.3097917"><ele>626.0</ele><time>2026-03-22T10:06:34.893Z</time></trkpt><trkpt lat="42.9527567" lon="13.3095717"><ele>626.0</ele><time>2026-03-22T10:06:35.893Z</time></trkpt><trkpt lat="42.95262" lon="13.3093483"><ele>627.6666666666666</ele><time>2026-03-22T10:06:36.894Z</time></trkpt><trkpt lat="42.9524967" lon="13.3091167"><ele>629.3333333333334</ele><time>2026-03-22T10:06:37.894Z</time></trkpt><trkpt lat="42.9523933" lon="13.30889"><ele>631.0</ele><time>2026-03-22T10:06:38.894Z</time></trkpt><trkpt lat="42.9523167" lon="13.30865"><ele>631.0</ele><time>2026-03-22T10:06:39.893Z</time></trkpt><trkpt lat="42.95226" lon="13.3084333"><ele>631.0</ele><time>2026-03-22T10:06:40.894Z</time></trkpt><trkpt lat="42.9522283" lon="13.30819"><ele>631.0</ele><time>2026-03-22T10:06:41.894Z</time></trkpt><trkpt lat="42.952215" lon="13.3079567"><ele>630.0</ele><time>2026-03-22T10:06:42.894Z</time></trkpt><trkpt lat="42.9521933" lon="13.3077067"><ele>629.0</ele><time>2026-03-22T10:06:43.893Z</time></trkpt><trkpt lat="42.9521467" lon="13.3074417"><ele>628.0</ele><time>2026-03-22T10:06:44.894Z</time></trkpt><trkpt lat="42.952095" lon="13.3071617"><ele>628.0</ele><time>2026-03-22T10:06:45.894Z</time></trkpt><trkpt lat="42.9520517" lon="13.3068867"><ele>628.0</ele><time>2026-03-22T10:06:46.894Z</time></trkpt><trkpt lat="42.95203" lon="13.3066117"><ele>628.0</ele><time>2026-03-22T10:06:47.894Z</time></trkpt><trkpt lat="42.9519717" lon="13.3063533"><ele>630.0</ele><time>2026-03-22T10:06:48.894Z</time></trkpt><trkpt lat="42.951925" lon="13.3060767"><ele>632.0</ele><time>2026-03-22T10:06:49.894Z</time></trkpt><trkpt lat="42.9518467" lon="13.3058217"><ele>634.0</ele><time>2026-03-22T10:06:50.894Z</time></trkpt><trkpt lat="42.9517833" lon="13.3055667"><ele>642.3333333333334</ele><time>2026-03-22T10:06:51.894Z</time></trkpt><trkpt lat="42.9517467" lon="13.3053117"><ele>650.6666666666666</ele><time>2026-03-22T10:06:52.894Z</time></trkpt><trkpt lat="42.95173" lon="13.3050833"><ele>659.0</ele><time>2026-03-22T10:06:53.894Z</time></trkpt><trkpt lat="42.95176" lon="13.3048467"><ele>659.0</ele><time>2026-03-22T10:06:54.894Z</time></trkpt><trkpt lat="42.95177" lon="13.304605"><ele>659.0</ele><time>2026-03-22T10:06:55.893Z</time></trkpt><trkpt lat="42.9517783" lon="13.304375"><ele>659.0</ele><time>2026-03-22T10:06:56.894Z</time></trkpt><trkpt lat="42.9517883" lon="13.3041717"><ele>659.0</ele><time>2026-03-22T10:06:57.894Z</time></trkpt><trkpt lat="42.951795" lon="13.3039733"><ele>659.0</ele><time>2026-03-22T10:06:58.894Z</time></trkpt><trkpt lat="42.95179" lon="13.30379"><ele>659.0</ele><time>2026-03-22T10:06:59.894Z</time></trkpt><trkpt lat="42.95179" lon="13.303635"><ele>659.0</ele><time>2026-03-22T10:07:00.894Z</time></trkpt><trkpt lat="42.951775" lon="13.3034783"><ele>654.2</ele><time>2026-03-22T10:07:01.894Z</time></trkpt><trkpt lat="42.9517467" lon="13.3033367"><ele>649.4000000000001</ele><time>2026-03-22T10:07:02.893Z</time></trkpt><trkpt lat="42.951715" lon="13.3032067"><ele>644.6</ele><time>2026-03-22T10:07:03.893Z</time></trkpt><trkpt lat="42.95168" lon="13.30308"><ele>639.8</ele><time>2026-03-22T10:07:04.894Z</time></trkpt><trkpt lat="42.9516383" lon="13.302965"><ele>635.0</ele><time>2026-03-22T10:07:05.894Z</time></trkpt><trkpt lat="42.9516133" lon="13.302845"><ele>635.0</ele><time>2026-03-22T10:07:06.893Z</time></trkpt><trkpt lat="42.9515933" lon="13.3027267"><ele>635.0</ele><time>2026-03-22T10:07:07.894Z</time></trkpt><trkpt lat="42.95158" lon="13.3026067"><ele>635.0</ele><time>2026-03-22T10:07:08.894Z</time></trkpt><trkpt lat="42.95157" lon="13.3024967"><ele>635.0</ele><time>2026-03-22T10:07:09.894Z</time></trkpt><trkpt lat="42.9515633" lon="13.3023967"><ele>635.0</ele><time>2026-03-22T10:07:10.894Z</time></trkpt><trkpt lat="42.95156" lon="13.3022967"><ele>635.0</ele><time>2026-03-22T10:07:11.894Z</time></trkpt><trkpt lat="42.9515633" lon="13.30221"><ele>636.3333333333333</ele><time>2026-03-22T10:07:12.894Z</time></trkpt><trkpt lat="42.951565" lon="13.3020633"><ele>637.6666666666666</ele><time>2026-03-22T10:07:14.893Z</time></trkpt><trkpt lat="42.9515717" lon="13.301945"><ele>639.0</ele><time>2026-03-22T10:07:16.894Z</time></trkpt><trkpt lat="42.9515817" lon="13.3018267"><ele>640.3333333333334</ele><time>2026-03-22T10:07:18.893Z</time></trkpt><trkpt lat="42.9516" lon="13.3017383"><ele>641.6666666666667</ele><time>2026-03-22T10:07:20.893Z</time></trkpt><trkpt lat="42.9516067" lon="13.30164"><ele>643.0</ele><time>2026-03-22T10:07:37.893Z</time></trkpt><trkpt lat="42.9516117" lon="13.3015133"><ele>643.0</ele><time>2026-03-22T10:07:39.894Z</time></trkpt><trkpt lat="42.9516117" lon="13.301425"><ele>643.0</ele><time>2026-03-22T10:07:40.894Z</time></trkpt><trkpt lat="42.9516117" lon="13.3013233"><ele>643.0</ele><time>2026-03-22T10:07:41.894Z</time></trkpt><trkpt lat="42.95162" lon="13.3012217"><ele>643.0</ele><time>2026-03-22T10:07:42.893Z</time></trkpt><trkpt lat="42.9516217" lon="13.3011117"><ele>643.0</ele><time>2026-03-22T10:07:43.893Z</time></trkpt><trkpt lat="42.9516217" lon="13.3010233"><ele>643.0</ele><time>2026-03-22T10:07:44.893Z</time></trkpt><trkpt lat="42.9516133" lon="13.3008783"><ele>642.6666666666667</ele><time>2026-03-22T10:07:46.894Z</time></trkpt><trkpt lat="42.9516167" lon="13.30077"><ele>642.3333333333334</ele><time>2026-03-22T10:07:48.894Z</time></trkpt><trkpt lat="42.95161" lon="13.3006467"><ele>642.0</ele><time>2026-03-22T10:07:54.894Z</time></trkpt><trkpt lat="42.9516117" lon="13.3005467"><ele>641.6666666666666</ele><time>2026-03-22T10:08:15.894Z</time></trkpt><trkpt lat="42.9516183" lon="13.3004567"><ele>641.3333333333333</ele><time>2026-03-22T10:08:32.894Z</time></trkpt><trkpt lat="42.951645" lon="13.3003617"><ele>641.0</ele><time>2026-03-22T10:08:35.894Z</time></trkpt><trkpt lat="42.9516633" lon="13.3002533"><ele>641.0</ele><time>2026-03-22T10:08:42.893Z</time></trkpt><trkpt lat="42.951675" lon="13.3001317"><ele>641.0</ele><time>2026-03-22T10:08:45.894Z</time></trkpt><trkpt lat="42.9516867" lon="13.30004"><ele>641.0</ele><time>2026-03-22T10:08:48.893Z</time></trkpt><trkpt lat="42.95171" lon="13.2999367"><ele>641.0</ele><time>2026-03-22T10:08:51.894Z</time></trkpt><trkpt lat="42.9517383" lon="13.29984"><ele>641.0</ele><time>2026-03-22T10:08:53.893Z</time></trkpt><trkpt lat="42.9517733" lon="13.29974"><ele>641.0</ele><time>2026-03-22T10:08:55.894Z</time></trkpt><trkpt lat="42.9518067" lon="13.2996283"><ele>647.0</ele><time>2026-03-22T10:08:57.894Z</time></trkpt><trkpt lat="42.9518367" lon="13.2995117"><ele>653.0</ele><time>2026-03-22T10:08:59.893Z</time></trkpt><trkpt lat="42.9518633" lon="13.2993933"><ele>659.0</ele><time>2026-03-22T10:09:01.894Z</time></trkpt><trkpt lat="42.951885" lon="13.299265"><ele>665.0</ele><time>2026-03-22T10:09:03.894Z</time></trkpt><trkpt lat="42.9518983" lon="13.2991417"><ele>671.0</ele><time>2026-03-22T10:09:05.894Z</time></trkpt><trkpt lat="42.951915" lon="13.2990583"><ele>677.0</ele><time>2026-03-22T10:09:07.893Z</time></trkpt><trkpt lat="42.951945" lon="13.29896"><ele>676.8333333333333</ele><time>2026-03-22T10:09:10.894Z</time></trkpt><trkpt lat="42.95197" lon="13.2988433"><ele>676.6666666666666</ele><time>2026-03-22T10:09:13.894Z</time></trkpt><trkpt lat="42.9519817" lon="13.29875"><ele>676.5</ele><time>2026-03-22T10:09:15.894Z</time></trkpt><trkpt lat="42.9519967" lon="13.2986583"><ele>676.3333333333334</ele><time>2026-03-22T10:09:17.894Z</time></trkpt><trkpt lat="42.9520217" lon="13.298565"><ele>676.1666666666667</ele><time>2026-03-22T10:09:19.894Z</time></trkpt><trkpt lat="42.9520317" lon="13.2984317"><ele>676.0</ele><time>2026-03-22T10:09:22.893Z</time></trkpt><trkpt lat="42.952045" lon="13.2983233"><ele>676.0</ele><time>2026-03-22T10:09:24.894Z</time></trkpt><trkpt lat="42.952045" lon="13.2982283"><ele>676.0</ele><time>2026-03-22T10:09:26.893Z</time></trkpt><trkpt lat="42.9520683" lon="13.2981117"><ele>676.0</ele><time>2026-03-22T10:09:28.894Z</time></trkpt><trkpt lat="42.9520933" lon="13.2979817"><ele>676.0</ele><time>2026-03-22T10:09:30.893Z</time></trkpt><trkpt lat="42.9521267" lon="13.2978467"><ele>676.0</ele><time>2026-03-22T10:09:32.893Z</time></trkpt><trkpt lat="42.952165" lon="13.2977133"><ele>673.5999999999999</ele><time>2026-03-22T10:09:34.894Z</time></trkpt><trkpt lat="42.9522117" lon="13.2975633"><ele>671.2</ele><time>2026-03-22T10:09:36.893Z</time></trkpt><trkpt lat="42.952265" lon="13.2974217"><ele>668.8</ele><time>2026-03-22T10:09:38.894Z</time></trkpt><trkpt lat="42.952295" lon="13.297345"><ele>666.4000000000001</ele><time>2026-03-22T10:09:39.894Z</time></trkpt><trkpt lat="42.95235" lon="13.2972083"><ele>664.0</ele><time>2026-03-22T10:09:41.894Z</time></trkpt><trkpt lat="42.9524033" lon="13.2970633"><ele>662.0</ele><time>2026-03-22T10:09:43.894Z</time></trkpt><trkpt lat="42.952455" lon="13.296925"><ele>660.0</ele><time>2026-03-22T10:09:45.894Z</time></trkpt><trkpt lat="42.95249" lon="13.29679"><ele>658.0</ele><time>2026-03-22T10:09:47.894Z</time></trkpt><trkpt lat="42.9525233" lon="13.2966617"><ele>656.0</ele><time>2026-03-22T10:09:49.893Z</time></trkpt><trkpt lat="42.952565" lon="13.296525"><ele>654.0</ele><time>2026-03-22T10:09:51.894Z</time></trkpt><trkpt lat="42.95262" lon="13.2964033"><ele>662.8000000000001</ele><time>2026-03-22T10:09:53.894Z</time></trkpt><trkpt lat="42.9526667" lon="13.2962533"><ele>671.6</ele><time>2026-03-22T10:09:55.893Z</time></trkpt><trkpt lat="42.9527" lon="13.296105"><ele>680.4</ele><time>2026-03-22T10:09:57.894Z</time></trkpt><trkpt lat="42.9527217" lon="13.2959533"><ele>689.2</ele><time>2026-03-22T10:09:59.894Z</time></trkpt><trkpt lat="42.952735" lon="13.2958133"><ele>698.0</ele><time>2026-03-22T10:10:01.894Z</time></trkpt><trkpt lat="42.952745" lon="13.2956883"><ele>698.0</ele><time>2026-03-22T10:10:03.894Z</time></trkpt><trkpt lat="42.9527583" lon="13.295555"><ele>698.0</ele><time>2026-03-22T10:10:05.894Z</time></trkpt><trkpt lat="42.9527517" lon="13.295435"><ele>698.0</ele><time>2026-03-22T10:10:07.894Z</time></trkpt><trkpt lat="42.9527383" lon="13.2953"><ele>698.0</ele><time>2026-03-22T10:10:09.893Z</time></trkpt><trkpt lat="42.952715" lon="13.2951717"><ele>698.0</ele><time>2026-03-22T10:10:11.894Z</time></trkpt><trkpt lat="42.9526983" lon="13.29504"><ele>698.0</ele><time>2026-03-22T10:10:13.894Z</time></trkpt><trkpt lat="42.9526917" lon="13.2949"><ele>698.0</ele><time>2026-03-22T10:10:15.894Z</time></trkpt><trkpt lat="42.95268" lon="13.294785"><ele>698.0</ele><time>2026-03-22T10:10:17.893Z</time></trkpt><trkpt lat="42.95266" lon="13.294665"><ele>698.0</ele><time>2026-03-22T10:10:19.893Z</time></trkpt><trkpt lat="42.952645" lon="13.2945417"><ele>698.0</ele><time>2026-03-22T10:10:21.894Z</time></trkpt><trkpt lat="42.9526467" lon="13.2944067"><ele>697.6666666666666</ele><time>2026-03-22T10:10:23.893Z</time></trkpt><trkpt lat="42.95263" lon="13.2943"><ele>697.3333333333333</ele><time>2026-03-22T10:10:25.894Z</time></trkpt><trkpt lat="42.952625" lon="13.2941767"><ele>697.0</ele><time>2026-03-22T10:10:27.894Z</time></trkpt><trkpt lat="42.9526333" lon="13.29407"><ele>696.6666666666666</ele><time>2026-03-22T10:10:29.894Z</time></trkpt><trkpt lat="42.952635" lon="13.2939633"><ele>696.3333333333334</ele><time>2026-03-22T10:10:31.894Z</time></trkpt><trkpt lat="42.9526517" lon="13.2938683"><ele>696.0</ele><time>2026-03-22T10:10:33.894Z</time></trkpt><trkpt lat="42.952685" lon="13.2937783"><ele>697.5999999999999</ele><time>2026-03-22T10:10:36.894Z</time></trkpt><trkpt lat="42.9527117" lon="13.2936167"><ele>699.2</ele><time>2026-03-22T10:11:09.893Z</time></trkpt><trkpt lat="42.9527367" lon="13.293485"><ele>700.8</ele><time>2026-03-22T10:11:12.894Z</time></trkpt><trkpt lat="42.952745" lon="13.2933733"><ele>702.4000000000001</ele><time>2026-03-22T10:11:14.894Z</time></trkpt><trkpt lat="42.9527583" lon="13.2932583"><ele>704.0</ele><time>2026-03-22T10:11:16.893Z</time></trkpt><trkpt lat="42.95277" lon="13.2931433"><ele>704.2857142857143</ele><time>2026-03-22T10:11:18.894Z</time></trkpt><trkpt lat="42.9527833" lon="13.2930433"><ele>704.5714285714286</ele><time>2026-03-22T10:11:20.894Z</time></trkpt><trkpt lat="42.95279" lon="13.292935"><ele>704.8571428571429</ele><time>2026-03-22T10:11:22.893Z</time></trkpt><trkpt lat="42.9527767" lon="13.2928267"><ele>705.1428571428571</ele><time>2026-03-22T10:11:24.894Z</time></trkpt><trkpt lat="42.952755" lon="13.2927333"><ele>705.4285714285714</ele><time>2026-03-22T10:11:26.894Z</time></trkpt><trkpt lat="42.9527417" lon="13.29264"><ele>705.7142857142857</ele><time>2026-03-22T10:11:28.894Z</time></trkpt><trkpt lat="42.9527333" lon="13.292545"><ele>706.0</ele><time>2026-03-22T10:11:30.894Z</time></trkpt><trkpt lat="42.9526967" lon="13.2924467"><ele>706.0</ele><time>2026-03-22T10:11:32.894Z</time></trkpt><trkpt lat="42.9526733" lon="13.292365"><ele>706.0</ele><time>2026-03-22T10:11:34.893Z</time></trkpt><trkpt lat="42.9526617" lon="13.29226"><ele>706.0</ele><time>2026-03-22T10:11:37.893Z</time></trkpt><trkpt lat="42.9526467" lon="13.29212"><ele>706.0</ele><time>2026-03-22T10:11:52.894Z</time></trkpt><trkpt lat="42.9526183" lon="13.2920233"><ele>706.0</ele><time>2026-03-22T10:11:55.894Z</time></trkpt><trkpt lat="42.9526117" lon="13.2919317"><ele>706.0</ele><time>2026-03-22T10:11:57.893Z</time></trkpt><trkpt lat="42.9526017" lon="13.2918367"><ele>706.0</ele><time>2026-03-22T10:11:59.894Z</time></trkpt><trkpt lat="42.9525917" lon="13.2917117"><ele>706.0</ele><time>2026-03-22T10:12:02.893Z</time></trkpt><trkpt lat="42.95258" lon="13.2916083"><ele>706.0</ele><time>2026-03-22T10:12:05.894Z</time></trkpt><trkpt lat="42.95257" lon="13.2914967"><ele>706.0</ele><time>2026-03-22T10:12:09.894Z</time></trkpt><trkpt lat="42.9525733" lon="13.2914033"><ele>706.0</ele><time>2026-03-22T10:12:12.894Z</time></trkpt><trkpt lat="42.95258" lon="13.2912833"><ele>706.0</ele><time>2026-03-22T10:12:16.893Z</time></trkpt><trkpt lat="42.9525933" lon="13.291165"><ele>704.0</ele><time>2026-03-22T10:12:20.894Z</time></trkpt><trkpt lat="42.9525933" lon="13.2910517"><ele>702.0</ele><time>2026-03-22T10:12:23.894Z</time></trkpt><trkpt lat="42.952585" lon="13.290945"><ele>700.0</ele><time>2026-03-22T10:12:26.894Z</time></trkpt><trkpt lat="42.9525767" lon="13.2908383"><ele>698.0</ele><time>2026-03-22T10:12:30.894Z</time></trkpt><trkpt lat="42.9525683" lon="13.290745"><ele>696.0</ele><time>2026-03-22T10:12:33.894Z</time></trkpt><trkpt lat="42.95255" lon="13.2906617"><ele>694.0</ele><time>2026-03-22T10:13:06.894Z</time></trkpt><trkpt lat="42.9525217" lon="13.2905633"><ele>694.0</ele><time>2026-03-22T10:13:12.893Z</time></trkpt><trkpt lat="42.9525067" lon="13.2904683"><ele>694.0</ele><time>2026-03-22T10:13:15.893Z</time></trkpt><trkpt lat="42.9524667" lon="13.29039"><ele>694.0</ele><time>2026-03-22T10:13:19.892Z</time></trkpt><trkpt lat="42.9524267" lon="13.2903167"><ele>694.0</ele><time>2026-03-22T10:13:22.893Z</time></trkpt><trkpt lat="42.9523683" lon="13.2902217"><ele>694.0</ele><time>2026-03-22T10:13:27.892Z</time></trkpt><trkpt lat="42.952315" lon="13.2901633"><ele>694.0</ele><time>2026-03-22T10:13:31.893Z</time></trkpt><trkpt lat="42.9523117" lon="13.29007"><ele>694.0</ele><time>2026-03-22T10:13:47.892Z</time></trkpt><trkpt lat="42.9522783" lon="13.2899783"><ele>694.0</ele><time>2026-03-22T10:14:00.893Z</time></trkpt><trkpt lat="42.95224" lon="13.2899017"><ele>694.0</ele><time>2026-03-22T10:14:04.893Z</time></trkpt><trkpt lat="42.9522117" lon="13.2898233"><ele>694.0</ele><time>2026-03-22T10:14:08.893Z</time></trkpt><trkpt lat="42.9521617" lon="13.289765"><ele>694.0</ele><time>2026-03-22T10:14:13.892Z</time></trkpt><trkpt lat="42.9521167" lon="13.2896833"><ele>694.0</ele><time>2026-03-22T10:14:17.893Z</time></trkpt><trkpt lat="42.9520933" lon="13.289585"><ele>694.0</ele><time>2026-03-22T10:14:25.892Z</time></trkpt><trkpt lat="42.952055" lon="13.2895167"><ele>694.0</ele><time>2026-03-22T10:14:29.893Z</time></trkpt><trkpt lat="42.9520033" lon="13.2894483"><ele>696.6</ele><time>2026-03-22T10:14:33.893Z</time></trkpt><trkpt lat="42.951965" lon="13.289355"><ele>699.2</ele><time>2026-03-22T10:14:38.892Z</time></trkpt><trkpt lat="42.95192" lon="13.2892533"><ele>701.8000000000001</ele><time>2026-03-22T10:14:45.893Z</time></trkpt><trkpt lat="42.9519783" lon="13.2891533"><ele>704.4000000000001</ele><time>2026-03-22T10:17:58.892Z</time></trkpt><trkpt lat="42.951915" lon="13.28924"><ele>707.0</ele><time>2026-03-22T10:19:21.893Z</time></trkpt><trkpt lat="42.951895" lon="13.289385"><ele>707.0</ele><time>2026-03-22T11:14:07.898Z</time></trkpt><trkpt lat="42.9519317" lon="13.2894717"><ele>707.0</ele><time>2026-03-22T11:14:13.898Z</time></trkpt><trkpt lat="42.9519733" lon="13.2895733"><ele>707.0</ele><time>2026-03-22T11:14:18.898Z</time></trkpt><trkpt lat="42.9520083" lon="13.2896483"><ele>707.0</ele><time>2026-03-22T11:14:21.898Z</time></trkpt><trkpt lat="42.9520467" lon="13.2897483"><ele>707.0</ele><time>2026-03-22T11:14:25.897Z</time></trkpt><trkpt lat="42.9520867" lon="13.2898267"><ele>707.0</ele><time>2026-03-22T11:14:28.898Z</time></trkpt><trkpt lat="42.9521217" lon="13.2899083"><ele>707.0</ele><time>2026-03-22T11:14:31.898Z</time></trkpt><trkpt lat="42.9521717" lon="13.2900367"><ele>704.8333333333333</ele><time>2026-03-22T11:14:40.898Z</time></trkpt><trkpt lat="42.9522117" lon="13.2901067"><ele>702.6666666666666</ele><time>2026-03-22T11:14:44.897Z</time></trkpt><trkpt lat="42.9522533" lon="13.2901883"><ele>700.5</ele><time>2026-03-22T11:14:50.898Z</time></trkpt><trkpt lat="42.9522917" lon="13.2902567"><ele>698.3333333333334</ele><time>2026-03-22T11:14:55.898Z</time></trkpt><trkpt lat="42.95236" lon="13.290365"><ele>696.1666666666667</ele><time>2026-03-22T11:15:06.897Z</time></trkpt><trkpt lat="42.9524" lon="13.2904567"><ele>694.0</ele><time>2026-03-22T11:15:13.898Z</time></trkpt><trkpt lat="42.95242" lon="13.2905517"><ele>692.1666666666667</ele><time>2026-03-22T11:15:16.897Z</time></trkpt><trkpt lat="42.9524367" lon="13.2906383"><ele>690.3333333333334</ele><time>2026-03-22T11:15:18.898Z</time></trkpt><trkpt lat="42.9524417" lon="13.29075"><ele>688.5</ele><time>2026-03-22T11:15:21.898Z</time></trkpt><trkpt lat="42.9524517" lon="13.290845"><ele>686.6666666666666</ele><time>2026-03-22T11:15:24.898Z</time></trkpt><trkpt lat="42.9524683" lon="13.290965"><ele>684.8333333333333</ele><time>2026-03-22T11:15:28.898Z</time></trkpt><trkpt lat="42.9524733" lon="13.2910667"><ele>683.0</ele><time>2026-03-22T11:15:30.898Z</time></trkpt><trkpt lat="42.9524817" lon="13.2911683"><ele>683.0</ele><time>2026-03-22T11:15:32.898Z</time></trkpt><trkpt lat="42.9524833" lon="13.2912567"><ele>683.0</ele><time>2026-03-22T11:15:34.897Z</time></trkpt><trkpt lat="42.9524867" lon="13.291365"><ele>683.0</ele><time>2026-03-22T11:15:36.897Z</time></trkpt><trkpt lat="42.9524917" lon="13.2915017"><ele>683.0</ele><time>2026-03-22T11:15:38.898Z</time></trkpt><trkpt lat="42.952495" lon="13.2915917"><ele>683.0</ele><time>2026-03-22T11:15:39.898Z</time></trkpt><trkpt lat="42.9524983" lon="13.2916967"><ele>683.0</ele><time>2026-03-22T11:15:40.898Z</time></trkpt><trkpt lat="42.9525067" lon="13.291805"><ele>681.5</ele><time>2026-03-22T11:15:41.897Z</time></trkpt><trkpt lat="42.95252" lon="13.2919017"><ele>680.0</ele><time>2026-03-22T11:15:42.897Z</time></trkpt><trkpt lat="42.9525333" lon="13.2919967"><ele>678.5</ele><time>2026-03-22T11:15:43.898Z</time></trkpt><trkpt lat="42.95256" lon="13.2921633"><ele>677.0</ele><time>2026-03-22T11:15:45.898Z</time></trkpt><trkpt lat="42.95258" lon="13.29225"><ele>675.5</ele><time>2026-03-22T11:15:46.898Z</time></trkpt><trkpt lat="42.9525983" lon="13.29234"><ele>674.0</ele><time>2026-03-22T11:15:47.898Z</time></trkpt><trkpt lat="42.9526217" lon="13.292435"><ele>680.4000000000001</ele><time>2026-03-22T11:15:48.898Z</time></trkpt><trkpt lat="42.95265" lon="13.2925433"><ele>686.8</ele><time>2026-03-22T11:15:49.897Z</time></trkpt><trkpt lat="42.95267" lon="13.2926617"><ele>693.2</ele><time>2026-03-22T11:15:50.897Z</time></trkpt><trkpt lat="42.9526833" lon="13.2927883"><ele>699.5999999999999</ele><time>2026-03-22T11:15:51.898Z</time></trkpt><trkpt lat="42.9526933" lon="13.29292"><ele>706.0</ele><time>2026-03-22T11:15:52.897Z</time></trkpt><trkpt lat="42.95269" lon="13.293055"><ele>705.5999999999999</ele><time>2026-03-22T11:15:53.898Z</time></trkpt><trkpt lat="42.95268" lon="13.2931933"><ele>705.2</ele><time>2026-03-22T11:15:54.898Z</time></trkpt><trkpt lat="42.9526633" lon="13.2933283"><ele>704.8</ele><time>2026-03-22T11:15:55.898Z</time></trkpt><trkpt lat="42.9526483" lon="13.2934567"><ele>704.4000000000001</ele><time>2026-03-22T11:15:56.897Z</time></trkpt><trkpt lat="42.9526417" lon="13.2935767"><ele>704.0</ele><time>2026-03-22T11:15:57.898Z</time></trkpt><trkpt lat="42.9526267" lon="13.2936933"><ele>704.0</ele><time>2026-03-22T11:15:58.898Z</time></trkpt><trkpt lat="42.9526117" lon="13.2938183"><ele>704.0</ele><time>2026-03-22T11:15:59.897Z</time></trkpt><trkpt lat="42.9526017" lon="13.29394"><ele>704.0</ele><time>2026-03-22T11:16:00.897Z</time></trkpt><trkpt lat="42.95259" lon="13.294055"><ele>704.0</ele><time>2026-03-22T11:16:01.897Z</time></trkpt><trkpt lat="42.95258" lon="13.2941567"><ele>704.0</ele><time>2026-03-22T11:16:02.897Z</time></trkpt><trkpt lat="42.9525783" lon="13.2942617"><ele>704.0</ele><time>2026-03-22T11:16:03.898Z</time></trkpt><trkpt lat="42.952585" lon="13.2943667"><ele>702.8000000000001</ele><time>2026-03-22T11:16:04.898Z</time></trkpt><trkpt lat="42.9525917" lon="13.2944683"><ele>701.6</ele><time>2026-03-22T11:16:05.898Z</time></trkpt><trkpt lat="42.952605" lon="13.294585"><ele>700.4</ele><time>2026-03-22T11:16:06.898Z</time></trkpt><trkpt lat="42.9526183" lon="13.2947083"><ele>699.2</ele><time>2026-03-22T11:16:07.897Z</time></trkpt><trkpt lat="42.9526317" lon="13.2948367"><ele>698.0</ele><time>2026-03-22T11:16:08.897Z</time></trkpt><trkpt lat="42.9526517" lon="13.294975"><ele>698.0</ele><time>2026-03-22T11:16:09.898Z</time></trkpt><trkpt lat="42.9526733" lon="13.2951183"><ele>698.0</ele><time>2026-03-22T11:16:10.897Z</time></trkpt><trkpt lat="42.9526867" lon="13.2952667"><ele>698.0</ele><time>2026-03-22T11:16:11.897Z</time></trkpt><trkpt lat="42.9526883" lon="13.2954183"><ele>698.0</ele><time>2026-03-22T11:16:12.898Z</time></trkpt><trkpt lat="42.95269" lon="13.2955767"><ele>698.0</ele><time>2026-03-22T11:16:13.898Z</time></trkpt><trkpt lat="42.9526883" lon="13.2957583"><ele>698.0</ele><time>2026-03-22T11:16:14.898Z</time></trkpt><trkpt lat="42.9526733" lon="13.2959433"><ele>698.0</ele><time>2026-03-22T11:16:15.897Z</time></trkpt><trkpt lat="42.9526367" lon="13.2961033"><ele>698.0</ele><time>2026-03-22T11:16:16.898Z</time></trkpt><trkpt lat="42.9525983" lon="13.2962467"><ele>698.0</ele><time>2026-03-22T11:16:17.898Z</time></trkpt><trkpt lat="42.952565" lon="13.2963667"><ele>690.6666666666666</ele><time>2026-03-22T11:16:18.898Z</time></trkpt><trkpt lat="42.9525317" lon="13.29648"><ele>683.3333333333333</ele><time>2026-03-22T11:16:19.897Z</time></trkpt><trkpt lat="42.952495" lon="13.296575"><ele>676.0</ele><time>2026-03-22T11:16:20.898Z</time></trkpt><trkpt lat="42.95247" lon="13.2966667"><ele>668.6666666666666</ele><time>2026-03-22T11:16:21.898Z</time></trkpt><trkpt lat="42.9524317" lon="13.2967567"><ele>661.3333333333334</ele><time>2026-03-22T11:16:22.898Z</time></trkpt><trkpt lat="42.952385" lon="13.2968683"><ele>654.0</ele><time>2026-03-22T11:16:23.898Z</time></trkpt><trkpt lat="42.95234" lon="13.2969883"><ele>654.0</ele><time>2026-03-22T11:16:24.897Z</time></trkpt><trkpt lat="42.9522867" lon="13.2971"><ele>654.0</ele><time>2026-03-22T11:16:25.898Z</time></trkpt><trkpt lat="42.9522417" lon="13.2972133"><ele>654.0</ele><time>2026-03-22T11:16:26.897Z</time></trkpt><trkpt lat="42.9521967" lon="13.2973083"><ele>654.0</ele><time>2026-03-22T11:16:27.898Z</time></trkpt><trkpt lat="42.9521683" lon="13.2974"><ele>654.0</ele><time>2026-03-22T11:16:28.898Z</time></trkpt><trkpt lat="42.9521417" lon="13.2974817"><ele>654.0</ele><time>2026-03-22T11:16:29.897Z</time></trkpt><trkpt lat="42.9520933" lon="13.2976283"><ele>656.0</ele><time>2026-03-22T11:16:31.897Z</time></trkpt><trkpt lat="42.95204" lon="13.297785"><ele>658.0</ele><time>2026-03-22T11:16:33.898Z</time></trkpt><trkpt lat="42.9520117" lon="13.297885"><ele>660.0</ele><time>2026-03-22T11:16:34.898Z</time></trkpt><trkpt lat="42.9519983" lon="13.298"><ele>662.0</ele><time>2026-03-22T11:16:35.898Z</time></trkpt><trkpt lat="42.951985" lon="13.298105"><ele>664.0</ele><time>2026-03-22T11:16:36.897Z</time></trkpt><trkpt lat="42.9519667" lon="13.298215"><ele>666.4000000000001</ele><time>2026-03-22T11:16:37.897Z</time></trkpt><trkpt lat="42.951955" lon="13.2983383"><ele>668.8</ele><time>2026-03-22T11:16:38.897Z</time></trkpt><trkpt lat="42.9519383" lon="13.2984617"><ele>671.2</ele><time>2026-03-22T11:16:39.897Z</time></trkpt><trkpt lat="42.951925" lon="13.2985917"><ele>673.5999999999999</ele><time>2026-03-22T11:16:40.898Z</time></trkpt><trkpt lat="42.951915" lon="13.2987167"><ele>676.0</ele><time>2026-03-22T11:16:41.898Z</time></trkpt><trkpt lat="42.9519033" lon="13.2988283"><ele>676.1999999999999</ele><time>2026-03-22T11:16:42.898Z</time></trkpt><trkpt lat="42.9518917" lon="13.2989367"><ele>676.4</ele><time>2026-03-22T11:16:43.897Z</time></trkpt><trkpt lat="42.9518833" lon="13.2990583"><ele>676.6</ele><time>2026-03-22T11:16:44.898Z</time></trkpt><trkpt lat="42.9518667" lon="13.2991883"><ele>676.8</ele><time>2026-03-22T11:16:45.898Z</time></trkpt><trkpt lat="42.9518367" lon="13.2993283"><ele>677.0</ele><time>2026-03-22T11:16:46.897Z</time></trkpt><trkpt lat="42.951805" lon="13.2994767"><ele>677.0</ele><time>2026-03-22T11:16:47.898Z</time></trkpt><trkpt lat="42.9517717" lon="13.2996133"><ele>677.0</ele><time>2026-03-22T11:16:48.897Z</time></trkpt><trkpt lat="42.9517367" lon="13.299745"><ele>677.0</ele><time>2026-03-22T11:16:49.897Z</time></trkpt><trkpt lat="42.9516983" lon="13.2998817"><ele>677.0</ele><time>2026-03-22T11:16:50.898Z</time></trkpt><trkpt lat="42.9516683" lon="13.3000133"><ele>677.0</ele><time>2026-03-22T11:16:51.898Z</time></trkpt><trkpt lat="42.9516433" lon="13.30017"><ele>669.75</ele><time>2026-03-22T11:16:52.897Z</time></trkpt><trkpt lat="42.9516167" lon="13.3003433"><ele>662.5</ele><time>2026-03-22T11:16:53.898Z</time></trkpt><trkpt lat="42.9515983" lon="13.30052"><ele>655.25</ele><time>2026-03-22T11:16:54.898Z</time></trkpt><trkpt lat="42.9515817" lon="13.3007033"><ele>648.0</ele><time>2026-03-22T11:16:55.898Z</time></trkpt><trkpt lat="42.9515667" lon="13.30089"><ele>648.0</ele><time>2026-03-22T11:16:56.898Z</time></trkpt><trkpt lat="42.9515683" lon="13.301075"><ele>648.0</ele><time>2026-03-22T11:16:57.897Z</time></trkpt><trkpt lat="42.9515683" lon="13.3012617"><ele>648.0</ele><time>2026-03-22T11:16:58.897Z</time></trkpt><trkpt lat="42.951555" lon="13.3014467"><ele>648.0</ele><time>2026-03-22T11:16:59.897Z</time></trkpt><trkpt lat="42.9515383" lon="13.301655"><ele>646.75</ele><time>2026-03-22T11:17:00.898Z</time></trkpt><trkpt lat="42.9515333" lon="13.3018433"><ele>645.5</ele><time>2026-03-22T11:17:01.898Z</time></trkpt><trkpt lat="42.9515317" lon="13.30202"><ele>644.25</ele><time>2026-03-22T11:17:02.897Z</time></trkpt><trkpt lat="42.9515217" lon="13.3021683"><ele>643.0</ele><time>2026-03-22T11:17:03.897Z</time></trkpt><trkpt lat="42.95151" lon="13.3023017"><ele>641.6666666666667</ele><time>2026-03-22T11:17:04.898Z</time></trkpt><trkpt lat="42.9515033" lon="13.3024167"><ele>640.3333333333334</ele><time>2026-03-22T11:17:05.897Z</time></trkpt><trkpt lat="42.95151" lon="13.3025317"><ele>639.0</ele><time>2026-03-22T11:17:06.898Z</time></trkpt><trkpt lat="42.9515233" lon="13.3026483"><ele>637.6666666666666</ele><time>2026-03-22T11:17:07.898Z</time></trkpt><trkpt lat="42.9515417" lon="13.3027683"><ele>636.3333333333333</ele><time>2026-03-22T11:17:08.897Z</time></trkpt><trkpt lat="42.9515717" lon="13.3029017"><ele>635.0</ele><time>2026-03-22T11:17:09.898Z</time></trkpt><trkpt lat="42.951595" lon="13.3030417"><ele>631.75</ele><time>2026-03-22T11:17:10.898Z</time></trkpt><trkpt lat="42.95163" lon="13.3031883"><ele>628.5</ele><time>2026-03-22T11:17:11.896Z</time></trkpt><trkpt lat="42.95166" lon="13.3033417"><ele>625.25</ele><time>2026-03-22T11:17:12.898Z</time></trkpt><trkpt lat="42.95169" lon="13.3035083"><ele>622.0</ele><time>2026-03-22T11:17:13.897Z</time></trkpt><trkpt lat="42.9517283" lon="13.3036833"><ele>622.0</ele><time>2026-03-22T11:17:14.897Z</time></trkpt><trkpt lat="42.9517483" lon="13.30387"><ele>622.0</ele><time>2026-03-22T11:17:15.897Z</time></trkpt><trkpt lat="42.951745" lon="13.3040633"><ele>622.0</ele><time>2026-03-22T11:17:16.897Z</time></trkpt><trkpt lat="42.9517383" lon="13.304255"><ele>622.0</ele><time>2026-03-22T11:17:17.898Z</time></trkpt><trkpt lat="42.951725" lon="13.3044633"><ele>621.75</ele><time>2026-03-22T11:17:18.898Z</time></trkpt><trkpt lat="42.9517133" lon="13.304665"><ele>621.5</ele><time>2026-03-22T11:17:19.897Z</time></trkpt><trkpt lat="42.95171" lon="13.304855"><ele>621.25</ele><time>2026-03-22T11:17:20.898Z</time></trkpt><trkpt lat="42.9516983" lon="13.3050533"><ele>621.0</ele><time>2026-03-22T11:17:21.898Z</time></trkpt><trkpt lat="42.9516883" lon="13.3052683"><ele>621.0</ele><time>2026-03-22T11:17:22.898Z</time></trkpt><trkpt lat="42.9516917" lon="13.3055167"><ele>621.0</ele><time>2026-03-22T11:17:23.898Z</time></trkpt><trkpt lat="42.95173" lon="13.3057817"><ele>621.0</ele><time>2026-03-22T11:17:24.898Z</time></trkpt><trkpt lat="42.9518017" lon="13.30606"><ele>624.5</ele><time>2026-03-22T11:17:25.898Z</time></trkpt><trkpt lat="42.9518933" lon="13.3063483"><ele>628.0</ele><time>2026-03-22T11:17:26.898Z</time></trkpt><trkpt lat="42.95197" lon="13.30664"><ele>628.0</ele><time>2026-03-22T11:17:27.898Z</time></trkpt><trkpt lat="42.952015" lon="13.3069367"><ele>628.0</ele><time>2026-03-22T11:17:28.898Z</time></trkpt><trkpt lat="42.9520433" lon="13.3072217"><ele>628.0</ele><time>2026-03-22T11:17:29.898Z</time></trkpt><trkpt lat="42.9520633" lon="13.3074917"><ele>629.0</ele><time>2026-03-22T11:17:30.897Z</time></trkpt><trkpt lat="42.9520867" lon="13.3077567"><ele>630.0</ele><time>2026-03-22T11:17:31.898Z</time></trkpt><trkpt lat="42.9521167" lon="13.307995"><ele>631.0</ele><time>2026-03-22T11:17:32.898Z</time></trkpt><trkpt lat="42.9521433" lon="13.3082267"><ele>631.0</ele><time>2026-03-22T11:17:33.898Z</time></trkpt><trkpt lat="42.95218" lon="13.3084617"><ele>631.0</ele><time>2026-03-22T11:17:34.898Z</time></trkpt><trkpt lat="42.9522367" lon="13.308695"><ele>631.0</ele><time>2026-03-22T11:17:35.897Z</time></trkpt><trkpt lat="42.952315" lon="13.3089433"><ele>624.0</ele><time>2026-03-22T11:17:36.898Z</time></trkpt><trkpt lat="42.9524167" lon="13.3091967"><ele>617.0</ele><time>2026-03-22T11:17:37.897Z</time></trkpt><trkpt lat="42.9525417" lon="13.30943"><ele>610.0</ele><time>2026-03-22T11:17:38.897Z</time></trkpt><trkpt lat="42.9526783" lon="13.3096583"><ele>615.3333333333334</ele><time>2026-03-22T11:17:39.898Z</time></trkpt><trkpt lat="42.9528033" lon="13.3098683"><ele>620.6666666666666</ele><time>2026-03-22T11:17:40.898Z</time></trkpt><trkpt lat="42.9529217" lon="13.3100633"><ele>626.0</ele><time>2026-03-22T11:17:41.898Z</time></trkpt><trkpt lat="42.95303" lon="13.3102517"><ele>626.0</ele><time>2026-03-22T11:17:42.898Z</time></trkpt><trkpt lat="42.9531183" lon="13.3104367"><ele>626.0</ele><time>2026-03-22T11:17:43.897Z</time></trkpt><trkpt lat="42.953175" lon="13.310635"><ele>626.0</ele><time>2026-03-22T11:17:44.897Z</time></trkpt><trkpt lat="42.9531967" lon="13.31083"><ele>620.75</ele><time>2026-03-22T11:17:45.898Z</time></trkpt><trkpt lat="42.9531883" lon="13.3110217"><ele>615.5</ele><time>2026-03-22T11:17:46.897Z</time></trkpt><trkpt lat="42.9531667" lon="13.3111983"><ele>610.25</ele><time>2026-03-22T11:17:47.898Z</time></trkpt><trkpt lat="42.9531267" lon="13.3113617"><ele>605.0</ele><time>2026-03-22T11:17:48.898Z</time></trkpt><trkpt lat="42.953065" lon="13.3115"><ele>605.0</ele><time>2026-03-22T11:17:49.897Z</time></trkpt><trkpt lat="42.9529583" lon="13.3116383"><ele>605.0</ele><time>2026-03-22T11:17:50.898Z</time></trkpt><trkpt lat="42.9528683" lon="13.3117567"><ele>605.0</ele><time>2026-03-22T11:17:51.897Z</time></trkpt><trkpt lat="42.952795" lon="13.31187"><ele>605.0</ele><time>2026-03-22T11:17:52.898Z</time></trkpt><trkpt lat="42.95275" lon="13.3120267"><ele>605.0</ele><time>2026-03-22T11:17:53.898Z</time></trkpt><trkpt lat="42.9527317" lon="13.312195"><ele>605.0</ele><time>2026-03-22T11:17:54.898Z</time></trkpt><trkpt lat="42.9527133" lon="13.3123783"><ele>605.0</ele><time>2026-03-22T11:17:55.898Z</time></trkpt><trkpt lat="42.9527033" lon="13.3125683"><ele>605.0</ele><time>2026-03-22T11:17:56.897Z</time></trkpt><trkpt lat="42.9527283" lon="13.3127467"><ele>604.5</ele><time>2026-03-22T11:17:57.898Z</time></trkpt><trkpt lat="42.9527867" lon="13.3129217"><ele>604.0</ele><time>2026-03-22T11:17:58.897Z</time></trkpt><trkpt lat="42.9528567" lon="13.3131017"><ele>603.5</ele><time>2026-03-22T11:17:59.897Z</time></trkpt><trkpt lat="42.9529217" lon="13.3132833"><ele>603.0</ele><time>2026-03-22T11:18:00.898Z</time></trkpt><trkpt lat="42.952985" lon="13.313465"><ele>600.3333333333334</ele><time>2026-03-22T11:18:01.897Z</time></trkpt><trkpt lat="42.9530483" lon="13.3136517"><ele>597.6666666666667</ele><time>2026-03-22T11:18:02.897Z</time></trkpt><trkpt lat="42.95312" lon="13.3138433"><ele>595.0</ele><time>2026-03-22T11:18:03.898Z</time></trkpt><trkpt lat="42.9532067" lon="13.3140417"><ele>593.0</ele><time>2026-03-22T11:18:04.898Z</time></trkpt><trkpt lat="42.9532867" lon="13.3142367"><ele>591.0</ele><time>2026-03-22T11:18:05.898Z</time></trkpt><trkpt lat="42.9533467" lon="13.3144383"><ele>589.0</ele><time>2026-03-22T11:18:06.898Z</time></trkpt><trkpt lat="42.9533917" lon="13.3146567"><ele>598.3333333333334</ele><time>2026-03-22T11:18:07.897Z</time></trkpt><trkpt lat="42.9534067" lon="13.3148967"><ele>607.6666666666666</ele><time>2026-03-22T11:18:08.898Z</time></trkpt><trkpt lat="42.9534067" lon="13.3151417"><ele>617.0</ele><time>2026-03-22T11:18:09.898Z</time></trkpt><trkpt lat="42.9533983" lon="13.3153933"><ele>617.0</ele><time>2026-03-22T11:18:10.898Z</time></trkpt><trkpt lat="42.9534133" lon="13.3156467"><ele>617.0</ele><time>2026-03-22T11:18:11.898Z</time></trkpt><trkpt lat="42.9534383" lon="13.3159067"><ele>617.0</ele><time>2026-03-22T11:18:12.898Z</time></trkpt><trkpt lat="42.953485" lon="13.31617"><ele>615.3333333333333</ele><time>2026-03-22T11:18:13.897Z</time></trkpt><trkpt lat="42.95353" lon="13.31643"><ele>613.6666666666666</ele><time>2026-03-22T11:18:14.897Z</time></trkpt><trkpt lat="42.9535683" lon="13.3166817"><ele>612.0</ele><time>2026-03-22T11:18:15.898Z</time></trkpt><trkpt lat="42.9536117" lon="13.3169267"><ele>612.0</ele><time>2026-03-22T11:18:16.897Z</time></trkpt><trkpt lat="42.9536317" lon="13.317155"><ele>612.0</ele><time>2026-03-22T11:18:17.897Z</time></trkpt><trkpt lat="42.9536367" lon="13.3173733"><ele>612.0</ele><time>2026-03-22T11:18:18.898Z</time></trkpt><trkpt lat="42.9536167" lon="13.317585"><ele>610.0</ele><time>2026-03-22T11:18:19.898Z</time></trkpt><trkpt lat="42.9535933" lon="13.3177867"><ele>608.0</ele><time>2026-03-22T11:18:20.898Z</time></trkpt><trkpt lat="42.9535417" lon="13.317975"><ele>606.0</ele><time>2026-03-22T11:18:21.898Z</time></trkpt><trkpt lat="42.953465" lon="13.31815"><ele>604.0</ele><time>2026-03-22T11:18:22.897Z</time></trkpt><trkpt lat="42.9533933" lon="13.3183117"><ele>593.3333333333334</ele><time>2026-03-22T11:18:23.897Z</time></trkpt><trkpt lat="42.9533167" lon="13.3184967"><ele>582.6666666666666</ele><time>2026-03-22T11:18:24.897Z</time></trkpt><trkpt lat="42.9532367" lon="13.318685"><ele>572.0</ele><time>2026-03-22T11:18:25.898Z</time></trkpt><trkpt lat="42.9531567" lon="13.3189033"><ele>571.0</ele><time>2026-03-22T11:18:26.897Z</time></trkpt><trkpt lat="42.9531017" lon="13.31916"><ele>570.0</ele><time>2026-03-22T11:18:27.898Z</time></trkpt><trkpt lat="42.9530733" lon="13.3194333"><ele>569.0</ele><time>2026-03-22T11:18:28.898Z</time></trkpt><trkpt lat="42.953055" lon="13.3197"><ele>568.6666666666666</ele><time>2026-03-22T11:18:29.898Z</time></trkpt><trkpt lat="42.9530267" lon="13.3199833"><ele>568.3333333333334</ele><time>2026-03-22T11:18:30.897Z</time></trkpt><trkpt lat="42.9529733" lon="13.320265"><ele>568.0</ele><time>2026-03-22T11:18:31.897Z</time></trkpt><trkpt lat="42.9529083" lon="13.32054"><ele>568.0</ele><time>2026-03-22T11:18:32.898Z</time></trkpt><trkpt lat="42.9528333" lon="13.3208233"><ele>568.0</ele><time>2026-03-22T11:18:33.898Z</time></trkpt><trkpt lat="42.9527533" lon="13.3210883"><ele>568.0</ele><time>2026-03-22T11:18:34.897Z</time></trkpt><trkpt lat="42.9526833" lon="13.3213517"><ele>569.0</ele><time>2026-03-22T11:18:35.898Z</time></trkpt><trkpt lat="42.95261" lon="13.3215983"><ele>570.0</ele><time>2026-03-22T11:18:36.898Z</time></trkpt><trkpt lat="42.9525317" lon="13.3218367"><ele>571.0</ele><time>2026-03-22T11:18:37.898Z</time></trkpt><trkpt lat="42.95246" lon="13.3220767"><ele>569.3333333333334</ele><time>2026-03-22T11:18:38.897Z</time></trkpt><trkpt lat="42.952385" lon="13.32232"><ele>567.6666666666666</ele><time>2026-03-22T11:18:39.898Z</time></trkpt><trkpt lat="42.95232" lon="13.3225483"><ele>566.0</ele><time>2026-03-22T11:18:40.898Z</time></trkpt><trkpt lat="42.9522433" lon="13.3227683"><ele>566.0</ele><time>2026-03-22T11:18:41.897Z</time></trkpt><trkpt lat="42.95216" lon="13.3229933"><ele>566.0</ele><time>2026-03-22T11:18:42.898Z</time></trkpt><trkpt lat="42.952065" lon="13.3232"><ele>566.0</ele><time>2026-03-22T11:18:43.897Z</time></trkpt><trkpt lat="42.9519633" lon="13.323375"><ele>564.0</ele><time>2026-03-22T11:18:44.898Z</time></trkpt><trkpt lat="42.9518617" lon="13.3235233"><ele>562.0</ele><time>2026-03-22T11:18:45.898Z</time></trkpt><trkpt lat="42.9517567" lon="13.32365"><ele>560.0</ele><time>2026-03-22T11:18:46.898Z</time></trkpt><trkpt lat="42.951665" lon="13.3237733"><ele>558.0</ele><time>2026-03-22T11:18:47.898Z</time></trkpt><trkpt lat="42.951565" lon="13.323905"><ele>558.0</ele><time>2026-03-22T11:18:48.897Z</time></trkpt><trkpt lat="42.9514517" lon="13.324055"><ele>558.0</ele><time>2026-03-22T11:18:49.897Z</time></trkpt><trkpt lat="42.95132" lon="13.324215"><ele>558.0</ele><time>2026-03-22T11:18:50.898Z</time></trkpt><trkpt lat="42.951185" lon="13.3243767"><ele>558.0</ele><time>2026-03-22T11:18:51.897Z</time></trkpt><trkpt lat="42.9510383" lon="13.3245467"><ele>558.0</ele><time>2026-03-22T11:18:52.898Z</time></trkpt><trkpt lat="42.9508867" lon="13.32474"><ele>558.0</ele><time>2026-03-22T11:18:53.897Z</time></trkpt><trkpt lat="42.9507233" lon="13.3249333"><ele>556.5</ele><time>2026-03-22T11:18:54.898Z</time></trkpt><trkpt lat="42.9505367" lon="13.3251367"><ele>555.0</ele><time>2026-03-22T11:18:55.897Z</time></trkpt><trkpt lat="42.950355" lon="13.3253567"><ele>553.0</ele><time>2026-03-22T11:18:56.898Z</time></trkpt><trkpt lat="42.95017" lon="13.3255817"><ele>551.0</ele><time>2026-03-22T11:18:57.898Z</time></trkpt><trkpt lat="42.9499767" lon="13.3258183"><ele>551.0</ele><time>2026-03-22T11:18:58.898Z</time></trkpt><trkpt lat="42.949775" lon="13.32604"><ele>551.0</ele><time>2026-03-22T11:18:59.897Z</time></trkpt><trkpt lat="42.9495833" lon="13.3262733"><ele>561.5</ele><time>2026-03-22T11:19:00.898Z</time></trkpt><trkpt lat="42.9494" lon="13.3264967"><ele>572.0</ele><time>2026-03-22T11:19:01.898Z</time></trkpt><trkpt lat="42.94922" lon="13.32671"><ele>557.0</ele><time>2026-03-22T11:19:02.897Z</time></trkpt><trkpt lat="42.9490433" lon="13.326915"><ele>542.0</ele><time>2026-03-22T11:19:03.897Z</time></trkpt><trkpt lat="42.9488667" lon="13.3271117"><ele>541.3333333333333</ele><time>2026-03-22T11:19:04.897Z</time></trkpt><trkpt lat="42.9486917" lon="13.327305"><ele>540.6666666666666</ele><time>2026-03-22T11:19:05.897Z</time></trkpt><trkpt lat="42.9485183" lon="13.3274917"><ele>540.0</ele><time>2026-03-22T11:19:06.897Z</time></trkpt><trkpt lat="42.9483517" lon="13.32767"><ele>540.0</ele><time>2026-03-22T11:19:07.898Z</time></trkpt><trkpt lat="42.94818" lon="13.3278417"><ele>540.0</ele><time>2026-03-22T11:19:08.898Z</time></trkpt><trkpt lat="42.948005" lon="13.3279867"><ele>540.0</ele><time>2026-03-22T11:19:09.898Z</time></trkpt><trkpt lat="42.9478483" lon="13.3281383"><ele>538.6666666666666</ele><time>2026-03-22T11:19:10.897Z</time></trkpt><trkpt lat="42.947685" lon="13.3282867"><ele>537.3333333333333</ele><time>2026-03-22T11:19:11.898Z</time></trkpt><trkpt lat="42.9475217" lon="13.3284383"><ele>536.0</ele><time>2026-03-22T11:19:12.897Z</time></trkpt><trkpt lat="42.947365" lon="13.3285833"><ele>536.0</ele><time>2026-03-22T11:19:13.898Z</time></trkpt><trkpt lat="42.9472083" lon="13.328725"><ele>536.0</ele><time>2026-03-22T11:19:14.898Z</time></trkpt><trkpt lat="42.94705" lon="13.3288617"><ele>536.0</ele><time>2026-03-22T11:19:15.898Z</time></trkpt><trkpt lat="42.94689" lon="13.3289917"><ele>535.6666666666666</ele><time>2026-03-22T11:19:16.898Z</time></trkpt><trkpt lat="42.94674" lon="13.329135"><ele>535.3333333333334</ele><time>2026-03-22T11:19:17.898Z</time></trkpt><trkpt lat="42.946585" lon="13.3293017"><ele>535.0</ele><time>2026-03-22T11:19:18.897Z</time></trkpt><trkpt lat="42.94644" lon="13.329465"><ele>535.0</ele><time>2026-03-22T11:19:19.898Z</time></trkpt><trkpt lat="42.9462983" lon="13.3296283"><ele>535.0</ele><time>2026-03-22T11:19:20.897Z</time></trkpt><trkpt lat="42.9461483" lon="13.3297833"><ele>535.0</ele><time>2026-03-22T11:19:21.898Z</time></trkpt><trkpt lat="42.94601" lon="13.3299367"><ele>533.6666666666667</ele><time>2026-03-22T11:19:22.898Z</time></trkpt><trkpt lat="42.9458733" lon="13.330085"><ele>532.3333333333334</ele><time>2026-03-22T11:19:23.897Z</time></trkpt><trkpt lat="42.9457217" lon="13.3301967"><ele>531.0</ele><time>2026-03-22T11:19:24.898Z</time></trkpt><trkpt lat="42.9455633" lon="13.3302917"><ele>531.0</ele><time>2026-03-22T11:19:25.898Z</time></trkpt><trkpt lat="42.94542" lon="13.33038"><ele>531.0</ele><time>2026-03-22T11:19:26.897Z</time></trkpt><trkpt lat="42.9452833" lon="13.3304683"><ele>531.0</ele><time>2026-03-22T11:19:27.898Z</time></trkpt><trkpt lat="42.9451367" lon="13.330565"><ele>530.0</ele><time>2026-03-22T11:19:28.897Z</time></trkpt><trkpt lat="42.9450067" lon="13.3306617"><ele>529.0</ele><time>2026-03-22T11:19:29.898Z</time></trkpt><trkpt lat="42.9448833" lon="13.3307683"><ele>528.0</ele><time>2026-03-22T11:19:30.898Z</time></trkpt><trkpt lat="42.9447683" lon="13.3308983"><ele>527.0</ele><time>2026-03-22T11:19:31.897Z</time></trkpt><trkpt lat="42.94466" lon="13.33104"><ele>527.0</ele><time>2026-03-22T11:19:32.898Z</time></trkpt><trkpt lat="42.9445617" lon="13.3312067"><ele>527.0</ele><time>2026-03-22T11:19:33.898Z</time></trkpt><trkpt lat="42.9444867" lon="13.3313883"><ele>527.0</ele><time>2026-03-22T11:19:34.897Z</time></trkpt><trkpt lat="42.9444183" lon="13.3315617"><ele>526.5</ele><time>2026-03-22T11:19:35.897Z</time></trkpt><trkpt lat="42.9443583" lon="13.3317267"><ele>526.0</ele><time>2026-03-22T11:19:36.898Z</time></trkpt><trkpt lat="42.944295" lon="13.3318933"><ele>525.5</ele><time>2026-03-22T11:19:37.897Z</time></trkpt><trkpt lat="42.9442233" lon="13.3320733"><ele>525.0</ele><time>2026-03-22T11:19:38.898Z</time></trkpt><trkpt lat="42.9441583" lon="13.3322583"><ele>523.6666666666666</ele><time>2026-03-22T11:19:39.897Z</time></trkpt><trkpt lat="42.9440917" lon="13.3324433"><ele>522.3333333333333</ele><time>2026-03-22T11:19:40.897Z</time></trkpt><trkpt lat="42.944025" lon="13.3326233"><ele>521.0</ele><time>2026-03-22T11:19:41.898Z</time></trkpt><trkpt lat="42.9439467" lon="13.3328133"><ele>521.0</ele><time>2026-03-22T11:19:42.897Z</time></trkpt><trkpt lat="42.9438717" lon="13.333005"><ele>521.0</ele><time>2026-03-22T11:19:43.897Z</time></trkpt><trkpt lat="42.9438083" lon="13.3331733"><ele>521.0</ele><time>2026-03-22T11:19:44.898Z</time></trkpt><trkpt lat="42.9437533" lon="13.33333"><ele>521.0</ele><time>2026-03-22T11:19:45.897Z</time></trkpt><trkpt lat="42.9436967" lon="13.3334817"><ele>520.2</ele><time>2026-03-22T11:19:46.898Z</time></trkpt><trkpt lat="42.9436517" lon="13.3336067"><ele>519.4000000000001</ele><time>2026-03-22T11:19:47.898Z</time></trkpt><trkpt lat="42.943615" lon="13.3337017"><ele>518.6</ele><time>2026-03-22T11:19:48.897Z</time></trkpt><trkpt lat="42.9436133" lon="13.3338533"><ele>517.8000000000001</ele><time>2026-03-22T11:19:50.898Z</time></trkpt><trkpt lat="42.943655" lon="13.3339367"><ele>517.0</ele><time>2026-03-22T11:19:51.898Z</time></trkpt><trkpt lat="42.94372" lon="13.3340267"><ele>517.25</ele><time>2026-03-22T11:19:52.898Z</time></trkpt><trkpt lat="42.94381" lon="13.3340883"><ele>517.5</ele><time>2026-03-22T11:19:53.898Z</time></trkpt><trkpt lat="42.943925" lon="13.3341233"><ele>517.75</ele><time>2026-03-22T11:19:54.898Z</time></trkpt><trkpt lat="42.9440717" lon="13.3341333"><ele>518.0</ele><time>2026-03-22T11:19:55.897Z</time></trkpt><trkpt lat="42.9442317" lon="13.33413"><ele>518.0</ele><time>2026-03-22T11:19:56.898Z</time></trkpt><trkpt lat="42.9443917" lon="13.334145"><ele>518.0</ele><time>2026-03-22T11:19:57.898Z</time></trkpt><trkpt lat="42.9445383" lon="13.3341883"><ele>518.0</ele><time>2026-03-22T11:19:58.897Z</time></trkpt><trkpt lat="42.944675" lon="13.334255"><ele>518.0</ele><time>2026-03-22T11:19:59.898Z</time></trkpt><trkpt lat="42.944815" lon="13.3343267"><ele>518.0</ele><time>2026-03-22T11:20:00.899Z</time></trkpt><trkpt lat="42.9449433" lon="13.3344133"><ele>518.0</ele><time>2026-03-22T11:20:01.898Z</time></trkpt><trkpt lat="42.94506" lon="13.3345017"><ele>518.0</ele><time>2026-03-22T11:20:02.898Z</time></trkpt><trkpt lat="42.9451683" lon="13.3345983"><ele>519.0</ele><time>2026-03-22T11:20:03.899Z</time></trkpt><trkpt lat="42.9452617" lon="13.3346933"><ele>520.0</ele><time>2026-03-22T11:20:04.898Z</time></trkpt><trkpt lat="42.9453317" lon="13.3348133"><ele>521.0</ele><time>2026-03-22T11:20:05.899Z</time></trkpt><trkpt lat="42.9454067" lon="13.3349383"><ele>522.0</ele><time>2026-03-22T11:20:06.899Z</time></trkpt><trkpt lat="42.94547" lon="13.3350783"><ele>522.0</ele><time>2026-03-22T11:20:07.899Z</time></trkpt><trkpt lat="42.9455283" lon="13.3352483"><ele>522.0</ele><time>2026-03-22T11:20:08.899Z</time></trkpt><trkpt lat="42.9455883" lon="13.3354167"><ele>522.0</ele><time>2026-03-22T11:20:09.899Z</time></trkpt><trkpt lat="42.945655" lon="13.33559"><ele>522.0</ele><time>2026-03-22T11:20:10.899Z</time></trkpt><trkpt lat="42.9457167" lon="13.3357367"><ele>520.2</ele><time>2026-03-22T11:20:11.898Z</time></trkpt><trkpt lat="42.9457617" lon="13.335885"><ele>518.4000000000001</ele><time>2026-03-22T11:20:12.898Z</time></trkpt><trkpt lat="42.9457783" lon="13.3360417"><ele>516.5999999999999</ele><time>2026-03-22T11:20:13.899Z</time></trkpt><trkpt lat="42.9457967" lon="13.336185"><ele>514.8</ele><time>2026-03-22T11:20:14.899Z</time></trkpt><trkpt lat="42.9458283" lon="13.336305"><ele>513.0</ele><time>2026-03-22T11:20:15.899Z</time></trkpt><trkpt lat="42.9458717" lon="13.3364083"><ele>515.5</ele><time>2026-03-22T11:20:16.899Z</time></trkpt><trkpt lat="42.945945" lon="13.336505"><ele>518.0</ele><time>2026-03-22T11:20:17.898Z</time></trkpt><trkpt lat="42.9460617" lon="13.3365967"><ele>520.5</ele><time>2026-03-22T11:20:18.899Z</time></trkpt><trkpt lat="42.9462083" lon="13.3366883"><ele>523.0</ele><time>2026-03-22T11:20:19.899Z</time></trkpt><trkpt lat="42.9463833" lon="13.3367933"><ele>523.0</ele><time>2026-03-22T11:20:20.898Z</time></trkpt><trkpt lat="42.946565" lon="13.3369217"><ele>523.0</ele><time>2026-03-22T11:20:21.899Z</time></trkpt><trkpt lat="42.946735" lon="13.3370683"><ele>523.0</ele><time>2026-03-22T11:20:22.898Z</time></trkpt><trkpt lat="42.9468883" lon="13.3372117"><ele>521.6666666666667</ele><time>2026-03-22T11:20:23.899Z</time></trkpt><trkpt lat="42.9470383" lon="13.3373267"><ele>520.3333333333334</ele><time>2026-03-22T11:20:24.899Z</time></trkpt><trkpt lat="42.9471667" lon="13.33745"><ele>519.0</ele><time>2026-03-22T11:20:25.899Z</time></trkpt><trkpt lat="42.9472817" lon="13.3375483"><ele>519.0</ele><time>2026-03-22T11:20:26.898Z</time></trkpt><trkpt lat="42.9473683" lon="13.3376567"><ele>519.0</ele><time>2026-03-22T11:20:27.899Z</time></trkpt><trkpt lat="42.94744" lon="13.3377767"><ele>519.0</ele><time>2026-03-22T11:20:28.898Z</time></trkpt><trkpt lat="42.947515" lon="13.3379167"><ele>519.0</ele><time>2026-03-22T11:20:29.899Z</time></trkpt><trkpt lat="42.947595" lon="13.33808"><ele>519.0</ele><time>2026-03-22T11:20:30.899Z</time></trkpt><trkpt lat="42.9476583" lon="13.3382317"><ele>519.0</ele><time>2026-03-22T11:20:31.898Z</time></trkpt><trkpt lat="42.947735" lon="13.338375"><ele>519.0</ele><time>2026-03-22T11:20:32.899Z</time></trkpt><trkpt lat="42.9478283" lon="13.3385117"><ele>519.0</ele><time>2026-03-22T11:20:33.898Z</time></trkpt><trkpt lat="42.9479217" lon="13.3386217"><ele>519.0</ele><time>2026-03-22T11:20:34.899Z</time></trkpt><trkpt lat="42.9480167" lon="13.33872"><ele>519.0</ele><time>2026-03-22T11:20:35.899Z</time></trkpt><trkpt lat="42.94811" lon="13.3388017"><ele>519.0</ele><time>2026-03-22T11:20:36.899Z</time></trkpt><trkpt lat="42.9482117" lon="13.33886"><ele>519.0</ele><time>2026-03-22T11:20:37.898Z</time></trkpt><trkpt lat="42.948325" lon="13.3388883"><ele>513.75</ele><time>2026-03-22T11:20:38.899Z</time></trkpt><trkpt lat="42.94844" lon="13.338895"><ele>508.5</ele><time>2026-03-22T11:20:39.899Z</time></trkpt><trkpt lat="42.9485817" lon="13.3388983"><ele>503.25</ele><time>2026-03-22T11:20:40.898Z</time></trkpt><trkpt lat="42.948735" lon="13.3389017"><ele>498.0</ele><time>2026-03-22T11:20:41.899Z</time></trkpt><trkpt lat="42.9488867" lon="13.3389017"><ele>498.0</ele><time>2026-03-22T11:20:42.899Z</time></trkpt><trkpt lat="42.949045" lon="13.338895"><ele>498.0</ele><time>2026-03-22T11:20:43.899Z</time></trkpt><trkpt lat="42.9492117" lon="13.3388833"><ele>498.0</ele><time>2026-03-22T11:20:44.899Z</time></trkpt><trkpt lat="42.9493767" lon="13.338885"><ele>500.0</ele><time>2026-03-22T11:20:45.899Z</time></trkpt><trkpt lat="42.9495333" lon="13.33888"><ele>502.0</ele><time>2026-03-22T11:20:46.899Z</time></trkpt><trkpt lat="42.9496917" lon="13.3388917"><ele>504.0</ele><time>2026-03-22T11:20:47.899Z</time></trkpt><trkpt lat="42.949815" lon="13.3389183"><ele>506.0</ele><time>2026-03-22T11:20:48.898Z</time></trkpt><trkpt lat="42.949915" lon="13.338955"><ele>506.0</ele><time>2026-03-22T11:20:49.899Z</time></trkpt><trkpt lat="42.9499933" lon="13.3390033"><ele>506.0</ele><time>2026-03-22T11:20:50.899Z</time></trkpt><trkpt lat="42.9500533" lon="13.3390383"><ele>506.0</ele><time>2026-03-22T11:20:51.898Z</time></trkpt><trkpt lat="42.95016" lon="13.33911"><ele>506.0</ele><time>2026-03-22T11:20:53.899Z</time></trkpt><trkpt lat="42.950265" lon="13.339165"><ele>506.0</ele><time>2026-03-22T11:20:55.898Z</time></trkpt><trkpt lat="42.9503833" lon="13.3392183"><ele>507.20000000000005</ele><time>2026-03-22T11:20:57.899Z</time></trkpt><trkpt lat="42.950465" lon="13.339255"><ele>508.40000000000003</ele><time>2026-03-22T11:20:58.898Z</time></trkpt><trkpt lat="42.9505683" lon="13.3392783"><ele>509.6</ele><time>2026-03-22T11:20:59.899Z</time></trkpt><trkpt lat="42.9506817" lon="13.339295"><ele>510.8</ele><time>2026-03-22T11:21:00.899Z</time></trkpt><trkpt lat="42.9507967" lon="13.3393217"><ele>512.0</ele><time>2026-03-22T11:21:01.898Z</time></trkpt><trkpt lat="42.9509083" lon="13.3393617"><ele>512.0</ele><time>2026-03-22T11:21:02.899Z</time></trkpt><trkpt lat="42.9510217" lon="13.33941"><ele>512.0</ele><time>2026-03-22T11:21:03.899Z</time></trkpt><trkpt lat="42.95113" lon="13.3394417"><ele>512.0</ele><time>2026-03-22T11:21:04.899Z</time></trkpt><trkpt lat="42.9512267" lon="13.3394483"><ele>512.0</ele><time>2026-03-22T11:21:05.898Z</time></trkpt><trkpt lat="42.9513117" lon="13.33943"><ele>512.0</ele><time>2026-03-22T11:21:06.899Z</time></trkpt><trkpt lat="42.95138" lon="13.3394017"><ele>511.99999999999994</ele><time>2026-03-22T11:21:07.899Z</time></trkpt><trkpt lat="42.95145" lon="13.3393567"><ele>512.0</ele><time>2026-03-22T11:21:08.899Z</time></trkpt><trkpt lat="42.9515083" lon="13.3393083"><ele>512.0</ele><time>2026-03-22T11:21:09.898Z</time></trkpt><trkpt lat="42.9515917" lon="13.3392617"><ele>512.0</ele><time>2026-03-22T11:21:11.899Z</time></trkpt><trkpt lat="42.9516633" lon="13.3393117"><ele>511.99999999999994</ele><time>2026-03-22T11:21:14.899Z</time></trkpt><trkpt lat="42.9516617" lon="13.3394567"><ele>512.0</ele><time>2026-03-22T11:21:16.898Z</time></trkpt><trkpt lat="42.9516433" lon="13.33955"><ele>511.99999999999994</ele><time>2026-03-22T11:21:17.899Z</time></trkpt><trkpt lat="42.9516317" lon="13.339645"><ele>512.0</ele><time>2026-03-22T11:21:18.899Z</time></trkpt><trkpt lat="42.9516467" lon="13.3397317"><ele>512.0</ele><time>2026-03-22T11:21:19.899Z</time></trkpt><trkpt lat="42.9516933" lon="13.3398283"><ele>512.0</ele><time>2026-03-22T11:21:20.898Z</time></trkpt><trkpt lat="42.951775" lon="13.339905"><ele>511.99999999999994</ele><time>2026-03-22T11:21:21.899Z</time></trkpt><trkpt lat="42.951865" lon="13.3399667"><ele>512.0</ele><time>2026-03-22T11:21:22.899Z</time></trkpt><trkpt lat="42.95195" lon="13.340055"><ele>510.0</ele><time>2026-03-22T11:21:23.899Z</time></trkpt><trkpt lat="42.9520333" lon="13.3401833"><ele>508.00000000000006</ele><time>2026-03-22T11:21:24.899Z</time></trkpt><trkpt lat="42.95209" lon="13.3402967"><ele>506.00000000000006</ele><time>2026-03-22T11:21:25.899Z</time></trkpt><trkpt lat="42.9521517" lon="13.3404067"><ele>504.0</ele><time>2026-03-22T11:21:26.899Z</time></trkpt><trkpt lat="42.9522217" lon="13.3404917"><ele>502.0</ele><time>2026-03-22T11:21:27.899Z</time></trkpt><trkpt lat="42.9522967" lon="13.3405567"><ele>500.99999999999994</ele><time>2026-03-22T11:21:28.899Z</time></trkpt><trkpt lat="42.9523733" lon="13.3406117"><ele>500.0</ele><time>2026-03-22T11:21:29.899Z</time></trkpt><trkpt lat="42.9524367" lon="13.340655"><ele>498.99999999999994</ele><time>2026-03-22T11:21:30.898Z</time></trkpt><trkpt lat="42.9524967" lon="13.3406917"><ele>497.99999999999994</ele><time>2026-03-22T11:21:31.899Z</time></trkpt><trkpt lat="42.9525583" lon="13.340725"><ele>497.0</ele><time>2026-03-22T11:21:32.899Z</time></trkpt><trkpt lat="42.9526217" lon="13.3407633"><ele>495.99999999999994</ele><time>2026-03-22T11:21:33.899Z</time></trkpt><trkpt lat="42.9527017" lon="13.34078"><ele>494.99999999999994</ele><time>2026-03-22T11:21:34.899Z</time></trkpt><trkpt lat="42.9527867" lon="13.340785"><ele>495.0</ele><time>2026-03-22T11:21:35.898Z</time></trkpt><trkpt lat="42.95289" lon="13.3407883"><ele>495.0</ele><time>2026-03-22T11:21:36.899Z</time></trkpt><trkpt lat="42.952995" lon="13.3408033"><ele>495.0</ele><time>2026-03-22T11:21:37.898Z</time></trkpt><trkpt lat="42.9531167" lon="13.34081"><ele>495.0</ele><time>2026-03-22T11:21:38.898Z</time></trkpt><trkpt lat="42.9532483" lon="13.34083"><ele>495.25</ele><time>2026-03-22T11:21:39.898Z</time></trkpt><trkpt lat="42.9533817" lon="13.34085"><ele>495.5</ele><time>2026-03-22T11:21:40.899Z</time></trkpt><trkpt lat="42.9534967" lon="13.3408567"><ele>495.75</ele><time>2026-03-22T11:21:41.899Z</time></trkpt><trkpt lat="42.9535983" lon="13.3408383"><ele>496.0</ele><time>2026-03-22T11:21:42.898Z</time></trkpt><trkpt lat="42.9537067" lon="13.3407917"><ele>496.0</ele><time>2026-03-22T11:21:43.898Z</time></trkpt><trkpt lat="42.953805" lon="13.34073"><ele>496.0</ele><time>2026-03-22T11:21:44.898Z</time></trkpt><trkpt lat="42.9538817" lon="13.340695"><ele>496.0</ele><time>2026-03-22T11:21:45.899Z</time></trkpt><trkpt lat="42.9539883" lon="13.340715"><ele>496.0</ele><time>2026-03-22T11:21:47.898Z</time></trkpt><trkpt lat="42.9540267" lon="13.3407933"><ele>496.0</ele><time>2026-03-22T11:21:48.898Z</time></trkpt><trkpt lat="42.9540533" lon="13.3409067"><ele>496.00000000000006</ele><time>2026-03-22T11:21:49.899Z</time></trkpt><trkpt lat="42.9540967" lon="13.3410017"><ele>496.0</ele><time>2026-03-22T11:21:50.899Z</time></trkpt><trkpt lat="42.9541683" lon="13.34107"><ele>496.0</ele><time>2026-03-22T11:21:51.899Z</time></trkpt><trkpt lat="42.95425" lon="13.341115"><ele>496.0</ele><time>2026-03-22T11:21:52.899Z</time></trkpt><trkpt lat="42.9543333" lon="13.34115"><ele>496.00000000000006</ele><time>2026-03-22T11:21:53.898Z</time></trkpt><trkpt lat="42.9543967" lon="13.3411917"><ele>496.0</ele><time>2026-03-22T11:21:54.898Z</time></trkpt><trkpt lat="42.9544467" lon="13.3412633"><ele>497.4</ele><time>2026-03-22T11:21:55.899Z</time></trkpt><trkpt lat="42.9544933" lon="13.3413617"><ele>498.8</ele><time>2026-03-22T11:21:56.899Z</time></trkpt><trkpt lat="42.9545367" lon="13.3414883"><ele>500.19999999999993</ele><time>2026-03-22T11:21:57.899Z</time></trkpt><trkpt lat="42.9545867" lon="13.3416367"><ele>501.59999999999997</ele><time>2026-03-22T11:21:58.899Z</time></trkpt><trkpt lat="42.9546567" lon="13.3417983"><ele>503.0</ele><time>2026-03-22T11:21:59.899Z</time></trkpt><trkpt lat="42.9547533" lon="13.34193"><ele>498.59999999999997</ele><time>2026-03-22T11:22:00.898Z</time></trkpt><trkpt lat="42.9548317" lon="13.3420567"><ele>494.19999999999993</ele><time>2026-03-22T11:22:01.899Z</time></trkpt><trkpt lat="42.9548983" lon="13.3421717"><ele>489.8</ele><time>2026-03-22T11:22:02.898Z</time></trkpt><trkpt lat="42.95496" lon="13.34226"><ele>485.4</ele><time>2026-03-22T11:22:03.898Z</time></trkpt><trkpt lat="42.95501" lon="13.3423283"><ele>481.0</ele><time>2026-03-22T11:22:04.899Z</time></trkpt><trkpt lat="42.9550733" lon="13.3424267"><ele>479.20000000000005</ele><time>2026-03-22T11:22:06.899Z</time></trkpt><trkpt lat="42.9551217" lon="13.34258"><ele>477.40000000000003</ele><time>2026-03-22T11:22:16.898Z</time></trkpt><trkpt lat="42.955135" lon="13.34269"><ele>475.6</ele><time>2026-03-22T11:22:17.898Z</time></trkpt><trkpt lat="42.95514" lon="13.342815"><ele>473.8</ele><time>2026-03-22T11:22:18.899Z</time></trkpt><trkpt lat="42.955115" lon="13.3429183"><ele>472.0</ele><time>2026-03-22T11:22:19.899Z</time></trkpt><trkpt lat="42.9550617" lon="13.3430017"><ele>472.0</ele><time>2026-03-22T11:22:20.899Z</time></trkpt><trkpt lat="42.9549783" lon="13.34305"><ele>472.00000000000006</ele><time>2026-03-22T11:22:21.898Z</time></trkpt><trkpt lat="42.95487" lon="13.343055"><ele>472.00000000000006</ele><time>2026-03-22T11:22:22.898Z</time></trkpt><trkpt lat="42.954755" lon="13.34305"><ele>472.0</ele><time>2026-03-22T11:22:23.899Z</time></trkpt><trkpt lat="42.9546483" lon="13.3430417"><ele>472.0</ele><time>2026-03-22T11:22:24.898Z</time></trkpt><trkpt lat="42.954555" lon="13.3430333"><ele>472.0</ele><time>2026-03-22T11:22:25.898Z</time></trkpt><trkpt lat="42.9544683" lon="13.34305"><ele>472.00000000000006</ele><time>2026-03-22T11:22:26.898Z</time></trkpt><trkpt lat="42.9543933" lon="13.3430783"><ele>472.00000000000006</ele><time>2026-03-22T11:22:27.899Z</time></trkpt><trkpt lat="42.9543383" lon="13.3431267"><ele>472.0</ele><time>2026-03-22T11:22:28.899Z</time></trkpt><trkpt lat="42.9542667" lon="13.3433033"><ele>472.0</ele><time>2026-03-22T11:22:30.899Z</time></trkpt><trkpt lat="42.9542533" lon="13.3434117"><ele>472.0</ele><time>2026-03-22T11:22:31.899Z</time></trkpt><trkpt lat="42.9542467" lon="13.3435183"><ele>472.00000000000006</ele><time>2026-03-22T11:22:32.898Z</time></trkpt><trkpt lat="42.9542633" lon="13.343655"><ele>472.00000000000006</ele><time>2026-03-22T11:22:34.899Z</time></trkpt><trkpt lat="42.954345" lon="13.3437"><ele>472.0</ele><time>2026-03-22T11:22:36.899Z</time></trkpt><trkpt lat="42.9544517" lon="13.3436267"><ele>472.0</ele><time>2026-03-22T11:22:38.899Z</time></trkpt><trkpt lat="42.95451" lon="13.343585"><ele>472.0</ele><time>2026-03-22T11:22:39.898Z</time></trkpt><trkpt lat="42.9545767" lon="13.3435633"><ele>472.00000000000006</ele><time>2026-03-22T11:22:40.899Z</time></trkpt><trkpt lat="42.9546983" lon="13.3435983"><ele>472.00000000000006</ele><time>2026-03-22T11:22:42.899Z</time></trkpt><trkpt lat="42.95476" lon="13.3436583"><ele>472.0</ele><time>2026-03-22T11:22:43.898Z</time></trkpt><trkpt lat="42.9548267" lon="13.34375"><ele>472.0</ele><time>2026-03-22T11:22:44.899Z</time></trkpt><trkpt lat="42.954875" lon="13.3438567"><ele>472.83333333333337</ele><time>2026-03-22T11:22:45.899Z</time></trkpt><trkpt lat="42.9549083" lon="13.3439417"><ele>473.6666666666667</ele><time>2026-03-22T11:22:46.899Z</time></trkpt><trkpt lat="42.954945" lon="13.3440167"><ele>474.5</ele><time>2026-03-22T11:22:47.899Z</time></trkpt><trkpt lat="42.955005" lon="13.34413"><ele>475.33333333333337</ele><time>2026-03-22T11:22:49.899Z</time></trkpt><trkpt lat="42.9550683" lon="13.3442083"><ele>476.1666666666667</ele><time>2026-03-22T11:22:52.899Z</time></trkpt><trkpt lat="42.955135" lon="13.344265"><ele>477.0</ele><time>2026-03-22T11:22:54.899Z</time></trkpt><trkpt lat="42.9552433" lon="13.3443033"><ele>477.0</ele><time>2026-03-22T11:22:56.899Z</time></trkpt><trkpt lat="42.9553283" lon="13.3443167"><ele>477.00000000000006</ele><time>2026-03-22T11:22:57.899Z</time></trkpt><trkpt lat="42.9554333" lon="13.3443367"><ele>477.00000000000006</ele><time>2026-03-22T11:22:58.898Z</time></trkpt><trkpt lat="42.9555617" lon="13.34436"><ele>477.0</ele><time>2026-03-22T11:22:59.899Z</time></trkpt><trkpt lat="42.955685" lon="13.3444"><ele>477.0</ele><time>2026-03-22T11:23:00.899Z</time></trkpt><trkpt lat="42.9558283" lon="13.3444967"><ele>478.25</ele><time>2026-03-22T11:23:01.899Z</time></trkpt><trkpt lat="42.9559433" lon="13.3444983"><ele>479.5</ele><time>2026-03-22T11:23:02.899Z</time></trkpt><trkpt lat="42.9560633" lon="13.34448"><ele>480.75</ele><time>2026-03-22T11:23:03.899Z</time></trkpt><trkpt lat="42.95617" lon="13.3444367"><ele>482.0</ele><time>2026-03-22T11:23:04.898Z</time></trkpt><trkpt lat="42.9562733" lon="13.3443567"><ele>482.0</ele><time>2026-03-22T11:23:05.899Z</time></trkpt><trkpt lat="42.95636" lon="13.3442233"><ele>482.00000000000006</ele><time>2026-03-22T11:23:06.898Z</time></trkpt><trkpt lat="42.95643" lon="13.3441067"><ele>482.00000000000006</ele><time>2026-03-22T11:23:07.899Z</time></trkpt><trkpt lat="42.95649" lon="13.3440267"><ele>482.0</ele><time>2026-03-22T11:23:08.899Z</time></trkpt><trkpt lat="42.9565867" lon="13.3439767"><ele>482.0</ele><time>2026-03-22T11:23:10.898Z</time></trkpt><trkpt lat="42.9566233" lon="13.3440483"><ele>482.0</ele><time>2026-03-22T11:23:11.899Z</time></trkpt><trkpt lat="42.956655" lon="13.344165"><ele>482.0</ele><time>2026-03-22T11:23:12.899Z</time></trkpt><trkpt lat="42.9566817" lon="13.34433"><ele>482.0</ele><time>2026-03-22T11:23:13.898Z</time></trkpt><trkpt lat="42.95671" lon="13.34453"><ele>482.0</ele><time>2026-03-22T11:23:14.899Z</time></trkpt><trkpt lat="42.9567267" lon="13.3447133"><ele>482.8</ele><time>2026-03-22T11:23:15.899Z</time></trkpt><trkpt lat="42.9567633" lon="13.3448417"><ele>483.6</ele><time>2026-03-22T11:23:16.899Z</time></trkpt><trkpt lat="42.9568067" lon="13.34493"><ele>484.40000000000003</ele><time>2026-03-22T11:23:17.898Z</time></trkpt><trkpt lat="42.956865" lon="13.3450017"><ele>485.20000000000005</ele><time>2026-03-22T11:23:18.899Z</time></trkpt><trkpt lat="42.95695" lon="13.3450567"><ele>486.0</ele><time>2026-03-22T11:23:19.899Z</time></trkpt><trkpt lat="42.9570517" lon="13.3451033"><ele>486.0</ele><time>2026-03-22T11:23:20.898Z</time></trkpt><trkpt lat="42.95715" lon="13.34515"><ele>486.0</ele><time>2026-03-22T11:23:21.899Z</time></trkpt><trkpt lat="42.9572317" lon="13.3452067"><ele>486.0</ele><time>2026-03-22T11:23:22.899Z</time></trkpt><trkpt lat="42.9572933" lon="13.3452717"><ele>486.0</ele><time>2026-03-22T11:23:23.899Z</time></trkpt><trkpt lat="42.9573383" lon="13.3453533"><ele>486.0</ele><time>2026-03-22T11:23:24.899Z</time></trkpt><trkpt lat="42.9573817" lon="13.3454517"><ele>486.0</ele><time>2026-03-22T11:23:25.898Z</time></trkpt><trkpt lat="42.9574167" lon="13.3455417"><ele>488.6</ele><time>2026-03-22T11:23:26.898Z</time></trkpt><trkpt lat="42.9574633" lon="13.3456633"><ele>491.20000000000005</ele><time>2026-03-22T11:23:28.898Z</time></trkpt><trkpt lat="42.9575017" lon="13.345745"><ele>493.79999999999995</ele><time>2026-03-22T11:23:30.899Z</time></trkpt><trkpt lat="42.95756" lon="13.34581"><ele>496.4</ele><time>2026-03-22T11:23:32.898Z</time></trkpt><trkpt lat="42.9576833" lon="13.345835"><ele>499.0</ele><time>2026-03-22T11:23:34.899Z</time></trkpt><trkpt lat="42.957765" lon="13.3458467"><ele>499.0</ele><time>2026-03-22T11:23:35.899Z</time></trkpt><trkpt lat="42.95786" lon="13.3458767"><ele>499.0</ele><time>2026-03-22T11:23:36.899Z</time></trkpt><trkpt lat="42.95797" lon="13.3459117"><ele>499.0</ele><time>2026-03-22T11:23:37.899Z</time></trkpt><trkpt lat="42.9580933" lon="13.3459567"><ele>499.0</ele><time>2026-03-22T11:23:38.899Z</time></trkpt><trkpt lat="42.9582067" lon="13.345995"><ele>499.0</ele><time>2026-03-22T11:23:39.899Z</time></trkpt><trkpt lat="42.9583217" lon="13.34604"><ele>499.0</ele><time>2026-03-22T11:23:40.899Z</time></trkpt><trkpt lat="42.9584067" lon="13.346075"><ele>499.0</ele><time>2026-03-22T11:23:41.898Z</time></trkpt><trkpt lat="42.9584717" lon="13.34611"><ele>499.0</ele><time>2026-03-22T11:23:42.899Z</time></trkpt><trkpt lat="42.9585617" lon="13.3461733"><ele>499.0</ele><time>2026-03-22T11:23:44.899Z</time></trkpt><trkpt lat="42.9586517" lon="13.34622"><ele>497.4</ele><time>2026-03-22T11:23:47.898Z</time></trkpt><trkpt lat="42.9587783" lon="13.34625"><ele>495.79999999999995</ele><time>2026-03-22T11:23:49.899Z</time></trkpt><trkpt lat="42.9589067" lon="13.3462633"><ele>494.20000000000005</ele><time>2026-03-22T11:23:51.899Z</time></trkpt><trkpt lat="42.9589783" lon="13.3462767"><ele>492.6</ele><time>2026-03-22T11:23:52.898Z</time></trkpt><trkpt lat="42.959055" lon="13.3462867"><ele>491.0</ele><time>2026-03-22T11:23:53.898Z</time></trkpt><trkpt lat="42.9591317" lon="13.3463"><ele>490.16666666666663</ele><time>2026-03-22T11:23:54.899Z</time></trkpt><trkpt lat="42.959205" lon="13.3463183"><ele>489.3333333333333</ele><time>2026-03-22T11:23:55.899Z</time></trkpt><trkpt lat="42.9592767" lon="13.3463367"><ele>488.5</ele><time>2026-03-22T11:23:56.899Z</time></trkpt><trkpt lat="42.95937" lon="13.3463867"><ele>487.66666666666663</ele><time>2026-03-22T11:23:58.899Z</time></trkpt><trkpt lat="42.95945" lon="13.3464067"><ele>486.8333333333333</ele><time>2026-03-22T11:24:00.898Z</time></trkpt><trkpt lat="42.9595417" lon="13.34642"><ele>486.0</ele><time>2026-03-22T11:24:02.898Z</time></trkpt><trkpt lat="42.95963" lon="13.3464583"><ele>488.0</ele><time>2026-03-22T11:24:04.899Z</time></trkpt><trkpt lat="42.9597083" lon="13.3464983"><ele>490.0</ele><time>2026-03-22T11:24:06.899Z</time></trkpt><trkpt lat="42.9597767" lon="13.3465133"><ele>492.0</ele><time>2026-03-22T11:24:08.899Z</time></trkpt><trkpt lat="42.9598667" lon="13.3465417"><ele>494.0</ele><time>2026-03-22T11:24:10.898Z</time></trkpt><trkpt lat="42.959985" lon="13.3465683"><ele>496.0</ele><time>2026-03-22T11:24:12.899Z</time></trkpt><trkpt lat="42.9601017" lon="13.3465883"><ele>496.0</ele><time>2026-03-22T11:24:14.899Z</time></trkpt><trkpt lat="42.960225" lon="13.3466033"><ele>496.0</ele><time>2026-03-22T11:24:16.898Z</time></trkpt><trkpt lat="42.9602967" lon="13.3465917"><ele>496.0</ele><time>2026-03-22T11:24:17.898Z</time></trkpt><trkpt lat="42.9603617" lon="13.3465833"><ele>496.0</ele><time>2026-03-22T11:24:18.899Z</time></trkpt><trkpt lat="42.960475" lon="13.34656"><ele>496.0</ele><time>2026-03-22T11:24:20.898Z</time></trkpt><trkpt lat="42.9605883" lon="13.3465617"><ele>496.0</ele><time>2026-03-22T11:24:22.898Z</time></trkpt><trkpt lat="42.96069" lon="13.3465783"><ele>496.0</ele><time>2026-03-22T11:24:24.899Z</time></trkpt><trkpt lat="42.960775" lon="13.346615"><ele>496.0</ele><time>2026-03-22T11:24:26.898Z</time></trkpt><trkpt lat="42.9608683" lon="13.3466667"><ele>496.0</ele><time>2026-03-22T11:24:28.899Z</time></trkpt><trkpt lat="42.9609417" lon="13.346705"><ele>496.0</ele><time>2026-03-22T11:24:30.899Z</time></trkpt><trkpt lat="42.9610183" lon="13.346735"><ele>494.20000000000005</ele><time>2026-03-22T11:24:33.898Z</time></trkpt><trkpt lat="42.96109" lon="13.3467567"><ele>492.40000000000003</ele><time>2026-03-22T11:24:35.899Z</time></trkpt><trkpt lat="42.96119" lon="13.346795"><ele>490.6</ele><time>2026-03-22T11:24:37.899Z</time></trkpt><trkpt lat="42.96128" lon="13.3468167"><ele>488.8</ele><time>2026-03-22T11:24:39.899Z</time></trkpt><trkpt lat="42.9613883" lon="13.3468333"><ele>487.0</ele><time>2026-03-22T11:24:41.899Z</time></trkpt><trkpt lat="42.9615083" lon="13.34685"><ele>487.0</ele><time>2026-03-22T11:24:43.899Z</time></trkpt><trkpt lat="42.9616167" lon="13.3468667"><ele>487.00000000000006</ele><time>2026-03-22T11:24:45.899Z</time></trkpt><trkpt lat="42.9617417" lon="13.3468967"><ele>487.00000000000006</ele><time>2026-03-22T11:24:47.898Z</time></trkpt><trkpt lat="42.9618117" lon="13.34692"><ele>487.0</ele><time>2026-03-22T11:24:48.899Z</time></trkpt><trkpt lat="42.961885" lon="13.34695"><ele>487.0</ele><time>2026-03-22T11:24:49.898Z</time></trkpt><trkpt lat="42.9619633" lon="13.3469767"><ele>486.00000000000006</ele><time>2026-03-22T11:24:50.898Z</time></trkpt><trkpt lat="42.9620367" lon="13.3469983"><ele>485.0</ele><time>2026-03-22T11:24:51.898Z</time></trkpt><trkpt lat="42.9621067" lon="13.3470267"><ele>484.0</ele><time>2026-03-22T11:24:52.899Z</time></trkpt><trkpt lat="42.9621683" lon="13.34705"><ele>483.0</ele><time>2026-03-22T11:24:53.898Z</time></trkpt><trkpt lat="42.962285" lon="13.3471317"><ele>482.00000000000006</ele><time>2026-03-22T11:24:55.898Z</time></trkpt><trkpt lat="42.9623467" lon="13.3471783"><ele>481.0</ele><time>2026-03-22T11:24:56.899Z</time></trkpt><trkpt lat="42.962405" lon="13.34723"><ele>481.4</ele><time>2026-03-22T11:24:57.898Z</time></trkpt><trkpt lat="42.9624733" lon="13.3473417"><ele>481.8</ele><time>2026-03-22T11:24:59.899Z</time></trkpt><trkpt lat="42.9625217" lon="13.3474383"><ele>482.19999999999993</ele><time>2026-03-22T11:25:01.899Z</time></trkpt><trkpt lat="42.9625683" lon="13.3475233"><ele>482.59999999999997</ele><time>2026-03-22T11:25:03.898Z</time></trkpt><trkpt lat="42.9626383" lon="13.3475983"><ele>483.0</ele><time>2026-03-22T11:25:05.898Z</time></trkpt><trkpt lat="42.96273" lon="13.34766"><ele>483.0</ele><time>2026-03-22T11:25:07.899Z</time></trkpt><trkpt lat="42.962805" lon="13.347705"><ele>483.0</ele><time>2026-03-22T11:25:09.898Z</time></trkpt><trkpt lat="42.9628867" lon="13.34772"><ele>483.0</ele><time>2026-03-22T11:25:11.898Z</time></trkpt><trkpt lat="42.9629617" lon="13.347775"><ele>483.0</ele><time>2026-03-22T11:25:14.898Z</time></trkpt><trkpt lat="42.963025" lon="13.3478267"><ele>483.0</ele><time>2026-03-22T11:25:16.898Z</time></trkpt><trkpt lat="42.9631117" lon="13.34789"><ele>483.0</ele><time>2026-03-22T11:25:18.898Z</time></trkpt><trkpt lat="42.9632" lon="13.34794"><ele>483.0</ele><time>2026-03-22T11:25:20.899Z</time></trkpt><trkpt lat="42.9632633" lon="13.34796"><ele>483.0</ele><time>2026-03-22T11:25:35.899Z</time></trkpt><trkpt lat="42.9633333" lon="13.3479617"><ele>483.0</ele><time>2026-03-22T11:25:37.899Z</time></trkpt><trkpt lat="42.9634467" lon="13.3479533"><ele>483.0</ele><time>2026-03-22T11:25:39.899Z</time></trkpt><trkpt lat="42.96351" lon="13.3479467"><ele>483.0</ele><time>2026-03-22T11:25:40.898Z</time></trkpt><trkpt lat="42.963585" lon="13.34795"><ele>483.0</ele><time>2026-03-22T11:25:41.899Z</time></trkpt><trkpt lat="42.9636667" lon="13.3479583"><ele>482.6666666666667</ele><time>2026-03-22T11:25:42.899Z</time></trkpt><trkpt lat="42.963755" lon="13.3479633"><ele>482.33333333333337</ele><time>2026-03-22T11:25:43.899Z</time></trkpt><trkpt lat="42.96385" lon="13.3479717"><ele>482.0</ele><time>2026-03-22T11:25:44.899Z</time></trkpt><trkpt lat="42.9639467" lon="13.347975"><ele>481.6666666666667</ele><time>2026-03-22T11:25:45.898Z</time></trkpt><trkpt lat="42.96403" lon="13.347975"><ele>481.33333333333337</ele><time>2026-03-22T11:25:46.899Z</time></trkpt><trkpt lat="42.9641067" lon="13.3479717"><ele>481.0</ele><time>2026-03-22T11:25:47.898Z</time></trkpt><trkpt lat="42.9641833" lon="13.3479667"><ele>481.00000000000006</ele><time>2026-03-22T11:25:48.899Z</time></trkpt><trkpt lat="42.9642683" lon="13.347945"><ele>481.0</ele><time>2026-03-22T11:25:49.899Z</time></trkpt><trkpt lat="42.96436" lon="13.3479217"><ele>481.0</ele><time>2026-03-22T11:25:50.899Z</time></trkpt><trkpt lat="42.9644433" lon="13.3478967"><ele>481.0</ele><time>2026-03-22T11:25:51.898Z</time></trkpt><trkpt lat="42.9645133" lon="13.34788"><ele>481.00000000000006</ele><time>2026-03-22T11:25:52.899Z</time></trkpt><trkpt lat="42.9645833" lon="13.3478583"><ele>481.0</ele><time>2026-03-22T11:25:53.899Z</time></trkpt><trkpt lat="42.9646467" lon="13.3478367"><ele>481.0</ele><time>2026-03-22T11:25:54.899Z</time></trkpt><trkpt lat="42.9647583" lon="13.3478"><ele>481.0</ele><time>2026-03-22T11:25:56.899Z</time></trkpt><trkpt lat="42.9648633" lon="13.3477967"><ele>481.0</ele><time>2026-03-22T11:25:58.898Z</time></trkpt><trkpt lat="42.96498" lon="13.3478183"><ele>481.0</ele><time>2026-03-22T11:26:00.899Z</time></trkpt><trkpt lat="42.9651" lon="13.34783"><ele>479.4</ele><time>2026-03-22T11:26:02.898Z</time></trkpt><trkpt lat="42.96519" lon="13.3478433"><ele>477.8</ele><time>2026-03-22T11:26:04.899Z</time></trkpt><trkpt lat="42.9652967" lon="13.347875"><ele>476.19999999999993</ele><time>2026-03-22T11:26:06.898Z</time></trkpt><trkpt lat="42.9654167" lon="13.347905"><ele>474.59999999999997</ele><time>2026-03-22T11:26:08.898Z</time></trkpt><trkpt lat="42.9655167" lon="13.347955"><ele>473.0</ele><time>2026-03-22T11:26:10.898Z</time></trkpt><trkpt lat="42.96559" lon="13.3480067"><ele>474.3333333333333</ele><time>2026-03-22T11:26:12.899Z</time></trkpt><trkpt lat="42.9656817" lon="13.3480783"><ele>475.66666666666663</ele><time>2026-03-22T11:26:14.898Z</time></trkpt><trkpt lat="42.965745" lon="13.3481217"><ele>477.0</ele><time>2026-03-22T11:26:15.898Z</time></trkpt><trkpt lat="42.96582" lon="13.3481567"><ele>478.33333333333337</ele><time>2026-03-22T11:26:16.898Z</time></trkpt><trkpt lat="42.9658967" lon="13.3482"><ele>479.6666666666667</ele><time>2026-03-22T11:26:17.899Z</time></trkpt><trkpt lat="42.9659733" lon="13.3482417"><ele>481.0</ele><time>2026-03-22T11:26:18.899Z</time></trkpt><trkpt lat="42.96604" lon="13.3482883"><ele>481.0</ele><time>2026-03-22T11:26:19.899Z</time></trkpt><trkpt lat="42.96614" lon="13.34835"><ele>481.0</ele><time>2026-03-22T11:26:21.899Z</time></trkpt><trkpt lat="42.9662133" lon="13.348355"><ele>481.0</ele><time>2026-03-22T11:26:23.899Z</time></trkpt><trkpt lat="42.9663117" lon="13.348395"><ele>481.0</ele><time>2026-03-22T11:26:25.899Z</time></trkpt><trkpt lat="42.9663883" lon="13.34836"><ele>481.0</ele><time>2026-03-22T11:26:27.899Z</time></trkpt><trkpt lat="42.9664733" lon="13.3483217"><ele>481.00000000000006</ele><time>2026-03-22T11:26:29.898Z</time></trkpt><trkpt lat="42.9665733" lon="13.3483233"><ele>481.0</ele><time>2026-03-22T11:26:31.899Z</time></trkpt><trkpt lat="42.966685" lon="13.3483483"><ele>481.0</ele><time>2026-03-22T11:26:33.899Z</time></trkpt><trkpt lat="42.9667733" lon="13.3483733"><ele>481.0</ele><time>2026-03-22T11:26:35.899Z</time></trkpt><trkpt lat="42.9668417" lon="13.3484067"><ele>481.00000000000006</ele><time>2026-03-22T11:26:37.898Z</time></trkpt><trkpt lat="42.96691" lon="13.34842"><ele>481.0</ele><time>2026-03-22T11:26:39.899Z</time></trkpt><trkpt lat="42.9670017" lon="13.3484367"><ele>480.1666666666667</ele><time>2026-03-22T11:26:41.899Z</time></trkpt><trkpt lat="42.967085" lon="13.34845"><ele>479.33333333333337</ele><time>2026-03-22T11:26:43.899Z</time></trkpt><trkpt lat="42.9671533" lon="13.3484533"><ele>478.5</ele><time>2026-03-22T11:26:45.899Z</time></trkpt><trkpt lat="42.9672183" lon="13.3484717"><ele>477.66666666666663</ele><time>2026-03-22T11:26:47.899Z</time></trkpt><trkpt lat="42.9673083" lon="13.3484567"><ele>476.8333333333333</ele><time>2026-03-22T11:26:49.899Z</time></trkpt><trkpt lat="42.96744" lon="13.3484783"><ele>476.0</ele><time>2026-03-22T11:26:51.899Z</time></trkpt><trkpt lat="42.9675583" lon="13.348495"><ele>476.0</ele><time>2026-03-22T11:26:53.898Z</time></trkpt><trkpt lat="42.9676683" lon="13.3485067"><ele>476.0</ele><time>2026-03-22T11:26:55.899Z</time></trkpt><trkpt lat="42.9678067" lon="13.348535"><ele>476.0</ele><time>2026-03-22T11:26:57.898Z</time></trkpt><trkpt lat="42.9679" lon="13.3485367"><ele>476.0</ele><time>2026-03-22T11:26:58.899Z</time></trkpt><trkpt lat="42.9679983" lon="13.348535"><ele>476.0</ele><time>2026-03-22T11:26:59.899Z</time></trkpt><trkpt lat="42.9680917" lon="13.3485267"><ele>475.99999999999994</ele><time>2026-03-22T11:27:00.899Z</time></trkpt><trkpt lat="42.96818" lon="13.34851"><ele>476.0</ele><time>2026-03-22T11:27:01.899Z</time></trkpt><trkpt lat="42.9682617" lon="13.3484833"><ele>476.0</ele><time>2026-03-22T11:27:02.898Z</time></trkpt><trkpt lat="42.968345" lon="13.34845"><ele>476.0</ele><time>2026-03-22T11:27:03.899Z</time></trkpt><trkpt lat="42.9684217" lon="13.348415"><ele>475.99999999999994</ele><time>2026-03-22T11:27:04.899Z</time></trkpt><trkpt lat="42.9685" lon="13.348385"><ele>476.0</ele><time>2026-03-22T11:27:05.898Z</time></trkpt><trkpt lat="42.968615" lon="13.34836"><ele>475.66666666666663</ele><time>2026-03-22T11:27:07.899Z</time></trkpt><trkpt lat="42.9686917" lon="13.3483667"><ele>475.3333333333333</ele><time>2026-03-22T11:27:09.899Z</time></trkpt><trkpt lat="42.96876" lon="13.3484633"><ele>475.0</ele><time>2026-03-22T11:27:12.898Z</time></trkpt><trkpt lat="42.96883" lon="13.34855"><ele>474.66666666666663</ele><time>2026-03-22T11:27:14.899Z</time></trkpt><trkpt lat="42.9689267" lon="13.34858"><ele>474.3333333333333</ele><time>2026-03-22T11:27:16.898Z</time></trkpt><trkpt lat="42.968995" lon="13.348605"><ele>474.0</ele><time>2026-03-22T11:27:17.898Z</time></trkpt><trkpt lat="42.9690817" lon="13.348645"><ele>474.0</ele><time>2026-03-22T11:27:18.899Z</time></trkpt><trkpt lat="42.9691683" lon="13.3486867"><ele>474.0</ele><time>2026-03-22T11:27:19.899Z</time></trkpt><trkpt lat="42.9692583" lon="13.3487167"><ele>474.0</ele><time>2026-03-22T11:27:20.899Z</time></trkpt><trkpt lat="42.9693433" lon="13.34875"><ele>474.0</ele><time>2026-03-22T11:27:21.898Z</time></trkpt><trkpt lat="42.9694217" lon="13.3487833"><ele>474.0</ele><time>2026-03-22T11:27:22.899Z</time></trkpt><trkpt lat="42.9695067" lon="13.3488317"><ele>474.0</ele><time>2026-03-22T11:27:23.898Z</time></trkpt><trkpt lat="42.9695883" lon="13.34887"><ele>474.8333333333333</ele><time>2026-03-22T11:27:24.898Z</time></trkpt><trkpt lat="42.96967" lon="13.3489267"><ele>475.66666666666663</ele><time>2026-03-22T11:27:25.898Z</time></trkpt><trkpt lat="42.969755" lon="13.3489833"><ele>476.5</ele><time>2026-03-22T11:27:26.899Z</time></trkpt><trkpt lat="42.96982" lon="13.3490367"><ele>477.3333333333333</ele><time>2026-03-22T11:27:27.898Z</time></trkpt><trkpt lat="42.9698733" lon="13.3490867"><ele>478.16666666666663</ele><time>2026-03-22T11:27:28.899Z</time></trkpt><trkpt lat="42.96996" lon="13.3491717"><ele>479.0</ele><time>2026-03-22T11:27:30.898Z</time></trkpt><trkpt lat="42.97002" lon="13.349225"><ele>475.16666666666663</ele><time>2026-03-22T11:27:32.898Z</time></trkpt><trkpt lat="42.97009" lon="13.3492783"><ele>471.3333333333333</ele><time>2026-03-22T11:27:35.899Z</time></trkpt><trkpt lat="42.9701583" lon="13.3493683"><ele>467.5</ele><time>2026-03-22T11:27:38.898Z</time></trkpt><trkpt lat="42.9702167" lon="13.3494067"><ele>463.66666666666663</ele><time>2026-03-22T11:27:40.899Z</time></trkpt><trkpt lat="42.9703033" lon="13.3494283"><ele>459.8333333333333</ele><time>2026-03-22T11:27:42.898Z</time></trkpt><trkpt lat="42.9703767" lon="13.349475"><ele>456.0</ele><time>2026-03-22T11:27:44.898Z</time></trkpt><trkpt lat="42.9704467" lon="13.3495133"><ele>456.0</ele><time>2026-03-22T11:27:46.899Z</time></trkpt><trkpt lat="42.9705283" lon="13.34955"><ele>456.0</ele><time>2026-03-22T11:27:48.899Z</time></trkpt><trkpt lat="42.97064" lon="13.3496217"><ele>456.0</ele><time>2026-03-22T11:27:50.898Z</time></trkpt><trkpt lat="42.9707283" lon="13.3497117"><ele>456.0</ele><time>2026-03-22T11:27:52.899Z</time></trkpt><trkpt lat="42.9707767" lon="13.3497733"><ele>456.0</ele><time>2026-03-22T11:27:53.899Z</time></trkpt><trkpt lat="42.9708283" lon="13.3498233"><ele>456.0</ele><time>2026-03-22T11:27:54.898Z</time></trkpt><trkpt lat="42.9709383" lon="13.3498217"><ele>453.6</ele><time>2026-03-22T11:27:56.899Z</time></trkpt><trkpt lat="42.9710017" lon="13.3498033"><ele>451.20000000000005</ele><time>2026-03-22T11:27:57.899Z</time></trkpt><trkpt lat="42.9711117" lon="13.349755"><ele>448.79999999999995</ele><time>2026-03-22T11:27:59.899Z</time></trkpt><trkpt lat="42.9711917" lon="13.3496317"><ele>446.4</ele><time>2026-03-22T11:28:01.899Z</time></trkpt><trkpt lat="42.971205" lon="13.3495467"><ele>444.0</ele><time>2026-03-22T11:28:02.899Z</time></trkpt><trkpt lat="42.9712133" lon="13.34941"><ele>444.0</ele><time>2026-03-22T11:28:04.898Z</time></trkpt><trkpt lat="42.97125" lon="13.34933"><ele>444.0</ele><time>2026-03-22T11:28:08.898Z</time></trkpt><trkpt lat="42.9712983" lon="13.3494167"><ele>444.0</ele><time>2026-03-22T11:28:11.898Z</time></trkpt><trkpt lat="42.9713433" lon="13.3495333"><ele>444.0</ele><time>2026-03-22T11:28:13.898Z</time></trkpt><trkpt lat="42.9713833" lon="13.3496433"><ele>444.0</ele><time>2026-03-22T11:28:15.899Z</time></trkpt><trkpt lat="42.9714417" lon="13.3497483"><ele>444.0</ele><time>2026-03-22T11:28:17.899Z</time></trkpt><trkpt lat="42.9715267" lon="13.3498683"><ele>444.0</ele><time>2026-03-22T11:28:19.899Z</time></trkpt><trkpt lat="42.9716017" lon="13.3499667"><ele>444.0</ele><time>2026-03-22T11:28:21.898Z</time></trkpt><trkpt lat="42.9716567" lon="13.3500633"><ele>444.0</ele><time>2026-03-22T11:28:23.899Z</time></trkpt><trkpt lat="42.9717" lon="13.35018"><ele>444.0</ele><time>2026-03-22T11:28:26.899Z</time></trkpt><trkpt lat="42.9717417" lon="13.350275"><ele>444.0</ele><time>2026-03-22T11:28:29.898Z</time></trkpt><trkpt lat="42.9718017" lon="13.3503817"><ele>442.0</ele><time>2026-03-22T11:28:32.899Z</time></trkpt><trkpt lat="42.9718633" lon="13.3504633"><ele>440.0</ele><time>2026-03-22T11:28:34.899Z</time></trkpt><trkpt lat="42.971885" lon="13.350555"><ele>438.0</ele><time>2026-03-22T11:28:36.899Z</time></trkpt><trkpt lat="42.9718767" lon="13.3506667"><ele>436.0</ele><time>2026-03-22T11:28:38.898Z</time></trkpt><trkpt lat="42.9718417" lon="13.3507933"><ele>434.0</ele><time>2026-03-22T11:28:40.899Z</time></trkpt><trkpt lat="42.9718033" lon="13.3508667"><ele>432.0</ele><time>2026-03-22T11:28:41.899Z</time></trkpt><trkpt lat="42.9717533" lon="13.3509383"><ele>431.5</ele><time>2026-03-22T11:28:42.899Z</time></trkpt><trkpt lat="42.9717083" lon="13.35102"><ele>431.0</ele><time>2026-03-22T11:28:43.898Z</time></trkpt><trkpt lat="42.971665" lon="13.3511017"><ele>430.5</ele><time>2026-03-22T11:28:44.898Z</time></trkpt><trkpt lat="42.97162" lon="13.35119"><ele>430.0</ele><time>2026-03-22T11:28:45.898Z</time></trkpt><trkpt lat="42.9715767" lon="13.3512867"><ele>429.5</ele><time>2026-03-22T11:28:46.898Z</time></trkpt><trkpt lat="42.971535" lon="13.3513817"><ele>429.0</ele><time>2026-03-22T11:28:47.898Z</time></trkpt><trkpt lat="42.9714967" lon="13.3514767"><ele>432.0</ele><time>2026-03-22T11:28:48.898Z</time></trkpt><trkpt lat="42.97147" lon="13.3515633"><ele>435.0</ele><time>2026-03-22T11:28:49.899Z</time></trkpt><trkpt lat="42.9714433" lon="13.3517133"><ele>438.0</ele><time>2026-03-22T11:28:51.899Z</time></trkpt><trkpt lat="42.97145" lon="13.3518617"><ele>441.0</ele><time>2026-03-22T11:28:53.899Z</time></trkpt><trkpt lat="42.9714883" lon="13.351975"><ele>444.0</ele><time>2026-03-22T11:28:55.899Z</time></trkpt><trkpt lat="42.971565" lon="13.352035"><ele>443.2</ele><time>2026-03-22T11:28:57.899Z</time></trkpt><trkpt lat="42.9716983" lon="13.3520983"><ele>442.4</ele><time>2026-03-22T11:28:59.898Z</time></trkpt><trkpt lat="42.9717733" lon="13.3521383"><ele>441.6</ele><time>2026-03-22T11:29:00.899Z</time></trkpt><trkpt lat="42.9718483" lon="13.3521517"><ele>440.8</ele><time>2026-03-22T11:29:01.898Z</time></trkpt><trkpt lat="42.9719367" lon="13.35216"><ele>440.0</ele><time>2026-03-22T11:29:02.898Z</time></trkpt><trkpt lat="42.9720317" lon="13.3521567"><ele>439.99999999999994</ele><time>2026-03-22T11:29:03.899Z</time></trkpt><trkpt lat="42.97213" lon="13.3521317"><ele>440.0</ele><time>2026-03-22T11:29:04.899Z</time></trkpt><trkpt lat="42.9722317" lon="13.3520867"><ele>440.0</ele><time>2026-03-22T11:29:05.899Z</time></trkpt><trkpt lat="42.972315" lon="13.3520467"><ele>440.0</ele><time>2026-03-22T11:29:06.899Z</time></trkpt><trkpt lat="42.9723767" lon="13.3520217"><ele>439.99999999999994</ele><time>2026-03-22T11:29:07.898Z</time></trkpt><trkpt lat="42.9724283" lon="13.3520717"><ele>440.0</ele><time>2026-03-22T11:29:10.899Z</time></trkpt><trkpt lat="42.972335" lon="13.3521617"><ele>443.25</ele><time>2026-03-22T11:29:13.899Z</time></trkpt><trkpt lat="42.972265" lon="13.3522233"><ele>446.5</ele><time>2026-03-22T11:29:14.899Z</time></trkpt><trkpt lat="42.9721683" lon="13.3523117"><ele>449.75</ele><time>2026-03-22T11:29:15.899Z</time></trkpt><trkpt lat="42.9720567" lon="13.3524133"><ele>453.0</ele><time>2026-03-22T11:29:16.898Z</time></trkpt><trkpt lat="42.9719533" lon="13.35253"><ele>453.0</ele><time>2026-03-22T11:29:17.898Z</time></trkpt><trkpt lat="42.9718333" lon="13.3526683"><ele>453.0</ele><time>2026-03-22T11:29:18.898Z</time></trkpt><trkpt lat="42.9717133" lon="13.3528033"><ele>453.0</ele><time>2026-03-22T11:29:19.899Z</time></trkpt><trkpt lat="42.9715833" lon="13.3529417"><ele>455.0</ele><time>2026-03-22T11:29:20.899Z</time></trkpt><trkpt lat="42.9714683" lon="13.3530767"><ele>457.0</ele><time>2026-03-22T11:29:21.898Z</time></trkpt><trkpt lat="42.971335" lon="13.3532133"><ele>459.0</ele><time>2026-03-22T11:29:22.898Z</time></trkpt><trkpt lat="42.9712133" lon="13.35336"><ele>459.0</ele><time>2026-03-22T11:29:23.898Z</time></trkpt><trkpt lat="42.97109" lon="13.353515"><ele>459.0</ele><time>2026-03-22T11:29:24.898Z</time></trkpt><trkpt lat="42.9709933" lon="13.35369"><ele>459.0</ele><time>2026-03-22T11:29:25.899Z</time></trkpt><trkpt lat="42.9709317" lon="13.3538983"><ele>460.33333333333337</ele><time>2026-03-22T11:29:26.899Z</time></trkpt><trkpt lat="42.97089" lon="13.3541283"><ele>461.6666666666667</ele><time>2026-03-22T11:29:27.899Z</time></trkpt><trkpt lat="42.9708633" lon="13.3543767"><ele>463.0</ele><time>2026-03-22T11:29:28.899Z</time></trkpt><trkpt lat="42.9708367" lon="13.3546367"><ele>463.6666666666667</ele><time>2026-03-22T11:29:29.899Z</time></trkpt><trkpt lat="42.9708033" lon="13.3548783"><ele>464.33333333333337</ele><time>2026-03-22T11:29:30.898Z</time></trkpt><trkpt lat="42.97077" lon="13.3551117"><ele>465.0</ele><time>2026-03-22T11:29:31.898Z</time></trkpt><trkpt lat="42.9707317" lon="13.3553233"><ele>465.0</ele><time>2026-03-22T11:29:32.899Z</time></trkpt><trkpt lat="42.9707067" lon="13.3555233"><ele>465.0</ele><time>2026-03-22T11:29:33.899Z</time></trkpt><trkpt lat="42.9706867" lon="13.3557067"><ele>465.0</ele><time>2026-03-22T11:29:34.899Z</time></trkpt><trkpt lat="42.970655" lon="13.3558783"><ele>465.0</ele><time>2026-03-22T11:29:35.899Z</time></trkpt><trkpt lat="42.9706117" lon="13.3560017"><ele>464.6</ele><time>2026-03-22T11:29:36.898Z</time></trkpt><trkpt lat="42.970555" lon="13.356105"><ele>464.2</ele><time>2026-03-22T11:29:37.898Z</time></trkpt><trkpt lat="42.970515" lon="13.356195"><ele>463.79999999999995</ele><time>2026-03-22T11:29:38.898Z</time></trkpt><trkpt lat="42.97056" lon="13.35634"><ele>463.4</ele><time>2026-03-22T11:29:40.898Z</time></trkpt><trkpt lat="42.9706317" lon="13.3563717"><ele>463.0</ele><time>2026-03-22T11:29:41.899Z</time></trkpt><trkpt lat="42.9707367" lon="13.356385"><ele>461.75</ele><time>2026-03-22T11:29:42.898Z</time></trkpt><trkpt lat="42.9708683" lon="13.3563983"><ele>460.5</ele><time>2026-03-22T11:29:43.898Z</time></trkpt><trkpt lat="42.9710183" lon="13.35644"><ele>459.25</ele><time>2026-03-22T11:29:44.899Z</time></trkpt><trkpt lat="42.9711767" lon="13.3565"><ele>458.0</ele><time>2026-03-22T11:29:45.898Z</time></trkpt><trkpt lat="42.9713467" lon="13.3565717"><ele>458.0</ele><time>2026-03-22T11:29:46.898Z</time></trkpt><trkpt lat="42.9715283" lon="13.3566383"><ele>458.0</ele><time>2026-03-22T11:29:47.898Z</time></trkpt><trkpt lat="42.9717033" lon="13.3566967"><ele>458.0</ele><time>2026-03-22T11:29:48.899Z</time></trkpt><trkpt lat="42.9718817" lon="13.3567667"><ele>458.0</ele><time>2026-03-22T11:29:49.899Z</time></trkpt><trkpt lat="42.97204" lon="13.35687"><ele>458.0</ele><time>2026-03-22T11:29:50.898Z</time></trkpt><trkpt lat="42.972185" lon="13.356995"><ele>458.0</ele><time>2026-03-22T11:29:51.899Z</time></trkpt><trkpt lat="42.9723117" lon="13.3571417"><ele>458.0</ele><time>2026-03-22T11:29:52.898Z</time></trkpt><trkpt lat="42.972425" lon="13.3572967"><ele>458.0</ele><time>2026-03-22T11:29:53.899Z</time></trkpt><trkpt lat="42.97253" lon="13.3574667"><ele>458.0</ele><time>2026-03-22T11:29:54.899Z</time></trkpt><trkpt lat="42.9726317" lon="13.3576417"><ele>457.66666666666663</ele><time>2026-03-22T11:29:55.898Z</time></trkpt><trkpt lat="42.9727383" lon="13.3577933"><ele>457.33333333333337</ele><time>2026-03-22T11:29:56.899Z</time></trkpt><trkpt lat="42.9728567" lon="13.3579183"><ele>457.0</ele><time>2026-03-22T11:29:57.899Z</time></trkpt><trkpt lat="42.9729883" lon="13.358005"><ele>456.5</ele><time>2026-03-22T11:29:58.898Z</time></trkpt><trkpt lat="42.97313" lon="13.3580467"><ele>456.0</ele><time>2026-03-22T11:29:59.899Z</time></trkpt><trkpt lat="42.9732633" lon="13.3580833"><ele>455.5</ele><time>2026-03-22T11:30:00.898Z</time></trkpt><trkpt lat="42.9733883" lon="13.35811"><ele>455.0</ele><time>2026-03-22T11:30:01.899Z</time></trkpt><trkpt lat="42.973505" lon="13.3581417"><ele>454.99999999999994</ele><time>2026-03-22T11:30:02.899Z</time></trkpt><trkpt lat="42.973595" lon="13.3581783"><ele>455.0</ele><time>2026-03-22T11:30:03.899Z</time></trkpt><trkpt lat="42.9736633" lon="13.3582017"><ele>455.0</ele><time>2026-03-22T11:30:04.899Z</time></trkpt><trkpt lat="42.973735" lon="13.3582033"><ele>455.0</ele><time>2026-03-22T11:30:05.899Z</time></trkpt><trkpt lat="42.9738067" lon="13.3582083"><ele>454.99999999999994</ele><time>2026-03-22T11:30:06.899Z</time></trkpt><trkpt lat="42.9738767" lon="13.3582417"><ele>455.0</ele><time>2026-03-22T11:30:07.898Z</time></trkpt><trkpt lat="42.9739433" lon="13.3582983"><ele>454.99999999999994</ele><time>2026-03-22T11:30:08.899Z</time></trkpt><trkpt lat="42.974015" lon="13.3583717"><ele>455.0</ele><time>2026-03-22T11:30:09.898Z</time></trkpt><trkpt lat="42.97409" lon="13.358445"><ele>455.0</ele><time>2026-03-22T11:30:10.898Z</time></trkpt><trkpt lat="42.9741583" lon="13.358515"><ele>455.0</ele><time>2026-03-22T11:30:11.898Z</time></trkpt><trkpt lat="42.9742233" lon="13.358565"><ele>454.99999999999994</ele><time>2026-03-22T11:30:12.899Z</time></trkpt><trkpt lat="42.9742833" lon="13.3586067"><ele>455.0</ele><time>2026-03-22T11:30:13.898Z</time></trkpt><trkpt lat="42.9743467" lon="13.3586267"><ele>453.4</ele><time>2026-03-22T11:30:14.898Z</time></trkpt><trkpt lat="42.9744117" lon="13.3586017"><ele>451.8</ele><time>2026-03-22T11:30:15.899Z</time></trkpt><trkpt lat="42.9744933" lon="13.35855"><ele>450.20000000000005</ele><time>2026-03-22T11:30:16.899Z</time></trkpt><trkpt lat="42.9746033" lon="13.35847"><ele>448.6</ele><time>2026-03-22T11:30:17.899Z</time></trkpt><trkpt lat="42.974735" lon="13.35839"><ele>447.0</ele><time>2026-03-22T11:30:18.898Z</time></trkpt><trkpt lat="42.97486" lon="13.3583117"><ele>447.0</ele><time>2026-03-22T11:30:19.898Z</time></trkpt><trkpt lat="42.9749717" lon="13.3582383"><ele>447.00000000000006</ele><time>2026-03-22T11:30:20.899Z</time></trkpt><trkpt lat="42.9750683" lon="13.3581783"><ele>447.00000000000006</ele><time>2026-03-22T11:30:21.899Z</time></trkpt><trkpt lat="42.9751567" lon="13.358125"><ele>447.0</ele><time>2026-03-22T11:30:22.898Z</time></trkpt><trkpt lat="42.975255" lon="13.35809"><ele>447.0</ele><time>2026-03-22T11:30:23.898Z</time></trkpt><trkpt lat="42.9753383" lon="13.358065"><ele>446.1666666666667</ele><time>2026-03-22T11:30:24.899Z</time></trkpt><trkpt lat="42.9754167" lon="13.3580483"><ele>445.33333333333337</ele><time>2026-03-22T11:30:25.899Z</time></trkpt><trkpt lat="42.975495" lon="13.358035"><ele>444.5</ele><time>2026-03-22T11:30:26.899Z</time></trkpt><trkpt lat="42.9755717" lon="13.3580167"><ele>443.6666666666667</ele><time>2026-03-22T11:30:27.899Z</time></trkpt><trkpt lat="42.9756383" lon="13.3580133"><ele>442.83333333333337</ele><time>2026-03-22T11:30:28.899Z</time></trkpt><trkpt lat="42.9757183" lon="13.358035"><ele>442.0</ele><time>2026-03-22T11:30:29.899Z</time></trkpt><trkpt lat="42.9758083" lon="13.358065"><ele>441.8571428571429</ele><time>2026-03-22T11:30:30.898Z</time></trkpt><trkpt lat="42.975895" lon="13.3580967"><ele>441.7142857142857</ele><time>2026-03-22T11:30:31.899Z</time></trkpt><trkpt lat="42.9759733" lon="13.3581167"><ele>441.57142857142856</ele><time>2026-03-22T11:30:32.898Z</time></trkpt><trkpt lat="42.9760383" lon="13.358135"><ele>441.42857142857144</ele><time>2026-03-22T11:30:33.898Z</time></trkpt><trkpt lat="42.9760983" lon="13.3581783"><ele>441.2857142857143</ele><time>2026-03-22T11:30:34.899Z</time></trkpt><trkpt lat="42.976155" lon="13.35824"><ele>441.14285714285717</ele><time>2026-03-22T11:30:35.899Z</time></trkpt><trkpt lat="42.9762083" lon="13.3583083"><ele>441.0</ele><time>2026-03-22T11:30:36.899Z</time></trkpt><trkpt lat="42.9762617" lon="13.3583833"><ele>441.0</ele><time>2026-03-22T11:30:37.898Z</time></trkpt><trkpt lat="42.9763033" lon="13.3584517"><ele>441.0</ele><time>2026-03-22T11:30:38.899Z</time></trkpt><trkpt lat="42.9763433" lon="13.35852"><ele>441.0</ele><time>2026-03-22T11:30:39.899Z</time></trkpt><trkpt lat="42.9764217" lon="13.35864"><ele>441.0</ele><time>2026-03-22T11:30:41.899Z</time></trkpt><trkpt lat="42.976475" lon="13.35877"><ele>441.0</ele><time>2026-03-22T11:30:43.899Z</time></trkpt><trkpt lat="42.97651" lon="13.3588817"><ele>441.0</ele><time>2026-03-22T11:30:45.898Z</time></trkpt><trkpt lat="42.9765267" lon="13.3589667"><ele>439.3333333333333</ele><time>2026-03-22T11:30:47.899Z</time></trkpt><trkpt lat="42.9765383" lon="13.3590833"><ele>437.66666666666663</ele><time>2026-03-22T11:30:49.899Z</time></trkpt><trkpt lat="42.9765833" lon="13.3591917"><ele>436.0</ele><time>2026-03-22T11:30:51.899Z</time></trkpt><trkpt lat="42.976655" lon="13.3592367"><ele>434.3333333333333</ele><time>2026-03-22T11:30:53.899Z</time></trkpt><trkpt lat="42.9767183" lon="13.3592433"><ele>432.66666666666663</ele><time>2026-03-22T11:30:55.899Z</time></trkpt><trkpt lat="42.9768117" lon="13.3592217"><ele>431.0</ele><time>2026-03-22T11:30:58.898Z</time></trkpt><trkpt lat="42.97688" lon="13.3591983"><ele>427.99999999999994</ele><time>2026-03-22T11:31:00.899Z</time></trkpt><trkpt lat="42.9768817" lon="13.3593083"><ele>425.0</ele><time>2026-03-22T11:31:05.899Z</time></trkpt><trkpt lat="42.97684" lon="13.3593983"><ele>422.0</ele><time>2026-03-22T11:31:09.9Z</time></trkpt><trkpt lat="42.9767817" lon="13.35947"><ele>419.0</ele><time>2026-03-22T11:31:11.9Z</time></trkpt><trkpt lat="42.97674" lon="13.359575"><ele>415.99999999999994</ele><time>2026-03-22T11:31:13.9Z</time></trkpt><trkpt lat="42.976755" lon="13.359665"><ele>413.0</ele><time>2026-03-22T11:31:15.9Z</time></trkpt><trkpt lat="42.9768167" lon="13.3597217"><ele>411.99999999999994</ele><time>2026-03-22T11:31:17.9Z</time></trkpt><trkpt lat="42.97687" lon="13.35979"><ele>411.0</ele><time>2026-03-22T11:31:19.899Z</time></trkpt><trkpt lat="42.976925" lon="13.359895"><ele>410.0</ele><time>2026-03-22T11:31:21.9Z</time></trkpt><trkpt lat="42.9769633" lon="13.359965"><ele>409.0</ele><time>2026-03-22T11:31:22.9Z</time></trkpt><trkpt lat="42.9770117" lon="13.3600783"><ele>407.99999999999994</ele><time>2026-03-22T11:31:24.9Z</time></trkpt><trkpt lat="42.977065" lon="13.3602"><ele>407.0</ele><time>2026-03-22T11:32:31.9Z</time></trkpt><trkpt lat="42.9771433" lon="13.3602883"><ele>406.99999999999994</ele><time>2026-03-22T11:32:33.9Z</time></trkpt><trkpt lat="42.9772467" lon="13.3603167"><ele>407.0</ele><time>2026-03-22T11:32:35.899Z</time></trkpt><trkpt lat="42.97731" lon="13.3603083"><ele>407.0</ele><time>2026-03-22T11:32:36.9Z</time></trkpt><trkpt lat="42.9773717" lon="13.3602717"><ele>407.0</ele><time>2026-03-22T11:32:37.899Z</time></trkpt><trkpt lat="42.9774417" lon="13.3602217"><ele>406.99999999999994</ele><time>2026-03-22T11:32:38.9Z</time></trkpt><trkpt lat="42.9775183" lon="13.3601483"><ele>407.0</ele><time>2026-03-22T11:32:39.9Z</time></trkpt><trkpt lat="42.9776017" lon="13.36007"><ele>409.3333333333333</ele><time>2026-03-22T11:32:40.9Z</time></trkpt><trkpt lat="42.9776733" lon="13.3600033"><ele>411.66666666666663</ele><time>2026-03-22T11:32:41.899Z</time></trkpt><trkpt lat="42.9777267" lon="13.359935"><ele>414.0</ele><time>2026-03-22T11:32:42.9Z</time></trkpt><trkpt lat="42.9777733" lon="13.3598517"><ele>416.33333333333337</ele><time>2026-03-22T11:32:43.899Z</time></trkpt><trkpt lat="42.977815" lon="13.3597617"><ele>418.6666666666667</ele><time>2026-03-22T11:32:44.9Z</time></trkpt><trkpt lat="42.9778583" lon="13.3596617"><ele>421.0</ele><time>2026-03-22T11:32:45.9Z</time></trkpt><trkpt lat="42.9779" lon="13.3595533"><ele>422.33333333333337</ele><time>2026-03-22T11:32:46.9Z</time></trkpt><trkpt lat="42.9779417" lon="13.3594617"><ele>423.6666666666667</ele><time>2026-03-22T11:32:47.9Z</time></trkpt><trkpt lat="42.97798" lon="13.3593917"><ele>425.0</ele><time>2026-03-22T11:32:48.9Z</time></trkpt><trkpt lat="42.9781" lon="13.359335"><ele>426.33333333333337</ele><time>2026-03-22T11:32:50.9Z</time></trkpt><trkpt lat="42.97817" lon="13.35936"><ele>427.6666666666667</ele><time>2026-03-22T11:32:51.899Z</time></trkpt><trkpt lat="42.9782367" lon="13.359425"><ele>429.0</ele><time>2026-03-22T11:32:52.9Z</time></trkpt><trkpt lat="42.9783" lon="13.3595217"><ele>437.5</ele><time>2026-03-22T11:32:53.9Z</time></trkpt><trkpt lat="42.9783733" lon="13.3596217"><ele>446.0</ele><time>2026-03-22T11:32:54.899Z</time></trkpt><trkpt lat="42.978455" lon="13.3597333"><ele>454.5</ele><time>2026-03-22T11:32:55.899Z</time></trkpt><trkpt lat="42.9785333" lon="13.35986"><ele>463.0</ele><time>2026-03-22T11:32:56.899Z</time></trkpt><trkpt lat="42.9786183" lon="13.3599783"><ele>463.0</ele><time>2026-03-22T11:32:57.899Z</time></trkpt><trkpt lat="42.978685" lon="13.3600717"><ele>462.99999999999994</ele><time>2026-03-22T11:32:58.9Z</time></trkpt><trkpt lat="42.9787467" lon="13.36013"><ele>462.99999999999994</ele><time>2026-03-22T11:32:59.899Z</time></trkpt><trkpt lat="42.9788417" lon="13.3601517"><ele>463.0</ele><time>2026-03-22T11:33:01.9Z</time></trkpt><trkpt lat="42.97889" lon="13.3600883"><ele>463.0</ele><time>2026-03-22T11:33:03.9Z</time></trkpt><trkpt lat="42.9789033" lon="13.3599167"><ele>463.00000000000006</ele><time>2026-03-22T11:33:05.899Z</time></trkpt><trkpt lat="42.9789017" lon="13.3598033"><ele>463.0</ele><time>2026-03-22T11:33:06.9Z</time></trkpt><trkpt lat="42.9788967" lon="13.3596783"><ele>463.0</ele><time>2026-03-22T11:33:07.9Z</time></trkpt><trkpt lat="42.97889" lon="13.359555"><ele>463.0</ele><time>2026-03-22T11:33:08.9Z</time></trkpt><trkpt lat="42.9788733" lon="13.3594633"><ele>463.00000000000006</ele><time>2026-03-22T11:33:09.9Z</time></trkpt><trkpt lat="42.97885" lon="13.3593467"><ele>463.0</ele><time>2026-03-22T11:33:11.899Z</time></trkpt><trkpt lat="42.9789283" lon="13.3593667"><ele>463.0</ele><time>2026-03-22T11:33:15.899Z</time></trkpt><trkpt lat="42.9789483" lon="13.3594633"><ele>462.99999999999994</ele><time>2026-03-22T11:33:16.9Z</time></trkpt><trkpt lat="42.9789633" lon="13.3596033"><ele>462.99999999999994</ele><time>2026-03-22T11:33:17.899Z</time></trkpt><trkpt lat="42.9789717" lon="13.3597633"><ele>463.0</ele><time>2026-03-22T11:33:18.899Z</time></trkpt><trkpt lat="42.978975" lon="13.3599533"><ele>463.0</ele><time>2026-03-22T11:33:19.9Z</time></trkpt><trkpt lat="42.9789667" lon="13.36015"><ele>463.0</ele><time>2026-03-22T11:33:20.9Z</time></trkpt><trkpt lat="42.978965" lon="13.3603367"><ele>463.0</ele><time>2026-03-22T11:33:21.9Z</time></trkpt><trkpt lat="42.978925" lon="13.3605417"><ele>463.0</ele><time>2026-03-22T11:33:22.9Z</time></trkpt><trkpt lat="42.9789033" lon="13.3607417"><ele>463.0</ele><time>2026-03-22T11:33:23.899Z</time></trkpt><trkpt lat="42.97891" lon="13.360955"><ele>461.25</ele><time>2026-03-22T11:33:24.9Z</time></trkpt><trkpt lat="42.9789267" lon="13.3611483"><ele>459.5</ele><time>2026-03-22T11:33:25.899Z</time></trkpt><trkpt lat="42.9789733" lon="13.3613417"><ele>457.75</ele><time>2026-03-22T11:33:26.899Z</time></trkpt><trkpt lat="42.9790567" lon="13.3615183"><ele>456.0</ele><time>2026-03-22T11:33:27.9Z</time></trkpt><trkpt lat="42.97917" lon="13.3616617"><ele>461.0</ele><time>2026-03-22T11:33:28.9Z</time></trkpt><trkpt lat="42.9793083" lon="13.3617733"><ele>466.0</ele><time>2026-03-22T11:33:29.9Z</time></trkpt><trkpt lat="42.9794667" lon="13.3618817"><ele>471.0</ele><time>2026-03-22T11:33:30.899Z</time></trkpt><trkpt lat="42.97963" lon="13.3619983"><ele>471.0</ele><time>2026-03-22T11:33:31.9Z</time></trkpt><trkpt lat="42.9797783" lon="13.36214"><ele>471.0</ele><time>2026-03-22T11:33:32.9Z</time></trkpt><trkpt lat="42.9799067" lon="13.3623333"><ele>471.0</ele><time>2026-03-22T11:33:33.899Z</time></trkpt><trkpt lat="42.980005" lon="13.362555"><ele>470.33333333333337</ele><time>2026-03-22T11:33:34.899Z</time></trkpt><trkpt lat="42.9800733" lon="13.3627967"><ele>469.6666666666667</ele><time>2026-03-22T11:33:35.9Z</time></trkpt><trkpt lat="42.9801317" lon="13.3630367"><ele>469.0</ele><time>2026-03-22T11:33:36.9Z</time></trkpt><trkpt lat="42.9801767" lon="13.3632817"><ele>469.0</ele><time>2026-03-22T11:33:37.9Z</time></trkpt><trkpt lat="42.9802317" lon="13.36351"><ele>469.0</ele><time>2026-03-22T11:33:38.9Z</time></trkpt><trkpt lat="42.9802817" lon="13.3637317"><ele>469.0</ele><time>2026-03-22T11:33:39.9Z</time></trkpt><trkpt lat="42.9803383" lon="13.3639333"><ele>462.0</ele><time>2026-03-22T11:33:40.9Z</time></trkpt><trkpt lat="42.9803967" lon="13.3641317"><ele>455.0</ele><time>2026-03-22T11:33:41.9Z</time></trkpt><trkpt lat="42.9804733" lon="13.3643183"><ele>448.0</ele><time>2026-03-22T11:33:42.899Z</time></trkpt><trkpt lat="42.98057" lon="13.3644917"><ele>448.0</ele><time>2026-03-22T11:33:43.899Z</time></trkpt><trkpt lat="42.980685" lon="13.36464"><ele>448.0</ele><time>2026-03-22T11:33:44.9Z</time></trkpt><trkpt lat="42.9808217" lon="13.364775"><ele>448.0</ele><time>2026-03-22T11:33:45.9Z</time></trkpt><trkpt lat="42.9809717" lon="13.3648717"><ele>446.25</ele><time>2026-03-22T11:33:46.9Z</time></trkpt><trkpt lat="42.98111" lon="13.3649483"><ele>444.5</ele><time>2026-03-22T11:33:47.9Z</time></trkpt><trkpt lat="42.9812483" lon="13.3650283"><ele>442.75</ele><time>2026-03-22T11:33:48.899Z</time></trkpt><trkpt lat="42.981365" lon="13.3651017"><ele>441.0</ele><time>2026-03-22T11:33:49.9Z</time></trkpt><trkpt lat="42.9814717" lon="13.3651517"><ele>441.0</ele><time>2026-03-22T11:33:50.9Z</time></trkpt><trkpt lat="42.9815483" lon="13.3652217"><ele>441.0</ele><time>2026-03-22T11:33:51.899Z</time></trkpt><trkpt lat="42.9816133" lon="13.3653017"><ele>441.0</ele><time>2026-03-22T11:33:52.9Z</time></trkpt><trkpt lat="42.9816467" lon="13.3654117"><ele>441.0</ele><time>2026-03-22T11:33:53.9Z</time></trkpt><trkpt lat="42.98166" lon="13.3655333"><ele>441.0</ele><time>2026-03-22T11:33:54.899Z</time></trkpt><trkpt lat="42.9816767" lon="13.3656533"><ele>441.0</ele><time>2026-03-22T11:33:55.9Z</time></trkpt><trkpt lat="42.9817133" lon="13.3657467"><ele>438.6666666666667</ele><time>2026-03-22T11:33:56.9Z</time></trkpt><trkpt lat="42.9817733" lon="13.3658133"><ele>436.33333333333337</ele><time>2026-03-22T11:33:57.9Z</time></trkpt><trkpt lat="42.981845" lon="13.3658467"><ele>434.0</ele><time>2026-03-22T11:33:58.9Z</time></trkpt><trkpt lat="42.9819383" lon="13.365825"><ele>431.6666666666667</ele><time>2026-03-22T11:33:59.9Z</time></trkpt><trkpt lat="42.98204" lon="13.3658017"><ele>429.33333333333337</ele><time>2026-03-22T11:34:00.9Z</time></trkpt><trkpt lat="42.9821283" lon="13.3658133"><ele>427.0</ele><time>2026-03-22T11:34:01.899Z</time></trkpt><trkpt lat="42.9822117" lon="13.3658467"><ele>427.0</ele><time>2026-03-22T11:34:02.9Z</time></trkpt><trkpt lat="42.9822833" lon="13.365905"><ele>427.0</ele><time>2026-03-22T11:34:03.9Z</time></trkpt><trkpt lat="42.9823583" lon="13.3659983"><ele>427.0</ele><time>2026-03-22T11:34:04.899Z</time></trkpt><trkpt lat="42.9824333" lon="13.36614"><ele>427.0</ele><time>2026-03-22T11:34:05.9Z</time></trkpt><trkpt lat="42.9825067" lon="13.3663183"><ele>427.0</ele><time>2026-03-22T11:34:06.9Z</time></trkpt><trkpt lat="42.98258" lon="13.366495"><ele>427.0</ele><time>2026-03-22T11:34:07.9Z</time></trkpt><trkpt lat="42.9826517" lon="13.3666617"><ele>427.0</ele><time>2026-03-22T11:34:08.9Z</time></trkpt><trkpt lat="42.9827317" lon="13.366815"><ele>427.0</ele><time>2026-03-22T11:34:09.9Z</time></trkpt><trkpt lat="42.9828233" lon="13.36694"><ele>427.0</ele><time>2026-03-22T11:34:10.9Z</time></trkpt><trkpt lat="42.9829233" lon="13.3670433"><ele>427.0</ele><time>2026-03-22T11:34:11.9Z</time></trkpt><trkpt lat="42.983025" lon="13.3671267"><ele>427.0</ele><time>2026-03-22T11:34:12.899Z</time></trkpt><trkpt lat="42.9831433" lon="13.3671817"><ele>427.0</ele><time>2026-03-22T11:34:13.9Z</time></trkpt><trkpt lat="42.98328" lon="13.3672033"><ele>427.0</ele><time>2026-03-22T11:34:14.899Z</time></trkpt><trkpt lat="42.9834333" lon="13.3672033"><ele>427.0</ele><time>2026-03-22T11:34:15.9Z</time></trkpt><trkpt lat="42.9836067" lon="13.3671867"><ele>427.0</ele><time>2026-03-22T11:34:16.9Z</time></trkpt><trkpt lat="42.9837833" lon="13.367175"><ele>427.0</ele><time>2026-03-22T11:34:17.9Z</time></trkpt><trkpt lat="42.9839467" lon="13.3671667"><ele>427.0</ele><time>2026-03-22T11:34:18.899Z</time></trkpt><trkpt lat="42.9840983" lon="13.36716"><ele>427.0</ele><time>2026-03-22T11:34:19.9Z</time></trkpt><trkpt lat="42.98423" lon="13.3671617"><ele>427.0</ele><time>2026-03-22T11:34:20.9Z</time></trkpt><trkpt lat="42.98435" lon="13.3671767"><ele>421.25</ele><time>2026-03-22T11:34:21.899Z</time></trkpt><trkpt lat="42.984455" lon="13.36721"><ele>415.5</ele><time>2026-03-22T11:34:22.9Z</time></trkpt><trkpt lat="42.98457" lon="13.3672717"><ele>409.75</ele><time>2026-03-22T11:34:23.9Z</time></trkpt><trkpt lat="42.9846833" lon="13.3673583"><ele>404.0</ele><time>2026-03-22T11:34:24.9Z</time></trkpt><trkpt lat="42.9848" lon="13.3674083"><ele>404.0</ele><time>2026-03-22T11:34:25.899Z</time></trkpt><trkpt lat="42.9849167" lon="13.36747"><ele>404.0</ele><time>2026-03-22T11:34:26.9Z</time></trkpt><trkpt lat="42.9850217" lon="13.3675283"><ele>404.0</ele><time>2026-03-22T11:34:27.9Z</time></trkpt><trkpt lat="42.9851383" lon="13.36759"><ele>404.0</ele><time>2026-03-22T11:34:28.899Z</time></trkpt><trkpt lat="42.9852533" lon="13.3676367"><ele>400.75</ele><time>2026-03-22T11:34:29.9Z</time></trkpt><trkpt lat="42.985375" lon="13.3676933"><ele>397.5</ele><time>2026-03-22T11:34:30.899Z</time></trkpt><trkpt lat="42.9855083" lon="13.36778"><ele>394.25</ele><time>2026-03-22T11:34:31.9Z</time></trkpt><trkpt lat="42.985635" lon="13.3678983"><ele>391.0</ele><time>2026-03-22T11:34:32.9Z</time></trkpt><trkpt lat="42.98576" lon="13.368025"><ele>388.6666666666667</ele><time>2026-03-22T11:34:33.9Z</time></trkpt><trkpt lat="42.9858867" lon="13.3681467"><ele>386.33333333333337</ele><time>2026-03-22T11:34:34.9Z</time></trkpt><trkpt lat="42.98602" lon="13.36826"><ele>384.0</ele><time>2026-03-22T11:34:35.899Z</time></trkpt><trkpt lat="42.9861617" lon="13.36837"><ele>384.0</ele><time>2026-03-22T11:34:36.899Z</time></trkpt><trkpt lat="42.9863117" lon="13.368475"><ele>384.0</ele><time>2026-03-22T11:34:37.9Z</time></trkpt><trkpt lat="42.98648" lon="13.3685883"><ele>384.0</ele><time>2026-03-22T11:34:38.899Z</time></trkpt><trkpt lat="42.98665" lon="13.36869"><ele>384.33333333333337</ele><time>2026-03-22T11:34:39.899Z</time></trkpt><trkpt lat="42.9868317" lon="13.3687867"><ele>384.6666666666667</ele><time>2026-03-22T11:34:40.9Z</time></trkpt><trkpt lat="42.9870167" lon="13.3688717"><ele>385.0</ele><time>2026-03-22T11:34:41.9Z</time></trkpt><trkpt lat="42.98719" lon="13.3689767"><ele>383.33333333333337</ele><time>2026-03-22T11:34:42.9Z</time></trkpt><trkpt lat="42.9873717" lon="13.3691083"><ele>381.6666666666667</ele><time>2026-03-22T11:34:43.9Z</time></trkpt><trkpt lat="42.9875483" lon="13.369235"><ele>380.0</ele><time>2026-03-22T11:34:44.9Z</time></trkpt><trkpt lat="42.9877317" lon="13.369355"><ele>380.0</ele><time>2026-03-22T11:34:45.899Z</time></trkpt><trkpt lat="42.9879217" lon="13.3694867"><ele>380.0</ele><time>2026-03-22T11:34:46.9Z</time></trkpt><trkpt lat="42.9881117" lon="13.3696083"><ele>380.0</ele><time>2026-03-22T11:34:47.899Z</time></trkpt><trkpt lat="42.9883017" lon="13.3697283"><ele>378.6666666666667</ele><time>2026-03-22T11:34:48.9Z</time></trkpt><trkpt lat="42.9884883" lon="13.3698483"><ele>377.3333333333333</ele><time>2026-03-22T11:34:49.9Z</time></trkpt><trkpt lat="42.988665" lon="13.3699667"><ele>376.0</ele><time>2026-03-22T11:34:50.9Z</time></trkpt><trkpt lat="42.9888367" lon="13.3700867"><ele>376.0</ele><time>2026-03-22T11:34:51.9Z</time></trkpt><trkpt lat="42.9890117" lon="13.3702"><ele>376.0</ele><time>2026-03-22T11:34:52.9Z</time></trkpt><trkpt lat="42.98917" lon="13.370305"><ele>376.0</ele><time>2026-03-22T11:34:53.9Z</time></trkpt><trkpt lat="42.989325" lon="13.370385"><ele>376.0</ele><time>2026-03-22T11:34:54.9Z</time></trkpt><trkpt lat="42.98948" lon="13.3704567"><ele>376.0</ele><time>2026-03-22T11:34:55.9Z</time></trkpt><trkpt lat="42.9896333" lon="13.3705167"><ele>376.0</ele><time>2026-03-22T11:34:56.9Z</time></trkpt><trkpt lat="42.989785" lon="13.3705717"><ele>376.25</ele><time>2026-03-22T11:34:57.9Z</time></trkpt><trkpt lat="42.9899317" lon="13.3706317"><ele>376.5</ele><time>2026-03-22T11:34:58.899Z</time></trkpt><trkpt lat="42.9900617" lon="13.3706767"><ele>376.75</ele><time>2026-03-22T11:34:59.9Z</time></trkpt><trkpt lat="42.9901867" lon="13.3707133"><ele>377.0</ele><time>2026-03-22T11:35:00.9Z</time></trkpt><trkpt lat="42.990305" lon="13.3707567"><ele>377.0</ele><time>2026-03-22T11:35:01.9Z</time></trkpt><trkpt lat="42.9904167" lon="13.3707767"><ele>377.0</ele><time>2026-03-22T11:35:02.9Z</time></trkpt><trkpt lat="42.9905333" lon="13.3707933"><ele>377.0</ele><time>2026-03-22T11:35:03.899Z</time></trkpt><trkpt lat="42.99065" lon="13.3707933"><ele>377.0</ele><time>2026-03-22T11:35:04.899Z</time></trkpt><trkpt lat="42.990775" lon="13.3707867"><ele>377.0</ele><time>2026-03-22T11:35:05.899Z</time></trkpt><trkpt lat="42.99091" lon="13.370785"><ele>377.0</ele><time>2026-03-22T11:35:06.899Z</time></trkpt><trkpt lat="42.9910517" lon="13.3707983"><ele>377.0</ele><time>2026-03-22T11:35:07.9Z</time></trkpt><trkpt lat="42.9911967" lon="13.3708167"><ele>377.0</ele><time>2026-03-22T11:35:08.9Z</time></trkpt><trkpt lat="42.9913517" lon="13.3708283"><ele>377.0</ele><time>2026-03-22T11:35:09.9Z</time></trkpt><trkpt lat="42.991505" lon="13.3708333"><ele>377.0</ele><time>2026-03-22T11:35:10.899Z</time></trkpt><trkpt lat="42.9916783" lon="13.3708317"><ele>377.0</ele><time>2026-03-22T11:35:11.899Z</time></trkpt><trkpt lat="42.99186" lon="13.3708133"><ele>375.33333333333337</ele><time>2026-03-22T11:35:12.899Z</time></trkpt><trkpt lat="42.9920433" lon="13.3707817"><ele>373.6666666666667</ele><time>2026-03-22T11:35:13.899Z</time></trkpt><trkpt lat="42.9922267" lon="13.3707367"><ele>372.0</ele><time>2026-03-22T11:35:14.9Z</time></trkpt><trkpt lat="42.992415" lon="13.370695"><ele>371.3333333333333</ele><time>2026-03-22T11:35:15.9Z</time></trkpt><trkpt lat="42.9926" lon="13.37065"><ele>370.66666666666663</ele><time>2026-03-22T11:35:16.9Z</time></trkpt><trkpt lat="42.99279" lon="13.3706083"><ele>370.0</ele><time>2026-03-22T11:35:17.899Z</time></trkpt><trkpt lat="42.992985" lon="13.3706017"><ele>370.0</ele><time>2026-03-22T11:35:18.9Z</time></trkpt><trkpt lat="42.9931833" lon="13.3705967"><ele>370.0</ele><time>2026-03-22T11:35:19.9Z</time></trkpt><trkpt lat="42.9933817" lon="13.3705867"><ele>370.0</ele><time>2026-03-22T11:35:20.899Z</time></trkpt><trkpt lat="42.9935783" lon="13.3705733"><ele>370.0</ele><time>2026-03-22T11:35:21.9Z</time></trkpt><trkpt lat="42.99377" lon="13.3705717"><ele>370.0</ele><time>2026-03-22T11:35:22.9Z</time></trkpt><trkpt lat="42.9939683" lon="13.3705667"><ele>370.0</ele><time>2026-03-22T11:35:23.9Z</time></trkpt><trkpt lat="42.9941667" lon="13.37056"><ele>370.0</ele><time>2026-03-22T11:35:24.9Z</time></trkpt><trkpt lat="42.99436" lon="13.3705517"><ele>370.0</ele><time>2026-03-22T11:35:25.899Z</time></trkpt><trkpt lat="42.994545" lon="13.3705467"><ele>370.0</ele><time>2026-03-22T11:35:26.9Z</time></trkpt><trkpt lat="42.9947233" lon="13.3705483"><ele>370.0</ele><time>2026-03-22T11:35:27.899Z</time></trkpt><trkpt lat="42.9948933" lon="13.3705717"><ele>370.0</ele><time>2026-03-22T11:35:28.9Z</time></trkpt><trkpt lat="42.99507" lon="13.37062"><ele>370.0</ele><time>2026-03-22T11:35:29.9Z</time></trkpt><trkpt lat="42.99526" lon="13.370665"><ele>371.66666666666663</ele><time>2026-03-22T11:35:30.9Z</time></trkpt><trkpt lat="42.99545" lon="13.37072"><ele>373.3333333333333</ele><time>2026-03-22T11:35:31.899Z</time></trkpt><trkpt lat="42.9956333" lon="13.3707783"><ele>375.0</ele><time>2026-03-22T11:35:32.9Z</time></trkpt><trkpt lat="42.995805" lon="13.3708417"><ele>379.66666666666663</ele><time>2026-03-22T11:35:33.899Z</time></trkpt><trkpt lat="42.99597" lon="13.3709117"><ele>384.3333333333333</ele><time>2026-03-22T11:35:34.9Z</time></trkpt><trkpt lat="42.9961367" lon="13.3709617"><ele>389.0</ele><time>2026-03-22T11:35:35.9Z</time></trkpt><trkpt lat="42.9962933" lon="13.3710033"><ele>389.0</ele><time>2026-03-22T11:35:36.899Z</time></trkpt><trkpt lat="42.9964317" lon="13.371035"><ele>389.0</ele><time>2026-03-22T11:35:37.899Z</time></trkpt><trkpt lat="42.99655" lon="13.3710933"><ele>389.0</ele><time>2026-03-22T11:35:38.9Z</time></trkpt><trkpt lat="42.9966417" lon="13.3711767"><ele>389.0</ele><time>2026-03-22T11:35:39.899Z</time></trkpt><trkpt lat="42.9967217" lon="13.3712583"><ele>390.4</ele><time>2026-03-22T11:35:40.9Z</time></trkpt><trkpt lat="42.9968083" lon="13.3713"><ele>391.79999999999995</ele><time>2026-03-22T11:35:41.899Z</time></trkpt><trkpt lat="42.9968833" lon="13.371295"><ele>393.20000000000005</ele><time>2026-03-22T11:35:42.9Z</time></trkpt><trkpt lat="42.9969717" lon="13.371265"><ele>394.6</ele><time>2026-03-22T11:35:43.9Z</time></trkpt><trkpt lat="42.99707" lon="13.37121"><ele>396.0</ele><time>2026-03-22T11:35:44.899Z</time></trkpt><trkpt lat="42.9971633" lon="13.3711433"><ele>396.0</ele><time>2026-03-22T11:35:45.9Z</time></trkpt><trkpt lat="42.9972517" lon="13.3710517"><ele>396.0</ele><time>2026-03-22T11:35:46.9Z</time></trkpt><trkpt lat="42.9973417" lon="13.3709417"><ele>396.0</ele><time>2026-03-22T11:35:47.9Z</time></trkpt><trkpt lat="42.99743" lon="13.3708117"><ele>396.0</ele><time>2026-03-22T11:35:48.899Z</time></trkpt><trkpt lat="42.997525" lon="13.370715"><ele>396.75</ele><time>2026-03-22T11:35:49.899Z</time></trkpt><trkpt lat="42.9976367" lon="13.370655"><ele>397.5</ele><time>2026-03-22T11:35:50.9Z</time></trkpt><trkpt lat="42.9977583" lon="13.37063"><ele>398.25</ele><time>2026-03-22T11:35:51.9Z</time></trkpt><trkpt lat="42.9978833" lon="13.37063"><ele>399.0</ele><time>2026-03-22T11:35:52.9Z</time></trkpt><trkpt lat="42.998015" lon="13.3706417"><ele>399.0</ele><time>2026-03-22T11:35:53.9Z</time></trkpt><trkpt lat="42.99816" lon="13.37067"><ele>399.0</ele><time>2026-03-22T11:35:54.899Z</time></trkpt><trkpt lat="42.9983117" lon="13.3706917"><ele>399.0</ele><time>2026-03-22T11:35:55.9Z</time></trkpt><trkpt lat="42.998445" lon="13.3707133"><ele>399.0</ele><time>2026-03-22T11:35:56.899Z</time></trkpt><trkpt lat="42.9985733" lon="13.37072"><ele>399.25</ele><time>2026-03-22T11:35:57.9Z</time></trkpt><trkpt lat="42.9987067" lon="13.370725"><ele>399.5</ele><time>2026-03-22T11:35:58.9Z</time></trkpt><trkpt lat="42.9988417" lon="13.3707083"><ele>399.75</ele><time>2026-03-22T11:35:59.899Z</time></trkpt><trkpt lat="42.998955" lon="13.3706633"><ele>400.0</ele><time>2026-03-22T11:36:00.899Z</time></trkpt><trkpt lat="42.99906" lon="13.3706167"><ele>400.0</ele><time>2026-03-22T11:36:01.9Z</time></trkpt><trkpt lat="42.9991667" lon="13.3706"><ele>400.0</ele><time>2026-03-22T11:36:02.899Z</time></trkpt><trkpt lat="42.9992883" lon="13.3706033"><ele>400.0</ele><time>2026-03-22T11:36:03.9Z</time></trkpt><trkpt lat="42.999415" lon="13.370575"><ele>400.0</ele><time>2026-03-22T11:36:04.899Z</time></trkpt><trkpt lat="42.9995367" lon="13.370515"><ele>405.0</ele><time>2026-03-22T11:36:05.9Z</time></trkpt><trkpt lat="42.9996567" lon="13.3704683"><ele>410.0</ele><time>2026-03-22T11:36:06.9Z</time></trkpt><trkpt lat="42.9997717" lon="13.3704633"><ele>415.0</ele><time>2026-03-22T11:36:07.9Z</time></trkpt><trkpt lat="42.9998917" lon="13.37049"><ele>420.0</ele><time>2026-03-22T11:36:08.9Z</time></trkpt><trkpt lat="43.0000083" lon="13.3705167"><ele>416.8</ele><time>2026-03-22T11:36:09.899Z</time></trkpt><trkpt lat="43.0000967" lon="13.3705533"><ele>413.6</ele><time>2026-03-22T11:36:10.9Z</time></trkpt><trkpt lat="43.0001617" lon="13.3705983"><ele>410.4</ele><time>2026-03-22T11:36:11.899Z</time></trkpt><trkpt lat="43.000225" lon="13.3706783"><ele>407.2</ele><time>2026-03-22T11:36:12.899Z</time></trkpt><trkpt lat="43.0002817" lon="13.370795"><ele>404.0</ele><time>2026-03-22T11:36:13.9Z</time></trkpt><trkpt lat="43.0003333" lon="13.37092"><ele>404.0</ele><time>2026-03-22T11:36:14.9Z</time></trkpt><trkpt lat="43.000395" lon="13.3710283"><ele>404.0</ele><time>2026-03-22T11:36:15.9Z</time></trkpt><trkpt lat="43.0004867" lon="13.3711267"><ele>404.0</ele><time>2026-03-22T11:36:16.899Z</time></trkpt><trkpt lat="43.000595" lon="13.3712217"><ele>404.0</ele><time>2026-03-22T11:36:17.9Z</time></trkpt><trkpt lat="43.0007017" lon="13.371315"><ele>402.6</ele><time>2026-03-22T11:36:18.9Z</time></trkpt><trkpt lat="43.0007967" lon="13.371395"><ele>401.2</ele><time>2026-03-22T11:36:19.9Z</time></trkpt><trkpt lat="43.000865" lon="13.3714683"><ele>399.8</ele><time>2026-03-22T11:36:20.9Z</time></trkpt><trkpt lat="43.00093" lon="13.3715567"><ele>398.40000000000003</ele><time>2026-03-22T11:36:21.899Z</time></trkpt><trkpt lat="43.0009783" lon="13.3716933"><ele>397.0</ele><time>2026-03-22T11:36:22.899Z</time></trkpt><trkpt lat="43.0010167" lon="13.371845"><ele>397.0</ele><time>2026-03-22T11:36:23.9Z</time></trkpt><trkpt lat="43.0010683" lon="13.3719733"><ele>397.0</ele><time>2026-03-22T11:36:24.899Z</time></trkpt><trkpt lat="43.00112" lon="13.372075"><ele>397.0</ele><time>2026-03-22T11:36:25.899Z</time></trkpt><trkpt lat="43.0012017" lon="13.3721567"><ele>397.0</ele><time>2026-03-22T11:36:26.9Z</time></trkpt><trkpt lat="43.0012917" lon="13.3722167"><ele>397.0</ele><time>2026-03-22T11:36:27.9Z</time></trkpt><trkpt lat="43.0013883" lon="13.3722417"><ele>397.0</ele><time>2026-03-22T11:36:28.9Z</time></trkpt><trkpt lat="43.0014933" lon="13.3722317"><ele>397.0</ele><time>2026-03-22T11:36:29.9Z</time></trkpt><trkpt lat="43.0016083" lon="13.3721867"><ele>397.0</ele><time>2026-03-22T11:36:30.899Z</time></trkpt><trkpt lat="43.0017333" lon="13.3721333"><ele>397.0</ele><time>2026-03-22T11:36:31.9Z</time></trkpt><trkpt lat="43.001855" lon="13.3720967"><ele>398.25</ele><time>2026-03-22T11:36:32.9Z</time></trkpt><trkpt lat="43.0019683" lon="13.3720567"><ele>399.5</ele><time>2026-03-22T11:36:33.9Z</time></trkpt><trkpt lat="43.00209" lon="13.3720033"><ele>400.75</ele><time>2026-03-22T11:36:34.9Z</time></trkpt><trkpt lat="43.0022417" lon="13.3719367"><ele>402.0</ele><time>2026-03-22T11:36:35.9Z</time></trkpt><trkpt lat="43.0024067" lon="13.3718833"><ele>401.66666666666663</ele><time>2026-03-22T11:36:36.9Z</time></trkpt><trkpt lat="43.0025767" lon="13.3718383"><ele>401.3333333333333</ele><time>2026-03-22T11:36:37.9Z</time></trkpt><trkpt lat="43.0027483" lon="13.3717883"><ele>401.0</ele><time>2026-03-22T11:36:38.9Z</time></trkpt><trkpt lat="43.0029167" lon="13.3717383"><ele>401.0</ele><time>2026-03-22T11:36:39.899Z</time></trkpt><trkpt lat="43.0030733" lon="13.3717"><ele>401.0</ele><time>2026-03-22T11:36:40.9Z</time></trkpt><trkpt lat="43.00324" lon="13.3716617"><ele>401.0</ele><time>2026-03-22T11:36:41.9Z</time></trkpt><trkpt lat="43.00339" lon="13.3715983"><ele>401.5</ele><time>2026-03-22T11:36:42.9Z</time></trkpt><trkpt lat="43.00353" lon="13.3715467"><ele>402.0</ele><time>2026-03-22T11:36:43.9Z</time></trkpt><trkpt lat="43.003655" lon="13.3715367"><ele>402.5</ele><time>2026-03-22T11:36:44.9Z</time></trkpt><trkpt lat="43.0037633" lon="13.371555"><ele>403.0</ele><time>2026-03-22T11:36:45.899Z</time></trkpt><trkpt lat="43.0038783" lon="13.3715717"><ele>403.0</ele><time>2026-03-22T11:36:46.899Z</time></trkpt><trkpt lat="43.004005" lon="13.3715417"><ele>403.0</ele><time>2026-03-22T11:36:47.9Z</time></trkpt><trkpt lat="43.0041467" lon="13.37148"><ele>403.0</ele><time>2026-03-22T11:36:48.9Z</time></trkpt><trkpt lat="43.00429" lon="13.3714267"><ele>403.0</ele><time>2026-03-22T11:36:49.899Z</time></trkpt><trkpt lat="43.0044183" lon="13.3713783"><ele>403.59999999999997</ele><time>2026-03-22T11:36:50.899Z</time></trkpt><trkpt lat="43.0045383" lon="13.3713333"><ele>404.2</ele><time>2026-03-22T11:36:51.9Z</time></trkpt><trkpt lat="43.00464" lon="13.37131"><ele>404.8</ele><time>2026-03-22T11:36:52.899Z</time></trkpt><trkpt lat="43.00474" lon="13.37131"><ele>405.4</ele><time>2026-03-22T11:36:53.9Z</time></trkpt><trkpt lat="43.0048367" lon="13.3713317"><ele>406.0</ele><time>2026-03-22T11:36:54.899Z</time></trkpt><trkpt lat="43.0049433" lon="13.3713667"><ele>406.0</ele><time>2026-03-22T11:36:55.899Z</time></trkpt><trkpt lat="43.0050517" lon="13.371405"><ele>406.0</ele><time>2026-03-22T11:36:56.9Z</time></trkpt><trkpt lat="43.00516" lon="13.3714333"><ele>406.0</ele><time>2026-03-22T11:36:57.9Z</time></trkpt><trkpt lat="43.0052717" lon="13.3714517"><ele>406.0</ele><time>2026-03-22T11:36:58.9Z</time></trkpt><trkpt lat="43.0053833" lon="13.37147"><ele>406.0</ele><time>2026-03-22T11:36:59.9Z</time></trkpt><trkpt lat="43.0054817" lon="13.3715"><ele>406.0</ele><time>2026-03-22T11:37:00.9Z</time></trkpt><trkpt lat="43.0055683" lon="13.371545"><ele>406.0</ele><time>2026-03-22T11:37:01.9Z</time></trkpt><trkpt lat="43.0056417" lon="13.3716183"><ele>406.0</ele><time>2026-03-22T11:37:02.9Z</time></trkpt><trkpt lat="43.0057" lon="13.3717133"><ele>406.0</ele><time>2026-03-22T11:37:03.899Z</time></trkpt><trkpt lat="43.005735" lon="13.37186"><ele>406.0</ele><time>2026-03-22T11:37:04.9Z</time></trkpt><trkpt lat="43.0057517" lon="13.3720567"><ele>404.6666666666667</ele><time>2026-03-22T11:37:05.899Z</time></trkpt><trkpt lat="43.005765" lon="13.372265"><ele>403.33333333333337</ele><time>2026-03-22T11:37:06.899Z</time></trkpt><trkpt lat="43.0057933" lon="13.3724883"><ele>402.0</ele><time>2026-03-22T11:37:07.899Z</time></trkpt><trkpt lat="43.0058183" lon="13.3727117"><ele>401.5</ele><time>2026-03-22T11:37:08.9Z</time></trkpt><trkpt lat="43.0058517" lon="13.3729167"><ele>401.0</ele><time>2026-03-22T11:37:09.9Z</time></trkpt><trkpt lat="43.00589" lon="13.3731083"><ele>400.5</ele><time>2026-03-22T11:37:10.899Z</time></trkpt><trkpt lat="43.0059167" lon="13.373285"><ele>400.0</ele><time>2026-03-22T11:37:11.9Z</time></trkpt><trkpt lat="43.0059217" lon="13.3734717"><ele>399.0</ele><time>2026-03-22T11:37:12.9Z</time></trkpt><trkpt lat="43.00592" lon="13.3736833"><ele>398.0</ele><time>2026-03-22T11:37:13.9Z</time></trkpt><trkpt lat="43.0059233" lon="13.3738917"><ele>397.0</ele><time>2026-03-22T11:37:14.9Z</time></trkpt><trkpt lat="43.0059467" lon="13.3741"><ele>395.5</ele><time>2026-03-22T11:37:15.899Z</time></trkpt><trkpt lat="43.0059733" lon="13.3743017"><ele>394.0</ele><time>2026-03-22T11:37:16.9Z</time></trkpt><trkpt lat="43.0060083" lon="13.3744817"><ele>392.5</ele><time>2026-03-22T11:37:17.9Z</time></trkpt><trkpt lat="43.0060517" lon="13.3746567"><ele>391.0</ele><time>2026-03-22T11:37:18.9Z</time></trkpt><trkpt lat="43.0060983" lon="13.3748183"><ele>389.8</ele><time>2026-03-22T11:37:19.899Z</time></trkpt><trkpt lat="43.0061433" lon="13.37496"><ele>388.6</ele><time>2026-03-22T11:37:20.9Z</time></trkpt><trkpt lat="43.0061883" lon="13.3750817"><ele>387.4</ele><time>2026-03-22T11:37:21.9Z</time></trkpt><trkpt lat="43.006255" lon="13.375185"><ele>386.2</ele><time>2026-03-22T11:37:22.9Z</time></trkpt><trkpt lat="43.0063283" lon="13.3752817"><ele>385.0</ele><time>2026-03-22T11:37:23.9Z</time></trkpt><trkpt lat="43.0064117" lon="13.37536"><ele>385.00000000000006</ele><time>2026-03-22T11:37:24.9Z</time></trkpt><trkpt lat="43.00648" lon="13.3754233"><ele>385.0</ele><time>2026-03-22T11:37:25.9Z</time></trkpt><trkpt lat="43.0065367" lon="13.375495"><ele>385.0</ele><time>2026-03-22T11:37:26.899Z</time></trkpt><trkpt lat="43.0065783" lon="13.3755967"><ele>385.0</ele><time>2026-03-22T11:37:27.9Z</time></trkpt><trkpt lat="43.0066" lon="13.37572"><ele>385.00000000000006</ele><time>2026-03-22T11:37:28.9Z</time></trkpt><trkpt lat="43.0066" lon="13.375855"><ele>385.0</ele><time>2026-03-22T11:37:29.899Z</time></trkpt><trkpt lat="43.0066133" lon="13.3759967"><ele>382.8</ele><time>2026-03-22T11:37:30.9Z</time></trkpt><trkpt lat="43.0066467" lon="13.3761383"><ele>380.6</ele><time>2026-03-22T11:37:31.9Z</time></trkpt><trkpt lat="43.006685" lon="13.3762733"><ele>378.4</ele><time>2026-03-22T11:37:32.9Z</time></trkpt><trkpt lat="43.0067333" lon="13.3763883"><ele>376.2</ele><time>2026-03-22T11:37:33.899Z</time></trkpt><trkpt lat="43.0067917" lon="13.376485"><ele>374.0</ele><time>2026-03-22T11:37:34.9Z</time></trkpt><trkpt lat="43.0068233" lon="13.3765633"><ele>371.5</ele><time>2026-03-22T11:37:35.899Z</time></trkpt><trkpt lat="43.0068517" lon="13.3767367"><ele>369.0</ele><time>2026-03-22T11:37:37.899Z</time></trkpt><trkpt lat="43.0068317" lon="13.3768433"><ele>366.5</ele><time>2026-03-22T11:37:38.9Z</time></trkpt><trkpt lat="43.006785" lon="13.3769783"><ele>364.0</ele><time>2026-03-22T11:37:39.9Z</time></trkpt><trkpt lat="43.0066983" lon="13.3771367"><ele>362.2</ele><time>2026-03-22T11:37:40.9Z</time></trkpt><trkpt lat="43.00661" lon="13.3772733"><ele>360.4</ele><time>2026-03-22T11:37:41.9Z</time></trkpt><trkpt lat="43.0065467" lon="13.3773967"><ele>358.6</ele><time>2026-03-22T11:37:42.9Z</time></trkpt><trkpt lat="43.00651" lon="13.3775183"><ele>356.8</ele><time>2026-03-22T11:37:43.9Z</time></trkpt><trkpt lat="43.00652" lon="13.3776267"><ele>355.0</ele><time>2026-03-22T11:37:44.899Z</time></trkpt><trkpt lat="43.0065583" lon="13.377735"><ele>355.0</ele><time>2026-03-22T11:37:45.9Z</time></trkpt><trkpt lat="43.006625" lon="13.3778333"><ele>355.0</ele><time>2026-03-22T11:37:46.899Z</time></trkpt><trkpt lat="43.0067217" lon="13.3779517"><ele>355.0</ele><time>2026-03-22T11:37:47.9Z</time></trkpt><trkpt lat="43.0068183" lon="13.3780917"><ele>355.0</ele><time>2026-03-22T11:37:48.899Z</time></trkpt><trkpt lat="43.0069183" lon="13.3782517"><ele>355.0</ele><time>2026-03-22T11:37:49.899Z</time></trkpt><trkpt lat="43.00701" lon="13.37841"><ele>355.0</ele><time>2026-03-22T11:37:50.899Z</time></trkpt><trkpt lat="43.007095" lon="13.3785467"><ele>355.0</ele><time>2026-03-22T11:37:51.9Z</time></trkpt><trkpt lat="43.0071567" lon="13.3786567"><ele>355.0</ele><time>2026-03-22T11:37:52.9Z</time></trkpt><trkpt lat="43.007205" lon="13.3787633"><ele>355.5</ele><time>2026-03-22T11:37:53.899Z</time></trkpt><trkpt lat="43.007245" lon="13.3788717"><ele>356.0</ele><time>2026-03-22T11:37:54.899Z</time></trkpt><trkpt lat="43.0072883" lon="13.3790033"><ele>356.5</ele><time>2026-03-22T11:37:55.9Z</time></trkpt><trkpt lat="43.007355" lon="13.3791517"><ele>357.0</ele><time>2026-03-22T11:37:56.899Z</time></trkpt><trkpt lat="43.00743" lon="13.3793067"><ele>356.0</ele><time>2026-03-22T11:37:57.899Z</time></trkpt><trkpt lat="43.0075167" lon="13.3794617"><ele>355.0</ele><time>2026-03-22T11:37:58.9Z</time></trkpt><trkpt lat="43.0076183" lon="13.3796333"><ele>354.0</ele><time>2026-03-22T11:37:59.9Z</time></trkpt><trkpt lat="43.0077217" lon="13.3798117"><ele>354.0</ele><time>2026-03-22T11:38:00.9Z</time></trkpt><trkpt lat="43.0078317" lon="13.3799933"><ele>354.0</ele><time>2026-03-22T11:38:01.9Z</time></trkpt><trkpt lat="43.0079567" lon="13.3801667"><ele>354.0</ele><time>2026-03-22T11:38:02.9Z</time></trkpt><trkpt lat="43.0080933" lon="13.380345"><ele>354.3333333333333</ele><time>2026-03-22T11:38:03.899Z</time></trkpt><trkpt lat="43.008225" lon="13.38054"><ele>354.66666666666663</ele><time>2026-03-22T11:38:04.899Z</time></trkpt><trkpt lat="43.0083483" lon="13.3807217"><ele>355.0</ele><time>2026-03-22T11:38:05.899Z</time></trkpt><trkpt lat="43.00847" lon="13.38091"><ele>354.5</ele><time>2026-03-22T11:38:06.899Z</time></trkpt><trkpt lat="43.0085733" lon="13.381045"><ele>354.0</ele><time>2026-03-22T11:38:07.9Z</time></trkpt><trkpt lat="43.0086833" lon="13.381185"><ele>353.5</ele><time>2026-03-22T11:38:08.9Z</time></trkpt><trkpt lat="43.00877" lon="13.3813083"><ele>353.0</ele><time>2026-03-22T11:38:09.9Z</time></trkpt><trkpt lat="43.008855" lon="13.3814117"><ele>353.0</ele><time>2026-03-22T11:38:10.899Z</time></trkpt><trkpt lat="43.0089583" lon="13.3814783"><ele>353.0</ele><time>2026-03-22T11:38:11.9Z</time></trkpt><trkpt lat="43.0090833" lon="13.3815117"><ele>353.0</ele><time>2026-03-22T11:38:12.899Z</time></trkpt><trkpt lat="43.009245" lon="13.3815533"><ele>353.0</ele><time>2026-03-22T11:38:13.9Z</time></trkpt><trkpt lat="43.0094117" lon="13.3815933"><ele>353.0</ele><time>2026-03-22T11:38:14.899Z</time></trkpt><trkpt lat="43.00958" lon="13.3816433"><ele>353.0</ele><time>2026-03-22T11:38:15.899Z</time></trkpt><trkpt lat="43.0097383" lon="13.381695"><ele>353.0</ele><time>2026-03-22T11:38:16.899Z</time></trkpt><trkpt lat="43.00989" lon="13.38176"><ele>354.0</ele><time>2026-03-22T11:38:17.9Z</time></trkpt><trkpt lat="43.01003" lon="13.381845"><ele>355.0</ele><time>2026-03-22T11:38:18.9Z</time></trkpt><trkpt lat="43.0101617" lon="13.3819467"><ele>356.0</ele><time>2026-03-22T11:38:19.9Z</time></trkpt><trkpt lat="43.0102867" lon="13.3820583"><ele>354.5</ele><time>2026-03-22T11:38:20.9Z</time></trkpt><trkpt lat="43.0103867" lon="13.3821817"><ele>353.0</ele><time>2026-03-22T11:38:21.9Z</time></trkpt><trkpt lat="43.0104817" lon="13.3823083"><ele>351.5</ele><time>2026-03-22T11:38:22.9Z</time></trkpt><trkpt lat="43.0105783" lon="13.38243"><ele>350.0</ele><time>2026-03-22T11:38:23.899Z</time></trkpt><trkpt lat="43.0106417" lon="13.3825383"><ele>350.0</ele><time>2026-03-22T11:38:24.9Z</time></trkpt><trkpt lat="43.0107017" lon="13.3826083"><ele>350.0</ele><time>2026-03-22T11:38:25.9Z</time></trkpt><trkpt lat="43.0107567" lon="13.3826717"><ele>350.0</ele><time>2026-03-22T11:38:26.9Z</time></trkpt><trkpt lat="43.0108067" lon="13.3827367"><ele>350.0</ele><time>2026-03-22T11:38:28.9Z</time></trkpt><trkpt lat="43.0109133" lon="13.3827017"><ele>350.0</ele><time>2026-03-22T11:38:56.9Z</time></trkpt><trkpt lat="43.010985" lon="13.3826317"><ele>350.0</ele><time>2026-03-22T11:38:57.9Z</time></trkpt><trkpt lat="43.0110683" lon="13.38254"><ele>352.0</ele><time>2026-03-22T11:38:58.9Z</time></trkpt><trkpt lat="43.01115" lon="13.3824333"><ele>354.0</ele><time>2026-03-22T11:38:59.9Z</time></trkpt><trkpt lat="43.0112267" lon="13.3823567"><ele>356.0</ele><time>2026-03-22T11:39:00.9Z</time></trkpt><trkpt lat="43.0112983" lon="13.3823083"><ele>358.0</ele><time>2026-03-22T11:39:01.899Z</time></trkpt><trkpt lat="43.011405" lon="13.3823283"><ele>360.0</ele><time>2026-03-22T11:39:03.899Z</time></trkpt><trkpt lat="43.01149" lon="13.3824567"><ele>360.0</ele><time>2026-03-22T11:39:05.9Z</time></trkpt><trkpt lat="43.0115283" lon="13.3825733"><ele>360.0</ele><time>2026-03-22T11:39:06.9Z</time></trkpt><trkpt lat="43.0115817" lon="13.3826933"><ele>360.0</ele><time>2026-03-22T11:39:07.899Z</time></trkpt><trkpt lat="43.0116383" lon="13.3827967"><ele>360.0</ele><time>2026-03-22T11:39:08.9Z</time></trkpt><trkpt lat="43.0116983" lon="13.38285"><ele>360.0</ele><time>2026-03-22T11:39:09.9Z</time></trkpt><trkpt lat="43.0117733" lon="13.3828367"><ele>360.0</ele><time>2026-03-22T11:39:10.899Z</time></trkpt><trkpt lat="43.0118583" lon="13.3827717"><ele>364.75</ele><time>2026-03-22T11:39:11.9Z</time></trkpt><trkpt lat="43.0119433" lon="13.38267"><ele>369.5</ele><time>2026-03-22T11:39:12.899Z</time></trkpt><trkpt lat="43.012025" lon="13.3825317"><ele>374.25</ele><time>2026-03-22T11:39:13.9Z</time></trkpt><trkpt lat="43.0121067" lon="13.3823833"><ele>379.0</ele><time>2026-03-22T11:39:14.9Z</time></trkpt><trkpt lat="43.0121817" lon="13.3822483"><ele>381.0</ele><time>2026-03-22T11:39:15.9Z</time></trkpt><trkpt lat="43.01227" lon="13.3821617"><ele>383.0</ele><time>2026-03-22T11:39:16.9Z</time></trkpt><trkpt lat="43.0123633" lon="13.3821133"><ele>385.0</ele><time>2026-03-22T11:39:17.9Z</time></trkpt><trkpt lat="43.0124733" lon="13.3820717"><ele>387.0</ele><time>2026-03-22T11:39:18.9Z</time></trkpt><trkpt lat="43.012605" lon="13.3820117"><ele>387.0</ele><time>2026-03-22T11:39:19.9Z</time></trkpt><trkpt lat="43.012745" lon="13.3819017"><ele>387.0</ele><time>2026-03-22T11:39:20.899Z</time></trkpt><trkpt lat="43.0128783" lon="13.3817483"><ele>387.0</ele><time>2026-03-22T11:39:21.899Z</time></trkpt><trkpt lat="43.01299" lon="13.3816067"><ele>387.0</ele><time>2026-03-22T11:39:22.9Z</time></trkpt><trkpt lat="43.0131133" lon="13.3815017"><ele>387.0</ele><time>2026-03-22T11:39:23.9Z</time></trkpt><trkpt lat="43.01326" lon="13.3814067"><ele>387.0</ele><time>2026-03-22T11:39:24.899Z</time></trkpt><trkpt lat="43.0134233" lon="13.3813383"><ele>390.66666666666663</ele><time>2026-03-22T11:39:25.9Z</time></trkpt><trkpt lat="43.01358" lon="13.3812783"><ele>394.3333333333333</ele><time>2026-03-22T11:39:26.9Z</time></trkpt><trkpt lat="43.01373" lon="13.381245"><ele>398.0</ele><time>2026-03-22T11:39:27.9Z</time></trkpt><trkpt lat="43.0138817" lon="13.3812367"><ele>398.0</ele><time>2026-03-22T11:39:28.899Z</time></trkpt><trkpt lat="43.01402" lon="13.3812483"><ele>398.0</ele><time>2026-03-22T11:39:29.9Z</time></trkpt><trkpt lat="43.0141533" lon="13.3812683"><ele>398.0</ele><time>2026-03-22T11:39:30.899Z</time></trkpt><trkpt lat="43.0142733" lon="13.381275"><ele>398.0</ele><time>2026-03-22T11:39:31.899Z</time></trkpt><trkpt lat="43.0143933" lon="13.3812483"><ele>403.0</ele><time>2026-03-22T11:39:32.899Z</time></trkpt><trkpt lat="43.01452" lon="13.381185"><ele>408.0</ele><time>2026-03-22T11:39:33.899Z</time></trkpt><trkpt lat="43.0146517" lon="13.38111"><ele>413.0</ele><time>2026-03-22T11:39:34.9Z</time></trkpt><trkpt lat="43.0148033" lon="13.38105"><ele>418.0</ele><time>2026-03-22T11:39:35.899Z</time></trkpt><trkpt lat="43.01495" lon="13.3810067"><ele>422.25</ele><time>2026-03-22T11:39:36.9Z</time></trkpt><trkpt lat="43.0150917" lon="13.3809683"><ele>426.5</ele><time>2026-03-22T11:39:37.9Z</time></trkpt><trkpt lat="43.0152233" lon="13.3809317"><ele>430.75</ele><time>2026-03-22T11:39:38.9Z</time></trkpt><trkpt lat="43.0153467" lon="13.380905"><ele>435.0</ele><time>2026-03-22T11:39:39.9Z</time></trkpt><trkpt lat="43.015465" lon="13.3808817"><ele>435.0</ele><time>2026-03-22T11:39:40.899Z</time></trkpt><trkpt lat="43.0155917" lon="13.3808667"><ele>435.0</ele><time>2026-03-22T11:39:41.899Z</time></trkpt><trkpt lat="43.015725" lon="13.3808433"><ele>435.0</ele><time>2026-03-22T11:39:42.9Z</time></trkpt><trkpt lat="43.0158483" lon="13.38083"><ele>435.0</ele><time>2026-03-22T11:39:43.9Z</time></trkpt><trkpt lat="43.0159617" lon="13.380815"><ele>437.4</ele><time>2026-03-22T11:39:44.9Z</time></trkpt><trkpt lat="43.0160483" lon="13.3808317"><ele>439.8</ele><time>2026-03-22T11:39:45.9Z</time></trkpt><trkpt lat="43.0161167" lon="13.3808417"><ele>442.20000000000005</ele><time>2026-03-22T11:39:46.899Z</time></trkpt><trkpt lat="43.0161817" lon="13.3808783"><ele>444.6</ele><time>2026-03-22T11:39:48.899Z</time></trkpt><trkpt lat="43.016135" lon="13.3810467"><ele>447.0</ele><time>2026-03-22T11:39:50.9Z</time></trkpt><trkpt lat="43.0161" lon="13.3811683"><ele>447.0</ele><time>2026-03-22T11:39:51.9Z</time></trkpt><trkpt lat="43.016105" lon="13.381295"><ele>447.00000000000006</ele><time>2026-03-22T11:39:52.9Z</time></trkpt><trkpt lat="43.0161383" lon="13.3814183"><ele>447.00000000000006</ele><time>2026-03-22T11:39:53.899Z</time></trkpt><trkpt lat="43.016195" lon="13.38153"><ele>447.0</ele><time>2026-03-22T11:39:54.9Z</time></trkpt><trkpt lat="43.016245" lon="13.3816333"><ele>447.0</ele><time>2026-03-22T11:39:55.9Z</time></trkpt><trkpt lat="43.0162717" lon="13.3817483"><ele>447.0</ele><time>2026-03-22T11:39:56.9Z</time></trkpt><trkpt lat="43.0162667" lon="13.3818733"><ele>447.00000000000006</ele><time>2026-03-22T11:39:57.899Z</time></trkpt><trkpt lat="43.0162233" lon="13.3820033"><ele>447.00000000000006</ele><time>2026-03-22T11:39:58.899Z</time></trkpt><trkpt lat="43.0161533" lon="13.3821333"><ele>447.0</ele><time>2026-03-22T11:39:59.9Z</time></trkpt><trkpt lat="43.0160667" lon="13.3822683"><ele>447.0</ele><time>2026-03-22T11:40:00.9Z</time></trkpt><trkpt lat="43.0159683" lon="13.382405"><ele>445.75</ele><time>2026-03-22T11:40:01.899Z</time></trkpt><trkpt lat="43.0158717" lon="13.3825383"><ele>444.5</ele><time>2026-03-22T11:40:02.9Z</time></trkpt><trkpt lat="43.0157767" lon="13.38267"><ele>443.25</ele><time>2026-03-22T11:40:03.899Z</time></trkpt><trkpt lat="43.015685" lon="13.3828"><ele>442.0</ele><time>2026-03-22T11:40:04.9Z</time></trkpt><trkpt lat="43.0155983" lon="13.3829567"><ele>435.33333333333337</ele><time>2026-03-22T11:40:05.9Z</time></trkpt><trkpt lat="43.0155167" lon="13.3831133"><ele>428.66666666666663</ele><time>2026-03-22T11:40:06.899Z</time></trkpt><trkpt lat="43.01544" lon="13.3832917"><ele>422.0</ele><time>2026-03-22T11:40:07.9Z</time></trkpt><trkpt lat="43.015365" lon="13.3834883"><ele>422.0</ele><time>2026-03-22T11:40:08.899Z</time></trkpt><trkpt lat="43.0153" lon="13.3836917"><ele>422.0</ele><time>2026-03-22T11:40:09.899Z</time></trkpt><trkpt lat="43.0152417" lon="13.3838883"><ele>422.0</ele><time>2026-03-22T11:40:10.899Z</time></trkpt><trkpt lat="43.0151833" lon="13.38407"><ele>423.0</ele><time>2026-03-22T11:40:11.899Z</time></trkpt><trkpt lat="43.0151183" lon="13.3842567"><ele>424.0</ele><time>2026-03-22T11:40:12.9Z</time></trkpt><trkpt lat="43.01505" lon="13.3844467"><ele>425.0</ele><time>2026-03-22T11:40:13.9Z</time></trkpt><trkpt lat="43.0149767" lon="13.3846417"><ele>417.66666666666663</ele><time>2026-03-22T11:40:14.9Z</time></trkpt><trkpt lat="43.0149033" lon="13.3848367"><ele>410.33333333333337</ele><time>2026-03-22T11:40:15.899Z</time></trkpt><trkpt lat="43.0148267" lon="13.3850267"><ele>403.0</ele><time>2026-03-22T11:40:16.899Z</time></trkpt><trkpt lat="43.0147417" lon="13.3852183"><ele>403.0</ele><time>2026-03-22T11:40:17.899Z</time></trkpt><trkpt lat="43.0146533" lon="13.3853933"><ele>403.0</ele><time>2026-03-22T11:40:18.9Z</time></trkpt><trkpt lat="43.0145733" lon="13.38555"><ele>403.0</ele><time>2026-03-22T11:40:19.899Z</time></trkpt><trkpt lat="43.0144883" lon="13.3857067"><ele>403.0</ele><time>2026-03-22T11:40:20.9Z</time></trkpt><trkpt lat="43.0144217" lon="13.3858833"><ele>403.25</ele><time>2026-03-22T11:40:21.9Z</time></trkpt><trkpt lat="43.0143683" lon="13.3860683"><ele>403.5</ele><time>2026-03-22T11:40:22.9Z</time></trkpt><trkpt lat="43.0143267" lon="13.386255"><ele>403.75</ele><time>2026-03-22T11:40:23.9Z</time></trkpt><trkpt lat="43.014285" lon="13.3864183"><ele>404.0</ele><time>2026-03-22T11:40:24.899Z</time></trkpt><trkpt lat="43.0142483" lon="13.3865633"><ele>404.5</ele><time>2026-03-22T11:40:25.899Z</time></trkpt><trkpt lat="43.0142283" lon="13.3867133"><ele>405.0</ele><time>2026-03-22T11:40:26.9Z</time></trkpt><trkpt lat="43.014225" lon="13.3868683"><ele>405.5</ele><time>2026-03-22T11:40:27.899Z</time></trkpt><trkpt lat="43.01425" lon="13.387035"><ele>406.0</ele><time>2026-03-22T11:40:28.9Z</time></trkpt><trkpt lat="43.0142917" lon="13.3872317"><ele>404.75</ele><time>2026-03-22T11:40:29.899Z</time></trkpt><trkpt lat="43.01434" lon="13.3874317"><ele>403.5</ele><time>2026-03-22T11:40:30.899Z</time></trkpt><trkpt lat="43.0143833" lon="13.3876167"><ele>402.25</ele><time>2026-03-22T11:40:31.899Z</time></trkpt><trkpt lat="43.0144217" lon="13.3877883"><ele>401.0</ele><time>2026-03-22T11:40:32.9Z</time></trkpt><trkpt lat="43.014445" lon="13.3879417"><ele>399.75</ele><time>2026-03-22T11:40:33.9Z</time></trkpt><trkpt lat="43.0144533" lon="13.388095"><ele>398.5</ele><time>2026-03-22T11:40:34.9Z</time></trkpt><trkpt lat="43.014445" lon="13.3882567"><ele>397.25</ele><time>2026-03-22T11:40:35.899Z</time></trkpt><trkpt lat="43.0144183" lon="13.38843"><ele>396.0</ele><time>2026-03-22T11:40:36.899Z</time></trkpt><trkpt lat="43.0143883" lon="13.3886"><ele>396.0</ele><time>2026-03-22T11:40:37.9Z</time></trkpt><trkpt lat="43.014355" lon="13.3887467"><ele>396.0</ele><time>2026-03-22T11:40:38.899Z</time></trkpt><trkpt lat="43.0143283" lon="13.3888817"><ele>396.0</ele><time>2026-03-22T11:40:39.9Z</time></trkpt><trkpt lat="43.0143183" lon="13.3890133"><ele>396.0</ele><time>2026-03-22T11:40:40.899Z</time></trkpt><trkpt lat="43.01434" lon="13.38914"><ele>396.0</ele><time>2026-03-22T11:40:41.9Z</time></trkpt><trkpt lat="43.014395" lon="13.389245"><ele>394.25</ele><time>2026-03-22T11:40:42.9Z</time></trkpt><trkpt lat="43.0144867" lon="13.389355"><ele>392.5</ele><time>2026-03-22T11:40:43.9Z</time></trkpt><trkpt lat="43.014615" lon="13.3894567"><ele>390.75</ele><time>2026-03-22T11:40:44.899Z</time></trkpt><trkpt lat="43.0147483" lon="13.3895583"><ele>389.0</ele><time>2026-03-22T11:40:45.9Z</time></trkpt><trkpt lat="43.01486" lon="13.3896683"><ele>387.3333333333333</ele><time>2026-03-22T11:40:46.9Z</time></trkpt><trkpt lat="43.0149667" lon="13.3898117"><ele>385.66666666666663</ele><time>2026-03-22T11:40:47.9Z</time></trkpt><trkpt lat="43.015055" lon="13.3900017"><ele>384.0</ele><time>2026-03-22T11:40:48.9Z</time></trkpt><trkpt lat="43.01513" lon="13.3901867"><ele>384.0</ele><time>2026-03-22T11:40:49.899Z</time></trkpt><trkpt lat="43.01521" lon="13.3903533"><ele>384.0</ele><time>2026-03-22T11:40:50.9Z</time></trkpt><trkpt lat="43.0152933" lon="13.3904967"><ele>384.0</ele><time>2026-03-22T11:40:51.9Z</time></trkpt><trkpt lat="43.0153683" lon="13.390635"><ele>384.0</ele><time>2026-03-22T11:40:52.899Z</time></trkpt><trkpt lat="43.0154367" lon="13.3907733"><ele>382.6</ele><time>2026-03-22T11:40:53.9Z</time></trkpt><trkpt lat="43.0154917" lon="13.3909117"><ele>381.2</ele><time>2026-03-22T11:40:54.9Z</time></trkpt><trkpt lat="43.0155317" lon="13.3910467"><ele>379.8</ele><time>2026-03-22T11:40:55.899Z</time></trkpt><trkpt lat="43.0155467" lon="13.3911867"><ele>378.40000000000003</ele><time>2026-03-22T11:40:56.9Z</time></trkpt><trkpt lat="43.0155483" lon="13.391325"><ele>377.0</ele><time>2026-03-22T11:40:57.9Z</time></trkpt><trkpt lat="43.01553" lon="13.3914483"><ele>376.0</ele><time>2026-03-22T11:40:58.9Z</time></trkpt><trkpt lat="43.0154867" lon="13.391555"><ele>375.0</ele><time>2026-03-22T11:40:59.9Z</time></trkpt><trkpt lat="43.01541" lon="13.3916267"><ele>374.0</ele><time>2026-03-22T11:41:00.9Z</time></trkpt><trkpt lat="43.0153067" lon="13.3916633"><ele>373.0</ele><time>2026-03-22T11:41:01.9Z</time></trkpt><trkpt lat="43.0151917" lon="13.391665"><ele>372.0</ele><time>2026-03-22T11:41:02.9Z</time></trkpt><trkpt lat="43.015065" lon="13.3916467"><ele>370.25</ele><time>2026-03-22T11:41:03.899Z</time></trkpt><trkpt lat="43.0149317" lon="13.3915917"><ele>368.5</ele><time>2026-03-22T11:41:04.9Z</time></trkpt><trkpt lat="43.0148" lon="13.391525"><ele>366.75</ele><time>2026-03-22T11:41:05.899Z</time></trkpt><trkpt lat="43.01468" lon="13.3914633"><ele>365.0</ele><time>2026-03-22T11:41:06.899Z</time></trkpt><trkpt lat="43.0145733" lon="13.39142"><ele>365.0</ele><time>2026-03-22T11:41:07.9Z</time></trkpt><trkpt lat="43.01447" lon="13.3914017"><ele>365.0</ele><time>2026-03-22T11:41:08.899Z</time></trkpt><trkpt lat="43.014375" lon="13.3914183"><ele>365.0</ele><time>2026-03-22T11:41:09.9Z</time></trkpt><trkpt lat="43.0142933" lon="13.391475"><ele>365.0</ele><time>2026-03-22T11:41:10.9Z</time></trkpt><trkpt lat="43.0142217" lon="13.3915733"><ele>365.0</ele><time>2026-03-22T11:41:11.9Z</time></trkpt><trkpt lat="43.0141467" lon="13.3917217"><ele>364.6666666666667</ele><time>2026-03-22T11:41:12.9Z</time></trkpt><trkpt lat="43.0140567" lon="13.391885"><ele>364.3333333333333</ele><time>2026-03-22T11:41:13.899Z</time></trkpt><trkpt lat="43.013955" lon="13.3920383"><ele>364.0</ele><time>2026-03-22T11:41:14.9Z</time></trkpt><trkpt lat="43.0138367" lon="13.3921783"><ele>363.66666666666663</ele><time>2026-03-22T11:41:15.9Z</time></trkpt><trkpt lat="43.01371" lon="13.3922983"><ele>363.3333333333333</ele><time>2026-03-22T11:41:16.899Z</time></trkpt><trkpt lat="43.0135733" lon="13.392405"><ele>363.0</ele><time>2026-03-22T11:41:17.899Z</time></trkpt><trkpt lat="43.0134383" lon="13.392515"><ele>362.0</ele><time>2026-03-22T11:41:18.899Z</time></trkpt><trkpt lat="43.0133033" lon="13.3926367"><ele>361.0</ele><time>2026-03-22T11:41:19.9Z</time></trkpt><trkpt lat="43.013175" lon="13.392765"><ele>360.0</ele><time>2026-03-22T11:41:20.899Z</time></trkpt><trkpt lat="43.0130433" lon="13.3928917"><ele>359.6666666666667</ele><time>2026-03-22T11:41:21.899Z</time></trkpt><trkpt lat="43.012915" lon="13.3930117"><ele>359.33333333333337</ele><time>2026-03-22T11:41:22.899Z</time></trkpt><trkpt lat="43.012785" lon="13.3931333"><ele>359.0</ele><time>2026-03-22T11:41:23.899Z</time></trkpt><trkpt lat="43.0126617" lon="13.3932233"><ele>359.0</ele><time>2026-03-22T11:41:24.9Z</time></trkpt><trkpt lat="43.0125433" lon="13.3933017"><ele>359.0</ele><time>2026-03-22T11:41:25.9Z</time></trkpt><trkpt lat="43.0124317" lon="13.39337"><ele>359.0</ele><time>2026-03-22T11:41:26.9Z</time></trkpt><trkpt lat="43.0123267" lon="13.39343"><ele>359.0</ele><time>2026-03-22T11:41:27.9Z</time></trkpt><trkpt lat="43.01223" lon="13.393495"><ele>358.0</ele><time>2026-03-22T11:41:28.899Z</time></trkpt><trkpt lat="43.01214" lon="13.3935517"><ele>357.0</ele><time>2026-03-22T11:41:29.899Z</time></trkpt><trkpt lat="43.0120617" lon="13.3936033"><ele>356.0</ele><time>2026-03-22T11:41:30.899Z</time></trkpt><trkpt lat="43.011985" lon="13.3936567"><ele>355.0</ele><time>2026-03-22T11:41:31.899Z</time></trkpt><trkpt lat="43.01192" lon="13.3937367"><ele>354.0</ele><time>2026-03-22T11:41:32.899Z</time></trkpt><trkpt lat="43.01186" lon="13.3938417"><ele>354.0</ele><time>2026-03-22T11:41:33.899Z</time></trkpt><trkpt lat="43.01181" lon="13.3939617"><ele>354.0</ele><time>2026-03-22T11:41:34.9Z</time></trkpt><trkpt lat="43.011765" lon="13.3940883"><ele>354.0</ele><time>2026-03-22T11:41:35.9Z</time></trkpt><trkpt lat="43.0117183" lon="13.39421"><ele>354.0</ele><time>2026-03-22T11:41:36.899Z</time></trkpt><trkpt lat="43.0116867" lon="13.394315"><ele>354.0</ele><time>2026-03-22T11:41:37.899Z</time></trkpt><trkpt lat="43.011665" lon="13.3944117"><ele>352.8571428571429</ele><time>2026-03-22T11:41:38.899Z</time></trkpt><trkpt lat="43.0116417" lon="13.3944933"><ele>351.71428571428567</ele><time>2026-03-22T11:41:39.9Z</time></trkpt><trkpt lat="43.011615" lon="13.3945717"><ele>350.57142857142856</ele><time>2026-03-22T11:41:40.9Z</time></trkpt><trkpt lat="43.0115867" lon="13.3946633"><ele>349.42857142857144</ele><time>2026-03-22T11:41:41.9Z</time></trkpt><trkpt lat="43.0115583" lon="13.3947583"><ele>348.28571428571433</ele><time>2026-03-22T11:41:42.899Z</time></trkpt><trkpt lat="43.0115333" lon="13.39485"><ele>347.1428571428571</ele><time>2026-03-22T11:41:43.899Z</time></trkpt><trkpt lat="43.011515" lon="13.394935"><ele>346.0</ele><time>2026-03-22T11:41:44.899Z</time></trkpt><trkpt lat="43.01151" lon="13.3951033"><ele>346.0</ele><time>2026-03-22T11:41:46.899Z</time></trkpt><trkpt lat="43.0115083" lon="13.3951983"><ele>346.0</ele><time>2026-03-22T11:41:47.899Z</time></trkpt><trkpt lat="43.01151" lon="13.3952883"><ele>346.0</ele><time>2026-03-22T11:41:48.9Z</time></trkpt><trkpt lat="43.0115167" lon="13.39538"><ele>346.0</ele><time>2026-03-22T11:41:49.901Z</time></trkpt><trkpt lat="43.01152" lon="13.3954667"><ele>346.0</ele><time>2026-03-22T11:41:50.901Z</time></trkpt><trkpt lat="43.011515" lon="13.3956367"><ele>346.0</ele><time>2026-03-22T11:41:52.901Z</time></trkpt><trkpt lat="43.011475" lon="13.3958117"><ele>346.8</ele><time>2026-03-22T11:41:54.901Z</time></trkpt><trkpt lat="43.0114383" lon="13.395915"><ele>347.6</ele><time>2026-03-22T11:41:55.9Z</time></trkpt><trkpt lat="43.0113967" lon="13.3960317"><ele>348.4</ele><time>2026-03-22T11:41:56.901Z</time></trkpt><trkpt lat="43.01135" lon="13.396175"><ele>349.2</ele><time>2026-03-22T11:41:57.9Z</time></trkpt><trkpt lat="43.01131" lon="13.3963533"><ele>350.0</ele><time>2026-03-22T11:41:58.9Z</time></trkpt><trkpt lat="43.0112683" lon="13.3965533"><ele>351.0</ele><time>2026-03-22T11:41:59.901Z</time></trkpt><trkpt lat="43.0112167" lon="13.3967633"><ele>352.0</ele><time>2026-03-22T11:42:00.901Z</time></trkpt><trkpt lat="43.01117" lon="13.3969717"><ele>353.0</ele><time>2026-03-22T11:42:01.901Z</time></trkpt><trkpt lat="43.0111417" lon="13.39718"><ele>353.0</ele><time>2026-03-22T11:42:02.901Z</time></trkpt><trkpt lat="43.0111333" lon="13.397375"><ele>353.0</ele><time>2026-03-22T11:42:03.9Z</time></trkpt><trkpt lat="43.0111333" lon="13.3975817"><ele>353.0</ele><time>2026-03-22T11:42:04.901Z</time></trkpt><trkpt lat="43.011135" lon="13.3978067"><ele>351.0</ele><time>2026-03-22T11:42:05.901Z</time></trkpt><trkpt lat="43.0111383" lon="13.3980317"><ele>349.0</ele><time>2026-03-22T11:42:06.901Z</time></trkpt><trkpt lat="43.0111483" lon="13.39824"><ele>347.0</ele><time>2026-03-22T11:42:07.9Z</time></trkpt><trkpt lat="43.0111617" lon="13.3984367"><ele>347.0</ele><time>2026-03-22T11:42:08.9Z</time></trkpt><trkpt lat="43.0111717" lon="13.3986283"><ele>347.0</ele><time>2026-03-22T11:42:09.901Z</time></trkpt><trkpt lat="43.0111883" lon="13.398835"><ele>347.0</ele><time>2026-03-22T11:42:10.901Z</time></trkpt><trkpt lat="43.0112117" lon="13.3990367"><ele>347.0</ele><time>2026-03-22T11:42:11.9Z</time></trkpt><trkpt lat="43.0112467" lon="13.3992433"><ele>344.6666666666667</ele><time>2026-03-22T11:42:12.901Z</time></trkpt><trkpt lat="43.011295" lon="13.3994583"><ele>342.3333333333333</ele><time>2026-03-22T11:42:13.9Z</time></trkpt><trkpt lat="43.0113633" lon="13.3996783"><ele>340.0</ele><time>2026-03-22T11:42:14.9Z</time></trkpt><trkpt lat="43.01143" lon="13.3998917"><ele>338.0</ele><time>2026-03-22T11:42:15.9Z</time></trkpt><trkpt lat="43.0114883" lon="13.4000983"><ele>336.0</ele><time>2026-03-22T11:42:16.9Z</time></trkpt><trkpt lat="43.0115467" lon="13.4002967"><ele>334.0</ele><time>2026-03-22T11:42:17.9Z</time></trkpt><trkpt lat="43.0115967" lon="13.4004983"><ele>334.0</ele><time>2026-03-22T11:42:18.901Z</time></trkpt><trkpt lat="43.0116417" lon="13.40069"><ele>334.0</ele><time>2026-03-22T11:42:19.901Z</time></trkpt><trkpt lat="43.011675" lon="13.4008783"><ele>334.0</ele><time>2026-03-22T11:42:20.9Z</time></trkpt><trkpt lat="43.0116933" lon="13.401075"><ele>334.0</ele><time>2026-03-22T11:42:21.901Z</time></trkpt><trkpt lat="43.0116967" lon="13.4012667"><ele>334.75</ele><time>2026-03-22T11:42:22.901Z</time></trkpt><trkpt lat="43.01169" lon="13.40147"><ele>335.5</ele><time>2026-03-22T11:42:23.901Z</time></trkpt><trkpt lat="43.0116517" lon="13.4016733"><ele>336.25</ele><time>2026-03-22T11:42:24.901Z</time></trkpt><trkpt lat="43.0116033" lon="13.4018517"><ele>337.0</ele><time>2026-03-22T11:42:25.9Z</time></trkpt><trkpt lat="43.0115567" lon="13.4020083"><ele>337.0</ele><time>2026-03-22T11:42:26.901Z</time></trkpt><trkpt lat="43.0115133" lon="13.4021583"><ele>337.0</ele><time>2026-03-22T11:42:27.901Z</time></trkpt><trkpt lat="43.0114883" lon="13.40231"><ele>337.0</ele><time>2026-03-22T11:42:28.901Z</time></trkpt><trkpt lat="43.011465" lon="13.4024267"><ele>337.0</ele><time>2026-03-22T11:42:29.9Z</time></trkpt><trkpt lat="43.0114217" lon="13.4025517"><ele>337.0</ele><time>2026-03-22T11:42:30.901Z</time></trkpt><trkpt lat="43.0113617" lon="13.4026883"><ele>337.0</ele><time>2026-03-22T11:42:31.901Z</time></trkpt><trkpt lat="43.011285" lon="13.4028433"><ele>337.0</ele><time>2026-03-22T11:42:32.901Z</time></trkpt><trkpt lat="43.011215" lon="13.403015"><ele>337.0</ele><time>2026-03-22T11:42:33.901Z</time></trkpt><trkpt lat="43.01115" lon="13.4032"><ele>337.0</ele><time>2026-03-22T11:42:34.901Z</time></trkpt><trkpt lat="43.0110933" lon="13.4034033"><ele>337.0</ele><time>2026-03-22T11:42:35.901Z</time></trkpt><trkpt lat="43.0110467" lon="13.4036083"><ele>337.0</ele><time>2026-03-22T11:42:36.9Z</time></trkpt><trkpt lat="43.011" lon="13.4038033"><ele>337.0</ele><time>2026-03-22T11:42:37.901Z</time></trkpt><trkpt lat="43.0109567" lon="13.4039783"><ele>337.0</ele><time>2026-03-22T11:42:38.9Z</time></trkpt><trkpt lat="43.0109133" lon="13.4041467"><ele>337.6</ele><time>2026-03-22T11:42:39.9Z</time></trkpt><trkpt lat="43.0108733" lon="13.4043133"><ele>338.20000000000005</ele><time>2026-03-22T11:42:40.901Z</time></trkpt><trkpt lat="43.0108433" lon="13.4044567"><ele>338.8</ele><time>2026-03-22T11:42:41.9Z</time></trkpt><trkpt lat="43.0108233" lon="13.40459"><ele>339.4</ele><time>2026-03-22T11:42:42.901Z</time></trkpt><trkpt lat="43.010825" lon="13.4047167"><ele>340.0</ele><time>2026-03-22T11:42:43.9Z</time></trkpt><trkpt lat="43.010835" lon="13.40484"><ele>340.0</ele><time>2026-03-22T11:42:44.9Z</time></trkpt><trkpt lat="43.0108483" lon="13.4049517"><ele>340.0</ele><time>2026-03-22T11:42:45.9Z</time></trkpt><trkpt lat="43.0108617" lon="13.4050517"><ele>340.0</ele><time>2026-03-22T11:42:46.901Z</time></trkpt><trkpt lat="43.0108683" lon="13.4051767"><ele>340.0</ele><time>2026-03-22T11:42:48.901Z</time></trkpt><trkpt lat="43.0109367" lon="13.4051917"><ele>340.0</ele><time>2026-03-22T11:42:55.9Z</time></trkpt><trkpt lat="43.0110167" lon="13.40514"><ele>340.0</ele><time>2026-03-22T11:42:57.9Z</time></trkpt><trkpt lat="43.0110733" lon="13.4050983"><ele>340.0</ele><time>2026-03-22T11:42:59.901Z</time></trkpt><trkpt lat="43.0111567" lon="13.4050533"><ele>340.0</ele><time>2026-03-22T11:43:01.9Z</time></trkpt><trkpt lat="43.0112367" lon="13.4049867"><ele>340.0</ele><time>2026-03-22T11:43:03.901Z</time></trkpt><trkpt lat="43.0113083" lon="13.404925"><ele>340.0</ele><time>2026-03-22T11:43:05.901Z</time></trkpt><trkpt lat="43.0113817" lon="13.40486"><ele>340.0</ele><time>2026-03-22T11:43:07.901Z</time></trkpt><trkpt lat="43.0114483" lon="13.4048017"><ele>340.0</ele><time>2026-03-22T11:43:09.901Z</time></trkpt><trkpt lat="43.0115183" lon="13.4047067"><ele>340.0</ele><time>2026-03-22T11:43:11.9Z</time></trkpt><trkpt lat="43.011575" lon="13.4045967"><ele>340.0</ele><time>2026-03-22T11:43:13.9Z</time></trkpt><trkpt lat="43.01163" lon="13.40446"><ele>340.0</ele><time>2026-03-22T11:43:15.901Z</time></trkpt><trkpt lat="43.0116633" lon="13.40438"><ele>340.0</ele><time>2026-03-22T11:43:16.9Z</time></trkpt><trkpt lat="43.01172" lon="13.4042383"><ele>340.0</ele><time>2026-03-22T11:43:18.901Z</time></trkpt><trkpt lat="43.0117567" lon="13.4041133"><ele>342.0</ele><time>2026-03-22T11:43:20.901Z</time></trkpt><trkpt lat="43.01179" lon="13.4039817"><ele>344.0</ele><time>2026-03-22T11:43:22.901Z</time></trkpt><trkpt lat="43.0118367" lon="13.4038717"><ele>346.0</ele><time>2026-03-22T11:43:24.901Z</time></trkpt><trkpt lat="43.011885" lon="13.40381"><ele>348.0</ele><time>2026-03-22T11:43:26.9Z</time></trkpt><trkpt lat="43.0119767" lon="13.403765"><ele>350.0</ele><time>2026-03-22T11:43:28.901Z</time></trkpt><trkpt lat="43.0120433" lon="13.4037483"><ele>352.0</ele><time>2026-03-22T11:43:30.901Z</time></trkpt><trkpt lat="43.0120717" lon="13.4036417"><ele>352.0</ele><time>2026-03-22T11:43:51.901Z</time></trkpt><trkpt lat="43.0121483" lon="13.4035883"><ele>352.0</ele><time>2026-03-22T11:43:53.9Z</time></trkpt><trkpt lat="43.0122667" lon="13.4035433"><ele>352.0</ele><time>2026-03-22T11:43:55.901Z</time></trkpt><trkpt lat="43.0123567" lon="13.4035333"><ele>352.0</ele><time>2026-03-22T11:43:57.901Z</time></trkpt><trkpt lat="43.0123967" lon="13.40363"><ele>352.0</ele><time>2026-03-22T11:44:01.901Z</time></trkpt><trkpt lat="43.0123817" lon="13.4037417"><ele>352.6</ele><time>2026-03-22T11:44:03.901Z</time></trkpt><trkpt lat="43.0123717" lon="13.4038967"><ele>353.20000000000005</ele><time>2026-03-22T11:44:05.9Z</time></trkpt><trkpt lat="43.0123667" lon="13.4039967"><ele>353.8</ele><time>2026-03-22T11:44:06.9Z</time></trkpt><trkpt lat="43.012355" lon="13.4041217"><ele>354.4</ele><time>2026-03-22T11:44:07.901Z</time></trkpt><trkpt lat="43.01235" lon="13.4042483"><ele>355.0</ele><time>2026-03-22T11:44:08.901Z</time></trkpt><trkpt lat="43.0123333" lon="13.4043783"><ele>355.0</ele><time>2026-03-22T11:44:09.9Z</time></trkpt><trkpt lat="43.012325" lon="13.4045217"><ele>355.0</ele><time>2026-03-22T11:44:10.901Z</time></trkpt><trkpt lat="43.0123117" lon="13.4046683"><ele>355.0</ele><time>2026-03-22T11:44:11.901Z</time></trkpt><trkpt lat="43.012295" lon="13.4048167"><ele>355.0</ele><time>2026-03-22T11:44:12.9Z</time></trkpt><trkpt lat="43.0122833" lon="13.4049517"><ele>355.0</ele><time>2026-03-22T11:44:13.9Z</time></trkpt><trkpt lat="43.0122633" lon="13.4050917"><ele>355.0</ele><time>2026-03-22T11:44:14.901Z</time></trkpt><trkpt lat="43.0122533" lon="13.40524"><ele>355.0</ele><time>2026-03-22T11:44:15.9Z</time></trkpt><trkpt lat="43.01224" lon="13.405395"><ele>355.0</ele><time>2026-03-22T11:44:16.9Z</time></trkpt><trkpt lat="43.012235" lon="13.405565"><ele>355.0</ele><time>2026-03-22T11:44:17.9Z</time></trkpt><trkpt lat="43.012225" lon="13.4057283"><ele>355.0</ele><time>2026-03-22T11:44:18.9Z</time></trkpt><trkpt lat="43.01222" lon="13.4058867"><ele>355.0</ele><time>2026-03-22T11:44:19.901Z</time></trkpt><trkpt lat="43.0122117" lon="13.4060283"><ele>355.0</ele><time>2026-03-22T11:44:20.901Z</time></trkpt><trkpt lat="43.0122033" lon="13.4061783"><ele>355.0</ele><time>2026-03-22T11:44:21.901Z</time></trkpt><trkpt lat="43.0121967" lon="13.40631"><ele>355.0</ele><time>2026-03-22T11:44:22.901Z</time></trkpt><trkpt lat="43.012195" lon="13.4064417"><ele>355.0</ele><time>2026-03-22T11:44:23.9Z</time></trkpt><trkpt lat="43.01219" lon="13.4065733"><ele>355.0</ele><time>2026-03-22T11:44:24.901Z</time></trkpt><trkpt lat="43.0121867" lon="13.4067"><ele>355.0</ele><time>2026-03-22T11:44:25.901Z</time></trkpt><trkpt lat="43.0121933" lon="13.4068317"><ele>355.0</ele><time>2026-03-22T11:44:26.9Z</time></trkpt><trkpt lat="43.0121933" lon="13.406935"><ele>355.0</ele><time>2026-03-22T11:44:27.901Z</time></trkpt><trkpt lat="43.0121933" lon="13.407065"><ele>354.8333333333333</ele><time>2026-03-22T11:44:29.901Z</time></trkpt><trkpt lat="43.01219" lon="13.40718"><ele>354.66666666666663</ele><time>2026-03-22T11:44:31.901Z</time></trkpt><trkpt lat="43.0121867" lon="13.4072717"><ele>354.5</ele><time>2026-03-22T11:44:32.901Z</time></trkpt><trkpt lat="43.0121867" lon="13.4073833"><ele>354.3333333333333</ele><time>2026-03-22T11:44:33.901Z</time></trkpt><trkpt lat="43.0121883" lon="13.4074917"><ele>354.1666666666667</ele><time>2026-03-22T11:44:34.901Z</time></trkpt><trkpt lat="43.01223" lon="13.4076467"><ele>354.0</ele><time>2026-03-22T11:44:36.901Z</time></trkpt><trkpt lat="43.0122717" lon="13.4077133"><ele>354.0</ele><time>2026-03-22T11:44:37.901Z</time></trkpt><trkpt lat="43.012375" lon="13.4078"><ele>354.0</ele><time>2026-03-22T11:44:39.901Z</time></trkpt><trkpt lat="43.012435" lon="13.4078333"><ele>354.0</ele><time>2026-03-22T11:44:40.901Z</time></trkpt><trkpt lat="43.01251" lon="13.4078717"><ele>354.0</ele><time>2026-03-22T11:44:41.901Z</time></trkpt><trkpt lat="43.0125817" lon="13.40791"><ele>354.0</ele><time>2026-03-22T11:44:42.9Z</time></trkpt><trkpt lat="43.0126483" lon="13.4079333"><ele>354.0</ele><time>2026-03-22T11:44:43.901Z</time></trkpt><trkpt lat="43.0127767" lon="13.4079433"><ele>355.6666666666667</ele><time>2026-03-22T11:44:45.9Z</time></trkpt><trkpt lat="43.0128683" lon="13.4079467"><ele>357.3333333333333</ele><time>2026-03-22T11:44:47.9Z</time></trkpt><trkpt lat="43.01293" lon="13.4079917"><ele>359.0</ele><time>2026-03-22T11:44:49.901Z</time></trkpt><trkpt lat="43.0129933" lon="13.4080233"><ele>360.66666666666663</ele><time>2026-03-22T11:44:52.901Z</time></trkpt><trkpt lat="43.0130817" lon="13.407975"><ele>362.3333333333333</ele><time>2026-03-22T11:44:55.901Z</time></trkpt><trkpt lat="43.013145" lon="13.4079"><ele>364.0</ele><time>2026-03-22T11:44:57.901Z</time></trkpt><trkpt lat="43.0132083" lon="13.40783"><ele>365.0</ele><time>2026-03-22T11:44:59.9Z</time></trkpt><trkpt lat="43.0132533" lon="13.4077533"><ele>366.0</ele><time>2026-03-22T11:45:01.901Z</time></trkpt><trkpt lat="43.0132883" lon="13.407655"><ele>367.0</ele><time>2026-03-22T11:45:03.901Z</time></trkpt><trkpt lat="43.0133283" lon="13.4075367"><ele>368.0</ele><time>2026-03-22T11:45:05.901Z</time></trkpt><trkpt lat="43.0133483" lon="13.4074417"><ele>369.0</ele><time>2026-03-22T11:45:07.901Z</time></trkpt><trkpt lat="43.0133583" lon="13.4073283"><ele>370.0</ele><time>2026-03-22T11:45:09.9Z</time></trkpt><trkpt lat="43.0133667" lon="13.4072367"><ele>374.0</ele><time>2026-03-22T11:45:11.901Z</time></trkpt><trkpt lat="43.0134133" lon="13.40713"><ele>378.0</ele><time>2026-03-22T11:45:14.901Z</time></trkpt><trkpt lat="43.013495" lon="13.4070567"><ele>382.0</ele><time>2026-03-22T11:45:16.901Z</time></trkpt><trkpt lat="43.0135867" lon="13.40694"><ele>386.0</ele><time>2026-03-22T11:45:18.901Z</time></trkpt><trkpt lat="43.01365" lon="13.4068817"><ele>390.0</ele><time>2026-03-22T11:45:19.901Z</time></trkpt><trkpt lat="43.0137117" lon="13.406825"><ele>390.0</ele><time>2026-03-22T11:45:20.9Z</time></trkpt><trkpt lat="43.01377" lon="13.4067633"><ele>390.0</ele><time>2026-03-22T11:45:21.901Z</time></trkpt><trkpt lat="43.01385" lon="13.4066767"><ele>390.0</ele><time>2026-03-22T11:45:23.9Z</time></trkpt><trkpt lat="43.0138833" lon="13.4065817"><ele>390.0</ele><time>2026-03-22T11:45:25.901Z</time></trkpt><trkpt lat="43.0139217" lon="13.4064717"><ele>390.0</ele><time>2026-03-22T11:45:27.901Z</time></trkpt><trkpt lat="43.0140083" lon="13.4063517"><ele>392.1666666666667</ele><time>2026-03-22T11:45:29.9Z</time></trkpt><trkpt lat="43.01406" lon="13.4062817"><ele>394.33333333333337</ele><time>2026-03-22T11:45:30.901Z</time></trkpt><trkpt lat="43.0141183" lon="13.4062067"><ele>396.5</ele><time>2026-03-22T11:45:31.901Z</time></trkpt><trkpt lat="43.014175" lon="13.4061233"><ele>398.6666666666667</ele><time>2026-03-22T11:45:32.9Z</time></trkpt><trkpt lat="43.0142333" lon="13.406025"><ele>400.83333333333337</ele><time>2026-03-22T11:45:33.9Z</time></trkpt><trkpt lat="43.0142917" lon="13.4058983"><ele>403.0</ele><time>2026-03-22T11:45:34.9Z</time></trkpt><trkpt lat="43.0143517" lon="13.4058"><ele>403.1666666666667</ele><time>2026-03-22T11:45:35.9Z</time></trkpt><trkpt lat="43.014405" lon="13.4057017"><ele>403.33333333333337</ele><time>2026-03-22T11:45:36.901Z</time></trkpt><trkpt lat="43.014455" lon="13.40562"><ele>403.5</ele><time>2026-03-22T11:45:37.901Z</time></trkpt><trkpt lat="43.0145233" lon="13.40557"><ele>403.66666666666663</ele><time>2026-03-22T11:45:38.901Z</time></trkpt><trkpt lat="43.0145983" lon="13.4055417"><ele>403.8333333333333</ele><time>2026-03-22T11:45:39.901Z</time></trkpt><trkpt lat="43.0146733" lon="13.4055133"><ele>404.0</ele><time>2026-03-22T11:45:40.9Z</time></trkpt><trkpt lat="43.0147533" lon="13.4054917"><ele>404.49999999999994</ele><time>2026-03-22T11:45:41.9Z</time></trkpt><trkpt lat="43.0148267" lon="13.405485"><ele>405.0</ele><time>2026-03-22T11:45:42.901Z</time></trkpt><trkpt lat="43.0149333" lon="13.4054767"><ele>405.5</ele><time>2026-03-22T11:45:44.901Z</time></trkpt><trkpt lat="43.0150183" lon="13.4054467"><ele>406.0</ele><time>2026-03-22T11:45:46.901Z</time></trkpt><trkpt lat="43.015075" lon="13.4054083"><ele>406.49999999999994</ele><time>2026-03-22T11:45:47.901Z</time></trkpt><trkpt lat="43.0151367" lon="13.4053583"><ele>407.0</ele><time>2026-03-22T11:45:48.901Z</time></trkpt><trkpt lat="43.0151983" lon="13.4052833"><ele>408.40000000000003</ele><time>2026-03-22T11:45:49.9Z</time></trkpt><trkpt lat="43.0152483" lon="13.4051867"><ele>409.8</ele><time>2026-03-22T11:45:50.901Z</time></trkpt><trkpt lat="43.0153133" lon="13.4050617"><ele>411.2</ele><time>2026-03-22T11:45:51.901Z</time></trkpt><trkpt lat="43.01539" lon="13.404925"><ele>412.6</ele><time>2026-03-22T11:45:52.901Z</time></trkpt><trkpt lat="43.0154667" lon="13.404805"><ele>414.0</ele><time>2026-03-22T11:45:53.901Z</time></trkpt><trkpt lat="43.01554" lon="13.4046917"><ele>414.6</ele><time>2026-03-22T11:45:54.901Z</time></trkpt><trkpt lat="43.0156117" lon="13.404595"><ele>415.2</ele><time>2026-03-22T11:45:55.901Z</time></trkpt><trkpt lat="43.0156817" lon="13.4044917"><ele>415.8</ele><time>2026-03-22T11:45:56.901Z</time></trkpt><trkpt lat="43.0157467" lon="13.4043967"><ele>416.40000000000003</ele><time>2026-03-22T11:45:57.901Z</time></trkpt><trkpt lat="43.0157967" lon="13.4043033"><ele>417.0</ele><time>2026-03-22T11:45:58.901Z</time></trkpt><trkpt lat="43.0158367" lon="13.4041933"><ele>418.1666666666667</ele><time>2026-03-22T11:45:59.9Z</time></trkpt><trkpt lat="43.015875" lon="13.4041183"><ele>419.33333333333337</ele><time>2026-03-22T11:46:00.901Z</time></trkpt><trkpt lat="43.015935" lon="13.403995"><ele>420.5</ele><time>2026-03-22T11:46:02.9Z</time></trkpt><trkpt lat="43.015985" lon="13.4038933"><ele>421.6666666666667</ele><time>2026-03-22T11:46:04.9Z</time></trkpt><trkpt lat="43.01605" lon="13.4038733"><ele>422.83333333333337</ele><time>2026-03-22T11:46:06.901Z</time></trkpt><trkpt lat="43.01615" lon="13.4039417"><ele>424.0</ele><time>2026-03-22T11:46:08.9Z</time></trkpt><trkpt lat="43.016215" lon="13.403975"><ele>424.0</ele><time>2026-03-22T11:46:09.9Z</time></trkpt><trkpt lat="43.0163017" lon="13.40401"><ele>424.0</ele><time>2026-03-22T11:46:10.9Z</time></trkpt><trkpt lat="43.0164033" lon="13.4040383"><ele>424.0</ele><time>2026-03-22T11:46:11.9Z</time></trkpt><trkpt lat="43.016505" lon="13.4040667"><ele>424.0</ele><time>2026-03-22T11:46:12.901Z</time></trkpt><trkpt lat="43.0166017" lon="13.404105"><ele>424.0</ele><time>2026-03-22T11:46:13.9Z</time></trkpt><trkpt lat="43.0166933" lon="13.4041433"><ele>426.00000000000006</ele><time>2026-03-22T11:46:14.9Z</time></trkpt><trkpt lat="43.0167767" lon="13.4042083"><ele>428.0</ele><time>2026-03-22T11:46:15.9Z</time></trkpt><trkpt lat="43.01685" lon="13.40429"><ele>430.0</ele><time>2026-03-22T11:46:16.9Z</time></trkpt><trkpt lat="43.01691" lon="13.4043717"><ele>432.0</ele><time>2026-03-22T11:46:17.901Z</time></trkpt><trkpt lat="43.0169617" lon="13.4044533"><ele>434.00000000000006</ele><time>2026-03-22T11:46:18.901Z</time></trkpt><trkpt lat="43.0170033" lon="13.4045517"><ele>436.0</ele><time>2026-03-22T11:46:19.901Z</time></trkpt><trkpt lat="43.01704" lon="13.4046433"><ele>435.0</ele><time>2026-03-22T11:46:20.9Z</time></trkpt><trkpt lat="43.0170767" lon="13.4047317"><ele>434.0</ele><time>2026-03-22T11:46:21.901Z</time></trkpt><trkpt lat="43.0171033" lon="13.40482"><ele>433.0</ele><time>2026-03-22T11:46:22.901Z</time></trkpt><trkpt lat="43.0171483" lon="13.4049867"><ele>432.0</ele><time>2026-03-22T11:46:24.9Z</time></trkpt><trkpt lat="43.017175" lon="13.40513"><ele>431.0</ele><time>2026-03-22T11:46:26.901Z</time></trkpt><trkpt lat="43.01719" lon="13.405245"><ele>430.99999999999994</ele><time>2026-03-22T11:46:28.9Z</time></trkpt><trkpt lat="43.0172067" lon="13.4053567"><ele>431.0</ele><time>2026-03-22T11:47:54.901Z</time></trkpt><trkpt lat="43.017255" lon="13.4052567"><ele>431.0</ele><time>2026-03-22T11:47:57.901Z</time></trkpt><trkpt lat="43.017285" lon="13.4051167"><ele>431.0</ele><time>2026-03-22T11:47:59.9Z</time></trkpt><trkpt lat="43.0173233" lon="13.4050317"><ele>430.99999999999994</ele><time>2026-03-22T11:48:00.901Z</time></trkpt><trkpt lat="43.0173483" lon="13.4049483"><ele>431.0</ele><time>2026-03-22T11:48:01.901Z</time></trkpt><trkpt lat="43.0173833" lon="13.4048667"><ele>431.0</ele><time>2026-03-22T11:48:02.901Z</time></trkpt><trkpt lat="43.01742" lon="13.4047833"><ele>431.0</ele><time>2026-03-22T11:48:03.901Z</time></trkpt><trkpt lat="43.0174517" lon="13.4047"><ele>431.0</ele><time>2026-03-22T11:48:04.9Z</time></trkpt><trkpt lat="43.017485" lon="13.4046067"><ele>431.0</ele><time>2026-03-22T11:48:05.9Z</time></trkpt><trkpt lat="43.017515" lon="13.40452"><ele>431.0</ele><time>2026-03-22T11:48:06.901Z</time></trkpt><trkpt lat="43.01754" lon="13.4044083"><ele>431.0</ele><time>2026-03-22T11:48:07.901Z</time></trkpt><trkpt lat="43.01756" lon="13.4043167"><ele>431.0</ele><time>2026-03-22T11:48:08.901Z</time></trkpt><trkpt lat="43.017565" lon="13.4041633"><ele>431.8333333333333</ele><time>2026-03-22T11:48:10.901Z</time></trkpt><trkpt lat="43.0175333" lon="13.4040317"><ele>432.66666666666663</ele><time>2026-03-22T11:48:12.901Z</time></trkpt><trkpt lat="43.0174733" lon="13.4038983"><ele>433.5</ele><time>2026-03-22T11:48:14.901Z</time></trkpt><trkpt lat="43.0174333" lon="13.4038183"><ele>434.33333333333337</ele><time>2026-03-22T11:48:15.901Z</time></trkpt><trkpt lat="43.0173883" lon="13.40373"><ele>435.1666666666667</ele><time>2026-03-22T11:48:16.901Z</time></trkpt><trkpt lat="43.0173417" lon="13.40364"><ele>436.0</ele><time>2026-03-22T11:48:17.901Z</time></trkpt><trkpt lat="43.017295" lon="13.403555"><ele>437.6666666666667</ele><time>2026-03-22T11:48:18.901Z</time></trkpt><trkpt lat="43.0172617" lon="13.4034767"><ele>439.33333333333337</ele><time>2026-03-22T11:48:19.901Z</time></trkpt><trkpt lat="43.0172217" lon="13.4033683"><ele>441.0</ele><time>2026-03-22T11:48:21.9Z</time></trkpt><trkpt lat="43.0173183" lon="13.4032867"><ele>442.66666666666663</ele><time>2026-03-22T11:48:25.901Z</time></trkpt><trkpt lat="43.017375" lon="13.4032467"><ele>444.3333333333333</ele><time>2026-03-22T11:48:26.901Z</time></trkpt><trkpt lat="43.0174317" lon="13.4031967"><ele>446.0</ele><time>2026-03-22T11:48:27.901Z</time></trkpt><trkpt lat="43.0174867" lon="13.4031533"><ele>447.8333333333333</ele><time>2026-03-22T11:48:28.901Z</time></trkpt><trkpt lat="43.0175433" lon="13.4031083"><ele>449.66666666666663</ele><time>2026-03-22T11:48:29.901Z</time></trkpt><trkpt lat="43.017605" lon="13.4030617"><ele>451.5</ele><time>2026-03-22T11:48:30.901Z</time></trkpt><trkpt lat="43.0176867" lon="13.4029683"><ele>453.33333333333337</ele><time>2026-03-22T11:48:32.901Z</time></trkpt><trkpt lat="43.0177767" lon="13.402905"><ele>455.1666666666667</ele><time>2026-03-22T11:48:34.9Z</time></trkpt><trkpt lat="43.0178617" lon="13.40286"><ele>457.0</ele><time>2026-03-22T11:48:36.901Z</time></trkpt><trkpt lat="43.017955" lon="13.402805"><ele>457.0</ele><time>2026-03-22T11:48:38.901Z</time></trkpt><trkpt lat="43.01805" lon="13.402735"><ele>457.0</ele><time>2026-03-22T11:48:40.901Z</time></trkpt><trkpt lat="43.0181517" lon="13.4026633"><ele>457.0</ele><time>2026-03-22T11:48:42.901Z</time></trkpt><trkpt lat="43.0182583" lon="13.402595"><ele>457.0</ele><time>2026-03-22T11:48:44.901Z</time></trkpt><trkpt lat="43.018365" lon="13.4025033"><ele>463.83333333333337</ele><time>2026-03-22T11:48:46.9Z</time></trkpt><trkpt lat="43.0184883" lon="13.4024483"><ele>470.6666666666667</ele><time>2026-03-22T11:48:48.901Z</time></trkpt><trkpt lat="43.0185417" lon="13.4023983"><ele>477.5</ele><time>2026-03-22T11:48:49.9Z</time></trkpt><trkpt lat="43.0186317" lon="13.4023333"><ele>484.33333333333337</ele><time>2026-03-22T11:48:51.9Z</time></trkpt><trkpt lat="43.018695" lon="13.40235"><ele>491.1666666666667</ele><time>2026-03-22T11:48:53.901Z</time></trkpt><trkpt lat="43.0187599" lon="13.4023841"><ele>498.0</ele><time>2026-03-22T11:49:16.9Z</time></trkpt><trkpt lat="43.0188451" lon="13.4023075"><ele>498.0</ele><time>2026-03-22T11:49:18.9Z</time></trkpt><trkpt lat="43.0189226" lon="13.4021775"><ele>498.0</ele><time>2026-03-22T11:49:20.9Z</time></trkpt><trkpt lat="43.0189574" lon="13.4021043"><ele>498.0</ele><time>2026-03-22T11:49:21.9Z</time></trkpt><trkpt lat="43.0189978" lon="13.4020271"><ele>498.0</ele><time>2026-03-22T11:49:22.901Z</time></trkpt><trkpt lat="43.0190399" lon="13.4019449"><ele>498.0</ele><time>2026-03-22T11:49:23.901Z</time></trkpt><trkpt lat="43.0190836" lon="13.4018646"><ele>498.0</ele><time>2026-03-22T11:49:24.901Z</time></trkpt><trkpt lat="43.0191266" lon="13.4017821"><ele>503.0</ele><time>2026-03-22T11:49:25.9Z</time></trkpt><trkpt lat="43.019168" lon="13.4017034"><ele>507.99999999999994</ele><time>2026-03-22T11:49:26.901Z</time></trkpt><trkpt lat="43.0192425" lon="13.4015926"><ele>513.0</ele><time>2026-03-22T11:49:28.901Z</time></trkpt><trkpt lat="43.019313" lon="13.4014906"><ele>518.0</ele><time>2026-03-22T11:49:30.901Z</time></trkpt><trkpt lat="43.0193797" lon="13.4013294"><ele>523.0</ele><time>2026-03-22T11:49:32.9Z</time></trkpt><trkpt lat="43.0194101" lon="13.4012386"><ele>525.6666666666667</ele><time>2026-03-22T11:49:33.9Z</time></trkpt><trkpt lat="43.019441" lon="13.4011498"><ele>528.3333333333334</ele><time>2026-03-22T11:49:34.901Z</time></trkpt><trkpt lat="43.0194848" lon="13.4010616"><ele>531.0</ele><time>2026-03-22T11:49:35.9Z</time></trkpt><trkpt lat="43.0195348" lon="13.4009775"><ele>533.6666666666666</ele><time>2026-03-22T11:49:36.9Z</time></trkpt><trkpt lat="43.0195865" lon="13.4008881"><ele>536.3333333333333</ele><time>2026-03-22T11:49:37.9Z</time></trkpt><trkpt lat="43.0196354" lon="13.4007933"><ele>539.0</ele><time>2026-03-22T11:49:38.9Z</time></trkpt><trkpt lat="43.0196763" lon="13.400708"><ele>539.0</ele><time>2026-03-22T11:49:39.901Z</time></trkpt><trkpt lat="43.0197331" lon="13.4005708"><ele>539.0</ele><time>2026-03-22T11:49:41.901Z</time></trkpt><trkpt lat="43.0197864" lon="13.4004389"><ele>539.0</ele><time>2026-03-22T11:49:43.901Z</time></trkpt><trkpt lat="43.0198198" lon="13.4003507"><ele>539.0</ele><time>2026-03-22T11:49:44.9Z</time></trkpt><trkpt lat="43.0198551" lon="13.4002572"><ele>539.0</ele><time>2026-03-22T11:49:45.901Z</time></trkpt><trkpt lat="43.0198935" lon="13.4001744"><ele>539.0</ele><time>2026-03-22T11:49:46.9Z</time></trkpt><trkpt lat="43.0199514" lon="13.4000418"><ele>540.8</ele><time>2026-03-22T11:49:48.901Z</time></trkpt><trkpt lat="43.0200122" lon="13.3999124"><ele>542.5999999999999</ele><time>2026-03-22T11:49:50.901Z</time></trkpt><trkpt lat="43.0200677" lon="13.3997903"><ele>544.4</ele><time>2026-03-22T11:49:52.901Z</time></trkpt><trkpt lat="43.0201153" lon="13.3996835"><ele>546.1999999999999</ele><time>2026-03-22T11:49:54.901Z</time></trkpt><trkpt lat="43.020175" lon="13.3995526"><ele>548.0</ele><time>2026-03-22T11:49:56.901Z</time></trkpt><trkpt lat="43.0202363" lon="13.3994329"><ele>549.8333333333333</ele><time>2026-03-22T11:49:58.901Z</time></trkpt><trkpt lat="43.0202801" lon="13.3993395"><ele>551.6666666666666</ele><time>2026-03-22T11:50:00.901Z</time></trkpt><trkpt lat="43.0203044" lon="13.3992561"><ele>553.5</ele><time>2026-03-22T11:50:02.901Z</time></trkpt><trkpt lat="43.0203231" lon="13.3991699"><ele>555.3333333333334</ele><time>2026-03-22T11:50:04.9Z</time></trkpt><trkpt lat="43.0203494" lon="13.3990752"><ele>557.1666666666667</ele><time>2026-03-22T11:50:06.9Z</time></trkpt><trkpt lat="43.0203821" lon="13.3989764"><ele>559.0</ele><time>2026-03-22T11:50:08.901Z</time></trkpt><trkpt lat="43.0204534" lon="13.398872"><ele>559.6</ele><time>2026-03-22T11:50:10.901Z</time></trkpt><trkpt lat="43.0205661" lon="13.3987695"><ele>560.2</ele><time>2026-03-22T11:50:12.901Z</time></trkpt><trkpt lat="43.0206363" lon="13.3987139"><ele>560.8000000000001</ele><time>2026-03-22T11:50:13.901Z</time></trkpt><trkpt lat="43.0207197" lon="13.3986503"><ele>561.4</ele><time>2026-03-22T11:50:14.9Z</time></trkpt><trkpt lat="43.0208104" lon="13.398577"><ele>562.0</ele><time>2026-03-22T11:50:15.9Z</time></trkpt><trkpt lat="43.0208988" lon="13.3985056"><ele>562.0</ele><time>2026-03-22T11:50:16.901Z</time></trkpt><trkpt lat="43.0209875" lon="13.3984333"><ele>562.0</ele><time>2026-03-22T11:50:17.9Z</time></trkpt><trkpt lat="43.0210786" lon="13.3983643"><ele>562.0</ele><time>2026-03-22T11:50:18.9Z</time></trkpt><trkpt lat="43.0211627" lon="13.3983086"><ele>562.0</ele><time>2026-03-22T11:50:19.901Z</time></trkpt><trkpt lat="43.0212383" lon="13.398272"><ele>562.0</ele><time>2026-03-22T11:50:20.9Z</time></trkpt><trkpt lat="43.0213095" lon="13.3982539"><ele>562.0</ele><time>2026-03-22T11:50:21.901Z</time></trkpt><trkpt lat="43.0213999" lon="13.3982722"><ele>562.0</ele><time>2026-03-22T11:50:23.9Z</time></trkpt><trkpt lat="43.0214437" lon="13.3983932"><ele>562.0</ele><time>2026-03-22T11:50:25.9Z</time></trkpt><trkpt lat="43.0214845" lon="13.3984787"><ele>562.0</ele><time>2026-03-22T11:50:26.901Z</time></trkpt><trkpt lat="43.0215515" lon="13.3985454"><ele>562.0</ele><time>2026-03-22T11:50:27.901Z</time></trkpt><trkpt lat="43.0216383" lon="13.398587"><ele>562.0</ele><time>2026-03-22T11:50:28.9Z</time></trkpt><trkpt lat="43.0217574" lon="13.398613"><ele>565.0</ele><time>2026-03-22T11:50:29.901Z</time></trkpt><trkpt lat="43.0218994" lon="13.3986335"><ele>568.0</ele><time>2026-03-22T11:50:30.901Z</time></trkpt><trkpt lat="43.0220562" lon="13.3986432"><ele>571.0</ele><time>2026-03-22T11:50:31.9Z</time></trkpt><trkpt lat="43.0222098" lon="13.3986685"><ele>571.0</ele><time>2026-03-22T11:50:32.901Z</time></trkpt><trkpt lat="43.0223679" lon="13.3987053"><ele>571.0</ele><time>2026-03-22T11:50:33.901Z</time></trkpt><trkpt lat="43.0225317" lon="13.398745"><ele>571.0</ele><time>2026-03-22T11:50:34.9Z</time></trkpt><trkpt lat="43.0226983" lon="13.3987717"><ele>571.0</ele><time>2026-03-22T11:50:35.9Z</time></trkpt><trkpt lat="43.02284" lon="13.3988167"><ele>571.0</ele><time>2026-03-22T11:50:36.901Z</time></trkpt><trkpt lat="43.0229733" lon="13.398875"><ele>571.0</ele><time>2026-03-22T11:50:37.9Z</time></trkpt><trkpt lat="43.02307" lon="13.3989717"><ele>571.0</ele><time>2026-03-22T11:50:38.901Z</time></trkpt><trkpt lat="43.0231517" lon="13.399095"><ele>571.0</ele><time>2026-03-22T11:50:39.901Z</time></trkpt><trkpt lat="43.0232" lon="13.3992583"><ele>571.0</ele><time>2026-03-22T11:50:40.901Z</time></trkpt><trkpt lat="43.02322" lon="13.39945"><ele>571.0</ele><time>2026-03-22T11:50:41.901Z</time></trkpt><trkpt lat="43.023255" lon="13.39964"><ele>571.0</ele><time>2026-03-22T11:50:42.901Z</time></trkpt><trkpt lat="43.0232967" lon="13.3998117"><ele>570.0</ele><time>2026-03-22T11:50:43.9Z</time></trkpt><trkpt lat="43.0233117" lon="13.39999"><ele>569.0</ele><time>2026-03-22T11:50:44.901Z</time></trkpt><trkpt lat="43.0232967" lon="13.4001583"><ele>568.0</ele><time>2026-03-22T11:50:45.901Z</time></trkpt><trkpt lat="43.0232483" lon="13.4003017"><ele>567.0</ele><time>2026-03-22T11:50:46.901Z</time></trkpt><trkpt lat="43.0231567" lon="13.4004383"><ele>568.0</ele><time>2026-03-22T11:50:47.901Z</time></trkpt><trkpt lat="43.0230433" lon="13.4005583"><ele>569.0</ele><time>2026-03-22T11:50:48.9Z</time></trkpt><trkpt lat="43.0229233" lon="13.4006817"><ele>570.0</ele><time>2026-03-22T11:50:49.901Z</time></trkpt><trkpt lat="43.0227917" lon="13.4007967"><ele>570.0</ele><time>2026-03-22T11:50:50.901Z</time></trkpt><trkpt lat="43.0226533" lon="13.4008967"><ele>570.0</ele><time>2026-03-22T11:50:51.901Z</time></trkpt><trkpt lat="43.0225133" lon="13.4009867"><ele>570.0</ele><time>2026-03-22T11:50:52.9Z</time></trkpt><trkpt lat="43.02238" lon="13.4010683"><ele>562.25</ele><time>2026-03-22T11:50:53.901Z</time></trkpt><trkpt lat="43.0222733" lon="13.4011767"><ele>554.5</ele><time>2026-03-22T11:50:54.901Z</time></trkpt><trkpt lat="43.0221933" lon="13.4012867"><ele>546.75</ele><time>2026-03-22T11:50:55.901Z</time></trkpt><trkpt lat="43.022135" lon="13.4014433"><ele>539.0</ele><time>2026-03-22T11:50:56.901Z</time></trkpt><trkpt lat="43.0221" lon="13.4016383"><ele>539.0</ele><time>2026-03-22T11:50:57.901Z</time></trkpt><trkpt lat="43.022105" lon="13.4018333"><ele>539.0</ele><time>2026-03-22T11:50:58.901Z</time></trkpt><trkpt lat="43.0221333" lon="13.4020133"><ele>539.0</ele><time>2026-03-22T11:50:59.901Z</time></trkpt><trkpt lat="43.02219" lon="13.4021933"><ele>539.0</ele><time>2026-03-22T11:51:00.901Z</time></trkpt><trkpt lat="43.0222833" lon="13.4023683"><ele>538.6666666666666</ele><time>2026-03-22T11:51:01.901Z</time></trkpt><trkpt lat="43.0223833" lon="13.4025517"><ele>538.3333333333334</ele><time>2026-03-22T11:51:02.9Z</time></trkpt><trkpt lat="43.0224867" lon="13.4027233"><ele>538.0</ele><time>2026-03-22T11:51:03.9Z</time></trkpt><trkpt lat="43.0225933" lon="13.4028717"><ele>541.5</ele><time>2026-03-22T11:51:04.901Z</time></trkpt><trkpt lat="43.0227233" lon="13.402975"><ele>545.0</ele><time>2026-03-22T11:51:05.9Z</time></trkpt><trkpt lat="43.0228433" lon="13.4030867"><ele>548.5</ele><time>2026-03-22T11:51:06.901Z</time></trkpt><trkpt lat="43.02295" lon="13.4032317"><ele>552.0</ele><time>2026-03-22T11:51:07.901Z</time></trkpt><trkpt lat="43.0230317" lon="13.4034083"><ele>552.0</ele><time>2026-03-22T11:51:08.901Z</time></trkpt><trkpt lat="43.0230933" lon="13.4035983"><ele>552.0</ele><time>2026-03-22T11:51:09.901Z</time></trkpt><trkpt lat="43.0231517" lon="13.4038017"><ele>552.0</ele><time>2026-03-22T11:51:10.901Z</time></trkpt><trkpt lat="43.0232283" lon="13.404015"><ele>552.6666666666666</ele><time>2026-03-22T11:51:11.901Z</time></trkpt><trkpt lat="43.0233267" lon="13.404225"><ele>553.3333333333333</ele><time>2026-03-22T11:51:12.9Z</time></trkpt><trkpt lat="43.023415" lon="13.4044167"><ele>554.0</ele><time>2026-03-22T11:51:13.9Z</time></trkpt><trkpt lat="43.0234883" lon="13.4046033"><ele>549.6666666666666</ele><time>2026-03-22T11:51:14.9Z</time></trkpt><trkpt lat="43.02356" lon="13.404805"><ele>545.3333333333334</ele><time>2026-03-22T11:51:15.901Z</time></trkpt><trkpt lat="43.0236283" lon="13.40501"><ele>541.0</ele><time>2026-03-22T11:51:16.901Z</time></trkpt><trkpt lat="43.023695" lon="13.4052"><ele>541.0</ele><time>2026-03-22T11:51:17.901Z</time></trkpt><trkpt lat="43.0237583" lon="13.40537"><ele>541.0</ele><time>2026-03-22T11:51:18.901Z</time></trkpt><trkpt lat="43.0238117" lon="13.405535"><ele>541.0</ele><time>2026-03-22T11:51:19.901Z</time></trkpt><trkpt lat="43.0238567" lon="13.4056917"><ele>541.0</ele><time>2026-03-22T11:51:20.901Z</time></trkpt><trkpt lat="43.0238733" lon="13.4058483"><ele>541.25</ele><time>2026-03-22T11:51:21.901Z</time></trkpt><trkpt lat="43.0238583" lon="13.40601"><ele>541.5</ele><time>2026-03-22T11:51:22.901Z</time></trkpt><trkpt lat="43.02382" lon="13.40614"><ele>541.75</ele><time>2026-03-22T11:51:23.901Z</time></trkpt><trkpt lat="43.0237383" lon="13.4062683"><ele>542.0</ele><time>2026-03-22T11:51:24.9Z</time></trkpt><trkpt lat="43.0236233" lon="13.40637"><ele>542.0</ele><time>2026-03-22T11:51:25.901Z</time></trkpt><trkpt lat="43.0234967" lon="13.4064767"><ele>542.0</ele><time>2026-03-22T11:51:26.9Z</time></trkpt><trkpt lat="43.0233717" lon="13.4066167"><ele>542.0</ele><time>2026-03-22T11:51:27.901Z</time></trkpt><trkpt lat="43.0232683" lon="13.40679"><ele>538.0</ele><time>2026-03-22T11:51:28.9Z</time></trkpt><trkpt lat="43.0231817" lon="13.4069733"><ele>534.0</ele><time>2026-03-22T11:51:29.901Z</time></trkpt><trkpt lat="43.0231017" lon="13.4071567"><ele>530.0</ele><time>2026-03-22T11:51:30.9Z</time></trkpt><trkpt lat="43.0230133" lon="13.4073317"><ele>530.0</ele><time>2026-03-22T11:51:31.901Z</time></trkpt><trkpt lat="43.022925" lon="13.4075033"><ele>530.0</ele><time>2026-03-22T11:51:32.9Z</time></trkpt><trkpt lat="43.022865" lon="13.407665"><ele>530.0</ele><time>2026-03-22T11:51:33.901Z</time></trkpt><trkpt lat="43.0228283" lon="13.4078483"><ele>530.0</ele><time>2026-03-22T11:51:34.9Z</time></trkpt><trkpt lat="43.02283" lon="13.4080217"><ele>530.0</ele><time>2026-03-22T11:51:35.901Z</time></trkpt><trkpt lat="43.02288" lon="13.4081883"><ele>530.0</ele><time>2026-03-22T11:51:36.901Z</time></trkpt><trkpt lat="43.0229467" lon="13.408355"><ele>530.0</ele><time>2026-03-22T11:51:37.901Z</time></trkpt><trkpt lat="43.023025" lon="13.408525"><ele>530.0</ele><time>2026-03-22T11:51:38.9Z</time></trkpt><trkpt lat="43.0231217" lon="13.4086783"><ele>530.0</ele><time>2026-03-22T11:51:39.901Z</time></trkpt><trkpt lat="43.0232333" lon="13.4088083"><ele>530.0</ele><time>2026-03-22T11:51:40.901Z</time></trkpt><trkpt lat="43.0233617" lon="13.4088933"><ele>530.0</ele><time>2026-03-22T11:51:41.901Z</time></trkpt><trkpt lat="43.023495" lon="13.4089167"><ele>530.0</ele><time>2026-03-22T11:51:42.901Z</time></trkpt><trkpt lat="43.0236417" lon="13.4088967"><ele>530.6666666666666</ele><time>2026-03-22T11:51:43.901Z</time></trkpt><trkpt lat="43.02379" lon="13.40884"><ele>531.3333333333334</ele><time>2026-03-22T11:51:44.901Z</time></trkpt><trkpt lat="43.0239367" lon="13.408765"><ele>532.0</ele><time>2026-03-22T11:51:45.901Z</time></trkpt><trkpt lat="43.0240783" lon="13.4086733"><ele>535.75</ele><time>2026-03-22T11:51:46.901Z</time></trkpt><trkpt lat="43.0242117" lon="13.4085683"><ele>539.5</ele><time>2026-03-22T11:51:47.901Z</time></trkpt><trkpt lat="43.02434" lon="13.4084583"><ele>543.25</ele><time>2026-03-22T11:51:48.901Z</time></trkpt><trkpt lat="43.0244683" lon="13.4083817"><ele>547.0</ele><time>2026-03-22T11:51:49.901Z</time></trkpt><trkpt lat="43.024605" lon="13.408345"><ele>547.0</ele><time>2026-03-22T11:51:50.9Z</time></trkpt><trkpt lat="43.0247433" lon="13.4083817"><ele>547.0</ele><time>2026-03-22T11:51:51.9Z</time></trkpt><trkpt lat="43.0248883" lon="13.4084467"><ele>547.0</ele><time>2026-03-22T11:51:52.901Z</time></trkpt><trkpt lat="43.0250133" lon="13.408565"><ele>547.0</ele><time>2026-03-22T11:51:53.901Z</time></trkpt><trkpt lat="43.02514" lon="13.4086767"><ele>547.3333333333334</ele><time>2026-03-22T11:51:54.901Z</time></trkpt><trkpt lat="43.02527" lon="13.40874"><ele>547.6666666666666</ele><time>2026-03-22T11:51:55.901Z</time></trkpt><trkpt lat="43.0254283" lon="13.4087467"><ele>548.0</ele><time>2026-03-22T11:51:56.901Z</time></trkpt><trkpt lat="43.0255817" lon="13.4087283"><ele>548.0</ele><time>2026-03-22T11:51:57.902Z</time></trkpt><trkpt lat="43.025735" lon="13.40872"><ele>548.0</ele><time>2026-03-22T11:51:58.901Z</time></trkpt><trkpt lat="43.0259" lon="13.408745"><ele>548.0</ele><time>2026-03-22T11:51:59.902Z</time></trkpt><trkpt lat="43.0260533" lon="13.4088267"><ele>545.0</ele><time>2026-03-22T11:52:00.902Z</time></trkpt><trkpt lat="43.0262" lon="13.4089333"><ele>542.0</ele><time>2026-03-22T11:52:01.901Z</time></trkpt><trkpt lat="43.02632" lon="13.4090733"><ele>539.0</ele><time>2026-03-22T11:52:02.901Z</time></trkpt><trkpt lat="43.0264233" lon="13.4092417"><ele>539.0</ele><time>2026-03-22T11:52:03.902Z</time></trkpt><trkpt lat="43.026525" lon="13.4094133"><ele>539.0</ele><time>2026-03-22T11:52:04.901Z</time></trkpt><trkpt lat="43.0266183" lon="13.409605"><ele>539.0</ele><time>2026-03-22T11:52:05.901Z</time></trkpt><trkpt lat="43.02671" lon="13.4097967"><ele>537.6666666666666</ele><time>2026-03-22T11:52:06.902Z</time></trkpt><trkpt lat="43.0267867" lon="13.4099767"><ele>536.3333333333334</ele><time>2026-03-22T11:52:07.902Z</time></trkpt><trkpt lat="43.0268283" lon="13.4101717"><ele>535.0</ele><time>2026-03-22T11:52:08.902Z</time></trkpt><trkpt lat="43.0268233" lon="13.4103767"><ele>531.6666666666667</ele><time>2026-03-22T11:52:09.902Z</time></trkpt><trkpt lat="43.02677" lon="13.41057"><ele>528.3333333333334</ele><time>2026-03-22T11:52:10.902Z</time></trkpt><trkpt lat="43.0267067" lon="13.410755"><ele>525.0</ele><time>2026-03-22T11:52:11.901Z</time></trkpt><trkpt lat="43.026645" lon="13.4109417"><ele>524.75</ele><time>2026-03-22T11:52:12.902Z</time></trkpt><trkpt lat="43.0265983" lon="13.4111367"><ele>524.5</ele><time>2026-03-22T11:52:13.902Z</time></trkpt><trkpt lat="43.02658" lon="13.4113183"><ele>524.25</ele><time>2026-03-22T11:52:14.901Z</time></trkpt><trkpt lat="43.0266033" lon="13.4115"><ele>524.0</ele><time>2026-03-22T11:52:15.902Z</time></trkpt><trkpt lat="43.0266517" lon="13.4116883"><ele>524.0</ele><time>2026-03-22T11:52:16.901Z</time></trkpt><trkpt lat="43.0267217" lon="13.41185"><ele>524.0</ele><time>2026-03-22T11:52:17.902Z</time></trkpt><trkpt lat="43.0267883" lon="13.411985"><ele>524.0</ele><time>2026-03-22T11:52:18.902Z</time></trkpt><trkpt lat="43.026855" lon="13.4121317"><ele>524.0</ele><time>2026-03-22T11:52:19.902Z</time></trkpt><trkpt lat="43.0269267" lon="13.4122467"><ele>523.3333333333333</ele><time>2026-03-22T11:52:20.902Z</time></trkpt><trkpt lat="43.0269933" lon="13.412345"><ele>522.6666666666666</ele><time>2026-03-22T11:52:21.902Z</time></trkpt><trkpt lat="43.027065" lon="13.4124017"><ele>522.0</ele><time>2026-03-22T11:52:22.901Z</time></trkpt><trkpt lat="43.02713" lon="13.41245"><ele>521.3333333333334</ele><time>2026-03-22T11:52:23.902Z</time></trkpt><trkpt lat="43.0272083" lon="13.4125033"><ele>520.6666666666667</ele><time>2026-03-22T11:52:24.902Z</time></trkpt><trkpt lat="43.0272833" lon="13.4125783"><ele>520.0</ele><time>2026-03-22T11:52:25.902Z</time></trkpt><trkpt lat="43.0273717" lon="13.41266"><ele>520.0</ele><time>2026-03-22T11:52:26.902Z</time></trkpt><trkpt lat="43.0274733" lon="13.4127583"><ele>520.0</ele><time>2026-03-22T11:52:27.901Z</time></trkpt><trkpt lat="43.0275883" lon="13.4128567"><ele>520.0</ele><time>2026-03-22T11:52:28.902Z</time></trkpt><trkpt lat="43.0276883" lon="13.4129383"><ele>520.0</ele><time>2026-03-22T11:52:29.902Z</time></trkpt><trkpt lat="43.027775" lon="13.413015"><ele>522.0</ele><time>2026-03-22T11:52:30.902Z</time></trkpt><trkpt lat="43.0278467" lon="13.4131"><ele>524.0</ele><time>2026-03-22T11:52:31.901Z</time></trkpt><trkpt lat="43.0279" lon="13.4131833"><ele>526.0</ele><time>2026-03-22T11:52:32.902Z</time></trkpt><trkpt lat="43.0279417" lon="13.4132817"><ele>528.0</ele><time>2026-03-22T11:52:33.901Z</time></trkpt><trkpt lat="43.0279683" lon="13.4133933"><ele>530.0</ele><time>2026-03-22T11:52:34.901Z</time></trkpt><trkpt lat="43.0279883" lon="13.4135217"><ele>532.0</ele><time>2026-03-22T11:52:35.902Z</time></trkpt><trkpt lat="43.0280033" lon="13.4136767"><ele>531.4</ele><time>2026-03-22T11:52:36.901Z</time></trkpt><trkpt lat="43.0280133" lon="13.4138483"><ele>530.8000000000001</ele><time>2026-03-22T11:52:37.901Z</time></trkpt><trkpt lat="43.02804" lon="13.4140167"><ele>530.2</ele><time>2026-03-22T11:52:38.901Z</time></trkpt><trkpt lat="43.0280667" lon="13.4141567"><ele>529.6</ele><time>2026-03-22T11:52:39.902Z</time></trkpt><trkpt lat="43.0280833" lon="13.41428"><ele>529.0</ele><time>2026-03-22T11:52:40.901Z</time></trkpt><trkpt lat="43.0281117" lon="13.4143833"><ele>529.0</ele><time>2026-03-22T11:52:41.902Z</time></trkpt><trkpt lat="43.0281267" lon="13.41449"><ele>529.0</ele><time>2026-03-22T11:52:42.902Z</time></trkpt><trkpt lat="43.0281283" lon="13.4146067"><ele>529.0</ele><time>2026-03-22T11:52:43.902Z</time></trkpt><trkpt lat="43.0281233" lon="13.4147133"><ele>529.0</ele><time>2026-03-22T11:52:44.902Z</time></trkpt><trkpt lat="43.0281133" lon="13.4148167"><ele>529.0</ele><time>2026-03-22T11:52:45.902Z</time></trkpt><trkpt lat="43.0280917" lon="13.4149133"><ele>529.0</ele><time>2026-03-22T11:52:46.901Z</time></trkpt><trkpt lat="43.028065" lon="13.4149917"><ele>529.4</ele><time>2026-03-22T11:52:47.902Z</time></trkpt><trkpt lat="43.0280233" lon="13.4151283"><ele>529.8</ele><time>2026-03-22T11:52:49.901Z</time></trkpt><trkpt lat="43.0279867" lon="13.4152767"><ele>530.2</ele><time>2026-03-22T11:52:51.902Z</time></trkpt><trkpt lat="43.0279717" lon="13.41542"><ele>530.6</ele><time>2026-03-22T11:52:53.902Z</time></trkpt><trkpt lat="43.0279533" lon="13.4155417"><ele>531.0</ele><time>2026-03-22T11:52:55.902Z</time></trkpt><trkpt lat="43.027945" lon="13.4156817"><ele>530.3333333333334</ele><time>2026-03-22T11:52:57.901Z</time></trkpt><trkpt lat="43.02797" lon="13.4157967"><ele>529.6666666666666</ele><time>2026-03-22T11:52:59.901Z</time></trkpt><trkpt lat="43.0279917" lon="13.4158933"><ele>529.0</ele><time>2026-03-22T11:53:01.902Z</time></trkpt><trkpt lat="43.0280017" lon="13.4160017"><ele>528.3333333333333</ele><time>2026-03-22T11:53:04.901Z</time></trkpt><trkpt lat="43.0280167" lon="13.4160983"><ele>527.6666666666666</ele><time>2026-03-22T11:53:07.902Z</time></trkpt><trkpt lat="43.02804" lon="13.4162117"><ele>527.0</ele><time>2026-03-22T11:53:09.902Z</time></trkpt><trkpt lat="43.02806" lon="13.4163717"><ele>527.2</ele><time>2026-03-22T11:53:11.902Z</time></trkpt><trkpt lat="43.028115" lon="13.416505"><ele>527.4000000000001</ele><time>2026-03-22T11:53:13.902Z</time></trkpt><trkpt lat="43.0281833" lon="13.4166233"><ele>527.5999999999999</ele><time>2026-03-22T11:53:15.901Z</time></trkpt><trkpt lat="43.0282383" lon="13.4167417"><ele>527.8</ele><time>2026-03-22T11:53:17.901Z</time></trkpt><trkpt lat="43.028285" lon="13.4168783"><ele>528.0</ele><time>2026-03-22T11:53:19.901Z</time></trkpt><trkpt lat="43.02831" lon="13.4169583"><ele>528.0</ele><time>2026-03-22T11:53:20.902Z</time></trkpt><trkpt lat="43.0283317" lon="13.417055"><ele>528.0</ele><time>2026-03-22T11:53:21.901Z</time></trkpt><trkpt lat="43.0283583" lon="13.4171433"><ele>528.0</ele><time>2026-03-22T11:53:22.902Z</time></trkpt><trkpt lat="43.0283867" lon="13.4172367"><ele>528.0</ele><time>2026-03-22T11:53:23.901Z</time></trkpt><trkpt lat="43.028415" lon="13.4173367"><ele>528.0</ele><time>2026-03-22T11:53:24.901Z</time></trkpt><trkpt lat="43.028445" lon="13.4174217"><ele>528.0</ele><time>2026-03-22T11:53:25.902Z</time></trkpt><trkpt lat="43.0284733" lon="13.417515"><ele>528.0</ele><time>2026-03-22T11:53:26.901Z</time></trkpt><trkpt lat="43.0285083" lon="13.4176033"><ele>527.3333333333334</ele><time>2026-03-22T11:53:27.902Z</time></trkpt><trkpt lat="43.0285517" lon="13.41769"><ele>526.6666666666666</ele><time>2026-03-22T11:53:28.902Z</time></trkpt><trkpt lat="43.0285933" lon="13.4177733"><ele>526.0</ele><time>2026-03-22T11:53:29.902Z</time></trkpt><trkpt lat="43.02863" lon="13.4178533"><ele>525.3333333333333</ele><time>2026-03-22T11:53:30.901Z</time></trkpt><trkpt lat="43.0286733" lon="13.4179283"><ele>524.6666666666666</ele><time>2026-03-22T11:53:31.902Z</time></trkpt><trkpt lat="43.0287483" lon="13.4180433"><ele>524.0</ele><time>2026-03-22T11:53:33.901Z</time></trkpt><trkpt lat="43.02882" lon="13.418115"><ele>523.2</ele><time>2026-03-22T11:53:35.902Z</time></trkpt><trkpt lat="43.0288733" lon="13.418215"><ele>522.4</ele><time>2026-03-22T11:53:37.902Z</time></trkpt><trkpt lat="43.0289217" lon="13.4183433"><ele>521.6</ele><time>2026-03-22T11:53:39.902Z</time></trkpt><trkpt lat="43.0290133" lon="13.41847"><ele>520.8</ele><time>2026-03-22T11:53:41.902Z</time></trkpt><trkpt lat="43.0290683" lon="13.4185417"><ele>520.0</ele><time>2026-03-22T11:53:42.902Z</time></trkpt><trkpt lat="43.02913" lon="13.418615"><ele>520.0</ele><time>2026-03-22T11:53:43.901Z</time></trkpt><trkpt lat="43.0291867" lon="13.4186967"><ele>520.0</ele><time>2026-03-22T11:53:44.901Z</time></trkpt><trkpt lat="43.0292417" lon="13.4187917"><ele>520.0</ele><time>2026-03-22T11:53:45.901Z</time></trkpt><trkpt lat="43.0293" lon="13.4189033"><ele>520.0</ele><time>2026-03-22T11:53:46.902Z</time></trkpt><trkpt lat="43.0293633" lon="13.4190033"><ele>520.0</ele><time>2026-03-22T11:53:47.902Z</time></trkpt><trkpt lat="43.0294267" lon="13.4191083"><ele>518.6</ele><time>2026-03-22T11:53:48.902Z</time></trkpt><trkpt lat="43.0294883" lon="13.4192133"><ele>517.2</ele><time>2026-03-22T11:53:49.902Z</time></trkpt><trkpt lat="43.0295517" lon="13.419325"><ele>515.8</ele><time>2026-03-22T11:53:50.902Z</time></trkpt><trkpt lat="43.0296233" lon="13.4194383"><ele>514.4</ele><time>2026-03-22T11:53:51.902Z</time></trkpt><trkpt lat="43.0296967" lon="13.4195633"><ele>513.0</ele><time>2026-03-22T11:53:52.902Z</time></trkpt><trkpt lat="43.0297783" lon="13.4196967"><ele>510.75</ele><time>2026-03-22T11:53:53.902Z</time></trkpt><trkpt lat="43.0298617" lon="13.419835"><ele>508.5</ele><time>2026-03-22T11:53:54.902Z</time></trkpt><trkpt lat="43.0299417" lon="13.4199783"><ele>506.25</ele><time>2026-03-22T11:53:55.902Z</time></trkpt><trkpt lat="43.0300167" lon="13.4201283"><ele>504.0</ele><time>2026-03-22T11:53:56.901Z</time></trkpt><trkpt lat="43.0300833" lon="13.4202683"><ele>504.0</ele><time>2026-03-22T11:53:57.901Z</time></trkpt><trkpt lat="43.030145" lon="13.4204117"><ele>504.0</ele><time>2026-03-22T11:53:58.902Z</time></trkpt><trkpt lat="43.0302033" lon="13.42055"><ele>504.0</ele><time>2026-03-22T11:53:59.902Z</time></trkpt><trkpt lat="43.03027" lon="13.420695"><ele>504.0</ele><time>2026-03-22T11:54:00.901Z</time></trkpt><trkpt lat="43.030335" lon="13.4208267"><ele>502.79999999999995</ele><time>2026-03-22T11:54:01.902Z</time></trkpt><trkpt lat="43.0303967" lon="13.4209617"><ele>501.59999999999997</ele><time>2026-03-22T11:54:02.901Z</time></trkpt><trkpt lat="43.030445" lon="13.4211"><ele>500.4</ele><time>2026-03-22T11:54:03.902Z</time></trkpt><trkpt lat="43.03047" lon="13.4212367"><ele>499.2</ele><time>2026-03-22T11:54:04.901Z</time></trkpt><trkpt lat="43.0304883" lon="13.421345"><ele>498.0</ele><time>2026-03-22T11:54:05.902Z</time></trkpt><trkpt lat="43.0304917" lon="13.4214683"><ele>496.25</ele><time>2026-03-22T11:54:06.902Z</time></trkpt><trkpt lat="43.03049" lon="13.42163"><ele>494.5</ele><time>2026-03-22T11:54:07.901Z</time></trkpt><trkpt lat="43.0304933" lon="13.42178"><ele>492.75</ele><time>2026-03-22T11:54:08.902Z</time></trkpt><trkpt lat="43.03049" lon="13.4219483"><ele>491.0</ele><time>2026-03-22T11:54:09.902Z</time></trkpt><trkpt lat="43.0304933" lon="13.4221183"><ele>487.75</ele><time>2026-03-22T11:54:10.902Z</time></trkpt><trkpt lat="43.0305117" lon="13.4222833"><ele>484.5</ele><time>2026-03-22T11:54:11.902Z</time></trkpt><trkpt lat="43.0305267" lon="13.4224683"><ele>481.25</ele><time>2026-03-22T11:54:12.902Z</time></trkpt><trkpt lat="43.0305383" lon="13.422655"><ele>478.0</ele><time>2026-03-22T11:54:13.901Z</time></trkpt><trkpt lat="43.0305483" lon="13.42285"><ele>476.5</ele><time>2026-03-22T11:54:14.901Z</time></trkpt><trkpt lat="43.0305617" lon="13.4230483"><ele>475.0</ele><time>2026-03-22T11:54:15.902Z</time></trkpt><trkpt lat="43.0305783" lon="13.4232317"><ele>473.5</ele><time>2026-03-22T11:54:16.902Z</time></trkpt><trkpt lat="43.0306017" lon="13.4234033"><ele>472.0</ele><time>2026-03-22T11:54:17.901Z</time></trkpt><trkpt lat="43.0306217" lon="13.42356"><ele>472.0</ele><time>2026-03-22T11:54:18.902Z</time></trkpt><trkpt lat="43.0306417" lon="13.4237083"><ele>472.00000000000006</ele><time>2026-03-22T11:54:19.901Z</time></trkpt><trkpt lat="43.0306583" lon="13.4238517"><ele>472.00000000000006</ele><time>2026-03-22T11:54:20.902Z</time></trkpt><trkpt lat="43.03066" lon="13.423995"><ele>472.0</ele><time>2026-03-22T11:54:21.902Z</time></trkpt><trkpt lat="43.0306533" lon="13.42412"><ele>472.0</ele><time>2026-03-22T11:54:22.902Z</time></trkpt><trkpt lat="43.0306433" lon="13.424225"><ele>469.6</ele><time>2026-03-22T11:54:23.902Z</time></trkpt><trkpt lat="43.03062" lon="13.4243667"><ele>467.20000000000005</ele><time>2026-03-22T11:54:25.902Z</time></trkpt><trkpt lat="43.0306133" lon="13.4245017"><ele>464.8</ele><time>2026-03-22T12:00:31.902Z</time></trkpt><trkpt lat="43.0305917" lon="13.4246033"><ele>462.4</ele><time>2026-03-22T12:00:32.901Z</time></trkpt><trkpt lat="43.030555" lon="13.4247333"><ele>460.0</ele><time>2026-03-22T12:00:33.901Z</time></trkpt><trkpt lat="43.0305133" lon="13.4248917"><ele>460.5</ele><time>2026-03-22T12:00:34.902Z</time></trkpt><trkpt lat="43.0304717" lon="13.4250633"><ele>461.0</ele><time>2026-03-22T12:00:35.902Z</time></trkpt><trkpt lat="43.0304267" lon="13.4252433"><ele>461.5</ele><time>2026-03-22T12:00:36.902Z</time></trkpt><trkpt lat="43.0303833" lon="13.4254283"><ele>462.0</ele><time>2026-03-22T12:00:37.902Z</time></trkpt><trkpt lat="43.03034" lon="13.42561"><ele>462.0</ele><time>2026-03-22T12:00:38.902Z</time></trkpt><trkpt lat="43.0302883" lon="13.4258117"><ele>462.0</ele><time>2026-03-22T12:00:39.902Z</time></trkpt><trkpt lat="43.0302333" lon="13.4260183"><ele>462.0</ele><time>2026-03-22T12:00:40.901Z</time></trkpt><trkpt lat="43.03017" lon="13.4262067"><ele>464.0</ele><time>2026-03-22T12:00:41.902Z</time></trkpt><trkpt lat="43.0301017" lon="13.426385"><ele>466.0</ele><time>2026-03-22T12:00:42.901Z</time></trkpt><trkpt lat="43.030045" lon="13.4265583"><ele>468.0</ele><time>2026-03-22T12:00:43.901Z</time></trkpt><trkpt lat="43.030025" lon="13.4267183"><ele>470.0</ele><time>2026-03-22T12:00:44.901Z</time></trkpt><trkpt lat="43.030055" lon="13.4268733"><ele>470.0</ele><time>2026-03-22T12:00:45.902Z</time></trkpt><trkpt lat="43.03013" lon="13.4270033"><ele>470.0</ele><time>2026-03-22T12:00:46.902Z</time></trkpt><trkpt lat="43.0302267" lon="13.4271033"><ele>470.0</ele><time>2026-03-22T12:00:47.902Z</time></trkpt><trkpt lat="43.0303383" lon="13.4272033"><ele>470.0</ele><time>2026-03-22T12:00:48.902Z</time></trkpt><trkpt lat="43.0304567" lon="13.4273267"><ele>468.3333333333333</ele><time>2026-03-22T12:00:49.902Z</time></trkpt><trkpt lat="43.0305717" lon="13.4274667"><ele>466.66666666666663</ele><time>2026-03-22T12:00:50.902Z</time></trkpt><trkpt lat="43.0306683" lon="13.42766"><ele>465.0</ele><time>2026-03-22T12:00:51.902Z</time></trkpt><trkpt lat="43.0307267" lon="13.4278883"><ele>464.66666666666663</ele><time>2026-03-22T12:00:52.902Z</time></trkpt><trkpt lat="43.0307533" lon="13.4281267"><ele>464.3333333333333</ele><time>2026-03-22T12:00:53.901Z</time></trkpt><trkpt lat="43.03074" lon="13.4283867"><ele>464.0</ele><time>2026-03-22T12:00:54.901Z</time></trkpt><trkpt lat="43.0307" lon="13.4286367"><ele>464.25</ele><time>2026-03-22T12:00:55.901Z</time></trkpt><trkpt lat="43.0306683" lon="13.4288617"><ele>464.5</ele><time>2026-03-22T12:00:56.901Z</time></trkpt><trkpt lat="43.030645" lon="13.4290733"><ele>464.75</ele><time>2026-03-22T12:00:57.901Z</time></trkpt><trkpt lat="43.0306767" lon="13.429235"><ele>465.0</ele><time>2026-03-22T12:00:58.902Z</time></trkpt><trkpt lat="43.03074" lon="13.4293717"><ele>471.0</ele><time>2026-03-22T12:00:59.902Z</time></trkpt><trkpt lat="43.0308533" lon="13.4294917"><ele>477.0</ele><time>2026-03-22T12:01:00.902Z</time></trkpt><trkpt lat="43.0310233" lon="13.4295533"><ele>483.0</ele><time>2026-03-22T12:01:01.901Z</time></trkpt><trkpt lat="43.03119" lon="13.4296133"><ele>479.0</ele><time>2026-03-22T12:01:02.902Z</time></trkpt><trkpt lat="43.03136" lon="13.4296667"><ele>475.0</ele><time>2026-03-22T12:01:03.902Z</time></trkpt><trkpt lat="43.0315067" lon="13.429725"><ele>471.0</ele><time>2026-03-22T12:01:04.902Z</time></trkpt><trkpt lat="43.03164" lon="13.4297867"><ele>473.75</ele><time>2026-03-22T12:01:05.901Z</time></trkpt><trkpt lat="43.03177" lon="13.4298683"><ele>476.5</ele><time>2026-03-22T12:01:06.901Z</time></trkpt><trkpt lat="43.0318883" lon="13.4299567"><ele>479.25</ele><time>2026-03-22T12:01:07.901Z</time></trkpt><trkpt lat="43.03198" lon="13.4300667"><ele>482.0</ele><time>2026-03-22T12:01:08.902Z</time></trkpt><trkpt lat="43.0320617" lon="13.4301517"><ele>481.99999999999994</ele><time>2026-03-22T12:01:09.902Z</time></trkpt><trkpt lat="43.0321267" lon="13.4302467"><ele>482.0</ele><time>2026-03-22T12:01:10.901Z</time></trkpt><trkpt lat="43.0321717" lon="13.4303183"><ele>482.0</ele><time>2026-03-22T12:01:11.901Z</time></trkpt><trkpt lat="43.03228" lon="13.4303917"><ele>482.0</ele><time>2026-03-22T12:01:13.902Z</time></trkpt><trkpt lat="43.032345" lon="13.4304133"><ele>481.99999999999994</ele><time>2026-03-22T12:01:14.902Z</time></trkpt><trkpt lat="43.032415" lon="13.430475"><ele>482.0</ele><time>2026-03-22T12:01:15.902Z</time></trkpt><trkpt lat="43.03249" lon="13.4305467"><ele>481.99999999999994</ele><time>2026-03-22T12:01:16.902Z</time></trkpt><trkpt lat="43.0325683" lon="13.4306183"><ele>482.0</ele><time>2026-03-22T12:01:17.901Z</time></trkpt><trkpt lat="43.032645" lon="13.4306417"><ele>482.0</ele><time>2026-03-22T12:01:18.902Z</time></trkpt><trkpt lat="43.0327333" lon="13.4306217"><ele>482.0</ele><time>2026-03-22T12:01:19.901Z</time></trkpt><trkpt lat="43.0328133" lon="13.4305533"><ele>481.99999999999994</ele><time>2026-03-22T12:01:20.902Z</time></trkpt><trkpt lat="43.03287" lon="13.430455"><ele>482.0</ele><time>2026-03-22T12:01:21.901Z</time></trkpt><trkpt lat="43.0329017" lon="13.43033"><ele>482.0</ele><time>2026-03-22T12:01:22.901Z</time></trkpt><trkpt lat="43.03291" lon="13.4302133"><ele>482.00000000000006</ele><time>2026-03-22T12:01:23.901Z</time></trkpt><trkpt lat="43.032895" lon="13.430065"><ele>482.00000000000006</ele><time>2026-03-22T12:01:24.901Z</time></trkpt><trkpt lat="43.032855" lon="13.429905"><ele>482.0</ele><time>2026-03-22T12:01:25.901Z</time></trkpt><trkpt lat="43.0328133" lon="13.4297417"><ele>482.0</ele><time>2026-03-22T12:01:26.902Z</time></trkpt><trkpt lat="43.0327867" lon="13.4296117"><ele>480.49999999999994</ele><time>2026-03-22T12:01:27.901Z</time></trkpt><trkpt lat="43.0327617" lon="13.4294933"><ele>479.0</ele><time>2026-03-22T12:01:28.902Z</time></trkpt><trkpt lat="43.0327683" lon="13.429395"><ele>477.5</ele><time>2026-03-22T12:01:29.902Z</time></trkpt><trkpt lat="43.03279" lon="13.4292983"><ele>476.0</ele><time>2026-03-22T12:01:30.901Z</time></trkpt><trkpt lat="43.032885" lon="13.4292333"><ele>474.49999999999994</ele><time>2026-03-22T12:01:32.902Z</time></trkpt><trkpt lat="43.0329667" lon="13.42927"><ele>473.0</ele><time>2026-03-22T12:01:33.902Z</time></trkpt><trkpt lat="43.0330583" lon="13.4293433"><ele>473.0</ele><time>2026-03-22T12:01:34.901Z</time></trkpt><trkpt lat="43.03317" lon="13.429415"><ele>473.0</ele><time>2026-03-22T12:01:35.902Z</time></trkpt><trkpt lat="43.033275" lon="13.4294667"><ele>473.0</ele><time>2026-03-22T12:01:36.901Z</time></trkpt><trkpt lat="43.033385" lon="13.4294917"><ele>473.0</ele><time>2026-03-22T12:01:37.902Z</time></trkpt><trkpt lat="43.033495" lon="13.4294883"><ele>470.2</ele><time>2026-03-22T12:01:38.902Z</time></trkpt><trkpt lat="43.0335983" lon="13.42948"><ele>467.4</ele><time>2026-03-22T12:01:39.902Z</time></trkpt><trkpt lat="43.03369" lon="13.429465"><ele>464.59999999999997</ele><time>2026-03-22T12:01:40.902Z</time></trkpt><trkpt lat="43.0337583" lon="13.4294733"><ele>461.79999999999995</ele><time>2026-03-22T12:01:41.901Z</time></trkpt><trkpt lat="43.03385" lon="13.4294883"><ele>459.0</ele><time>2026-03-22T12:01:43.902Z</time></trkpt><trkpt lat="43.0339767" lon="13.42949"><ele>459.0</ele><time>2026-03-22T12:01:57.902Z</time></trkpt><trkpt lat="43.034045" lon="13.42957"><ele>459.0</ele><time>2026-03-22T12:02:00.901Z</time></trkpt><trkpt lat="43.03399" lon="13.4294767"><ele>459.0</ele><time>2026-03-22T12:03:04.901Z</time></trkpt><trkpt lat="43.0338833" lon="13.4295033"><ele>459.0</ele><time>2026-03-22T12:03:12.902Z</time></trkpt><trkpt lat="43.0338" lon="13.4294767"><ele>459.0</ele><time>2026-03-22T12:03:14.901Z</time></trkpt><trkpt lat="43.0336667" lon="13.42947"><ele>459.0</ele><time>2026-03-22T12:03:16.902Z</time></trkpt><trkpt lat="43.0335867" lon="13.429475"><ele>459.0</ele><time>2026-03-22T12:03:17.902Z</time></trkpt><trkpt lat="43.0334917" lon="13.429485"><ele>459.0</ele><time>2026-03-22T12:03:18.901Z</time></trkpt><trkpt lat="43.0333917" lon="13.42949"><ele>459.0</ele><time>2026-03-22T12:03:19.902Z</time></trkpt><trkpt lat="43.0332833" lon="13.4294833"><ele>459.0</ele><time>2026-03-22T12:03:20.901Z</time></trkpt><trkpt lat="43.0331817" lon="13.429475"><ele>461.79999999999995</ele><time>2026-03-22T12:03:21.902Z</time></trkpt><trkpt lat="43.0330833" lon="13.42944"><ele>464.59999999999997</ele><time>2026-03-22T12:03:22.902Z</time></trkpt><trkpt lat="43.0329883" lon="13.4293867"><ele>467.4</ele><time>2026-03-22T12:03:23.902Z</time></trkpt><trkpt lat="43.0328983" lon="13.4293367"><ele>470.2</ele><time>2026-03-22T12:03:24.902Z</time></trkpt><trkpt lat="43.0328183" lon="13.42932"><ele>473.0</ele><time>2026-03-22T12:03:25.902Z</time></trkpt><trkpt lat="43.032755" lon="13.4293517"><ele>473.0</ele><time>2026-03-22T12:03:26.902Z</time></trkpt><trkpt lat="43.0326783" lon="13.42949"><ele>472.99999999999994</ele><time>2026-03-22T12:03:28.902Z</time></trkpt><trkpt lat="43.03268" lon="13.4295867"><ele>472.99999999999994</ele><time>2026-03-22T12:03:29.902Z</time></trkpt><trkpt lat="43.0326833" lon="13.4296933"><ele>473.0</ele><time>2026-03-22T12:03:30.902Z</time></trkpt><trkpt lat="43.0327133" lon="13.4298117"><ele>473.0</ele><time>2026-03-22T12:03:31.902Z</time></trkpt><trkpt lat="43.032765" lon="13.4299383"><ele>474.49999999999994</ele><time>2026-03-22T12:03:32.902Z</time></trkpt><trkpt lat="43.0328167" lon="13.43006"><ele>476.0</ele><time>2026-03-22T12:03:33.902Z</time></trkpt><trkpt lat="43.032855" lon="13.430185"><ele>477.5</ele><time>2026-03-22T12:03:34.901Z</time></trkpt><trkpt lat="43.032875" lon="13.430305"><ele>479.0</ele><time>2026-03-22T12:03:35.902Z</time></trkpt><trkpt lat="43.0328733" lon="13.4304133"><ele>480.49999999999994</ele><time>2026-03-22T12:03:36.901Z</time></trkpt><trkpt lat="43.0328517" lon="13.4304983"><ele>482.0</ele><time>2026-03-22T12:03:37.902Z</time></trkpt><trkpt lat="43.0327933" lon="13.4305933"><ele>482.49999999999994</ele><time>2026-03-22T12:03:39.902Z</time></trkpt><trkpt lat="43.032755" lon="13.4307183"><ele>483.0</ele><time>2026-03-22T12:03:42.901Z</time></trkpt><trkpt lat="43.0327317" lon="13.4308167"><ele>483.5</ele><time>2026-03-22T12:03:44.902Z</time></trkpt><trkpt lat="43.0327083" lon="13.4309133"><ele>484.0</ele><time>2026-03-22T12:03:47.901Z</time></trkpt><trkpt lat="43.032695" lon="13.4309983"><ele>484.49999999999994</ele><time>2026-03-22T12:04:05.902Z</time></trkpt><trkpt lat="43.03276" lon="13.4310267"><ele>485.0</ele><time>2026-03-22T12:04:07.902Z</time></trkpt><trkpt lat="43.03284" lon="13.43105"><ele>484.99999999999994</ele><time>2026-03-22T12:04:09.902Z</time></trkpt><trkpt lat="43.03293" lon="13.4310567"><ele>485.0</ele><time>2026-03-22T12:04:11.901Z</time></trkpt><trkpt lat="43.0330167" lon="13.4310333"><ele>485.0</ele><time>2026-03-22T12:04:13.901Z</time></trkpt><trkpt lat="43.033085" lon="13.4310217"><ele>485.0</ele><time>2026-03-22T12:04:15.902Z</time></trkpt><trkpt lat="43.0331683" lon="13.43099"><ele>484.99999999999994</ele><time>2026-03-22T12:04:18.902Z</time></trkpt><trkpt lat="43.0332267" lon="13.4309533"><ele>485.0</ele><time>2026-03-22T12:04:20.902Z</time></trkpt><trkpt lat="43.0332883" lon="13.43089"><ele>482.3333333333333</ele><time>2026-03-22T12:04:22.902Z</time></trkpt><trkpt lat="43.03337" lon="13.4308283"><ele>479.66666666666663</ele><time>2026-03-22T12:04:24.902Z</time></trkpt><trkpt lat="43.0334467" lon="13.4307733"><ele>477.0</ele><time>2026-03-22T12:04:26.902Z</time></trkpt><trkpt lat="43.0335033" lon="13.4307317"><ele>474.33333333333337</ele><time>2026-03-22T12:04:28.901Z</time></trkpt><trkpt lat="43.0335833" lon="13.4307217"><ele>471.6666666666667</ele><time>2026-03-22T12:04:31.902Z</time></trkpt><trkpt lat="43.0336483" lon="13.430735"><ele>469.0</ele><time>2026-03-22T12:04:33.902Z</time></trkpt><trkpt lat="43.03373" lon="13.4307683"><ele>469.00000000000006</ele><time>2026-03-22T12:04:35.901Z</time></trkpt><trkpt lat="43.0338033" lon="13.430785"><ele>469.0</ele><time>2026-03-22T12:04:37.902Z</time></trkpt><trkpt lat="43.0338967" lon="13.4308067"><ele>469.0</ele><time>2026-03-22T12:04:47.902Z</time></trkpt><trkpt lat="43.0339333" lon="13.4308917"><ele>469.0</ele><time>2026-03-22T12:04:49.902Z</time></trkpt><trkpt lat="43.0339933" lon="13.431"><ele>469.00000000000006</ele><time>2026-03-22T12:04:51.901Z</time></trkpt><trkpt lat="43.0340467" lon="13.4311083"><ele>469.0</ele><time>2026-03-22T12:04:53.902Z</time></trkpt><trkpt lat="43.0341133" lon="13.4312417"><ele>465.33333333333337</ele><time>2026-03-22T12:04:55.902Z</time></trkpt><trkpt lat="43.0341733" lon="13.4313467"><ele>461.6666666666667</ele><time>2026-03-22T12:04:57.902Z</time></trkpt><trkpt lat="43.034225" lon="13.4314183"><ele>458.0</ele><time>2026-03-22T12:04:59.902Z</time></trkpt><trkpt lat="43.034285" lon="13.4314467"><ele>454.33333333333337</ele><time>2026-03-22T12:05:03.901Z</time></trkpt><trkpt lat="43.03434" lon="13.4315167"><ele>450.6666666666667</ele><time>2026-03-22T12:05:07.901Z</time></trkpt><trkpt lat="43.0343567" lon="13.431625"><ele>447.0</ele><time>2026-03-22T12:05:09.901Z</time></trkpt><trkpt lat="43.0343683" lon="13.43171"><ele>447.0</ele><time>2026-03-22T12:05:10.902Z</time></trkpt><trkpt lat="43.0343733" lon="13.4318217"><ele>447.0</ele><time>2026-03-22T12:05:11.901Z</time></trkpt><trkpt lat="43.0343933" lon="13.431955"><ele>447.0</ele><time>2026-03-22T12:05:12.901Z</time></trkpt><trkpt lat="43.03441" lon="13.432075"><ele>447.0</ele><time>2026-03-22T12:05:13.901Z</time></trkpt><trkpt lat="43.03444" lon="13.4321817"><ele>447.0</ele><time>2026-03-22T12:05:14.902Z</time></trkpt><trkpt lat="43.0344983" lon="13.4322617"><ele>447.0</ele><time>2026-03-22T12:05:15.901Z</time></trkpt><trkpt lat="43.0345733" lon="13.4323083"><ele>446.40000000000003</ele><time>2026-03-22T12:05:16.901Z</time></trkpt><trkpt lat="43.0346733" lon="13.4323417"><ele>445.80000000000007</ele><time>2026-03-22T12:05:17.901Z</time></trkpt><trkpt lat="43.034785" lon="13.4323867"><ele>445.2</ele><time>2026-03-22T12:05:18.902Z</time></trkpt><trkpt lat="43.034895" lon="13.432455"><ele>444.6</ele><time>2026-03-22T12:05:19.902Z</time></trkpt><trkpt lat="43.034995" lon="13.432515"><ele>444.0</ele><time>2026-03-22T12:05:20.901Z</time></trkpt><trkpt lat="43.0350933" lon="13.4325917"><ele>444.0</ele><time>2026-03-22T12:05:21.902Z</time></trkpt><trkpt lat="43.0351867" lon="13.4326933"><ele>444.0</ele><time>2026-03-22T12:05:22.901Z</time></trkpt><trkpt lat="43.03527" lon="13.4327967"><ele>444.0</ele><time>2026-03-22T12:05:23.902Z</time></trkpt><trkpt lat="43.0353583" lon="13.4328883"><ele>444.0</ele><time>2026-03-22T12:05:24.902Z</time></trkpt><trkpt lat="43.0354483" lon="13.4329833"><ele>442.4</ele><time>2026-03-22T12:05:25.902Z</time></trkpt><trkpt lat="43.03555" lon="13.4330717"><ele>440.79999999999995</ele><time>2026-03-22T12:05:26.902Z</time></trkpt><trkpt lat="43.035645" lon="13.4331367"><ele>439.20000000000005</ele><time>2026-03-22T12:05:27.902Z</time></trkpt><trkpt lat="43.0357333" lon="13.4332"><ele>437.6</ele><time>2026-03-22T12:05:28.902Z</time></trkpt><trkpt lat="43.0357983" lon="13.4332683"><ele>436.0</ele><time>2026-03-22T12:05:29.901Z</time></trkpt><trkpt lat="43.035845" lon="13.4333333"><ele>436.0</ele><time>2026-03-22T12:05:30.901Z</time></trkpt><trkpt lat="43.0358833" lon="13.433405"><ele>436.0</ele><time>2026-03-22T12:05:31.901Z</time></trkpt><trkpt lat="43.0359217" lon="13.4335117"><ele>436.0</ele><time>2026-03-22T12:05:32.901Z</time></trkpt><trkpt lat="43.03595" lon="13.4336533"><ele>436.0</ele><time>2026-03-22T12:05:33.902Z</time></trkpt><trkpt lat="43.0359583" lon="13.4338417"><ele>436.0</ele><time>2026-03-22T12:05:34.902Z</time></trkpt><trkpt lat="43.03595" lon="13.43401"><ele>435.75</ele><time>2026-03-22T12:05:35.902Z</time></trkpt><trkpt lat="43.0359817" lon="13.4341717"><ele>435.5</ele><time>2026-03-22T12:05:36.902Z</time></trkpt><trkpt lat="43.0360267" lon="13.43432"><ele>435.25</ele><time>2026-03-22T12:05:37.901Z</time></trkpt><trkpt lat="43.03611" lon="13.4344667"><ele>435.0</ele><time>2026-03-22T12:05:38.902Z</time></trkpt><trkpt lat="43.0362117" lon="13.4346083"><ele>436.66666666666663</ele><time>2026-03-22T12:05:39.902Z</time></trkpt><trkpt lat="43.0363217" lon="13.43476"><ele>438.3333333333333</ele><time>2026-03-22T12:05:40.902Z</time></trkpt><trkpt lat="43.0364467" lon="13.4348967"><ele>440.0</ele><time>2026-03-22T12:05:41.902Z</time></trkpt><trkpt lat="43.0365633" lon="13.4350383"><ele>435.5</ele><time>2026-03-22T12:05:42.902Z</time></trkpt><trkpt lat="43.0366667" lon="13.43519"><ele>431.0</ele><time>2026-03-22T12:05:43.902Z</time></trkpt><trkpt lat="43.036765" lon="13.4353283"><ele>426.5</ele><time>2026-03-22T12:05:44.902Z</time></trkpt><trkpt lat="43.0368633" lon="13.4354533"><ele>422.0</ele><time>2026-03-22T12:05:45.901Z</time></trkpt><trkpt lat="43.0369533" lon="13.435565"><ele>422.0</ele><time>2026-03-22T12:05:46.901Z</time></trkpt><trkpt lat="43.0370167" lon="13.4356867"><ele>422.0</ele><time>2026-03-22T12:05:47.902Z</time></trkpt><trkpt lat="43.0370433" lon="13.435815"><ele>422.0</ele><time>2026-03-22T12:05:48.901Z</time></trkpt><trkpt lat="43.0370417" lon="13.4359567"><ele>422.0</ele><time>2026-03-22T12:05:49.902Z</time></trkpt><trkpt lat="43.03703" lon="13.43611"><ele>422.0</ele><time>2026-03-22T12:05:50.902Z</time></trkpt><trkpt lat="43.0369933" lon="13.4362767"><ele>419.3333333333333</ele><time>2026-03-22T12:05:51.902Z</time></trkpt><trkpt lat="43.036915" lon="13.436465"><ele>416.66666666666663</ele><time>2026-03-22T12:05:52.902Z</time></trkpt><trkpt lat="43.036845" lon="13.4366583"><ele>414.0</ele><time>2026-03-22T12:05:53.902Z</time></trkpt><trkpt lat="43.036785" lon="13.43686"><ele>414.0</ele><time>2026-03-22T12:05:54.901Z</time></trkpt><trkpt lat="43.0367133" lon="13.437055"><ele>414.0</ele><time>2026-03-22T12:05:55.901Z</time></trkpt><trkpt lat="43.0366667" lon="13.4372517"><ele>414.0</ele><time>2026-03-22T12:05:56.901Z</time></trkpt><trkpt lat="43.0366183" lon="13.43744"><ele>415.0</ele><time>2026-03-22T12:05:57.902Z</time></trkpt><trkpt lat="43.0365783" lon="13.4376167"><ele>416.0</ele><time>2026-03-22T12:05:58.902Z</time></trkpt><trkpt lat="43.0365583" lon="13.43782"><ele>417.0</ele><time>2026-03-22T12:05:59.901Z</time></trkpt><trkpt lat="43.0365333" lon="13.4380117"><ele>418.0</ele><time>2026-03-22T12:06:00.902Z</time></trkpt><trkpt lat="43.03651" lon="13.4381983"><ele>418.0</ele><time>2026-03-22T12:06:01.902Z</time></trkpt><trkpt lat="43.0364933" lon="13.438385"><ele>418.0</ele><time>2026-03-22T12:06:02.902Z</time></trkpt><trkpt lat="43.036475" lon="13.4385667"><ele>418.0</ele><time>2026-03-22T12:06:03.902Z</time></trkpt><trkpt lat="43.036465" lon="13.4387533"><ele>418.0</ele><time>2026-03-22T12:06:04.902Z</time></trkpt><trkpt lat="43.0364833" lon="13.4389117"><ele>419.59999999999997</ele><time>2026-03-22T12:06:05.902Z</time></trkpt><trkpt lat="43.0364983" lon="13.4390567"><ele>421.2</ele><time>2026-03-22T12:06:06.901Z</time></trkpt><trkpt lat="43.0365167" lon="13.439195"><ele>422.8</ele><time>2026-03-22T12:06:07.902Z</time></trkpt><trkpt lat="43.036565" lon="13.4393217"><ele>424.4</ele><time>2026-03-22T12:06:08.902Z</time></trkpt><trkpt lat="43.0366017" lon="13.4394383"><ele>426.0</ele><time>2026-03-22T12:06:09.902Z</time></trkpt><trkpt lat="43.0366367" lon="13.4395267"><ele>425.3333333333333</ele><time>2026-03-22T12:06:10.902Z</time></trkpt><trkpt lat="43.03669" lon="13.439595"><ele>424.66666666666663</ele><time>2026-03-22T12:06:11.902Z</time></trkpt><trkpt lat="43.03675" lon="13.4396467"><ele>424.0</ele><time>2026-03-22T12:06:12.901Z</time></trkpt><trkpt lat="43.0368217" lon="13.439665"><ele>423.3333333333333</ele><time>2026-03-22T12:06:13.902Z</time></trkpt><trkpt lat="43.036895" lon="13.4396267"><ele>422.66666666666663</ele><time>2026-03-22T12:06:14.901Z</time></trkpt><trkpt lat="43.0369667" lon="13.4395483"><ele>422.0</ele><time>2026-03-22T12:06:15.901Z</time></trkpt><trkpt lat="43.0370417" lon="13.4394417"><ele>416.5</ele><time>2026-03-22T12:06:16.902Z</time></trkpt><trkpt lat="43.0371283" lon="13.4393017"><ele>411.0</ele><time>2026-03-22T12:06:17.901Z</time></trkpt><trkpt lat="43.0372167" lon="13.4391883"><ele>405.5</ele><time>2026-03-22T12:06:18.901Z</time></trkpt><trkpt lat="43.0373017" lon="13.4390817"><ele>400.0</ele><time>2026-03-22T12:06:19.901Z</time></trkpt><trkpt lat="43.03739" lon="13.4390033"><ele>396.4</ele><time>2026-03-22T12:06:20.902Z</time></trkpt><trkpt lat="43.03747" lon="13.43897"><ele>392.8</ele><time>2026-03-22T12:06:21.901Z</time></trkpt><trkpt lat="43.0375583" lon="13.43897"><ele>389.20000000000005</ele><time>2026-03-22T12:06:22.902Z</time></trkpt><trkpt lat="43.0376683" lon="13.4390133"><ele>385.6</ele><time>2026-03-22T12:06:23.902Z</time></trkpt><trkpt lat="43.037785" lon="13.43909"><ele>382.0</ele><time>2026-03-22T12:06:24.902Z</time></trkpt><trkpt lat="43.0379" lon="13.4392"><ele>382.0</ele><time>2026-03-22T12:06:25.902Z</time></trkpt><trkpt lat="43.0380167" lon="13.4393667"><ele>382.0</ele><time>2026-03-22T12:06:26.901Z</time></trkpt><trkpt lat="43.0381333" lon="13.4395217"><ele>382.0</ele><time>2026-03-22T12:06:27.901Z</time></trkpt><trkpt lat="43.0382567" lon="13.4396667"><ele>378.5</ele><time>2026-03-22T12:06:28.902Z</time></trkpt><trkpt lat="43.0383867" lon="13.4398017"><ele>375.0</ele><time>2026-03-22T12:06:29.901Z</time></trkpt><trkpt lat="43.0384717" lon="13.4399567"><ele>371.5</ele><time>2026-03-22T12:06:30.902Z</time></trkpt><trkpt lat="43.038585" lon="13.440075"><ele>368.0</ele><time>2026-03-22T12:06:31.901Z</time></trkpt><trkpt lat="43.0386833" lon="13.4402217"><ele>368.0</ele><time>2026-03-22T12:06:32.902Z</time></trkpt><trkpt lat="43.0387667" lon="13.4403633"><ele>368.0</ele><time>2026-03-22T12:06:33.902Z</time></trkpt><trkpt lat="43.0388733" lon="13.4404467"><ele>368.0</ele><time>2026-03-22T12:06:34.901Z</time></trkpt><trkpt lat="43.0389683" lon="13.4405267"><ele>368.0</ele><time>2026-03-22T12:06:35.901Z</time></trkpt><trkpt lat="43.0390433" lon="13.44059"><ele>367.33333333333337</ele><time>2026-03-22T12:06:36.902Z</time></trkpt><trkpt lat="43.039105" lon="13.4406217"><ele>366.6666666666667</ele><time>2026-03-22T12:06:37.901Z</time></trkpt><trkpt lat="43.0391867" lon="13.440655"><ele>366.0</ele><time>2026-03-22T12:06:38.902Z</time></trkpt><trkpt lat="43.0392567" lon="13.4406483"><ele>365.3333333333333</ele><time>2026-03-22T12:06:39.901Z</time></trkpt><trkpt lat="43.0393217" lon="13.44062"><ele>364.66666666666663</ele><time>2026-03-22T12:06:40.902Z</time></trkpt><trkpt lat="43.0393833" lon="13.4405"><ele>364.0</ele><time>2026-03-22T12:06:41.902Z</time></trkpt><trkpt lat="43.0394467" lon="13.440345"><ele>359.3333333333333</ele><time>2026-03-22T12:06:42.902Z</time></trkpt><trkpt lat="43.0395183" lon="13.4401633"><ele>354.6666666666667</ele><time>2026-03-22T12:06:43.902Z</time></trkpt><trkpt lat="43.0396" lon="13.4399667"><ele>350.0</ele><time>2026-03-22T12:06:44.902Z</time></trkpt><trkpt lat="43.0396867" lon="13.439795"><ele>350.0</ele><time>2026-03-22T12:06:45.902Z</time></trkpt><trkpt lat="43.0397633" lon="13.439635"><ele>350.0</ele><time>2026-03-22T12:06:46.902Z</time></trkpt><trkpt lat="43.0398333" lon="13.4395033"><ele>350.0</ele><time>2026-03-22T12:06:47.902Z</time></trkpt><trkpt lat="43.0399033" lon="13.4394117"><ele>350.0</ele><time>2026-03-22T12:06:48.902Z</time></trkpt><trkpt lat="43.0399817" lon="13.4393533"><ele>350.0</ele><time>2026-03-22T12:06:49.901Z</time></trkpt><trkpt lat="43.04008" lon="13.439325"><ele>347.2</ele><time>2026-03-22T12:06:50.902Z</time></trkpt><trkpt lat="43.04018" lon="13.439335"><ele>344.4</ele><time>2026-03-22T12:06:51.902Z</time></trkpt><trkpt lat="43.0402933" lon="13.4393783"><ele>341.6</ele><time>2026-03-22T12:06:52.902Z</time></trkpt><trkpt lat="43.0403883" lon="13.4394667"><ele>338.8</ele><time>2026-03-22T12:06:53.902Z</time></trkpt><trkpt lat="43.040465" lon="13.43957"><ele>336.0</ele><time>2026-03-22T12:06:54.901Z</time></trkpt><trkpt lat="43.0405267" lon="13.4397267"><ele>335.25</ele><time>2026-03-22T12:06:55.902Z</time></trkpt><trkpt lat="43.0405667" lon="13.4399233"><ele>334.5</ele><time>2026-03-22T12:06:56.901Z</time></trkpt><trkpt lat="43.0406033" lon="13.440115"><ele>333.75</ele><time>2026-03-22T12:06:57.901Z</time></trkpt><trkpt lat="43.0406417" lon="13.44031"><ele>333.0</ele><time>2026-03-22T12:06:58.902Z</time></trkpt><trkpt lat="43.0407" lon="13.4405"><ele>335.75</ele><time>2026-03-22T12:06:59.902Z</time></trkpt><trkpt lat="43.0407683" lon="13.4406817"><ele>338.5</ele><time>2026-03-22T12:07:00.902Z</time></trkpt><trkpt lat="43.040835" lon="13.4408533"><ele>341.25</ele><time>2026-03-22T12:07:01.901Z</time></trkpt><trkpt lat="43.0409017" lon="13.4410333"><ele>344.0</ele><time>2026-03-22T12:07:02.902Z</time></trkpt><trkpt lat="43.04097" lon="13.4412"><ele>340.5</ele><time>2026-03-22T12:07:03.902Z</time></trkpt><trkpt lat="43.0410383" lon="13.44138"><ele>337.0</ele><time>2026-03-22T12:07:04.901Z</time></trkpt><trkpt lat="43.0410933" lon="13.4415583"><ele>333.5</ele><time>2026-03-22T12:07:05.901Z</time></trkpt><trkpt lat="43.04114" lon="13.4417367"><ele>330.0</ele><time>2026-03-22T12:07:06.901Z</time></trkpt><trkpt lat="43.0411917" lon="13.4419067"><ele>330.0</ele><time>2026-03-22T12:07:07.901Z</time></trkpt><trkpt lat="43.0412467" lon="13.442045"><ele>330.0</ele><time>2026-03-22T12:07:08.902Z</time></trkpt><trkpt lat="43.0413083" lon="13.44216"><ele>330.0</ele><time>2026-03-22T12:07:09.902Z</time></trkpt><trkpt lat="43.0413717" lon="13.4422317"><ele>330.0</ele><time>2026-03-22T12:07:10.902Z</time></trkpt><trkpt lat="43.0414317" lon="13.4422933"><ele>330.0</ele><time>2026-03-22T12:07:11.902Z</time></trkpt><trkpt lat="43.0414967" lon="13.4423333"><ele>330.0</ele><time>2026-03-22T12:07:13.902Z</time></trkpt><trkpt lat="43.0415433" lon="13.442185"><ele>330.0</ele><time>2026-03-22T12:07:19.902Z</time></trkpt><trkpt lat="43.0415967" lon="13.44203"><ele>330.0</ele><time>2026-03-22T12:07:21.901Z</time></trkpt><trkpt lat="43.0416333" lon="13.44192"><ele>330.0</ele><time>2026-03-22T12:07:22.902Z</time></trkpt><trkpt lat="43.041675" lon="13.4417767"><ele>330.0</ele><time>2026-03-22T12:07:23.901Z</time></trkpt><trkpt lat="43.04172" lon="13.4416233"><ele>330.0</ele><time>2026-03-22T12:07:24.902Z</time></trkpt><trkpt lat="43.0417583" lon="13.441465"><ele>325.2</ele><time>2026-03-22T12:07:25.902Z</time></trkpt><trkpt lat="43.0417983" lon="13.441335"><ele>320.4</ele><time>2026-03-22T12:07:26.902Z</time></trkpt><trkpt lat="43.0418367" lon="13.4412233"><ele>315.6</ele><time>2026-03-22T12:07:27.902Z</time></trkpt><trkpt lat="43.0418733" lon="13.44113"><ele>310.8</ele><time>2026-03-22T12:07:28.902Z</time></trkpt><trkpt lat="43.04193" lon="13.44107"><ele>306.0</ele><time>2026-03-22T12:07:29.902Z</time></trkpt><trkpt lat="43.0420367" lon="13.44105"><ele>306.0</ele><time>2026-03-22T12:07:31.902Z</time></trkpt><trkpt lat="43.042095" lon="13.4411133"><ele>306.0</ele><time>2026-03-22T12:07:32.902Z</time></trkpt><trkpt lat="43.0421433" lon="13.4411983"><ele>306.0</ele><time>2026-03-22T12:07:33.902Z</time></trkpt><trkpt lat="43.0421733" lon="13.4413367"><ele>306.0</ele><time>2026-03-22T12:07:34.902Z</time></trkpt><trkpt lat="43.0422033" lon="13.4415333"><ele>306.0</ele><time>2026-03-22T12:07:35.901Z</time></trkpt><trkpt lat="43.0422383" lon="13.44176"><ele>306.0</ele><time>2026-03-22T12:07:36.901Z</time></trkpt><trkpt lat="43.04227" lon="13.4419667"><ele>306.0</ele><time>2026-03-22T12:07:37.902Z</time></trkpt><trkpt lat="43.042305" lon="13.4421533"><ele>306.0</ele><time>2026-03-22T12:07:38.902Z</time></trkpt><trkpt lat="43.042355" lon="13.442325"><ele>306.0</ele><time>2026-03-22T12:07:39.902Z</time></trkpt><trkpt lat="43.0424067" lon="13.44249"><ele>308.25</ele><time>2026-03-22T12:07:40.901Z</time></trkpt><trkpt lat="43.0424417" lon="13.44265"><ele>310.5</ele><time>2026-03-22T12:07:41.902Z</time></trkpt><trkpt lat="43.0424917" lon="13.44281"><ele>312.75</ele><time>2026-03-22T12:07:42.902Z</time></trkpt><trkpt lat="43.04255" lon="13.442965"><ele>315.0</ele><time>2026-03-22T12:07:43.902Z</time></trkpt><trkpt lat="43.0426083" lon="13.44311"><ele>310.0</ele><time>2026-03-22T12:07:44.902Z</time></trkpt><trkpt lat="43.0426633" lon="13.44324"><ele>305.0</ele><time>2026-03-22T12:07:45.902Z</time></trkpt><trkpt lat="43.042705" lon="13.44337"><ele>300.0</ele><time>2026-03-22T12:07:46.901Z</time></trkpt><trkpt lat="43.042735" lon="13.4434817"><ele>295.0</ele><time>2026-03-22T12:07:47.902Z</time></trkpt><trkpt lat="43.04276" lon="13.4435967"><ele>290.0</ele><time>2026-03-22T12:07:48.902Z</time></trkpt><trkpt lat="43.0427883" lon="13.4437167"><ele>289.6</ele><time>2026-03-22T12:07:49.902Z</time></trkpt><trkpt lat="43.0428233" lon="13.4438267"><ele>289.2</ele><time>2026-03-22T12:07:50.902Z</time></trkpt><trkpt lat="43.042855" lon="13.443945"><ele>288.8</ele><time>2026-03-22T12:07:51.901Z</time></trkpt><trkpt lat="43.0428917" lon="13.4440683"><ele>288.4</ele><time>2026-03-22T12:07:52.902Z</time></trkpt><trkpt lat="43.0429283" lon="13.4442067"><ele>288.0</ele><time>2026-03-22T12:07:53.902Z</time></trkpt><trkpt lat="43.0429617" lon="13.4443683"><ele>288.0</ele><time>2026-03-22T12:07:54.901Z</time></trkpt><trkpt lat="43.0429833" lon="13.4445283"><ele>288.0</ele><time>2026-03-22T12:07:55.901Z</time></trkpt><trkpt lat="43.0429817" lon="13.4446817"><ele>288.0</ele><time>2026-03-22T12:07:56.902Z</time></trkpt><trkpt lat="43.042995" lon="13.44483"><ele>288.0</ele><time>2026-03-22T12:07:57.901Z</time></trkpt><trkpt lat="43.0430333" lon="13.4449583"><ele>288.0</ele><time>2026-03-22T12:07:58.902Z</time></trkpt><trkpt lat="43.0430967" lon="13.4450767"><ele>287.0</ele><time>2026-03-22T12:07:59.902Z</time></trkpt><trkpt lat="43.0431817" lon="13.4451617"><ele>286.0</ele><time>2026-03-22T12:08:00.902Z</time></trkpt><trkpt lat="43.0432867" lon="13.4452283"><ele>285.0</ele><time>2026-03-22T12:08:01.902Z</time></trkpt><trkpt lat="43.04339" lon="13.4453"><ele>284.0</ele><time>2026-03-22T12:08:02.902Z</time></trkpt><trkpt lat="43.0434867" lon="13.44539"><ele>282.75</ele><time>2026-03-22T12:08:03.902Z</time></trkpt><trkpt lat="43.043565" lon="13.4455117"><ele>281.5</ele><time>2026-03-22T12:08:04.901Z</time></trkpt><trkpt lat="43.0436433" lon="13.4456567"><ele>280.25</ele><time>2026-03-22T12:08:05.902Z</time></trkpt><trkpt lat="43.0437083" lon="13.44582"><ele>279.0</ele><time>2026-03-22T12:08:06.901Z</time></trkpt><trkpt lat="43.0437733" lon="13.4459917"><ele>279.0</ele><time>2026-03-22T12:08:07.901Z</time></trkpt><trkpt lat="43.0438367" lon="13.4461617"><ele>279.0</ele><time>2026-03-22T12:08:08.902Z</time></trkpt><trkpt lat="43.04388" lon="13.446305"><ele>279.0</ele><time>2026-03-22T12:08:09.902Z</time></trkpt><trkpt lat="43.0439383" lon="13.44642"><ele>279.0</ele><time>2026-03-22T12:08:10.902Z</time></trkpt><trkpt lat="43.0439883" lon="13.4465133"><ele>279.0</ele><time>2026-03-22T12:08:11.902Z</time></trkpt><trkpt lat="43.0440483" lon="13.44659"><ele>279.8</ele><time>2026-03-22T12:08:12.902Z</time></trkpt><trkpt lat="43.0440917" lon="13.4466533"><ele>280.59999999999997</ele><time>2026-03-22T12:08:15.902Z</time></trkpt><trkpt lat="43.0442083" lon="13.4466533"><ele>281.4</ele><time>2026-03-22T12:08:17.902Z</time></trkpt><trkpt lat="43.0442867" lon="13.44664"><ele>282.2</ele><time>2026-03-22T12:08:18.902Z</time></trkpt><trkpt lat="43.04439" lon="13.44664"><ele>283.0</ele><time>2026-03-22T12:08:19.902Z</time></trkpt><trkpt lat="43.04451" lon="13.4466367"><ele>283.0</ele><time>2026-03-22T12:08:20.902Z</time></trkpt><trkpt lat="43.0446417" lon="13.4466483"><ele>283.0</ele><time>2026-03-22T12:08:21.901Z</time></trkpt><trkpt lat="43.0447833" lon="13.44668"><ele>283.0</ele><time>2026-03-22T12:08:22.901Z</time></trkpt><trkpt lat="43.0449267" lon="13.4467367"><ele>283.0</ele><time>2026-03-22T12:08:23.901Z</time></trkpt><trkpt lat="43.0450533" lon="13.4468067"><ele>281.5</ele><time>2026-03-22T12:08:24.902Z</time></trkpt><trkpt lat="43.0451817" lon="13.4469"><ele>280.0</ele><time>2026-03-22T12:08:25.901Z</time></trkpt><trkpt lat="43.0453017" lon="13.4470233"><ele>278.5</ele><time>2026-03-22T12:08:26.902Z</time></trkpt><trkpt lat="43.0453967" lon="13.4471733"><ele>277.0</ele><time>2026-03-22T12:08:27.902Z</time></trkpt><trkpt lat="43.045475" lon="13.4473567"><ele>277.0</ele><time>2026-03-22T12:08:28.901Z</time></trkpt><trkpt lat="43.04553" lon="13.447545"><ele>277.0</ele><time>2026-03-22T12:08:29.901Z</time></trkpt><trkpt lat="43.0455767" lon="13.4477317"><ele>277.0</ele><time>2026-03-22T12:08:30.901Z</time></trkpt><trkpt lat="43.045595" lon="13.4479317"><ele>277.0</ele><time>2026-03-22T12:08:31.901Z</time></trkpt><trkpt lat="43.0456117" lon="13.4481367"><ele>276.0</ele><time>2026-03-22T12:08:32.902Z</time></trkpt><trkpt lat="43.045605" lon="13.4483417"><ele>275.0</ele><time>2026-03-22T12:08:33.902Z</time></trkpt><trkpt lat="43.0456083" lon="13.4485583"><ele>274.0</ele><time>2026-03-22T12:08:34.901Z</time></trkpt><trkpt lat="43.0455817" lon="13.4487833"><ele>273.3333333333333</ele><time>2026-03-22T12:08:35.902Z</time></trkpt><trkpt lat="43.0455533" lon="13.4490067"><ele>272.6666666666667</ele><time>2026-03-22T12:08:36.902Z</time></trkpt><trkpt lat="43.0455483" lon="13.4492317"><ele>272.0</ele><time>2026-03-22T12:08:37.902Z</time></trkpt><trkpt lat="43.0455433" lon="13.4494633"><ele>269.6666666666667</ele><time>2026-03-22T12:08:38.902Z</time></trkpt><trkpt lat="43.04554" lon="13.4497067"><ele>267.3333333333333</ele><time>2026-03-22T12:08:39.901Z</time></trkpt><trkpt lat="43.0455417" lon="13.4499583"><ele>265.0</ele><time>2026-03-22T12:08:40.902Z</time></trkpt><trkpt lat="43.045555" lon="13.4502117"><ele>265.0</ele><time>2026-03-22T12:08:41.901Z</time></trkpt><trkpt lat="43.0455517" lon="13.4504433"><ele>265.0</ele><time>2026-03-22T12:08:42.901Z</time></trkpt><trkpt lat="43.045535" lon="13.4506633"><ele>265.0</ele><time>2026-03-22T12:08:43.901Z</time></trkpt><trkpt lat="43.045535" lon="13.45086"><ele>263.8</ele><time>2026-03-22T12:08:44.901Z</time></trkpt><trkpt lat="43.0455267" lon="13.4510267"><ele>262.6</ele><time>2026-03-22T12:08:45.901Z</time></trkpt><trkpt lat="43.045525" lon="13.4511667"><ele>261.4</ele><time>2026-03-22T12:08:46.9Z</time></trkpt><trkpt lat="43.0455417" lon="13.4513067"><ele>260.2</ele><time>2026-03-22T12:08:47.901Z</time></trkpt><trkpt lat="43.045595" lon="13.4514167"><ele>259.0</ele><time>2026-03-22T12:08:48.9Z</time></trkpt><trkpt lat="43.045695" lon="13.45149"><ele>256.0</ele><time>2026-03-22T12:08:49.901Z</time></trkpt><trkpt lat="43.045825" lon="13.4515017"><ele>253.0</ele><time>2026-03-22T12:08:50.901Z</time></trkpt><trkpt lat="43.0459683" lon="13.451465"><ele>250.0</ele><time>2026-03-22T12:08:51.901Z</time></trkpt><trkpt lat="43.046095" lon="13.45141"><ele>247.0</ele><time>2026-03-22T12:08:52.901Z</time></trkpt><trkpt lat="43.0462217" lon="13.451325"><ele>247.0</ele><time>2026-03-22T12:08:53.9Z</time></trkpt><trkpt lat="43.046345" lon="13.451285"><ele>247.0</ele><time>2026-03-22T12:08:54.901Z</time></trkpt><trkpt lat="43.04648" lon="13.4512833"><ele>247.0</ele><time>2026-03-22T12:08:55.9Z</time></trkpt><trkpt lat="43.0466217" lon="13.4513567"><ele>247.0</ele><time>2026-03-22T12:08:56.9Z</time></trkpt><trkpt lat="43.0467433" lon="13.4514683"><ele>244.75</ele><time>2026-03-22T12:08:57.901Z</time></trkpt><trkpt lat="43.0468483" lon="13.4515717"><ele>242.5</ele><time>2026-03-22T12:08:58.901Z</time></trkpt><trkpt lat="43.04696" lon="13.4516533"><ele>240.25</ele><time>2026-03-22T12:08:59.9Z</time></trkpt><trkpt lat="43.0470517" lon="13.4517283"><ele>238.0</ele><time>2026-03-22T12:09:00.901Z</time></trkpt><trkpt lat="43.0471317" lon="13.4517917"><ele>237.99999999999997</ele><time>2026-03-22T12:09:01.901Z</time></trkpt><trkpt lat="43.04719" lon="13.4518517"><ele>238.0</ele><time>2026-03-22T12:09:02.901Z</time></trkpt><trkpt lat="43.0472167" lon="13.4519533"><ele>238.0</ele><time>2026-03-22T12:09:04.9Z</time></trkpt><trkpt lat="43.047145" lon="13.4519583"><ele>238.0</ele><time>2026-03-22T12:09:06.9Z</time></trkpt><trkpt lat="43.047065" lon="13.4519367"><ele>237.99999999999997</ele><time>2026-03-22T12:09:07.901Z</time></trkpt><trkpt lat="43.0469917" lon="13.4519333"><ele>238.0</ele><time>2026-03-22T12:09:08.901Z</time></trkpt><trkpt lat="43.0469217" lon="13.4519517"><ele>238.0</ele><time>2026-03-22T12:09:09.9Z</time></trkpt><trkpt lat="43.0468483" lon="13.451995"><ele>238.0</ele><time>2026-03-22T12:09:10.9Z</time></trkpt><trkpt lat="43.046765" lon="13.4520833"><ele>238.0</ele><time>2026-03-22T12:09:11.901Z</time></trkpt><trkpt lat="43.0466983" lon="13.4521867"><ele>238.0</ele><time>2026-03-22T12:09:12.901Z</time></trkpt><trkpt lat="43.0466433" lon="13.4523217"><ele>238.0</ele><time>2026-03-22T12:09:13.9Z</time></trkpt><trkpt lat="43.0466133" lon="13.4524517"><ele>237.8</ele><time>2026-03-22T12:09:14.9Z</time></trkpt><trkpt lat="43.0466083" lon="13.452585"><ele>237.60000000000002</ele><time>2026-03-22T12:09:15.9Z</time></trkpt><trkpt lat="43.046615" lon="13.452725"><ele>237.39999999999998</ele><time>2026-03-22T12:09:16.901Z</time></trkpt><trkpt lat="43.046655" lon="13.4528733"><ele>237.2</ele><time>2026-03-22T12:09:17.901Z</time></trkpt><trkpt lat="43.0467133" lon="13.4530183"><ele>237.0</ele><time>2026-03-22T12:09:18.9Z</time></trkpt><trkpt lat="43.0468017" lon="13.45315"><ele>236.75</ele><time>2026-03-22T12:09:19.901Z</time></trkpt><trkpt lat="43.0468933" lon="13.4532467"><ele>236.5</ele><time>2026-03-22T12:09:20.901Z</time></trkpt><trkpt lat="43.0470033" lon="13.4533283"><ele>236.25</ele><time>2026-03-22T12:09:21.901Z</time></trkpt><trkpt lat="43.0471183" lon="13.4533917"><ele>236.0</ele><time>2026-03-22T12:09:22.901Z</time></trkpt><trkpt lat="43.0472667" lon="13.45344"><ele>236.0</ele><time>2026-03-22T12:09:23.901Z</time></trkpt><trkpt lat="43.047425" lon="13.4534967"><ele>236.0</ele><time>2026-03-22T12:09:24.9Z</time></trkpt><trkpt lat="43.0476067" lon="13.4535667"><ele>236.0</ele><time>2026-03-22T12:09:25.901Z</time></trkpt><trkpt lat="43.0477717" lon="13.4536333"><ele>235.66666666666669</ele><time>2026-03-22T12:09:26.9Z</time></trkpt><trkpt lat="43.04793" lon="13.4537067"><ele>235.33333333333331</ele><time>2026-03-22T12:09:27.9Z</time></trkpt><trkpt lat="43.0480883" lon="13.453795"><ele>235.0</ele><time>2026-03-22T12:09:28.9Z</time></trkpt><trkpt lat="43.0482217" lon="13.4538767"><ele>233.66666666666666</ele><time>2026-03-22T12:09:29.901Z</time></trkpt><trkpt lat="43.0483667" lon="13.4539933"><ele>232.33333333333331</ele><time>2026-03-22T12:09:30.901Z</time></trkpt><trkpt lat="43.0485033" lon="13.4541017"><ele>231.0</ele><time>2026-03-22T12:09:31.901Z</time></trkpt><trkpt lat="43.0486433" lon="13.4542117"><ele>231.0</ele><time>2026-03-22T12:09:32.901Z</time></trkpt><trkpt lat="43.0487967" lon="13.454305"><ele>231.0</ele><time>2026-03-22T12:09:33.901Z</time></trkpt><trkpt lat="43.0489533" lon="13.4543933"><ele>231.0</ele><time>2026-03-22T12:09:34.901Z</time></trkpt><trkpt lat="43.049115" lon="13.4544783"><ele>230.66666666666669</ele><time>2026-03-22T12:09:35.901Z</time></trkpt><trkpt lat="43.0492683" lon="13.4545583"><ele>230.33333333333334</ele><time>2026-03-22T12:09:36.901Z</time></trkpt><trkpt lat="43.0494233" lon="13.4546383"><ele>230.0</ele><time>2026-03-22T12:09:37.9Z</time></trkpt><trkpt lat="43.0495683" lon="13.4547067"><ele>230.0</ele><time>2026-03-22T12:09:38.9Z</time></trkpt><trkpt lat="43.04971" lon="13.454795"><ele>230.0</ele><time>2026-03-22T12:09:39.901Z</time></trkpt><trkpt lat="43.0498483" lon="13.4549083"><ele>230.0</ele><time>2026-03-22T12:09:40.901Z</time></trkpt><trkpt lat="43.0499767" lon="13.4550367"><ele>230.0</ele><time>2026-03-22T12:09:41.901Z</time></trkpt><trkpt lat="43.0501" lon="13.4551717"><ele>230.0</ele><time>2026-03-22T12:09:42.9Z</time></trkpt><trkpt lat="43.0502117" lon="13.45531"><ele>230.0</ele><time>2026-03-22T12:09:43.901Z</time></trkpt><trkpt lat="43.0503083" lon="13.4554283"><ele>230.0</ele><time>2026-03-22T12:09:44.9Z</time></trkpt><trkpt lat="43.05039" lon="13.455515"><ele>230.00000000000003</ele><time>2026-03-22T12:09:45.901Z</time></trkpt><trkpt lat="43.05045" lon="13.4555683"><ele>230.0</ele><time>2026-03-22T12:09:46.901Z</time></trkpt><trkpt lat="43.0505567" lon="13.4555883"><ele>230.0</ele><time>2026-03-22T12:09:48.901Z</time></trkpt><trkpt lat="43.0506183" lon="13.45556"><ele>230.0</ele><time>2026-03-22T12:09:49.901Z</time></trkpt><trkpt lat="43.0506833" lon="13.4555233"><ele>230.00000000000003</ele><time>2026-03-22T12:09:50.9Z</time></trkpt><trkpt lat="43.0507467" lon="13.4554983"><ele>230.0</ele><time>2026-03-22T12:09:51.9Z</time></trkpt><trkpt lat="43.0508683" lon="13.4555433"><ele>230.0</ele><time>2026-03-22T12:09:53.901Z</time></trkpt><trkpt lat="43.0509467" lon="13.45562"><ele>230.0</ele><time>2026-03-22T12:09:54.9Z</time></trkpt><trkpt lat="43.0510283" lon="13.455745"><ele>230.0</ele><time>2026-03-22T12:09:55.9Z</time></trkpt><trkpt lat="43.051125" lon="13.4559033"><ele>230.0</ele><time>2026-03-22T12:09:56.9Z</time></trkpt><trkpt lat="43.0512183" lon="13.45604"><ele>230.0</ele><time>2026-03-22T12:09:57.9Z</time></trkpt><trkpt lat="43.05132" lon="13.4561933"><ele>230.0</ele><time>2026-03-22T12:09:58.9Z</time></trkpt><trkpt lat="43.051425" lon="13.456285"><ele>230.0</ele><time>2026-03-22T12:09:59.9Z</time></trkpt><trkpt lat="43.0515333" lon="13.45637"><ele>230.0</ele><time>2026-03-22T12:10:00.9Z</time></trkpt><trkpt lat="43.051665" lon="13.4564"><ele>230.0</ele><time>2026-03-22T12:10:01.901Z</time></trkpt><trkpt lat="43.05177" lon="13.4564233"><ele>230.0</ele><time>2026-03-22T12:10:02.9Z</time></trkpt><trkpt lat="43.0518617" lon="13.45646"><ele>230.0</ele><time>2026-03-22T12:10:03.901Z</time></trkpt><trkpt lat="43.05197" lon="13.4565233"><ele>230.0</ele><time>2026-03-22T12:10:04.901Z</time></trkpt><trkpt lat="43.0520667" lon="13.4566"><ele>230.0</ele><time>2026-03-22T12:10:05.901Z</time></trkpt><trkpt lat="43.052155" lon="13.4566883"><ele>230.00000000000003</ele><time>2026-03-22T12:10:06.901Z</time></trkpt><trkpt lat="43.0522333" lon="13.4567717"><ele>230.0</ele><time>2026-03-22T12:10:07.901Z</time></trkpt><trkpt lat="43.0523017" lon="13.4568317"><ele>230.0</ele><time>2026-03-22T12:10:08.901Z</time></trkpt><trkpt lat="43.05235" lon="13.45689"><ele>230.0</ele><time>2026-03-22T12:10:09.901Z</time></trkpt><trkpt lat="43.0523867" lon="13.4570133"><ele>230.00000000000003</ele><time>2026-03-22T12:10:11.901Z</time></trkpt><trkpt lat="43.052365" lon="13.4571417"><ele>230.0</ele><time>2026-03-22T12:10:13.901Z</time></trkpt><trkpt lat="43.0523367" lon="13.4572283"><ele>229.4</ele><time>2026-03-22T12:10:14.901Z</time></trkpt><trkpt lat="43.0523017" lon="13.457365"><ele>228.8</ele><time>2026-03-22T12:10:15.901Z</time></trkpt><trkpt lat="43.0522783" lon="13.4575183"><ele>228.2</ele><time>2026-03-22T12:10:16.901Z</time></trkpt><trkpt lat="43.0522667" lon="13.4576833"><ele>227.6</ele><time>2026-03-22T12:10:17.901Z</time></trkpt><trkpt lat="43.0522617" lon="13.457825"><ele>227.0</ele><time>2026-03-22T12:10:18.901Z</time></trkpt><trkpt lat="43.052245" lon="13.4579417"><ele>226.50000000000003</ele><time>2026-03-22T12:10:19.901Z</time></trkpt><trkpt lat="43.0522133" lon="13.458045"><ele>226.0</ele><time>2026-03-22T12:10:20.901Z</time></trkpt><trkpt lat="43.052175" lon="13.458135"><ele>225.5</ele><time>2026-03-22T12:10:21.901Z</time></trkpt><trkpt lat="43.052135" lon="13.4582217"><ele>225.0</ele><time>2026-03-22T12:10:22.901Z</time></trkpt><trkpt lat="43.0521" lon="13.4583017"><ele>224.50000000000003</ele><time>2026-03-22T12:10:23.901Z</time></trkpt><trkpt lat="43.052075" lon="13.4584183"><ele>224.0</ele><time>2026-03-22T12:10:24.9Z</time></trkpt><trkpt lat="43.052055" lon="13.4585317"><ele>224.00000000000003</ele><time>2026-03-22T12:10:25.901Z</time></trkpt><trkpt lat="43.05205" lon="13.4586333"><ele>224.0</ele><time>2026-03-22T12:10:26.901Z</time></trkpt><trkpt lat="43.05207" lon="13.4587583"><ele>224.0</ele><time>2026-03-22T12:10:28.901Z</time></trkpt><trkpt lat="43.0521233" lon="13.4588233"><ele>224.0</ele><time>2026-03-22T12:10:30.901Z</time></trkpt><trkpt lat="43.0522217" lon="13.4589283"><ele>224.00000000000003</ele><time>2026-03-22T12:10:32.901Z</time></trkpt><trkpt lat="43.05229" lon="13.45899"><ele>224.0</ele><time>2026-03-22T12:10:33.9Z</time></trkpt><trkpt lat="43.05237" lon="13.45906"><ele>224.16666666666669</ele><time>2026-03-22T12:10:34.9Z</time></trkpt><trkpt lat="43.05245" lon="13.459115"><ele>224.33333333333334</ele><time>2026-03-22T12:10:35.9Z</time></trkpt><trkpt lat="43.052525" lon="13.4591767"><ele>224.5</ele><time>2026-03-22T12:10:36.9Z</time></trkpt><trkpt lat="43.052595" lon="13.4592283"><ele>224.66666666666669</ele><time>2026-03-22T12:10:37.9Z</time></trkpt><trkpt lat="43.0526667" lon="13.4592733"><ele>224.83333333333334</ele><time>2026-03-22T12:10:38.9Z</time></trkpt><trkpt lat="43.0527283" lon="13.4593117"><ele>225.0</ele><time>2026-03-22T12:10:39.901Z</time></trkpt><trkpt lat="43.0528233" lon="13.4593567"><ele>224.66666666666666</ele><time>2026-03-22T12:10:41.9Z</time></trkpt><trkpt lat="43.0529367" lon="13.4594167"><ele>224.33333333333331</ele><time>2026-03-22T12:10:43.9Z</time></trkpt><trkpt lat="43.0530067" lon="13.45945"><ele>224.0</ele><time>2026-03-22T12:10:44.9Z</time></trkpt><trkpt lat="43.05308" lon="13.4594983"><ele>223.66666666666666</ele><time>2026-03-22T12:10:45.901Z</time></trkpt><trkpt lat="43.053145" lon="13.4595517"><ele>223.33333333333331</ele><time>2026-03-22T12:10:46.9Z</time></trkpt><trkpt lat="43.0532083" lon="13.4596267"><ele>223.0</ele><time>2026-03-22T12:10:47.901Z</time></trkpt><trkpt lat="43.0532717" lon="13.4596867"><ele>222.8</ele><time>2026-03-22T12:10:48.901Z</time></trkpt><trkpt lat="43.0533283" lon="13.45974"><ele>222.60000000000002</ele><time>2026-03-22T12:10:49.9Z</time></trkpt><trkpt lat="43.053435" lon="13.459835"><ele>222.39999999999998</ele><time>2026-03-22T12:10:51.901Z</time></trkpt><trkpt lat="43.0534917" lon="13.459905"><ele>222.2</ele><time>2026-03-22T12:10:52.901Z</time></trkpt><trkpt lat="43.0535817" lon="13.45999"><ele>222.0</ele><time>2026-03-22T12:10:54.9Z</time></trkpt><trkpt lat="43.0536767" lon="13.46007"><ele>222.0</ele><time>2026-03-22T12:10:56.901Z</time></trkpt><trkpt lat="43.05379" lon="13.4601533"><ele>222.0</ele><time>2026-03-22T12:10:58.901Z</time></trkpt><trkpt lat="43.0538933" lon="13.4602033"><ele>222.0</ele><time>2026-03-22T12:11:00.901Z</time></trkpt><trkpt lat="43.0540283" lon="13.4602483"><ele>222.0</ele><time>2026-03-22T12:11:02.901Z</time></trkpt><trkpt lat="43.0541083" lon="13.4602767"><ele>222.16666666666666</ele><time>2026-03-22T12:11:03.901Z</time></trkpt><trkpt lat="43.054205" lon="13.46031"><ele>222.33333333333331</ele><time>2026-03-22T12:11:04.901Z</time></trkpt><trkpt lat="43.0542983" lon="13.46035"><ele>222.5</ele><time>2026-03-22T12:11:05.901Z</time></trkpt><trkpt lat="43.0543883" lon="13.4603933"><ele>222.66666666666666</ele><time>2026-03-22T12:11:06.9Z</time></trkpt><trkpt lat="43.0544683" lon="13.46044"><ele>222.83333333333331</ele><time>2026-03-22T12:11:07.901Z</time></trkpt><trkpt lat="43.0545283" lon="13.4604717"><ele>223.0</ele><time>2026-03-22T12:11:08.901Z</time></trkpt><trkpt lat="43.0546217" lon="13.4605817"><ele>223.0</ele><time>2026-03-22T12:11:10.901Z</time></trkpt><trkpt lat="43.05469" lon="13.460665"><ele>223.0</ele><time>2026-03-22T12:11:11.901Z</time></trkpt><trkpt lat="43.0547633" lon="13.46075"><ele>223.0</ele><time>2026-03-22T12:11:12.901Z</time></trkpt><trkpt lat="43.0548333" lon="13.4608433"><ele>223.0</ele><time>2026-03-22T12:11:13.901Z</time></trkpt><trkpt lat="43.0548983" lon="13.460935"><ele>223.0</ele><time>2026-03-22T12:11:14.901Z</time></trkpt><trkpt lat="43.0549583" lon="13.461005"><ele>222.66666666666666</ele><time>2026-03-22T12:11:15.9Z</time></trkpt><trkpt lat="43.05501" lon="13.4610567"><ele>222.33333333333331</ele><time>2026-03-22T12:11:16.901Z</time></trkpt><trkpt lat="43.0551" lon="13.461135"><ele>222.0</ele><time>2026-03-22T12:11:18.901Z</time></trkpt><trkpt lat="43.05516" lon="13.4611967"><ele>221.66666666666669</ele><time>2026-03-22T12:11:20.9Z</time></trkpt><trkpt lat="43.0552217" lon="13.4612367"><ele>221.33333333333334</ele><time>2026-03-22T12:11:22.901Z</time></trkpt><trkpt lat="43.0553067" lon="13.4612867"><ele>221.0</ele><time>2026-03-22T12:11:24.901Z</time></trkpt><trkpt lat="43.05542" lon="13.4613"><ele>221.00000000000003</ele><time>2026-03-22T12:11:26.901Z</time></trkpt><trkpt lat="43.0555333" lon="13.46124"><ele>221.0</ele><time>2026-03-22T12:11:28.9Z</time></trkpt><trkpt lat="43.05558" lon="13.4611783"><ele>221.0</ele><time>2026-03-22T12:11:29.901Z</time></trkpt><trkpt lat="43.0556167" lon="13.4611083"><ele>221.0</ele><time>2026-03-22T12:11:30.901Z</time></trkpt><trkpt lat="43.05568" lon="13.4610033"><ele>221.00000000000003</ele><time>2026-03-22T12:11:32.901Z</time></trkpt><trkpt lat="43.0557583" lon="13.4609833"><ele>221.0</ele><time>2026-03-22T12:11:34.9Z</time></trkpt><trkpt lat="43.05587" lon="13.4610317"><ele>221.0</ele><time>2026-03-22T12:11:36.9Z</time></trkpt><trkpt lat="43.0559483" lon="13.46107"><ele>221.0</ele><time>2026-03-22T12:11:37.9Z</time></trkpt><trkpt lat="43.0560467" lon="13.4611217"><ele>221.0</ele><time>2026-03-22T12:11:38.901Z</time></trkpt><trkpt lat="43.05616" lon="13.4611833"><ele>221.0</ele><time>2026-03-22T12:11:39.9Z</time></trkpt><trkpt lat="43.0563" lon="13.461225"><ele>221.0</ele><time>2026-03-22T12:11:40.901Z</time></trkpt><trkpt lat="43.05643" lon="13.461265"><ele>221.00000000000003</ele><time>2026-03-22T12:11:41.901Z</time></trkpt><trkpt lat="43.0565417" lon="13.4612817"><ele>221.00000000000003</ele><time>2026-03-22T12:11:42.901Z</time></trkpt><trkpt lat="43.0566367" lon="13.4612983"><ele>221.0</ele><time>2026-03-22T12:11:43.901Z</time></trkpt><trkpt lat="43.0567367" lon="13.46132"><ele>221.0</ele><time>2026-03-22T12:11:44.9Z</time></trkpt><trkpt lat="43.0568183" lon="13.4613417"><ele>220.8</ele><time>2026-03-22T12:11:45.9Z</time></trkpt><trkpt lat="43.056895" lon="13.4613417"><ele>220.60000000000002</ele><time>2026-03-22T12:11:46.9Z</time></trkpt><trkpt lat="43.0569883" lon="13.4612883"><ele>220.4</ele><time>2026-03-22T12:11:48.9Z</time></trkpt><trkpt lat="43.0570167" lon="13.4611817"><ele>220.2</ele><time>2026-03-22T12:11:50.901Z</time></trkpt><trkpt lat="43.057045" lon="13.46107"><ele>220.0</ele><time>2026-03-22T12:11:52.901Z</time></trkpt><trkpt lat="43.057135" lon="13.4609817"><ele>220.0</ele><time>2026-03-22T12:11:54.901Z</time></trkpt><trkpt lat="43.05725" lon="13.460945"><ele>220.0</ele><time>2026-03-22T12:11:56.901Z</time></trkpt><trkpt lat="43.0573317" lon="13.4609333"><ele>220.0</ele><time>2026-03-22T12:11:57.9Z</time></trkpt><trkpt lat="43.0574383" lon="13.4609083"><ele>220.0</ele><time>2026-03-22T12:11:58.901Z</time></trkpt><trkpt lat="43.0575617" lon="13.4608717"><ele>220.0</ele><time>2026-03-22T12:11:59.901Z</time></trkpt><trkpt lat="43.0576717" lon="13.460845"><ele>219.6</ele><time>2026-03-22T12:12:00.901Z</time></trkpt><trkpt lat="43.0577767" lon="13.460825"><ele>219.2</ele><time>2026-03-22T12:12:01.901Z</time></trkpt><trkpt lat="43.05789" lon="13.460815"><ele>218.8</ele><time>2026-03-22T12:12:02.901Z</time></trkpt><trkpt lat="43.0579933" lon="13.4608133"><ele>218.4</ele><time>2026-03-22T12:12:03.901Z</time></trkpt><trkpt lat="43.0580983" lon="13.4608167"><ele>218.0</ele><time>2026-03-22T12:12:04.901Z</time></trkpt><trkpt lat="43.0582033" lon="13.4608167"><ele>218.4</ele><time>2026-03-22T12:12:05.901Z</time></trkpt><trkpt lat="43.05831" lon="13.4608383"><ele>218.8</ele><time>2026-03-22T12:12:06.901Z</time></trkpt><trkpt lat="43.058415" lon="13.46087"><ele>219.2</ele><time>2026-03-22T12:12:07.901Z</time></trkpt><trkpt lat="43.05851" lon="13.4609117"><ele>219.6</ele><time>2026-03-22T12:12:08.901Z</time></trkpt><trkpt lat="43.0586" lon="13.4609167"><ele>220.0</ele><time>2026-03-22T12:12:09.9Z</time></trkpt><trkpt lat="43.0586667" lon="13.4609233"><ele>219.99999999999997</ele><time>2026-03-22T12:12:10.901Z</time></trkpt><trkpt lat="43.058745" lon="13.4609"><ele>220.0</ele><time>2026-03-22T12:12:11.9Z</time></trkpt><trkpt lat="43.0588133" lon="13.4608833"><ele>220.0</ele><time>2026-03-22T12:12:12.9Z</time></trkpt><trkpt lat="43.0588833" lon="13.4608567"><ele>220.0</ele><time>2026-03-22T12:12:14.901Z</time></trkpt><trkpt lat="43.05894" lon="13.4609017"><ele>220.0</ele><time>2026-03-22T12:12:18.901Z</time></trkpt><trkpt lat="43.0589967" lon="13.4609533"><ele>219.99999999999997</ele><time>2026-03-22T12:12:22.901Z</time></trkpt><trkpt lat="43.0590667" lon="13.4609967"><ele>220.0</ele><time>2026-03-22T12:12:25.901Z</time></trkpt><trkpt lat="43.0591467" lon="13.4610133"><ele>219.99999999999997</ele><time>2026-03-22T12:12:28.9Z</time></trkpt><trkpt lat="43.0592433" lon="13.461045"><ele>220.0</ele><time>2026-03-22T12:12:31.901Z</time></trkpt><trkpt lat="43.059325" lon="13.4610733"><ele>220.0</ele><time>2026-03-22T12:12:33.901Z</time></trkpt><trkpt lat="43.05942" lon="13.4610983"><ele>220.0</ele><time>2026-03-22T12:12:36.9Z</time></trkpt><trkpt lat="43.059485" lon="13.4611367"><ele>219.99999999999997</ele><time>2026-03-22T12:12:38.901Z</time></trkpt><trkpt lat="43.0595617" lon="13.4611817"><ele>220.0</ele><time>2026-03-22T12:12:41.901Z</time></trkpt><trkpt lat="43.0596267" lon="13.46123"><ele>219.99999999999997</ele><time>2026-03-22T12:12:45.901Z</time></trkpt><trkpt lat="43.0597" lon="13.4612833"><ele>220.0</ele><time>2026-03-22T12:12:59.901Z</time></trkpt><trkpt lat="43.059665" lon="13.4612067"><ele>220.0</ele><time>2026-03-22T12:14:22.9Z</time></trkpt><trkpt lat="43.0596017" lon="13.4611383"><ele>220.0</ele><time>2026-03-22T12:14:27.901Z</time></trkpt><trkpt lat="43.0595367" lon="13.4611167"><ele>220.0</ele><time>2026-03-22T12:14:29.901Z</time></trkpt><trkpt lat="43.0594733" lon="13.4610867"><ele>219.99999999999997</ele><time>2026-03-22T12:14:31.9Z</time></trkpt><trkpt lat="43.0593933" lon="13.46106"><ele>220.0</ele><time>2026-03-22T12:14:34.901Z</time></trkpt><trkpt lat="43.05946" lon="13.4610983"><ele>219.99999999999997</ele><time>2026-03-22T12:14:48.9Z</time></trkpt><trkpt lat="43.05953" lon="13.4611467"><ele>220.0</ele><time>2026-03-22T12:14:52.9Z</time></trkpt><trkpt lat="43.0596067" lon="13.4611767"><ele>220.0</ele><time>2026-03-22T12:14:56.9Z</time></trkpt><trkpt lat="43.0596617" lon="13.4612367"><ele>220.0</ele><time>2026-03-22T12:15:00.9Z</time></trkpt><trkpt lat="43.0597167" lon="13.4612867"><ele>220.0</ele><time>2026-03-22T12:15:03.901Z</time></trkpt><trkpt lat="43.059765" lon="13.46136"><ele>219.99999999999997</ele><time>2026-03-22T12:15:38.9Z</time></trkpt><trkpt lat="43.0598117" lon="13.4614367"><ele>220.0</ele><time>2026-03-22T12:15:42.901Z</time></trkpt><trkpt lat="43.0598733" lon="13.4614917"><ele>219.7142857142857</ele><time>2026-03-22T12:15:45.9Z</time></trkpt><trkpt lat="43.059955" lon="13.4614967"><ele>219.42857142857142</ele><time>2026-03-22T12:15:48.901Z</time></trkpt><trkpt lat="43.06003" lon="13.4614983"><ele>219.14285714285714</ele><time>2026-03-22T12:15:51.901Z</time></trkpt><trkpt lat="43.060095" lon="13.46149"><ele>218.85714285714283</ele><time>2026-03-22T12:15:55.9Z</time></trkpt><trkpt lat="43.0601667" lon="13.461455"><ele>218.57142857142858</ele><time>2026-03-22T12:16:00.9Z</time></trkpt><trkpt lat="43.06024" lon="13.46143"><ele>218.28571428571428</ele><time>2026-03-22T12:16:03.9Z</time></trkpt><trkpt lat="43.0603" lon="13.4614033"><ele>218.0</ele><time>2026-03-22T12:16:06.9Z</time></trkpt><trkpt lat="43.0603567" lon="13.4613617"><ele>218.00000000000003</ele><time>2026-03-22T12:16:11.9Z</time></trkpt><trkpt lat="43.0604383" lon="13.4613583"><ele>218.0</ele><time>2026-03-22T12:16:16.901Z</time></trkpt><trkpt lat="43.060515" lon="13.4614033"><ele>218.0</ele><time>2026-03-22T12:16:19.901Z</time></trkpt><trkpt lat="43.0605883" lon="13.4614117"><ele>218.0</ele><time>2026-03-22T12:16:21.901Z</time></trkpt><trkpt lat="43.060655" lon="13.4614283"><ele>218.00000000000003</ele><time>2026-03-22T12:16:23.901Z</time></trkpt><trkpt lat="43.060735" lon="13.4614583"><ele>218.0</ele><time>2026-03-22T12:16:25.901Z</time></trkpt><trkpt lat="43.0608583" lon="13.461485"><ele>217.8</ele><time>2026-03-22T12:16:27.901Z</time></trkpt><trkpt lat="43.0609667" lon="13.4615"><ele>217.60000000000002</ele><time>2026-03-22T12:16:29.901Z</time></trkpt><trkpt lat="43.0610733" lon="13.461535"><ele>217.39999999999998</ele><time>2026-03-22T12:16:31.901Z</time></trkpt><trkpt lat="43.0611883" lon="13.4616"><ele>217.2</ele><time>2026-03-22T12:16:33.901Z</time></trkpt><trkpt lat="43.0612533" lon="13.4616917"><ele>217.0</ele><time>2026-03-22T12:16:35.9Z</time></trkpt><trkpt lat="43.0612817" lon="13.4618217"><ele>216.99999999999997</ele><time>2026-03-22T12:16:37.901Z</time></trkpt><trkpt lat="43.0613" lon="13.46194"><ele>217.0</ele><time>2026-03-22T12:16:39.901Z</time></trkpt><trkpt lat="43.0613467" lon="13.46205"><ele>217.0</ele><time>2026-03-22T12:16:41.901Z</time></trkpt><trkpt lat="43.061405" lon="13.46217"><ele>217.0</ele><time>2026-03-22T12:16:43.9Z</time></trkpt><trkpt lat="43.0614717" lon="13.462205"><ele>216.99999999999997</ele><time>2026-03-22T12:16:45.901Z</time></trkpt><trkpt lat="43.0615383" lon="13.4621883"><ele>217.0</ele><time>2026-03-22T12:16:47.9Z</time></trkpt><trkpt lat="43.0616233" lon="13.4621283"><ele>217.16666666666666</ele><time>2026-03-22T12:16:49.9Z</time></trkpt><trkpt lat="43.06169" lon="13.4621067"><ele>217.33333333333331</ele><time>2026-03-22T12:16:50.901Z</time></trkpt><trkpt lat="43.061755" lon="13.4621017"><ele>217.5</ele><time>2026-03-22T12:16:51.9Z</time></trkpt><trkpt lat="43.0618233" lon="13.4621117"><ele>217.66666666666669</ele><time>2026-03-22T12:16:52.901Z</time></trkpt><trkpt lat="43.0619283" lon="13.46213"><ele>217.83333333333334</ele><time>2026-03-22T12:16:54.901Z</time></trkpt><trkpt lat="43.0620233" lon="13.4621517"><ele>218.0</ele><time>2026-03-22T12:16:56.901Z</time></trkpt><trkpt lat="43.0620867" lon="13.46216"><ele>217.57142857142858</ele><time>2026-03-22T12:16:57.9Z</time></trkpt><trkpt lat="43.062155" lon="13.4621767"><ele>217.14285714285717</ele><time>2026-03-22T12:16:58.901Z</time></trkpt><trkpt lat="43.0622317" lon="13.462205"><ele>216.71428571428572</ele><time>2026-03-22T12:16:59.9Z</time></trkpt><trkpt lat="43.0622967" lon="13.46224"><ele>216.28571428571428</ele><time>2026-03-22T12:17:00.901Z</time></trkpt><trkpt lat="43.0623517" lon="13.4622917"><ele>215.85714285714286</ele><time>2026-03-22T12:17:01.901Z</time></trkpt><trkpt lat="43.0624033" lon="13.46235"><ele>215.42857142857142</ele><time>2026-03-22T12:17:02.901Z</time></trkpt><trkpt lat="43.062455" lon="13.462405"><ele>215.0</ele><time>2026-03-22T12:17:03.9Z</time></trkpt><trkpt lat="43.0625517" lon="13.4624783"><ele>214.83333333333334</ele><time>2026-03-22T12:17:05.901Z</time></trkpt><trkpt lat="43.0626933" lon="13.4624667"><ele>214.66666666666669</ele><time>2026-03-22T12:17:07.901Z</time></trkpt><trkpt lat="43.0627633" lon="13.4624417"><ele>214.5</ele><time>2026-03-22T12:17:08.901Z</time></trkpt><trkpt lat="43.062845" lon="13.4624233"><ele>214.33333333333331</ele><time>2026-03-22T12:17:09.9Z</time></trkpt><trkpt lat="43.0629183" lon="13.4624167"><ele>214.16666666666666</ele><time>2026-03-22T12:17:10.901Z</time></trkpt><trkpt lat="43.0629817" lon="13.4624117"><ele>214.0</ele><time>2026-03-22T12:17:11.901Z</time></trkpt><trkpt lat="43.0630717" lon="13.462415"><ele>213.99999999999997</ele><time>2026-03-22T12:17:13.9Z</time></trkpt><trkpt lat="43.0631567" lon="13.46242"><ele>214.0</ele><time>2026-03-22T12:17:15.901Z</time></trkpt><trkpt lat="43.0632217" lon="13.4624533"><ele>214.0</ele><time>2026-03-22T12:17:17.901Z</time></trkpt><trkpt lat="43.0632733" lon="13.462545"><ele>214.0</ele><time>2026-03-22T12:17:38.901Z</time></trkpt><trkpt lat="43.0633217" lon="13.4626133"><ele>213.99999999999997</ele><time>2026-03-22T12:17:42.901Z</time></trkpt><trkpt lat="43.063395" lon="13.462685"><ele>214.0</ele><time>2026-03-22T12:18:21.901Z</time></trkpt><trkpt lat="43.0634633" lon="13.462715"><ele>214.33333333333331</ele><time>2026-03-22T12:18:24.9Z</time></trkpt><trkpt lat="43.063525" lon="13.4627783"><ele>214.66666666666666</ele><time>2026-03-22T12:20:18.901Z</time></trkpt><trkpt lat="43.0636083" lon="13.4628117"><ele>215.0</ele><time>2026-03-22T12:20:20.901Z</time></trkpt><trkpt lat="43.0636933" lon="13.4628417"><ele>215.33333333333331</ele><time>2026-03-22T12:20:22.901Z</time></trkpt><trkpt lat="43.0637667" lon="13.4628733"><ele>215.66666666666666</ele><time>2026-03-22T12:20:24.9Z</time></trkpt><trkpt lat="43.06383" lon="13.462885"><ele>216.0</ele><time>2026-03-22T12:20:26.899Z</time></trkpt><trkpt lat="43.0639033" lon="13.4628933"><ele>216.0</ele><time>2026-03-22T12:20:28.899Z</time></trkpt><trkpt lat="43.0639867" lon="13.4629083"><ele>216.0</ele><time>2026-03-22T12:20:31.9Z</time></trkpt><trkpt lat="43.0640583" lon="13.462905"><ele>216.0</ele><time>2026-03-22T12:20:34.9Z</time></trkpt><trkpt lat="43.0641433" lon="13.46289"><ele>216.0</ele><time>2026-03-22T12:20:37.9Z</time></trkpt><trkpt lat="43.06422" lon="13.462905"><ele>216.0</ele><time>2026-03-22T12:20:39.9Z</time></trkpt><trkpt lat="43.0642833" lon="13.462915"><ele>216.0</ele><time>2026-03-22T12:20:41.9Z</time></trkpt><trkpt lat="43.06437" lon="13.462975"><ele>215.4</ele><time>2026-03-22T12:20:44.9Z</time></trkpt><trkpt lat="43.0644517" lon="13.4630067"><ele>214.8</ele><time>2026-03-22T12:20:46.9Z</time></trkpt><trkpt lat="43.064535" lon="13.463045"><ele>214.20000000000002</ele><time>2026-03-22T12:20:48.899Z</time></trkpt><trkpt lat="43.0646333" lon="13.463085"><ele>213.60000000000002</ele><time>2026-03-22T12:20:50.9Z</time></trkpt><trkpt lat="43.0647333" lon="13.46312"><ele>213.0</ele><time>2026-03-22T12:20:52.899Z</time></trkpt><trkpt lat="43.0648183" lon="13.463155"><ele>212.99999999999997</ele><time>2026-03-22T12:20:54.899Z</time></trkpt><trkpt lat="43.0648917" lon="13.46321"><ele>213.0</ele><time>2026-03-22T12:20:57.9Z</time></trkpt><trkpt lat="43.0649633" lon="13.4632233"><ele>213.0</ele><time>2026-03-22T12:21:00.9Z</time></trkpt><trkpt lat="43.06503" lon="13.463235"><ele>213.0</ele><time>2026-03-22T12:21:03.899Z</time></trkpt><trkpt lat="43.0650983" lon="13.4632517"><ele>213.0</ele><time>2026-03-22T12:21:06.9Z</time></trkpt><trkpt lat="43.06517" lon="13.4632733"><ele>212.99999999999997</ele><time>2026-03-22T12:21:09.9Z</time></trkpt><trkpt lat="43.06524" lon="13.463285"><ele>213.0</ele><time>2026-03-22T12:21:13.9Z</time></trkpt><trkpt lat="43.0653217" lon="13.46329"><ele>213.16666666666666</ele><time>2026-03-22T12:21:16.9Z</time></trkpt><trkpt lat="43.0654117" lon="13.463285"><ele>213.33333333333331</ele><time>2026-03-22T12:21:19.899Z</time></trkpt><trkpt lat="43.0654967" lon="13.4633083"><ele>213.5</ele><time>2026-03-22T12:21:22.899Z</time></trkpt><trkpt lat="43.0655767" lon="13.463315"><ele>213.66666666666666</ele><time>2026-03-22T12:21:26.899Z</time></trkpt><trkpt lat="43.0656483" lon="13.4633033"><ele>213.83333333333331</ele><time>2026-03-22T12:21:50.9Z</time></trkpt><trkpt lat="43.0657317" lon="13.4633183"><ele>214.0</ele><time>2026-03-22T12:21:53.9Z</time></trkpt><trkpt lat="43.0658017" lon="13.4633317"><ele>213.99999999999997</ele><time>2026-03-22T12:21:55.9Z</time></trkpt><trkpt lat="43.065865" lon="13.4633417"><ele>214.0</ele><time>2026-03-22T12:21:57.9Z</time></trkpt><trkpt lat="43.0659467" lon="13.463365"><ele>214.0</ele><time>2026-03-22T12:22:01.9Z</time></trkpt><trkpt lat="43.0660267" lon="13.463375"><ele>214.0</ele><time>2026-03-22T12:22:03.9Z</time></trkpt><trkpt lat="43.06611" lon="13.4634067"><ele>213.99999999999997</ele><time>2026-03-22T12:22:05.899Z</time></trkpt><trkpt lat="43.0661783" lon="13.4634467"><ele>214.0</ele><time>2026-03-22T12:22:07.899Z</time></trkpt><trkpt lat="43.066245" lon="13.4634967"><ele>213.99999999999997</ele><time>2026-03-22T12:22:11.9Z</time></trkpt><trkpt lat="43.0663067" lon="13.4635367"><ele>214.0</ele><time>2026-03-22T12:22:15.9Z</time></trkpt><trkpt lat="43.0663633" lon="13.46359"><ele>214.0</ele><time>2026-03-22T12:22:20.899Z</time></trkpt><trkpt lat="43.0664433" lon="13.46363"><ele>214.0</ele><time>2026-03-22T12:22:24.9Z</time></trkpt><trkpt lat="43.0665083" lon="13.4636333"><ele>213.99999999999997</ele><time>2026-03-22T12:22:27.9Z</time></trkpt><trkpt lat="43.06659" lon="13.4636667"><ele>214.0</ele><time>2026-03-22T12:22:29.899Z</time></trkpt><trkpt lat="43.06668" lon="13.4637133"><ele>213.6</ele><time>2026-03-22T12:22:31.9Z</time></trkpt><trkpt lat="43.0667767" lon="13.46381"><ele>213.2</ele><time>2026-03-22T12:22:33.9Z</time></trkpt><trkpt lat="43.0668833" lon="13.4638617"><ele>212.79999999999998</ele><time>2026-03-22T12:22:35.9Z</time></trkpt><trkpt lat="43.0669667" lon="13.4639017"><ele>212.39999999999998</ele><time>2026-03-22T12:22:37.9Z</time></trkpt><trkpt lat="43.0670733" lon="13.4639733"><ele>212.0</ele><time>2026-03-22T12:22:39.9Z</time></trkpt><trkpt lat="43.06714" lon="13.464035"><ele>212.00000000000003</ele><time>2026-03-22T12:22:40.9Z</time></trkpt><trkpt lat="43.067205" lon="13.4640933"><ele>212.0</ele><time>2026-03-22T12:22:41.9Z</time></trkpt><trkpt lat="43.067265" lon="13.464145"><ele>212.0</ele><time>2026-03-22T12:22:42.9Z</time></trkpt><trkpt lat="43.067345" lon="13.4642417"><ele>212.0</ele><time>2026-03-22T12:22:44.9Z</time></trkpt><trkpt lat="43.0674167" lon="13.4643267"><ele>212.00000000000003</ele><time>2026-03-22T12:22:46.899Z</time></trkpt><trkpt lat="43.067495" lon="13.4643867"><ele>212.0</ele><time>2026-03-22T12:22:49.9Z</time></trkpt><trkpt lat="43.067565" lon="13.4644367"><ele>212.00000000000003</ele><time>2026-03-22T12:22:52.9Z</time></trkpt><trkpt lat="43.0676383" lon="13.4645033"><ele>212.0</ele><time>2026-03-22T12:22:55.9Z</time></trkpt><trkpt lat="43.0677067" lon="13.4645683"><ele>212.0</ele><time>2026-03-22T12:22:57.9Z</time></trkpt><trkpt lat="43.0677667" lon="13.464625"><ele>212.0</ele><time>2026-03-22T12:22:59.899Z</time></trkpt><trkpt lat="43.0678267" lon="13.4646833"><ele>212.00000000000003</ele><time>2026-03-22T12:23:02.9Z</time></trkpt><trkpt lat="43.0678783" lon="13.4647383"><ele>212.0</ele><time>2026-03-22T12:23:05.899Z</time></trkpt><trkpt lat="43.0679567" lon="13.4648067"><ele>211.50000000000003</ele><time>2026-03-22T12:23:09.9Z</time></trkpt><trkpt lat="43.0680033" lon="13.46488"><ele>211.0</ele><time>2026-03-22T12:23:11.899Z</time></trkpt><trkpt lat="43.06808" lon="13.464965"><ele>210.5</ele><time>2026-03-22T12:23:14.899Z</time></trkpt><trkpt lat="43.0681617" lon="13.4650233"><ele>210.0</ele><time>2026-03-22T12:23:16.9Z</time></trkpt><trkpt lat="43.068225" lon="13.46507"><ele>209.50000000000003</ele><time>2026-03-22T12:23:18.899Z</time></trkpt><trkpt lat="43.06829" lon="13.4650867"><ele>209.0</ele><time>2026-03-22T12:23:20.9Z</time></trkpt><trkpt lat="43.068365" lon="13.4650567"><ele>209.0</ele><time>2026-03-22T12:23:23.9Z</time></trkpt><trkpt lat="43.0684117" lon="13.4649817"><ele>209.0</ele><time>2026-03-22T12:23:27.899Z</time></trkpt><trkpt lat="43.06844" lon="13.4648833"><ele>209.0</ele><time>2026-03-22T12:23:31.9Z</time></trkpt><trkpt lat="43.068445" lon="13.464785"><ele>209.0</ele><time>2026-03-22T12:23:34.899Z</time></trkpt><trkpt lat="43.0684517" lon="13.4646867"><ele>209.0</ele><time>2026-03-22T12:23:37.9Z</time></trkpt><trkpt lat="43.06846" lon="13.4646"><ele>209.0</ele><time>2026-03-22T12:23:39.9Z</time></trkpt><trkpt lat="43.0684617" lon="13.4645017"><ele>209.0</ele><time>2026-03-22T12:23:41.899Z</time></trkpt><trkpt lat="43.0684517" lon="13.4643983"><ele>209.50000000000003</ele><time>2026-03-22T12:23:43.9Z</time></trkpt><trkpt lat="43.06844" lon="13.4642783"><ele>210.0</ele><time>2026-03-22T12:23:46.9Z</time></trkpt><trkpt lat="43.068445" lon="13.4641867"><ele>210.5</ele><time>2026-03-22T12:23:48.9Z</time></trkpt><trkpt lat="43.0684467" lon="13.4640883"><ele>211.0</ele><time>2026-03-22T12:23:50.9Z</time></trkpt><trkpt lat="43.0684633" lon="13.4639533"><ele>211.50000000000003</ele><time>2026-03-22T12:23:52.899Z</time></trkpt><trkpt lat="43.0685" lon="13.4638167"><ele>212.0</ele><time>2026-03-22T12:23:54.9Z</time></trkpt><trkpt lat="43.0685783" lon="13.46373"><ele>212.0</ele><time>2026-03-22T12:23:56.899Z</time></trkpt><trkpt lat="43.0686883" lon="13.46373"><ele>212.0</ele><time>2026-03-22T12:23:58.9Z</time></trkpt><trkpt lat="43.0687783" lon="13.4637917"><ele>212.0</ele><time>2026-03-22T12:24:00.899Z</time></trkpt><trkpt lat="43.0688383" lon="13.4638433"><ele>212.0</ele><time>2026-03-22T12:24:02.899Z</time></trkpt><trkpt lat="43.0689417" lon="13.4639183"><ele>212.0</ele><time>2026-03-22T12:24:04.899Z</time></trkpt><trkpt lat="43.069" lon="13.4639583"><ele>212.2</ele><time>2026-03-22T12:24:05.899Z</time></trkpt><trkpt lat="43.069115" lon="13.4640333"><ele>212.39999999999998</ele><time>2026-03-22T12:24:07.9Z</time></trkpt><trkpt lat="43.06919" lon="13.4640933"><ele>212.60000000000002</ele><time>2026-03-22T12:24:08.9Z</time></trkpt><trkpt lat="43.0692683" lon="13.4641517"><ele>212.8</ele><time>2026-03-22T12:24:09.9Z</time></trkpt><trkpt lat="43.0693517" lon="13.4642083"><ele>213.0</ele><time>2026-03-22T12:24:10.9Z</time></trkpt><trkpt lat="43.0694367" lon="13.46426"><ele>213.0</ele><time>2026-03-22T12:24:11.9Z</time></trkpt><trkpt lat="43.0695417" lon="13.4643217"><ele>213.0</ele><time>2026-03-22T12:24:12.899Z</time></trkpt><trkpt lat="43.0696483" lon="13.464385"><ele>213.0</ele><time>2026-03-22T12:24:13.9Z</time></trkpt><trkpt lat="43.0697367" lon="13.4644433"><ele>213.0</ele><time>2026-03-22T12:24:14.899Z</time></trkpt><trkpt lat="43.069815" lon="13.4644983"><ele>213.0</ele><time>2026-03-22T12:24:15.9Z</time></trkpt><trkpt lat="43.0698817" lon="13.4645683"><ele>212.66666666666666</ele><time>2026-03-22T12:24:16.9Z</time></trkpt><trkpt lat="43.0699333" lon="13.4646533"><ele>212.33333333333331</ele><time>2026-03-22T12:24:17.9Z</time></trkpt><trkpt lat="43.0699767" lon="13.4647567"><ele>212.0</ele><time>2026-03-22T12:24:18.899Z</time></trkpt><trkpt lat="43.07002" lon="13.464845"><ele>211.66666666666666</ele><time>2026-03-22T12:24:19.9Z</time></trkpt><trkpt lat="43.07007" lon="13.4649317"><ele>211.33333333333331</ele><time>2026-03-22T12:24:20.9Z</time></trkpt><trkpt lat="43.0701383" lon="13.4650017"><ele>211.0</ele><time>2026-03-22T12:24:21.9Z</time></trkpt><trkpt lat="43.07023" lon="13.4650783"><ele>211.0</ele><time>2026-03-22T12:24:22.9Z</time></trkpt><trkpt lat="43.070345" lon="13.4651533"><ele>211.0</ele><time>2026-03-22T12:24:23.9Z</time></trkpt><trkpt lat="43.0704767" lon="13.4652317"><ele>211.0</ele><time>2026-03-22T12:24:24.9Z</time></trkpt><trkpt lat="43.0706083" lon="13.46531"><ele>211.0</ele><time>2026-03-22T12:24:25.9Z</time></trkpt><trkpt lat="43.07074" lon="13.4654033"><ele>210.25</ele><time>2026-03-22T12:24:26.899Z</time></trkpt><trkpt lat="43.0708567" lon="13.465485"><ele>209.5</ele><time>2026-03-22T12:24:27.9Z</time></trkpt><trkpt lat="43.0709733" lon="13.4655483"><ele>208.75</ele><time>2026-03-22T12:24:28.899Z</time></trkpt><trkpt lat="43.07108" lon="13.46562"><ele>208.0</ele><time>2026-03-22T12:24:29.899Z</time></trkpt><trkpt lat="43.07118" lon="13.4656817"><ele>207.99999999999997</ele><time>2026-03-22T12:24:30.9Z</time></trkpt><trkpt lat="43.0712717" lon="13.465745"><ele>208.0</ele><time>2026-03-22T12:24:31.9Z</time></trkpt><trkpt lat="43.0713467" lon="13.4657983"><ele>208.0</ele><time>2026-03-22T12:24:32.899Z</time></trkpt><trkpt lat="43.0714133" lon="13.46584"><ele>208.0</ele><time>2026-03-22T12:24:33.899Z</time></trkpt><trkpt lat="43.0714683" lon="13.4658867"><ele>207.99999999999997</ele><time>2026-03-22T12:24:34.9Z</time></trkpt><trkpt lat="43.0715133" lon="13.4659517"><ele>208.0</ele><time>2026-03-22T12:24:35.9Z</time></trkpt><trkpt lat="43.0715367" lon="13.4660383"><ele>207.99999999999997</ele><time>2026-03-22T12:24:36.9Z</time></trkpt><trkpt lat="43.0715467" lon="13.46615"><ele>208.0</ele><time>2026-03-22T12:24:37.9Z</time></trkpt><trkpt lat="43.0715383" lon="13.4662683"><ele>208.0</ele><time>2026-03-22T12:24:38.899Z</time></trkpt><trkpt lat="43.0715283" lon="13.4663767"><ele>208.0</ele><time>2026-03-22T12:24:39.9Z</time></trkpt><trkpt lat="43.0715283" lon="13.466475"><ele>207.99999999999997</ele><time>2026-03-22T12:24:40.9Z</time></trkpt><trkpt lat="43.0715217" lon="13.4666233"><ele>208.0</ele><time>2026-03-22T12:24:42.9Z</time></trkpt><trkpt lat="43.07152" lon="13.4668617"><ele>207.85714285714286</ele><time>2026-03-22T12:24:45.9Z</time></trkpt><trkpt lat="43.071515" lon="13.46695"><ele>207.71428571428572</ele><time>2026-03-22T12:24:46.9Z</time></trkpt><trkpt lat="43.0715083" lon="13.467045"><ele>207.57142857142858</ele><time>2026-03-22T12:24:47.9Z</time></trkpt><trkpt lat="43.0715033" lon="13.4671467"><ele>207.42857142857144</ele><time>2026-03-22T12:24:48.899Z</time></trkpt><trkpt lat="43.0715033" lon="13.46725"><ele>207.28571428571428</ele><time>2026-03-22T12:24:49.9Z</time></trkpt><trkpt lat="43.0715" lon="13.4673467"><ele>207.14285714285717</ele><time>2026-03-22T12:24:50.9Z</time></trkpt><trkpt lat="43.0714967" lon="13.467435"><ele>207.0</ele><time>2026-03-22T12:24:51.899Z</time></trkpt><trkpt lat="43.0714917" lon="13.467605"><ele>207.0</ele><time>2026-03-22T12:24:53.899Z</time></trkpt><trkpt lat="43.0714883" lon="13.4676933"><ele>207.0</ele><time>2026-03-22T12:24:54.899Z</time></trkpt><trkpt lat="43.0714817" lon="13.4678283"><ele>207.0</ele><time>2026-03-22T12:24:56.899Z</time></trkpt><trkpt lat="43.0714733" lon="13.467945"><ele>207.0</ele><time>2026-03-22T12:24:58.899Z</time></trkpt><trkpt lat="43.071465" lon="13.4680733"><ele>207.0</ele><time>2026-03-22T12:25:00.899Z</time></trkpt><trkpt lat="43.0714567" lon="13.4681667"><ele>207.0</ele><time>2026-03-22T12:25:02.9Z</time></trkpt><trkpt lat="43.0714633" lon="13.4682533"><ele>207.0</ele><time>2026-03-22T12:25:04.9Z</time></trkpt><trkpt lat="43.0714683" lon="13.46836"><ele>207.0</ele><time>2026-03-22T12:25:07.899Z</time></trkpt><trkpt lat="43.0714833" lon="13.4684817"><ele>207.0</ele><time>2026-03-22T12:25:09.9Z</time></trkpt><trkpt lat="43.0715283" lon="13.468625"><ele>207.0</ele><time>2026-03-22T12:25:11.899Z</time></trkpt><trkpt lat="43.0715867" lon="13.4687267"><ele>207.0</ele><time>2026-03-22T12:25:13.9Z</time></trkpt><trkpt lat="43.07163" lon="13.4688017"><ele>207.0</ele><time>2026-03-22T12:25:16.899Z</time></trkpt><trkpt lat="43.0716817" lon="13.468965"><ele>206.71428571428572</ele><time>2026-03-22T12:29:18.899Z</time></trkpt><trkpt lat="43.071725" lon="13.4690367"><ele>206.42857142857144</ele><time>2026-03-22T12:29:22.899Z</time></trkpt><trkpt lat="43.071735" lon="13.46913"><ele>206.14285714285717</ele><time>2026-03-22T12:29:26.899Z</time></trkpt><trkpt lat="43.071745" lon="13.4692417"><ele>205.85714285714286</ele><time>2026-03-22T12:29:32.898Z</time></trkpt><trkpt lat="43.0717083" lon="13.4693283"><ele>205.57142857142856</ele><time>2026-03-22T12:29:37.899Z</time></trkpt><trkpt lat="43.0716533" lon="13.4694117"><ele>205.2857142857143</ele><time>2026-03-22T12:29:39.898Z</time></trkpt><trkpt lat="43.0716167" lon="13.4694883"><ele>205.0</ele><time>2026-03-22T12:29:41.899Z</time></trkpt><trkpt lat="43.0716083" lon="13.46961"><ele>205.0</ele><time>2026-03-22T12:29:44.899Z</time></trkpt><trkpt lat="43.0716533" lon="13.4696717"><ele>205.0</ele><time>2026-03-22T12:29:46.899Z</time></trkpt><trkpt lat="43.0717217" lon="13.4697317"><ele>205.0</ele><time>2026-03-22T12:29:48.898Z</time></trkpt><trkpt lat="43.0717967" lon="13.469815"><ele>205.0</ele><time>2026-03-22T12:29:50.899Z</time></trkpt><trkpt lat="43.07189" lon="13.4699033"><ele>205.0</ele><time>2026-03-22T12:29:52.899Z</time></trkpt><trkpt lat="43.07199" lon="13.4699933"><ele>205.0</ele><time>2026-03-22T12:29:54.899Z</time></trkpt><trkpt lat="43.0720933" lon="13.4700867"><ele>205.0</ele><time>2026-03-22T12:29:56.899Z</time></trkpt><trkpt lat="43.0721883" lon="13.47018"><ele>205.0</ele><time>2026-03-22T12:29:58.899Z</time></trkpt><trkpt lat="43.0722883" lon="13.4702717"><ele>205.0</ele><time>2026-03-22T12:30:00.899Z</time></trkpt><trkpt lat="43.0723933" lon="13.47038"><ele>205.2</ele><time>2026-03-22T12:30:02.898Z</time></trkpt><trkpt lat="43.0724633" lon="13.4704517"><ele>205.4</ele><time>2026-03-22T12:30:03.899Z</time></trkpt><trkpt lat="43.07254" lon="13.4705283"><ele>205.60000000000002</ele><time>2026-03-22T12:30:04.898Z</time></trkpt><trkpt lat="43.07262" lon="13.4706017"><ele>205.8</ele><time>2026-03-22T12:30:05.899Z</time></trkpt><trkpt lat="43.0727083" lon="13.4706783"><ele>206.0</ele><time>2026-03-22T12:30:06.899Z</time></trkpt><trkpt lat="43.0727983" lon="13.470765"><ele>206.0</ele><time>2026-03-22T12:30:07.899Z</time></trkpt><trkpt lat="43.072895" lon="13.4708583"><ele>206.0</ele><time>2026-03-22T12:30:08.898Z</time></trkpt><trkpt lat="43.0729967" lon="13.4709417"><ele>206.0</ele><time>2026-03-22T12:30:09.899Z</time></trkpt><trkpt lat="43.0731017" lon="13.4710383"><ele>206.0</ele><time>2026-03-22T12:30:10.899Z</time></trkpt><trkpt lat="43.0732067" lon="13.47114"><ele>205.5</ele><time>2026-03-22T12:30:11.899Z</time></trkpt><trkpt lat="43.0733167" lon="13.4712283"><ele>205.0</ele><time>2026-03-22T12:30:12.899Z</time></trkpt><trkpt lat="43.0734217" lon="13.4713183"><ele>204.5</ele><time>2026-03-22T12:30:13.898Z</time></trkpt><trkpt lat="43.0735117" lon="13.4714117"><ele>204.0</ele><time>2026-03-22T12:30:14.898Z</time></trkpt><trkpt lat="43.0735983" lon="13.4714783"><ele>204.0</ele><time>2026-03-22T12:30:15.898Z</time></trkpt><trkpt lat="43.073675" lon="13.471545"><ele>204.0</ele><time>2026-03-22T12:30:16.899Z</time></trkpt><trkpt lat="43.0737533" lon="13.47162"><ele>204.0</ele><time>2026-03-22T12:30:17.899Z</time></trkpt><trkpt lat="43.0738333" lon="13.4716917"><ele>204.0</ele><time>2026-03-22T12:30:18.899Z</time></trkpt><trkpt lat="43.0739167" lon="13.471775"><ele>204.0</ele><time>2026-03-22T12:30:19.898Z</time></trkpt><trkpt lat="43.0739967" lon="13.471875"><ele>204.0</ele><time>2026-03-22T12:30:20.899Z</time></trkpt><trkpt lat="43.07408" lon="13.4719733"><ele>204.0</ele><time>2026-03-22T12:30:21.898Z</time></trkpt><trkpt lat="43.0741683" lon="13.4720733"><ele>204.0</ele><time>2026-03-22T12:30:22.899Z</time></trkpt><trkpt lat="43.0742633" lon="13.4721867"><ele>204.0</ele><time>2026-03-22T12:30:23.899Z</time></trkpt><trkpt lat="43.07438" lon="13.4723117"><ele>204.0</ele><time>2026-03-22T12:30:24.899Z</time></trkpt><trkpt lat="43.0744967" lon="13.472435"><ele>204.0</ele><time>2026-03-22T12:30:25.899Z</time></trkpt><trkpt lat="43.074605" lon="13.4725633"><ele>204.0</ele><time>2026-03-22T12:30:26.899Z</time></trkpt><trkpt lat="43.0747267" lon="13.4726917"><ele>204.0</ele><time>2026-03-22T12:30:27.899Z</time></trkpt><trkpt lat="43.0748617" lon="13.4728333"><ele>202.33333333333331</ele><time>2026-03-22T12:30:28.898Z</time></trkpt><trkpt lat="43.074995" lon="13.47298"><ele>200.66666666666666</ele><time>2026-03-22T12:30:29.899Z</time></trkpt><trkpt lat="43.0751217" lon="13.473125"><ele>199.0</ele><time>2026-03-22T12:30:30.899Z</time></trkpt><trkpt lat="43.0752633" lon="13.4732783"><ele>199.0</ele><time>2026-03-22T12:30:31.899Z</time></trkpt><trkpt lat="43.075395" lon="13.4734267"><ele>199.0</ele><time>2026-03-22T12:30:32.899Z</time></trkpt><trkpt lat="43.075535" lon="13.4735833"><ele>199.0</ele><time>2026-03-22T12:30:33.898Z</time></trkpt><trkpt lat="43.075665" lon="13.4737417"><ele>199.0</ele><time>2026-03-22T12:30:34.899Z</time></trkpt><trkpt lat="43.0758" lon="13.4739033"><ele>199.0</ele><time>2026-03-22T12:30:35.899Z</time></trkpt><trkpt lat="43.075925" lon="13.474065"><ele>199.0</ele><time>2026-03-22T12:30:36.899Z</time></trkpt><trkpt lat="43.076055" lon="13.4742233"><ele>199.0</ele><time>2026-03-22T12:30:37.899Z</time></trkpt><trkpt lat="43.076185" lon="13.47438"><ele>199.0</ele><time>2026-03-22T12:30:38.899Z</time></trkpt><trkpt lat="43.0763183" lon="13.4745433"><ele>199.0</ele><time>2026-03-22T12:30:39.899Z</time></trkpt><trkpt lat="43.0764333" lon="13.4746917"><ele>199.0</ele><time>2026-03-22T12:30:40.899Z</time></trkpt><trkpt lat="43.0765333" lon="13.4748083"><ele>199.0</ele><time>2026-03-22T12:30:41.898Z</time></trkpt><trkpt lat="43.076625" lon="13.4749083"><ele>199.0</ele><time>2026-03-22T12:30:42.898Z</time></trkpt><trkpt lat="43.0766983" lon="13.4749833"><ele>199.0</ele><time>2026-03-22T12:30:43.898Z</time></trkpt><trkpt lat="43.0767783" lon="13.4750767"><ele>199.0</ele><time>2026-03-22T12:30:44.899Z</time></trkpt><trkpt lat="43.07687" lon="13.4751633"><ele>198.5</ele><time>2026-03-22T12:30:45.899Z</time></trkpt><trkpt lat="43.0769633" lon="13.47525"><ele>198.0</ele><time>2026-03-22T12:30:46.898Z</time></trkpt><trkpt lat="43.0770683" lon="13.4753367"><ele>197.5</ele><time>2026-03-22T12:30:47.898Z</time></trkpt><trkpt lat="43.0771983" lon="13.4754183"><ele>197.0</ele><time>2026-03-22T12:30:48.899Z</time></trkpt><trkpt lat="43.0773367" lon="13.4755133"><ele>197.0</ele><time>2026-03-22T12:30:49.899Z</time></trkpt><trkpt lat="43.0774933" lon="13.4756017"><ele>197.0</ele><time>2026-03-22T12:30:50.899Z</time></trkpt><trkpt lat="43.077655" lon="13.4757067"><ele>197.0</ele><time>2026-03-22T12:30:51.899Z</time></trkpt><trkpt lat="43.0778183" lon="13.475815"><ele>197.0</ele><time>2026-03-22T12:30:52.899Z</time></trkpt><trkpt lat="43.0779633" lon="13.4759233"><ele>197.0</ele><time>2026-03-22T12:30:53.898Z</time></trkpt><trkpt lat="43.0781217" lon="13.4760367"><ele>197.0</ele><time>2026-03-22T12:30:54.898Z</time></trkpt><trkpt lat="43.07828" lon="13.4761517"><ele>196.33333333333334</ele><time>2026-03-22T12:30:55.898Z</time></trkpt><trkpt lat="43.0784333" lon="13.47628"><ele>195.66666666666669</ele><time>2026-03-22T12:30:56.899Z</time></trkpt><trkpt lat="43.0785883" lon="13.4764"><ele>195.0</ele><time>2026-03-22T12:30:57.898Z</time></trkpt><trkpt lat="43.0787617" lon="13.47652"><ele>195.0</ele><time>2026-03-22T12:30:58.899Z</time></trkpt><trkpt lat="43.0789017" lon="13.4766467"><ele>195.0</ele><time>2026-03-22T12:30:59.899Z</time></trkpt><trkpt lat="43.0790517" lon="13.47675"><ele>195.0</ele><time>2026-03-22T12:31:00.898Z</time></trkpt><trkpt lat="43.0792167" lon="13.4768517"><ele>194.66666666666669</ele><time>2026-03-22T12:31:01.898Z</time></trkpt><trkpt lat="43.07937" lon="13.47696"><ele>194.33333333333334</ele><time>2026-03-22T12:31:02.899Z</time></trkpt><trkpt lat="43.079515" lon="13.4770583"><ele>194.0</ele><time>2026-03-22T12:31:03.899Z</time></trkpt><trkpt lat="43.079645" lon="13.47717"><ele>194.0</ele><time>2026-03-22T12:31:04.898Z</time></trkpt><trkpt lat="43.079755" lon="13.477265"><ele>194.0</ele><time>2026-03-22T12:31:05.899Z</time></trkpt><trkpt lat="43.079855" lon="13.4773567"><ele>194.0</ele><time>2026-03-22T12:31:06.899Z</time></trkpt><trkpt lat="43.079945" lon="13.4774467"><ele>194.0</ele><time>2026-03-22T12:31:07.898Z</time></trkpt><trkpt lat="43.080025" lon="13.4775283"><ele>193.66666666666669</ele><time>2026-03-22T12:31:08.899Z</time></trkpt><trkpt lat="43.0801033" lon="13.47761"><ele>193.33333333333334</ele><time>2026-03-22T12:31:09.898Z</time></trkpt><trkpt lat="43.080175" lon="13.4777"><ele>193.0</ele><time>2026-03-22T12:31:10.899Z</time></trkpt><trkpt lat="43.08024" lon="13.4777817"><ele>192.66666666666669</ele><time>2026-03-22T12:31:11.899Z</time></trkpt><trkpt lat="43.0803017" lon="13.4778667"><ele>192.33333333333334</ele><time>2026-03-22T12:31:12.899Z</time></trkpt><trkpt lat="43.0803567" lon="13.4779417"><ele>192.0</ele><time>2026-03-22T12:31:13.898Z</time></trkpt><trkpt lat="43.0804183" lon="13.4780183"><ele>192.0</ele><time>2026-03-22T12:31:14.899Z</time></trkpt><trkpt lat="43.080465" lon="13.4781033"><ele>192.0</ele><time>2026-03-22T12:31:15.899Z</time></trkpt><trkpt lat="43.0804933" lon="13.4782117"><ele>192.0</ele><time>2026-03-22T12:31:16.898Z</time></trkpt><trkpt lat="43.0804867" lon="13.4783433"><ele>192.0</ele><time>2026-03-22T12:31:17.899Z</time></trkpt><trkpt lat="43.0804633" lon="13.4784883"><ele>192.0</ele><time>2026-03-22T12:31:18.899Z</time></trkpt><trkpt lat="43.0804217" lon="13.4786517"><ele>191.5</ele><time>2026-03-22T12:31:19.899Z</time></trkpt><trkpt lat="43.08037" lon="13.4788033"><ele>191.0</ele><time>2026-03-22T12:31:20.898Z</time></trkpt><trkpt lat="43.0803167" lon="13.4789567"><ele>190.5</ele><time>2026-03-22T12:31:21.899Z</time></trkpt><trkpt lat="43.0802483" lon="13.479085"><ele>190.0</ele><time>2026-03-22T12:31:22.899Z</time></trkpt><trkpt lat="43.0802067" lon="13.47922"><ele>190.0</ele><time>2026-03-22T12:31:23.898Z</time></trkpt><trkpt lat="43.0801783" lon="13.479345"><ele>190.0</ele><time>2026-03-22T12:31:24.899Z</time></trkpt><trkpt lat="43.0801567" lon="13.4794517"><ele>190.0</ele><time>2026-03-22T12:31:25.898Z</time></trkpt><trkpt lat="43.0801317" lon="13.4795483"><ele>190.0</ele><time>2026-03-22T12:31:26.899Z</time></trkpt><trkpt lat="43.0801017" lon="13.4796617"><ele>190.0</ele><time>2026-03-22T12:31:27.898Z</time></trkpt><trkpt lat="43.080075" lon="13.4797767"><ele>190.0</ele><time>2026-03-22T12:31:28.899Z</time></trkpt><trkpt lat="43.0800317" lon="13.47991"><ele>190.0</ele><time>2026-03-22T12:31:29.899Z</time></trkpt><trkpt lat="43.0799817" lon="13.4800317"><ele>190.0</ele><time>2026-03-22T12:31:30.898Z</time></trkpt><trkpt lat="43.07993" lon="13.4801467"><ele>190.0</ele><time>2026-03-22T12:31:31.899Z</time></trkpt><trkpt lat="43.0798717" lon="13.4802483"><ele>190.0</ele><time>2026-03-22T12:31:32.899Z</time></trkpt><trkpt lat="43.079845" lon="13.4803483"><ele>190.0</ele><time>2026-03-22T12:31:33.899Z</time></trkpt><trkpt lat="43.0798417" lon="13.48046"><ele>191.0</ele><time>2026-03-22T12:31:34.898Z</time></trkpt><trkpt lat="43.07985" lon="13.4805667"><ele>192.0</ele><time>2026-03-22T12:31:35.899Z</time></trkpt><trkpt lat="43.0798533" lon="13.4806583"><ele>193.0</ele><time>2026-03-22T12:31:36.899Z</time></trkpt><trkpt lat="43.0798617" lon="13.480795"><ele>194.0</ele><time>2026-03-22T12:31:38.898Z</time></trkpt><trkpt lat="43.0798833" lon="13.4809283"><ele>194.99999999999997</ele><time>2026-03-22T12:31:40.899Z</time></trkpt><trkpt lat="43.079885" lon="13.4810517"><ele>196.0</ele><time>2026-03-22T12:31:42.899Z</time></trkpt><trkpt lat="43.0798817" lon="13.48116"><ele>195.83333333333331</ele><time>2026-03-22T12:31:44.898Z</time></trkpt><trkpt lat="43.0798717" lon="13.4812717"><ele>195.66666666666666</ele><time>2026-03-22T12:31:46.898Z</time></trkpt><trkpt lat="43.0798583" lon="13.4814433"><ele>195.5</ele><time>2026-03-22T12:31:48.899Z</time></trkpt><trkpt lat="43.0798567" lon="13.48154"><ele>195.33333333333331</ele><time>2026-03-22T12:31:49.899Z</time></trkpt><trkpt lat="43.0798567" lon="13.4816283"><ele>195.16666666666666</ele><time>2026-03-22T12:31:50.899Z</time></trkpt><trkpt lat="43.0798467" lon="13.48174"><ele>195.0</ele><time>2026-03-22T12:31:52.899Z</time></trkpt><trkpt lat="43.0798367" lon="13.4818533"><ele>195.0</ele><time>2026-03-22T12:31:55.898Z</time></trkpt><trkpt lat="43.0798383" lon="13.481965"><ele>195.0</ele><time>2026-03-22T12:31:59.899Z</time></trkpt><trkpt lat="43.0798133" lon="13.4821"><ele>195.0</ele><time>2026-03-22T12:32:02.899Z</time></trkpt><trkpt lat="43.0797783" lon="13.482185"><ele>195.0</ele><time>2026-03-22T12:32:04.899Z</time></trkpt><trkpt lat="43.079825" lon="13.482265"><ele>195.0</ele><time>2026-03-22T12:32:06.899Z</time></trkpt><trkpt lat="43.07996" lon="13.4823467"><ele>194.5</ele><time>2026-03-22T12:32:08.899Z</time></trkpt><trkpt lat="43.0800217" lon="13.4823967"><ele>194.0</ele><time>2026-03-22T12:32:09.899Z</time></trkpt><trkpt lat="43.08011" lon="13.482475"><ele>193.5</ele><time>2026-03-22T12:32:11.899Z</time></trkpt><trkpt lat="43.0801733" lon="13.4825367"><ele>193.0</ele><time>2026-03-22T12:32:13.898Z</time></trkpt><trkpt lat="43.0802483" lon="13.4826117"><ele>192.5</ele><time>2026-03-22T12:32:15.898Z</time></trkpt><trkpt lat="43.0803017" lon="13.4826667"><ele>192.0</ele><time>2026-03-22T12:32:16.899Z</time></trkpt><trkpt lat="43.0803617" lon="13.48272"><ele>191.99999999999997</ele><time>2026-03-22T12:32:17.899Z</time></trkpt><trkpt lat="43.0804167" lon="13.4827717"><ele>192.0</ele><time>2026-03-22T12:32:18.898Z</time></trkpt><trkpt lat="43.0804783" lon="13.48282"><ele>192.0</ele><time>2026-03-22T12:32:19.898Z</time></trkpt><trkpt lat="43.0805383" lon="13.4828683"><ele>192.0</ele><time>2026-03-22T12:32:20.898Z</time></trkpt><trkpt lat="43.0805867" lon="13.4829333"><ele>192.0</ele><time>2026-03-22T12:32:21.899Z</time></trkpt><trkpt lat="43.0806267" lon="13.4830183"><ele>191.99999999999997</ele><time>2026-03-22T12:32:22.898Z</time></trkpt><trkpt lat="43.0806467" lon="13.4831017"><ele>192.0</ele><time>2026-03-22T12:32:23.899Z</time></trkpt><trkpt lat="43.0806583" lon="13.4832367"><ele>192.0</ele><time>2026-03-22T12:32:25.899Z</time></trkpt><trkpt lat="43.0806117" lon="13.4831383"><ele>192.0</ele><time>2026-03-22T12:32:45.899Z</time></trkpt><trkpt lat="43.080575" lon="13.4830417"><ele>192.0</ele><time>2026-03-22T12:32:46.899Z</time></trkpt><trkpt lat="43.08053" lon="13.4829533"><ele>192.0</ele><time>2026-03-22T12:32:47.899Z</time></trkpt><trkpt lat="43.0804667" lon="13.4828567"><ele>192.0</ele><time>2026-03-22T12:32:48.898Z</time></trkpt><trkpt lat="43.0804083" lon="13.4827867"><ele>192.0</ele><time>2026-03-22T12:32:49.899Z</time></trkpt><trkpt lat="43.0803267" lon="13.4826933"><ele>192.0</ele><time>2026-03-22T12:32:51.899Z</time></trkpt><trkpt lat="43.0802833" lon="13.4826183"><ele>192.0</ele><time>2026-03-22T12:34:03.898Z</time></trkpt><trkpt lat="43.08038" lon="13.4827"><ele>192.0</ele><time>2026-03-22T12:34:13.899Z</time></trkpt><trkpt lat="43.0804517" lon="13.4827867"><ele>192.0</ele><time>2026-03-22T12:34:14.898Z</time></trkpt><trkpt lat="43.0805217" lon="13.482885"><ele>192.0</ele><time>2026-03-22T12:34:15.899Z</time></trkpt><trkpt lat="43.0805867" lon="13.482985"><ele>192.2</ele><time>2026-03-22T12:34:16.898Z</time></trkpt><trkpt lat="43.0806317" lon="13.4830967"><ele>192.39999999999998</ele><time>2026-03-22T12:34:17.899Z</time></trkpt><trkpt lat="43.08066" lon="13.483235"><ele>192.60000000000002</ele><time>2026-03-22T12:34:18.899Z</time></trkpt><trkpt lat="43.0806783" lon="13.4833733"><ele>192.8</ele><time>2026-03-22T12:34:19.899Z</time></trkpt><trkpt lat="43.080705" lon="13.4835317"><ele>193.0</ele><time>2026-03-22T12:34:20.899Z</time></trkpt><trkpt lat="43.0807367" lon="13.4836967"><ele>192.60000000000002</ele><time>2026-03-22T12:34:21.899Z</time></trkpt><trkpt lat="43.0807783" lon="13.4838533"><ele>192.20000000000002</ele><time>2026-03-22T12:34:22.898Z</time></trkpt><trkpt lat="43.0808267" lon="13.484"><ele>191.8</ele><time>2026-03-22T12:34:23.899Z</time></trkpt><trkpt lat="43.0808783" lon="13.4841183"><ele>191.4</ele><time>2026-03-22T12:34:24.898Z</time></trkpt><trkpt lat="43.080925" lon="13.4842167"><ele>191.0</ele><time>2026-03-22T12:34:25.898Z</time></trkpt><trkpt lat="43.0809783" lon="13.4842883"><ele>191.0</ele><time>2026-03-22T12:34:26.898Z</time></trkpt><trkpt lat="43.0810367" lon="13.4843433"><ele>191.0</ele><time>2026-03-22T12:34:27.899Z</time></trkpt><trkpt lat="43.0811117" lon="13.4843717"><ele>191.0</ele><time>2026-03-22T12:34:28.899Z</time></trkpt><trkpt lat="43.0811983" lon="13.4843783"><ele>191.0</ele><time>2026-03-22T12:34:29.898Z</time></trkpt><trkpt lat="43.0812883" lon="13.4844033"><ele>191.0</ele><time>2026-03-22T12:34:30.899Z</time></trkpt><trkpt lat="43.0813767" lon="13.4844417"><ele>191.0</ele><time>2026-03-22T12:34:31.899Z</time></trkpt><trkpt lat="43.08147" lon="13.484505"><ele>191.0</ele><time>2026-03-22T12:34:32.898Z</time></trkpt><trkpt lat="43.0815717" lon="13.4845817"><ele>191.0</ele><time>2026-03-22T12:34:33.899Z</time></trkpt><trkpt lat="43.0816783" lon="13.48468"><ele>191.0</ele><time>2026-03-22T12:34:34.898Z</time></trkpt><trkpt lat="43.0818017" lon="13.4847933"><ele>191.0</ele><time>2026-03-22T12:34:35.898Z</time></trkpt><trkpt lat="43.081945" lon="13.4849267"><ele>190.66666666666666</ele><time>2026-03-22T12:34:36.898Z</time></trkpt><trkpt lat="43.0821" lon="13.4850783"><ele>190.33333333333334</ele><time>2026-03-22T12:34:37.899Z</time></trkpt><trkpt lat="43.082225" lon="13.4852267"><ele>190.0</ele><time>2026-03-22T12:34:38.899Z</time></trkpt><trkpt lat="43.0823317" lon="13.4853533"><ele>190.0</ele><time>2026-03-22T12:34:39.898Z</time></trkpt><trkpt lat="43.082445" lon="13.4854683"><ele>190.0</ele><time>2026-03-22T12:34:40.899Z</time></trkpt><trkpt lat="43.0825" lon="13.4856"><ele>190.0</ele><time>2026-03-22T12:34:41.899Z</time></trkpt><trkpt lat="43.0825617" lon="13.4857667"><ele>190.0</ele><time>2026-03-22T12:34:42.899Z</time></trkpt><trkpt lat="43.0826317" lon="13.48595"><ele>190.0</ele><time>2026-03-22T12:34:43.898Z</time></trkpt><trkpt lat="43.082715" lon="13.4861433"><ele>190.0</ele><time>2026-03-22T12:34:44.899Z</time></trkpt><trkpt lat="43.0828067" lon="13.4863333"><ele>190.0</ele><time>2026-03-22T12:34:45.899Z</time></trkpt><trkpt lat="43.0829" lon="13.4865083"><ele>189.66666666666669</ele><time>2026-03-22T12:34:46.899Z</time></trkpt><trkpt lat="43.0830183" lon="13.4866817"><ele>189.33333333333334</ele><time>2026-03-22T12:34:47.899Z</time></trkpt><trkpt lat="43.0831467" lon="13.48685"><ele>189.0</ele><time>2026-03-22T12:34:48.899Z</time></trkpt><trkpt lat="43.083255" lon="13.4870133"><ele>188.75</ele><time>2026-03-22T12:34:49.899Z</time></trkpt><trkpt lat="43.0833567" lon="13.48717"><ele>188.5</ele><time>2026-03-22T12:34:50.899Z</time></trkpt><trkpt lat="43.0834367" lon="13.4873317"><ele>188.25</ele><time>2026-03-22T12:34:51.898Z</time></trkpt><trkpt lat="43.0835117" lon="13.4874983"><ele>188.0</ele><time>2026-03-22T12:34:52.899Z</time></trkpt><trkpt lat="43.0836067" lon="13.4876533"><ele>188.0</ele><time>2026-03-22T12:34:53.899Z</time></trkpt><trkpt lat="43.08373" lon="13.487805"><ele>188.0</ele><time>2026-03-22T12:34:54.898Z</time></trkpt><trkpt lat="43.0838433" lon="13.4879633"><ele>188.0</ele><time>2026-03-22T12:34:55.899Z</time></trkpt><trkpt lat="43.0839617" lon="13.4881167"><ele>187.75</ele><time>2026-03-22T12:34:56.899Z</time></trkpt><trkpt lat="43.084065" lon="13.4882583"><ele>187.5</ele><time>2026-03-22T12:34:57.898Z</time></trkpt><trkpt lat="43.084185" lon="13.48839"><ele>187.25</ele><time>2026-03-22T12:34:58.898Z</time></trkpt><trkpt lat="43.0842917" lon="13.4885317"><ele>187.0</ele><time>2026-03-22T12:34:59.899Z</time></trkpt><trkpt lat="43.0843933" lon="13.4886917"><ele>186.5</ele><time>2026-03-22T12:35:00.899Z</time></trkpt><trkpt lat="43.08447" lon="13.4888533"><ele>186.0</ele><time>2026-03-22T12:35:01.899Z</time></trkpt><trkpt lat="43.0845467" lon="13.489015"><ele>185.5</ele><time>2026-03-22T12:35:02.899Z</time></trkpt><trkpt lat="43.0846433" lon="13.4891683"><ele>185.0</ele><time>2026-03-22T12:35:03.899Z</time></trkpt><trkpt lat="43.0847283" lon="13.4893083"><ele>185.0</ele><time>2026-03-22T12:35:04.899Z</time></trkpt><trkpt lat="43.0848283" lon="13.4894367"><ele>185.0</ele><time>2026-03-22T12:35:05.899Z</time></trkpt><trkpt lat="43.0849417" lon="13.4895783"><ele>185.0</ele><time>2026-03-22T12:35:06.899Z</time></trkpt><trkpt lat="43.08505" lon="13.4897217"><ele>185.0</ele><time>2026-03-22T12:35:07.899Z</time></trkpt><trkpt lat="43.0851567" lon="13.4898617"><ele>184.5</ele><time>2026-03-22T12:35:08.899Z</time></trkpt><trkpt lat="43.0852583" lon="13.4899933"><ele>184.0</ele><time>2026-03-22T12:35:09.899Z</time></trkpt><trkpt lat="43.0853417" lon="13.4901267"><ele>183.5</ele><time>2026-03-22T12:35:10.898Z</time></trkpt><trkpt lat="43.0854033" lon="13.49027"><ele>183.0</ele><time>2026-03-22T12:35:11.899Z</time></trkpt><trkpt lat="43.0854583" lon="13.4903967"><ele>183.16666666666666</ele><time>2026-03-22T12:35:12.899Z</time></trkpt><trkpt lat="43.0855" lon="13.4904983"><ele>183.33333333333334</ele><time>2026-03-22T12:35:13.899Z</time></trkpt><trkpt lat="43.0855333" lon="13.490585"><ele>183.5</ele><time>2026-03-22T12:35:14.898Z</time></trkpt><trkpt lat="43.085565" lon="13.4906767"><ele>183.66666666666669</ele><time>2026-03-22T12:35:15.899Z</time></trkpt><trkpt lat="43.0855883" lon="13.49076"><ele>183.83333333333334</ele><time>2026-03-22T12:35:16.898Z</time></trkpt><trkpt lat="43.0856083" lon="13.49091"><ele>184.0</ele><time>2026-03-22T12:35:18.898Z</time></trkpt><trkpt lat="43.0856217" lon="13.4910167"><ele>184.0</ele><time>2026-03-22T12:35:21.898Z</time></trkpt><trkpt lat="43.0856433" lon="13.4911333"><ele>184.0</ele><time>2026-03-22T12:35:23.899Z</time></trkpt><trkpt lat="43.0856567" lon="13.491225"><ele>184.0</ele><time>2026-03-22T12:35:24.899Z</time></trkpt><trkpt lat="43.085665" lon="13.49133"><ele>184.0</ele><time>2026-03-22T12:35:25.898Z</time></trkpt><trkpt lat="43.0856683" lon="13.491455"><ele>184.0</ele><time>2026-03-22T12:35:26.899Z</time></trkpt><trkpt lat="43.0856617" lon="13.4915767"><ele>184.0</ele><time>2026-03-22T12:35:27.898Z</time></trkpt><trkpt lat="43.085665" lon="13.4917017"><ele>184.0</ele><time>2026-03-22T12:35:28.898Z</time></trkpt><trkpt lat="43.08568" lon="13.49182"><ele>184.0</ele><time>2026-03-22T12:35:29.898Z</time></trkpt><trkpt lat="43.0857017" lon="13.4919417"><ele>184.0</ele><time>2026-03-22T12:35:30.898Z</time></trkpt><trkpt lat="43.0857283" lon="13.4920583"><ele>184.0</ele><time>2026-03-22T12:35:31.899Z</time></trkpt><trkpt lat="43.0857733" lon="13.492175"><ele>184.0</ele><time>2026-03-22T12:35:32.899Z</time></trkpt><trkpt lat="43.0858267" lon="13.4922783"><ele>184.0</ele><time>2026-03-22T12:35:33.899Z</time></trkpt><trkpt lat="43.08588" lon="13.492375"><ele>184.0</ele><time>2026-03-22T12:35:34.899Z</time></trkpt><trkpt lat="43.0859167" lon="13.49248"><ele>184.0</ele><time>2026-03-22T12:35:35.898Z</time></trkpt><trkpt lat="43.0859383" lon="13.4925733"><ele>184.0</ele><time>2026-03-22T12:35:36.899Z</time></trkpt><trkpt lat="43.0859283" lon="13.4926933"><ele>184.0</ele><time>2026-03-22T12:35:37.898Z</time></trkpt><trkpt lat="43.0859383" lon="13.4928283"><ele>184.0</ele><time>2026-03-22T12:35:38.899Z</time></trkpt><trkpt lat="43.0859583" lon="13.4929667"><ele>184.0</ele><time>2026-03-22T12:35:39.899Z</time></trkpt><trkpt lat="43.0859983" lon="13.4931117"><ele>184.0</ele><time>2026-03-22T12:35:40.899Z</time></trkpt><trkpt lat="43.086035" lon="13.49324"><ele>184.0</ele><time>2026-03-22T12:35:41.899Z</time></trkpt><trkpt lat="43.0860667" lon="13.4933483"><ele>184.0</ele><time>2026-03-22T12:35:42.899Z</time></trkpt><trkpt lat="43.0861" lon="13.493445"><ele>184.0</ele><time>2026-03-22T12:35:43.898Z</time></trkpt><trkpt lat="43.08613" lon="13.493575"><ele>184.0</ele><time>2026-03-22T12:35:45.899Z</time></trkpt><trkpt lat="43.0861033" lon="13.4936817"><ele>184.0</ele><time>2026-03-22T12:35:47.898Z</time></trkpt><trkpt lat="43.0860583" lon="13.4938483"><ele>184.0</ele><time>2026-03-22T12:35:49.898Z</time></trkpt><trkpt lat="43.0860567" lon="13.493995"><ele>184.0</ele><time>2026-03-22T12:35:50.898Z</time></trkpt><trkpt lat="43.086085" lon="13.4942033"><ele>183.0</ele><time>2026-03-22T12:35:51.898Z</time></trkpt><trkpt lat="43.08612" lon="13.4944083"><ele>182.0</ele><time>2026-03-22T12:35:52.897Z</time></trkpt><trkpt lat="43.0861433" lon="13.4945867"><ele>181.0</ele><time>2026-03-22T12:35:53.898Z</time></trkpt><trkpt lat="43.0861683" lon="13.4947567"><ele>180.0</ele><time>2026-03-22T12:35:54.898Z</time></trkpt><trkpt lat="43.08619" lon="13.4949517"><ele>180.0</ele><time>2026-03-22T12:35:55.897Z</time></trkpt><trkpt lat="43.0862017" lon="13.4951433"><ele>180.0</ele><time>2026-03-22T12:35:56.898Z</time></trkpt><trkpt lat="43.08622" lon="13.49535"><ele>180.0</ele><time>2026-03-22T12:35:57.898Z</time></trkpt><trkpt lat="43.0862417" lon="13.4955533"><ele>180.0</ele><time>2026-03-22T12:35:58.898Z</time></trkpt><trkpt lat="43.086265" lon="13.4957533"><ele>180.0</ele><time>2026-03-22T12:35:59.898Z</time></trkpt><trkpt lat="43.0862783" lon="13.4959317"><ele>180.0</ele><time>2026-03-22T12:36:00.898Z</time></trkpt><trkpt lat="43.0862917" lon="13.496105"><ele>180.0</ele><time>2026-03-22T12:36:01.898Z</time></trkpt><trkpt lat="43.0863233" lon="13.49625"><ele>180.0</ele><time>2026-03-22T12:36:02.898Z</time></trkpt><trkpt lat="43.086335" lon="13.4963817"><ele>180.0</ele><time>2026-03-22T12:36:03.898Z</time></trkpt><trkpt lat="43.08635" lon="13.496495"><ele>180.0</ele><time>2026-03-22T12:36:04.897Z</time></trkpt><trkpt lat="43.0863633" lon="13.49659"><ele>180.0</ele><time>2026-03-22T12:36:05.897Z</time></trkpt><trkpt lat="43.08639" lon="13.49667"><ele>180.0</ele><time>2026-03-22T12:36:06.898Z</time></trkpt><trkpt lat="43.08643" lon="13.496745"><ele>180.0</ele><time>2026-03-22T12:36:07.898Z</time></trkpt><trkpt lat="43.0864633" lon="13.4968183"><ele>180.0</ele><time>2026-03-22T12:36:08.897Z</time></trkpt><trkpt lat="43.0864817" lon="13.4969517"><ele>180.0</ele><time>2026-03-22T12:36:10.898Z</time></trkpt><trkpt lat="43.086455" lon="13.4970367"><ele>180.0</ele><time>2026-03-22T12:36:11.897Z</time></trkpt><trkpt lat="43.0864183" lon="13.49715"><ele>180.0</ele><time>2026-03-22T12:36:12.897Z</time></trkpt><trkpt lat="43.0863833" lon="13.4972983"><ele>180.0</ele><time>2026-03-22T12:36:13.898Z</time></trkpt><trkpt lat="43.08636" lon="13.4974783"><ele>180.0</ele><time>2026-03-22T12:36:14.897Z</time></trkpt><trkpt lat="43.086345" lon="13.4976567"><ele>180.0</ele><time>2026-03-22T12:36:15.898Z</time></trkpt><trkpt lat="43.0863333" lon="13.4978233"><ele>180.0</ele><time>2026-03-22T12:36:16.897Z</time></trkpt><trkpt lat="43.086325" lon="13.4979733"><ele>180.0</ele><time>2026-03-22T12:36:17.897Z</time></trkpt><trkpt lat="43.0863133" lon="13.4981283"><ele>180.0</ele><time>2026-03-22T12:36:18.898Z</time></trkpt><trkpt lat="43.0863033" lon="13.4982433"><ele>180.0</ele><time>2026-03-22T12:36:19.898Z</time></trkpt><trkpt lat="43.08629" lon="13.4983333"><ele>179.8</ele><time>2026-03-22T12:36:20.898Z</time></trkpt><trkpt lat="43.0863533" lon="13.4984667"><ele>179.6</ele><time>2026-03-22T12:36:22.897Z</time></trkpt><trkpt lat="43.0864217" lon="13.4985083"><ele>179.39999999999998</ele><time>2026-03-22T12:36:23.898Z</time></trkpt><trkpt lat="43.0865167" lon="13.49852"><ele>179.2</ele><time>2026-03-22T12:36:24.897Z</time></trkpt><trkpt lat="43.0866233" lon="13.4985217"><ele>179.0</ele><time>2026-03-22T12:36:25.897Z</time></trkpt><trkpt lat="43.0867467" lon="13.4984917"><ele>179.79999999999998</ele><time>2026-03-22T12:36:26.897Z</time></trkpt><trkpt lat="43.086865" lon="13.49846"><ele>180.6</ele><time>2026-03-22T12:36:27.898Z</time></trkpt><trkpt lat="43.0869783" lon="13.49843"><ele>181.4</ele><time>2026-03-22T12:36:28.897Z</time></trkpt><trkpt lat="43.08708" lon="13.4984117"><ele>182.2</ele><time>2026-03-22T12:36:29.898Z</time></trkpt><trkpt lat="43.0871717" lon="13.4984117"><ele>183.0</ele><time>2026-03-22T12:36:30.898Z</time></trkpt><trkpt lat="43.0872567" lon="13.4984167"><ele>183.0</ele><time>2026-03-22T12:36:31.897Z</time></trkpt><trkpt lat="43.0873567" lon="13.4984883"><ele>183.0</ele><time>2026-03-22T12:36:33.898Z</time></trkpt><trkpt lat="43.0874267" lon="13.4986067"><ele>183.0</ele><time>2026-03-22T12:36:35.898Z</time></trkpt><trkpt lat="43.0875233" lon="13.4986817"><ele>183.0</ele><time>2026-03-22T12:36:37.898Z</time></trkpt><trkpt lat="43.08763" lon="13.49877"><ele>183.25</ele><time>2026-03-22T12:36:39.898Z</time></trkpt><trkpt lat="43.0877217" lon="13.4988583"><ele>183.5</ele><time>2026-03-22T12:36:41.898Z</time></trkpt><trkpt lat="43.0878267" lon="13.498875"><ele>183.75</ele><time>2026-03-22T12:36:43.898Z</time></trkpt><trkpt lat="43.08794" lon="13.498765"><ele>184.0</ele><time>2026-03-22T12:36:45.898Z</time></trkpt><trkpt lat="43.088005" lon="13.4986683"><ele>185.0</ele><time>2026-03-22T12:36:46.898Z</time></trkpt><trkpt lat="43.0880767" lon="13.4985683"><ele>186.0</ele><time>2026-03-22T12:36:47.898Z</time></trkpt><trkpt lat="43.0881517" lon="13.4984533"><ele>187.0</ele><time>2026-03-22T12:36:48.897Z</time></trkpt><trkpt lat="43.0882217" lon="13.498335"><ele>188.0</ele><time>2026-03-22T12:36:49.898Z</time></trkpt><trkpt lat="43.0882867" lon="13.49822"><ele>189.0</ele><time>2026-03-22T12:36:50.897Z</time></trkpt><trkpt lat="43.088345" lon="13.4981033"><ele>189.5</ele><time>2026-03-22T12:36:51.898Z</time></trkpt><trkpt lat="43.0884083" lon="13.4980067"><ele>190.0</ele><time>2026-03-22T12:36:52.897Z</time></trkpt><trkpt lat="43.0884667" lon="13.4979483"><ele>190.5</ele><time>2026-03-22T12:36:53.897Z</time></trkpt><trkpt lat="43.0885717" lon="13.4978683"><ele>191.0</ele><time>2026-03-22T12:36:55.898Z</time></trkpt><trkpt lat="43.088615" lon="13.497785"><ele>191.5</ele><time>2026-03-22T12:36:57.897Z</time></trkpt><trkpt lat="43.0886033" lon="13.497675"><ele>192.0</ele><time>2026-03-22T12:36:59.897Z</time></trkpt><trkpt lat="43.0886317" lon="13.4975467"><ele>192.2</ele><time>2026-03-22T12:37:01.897Z</time></trkpt><trkpt lat="43.0886817" lon="13.4974867"><ele>192.39999999999998</ele><time>2026-03-22T12:37:02.897Z</time></trkpt><trkpt lat="43.088755" lon="13.4974183"><ele>192.60000000000002</ele><time>2026-03-22T12:37:03.898Z</time></trkpt><trkpt lat="43.0888433" lon="13.49734"><ele>192.8</ele><time>2026-03-22T12:37:04.898Z</time></trkpt><trkpt lat="43.08894" lon="13.4972467"><ele>193.0</ele><time>2026-03-22T12:37:05.897Z</time></trkpt><trkpt lat="43.0890433" lon="13.4971483"><ele>194.0</ele><time>2026-03-22T12:37:06.897Z</time></trkpt><trkpt lat="43.0891483" lon="13.49705"><ele>195.0</ele><time>2026-03-22T12:37:07.898Z</time></trkpt><trkpt lat="43.0892617" lon="13.496945"><ele>196.0</ele><time>2026-03-22T12:37:08.897Z</time></trkpt><trkpt lat="43.0893867" lon="13.4968283"><ele>197.0</ele><time>2026-03-22T12:37:09.898Z</time></trkpt><trkpt lat="43.0895117" lon="13.4967083"><ele>197.0</ele><time>2026-03-22T12:37:10.898Z</time></trkpt><trkpt lat="43.089635" lon="13.496595"><ele>197.0</ele><time>2026-03-22T12:37:11.897Z</time></trkpt><trkpt lat="43.0897517" lon="13.4964817"><ele>197.0</ele><time>2026-03-22T12:37:12.898Z</time></trkpt><trkpt lat="43.089875" lon="13.4963583"><ele>197.0</ele><time>2026-03-22T12:37:13.897Z</time></trkpt><trkpt lat="43.089995" lon="13.4962467"><ele>199.33333333333334</ele><time>2026-03-22T12:37:14.897Z</time></trkpt><trkpt lat="43.0901183" lon="13.4961233"><ele>201.66666666666669</ele><time>2026-03-22T12:37:15.898Z</time></trkpt><trkpt lat="43.090235" lon="13.4960117"><ele>204.0</ele><time>2026-03-22T12:37:16.898Z</time></trkpt><trkpt lat="43.0903683" lon="13.49589"><ele>204.0</ele><time>2026-03-22T12:37:17.898Z</time></trkpt><trkpt lat="43.0904917" lon="13.495765"><ele>204.0</ele><time>2026-03-22T12:37:18.897Z</time></trkpt><trkpt lat="43.0906083" lon="13.4956433"><ele>204.0</ele><time>2026-03-22T12:37:19.898Z</time></trkpt><trkpt lat="43.0907333" lon="13.4955283"><ele>206.0</ele><time>2026-03-22T12:37:20.898Z</time></trkpt><trkpt lat="43.09085" lon="13.4954183"><ele>208.0</ele><time>2026-03-22T12:37:21.898Z</time></trkpt><trkpt lat="43.0909783" lon="13.4952933"><ele>210.0</ele><time>2026-03-22T12:37:22.897Z</time></trkpt><trkpt lat="43.0910933" lon="13.495185"><ele>212.0</ele><time>2026-03-22T12:37:23.898Z</time></trkpt><trkpt lat="43.09122" lon="13.495095"><ele>212.0</ele><time>2026-03-22T12:37:24.897Z</time></trkpt><trkpt lat="43.0913517" lon="13.4949967"><ele>212.0</ele><time>2026-03-22T12:37:25.898Z</time></trkpt><trkpt lat="43.091485" lon="13.49491"><ele>212.0</ele><time>2026-03-22T12:37:26.898Z</time></trkpt><trkpt lat="43.091625" lon="13.4948433"><ele>212.0</ele><time>2026-03-22T12:37:27.898Z</time></trkpt><trkpt lat="43.091765" lon="13.494795"><ele>212.33333333333334</ele><time>2026-03-22T12:37:28.898Z</time></trkpt><trkpt lat="43.0919067" lon="13.4947683"><ele>212.66666666666669</ele><time>2026-03-22T12:37:29.897Z</time></trkpt><trkpt lat="43.092055" lon="13.4947583"><ele>213.0</ele><time>2026-03-22T12:37:30.897Z</time></trkpt><trkpt lat="43.0922133" lon="13.494755"><ele>213.0</ele><time>2026-03-22T12:37:31.897Z</time></trkpt><trkpt lat="43.0923583" lon="13.49476"><ele>213.0</ele><time>2026-03-22T12:37:32.898Z</time></trkpt><trkpt lat="43.09251" lon="13.494785"><ele>213.0</ele><time>2026-03-22T12:37:33.898Z</time></trkpt><trkpt lat="43.0926583" lon="13.4948183"><ele>213.0</ele><time>2026-03-22T12:37:34.897Z</time></trkpt><trkpt lat="43.0928067" lon="13.4948567"><ele>213.0</ele><time>2026-03-22T12:37:35.898Z</time></trkpt><trkpt lat="43.09296" lon="13.4949"><ele>213.0</ele><time>2026-03-22T12:37:36.897Z</time></trkpt><trkpt lat="43.0931067" lon="13.4949533"><ele>213.0</ele><time>2026-03-22T12:37:37.898Z</time></trkpt><trkpt lat="43.09326" lon="13.4950017"><ele>213.0</ele><time>2026-03-22T12:37:38.898Z</time></trkpt><trkpt lat="43.0934167" lon="13.4950433"><ele>213.0</ele><time>2026-03-22T12:37:39.898Z</time></trkpt><trkpt lat="43.0935683" lon="13.4950933"><ele>213.0</ele><time>2026-03-22T12:37:40.897Z</time></trkpt><trkpt lat="43.0937167" lon="13.4951433"><ele>213.0</ele><time>2026-03-22T12:37:41.897Z</time></trkpt><trkpt lat="43.093865" lon="13.49519"><ele>213.0</ele><time>2026-03-22T12:37:42.897Z</time></trkpt><trkpt lat="43.0940117" lon="13.4952467"><ele>213.0</ele><time>2026-03-22T12:37:43.897Z</time></trkpt><trkpt lat="43.0941517" lon="13.4953"><ele>213.0</ele><time>2026-03-22T12:37:44.898Z</time></trkpt><trkpt lat="43.0942983" lon="13.49535"><ele>213.0</ele><time>2026-03-22T12:37:45.898Z</time></trkpt><trkpt lat="43.094445" lon="13.4953883"><ele>213.0</ele><time>2026-03-22T12:37:46.898Z</time></trkpt><trkpt lat="43.0946033" lon="13.4954367"><ele>213.0</ele><time>2026-03-22T12:37:47.898Z</time></trkpt><trkpt lat="43.0947567" lon="13.4954783"><ele>213.0</ele><time>2026-03-22T12:37:48.898Z</time></trkpt><trkpt lat="43.0949067" lon="13.4955267"><ele>213.0</ele><time>2026-03-22T12:37:49.898Z</time></trkpt><trkpt lat="43.09505" lon="13.49558"><ele>213.25</ele><time>2026-03-22T12:37:50.897Z</time></trkpt><trkpt lat="43.095205" lon="13.49562"><ele>213.5</ele><time>2026-03-22T12:37:51.897Z</time></trkpt><trkpt lat="43.0953367" lon="13.4956767"><ele>213.75</ele><time>2026-03-22T12:37:52.897Z</time></trkpt><trkpt lat="43.095485" lon="13.4957183"><ele>214.0</ele><time>2026-03-22T12:37:53.898Z</time></trkpt><trkpt lat="43.095625" lon="13.4957833"><ele>214.0</ele><time>2026-03-22T12:37:54.898Z</time></trkpt><trkpt lat="43.0957767" lon="13.4958367"><ele>214.0</ele><time>2026-03-22T12:37:55.898Z</time></trkpt><trkpt lat="43.0959367" lon="13.4958967"><ele>214.0</ele><time>2026-03-22T12:37:56.898Z</time></trkpt><trkpt lat="43.0960883" lon="13.4959483"><ele>214.0</ele><time>2026-03-22T12:37:57.898Z</time></trkpt><trkpt lat="43.0962417" lon="13.4960033"><ele>214.0</ele><time>2026-03-22T12:37:58.897Z</time></trkpt><trkpt lat="43.0963817" lon="13.4960567"><ele>214.0</ele><time>2026-03-22T12:37:59.898Z</time></trkpt><trkpt lat="43.0965317" lon="13.496095"><ele>214.0</ele><time>2026-03-22T12:38:00.898Z</time></trkpt><trkpt lat="43.09669" lon="13.49614"><ele>214.0</ele><time>2026-03-22T12:38:01.898Z</time></trkpt><trkpt lat="43.096845" lon="13.4962"><ele>214.0</ele><time>2026-03-22T12:38:02.897Z</time></trkpt><trkpt lat="43.09699" lon="13.4962617"><ele>214.0</ele><time>2026-03-22T12:38:03.897Z</time></trkpt><trkpt lat="43.097145" lon="13.4963133"><ele>214.0</ele><time>2026-03-22T12:38:04.898Z</time></trkpt><trkpt lat="43.0973017" lon="13.4963617"><ele>214.0</ele><time>2026-03-22T12:38:05.898Z</time></trkpt><trkpt lat="43.097445" lon="13.49641"><ele>214.0</ele><time>2026-03-22T12:38:06.897Z</time></trkpt><trkpt lat="43.09759" lon="13.49645"><ele>214.0</ele><time>2026-03-22T12:38:07.898Z</time></trkpt><trkpt lat="43.0977417" lon="13.4965167"><ele>214.0</ele><time>2026-03-22T12:38:08.897Z</time></trkpt><trkpt lat="43.097895" lon="13.4965667"><ele>214.0</ele><time>2026-03-22T12:38:09.898Z</time></trkpt><trkpt lat="43.0980517" lon="13.4966233"><ele>214.0</ele><time>2026-03-22T12:38:10.897Z</time></trkpt><trkpt lat="43.0982" lon="13.4966867"><ele>214.0</ele><time>2026-03-22T12:38:11.897Z</time></trkpt><trkpt lat="43.0983467" lon="13.49677"><ele>213.33333333333331</ele><time>2026-03-22T12:38:12.897Z</time></trkpt><trkpt lat="43.0984883" lon="13.4968467"><ele>212.66666666666669</ele><time>2026-03-22T12:38:13.898Z</time></trkpt><trkpt lat="43.0986433" lon="13.4969333"><ele>212.0</ele><time>2026-03-22T12:38:14.898Z</time></trkpt><trkpt lat="43.098795" lon="13.497015"><ele>211.33333333333334</ele><time>2026-03-22T12:38:15.898Z</time></trkpt><trkpt lat="43.0989367" lon="13.4971067"><ele>210.66666666666669</ele><time>2026-03-22T12:38:16.898Z</time></trkpt><trkpt lat="43.0990783" lon="13.4972117"><ele>210.0</ele><time>2026-03-22T12:38:17.898Z</time></trkpt><trkpt lat="43.0992233" lon="13.4972817"><ele>209.66666666666669</ele><time>2026-03-22T12:38:18.897Z</time></trkpt><trkpt lat="43.0993583" lon="13.49738"><ele>209.33333333333334</ele><time>2026-03-22T12:38:19.897Z</time></trkpt><trkpt lat="43.09949" lon="13.4974717"><ele>209.0</ele><time>2026-03-22T12:38:20.898Z</time></trkpt><trkpt lat="43.099635" lon="13.4975767"><ele>209.0</ele><time>2026-03-22T12:38:21.898Z</time></trkpt><trkpt lat="43.0997667" lon="13.4976567"><ele>209.0</ele><time>2026-03-22T12:38:22.898Z</time></trkpt><trkpt lat="43.0999017" lon="13.49775"><ele>209.0</ele><time>2026-03-22T12:38:23.898Z</time></trkpt><trkpt lat="43.1000233" lon="13.4978617"><ele>209.0</ele><time>2026-03-22T12:38:24.897Z</time></trkpt><trkpt lat="43.1001383" lon="13.4979567"><ele>210.0</ele><time>2026-03-22T12:38:25.898Z</time></trkpt><trkpt lat="43.1002183" lon="13.49809"><ele>211.0</ele><time>2026-03-22T12:38:26.898Z</time></trkpt><trkpt lat="43.100285" lon="13.4982467"><ele>212.0</ele><time>2026-03-22T12:38:27.897Z</time></trkpt><trkpt lat="43.1003383" lon="13.4984183"><ele>213.0</ele><time>2026-03-22T12:38:28.898Z</time></trkpt><trkpt lat="43.1003917" lon="13.4986183"><ele>213.0</ele><time>2026-03-22T12:38:29.898Z</time></trkpt><trkpt lat="43.100445" lon="13.4988233"><ele>213.0</ele><time>2026-03-22T12:38:30.898Z</time></trkpt><trkpt lat="43.1005017" lon="13.49903"><ele>213.0</ele><time>2026-03-22T12:38:31.898Z</time></trkpt><trkpt lat="43.1005667" lon="13.4992417"><ele>213.0</ele><time>2026-03-22T12:38:32.898Z</time></trkpt><trkpt lat="43.1006333" lon="13.4994533"><ele>213.0</ele><time>2026-03-22T12:38:33.897Z</time></trkpt><trkpt lat="43.1006933" lon="13.4996667"><ele>213.0</ele><time>2026-03-22T12:38:34.898Z</time></trkpt><trkpt lat="43.1007467" lon="13.49989"><ele>213.33333333333331</ele><time>2026-03-22T12:38:35.898Z</time></trkpt><trkpt lat="43.100815" lon="13.5000967"><ele>213.66666666666666</ele><time>2026-03-22T12:38:36.898Z</time></trkpt><trkpt lat="43.10089" lon="13.5003083"><ele>214.0</ele><time>2026-03-22T12:38:37.897Z</time></trkpt><trkpt lat="43.100975" lon="13.5005417"><ele>211.33333333333331</ele><time>2026-03-22T12:38:38.897Z</time></trkpt><trkpt lat="43.101035" lon="13.500765"><ele>208.66666666666669</ele><time>2026-03-22T12:38:39.898Z</time></trkpt><trkpt lat="43.1011083" lon="13.500985"><ele>206.0</ele><time>2026-03-22T12:38:40.898Z</time></trkpt><trkpt lat="43.1011533" lon="13.5011967"><ele>205.0</ele><time>2026-03-22T12:38:41.898Z</time></trkpt><trkpt lat="43.10118" lon="13.501425"><ele>204.0</ele><time>2026-03-22T12:38:42.898Z</time></trkpt><trkpt lat="43.1012233" lon="13.5016417"><ele>203.0</ele><time>2026-03-22T12:38:43.897Z</time></trkpt><trkpt lat="43.1012733" lon="13.501875"><ele>204.0</ele><time>2026-03-22T12:38:44.897Z</time></trkpt><trkpt lat="43.1013183" lon="13.5021067"><ele>205.0</ele><time>2026-03-22T12:38:45.898Z</time></trkpt><trkpt lat="43.1013467" lon="13.5023583"><ele>206.0</ele><time>2026-03-22T12:38:46.898Z</time></trkpt><trkpt lat="43.1013783" lon="13.5026117"><ele>206.0</ele><time>2026-03-22T12:38:47.897Z</time></trkpt><trkpt lat="43.1014067" lon="13.5028433"><ele>206.0</ele><time>2026-03-22T12:38:48.898Z</time></trkpt><trkpt lat="43.1014333" lon="13.503085"><ele>206.0</ele><time>2026-03-22T12:38:49.898Z</time></trkpt><trkpt lat="43.1014483" lon="13.5033317"><ele>206.0</ele><time>2026-03-22T12:38:50.898Z</time></trkpt><trkpt lat="43.1014583" lon="13.5035833"><ele>206.0</ele><time>2026-03-22T12:38:51.898Z</time></trkpt><trkpt lat="43.10149" lon="13.5038217"><ele>206.0</ele><time>2026-03-22T12:38:52.897Z</time></trkpt><trkpt lat="43.1014917" lon="13.504065"><ele>205.33333333333334</ele><time>2026-03-22T12:38:53.898Z</time></trkpt><trkpt lat="43.1014967" lon="13.504315"><ele>204.66666666666669</ele><time>2026-03-22T12:38:54.898Z</time></trkpt><trkpt lat="43.1015117" lon="13.50457"><ele>204.0</ele><time>2026-03-22T12:38:55.897Z</time></trkpt><trkpt lat="43.1015183" lon="13.504825"><ele>204.0</ele><time>2026-03-22T12:38:56.897Z</time></trkpt><trkpt lat="43.1015167" lon="13.50508"><ele>204.0</ele><time>2026-03-22T12:38:57.898Z</time></trkpt><trkpt lat="43.10151" lon="13.5053417"><ele>204.0</ele><time>2026-03-22T12:38:58.897Z</time></trkpt><trkpt lat="43.101505" lon="13.5056"><ele>204.0</ele><time>2026-03-22T12:38:59.898Z</time></trkpt><trkpt lat="43.1014883" lon="13.505855"><ele>204.0</ele><time>2026-03-22T12:39:00.897Z</time></trkpt><trkpt lat="43.1014717" lon="13.5060867"><ele>204.0</ele><time>2026-03-22T12:39:01.897Z</time></trkpt><trkpt lat="43.1014417" lon="13.5063417"><ele>203.66666666666669</ele><time>2026-03-22T12:39:02.898Z</time></trkpt><trkpt lat="43.101415" lon="13.50659"><ele>203.33333333333334</ele><time>2026-03-22T12:39:03.898Z</time></trkpt><trkpt lat="43.1013867" lon="13.50685"><ele>203.0</ele><time>2026-03-22T12:39:04.897Z</time></trkpt><trkpt lat="43.1013717" lon="13.50711"><ele>202.66666666666669</ele><time>2026-03-22T12:39:05.898Z</time></trkpt><trkpt lat="43.1013567" lon="13.5073633"><ele>202.33333333333331</ele><time>2026-03-22T12:39:06.898Z</time></trkpt><trkpt lat="43.1013433" lon="13.507605"><ele>202.0</ele><time>2026-03-22T12:39:07.898Z</time></trkpt><trkpt lat="43.1013133" lon="13.5078767"><ele>202.0</ele><time>2026-03-22T12:39:08.898Z</time></trkpt><trkpt lat="43.1012817" lon="13.50813"><ele>202.0</ele><time>2026-03-22T12:39:09.898Z</time></trkpt><trkpt lat="43.1012517" lon="13.5083567"><ele>202.0</ele><time>2026-03-22T12:39:10.898Z</time></trkpt><trkpt lat="43.101225" lon="13.50859"><ele>201.66666666666666</ele><time>2026-03-22T12:39:11.897Z</time></trkpt><trkpt lat="43.10121" lon="13.508835"><ele>201.33333333333331</ele><time>2026-03-22T12:39:12.898Z</time></trkpt><trkpt lat="43.1011933" lon="13.5090717"><ele>201.0</ele><time>2026-03-22T12:39:13.898Z</time></trkpt><trkpt lat="43.1011967" lon="13.5093167"><ele>201.0</ele><time>2026-03-22T12:39:14.897Z</time></trkpt><trkpt lat="43.1012117" lon="13.5095567"><ele>201.0</ele><time>2026-03-22T12:39:15.897Z</time></trkpt><trkpt lat="43.1012383" lon="13.509815"><ele>201.0</ele><time>2026-03-22T12:39:16.898Z</time></trkpt><trkpt lat="43.1012867" lon="13.5100717"><ele>200.0</ele><time>2026-03-22T12:39:17.898Z</time></trkpt><trkpt lat="43.1013333" lon="13.5103267"><ele>199.0</ele><time>2026-03-22T12:39:18.897Z</time></trkpt><trkpt lat="43.1013783" lon="13.5105783"><ele>198.0</ele><time>2026-03-22T12:39:19.897Z</time></trkpt><trkpt lat="43.1014333" lon="13.5108283"><ele>198.0</ele><time>2026-03-22T12:39:20.898Z</time></trkpt><trkpt lat="43.101485" lon="13.5110783"><ele>198.0</ele><time>2026-03-22T12:39:21.898Z</time></trkpt><trkpt lat="43.1015433" lon="13.5113283"><ele>198.0</ele><time>2026-03-22T12:39:22.897Z</time></trkpt><trkpt lat="43.101605" lon="13.511575"><ele>198.0</ele><time>2026-03-22T12:39:23.898Z</time></trkpt><trkpt lat="43.10167" lon="13.5118233"><ele>198.0</ele><time>2026-03-22T12:39:24.897Z</time></trkpt><trkpt lat="43.10173" lon="13.512065"><ele>198.0</ele><time>2026-03-22T12:39:25.897Z</time></trkpt><trkpt lat="43.1017883" lon="13.5123083"><ele>198.0</ele><time>2026-03-22T12:39:26.897Z</time></trkpt><trkpt lat="43.101835" lon="13.5125533"><ele>198.0</ele><time>2026-03-22T12:39:27.898Z</time></trkpt><trkpt lat="43.1018933" lon="13.5128167"><ele>198.0</ele><time>2026-03-22T12:39:28.898Z</time></trkpt><trkpt lat="43.101955" lon="13.5130667"><ele>196.33333333333331</ele><time>2026-03-22T12:39:29.898Z</time></trkpt><trkpt lat="43.1020183" lon="13.5133133"><ele>194.66666666666666</ele><time>2026-03-22T12:39:30.898Z</time></trkpt><trkpt lat="43.1020683" lon="13.5135617"><ele>193.0</ele><time>2026-03-22T12:39:31.898Z</time></trkpt><trkpt lat="43.1021133" lon="13.5138033"><ele>192.66666666666666</ele><time>2026-03-22T12:39:32.898Z</time></trkpt><trkpt lat="43.102145" lon="13.514045"><ele>192.33333333333331</ele><time>2026-03-22T12:39:33.898Z</time></trkpt><trkpt lat="43.1021917" lon="13.5142933"><ele>192.0</ele><time>2026-03-22T12:39:34.897Z</time></trkpt><trkpt lat="43.102225" lon="13.5145483"><ele>191.33333333333334</ele><time>2026-03-22T12:39:35.897Z</time></trkpt><trkpt lat="43.1022533" lon="13.51479"><ele>190.66666666666669</ele><time>2026-03-22T12:39:36.898Z</time></trkpt><trkpt lat="43.1022883" lon="13.5150383"><ele>190.0</ele><time>2026-03-22T12:39:37.897Z</time></trkpt><trkpt lat="43.1023267" lon="13.515295"><ele>189.66666666666669</ele><time>2026-03-22T12:39:38.898Z</time></trkpt><trkpt lat="43.1023683" lon="13.51553"><ele>189.33333333333334</ele><time>2026-03-22T12:39:39.897Z</time></trkpt><trkpt lat="43.10241" lon="13.5157767"><ele>189.0</ele><time>2026-03-22T12:39:40.897Z</time></trkpt><trkpt lat="43.10245" lon="13.5160183"><ele>189.66666666666666</ele><time>2026-03-22T12:39:41.898Z</time></trkpt><trkpt lat="43.1024833" lon="13.5162667"><ele>190.33333333333331</ele><time>2026-03-22T12:39:42.897Z</time></trkpt><trkpt lat="43.102515" lon="13.516515"><ele>191.0</ele><time>2026-03-22T12:39:43.898Z</time></trkpt><trkpt lat="43.102565" lon="13.51675"><ele>191.0</ele><time>2026-03-22T12:39:44.898Z</time></trkpt><trkpt lat="43.1026167" lon="13.517"><ele>191.0</ele><time>2026-03-22T12:39:45.897Z</time></trkpt><trkpt lat="43.10266" lon="13.517255"><ele>191.0</ele><time>2026-03-22T12:39:46.898Z</time></trkpt><trkpt lat="43.1027" lon="13.5175"><ele>190.66666666666666</ele><time>2026-03-22T12:39:47.898Z</time></trkpt><trkpt lat="43.1027433" lon="13.517745"><ele>190.33333333333334</ele><time>2026-03-22T12:39:48.898Z</time></trkpt><trkpt lat="43.1027867" lon="13.5179883"><ele>190.0</ele><time>2026-03-22T12:39:49.898Z</time></trkpt><trkpt lat="43.1028117" lon="13.5182433"><ele>189.66666666666669</ele><time>2026-03-22T12:39:50.897Z</time></trkpt><trkpt lat="43.1028567" lon="13.5184867"><ele>189.33333333333334</ele><time>2026-03-22T12:39:51.898Z</time></trkpt><trkpt lat="43.1029033" lon="13.5187283"><ele>189.0</ele><time>2026-03-22T12:39:52.898Z</time></trkpt><trkpt lat="43.10294" lon="13.518975"><ele>188.66666666666666</ele><time>2026-03-22T12:39:53.898Z</time></trkpt><trkpt lat="43.1029833" lon="13.5192233"><ele>188.33333333333331</ele><time>2026-03-22T12:39:54.898Z</time></trkpt><trkpt lat="43.1029967" lon="13.5194833"><ele>188.0</ele><time>2026-03-22T12:39:55.898Z</time></trkpt><trkpt lat="43.1030383" lon="13.5197417"><ele>187.33333333333331</ele><time>2026-03-22T12:39:56.897Z</time></trkpt><trkpt lat="43.1030917" lon="13.5199883"><ele>186.66666666666666</ele><time>2026-03-22T12:39:57.898Z</time></trkpt><trkpt lat="43.1031467" lon="13.520235"><ele>186.0</ele><time>2026-03-22T12:39:58.898Z</time></trkpt><trkpt lat="43.1031833" lon="13.5204733"><ele>185.0</ele><time>2026-03-22T12:39:59.897Z</time></trkpt><trkpt lat="43.103215" lon="13.520735"><ele>184.0</ele><time>2026-03-22T12:40:00.898Z</time></trkpt><trkpt lat="43.1032267" lon="13.5210117"><ele>183.0</ele><time>2026-03-22T12:40:01.898Z</time></trkpt><trkpt lat="43.103225" lon="13.5212817"><ele>182.66666666666666</ele><time>2026-03-22T12:40:02.897Z</time></trkpt><trkpt lat="43.103215" lon="13.5215433"><ele>182.33333333333331</ele><time>2026-03-22T12:40:03.898Z</time></trkpt><trkpt lat="43.1032033" lon="13.5218133"><ele>182.0</ele><time>2026-03-22T12:40:04.898Z</time></trkpt><trkpt lat="43.10319" lon="13.522075"><ele>182.0</ele><time>2026-03-22T12:40:05.898Z</time></trkpt><trkpt lat="43.1031767" lon="13.5223383"><ele>182.0</ele><time>2026-03-22T12:40:06.898Z</time></trkpt><trkpt lat="43.1031633" lon="13.5226083"><ele>182.0</ele><time>2026-03-22T12:40:07.898Z</time></trkpt><trkpt lat="43.1031467" lon="13.52287"><ele>182.66666666666666</ele><time>2026-03-22T12:40:08.897Z</time></trkpt><trkpt lat="43.1031267" lon="13.5231267"><ele>183.33333333333334</ele><time>2026-03-22T12:40:09.898Z</time></trkpt><trkpt lat="43.1031067" lon="13.5233883"><ele>184.0</ele><time>2026-03-22T12:40:10.897Z</time></trkpt><trkpt lat="43.1030883" lon="13.5236467"><ele>184.33333333333334</ele><time>2026-03-22T12:40:11.898Z</time></trkpt><trkpt lat="43.1030533" lon="13.52391"><ele>184.66666666666666</ele><time>2026-03-22T12:40:12.898Z</time></trkpt><trkpt lat="43.103035" lon="13.5241683"><ele>185.0</ele><time>2026-03-22T12:40:13.897Z</time></trkpt><trkpt lat="43.1030267" lon="13.52442"><ele>184.66666666666666</ele><time>2026-03-22T12:40:14.897Z</time></trkpt><trkpt lat="43.1030117" lon="13.5246783"><ele>184.33333333333334</ele><time>2026-03-22T12:40:15.898Z</time></trkpt><trkpt lat="43.1029967" lon="13.5249183"><ele>184.0</ele><time>2026-03-22T12:40:16.897Z</time></trkpt><trkpt lat="43.10298" lon="13.525175"><ele>183.66666666666669</ele><time>2026-03-22T12:40:17.898Z</time></trkpt><trkpt lat="43.1029683" lon="13.525435"><ele>183.33333333333334</ele><time>2026-03-22T12:40:18.897Z</time></trkpt><trkpt lat="43.102955" lon="13.5257017"><ele>183.0</ele><time>2026-03-22T12:40:19.898Z</time></trkpt><trkpt lat="43.1029333" lon="13.5259467"><ele>183.0</ele><time>2026-03-22T12:40:20.898Z</time></trkpt><trkpt lat="43.1029167" lon="13.5261983"><ele>183.0</ele><time>2026-03-22T12:40:21.898Z</time></trkpt><trkpt lat="43.102895" lon="13.526445"><ele>183.0</ele><time>2026-03-22T12:40:22.898Z</time></trkpt><trkpt lat="43.1028783" lon="13.5267083"><ele>182.0</ele><time>2026-03-22T12:40:23.898Z</time></trkpt><trkpt lat="43.10285" lon="13.5269767"><ele>181.0</ele><time>2026-03-22T12:40:24.898Z</time></trkpt><trkpt lat="43.1028383" lon="13.5272333"><ele>180.0</ele><time>2026-03-22T12:40:25.898Z</time></trkpt><trkpt lat="43.1028333" lon="13.5274833"><ele>179.66666666666666</ele><time>2026-03-22T12:40:26.897Z</time></trkpt><trkpt lat="43.10282" lon="13.5277317"><ele>179.33333333333331</ele><time>2026-03-22T12:40:27.898Z</time></trkpt><trkpt lat="43.102805" lon="13.52798"><ele>179.0</ele><time>2026-03-22T12:40:28.897Z</time></trkpt><trkpt lat="43.10279" lon="13.52823"><ele>179.0</ele><time>2026-03-22T12:40:29.898Z</time></trkpt><trkpt lat="43.1027733" lon="13.5284883"><ele>179.0</ele><time>2026-03-22T12:40:30.897Z</time></trkpt><trkpt lat="43.1027483" lon="13.5287367"><ele>179.0</ele><time>2026-03-22T12:40:31.898Z</time></trkpt><trkpt lat="43.1027317" lon="13.5289833"><ele>178.66666666666666</ele><time>2026-03-22T12:40:32.897Z</time></trkpt><trkpt lat="43.1027233" lon="13.5292383"><ele>178.33333333333334</ele><time>2026-03-22T12:40:33.898Z</time></trkpt><trkpt lat="43.10271" lon="13.5294933"><ele>178.0</ele><time>2026-03-22T12:40:34.898Z</time></trkpt><trkpt lat="43.1026917" lon="13.529755"><ele>176.66666666666669</ele><time>2026-03-22T12:40:35.898Z</time></trkpt><trkpt lat="43.1026583" lon="13.53"><ele>175.33333333333334</ele><time>2026-03-22T12:40:36.898Z</time></trkpt><trkpt lat="43.102605" lon="13.5302533"><ele>174.0</ele><time>2026-03-22T12:40:37.898Z</time></trkpt><trkpt lat="43.1025383" lon="13.5305083"><ele>173.33333333333334</ele><time>2026-03-22T12:40:38.898Z</time></trkpt><trkpt lat="43.1024567" lon="13.530755"><ele>172.66666666666669</ele><time>2026-03-22T12:40:39.898Z</time></trkpt><trkpt lat="43.1023633" lon="13.5309967"><ele>172.0</ele><time>2026-03-22T12:40:40.897Z</time></trkpt><trkpt lat="43.1022583" lon="13.5312233"><ele>171.66666666666669</ele><time>2026-03-22T12:40:41.897Z</time></trkpt><trkpt lat="43.1021617" lon="13.5314567"><ele>171.33333333333334</ele><time>2026-03-22T12:40:42.898Z</time></trkpt><trkpt lat="43.1020533" lon="13.5316767"><ele>171.0</ele><time>2026-03-22T12:40:43.897Z</time></trkpt><trkpt lat="43.1019333" lon="13.5319017"><ele>170.66666666666666</ele><time>2026-03-22T12:40:44.898Z</time></trkpt><trkpt lat="43.10184" lon="13.53213"><ele>170.33333333333331</ele><time>2026-03-22T12:40:45.898Z</time></trkpt><trkpt lat="43.101765" lon="13.5323733"><ele>170.0</ele><time>2026-03-22T12:40:46.897Z</time></trkpt><trkpt lat="43.1017267" lon="13.532615"><ele>170.0</ele><time>2026-03-22T12:40:47.898Z</time></trkpt><trkpt lat="43.1017067" lon="13.5328633"><ele>170.0</ele><time>2026-03-22T12:40:48.898Z</time></trkpt><trkpt lat="43.1017083" lon="13.5331167"><ele>170.0</ele><time>2026-03-22T12:40:49.898Z</time></trkpt><trkpt lat="43.1017267" lon="13.5333817"><ele>169.33333333333331</ele><time>2026-03-22T12:40:50.898Z</time></trkpt><trkpt lat="43.1017617" lon="13.53365"><ele>168.66666666666666</ele><time>2026-03-22T12:40:51.898Z</time></trkpt><trkpt lat="43.1018117" lon="13.5339267"><ele>168.0</ele><time>2026-03-22T12:40:52.898Z</time></trkpt><trkpt lat="43.10187" lon="13.5341883"><ele>167.33333333333334</ele><time>2026-03-22T12:40:53.898Z</time></trkpt><trkpt lat="43.1019333" lon="13.5344367"><ele>166.66666666666669</ele><time>2026-03-22T12:40:54.898Z</time></trkpt><trkpt lat="43.101985" lon="13.5347"><ele>166.0</ele><time>2026-03-22T12:40:55.897Z</time></trkpt><trkpt lat="43.1020933" lon="13.53523"><ele>165.66666666666669</ele><time>2026-03-22T12:40:57.898Z</time></trkpt><trkpt lat="43.1021433" lon="13.5354967"><ele>165.33333333333334</ele><time>2026-03-22T12:40:58.898Z</time></trkpt><trkpt lat="43.1021933" lon="13.53576"><ele>165.0</ele><time>2026-03-22T12:40:59.897Z</time></trkpt><trkpt lat="43.1022517" lon="13.5360017"><ele>165.0</ele><time>2026-03-22T12:41:00.898Z</time></trkpt><trkpt lat="43.102295" lon="13.5362433"><ele>165.0</ele><time>2026-03-22T12:41:01.898Z</time></trkpt><trkpt lat="43.1023567" lon="13.5365067"><ele>165.0</ele><time>2026-03-22T12:41:02.898Z</time></trkpt><trkpt lat="43.1024" lon="13.5367833"><ele>166.0</ele><time>2026-03-22T12:41:03.898Z</time></trkpt><trkpt lat="43.1024417" lon="13.5370483"><ele>167.0</ele><time>2026-03-22T12:41:04.898Z</time></trkpt><trkpt lat="43.1024917" lon="13.5373183"><ele>168.0</ele><time>2026-03-22T12:41:05.898Z</time></trkpt><trkpt lat="43.1025467" lon="13.537585"><ele>168.0</ele><time>2026-03-22T12:41:06.898Z</time></trkpt><trkpt lat="43.1026083" lon="13.53784"><ele>168.0</ele><time>2026-03-22T12:41:07.898Z</time></trkpt><trkpt lat="43.1026733" lon="13.5380867"><ele>168.0</ele><time>2026-03-22T12:41:08.898Z</time></trkpt><trkpt lat="43.102725" lon="13.5383317"><ele>168.0</ele><time>2026-03-22T12:41:09.898Z</time></trkpt><trkpt lat="43.1027817" lon="13.5385683"><ele>168.0</ele><time>2026-03-22T12:41:10.898Z</time></trkpt><trkpt lat="43.1028417" lon="13.5388"><ele>168.0</ele><time>2026-03-22T12:41:11.898Z</time></trkpt><trkpt lat="43.1028867" lon="13.5390417"><ele>168.0</ele><time>2026-03-22T12:41:12.898Z</time></trkpt><trkpt lat="43.102945" lon="13.539265"><ele>168.0</ele><time>2026-03-22T12:41:13.897Z</time></trkpt><trkpt lat="43.1029983" lon="13.5394867"><ele>168.0</ele><time>2026-03-22T12:41:14.898Z</time></trkpt><trkpt lat="43.1030467" lon="13.5396983"><ele>167.75</ele><time>2026-03-22T12:41:15.897Z</time></trkpt><trkpt lat="43.10309" lon="13.5398933"><ele>167.5</ele><time>2026-03-22T12:41:16.897Z</time></trkpt><trkpt lat="43.10314" lon="13.5400767"><ele>167.25</ele><time>2026-03-22T12:41:17.898Z</time></trkpt><trkpt lat="43.103185" lon="13.54024"><ele>167.0</ele><time>2026-03-22T12:41:18.898Z</time></trkpt><trkpt lat="43.1032117" lon="13.540405"><ele>166.6</ele><time>2026-03-22T12:41:19.897Z</time></trkpt><trkpt lat="43.1032317" lon="13.5405617"><ele>166.2</ele><time>2026-03-22T12:41:20.898Z</time></trkpt><trkpt lat="43.1032533" lon="13.540705"><ele>165.8</ele><time>2026-03-22T12:41:21.898Z</time></trkpt><trkpt lat="43.1032883" lon="13.540835"><ele>165.4</ele><time>2026-03-22T12:41:22.897Z</time></trkpt><trkpt lat="43.1033467" lon="13.5409583"><ele>165.0</ele><time>2026-03-22T12:41:23.898Z</time></trkpt><trkpt lat="43.1034167" lon="13.54109"><ele>166.25</ele><time>2026-03-22T12:41:24.897Z</time></trkpt><trkpt lat="43.1034867" lon="13.5412317"><ele>167.5</ele><time>2026-03-22T12:41:25.898Z</time></trkpt><trkpt lat="43.1035633" lon="13.5413867"><ele>168.75</ele><time>2026-03-22T12:41:26.897Z</time></trkpt><trkpt lat="43.1036333" lon="13.541555"><ele>170.0</ele><time>2026-03-22T12:41:27.897Z</time></trkpt><trkpt lat="43.1037083" lon="13.5417367"><ele>170.0</ele><time>2026-03-22T12:41:28.897Z</time></trkpt><trkpt lat="43.10378" lon="13.5419217"><ele>170.0</ele><time>2026-03-22T12:41:29.898Z</time></trkpt><trkpt lat="43.1038683" lon="13.542095"><ele>170.0</ele><time>2026-03-22T12:41:30.898Z</time></trkpt><trkpt lat="43.1039467" lon="13.542275"><ele>170.33333333333331</ele><time>2026-03-22T12:41:31.898Z</time></trkpt><trkpt lat="43.1040283" lon="13.54246"><ele>170.66666666666666</ele><time>2026-03-22T12:41:32.898Z</time></trkpt><trkpt lat="43.104105" lon="13.5426467"><ele>171.0</ele><time>2026-03-22T12:41:33.898Z</time></trkpt><trkpt lat="43.104185" lon="13.5428367"><ele>170.66666666666666</ele><time>2026-03-22T12:41:34.898Z</time></trkpt><trkpt lat="43.1042683" lon="13.5430217"><ele>170.33333333333331</ele><time>2026-03-22T12:41:35.897Z</time></trkpt><trkpt lat="43.104355" lon="13.5432217"><ele>170.0</ele><time>2026-03-22T12:41:36.897Z</time></trkpt><trkpt lat="43.1044433" lon="13.543415"><ele>170.0</ele><time>2026-03-22T12:41:37.898Z</time></trkpt><trkpt lat="43.1045283" lon="13.5436167"><ele>170.0</ele><time>2026-03-22T12:41:38.897Z</time></trkpt><trkpt lat="43.1046067" lon="13.5438117"><ele>170.0</ele><time>2026-03-22T12:41:39.897Z</time></trkpt><trkpt lat="43.1046867" lon="13.5440083"><ele>170.0</ele><time>2026-03-22T12:41:40.898Z</time></trkpt><trkpt lat="43.1047733" lon="13.5442"><ele>170.0</ele><time>2026-03-22T12:41:41.897Z</time></trkpt><trkpt lat="43.1048617" lon="13.544395"><ele>170.0</ele><time>2026-03-22T12:41:42.898Z</time></trkpt><trkpt lat="43.1049467" lon="13.5445967"><ele>170.0</ele><time>2026-03-22T12:41:43.898Z</time></trkpt><trkpt lat="43.105035" lon="13.5447983"><ele>170.0</ele><time>2026-03-22T12:41:44.897Z</time></trkpt><trkpt lat="43.1051183" lon="13.54499"><ele>170.0</ele><time>2026-03-22T12:41:45.898Z</time></trkpt><trkpt lat="43.1052017" lon="13.5451867"><ele>169.33333333333331</ele><time>2026-03-22T12:41:46.898Z</time></trkpt><trkpt lat="43.1052783" lon="13.5454017"><ele>168.66666666666666</ele><time>2026-03-22T12:41:47.898Z</time></trkpt><trkpt lat="43.10537" lon="13.545605"><ele>168.0</ele><time>2026-03-22T12:41:48.898Z</time></trkpt><trkpt lat="43.1054567" lon="13.5458167"><ele>168.0</ele><time>2026-03-22T12:41:49.898Z</time></trkpt><trkpt lat="43.10554" lon="13.5460267"><ele>168.0</ele><time>2026-03-22T12:41:50.897Z</time></trkpt><trkpt lat="43.1056367" lon="13.5462433"><ele>168.0</ele><time>2026-03-22T12:41:51.898Z</time></trkpt><trkpt lat="43.10573" lon="13.5464633"><ele>167.0</ele><time>2026-03-22T12:41:52.898Z</time></trkpt><trkpt lat="43.1058117" lon="13.5466683"><ele>166.0</ele><time>2026-03-22T12:41:53.898Z</time></trkpt><trkpt lat="43.1059" lon="13.546875"><ele>165.0</ele><time>2026-03-22T12:41:54.898Z</time></trkpt><trkpt lat="43.1059833" lon="13.5470767"><ele>165.0</ele><time>2026-03-22T12:41:55.897Z</time></trkpt><trkpt lat="43.10607" lon="13.5472767"><ele>165.0</ele><time>2026-03-22T12:41:56.897Z</time></trkpt><trkpt lat="43.1061433" lon="13.5475017"><ele>165.0</ele><time>2026-03-22T12:41:57.898Z</time></trkpt><trkpt lat="43.10622" lon="13.5477067"><ele>165.33333333333334</ele><time>2026-03-22T12:41:58.898Z</time></trkpt><trkpt lat="43.1063133" lon="13.5479017"><ele>165.66666666666669</ele><time>2026-03-22T12:41:59.897Z</time></trkpt><trkpt lat="43.1064083" lon="13.548105"><ele>166.0</ele><time>2026-03-22T12:42:00.897Z</time></trkpt><trkpt lat="43.1064967" lon="13.5482967"><ele>166.0</ele><time>2026-03-22T12:42:01.898Z</time></trkpt><trkpt lat="43.106575" lon="13.548485"><ele>166.0</ele><time>2026-03-22T12:42:02.898Z</time></trkpt><trkpt lat="43.10665" lon="13.5486683"><ele>166.0</ele><time>2026-03-22T12:42:03.898Z</time></trkpt><trkpt lat="43.1067283" lon="13.5488433"><ele>166.25</ele><time>2026-03-22T12:42:04.898Z</time></trkpt><trkpt lat="43.1068017" lon="13.5490267"><ele>166.5</ele><time>2026-03-22T12:42:05.897Z</time></trkpt><trkpt lat="43.10687" lon="13.5492083"><ele>166.75</ele><time>2026-03-22T12:42:06.898Z</time></trkpt><trkpt lat="43.1069367" lon="13.54938"><ele>167.0</ele><time>2026-03-22T12:42:07.898Z</time></trkpt><trkpt lat="43.1070083" lon="13.5495667"><ele>167.0</ele><time>2026-03-22T12:42:08.898Z</time></trkpt><trkpt lat="43.1070833" lon="13.5497517"><ele>167.0</ele><time>2026-03-22T12:42:09.897Z</time></trkpt><trkpt lat="43.1071633" lon="13.5499333"><ele>167.0</ele><time>2026-03-22T12:42:10.898Z</time></trkpt><trkpt lat="43.107235" lon="13.5501217"><ele>167.0</ele><time>2026-03-22T12:42:11.898Z</time></trkpt><trkpt lat="43.10731" lon="13.550315"><ele>167.0</ele><time>2026-03-22T12:42:12.898Z</time></trkpt><trkpt lat="43.1073867" lon="13.5505067"><ele>167.0</ele><time>2026-03-22T12:42:13.898Z</time></trkpt><trkpt lat="43.1074733" lon="13.5506917"><ele>166.66666666666666</ele><time>2026-03-22T12:42:14.897Z</time></trkpt><trkpt lat="43.1075583" lon="13.55089"><ele>166.33333333333334</ele><time>2026-03-22T12:42:15.897Z</time></trkpt><trkpt lat="43.1076433" lon="13.5510867"><ele>166.0</ele><time>2026-03-22T12:42:16.898Z</time></trkpt><trkpt lat="43.1077267" lon="13.551275"><ele>165.33333333333334</ele><time>2026-03-22T12:42:17.897Z</time></trkpt><trkpt lat="43.107795" lon="13.5514683"><ele>164.66666666666666</ele><time>2026-03-22T12:42:18.898Z</time></trkpt><trkpt lat="43.1078767" lon="13.5516567"><ele>164.0</ele><time>2026-03-22T12:42:19.897Z</time></trkpt><trkpt lat="43.1079567" lon="13.55185"><ele>163.66666666666666</ele><time>2026-03-22T12:42:20.897Z</time></trkpt><trkpt lat="43.10803" lon="13.5520633"><ele>163.33333333333334</ele><time>2026-03-22T12:42:21.898Z</time></trkpt><trkpt lat="43.1080967" lon="13.55228"><ele>163.0</ele><time>2026-03-22T12:42:22.898Z</time></trkpt><trkpt lat="43.1081783" lon="13.552485"><ele>163.0</ele><time>2026-03-22T12:42:23.898Z</time></trkpt><trkpt lat="43.1082467" lon="13.5526883"><ele>163.0</ele><time>2026-03-22T12:42:24.898Z</time></trkpt><trkpt lat="43.1083283" lon="13.552885"><ele>163.0</ele><time>2026-03-22T12:42:25.898Z</time></trkpt><trkpt lat="43.1084083" lon="13.5530783"><ele>163.0</ele><time>2026-03-22T12:42:26.898Z</time></trkpt><trkpt lat="43.1084883" lon="13.553285"><ele>163.0</ele><time>2026-03-22T12:42:27.898Z</time></trkpt><trkpt lat="43.108565" lon="13.5534917"><ele>163.0</ele><time>2026-03-22T12:42:28.897Z</time></trkpt><trkpt lat="43.108645" lon="13.5536983"><ele>162.66666666666669</ele><time>2026-03-22T12:42:29.897Z</time></trkpt><trkpt lat="43.1087267" lon="13.5539033"><ele>162.33333333333334</ele><time>2026-03-22T12:42:30.898Z</time></trkpt><trkpt lat="43.108805" lon="13.5541067"><ele>162.0</ele><time>2026-03-22T12:42:31.897Z</time></trkpt><trkpt lat="43.1088833" lon="13.554305"><ele>162.0</ele><time>2026-03-22T12:42:32.897Z</time></trkpt><trkpt lat="43.10896" lon="13.5545067"><ele>162.0</ele><time>2026-03-22T12:42:33.898Z</time></trkpt><trkpt lat="43.10904" lon="13.5547017"><ele>162.0</ele><time>2026-03-22T12:42:34.897Z</time></trkpt><trkpt lat="43.1091233" lon="13.554885"><ele>162.33333333333334</ele><time>2026-03-22T12:42:35.898Z</time></trkpt><trkpt lat="43.109215" lon="13.5550783"><ele>162.66666666666669</ele><time>2026-03-22T12:42:36.898Z</time></trkpt><trkpt lat="43.1092933" lon="13.5552633"><ele>163.0</ele><time>2026-03-22T12:42:37.898Z</time></trkpt><trkpt lat="43.1093833" lon="13.55545"><ele>163.0</ele><time>2026-03-22T12:42:38.898Z</time></trkpt><trkpt lat="43.1094767" lon="13.5556333"><ele>163.0</ele><time>2026-03-22T12:42:39.898Z</time></trkpt><trkpt lat="43.109565" lon="13.5558217"><ele>163.0</ele><time>2026-03-22T12:42:40.897Z</time></trkpt><trkpt lat="43.10965" lon="13.5560083"><ele>161.33333333333334</ele><time>2026-03-22T12:42:41.898Z</time></trkpt><trkpt lat="43.1097317" lon="13.5562033"><ele>159.66666666666666</ele><time>2026-03-22T12:42:42.898Z</time></trkpt><trkpt lat="43.1098133" lon="13.5564017"><ele>158.0</ele><time>2026-03-22T12:42:43.897Z</time></trkpt><trkpt lat="43.109895" lon="13.5566"><ele>159.0</ele><time>2026-03-22T12:42:44.897Z</time></trkpt><trkpt lat="43.1099733" lon="13.55679"><ele>160.0</ele><time>2026-03-22T12:42:45.898Z</time></trkpt><trkpt lat="43.110065" lon="13.5569667"><ele>161.0</ele><time>2026-03-22T12:42:46.898Z</time></trkpt><trkpt lat="43.1101517" lon="13.5571467"><ele>161.0</ele><time>2026-03-22T12:42:47.897Z</time></trkpt><trkpt lat="43.1102383" lon="13.55734"><ele>161.0</ele><time>2026-03-22T12:42:48.898Z</time></trkpt><trkpt lat="43.1103217" lon="13.5575217"><ele>161.0</ele><time>2026-03-22T12:42:49.897Z</time></trkpt><trkpt lat="43.110395" lon="13.5577117"><ele>161.0</ele><time>2026-03-22T12:42:50.898Z</time></trkpt><trkpt lat="43.110485" lon="13.5578933"><ele>161.0</ele><time>2026-03-22T12:42:51.898Z</time></trkpt><trkpt lat="43.1105717" lon="13.5580717"><ele>161.0</ele><time>2026-03-22T12:42:52.897Z</time></trkpt><trkpt lat="43.110665" lon="13.55825"><ele>161.33333333333331</ele><time>2026-03-22T12:42:53.898Z</time></trkpt><trkpt lat="43.110745" lon="13.558435"><ele>161.66666666666666</ele><time>2026-03-22T12:42:54.898Z</time></trkpt><trkpt lat="43.110825" lon="13.558615"><ele>162.0</ele><time>2026-03-22T12:42:55.897Z</time></trkpt><trkpt lat="43.110905" lon="13.5587917"><ele>162.0</ele><time>2026-03-22T12:42:56.898Z</time></trkpt><trkpt lat="43.1109883" lon="13.5589683"><ele>162.0</ele><time>2026-03-22T12:42:57.897Z</time></trkpt><trkpt lat="43.1110667" lon="13.5591433"><ele>162.0</ele><time>2026-03-22T12:42:58.897Z</time></trkpt><trkpt lat="43.11115" lon="13.5593183"><ele>162.0</ele><time>2026-03-22T12:42:59.898Z</time></trkpt><trkpt lat="43.1112267" lon="13.5594833"><ele>162.0</ele><time>2026-03-22T12:43:00.898Z</time></trkpt><trkpt lat="43.1112867" lon="13.5596417"><ele>162.0</ele><time>2026-03-22T12:43:01.898Z</time></trkpt><trkpt lat="43.1113617" lon="13.5597933"><ele>162.0</ele><time>2026-03-22T12:43:02.897Z</time></trkpt><trkpt lat="43.1114317" lon="13.5599483"><ele>161.75</ele><time>2026-03-22T12:43:03.898Z</time></trkpt><trkpt lat="43.1114983" lon="13.5600933"><ele>161.5</ele><time>2026-03-22T12:43:04.898Z</time></trkpt><trkpt lat="43.1115833" lon="13.5602"><ele>161.25</ele><time>2026-03-22T12:43:05.897Z</time></trkpt><trkpt lat="43.1116617" lon="13.5603617"><ele>161.0</ele><time>2026-03-22T12:43:06.897Z</time></trkpt><trkpt lat="43.111745" lon="13.560525"><ele>161.66666666666666</ele><time>2026-03-22T12:43:07.898Z</time></trkpt><trkpt lat="43.11181" lon="13.5606967"><ele>162.33333333333334</ele><time>2026-03-22T12:43:08.898Z</time></trkpt><trkpt lat="43.111895" lon="13.5608767"><ele>163.0</ele><time>2026-03-22T12:43:09.898Z</time></trkpt><trkpt lat="43.1119817" lon="13.5610583"><ele>162.33333333333334</ele><time>2026-03-22T12:43:10.898Z</time></trkpt><trkpt lat="43.1120567" lon="13.561255"><ele>161.66666666666666</ele><time>2026-03-22T12:43:11.898Z</time></trkpt><trkpt lat="43.1121533" lon="13.5614167"><ele>161.0</ele><time>2026-03-22T12:43:12.898Z</time></trkpt><trkpt lat="43.112235" lon="13.5615783"><ele>161.0</ele><time>2026-03-22T12:43:13.897Z</time></trkpt><trkpt lat="43.11233" lon="13.56175"><ele>161.0</ele><time>2026-03-22T12:43:14.898Z</time></trkpt><trkpt lat="43.11242" lon="13.561925"><ele>161.0</ele><time>2026-03-22T12:43:15.898Z</time></trkpt><trkpt lat="43.112515" lon="13.5620833"><ele>160.75</ele><time>2026-03-22T12:43:16.898Z</time></trkpt><trkpt lat="43.1126" lon="13.5622483"><ele>160.5</ele><time>2026-03-22T12:43:17.898Z</time></trkpt><trkpt lat="43.112695" lon="13.5624017"><ele>160.25</ele><time>2026-03-22T12:43:18.897Z</time></trkpt><trkpt lat="43.11278" lon="13.562565"><ele>160.0</ele><time>2026-03-22T12:43:19.897Z</time></trkpt><trkpt lat="43.1128617" lon="13.5627183"><ele>159.5</ele><time>2026-03-22T12:43:20.897Z</time></trkpt><trkpt lat="43.112935" lon="13.5628667"><ele>159.0</ele><time>2026-03-22T12:43:21.897Z</time></trkpt><trkpt lat="43.113015" lon="13.5630067"><ele>158.5</ele><time>2026-03-22T12:43:22.898Z</time></trkpt><trkpt lat="43.113095" lon="13.5631433"><ele>158.0</ele><time>2026-03-22T12:43:23.898Z</time></trkpt><trkpt lat="43.1131633" lon="13.5632667"><ele>158.0</ele><time>2026-03-22T12:43:24.898Z</time></trkpt><trkpt lat="43.113225" lon="13.563385"><ele>158.0</ele><time>2026-03-22T12:43:25.898Z</time></trkpt><trkpt lat="43.1132867" lon="13.5635033"><ele>158.0</ele><time>2026-03-22T12:43:26.898Z</time></trkpt><trkpt lat="43.1133533" lon="13.5636183"><ele>158.0</ele><time>2026-03-22T12:43:27.898Z</time></trkpt><trkpt lat="43.1134217" lon="13.5637383"><ele>158.0</ele><time>2026-03-22T12:43:28.898Z</time></trkpt><trkpt lat="43.1134933" lon="13.56388"><ele>158.0</ele><time>2026-03-22T12:43:29.898Z</time></trkpt><trkpt lat="43.11356" lon="13.5640333"><ele>158.0</ele><time>2026-03-22T12:43:30.897Z</time></trkpt><trkpt lat="43.1136417" lon="13.564185"><ele>158.0</ele><time>2026-03-22T12:43:31.898Z</time></trkpt><trkpt lat="43.1137133" lon="13.5643333"><ele>158.0</ele><time>2026-03-22T12:43:32.897Z</time></trkpt><trkpt lat="43.1137917" lon="13.5644767"><ele>158.0</ele><time>2026-03-22T12:43:33.898Z</time></trkpt><trkpt lat="43.1138633" lon="13.56463"><ele>158.0</ele><time>2026-03-22T12:43:34.898Z</time></trkpt><trkpt lat="43.113945" lon="13.5647933"><ele>158.0</ele><time>2026-03-22T12:43:35.898Z</time></trkpt><trkpt lat="43.1140317" lon="13.564945"><ele>158.0</ele><time>2026-03-22T12:43:36.898Z</time></trkpt><trkpt lat="43.1141067" lon="13.5651117"><ele>157.75</ele><time>2026-03-22T12:43:37.898Z</time></trkpt><trkpt lat="43.1141933" lon="13.5652433"><ele>157.5</ele><time>2026-03-22T12:43:38.897Z</time></trkpt><trkpt lat="43.114305" lon="13.5653667"><ele>157.25</ele><time>2026-03-22T12:43:39.898Z</time></trkpt><trkpt lat="43.11442" lon="13.5655067"><ele>157.0</ele><time>2026-03-22T12:43:40.897Z</time></trkpt><trkpt lat="43.11453" lon="13.56566"><ele>156.66666666666669</ele><time>2026-03-22T12:43:41.898Z</time></trkpt><trkpt lat="43.1146483" lon="13.5658133"><ele>156.33333333333334</ele><time>2026-03-22T12:43:42.897Z</time></trkpt><trkpt lat="43.1147717" lon="13.5659583"><ele>156.0</ele><time>2026-03-22T12:43:43.898Z</time></trkpt><trkpt lat="43.1148833" lon="13.5660967"><ele>155.33333333333334</ele><time>2026-03-22T12:43:44.898Z</time></trkpt><trkpt lat="43.115005" lon="13.5662333"><ele>154.66666666666669</ele><time>2026-03-22T12:43:45.897Z</time></trkpt><trkpt lat="43.11512" lon="13.5663767"><ele>154.0</ele><time>2026-03-22T12:43:46.897Z</time></trkpt><trkpt lat="43.115235" lon="13.5665133"><ele>154.0</ele><time>2026-03-22T12:43:47.897Z</time></trkpt><trkpt lat="43.1153433" lon="13.56666"><ele>154.0</ele><time>2026-03-22T12:43:48.898Z</time></trkpt><trkpt lat="43.1154483" lon="13.5668033"><ele>154.0</ele><time>2026-03-22T12:43:49.897Z</time></trkpt><trkpt lat="43.1155683" lon="13.56693"><ele>153.66666666666669</ele><time>2026-03-22T12:43:50.897Z</time></trkpt><trkpt lat="43.1156883" lon="13.5670883"><ele>153.33333333333334</ele><time>2026-03-22T12:43:51.898Z</time></trkpt><trkpt lat="43.11581" lon="13.5672483"><ele>153.0</ele><time>2026-03-22T12:43:52.898Z</time></trkpt><trkpt lat="43.1159333" lon="13.567415"><ele>153.0</ele><time>2026-03-22T12:43:53.898Z</time></trkpt><trkpt lat="43.11605" lon="13.567585"><ele>153.0</ele><time>2026-03-22T12:43:54.897Z</time></trkpt><trkpt lat="43.116185" lon="13.5677433"><ele>153.0</ele><time>2026-03-22T12:43:55.897Z</time></trkpt><trkpt lat="43.1163217" lon="13.5678933"><ele>152.66666666666666</ele><time>2026-03-22T12:43:56.898Z</time></trkpt><trkpt lat="43.1164583" lon="13.5680433"><ele>152.33333333333331</ele><time>2026-03-22T12:43:57.898Z</time></trkpt><trkpt lat="43.1165933" lon="13.5681917"><ele>152.0</ele><time>2026-03-22T12:43:58.898Z</time></trkpt><trkpt lat="43.1167333" lon="13.5683433"><ele>152.66666666666666</ele><time>2026-03-22T12:43:59.897Z</time></trkpt><trkpt lat="43.11686" lon="13.5685217"><ele>153.33333333333334</ele><time>2026-03-22T12:44:00.897Z</time></trkpt><trkpt lat="43.11699" lon="13.5686983"><ele>154.0</ele><time>2026-03-22T12:44:01.897Z</time></trkpt><trkpt lat="43.1171083" lon="13.5688733"><ele>154.0</ele><time>2026-03-22T12:44:02.898Z</time></trkpt><trkpt lat="43.117225" lon="13.569055"><ele>154.0</ele><time>2026-03-22T12:44:03.898Z</time></trkpt><trkpt lat="43.1173583" lon="13.5692033"><ele>154.0</ele><time>2026-03-22T12:44:04.898Z</time></trkpt><trkpt lat="43.1174783" lon="13.56936"><ele>154.33333333333334</ele><time>2026-03-22T12:44:05.898Z</time></trkpt><trkpt lat="43.117575" lon="13.5695217"><ele>154.66666666666666</ele><time>2026-03-22T12:44:06.898Z</time></trkpt><trkpt lat="43.1176633" lon="13.5696917"><ele>155.0</ele><time>2026-03-22T12:44:07.898Z</time></trkpt><trkpt lat="43.11774" lon="13.5698783"><ele>155.33333333333331</ele><time>2026-03-22T12:44:08.898Z</time></trkpt><trkpt lat="43.1178117" lon="13.5700833"><ele>155.66666666666666</ele><time>2026-03-22T12:44:09.898Z</time></trkpt><trkpt lat="43.1178933" lon="13.5702767"><ele>156.0</ele><time>2026-03-22T12:44:10.897Z</time></trkpt><trkpt lat="43.1179717" lon="13.570475"><ele>155.33333333333334</ele><time>2026-03-22T12:44:11.898Z</time></trkpt><trkpt lat="43.11804" lon="13.5707"><ele>154.66666666666669</ele><time>2026-03-22T12:44:12.898Z</time></trkpt><trkpt lat="43.1181167" lon="13.570925"><ele>154.0</ele><time>2026-03-22T12:44:13.898Z</time></trkpt><trkpt lat="43.1182" lon="13.5711467"><ele>154.0</ele><time>2026-03-22T12:44:14.898Z</time></trkpt><trkpt lat="43.1182783" lon="13.5713883"><ele>154.0</ele><time>2026-03-22T12:44:15.898Z</time></trkpt><trkpt lat="43.118355" lon="13.571625"><ele>154.0</ele><time>2026-03-22T12:44:16.898Z</time></trkpt><trkpt lat="43.11844" lon="13.5718483"><ele>153.0</ele><time>2026-03-22T12:44:17.898Z</time></trkpt><trkpt lat="43.1185117" lon="13.5720817"><ele>152.0</ele><time>2026-03-22T12:44:18.898Z</time></trkpt><trkpt lat="43.118595" lon="13.572315"><ele>151.0</ele><time>2026-03-22T12:44:19.898Z</time></trkpt><trkpt lat="43.1186817" lon="13.5725417"><ele>151.0</ele><time>2026-03-22T12:44:20.898Z</time></trkpt><trkpt lat="43.118765" lon="13.5727767"><ele>151.0</ele><time>2026-03-22T12:44:21.897Z</time></trkpt><trkpt lat="43.1188483" lon="13.5730183"><ele>151.0</ele><time>2026-03-22T12:44:22.898Z</time></trkpt><trkpt lat="43.1189417" lon="13.57326"><ele>151.33333333333334</ele><time>2026-03-22T12:44:23.897Z</time></trkpt><trkpt lat="43.1190233" lon="13.573495"><ele>151.66666666666666</ele><time>2026-03-22T12:44:24.897Z</time></trkpt><trkpt lat="43.1191183" lon="13.5737267"><ele>152.0</ele><time>2026-03-22T12:44:25.898Z</time></trkpt><trkpt lat="43.11921" lon="13.5739617"><ele>152.0</ele><time>2026-03-22T12:44:26.898Z</time></trkpt><trkpt lat="43.1193067" lon="13.574195"><ele>152.0</ele><time>2026-03-22T12:44:27.897Z</time></trkpt><trkpt lat="43.119385" lon="13.57444"><ele>152.0</ele><time>2026-03-22T12:44:28.898Z</time></trkpt><trkpt lat="43.1194683" lon="13.57467"><ele>151.33333333333331</ele><time>2026-03-22T12:44:29.897Z</time></trkpt><trkpt lat="43.1195433" lon="13.5749133"><ele>150.66666666666666</ele><time>2026-03-22T12:44:30.898Z</time></trkpt><trkpt lat="43.1196167" lon="13.575155"><ele>150.0</ele><time>2026-03-22T12:44:31.898Z</time></trkpt><trkpt lat="43.119695" lon="13.5753933"><ele>149.66666666666666</ele><time>2026-03-22T12:44:32.898Z</time></trkpt><trkpt lat="43.1197633" lon="13.5756417"><ele>149.33333333333331</ele><time>2026-03-22T12:44:33.897Z</time></trkpt><trkpt lat="43.1198417" lon="13.5758867"><ele>149.0</ele><time>2026-03-22T12:44:34.898Z</time></trkpt><trkpt lat="43.1199267" lon="13.576125"><ele>149.66666666666666</ele><time>2026-03-22T12:44:35.898Z</time></trkpt><trkpt lat="43.1199967" lon="13.5763617"><ele>150.33333333333334</ele><time>2026-03-22T12:44:36.898Z</time></trkpt><trkpt lat="43.1200733" lon="13.5765917"><ele>151.0</ele><time>2026-03-22T12:44:37.897Z</time></trkpt><trkpt lat="43.1201633" lon="13.57683"><ele>150.33333333333334</ele><time>2026-03-22T12:44:38.897Z</time></trkpt><trkpt lat="43.1202383" lon="13.5770567"><ele>149.66666666666666</ele><time>2026-03-22T12:44:39.898Z</time></trkpt><trkpt lat="43.120315" lon="13.577285"><ele>149.0</ele><time>2026-03-22T12:44:40.898Z</time></trkpt><trkpt lat="43.1204" lon="13.5775083"><ele>149.0</ele><time>2026-03-22T12:44:41.897Z</time></trkpt><trkpt lat="43.1205017" lon="13.5777067"><ele>149.0</ele><time>2026-03-22T12:44:42.897Z</time></trkpt><trkpt lat="43.1206" lon="13.57793"><ele>149.0</ele><time>2026-03-22T12:44:43.897Z</time></trkpt><trkpt lat="43.1206867" lon="13.5781567"><ele>149.0</ele><time>2026-03-22T12:44:44.898Z</time></trkpt><trkpt lat="43.12077" lon="13.5783833"><ele>149.0</ele><time>2026-03-22T12:44:45.898Z</time></trkpt><trkpt lat="43.1208567" lon="13.5785983"><ele>149.0</ele><time>2026-03-22T12:44:46.898Z</time></trkpt><trkpt lat="43.1209533" lon="13.5788017"><ele>147.66666666666666</ele><time>2026-03-22T12:44:47.898Z</time></trkpt><trkpt lat="43.121045" lon="13.5790117"><ele>146.33333333333334</ele><time>2026-03-22T12:44:48.898Z</time></trkpt><trkpt lat="43.121145" lon="13.5792383"><ele>145.0</ele><time>2026-03-22T12:44:49.898Z</time></trkpt><trkpt lat="43.1212367" lon="13.5794617"><ele>144.33333333333334</ele><time>2026-03-22T12:44:50.898Z</time></trkpt><trkpt lat="43.1213267" lon="13.579675"><ele>143.66666666666666</ele><time>2026-03-22T12:44:51.897Z</time></trkpt><trkpt lat="43.121425" lon="13.5799033"><ele>143.0</ele><time>2026-03-22T12:44:52.898Z</time></trkpt><trkpt lat="43.1215133" lon="13.5801267"><ele>142.66666666666666</ele><time>2026-03-22T12:44:53.897Z</time></trkpt><trkpt lat="43.1216117" lon="13.5803467"><ele>142.33333333333334</ele><time>2026-03-22T12:44:54.898Z</time></trkpt><trkpt lat="43.1216967" lon="13.5805667"><ele>142.0</ele><time>2026-03-22T12:44:55.898Z</time></trkpt><trkpt lat="43.1217767" lon="13.5807933"><ele>142.0</ele><time>2026-03-22T12:44:56.897Z</time></trkpt><trkpt lat="43.1218633" lon="13.5810117"><ele>142.0</ele><time>2026-03-22T12:44:57.898Z</time></trkpt><trkpt lat="43.1220283" lon="13.5814533"><ele>141.33333333333334</ele><time>2026-03-22T12:44:59.898Z</time></trkpt><trkpt lat="43.1221067" lon="13.5816883"><ele>140.66666666666666</ele><time>2026-03-22T12:45:00.898Z</time></trkpt><trkpt lat="43.1221917" lon="13.581915"><ele>140.0</ele><time>2026-03-22T12:45:01.898Z</time></trkpt><trkpt lat="43.1222767" lon="13.5821433"><ele>139.33333333333331</ele><time>2026-03-22T12:45:02.898Z</time></trkpt><trkpt lat="43.12236" lon="13.582375"><ele>138.66666666666666</ele><time>2026-03-22T12:45:03.898Z</time></trkpt><trkpt lat="43.1224433" lon="13.58261"><ele>138.0</ele><time>2026-03-22T12:45:04.897Z</time></trkpt><trkpt lat="43.1225233" lon="13.582845"><ele>137.66666666666666</ele><time>2026-03-22T12:45:05.897Z</time></trkpt><trkpt lat="43.1226067" lon="13.58308"><ele>137.33333333333331</ele><time>2026-03-22T12:45:06.898Z</time></trkpt><trkpt lat="43.12269" lon="13.58332"><ele>137.0</ele><time>2026-03-22T12:45:07.898Z</time></trkpt><trkpt lat="43.12278" lon="13.58355"><ele>137.33333333333331</ele><time>2026-03-22T12:45:08.898Z</time></trkpt><trkpt lat="43.1228717" lon="13.5837833"><ele>137.66666666666666</ele><time>2026-03-22T12:45:09.897Z</time></trkpt><trkpt lat="43.12295" lon="13.5840017"><ele>138.0</ele><time>2026-03-22T12:45:10.898Z</time></trkpt><trkpt lat="43.1230383" lon="13.584225"><ele>138.0</ele><time>2026-03-22T12:45:11.898Z</time></trkpt><trkpt lat="43.12311" lon="13.5844517"><ele>138.0</ele><time>2026-03-22T12:45:12.897Z</time></trkpt><trkpt lat="43.123175" lon="13.5846833"><ele>138.0</ele><time>2026-03-22T12:45:13.897Z</time></trkpt><trkpt lat="43.123235" lon="13.58492"><ele>138.0</ele><time>2026-03-22T12:45:14.898Z</time></trkpt><trkpt lat="43.1232883" lon="13.58516"><ele>138.0</ele><time>2026-03-22T12:45:15.897Z</time></trkpt><trkpt lat="43.123345" lon="13.5854"><ele>138.0</ele><time>2026-03-22T12:45:16.898Z</time></trkpt><trkpt lat="43.123395" lon="13.58565"><ele>137.0</ele><time>2026-03-22T12:45:17.898Z</time></trkpt><trkpt lat="43.1234533" lon="13.58589"><ele>136.0</ele><time>2026-03-22T12:45:18.898Z</time></trkpt><trkpt lat="43.1235167" lon="13.5861233"><ele>135.0</ele><time>2026-03-22T12:45:19.898Z</time></trkpt><trkpt lat="43.1236" lon="13.5863367"><ele>134.66666666666666</ele><time>2026-03-22T12:45:20.898Z</time></trkpt><trkpt lat="43.1236933" lon="13.5865417"><ele>134.33333333333331</ele><time>2026-03-22T12:45:21.898Z</time></trkpt><trkpt lat="43.1237933" lon="13.5867367"><ele>134.0</ele><time>2026-03-22T12:45:22.897Z</time></trkpt><trkpt lat="43.1238983" lon="13.586945"><ele>133.66666666666666</ele><time>2026-03-22T12:45:23.897Z</time></trkpt><trkpt lat="43.12401" lon="13.5871417"><ele>133.33333333333334</ele><time>2026-03-22T12:45:24.897Z</time></trkpt><trkpt lat="43.1241133" lon="13.587345"><ele>133.0</ele><time>2026-03-22T12:45:25.897Z</time></trkpt><trkpt lat="43.12423" lon="13.58753"><ele>133.66666666666669</ele><time>2026-03-22T12:45:26.898Z</time></trkpt><trkpt lat="43.1243333" lon="13.5877467"><ele>134.33333333333334</ele><time>2026-03-22T12:45:27.898Z</time></trkpt><trkpt lat="43.12442" lon="13.5879717"><ele>135.0</ele><time>2026-03-22T12:45:28.897Z</time></trkpt><trkpt lat="43.124505" lon="13.5882067"><ele>135.0</ele><time>2026-03-22T12:45:29.898Z</time></trkpt><trkpt lat="43.1245833" lon="13.5884283"><ele>135.0</ele><time>2026-03-22T12:45:30.898Z</time></trkpt><trkpt lat="43.1246733" lon="13.5886517"><ele>135.0</ele><time>2026-03-22T12:45:31.898Z</time></trkpt><trkpt lat="43.1247567" lon="13.5888883"><ele>135.33333333333334</ele><time>2026-03-22T12:45:32.898Z</time></trkpt><trkpt lat="43.1248217" lon="13.5891383"><ele>135.66666666666669</ele><time>2026-03-22T12:45:33.898Z</time></trkpt><trkpt lat="43.1249033" lon="13.58937"><ele>136.0</ele><time>2026-03-22T12:45:34.897Z</time></trkpt><trkpt lat="43.1249917" lon="13.5896317"><ele>134.33333333333334</ele><time>2026-03-22T12:45:35.898Z</time></trkpt><trkpt lat="43.1250833" lon="13.5898667"><ele>132.66666666666666</ele><time>2026-03-22T12:45:36.897Z</time></trkpt><trkpt lat="43.125185" lon="13.5901067"><ele>131.0</ele><time>2026-03-22T12:45:37.898Z</time></trkpt><trkpt lat="43.1252933" lon="13.5903367"><ele>130.0</ele><time>2026-03-22T12:45:38.898Z</time></trkpt><trkpt lat="43.1254017" lon="13.5905383"><ele>129.0</ele><time>2026-03-22T12:45:39.897Z</time></trkpt><trkpt lat="43.125535" lon="13.5907183"><ele>128.0</ele><time>2026-03-22T12:45:40.898Z</time></trkpt><trkpt lat="43.1256567" lon="13.5908933"><ele>128.33333333333331</ele><time>2026-03-22T12:45:41.898Z</time></trkpt><trkpt lat="43.1257717" lon="13.5910667"><ele>128.66666666666666</ele><time>2026-03-22T12:45:42.898Z</time></trkpt><trkpt lat="43.1258783" lon="13.5912233"><ele>129.0</ele><time>2026-03-22T12:45:43.897Z</time></trkpt><trkpt lat="43.1259683" lon="13.5913667"><ele>129.0</ele><time>2026-03-22T12:45:44.897Z</time></trkpt><trkpt lat="43.126025" lon="13.591515"><ele>129.0</ele><time>2026-03-22T12:45:45.898Z</time></trkpt><trkpt lat="43.126055" lon="13.5916867"><ele>129.0</ele><time>2026-03-22T12:45:46.897Z</time></trkpt><trkpt lat="43.1260633" lon="13.59185"><ele>129.0</ele><time>2026-03-22T12:45:47.897Z</time></trkpt><trkpt lat="43.1260667" lon="13.592"><ele>128.4</ele><time>2026-03-22T12:45:48.897Z</time></trkpt><trkpt lat="43.12606" lon="13.5921517"><ele>127.80000000000001</ele><time>2026-03-22T12:45:49.898Z</time></trkpt><trkpt lat="43.1260583" lon="13.5922967"><ele>127.19999999999999</ele><time>2026-03-22T12:45:50.898Z</time></trkpt><trkpt lat="43.1260867" lon="13.59243"><ele>126.6</ele><time>2026-03-22T12:45:51.897Z</time></trkpt><trkpt lat="43.1261633" lon="13.59253"><ele>126.0</ele><time>2026-03-22T12:45:52.897Z</time></trkpt><trkpt lat="43.1262633" lon="13.5926033"><ele>126.0</ele><time>2026-03-22T12:45:53.898Z</time></trkpt><trkpt lat="43.12638" lon="13.5926717"><ele>126.0</ele><time>2026-03-22T12:45:54.897Z</time></trkpt><trkpt lat="43.1265067" lon="13.5927683"><ele>126.0</ele><time>2026-03-22T12:45:55.897Z</time></trkpt><trkpt lat="43.1266233" lon="13.5928933"><ele>126.0</ele><time>2026-03-22T12:45:56.898Z</time></trkpt><trkpt lat="43.1267167" lon="13.5930567"><ele>126.0</ele><time>2026-03-22T12:45:57.897Z</time></trkpt><trkpt lat="43.1268067" lon="13.5932433"><ele>126.0</ele><time>2026-03-22T12:45:58.898Z</time></trkpt><trkpt lat="43.12689" lon="13.5934383"><ele>126.0</ele><time>2026-03-22T12:45:59.898Z</time></trkpt><trkpt lat="43.1269683" lon="13.5936433"><ele>126.0</ele><time>2026-03-22T12:46:00.897Z</time></trkpt><trkpt lat="43.127055" lon="13.5938467"><ele>126.0</ele><time>2026-03-22T12:46:01.898Z</time></trkpt><trkpt lat="43.1271483" lon="13.5940567"><ele>126.0</ele><time>2026-03-22T12:46:02.898Z</time></trkpt><trkpt lat="43.1272517" lon="13.5942667"><ele>126.0</ele><time>2026-03-22T12:46:03.898Z</time></trkpt><trkpt lat="43.127365" lon="13.5944617"><ele>126.0</ele><time>2026-03-22T12:46:04.898Z</time></trkpt><trkpt lat="43.1274767" lon="13.5946583"><ele>126.0</ele><time>2026-03-22T12:46:05.898Z</time></trkpt><trkpt lat="43.1275867" lon="13.5948617"><ele>126.33333333333334</ele><time>2026-03-22T12:46:06.897Z</time></trkpt><trkpt lat="43.1277083" lon="13.5950567"><ele>126.66666666666667</ele><time>2026-03-22T12:46:07.898Z</time></trkpt><trkpt lat="43.1278267" lon="13.5952483"><ele>127.0</ele><time>2026-03-22T12:46:08.898Z</time></trkpt><trkpt lat="43.1279367" lon="13.59546"><ele>127.0</ele><time>2026-03-22T12:46:09.898Z</time></trkpt><trkpt lat="43.1280483" lon="13.5956567"><ele>127.0</ele><time>2026-03-22T12:46:10.897Z</time></trkpt><trkpt lat="43.12817" lon="13.59585"><ele>127.0</ele><time>2026-03-22T12:46:11.897Z</time></trkpt><trkpt lat="43.1282917" lon="13.5960467"><ele>127.0</ele><time>2026-03-22T12:46:12.898Z</time></trkpt><trkpt lat="43.1284083" lon="13.5962367"><ele>127.0</ele><time>2026-03-22T12:46:13.897Z</time></trkpt><trkpt lat="43.1285383" lon="13.5964167"><ele>127.0</ele><time>2026-03-22T12:46:14.898Z</time></trkpt><trkpt lat="43.12866" lon="13.5965933"><ele>127.0</ele><time>2026-03-22T12:46:15.898Z</time></trkpt><trkpt lat="43.12879" lon="13.59676"><ele>127.0</ele><time>2026-03-22T12:46:16.898Z</time></trkpt><trkpt lat="43.128925" lon="13.5969183"><ele>127.0</ele><time>2026-03-22T12:46:17.898Z</time></trkpt><trkpt lat="43.1290717" lon="13.597055"><ele>127.0</ele><time>2026-03-22T12:46:18.898Z</time></trkpt><trkpt lat="43.1292183" lon="13.5972"><ele>127.0</ele><time>2026-03-22T12:46:19.898Z</time></trkpt><trkpt lat="43.1293767" lon="13.5973417"><ele>127.0</ele><time>2026-03-22T12:46:20.898Z</time></trkpt><trkpt lat="43.1295517" lon="13.5974667"><ele>127.0</ele><time>2026-03-22T12:46:21.898Z</time></trkpt><trkpt lat="43.129705" lon="13.5975917"><ele>127.0</ele><time>2026-03-22T12:46:22.898Z</time></trkpt><trkpt lat="43.1298667" lon="13.597705"><ele>127.0</ele><time>2026-03-22T12:46:23.897Z</time></trkpt><trkpt lat="43.1300467" lon="13.5978017"><ele>126.66666666666667</ele><time>2026-03-22T12:46:24.898Z</time></trkpt><trkpt lat="43.1302233" lon="13.59791"><ele>126.33333333333334</ele><time>2026-03-22T12:46:25.898Z</time></trkpt><trkpt lat="43.130385" lon="13.5980267"><ele>126.0</ele><time>2026-03-22T12:46:26.898Z</time></trkpt><trkpt lat="43.1305433" lon="13.5981667"><ele>126.0</ele><time>2026-03-22T12:46:27.898Z</time></trkpt><trkpt lat="43.1306883" lon="13.5983267"><ele>126.0</ele><time>2026-03-22T12:46:28.898Z</time></trkpt><trkpt lat="43.1308433" lon="13.5985017"><ele>126.0</ele><time>2026-03-22T12:46:29.898Z</time></trkpt><trkpt lat="43.1309817" lon="13.598675"><ele>126.0</ele><time>2026-03-22T12:46:30.897Z</time></trkpt><trkpt lat="43.1311083" lon="13.598875"><ele>126.0</ele><time>2026-03-22T12:46:31.898Z</time></trkpt><trkpt lat="43.1312317" lon="13.599055"><ele>126.0</ele><time>2026-03-22T12:46:32.898Z</time></trkpt><trkpt lat="43.1313517" lon="13.59924"><ele>126.0</ele><time>2026-03-22T12:46:33.898Z</time></trkpt><trkpt lat="43.1314767" lon="13.599435"><ele>126.0</ele><time>2026-03-22T12:46:34.897Z</time></trkpt><trkpt lat="43.1315967" lon="13.5996283"><ele>126.0</ele><time>2026-03-22T12:46:35.898Z</time></trkpt><trkpt lat="43.1317333" lon="13.5998083"><ele>126.66666666666666</ele><time>2026-03-22T12:46:36.898Z</time></trkpt><trkpt lat="43.1318683" lon="13.5999717"><ele>127.33333333333333</ele><time>2026-03-22T12:46:37.898Z</time></trkpt><trkpt lat="43.132" lon="13.6001517"><ele>128.0</ele><time>2026-03-22T12:46:38.898Z</time></trkpt><trkpt lat="43.1321217" lon="13.6003433"><ele>128.33333333333331</ele><time>2026-03-22T12:46:39.898Z</time></trkpt><trkpt lat="43.132245" lon="13.6005233"><ele>128.66666666666666</ele><time>2026-03-22T12:46:40.897Z</time></trkpt><trkpt lat="43.1323733" lon="13.6007133"><ele>129.0</ele><time>2026-03-22T12:46:41.897Z</time></trkpt><trkpt lat="43.1324917" lon="13.600915"><ele>129.0</ele><time>2026-03-22T12:46:42.898Z</time></trkpt><trkpt lat="43.1325917" lon="13.6011317"><ele>129.0</ele><time>2026-03-22T12:46:43.898Z</time></trkpt><trkpt lat="43.1326767" lon="13.6013617"><ele>129.0</ele><time>2026-03-22T12:46:44.898Z</time></trkpt><trkpt lat="43.1327467" lon="13.601595"><ele>127.33333333333334</ele><time>2026-03-22T12:46:45.897Z</time></trkpt><trkpt lat="43.1328283" lon="13.6018233"><ele>125.66666666666667</ele><time>2026-03-22T12:46:46.897Z</time></trkpt><trkpt lat="43.1329117" lon="13.6020467"><ele>124.0</ele><time>2026-03-22T12:46:47.897Z</time></trkpt><trkpt lat="43.1330017" lon="13.602275"><ele>123.0</ele><time>2026-03-22T12:46:48.898Z</time></trkpt><trkpt lat="43.1331033" lon="13.602495"><ele>122.0</ele><time>2026-03-22T12:46:49.898Z</time></trkpt><trkpt lat="43.133205" lon="13.6027083"><ele>121.0</ele><time>2026-03-22T12:46:50.897Z</time></trkpt><trkpt lat="43.1332883" lon="13.6029433"><ele>121.0</ele><time>2026-03-22T12:46:51.898Z</time></trkpt><trkpt lat="43.1333933" lon="13.6031467"><ele>121.0</ele><time>2026-03-22T12:46:52.898Z</time></trkpt><trkpt lat="43.133515" lon="13.6033317"><ele>121.0</ele><time>2026-03-22T12:46:53.898Z</time></trkpt><trkpt lat="43.13366" lon="13.6034883"><ele>121.0</ele><time>2026-03-22T12:46:54.898Z</time></trkpt><trkpt lat="43.1338067" lon="13.603625"><ele>121.0</ele><time>2026-03-22T12:46:55.898Z</time></trkpt><trkpt lat="43.1339533" lon="13.6037633"><ele>121.0</ele><time>2026-03-22T12:46:56.898Z</time></trkpt><trkpt lat="43.13409" lon="13.6039067"><ele>122.0</ele><time>2026-03-22T12:46:57.898Z</time></trkpt><trkpt lat="43.1342333" lon="13.6040567"><ele>123.0</ele><time>2026-03-22T12:46:58.897Z</time></trkpt><trkpt lat="43.1343717" lon="13.6042233"><ele>124.0</ele><time>2026-03-22T12:46:59.897Z</time></trkpt><trkpt lat="43.1345017" lon="13.6044033"><ele>121.33333333333334</ele><time>2026-03-22T12:47:00.898Z</time></trkpt><trkpt lat="43.13462" lon="13.6046017"><ele>118.66666666666666</ele><time>2026-03-22T12:47:01.898Z</time></trkpt><trkpt lat="43.134735" lon="13.6048017"><ele>116.0</ele><time>2026-03-22T12:47:02.898Z</time></trkpt><trkpt lat="43.1348383" lon="13.6050117"><ele>117.66666666666666</ele><time>2026-03-22T12:47:03.897Z</time></trkpt><trkpt lat="43.1349517" lon="13.6052233"><ele>119.33333333333334</ele><time>2026-03-22T12:47:04.898Z</time></trkpt><trkpt lat="43.135065" lon="13.605425"><ele>121.0</ele><time>2026-03-22T12:47:05.897Z</time></trkpt><trkpt lat="43.13519" lon="13.605625"><ele>121.0</ele><time>2026-03-22T12:47:06.897Z</time></trkpt><trkpt lat="43.1353233" lon="13.6058167"><ele>121.0</ele><time>2026-03-22T12:47:07.898Z</time></trkpt><trkpt lat="43.1354617" lon="13.605985"><ele>121.0</ele><time>2026-03-22T12:47:08.897Z</time></trkpt><trkpt lat="43.1356133" lon="13.6061533"><ele>119.66666666666667</ele><time>2026-03-22T12:47:09.897Z</time></trkpt><trkpt lat="43.135775" lon="13.6063017"><ele>118.33333333333334</ele><time>2026-03-22T12:47:10.897Z</time></trkpt><trkpt lat="43.1359317" lon="13.6064467"><ele>117.0</ele><time>2026-03-22T12:47:11.898Z</time></trkpt><trkpt lat="43.1360917" lon="13.6065767"><ele>117.0</ele><time>2026-03-22T12:47:12.898Z</time></trkpt><trkpt lat="43.1362583" lon="13.6067167"><ele>117.0</ele><time>2026-03-22T12:47:13.898Z</time></trkpt><trkpt lat="43.136425" lon="13.6068533"><ele>117.0</ele><time>2026-03-22T12:47:14.898Z</time></trkpt><trkpt lat="43.13659" lon="13.6070033"><ele>116.33333333333334</ele><time>2026-03-22T12:47:15.898Z</time></trkpt><trkpt lat="43.13675" lon="13.6071583"><ele>115.66666666666667</ele><time>2026-03-22T12:47:16.897Z</time></trkpt><trkpt lat="43.136905" lon="13.6073167"><ele>115.0</ele><time>2026-03-22T12:47:17.897Z</time></trkpt><trkpt lat="43.1370633" lon="13.6074817"><ele>115.0</ele><time>2026-03-22T12:47:18.898Z</time></trkpt><trkpt lat="43.137225" lon="13.60764"><ele>115.0</ele><time>2026-03-22T12:47:19.897Z</time></trkpt><trkpt lat="43.1373883" lon="13.60779"><ele>115.0</ele><time>2026-03-22T12:47:20.897Z</time></trkpt><trkpt lat="43.1375483" lon="13.6079483"><ele>114.66666666666667</ele><time>2026-03-22T12:47:21.897Z</time></trkpt><trkpt lat="43.137705" lon="13.6081017"><ele>114.33333333333334</ele><time>2026-03-22T12:47:22.898Z</time></trkpt><trkpt lat="43.1378683" lon="13.6082483"><ele>114.0</ele><time>2026-03-22T12:47:23.897Z</time></trkpt><trkpt lat="43.1380333" lon="13.6083967"><ele>114.0</ele><time>2026-03-22T12:47:24.897Z</time></trkpt><trkpt lat="43.1382017" lon="13.6085317"><ele>114.0</ele><time>2026-03-22T12:47:25.898Z</time></trkpt><trkpt lat="43.13837" lon="13.60867"><ele>114.0</ele><time>2026-03-22T12:47:26.897Z</time></trkpt><trkpt lat="43.1385333" lon="13.6088133"><ele>114.33333333333334</ele><time>2026-03-22T12:47:27.898Z</time></trkpt><trkpt lat="43.1386867" lon="13.6089683"><ele>114.66666666666667</ele><time>2026-03-22T12:47:28.898Z</time></trkpt><trkpt lat="43.1388367" lon="13.6091283"><ele>115.0</ele><time>2026-03-22T12:47:29.897Z</time></trkpt><trkpt lat="43.138985" lon="13.6092933"><ele>115.0</ele><time>2026-03-22T12:47:30.897Z</time></trkpt><trkpt lat="43.1391383" lon="13.6094383"><ele>115.0</ele><time>2026-03-22T12:47:31.898Z</time></trkpt><trkpt lat="43.1392967" lon="13.6095867"><ele>115.0</ele><time>2026-03-22T12:47:32.898Z</time></trkpt><trkpt lat="43.139455" lon="13.60975"><ele>115.0</ele><time>2026-03-22T12:47:33.898Z</time></trkpt><trkpt lat="43.1396067" lon="13.609925"><ele>115.0</ele><time>2026-03-22T12:47:34.898Z</time></trkpt><trkpt lat="43.139755" lon="13.6100967"><ele>115.0</ele><time>2026-03-22T12:47:35.897Z</time></trkpt><trkpt lat="43.1399017" lon="13.6102833"><ele>115.0</ele><time>2026-03-22T12:47:36.898Z</time></trkpt><trkpt lat="43.1400417" lon="13.6104633"><ele>115.0</ele><time>2026-03-22T12:47:37.898Z</time></trkpt><trkpt lat="43.1401933" lon="13.6106333"><ele>115.0</ele><time>2026-03-22T12:47:38.898Z</time></trkpt><trkpt lat="43.1403483" lon="13.610805"><ele>115.0</ele><time>2026-03-22T12:47:39.898Z</time></trkpt><trkpt lat="43.1405183" lon="13.6109617"><ele>115.0</ele><time>2026-03-22T12:47:40.898Z</time></trkpt><trkpt lat="43.14067" lon="13.61113"><ele>115.0</ele><time>2026-03-22T12:47:41.898Z</time></trkpt><trkpt lat="43.14083" lon="13.611295"><ele>115.66666666666667</ele><time>2026-03-22T12:47:42.897Z</time></trkpt><trkpt lat="43.1409783" lon="13.6114617"><ele>116.33333333333334</ele><time>2026-03-22T12:47:43.898Z</time></trkpt><trkpt lat="43.1411183" lon="13.611635"><ele>117.0</ele><time>2026-03-22T12:47:44.898Z</time></trkpt><trkpt lat="43.14127" lon="13.6118083"><ele>117.0</ele><time>2026-03-22T12:47:45.897Z</time></trkpt><trkpt lat="43.1414233" lon="13.6119867"><ele>117.0</ele><time>2026-03-22T12:47:46.898Z</time></trkpt><trkpt lat="43.1415767" lon="13.61217"><ele>117.0</ele><time>2026-03-22T12:47:47.898Z</time></trkpt><trkpt lat="43.141735" lon="13.6123433"><ele>116.0</ele><time>2026-03-22T12:47:48.898Z</time></trkpt><trkpt lat="43.1418817" lon="13.6125183"><ele>115.0</ele><time>2026-03-22T12:47:49.898Z</time></trkpt><trkpt lat="43.142035" lon="13.6126883"><ele>114.0</ele><time>2026-03-22T12:47:50.897Z</time></trkpt><trkpt lat="43.1421883" lon="13.6128633"><ele>113.33333333333334</ele><time>2026-03-22T12:47:51.898Z</time></trkpt><trkpt lat="43.142335" lon="13.6130333"><ele>112.66666666666667</ele><time>2026-03-22T12:47:52.897Z</time></trkpt><trkpt lat="43.1424883" lon="13.613185"><ele>112.0</ele><time>2026-03-22T12:47:53.898Z</time></trkpt><trkpt lat="43.1426333" lon="13.6133567"><ele>112.0</ele><time>2026-03-22T12:47:54.897Z</time></trkpt><trkpt lat="43.1427767" lon="13.61352"><ele>112.0</ele><time>2026-03-22T12:47:55.898Z</time></trkpt><trkpt lat="43.14292" lon="13.6136817"><ele>112.0</ele><time>2026-03-22T12:47:56.898Z</time></trkpt><trkpt lat="43.1430617" lon="13.6138433"><ele>112.0</ele><time>2026-03-22T12:47:57.898Z</time></trkpt><trkpt lat="43.14319" lon="13.61402"><ele>112.0</ele><time>2026-03-22T12:47:58.898Z</time></trkpt><trkpt lat="43.14333" lon="13.6142"><ele>112.0</ele><time>2026-03-22T12:47:59.898Z</time></trkpt><trkpt lat="43.143455" lon="13.6143867"><ele>112.33333333333334</ele><time>2026-03-22T12:48:00.898Z</time></trkpt><trkpt lat="43.14358" lon="13.6145583"><ele>112.66666666666666</ele><time>2026-03-22T12:48:01.897Z</time></trkpt><trkpt lat="43.14371" lon="13.61473"><ele>113.0</ele><time>2026-03-22T12:48:02.898Z</time></trkpt><trkpt lat="43.1438367" lon="13.6149033"><ele>113.0</ele><time>2026-03-22T12:48:03.897Z</time></trkpt><trkpt lat="43.1439667" lon="13.6150733"><ele>113.0</ele><time>2026-03-22T12:48:04.898Z</time></trkpt><trkpt lat="43.1441067" lon="13.6152417"><ele>113.0</ele><time>2026-03-22T12:48:05.898Z</time></trkpt><trkpt lat="43.1442483" lon="13.61541"><ele>112.66666666666666</ele><time>2026-03-22T12:48:06.898Z</time></trkpt><trkpt lat="43.1443933" lon="13.6155783"><ele>112.33333333333334</ele><time>2026-03-22T12:48:07.898Z</time></trkpt><trkpt lat="43.1445333" lon="13.6157583"><ele>112.0</ele><time>2026-03-22T12:48:08.897Z</time></trkpt><trkpt lat="43.1446667" lon="13.6159283"><ele>112.0</ele><time>2026-03-22T12:48:09.897Z</time></trkpt><trkpt lat="43.144805" lon="13.6161067"><ele>112.0</ele><time>2026-03-22T12:48:10.897Z</time></trkpt><trkpt lat="43.1449383" lon="13.61628"><ele>112.0</ele><time>2026-03-22T12:48:11.898Z</time></trkpt><trkpt lat="43.1450583" lon="13.6164817"><ele>112.33333333333334</ele><time>2026-03-22T12:48:12.898Z</time></trkpt><trkpt lat="43.1451717" lon="13.61668"><ele>112.66666666666666</ele><time>2026-03-22T12:48:13.898Z</time></trkpt><trkpt lat="43.145285" lon="13.6168883"><ele>113.0</ele><time>2026-03-22T12:48:14.898Z</time></trkpt><trkpt lat="43.1454" lon="13.61709"><ele>114.0</ele><time>2026-03-22T12:48:15.897Z</time></trkpt><trkpt lat="43.145515" lon="13.6172867"><ele>115.0</ele><time>2026-03-22T12:48:16.898Z</time></trkpt><trkpt lat="43.1456267" lon="13.617485"><ele>116.0</ele><time>2026-03-22T12:48:17.898Z</time></trkpt><trkpt lat="43.1457367" lon="13.6176967"><ele>114.0</ele><time>2026-03-22T12:48:18.898Z</time></trkpt><trkpt lat="43.1458433" lon="13.6179017"><ele>112.0</ele><time>2026-03-22T12:48:19.897Z</time></trkpt><trkpt lat="43.1459717" lon="13.6181"><ele>110.0</ele><time>2026-03-22T12:48:20.898Z</time></trkpt><trkpt lat="43.1460617" lon="13.6183367"><ele>110.0</ele><time>2026-03-22T12:48:21.898Z</time></trkpt><trkpt lat="43.14617" lon="13.6185617"><ele>110.0</ele><time>2026-03-22T12:48:22.898Z</time></trkpt><trkpt lat="43.1462717" lon="13.61878"><ele>110.0</ele><time>2026-03-22T12:48:23.898Z</time></trkpt><trkpt lat="43.1463633" lon="13.6190067"><ele>110.0</ele><time>2026-03-22T12:48:24.898Z</time></trkpt><trkpt lat="43.1464567" lon="13.619225"><ele>110.0</ele><time>2026-03-22T12:48:25.898Z</time></trkpt><trkpt lat="43.1465383" lon="13.619455"><ele>110.0</ele><time>2026-03-22T12:48:26.897Z</time></trkpt><trkpt lat="43.1466167" lon="13.61969"><ele>110.0</ele><time>2026-03-22T12:48:27.897Z</time></trkpt><trkpt lat="43.1466983" lon="13.61993"><ele>110.0</ele><time>2026-03-22T12:48:28.897Z</time></trkpt><trkpt lat="43.1467783" lon="13.620145"><ele>110.0</ele><time>2026-03-22T12:48:29.898Z</time></trkpt><trkpt lat="43.14685" lon="13.6203617"><ele>108.66666666666666</ele><time>2026-03-22T12:48:30.897Z</time></trkpt><trkpt lat="43.1469317" lon="13.6205683"><ele>107.33333333333334</ele><time>2026-03-22T12:48:31.897Z</time></trkpt><trkpt lat="43.1470017" lon="13.620775"><ele>106.0</ele><time>2026-03-22T12:48:32.898Z</time></trkpt><trkpt lat="43.1470767" lon="13.6209467"><ele>106.0</ele><time>2026-03-22T12:48:33.897Z</time></trkpt><trkpt lat="43.1471517" lon="13.621135"><ele>106.0</ele><time>2026-03-22T12:48:34.897Z</time></trkpt><trkpt lat="43.1472117" lon="13.621305"><ele>106.0</ele><time>2026-03-22T12:48:35.898Z</time></trkpt><trkpt lat="43.1472517" lon="13.6214883"><ele>106.0</ele><time>2026-03-22T12:48:36.898Z</time></trkpt><trkpt lat="43.1473133" lon="13.6216517"><ele>105.5</ele><time>2026-03-22T12:48:37.898Z</time></trkpt><trkpt lat="43.1473767" lon="13.621815"><ele>105.0</ele><time>2026-03-22T12:48:38.898Z</time></trkpt><trkpt lat="43.1474333" lon="13.6219833"><ele>104.5</ele><time>2026-03-22T12:48:39.897Z</time></trkpt><trkpt lat="43.1474967" lon="13.6221483"><ele>104.0</ele><time>2026-03-22T12:48:40.898Z</time></trkpt><trkpt lat="43.1475533" lon="13.6223233"><ele>104.0</ele><time>2026-03-22T12:48:41.898Z</time></trkpt><trkpt lat="43.1476267" lon="13.6224917"><ele>104.0</ele><time>2026-03-22T12:48:42.898Z</time></trkpt><trkpt lat="43.1476917" lon="13.6226833"><ele>104.0</ele><time>2026-03-22T12:48:43.898Z</time></trkpt><trkpt lat="43.1477617" lon="13.6228883"><ele>103.33333333333333</ele><time>2026-03-22T12:48:44.897Z</time></trkpt><trkpt lat="43.1478333" lon="13.6231017"><ele>102.66666666666666</ele><time>2026-03-22T12:48:45.897Z</time></trkpt><trkpt lat="43.1479183" lon="13.6233067"><ele>102.0</ele><time>2026-03-22T12:48:46.897Z</time></trkpt><trkpt lat="43.148005" lon="13.6235083"><ele>102.0</ele><time>2026-03-22T12:48:47.897Z</time></trkpt><trkpt lat="43.1481067" lon="13.6237067"><ele>102.0</ele><time>2026-03-22T12:48:48.897Z</time></trkpt><trkpt lat="43.1482267" lon="13.623885"><ele>102.0</ele><time>2026-03-22T12:48:49.897Z</time></trkpt><trkpt lat="43.1483617" lon="13.6240417"><ele>102.0</ele><time>2026-03-22T12:48:50.896Z</time></trkpt><trkpt lat="43.1485067" lon="13.6241883"><ele>102.0</ele><time>2026-03-22T12:48:51.897Z</time></trkpt><trkpt lat="43.1486533" lon="13.6242983"><ele>102.0</ele><time>2026-03-22T12:48:52.897Z</time></trkpt><trkpt lat="43.1488167" lon="13.62439"><ele>101.33333333333334</ele><time>2026-03-22T12:48:53.897Z</time></trkpt><trkpt lat="43.1489817" lon="13.6245083"><ele>100.66666666666667</ele><time>2026-03-22T12:48:54.897Z</time></trkpt><trkpt lat="43.1491417" lon="13.6246133"><ele>100.0</ele><time>2026-03-22T12:48:55.897Z</time></trkpt><trkpt lat="43.149295" lon="13.624715"><ele>99.66666666666667</ele><time>2026-03-22T12:48:56.897Z</time></trkpt><trkpt lat="43.149445" lon="13.6248367"><ele>99.33333333333334</ele><time>2026-03-22T12:48:57.897Z</time></trkpt><trkpt lat="43.149595" lon="13.624965"><ele>99.0</ele><time>2026-03-22T12:48:58.897Z</time></trkpt><trkpt lat="43.14974" lon="13.6251117"><ele>99.5</ele><time>2026-03-22T12:48:59.897Z</time></trkpt><trkpt lat="43.1500183" lon="13.6254417"><ele>100.0</ele><time>2026-03-22T12:49:01.897Z</time></trkpt><trkpt lat="43.1501433" lon="13.6256133"><ele>100.0</ele><time>2026-03-22T12:49:02.897Z</time></trkpt><trkpt lat="43.15026" lon="13.62578"><ele>100.0</ele><time>2026-03-22T12:49:03.896Z</time></trkpt><trkpt lat="43.150375" lon="13.6259517"><ele>100.0</ele><time>2026-03-22T12:49:04.897Z</time></trkpt><trkpt lat="43.15051" lon="13.6261"><ele>99.66666666666667</ele><time>2026-03-22T12:49:05.896Z</time></trkpt><trkpt lat="43.1506533" lon="13.6262283"><ele>99.33333333333334</ele><time>2026-03-22T12:49:06.897Z</time></trkpt><trkpt lat="43.1508133" lon="13.626355"><ele>99.0</ele><time>2026-03-22T12:49:07.896Z</time></trkpt><trkpt lat="43.1509617" lon="13.6265017"><ele>99.0</ele><time>2026-03-22T12:49:08.896Z</time></trkpt><trkpt lat="43.151105" lon="13.6266467"><ele>99.0</ele><time>2026-03-22T12:49:09.897Z</time></trkpt><trkpt lat="43.15125" lon="13.6267833"><ele>99.0</ele><time>2026-03-22T12:49:10.897Z</time></trkpt><trkpt lat="43.1513967" lon="13.6269367"><ele>98.66666666666666</ele><time>2026-03-22T12:49:11.896Z</time></trkpt><trkpt lat="43.1515467" lon="13.6270733"><ele>98.33333333333333</ele><time>2026-03-22T12:49:12.897Z</time></trkpt><trkpt lat="43.15169" lon="13.627215"><ele>98.0</ele><time>2026-03-22T12:49:13.896Z</time></trkpt><trkpt lat="43.1518433" lon="13.62736"><ele>98.0</ele><time>2026-03-22T12:49:14.896Z</time></trkpt><trkpt lat="43.15201" lon="13.6274833"><ele>98.0</ele><time>2026-03-22T12:49:15.896Z</time></trkpt><trkpt lat="43.1521767" lon="13.6275833"><ele>98.0</ele><time>2026-03-22T12:49:16.897Z</time></trkpt><trkpt lat="43.1523317" lon="13.6276883"><ele>97.66666666666666</ele><time>2026-03-22T12:49:17.897Z</time></trkpt><trkpt lat="43.1524967" lon="13.6277867"><ele>97.33333333333334</ele><time>2026-03-22T12:49:18.897Z</time></trkpt><trkpt lat="43.1526583" lon="13.62789"><ele>97.0</ele><time>2026-03-22T12:49:19.896Z</time></trkpt><trkpt lat="43.1528233" lon="13.6279917"><ele>97.0</ele><time>2026-03-22T12:49:20.897Z</time></trkpt><trkpt lat="43.152995" lon="13.6280883"><ele>97.0</ele><time>2026-03-22T12:49:21.896Z</time></trkpt><trkpt lat="43.1531633" lon="13.6281983"><ele>97.0</ele><time>2026-03-22T12:49:22.897Z</time></trkpt><trkpt lat="43.1533183" lon="13.6283"><ele>97.66666666666667</ele><time>2026-03-22T12:49:23.897Z</time></trkpt><trkpt lat="43.1534733" lon="13.6283967"><ele>98.33333333333334</ele><time>2026-03-22T12:49:24.896Z</time></trkpt><trkpt lat="43.15362" lon="13.628505"><ele>99.0</ele><time>2026-03-22T12:49:25.897Z</time></trkpt><trkpt lat="43.1537783" lon="13.628605"><ele>98.66666666666666</ele><time>2026-03-22T12:49:26.896Z</time></trkpt><trkpt lat="43.1539367" lon="13.62871"><ele>98.33333333333333</ele><time>2026-03-22T12:49:27.897Z</time></trkpt><trkpt lat="43.1540917" lon="13.6288067"><ele>98.0</ele><time>2026-03-22T12:49:28.896Z</time></trkpt><trkpt lat="43.1542367" lon="13.6289133"><ele>97.33333333333333</ele><time>2026-03-22T12:49:29.897Z</time></trkpt><trkpt lat="43.15438" lon="13.6290433"><ele>96.66666666666666</ele><time>2026-03-22T12:49:30.896Z</time></trkpt><trkpt lat="43.1545283" lon="13.629165"><ele>96.0</ele><time>2026-03-22T12:49:31.897Z</time></trkpt><trkpt lat="43.1546917" lon="13.629285"><ele>96.0</ele><time>2026-03-22T12:49:32.896Z</time></trkpt><trkpt lat="43.1548467" lon="13.6294133"><ele>96.0</ele><time>2026-03-22T12:49:33.897Z</time></trkpt><trkpt lat="43.1549933" lon="13.6295417"><ele>96.0</ele><time>2026-03-22T12:49:34.896Z</time></trkpt><trkpt lat="43.1551433" lon="13.6296833"><ele>96.0</ele><time>2026-03-22T12:49:35.896Z</time></trkpt><trkpt lat="43.1552917" lon="13.629835"><ele>96.0</ele><time>2026-03-22T12:49:36.896Z</time></trkpt><trkpt lat="43.1554433" lon="13.62997"><ele>96.0</ele><time>2026-03-22T12:49:37.897Z</time></trkpt><trkpt lat="43.1555983" lon="13.6301067"><ele>96.0</ele><time>2026-03-22T12:49:38.896Z</time></trkpt><trkpt lat="43.1557417" lon="13.6302383"><ele>96.0</ele><time>2026-03-22T12:49:39.897Z</time></trkpt><trkpt lat="43.1558933" lon="13.63037"><ele>96.0</ele><time>2026-03-22T12:49:40.897Z</time></trkpt><trkpt lat="43.1560417" lon="13.6305083"><ele>96.0</ele><time>2026-03-22T12:49:41.896Z</time></trkpt><trkpt lat="43.1561883" lon="13.6306383"><ele>96.0</ele><time>2026-03-22T12:49:42.897Z</time></trkpt><trkpt lat="43.1563433" lon="13.6307583"><ele>96.0</ele><time>2026-03-22T12:49:43.897Z</time></trkpt><trkpt lat="43.1564933" lon="13.6308783"><ele>96.33333333333334</ele><time>2026-03-22T12:49:44.897Z</time></trkpt><trkpt lat="43.1566333" lon="13.6310317"><ele>96.66666666666667</ele><time>2026-03-22T12:49:45.897Z</time></trkpt><trkpt lat="43.1567633" lon="13.6311983"><ele>97.0</ele><time>2026-03-22T12:49:46.897Z</time></trkpt><trkpt lat="43.156895" lon="13.63136"><ele>96.0</ele><time>2026-03-22T12:49:47.896Z</time></trkpt><trkpt lat="43.1570233" lon="13.631515"><ele>95.0</ele><time>2026-03-22T12:49:48.897Z</time></trkpt><trkpt lat="43.1571517" lon="13.63167"><ele>94.0</ele><time>2026-03-22T12:49:49.896Z</time></trkpt><trkpt lat="43.157265" lon="13.6318417"><ele>94.66666666666666</ele><time>2026-03-22T12:49:50.897Z</time></trkpt><trkpt lat="43.1573917" lon="13.6320167"><ele>95.33333333333333</ele><time>2026-03-22T12:49:51.897Z</time></trkpt><trkpt lat="43.15751" lon="13.6321917"><ele>96.0</ele><time>2026-03-22T12:49:52.897Z</time></trkpt><trkpt lat="43.157625" lon="13.6323733"><ele>96.0</ele><time>2026-03-22T12:49:53.896Z</time></trkpt><trkpt lat="43.1577383" lon="13.632555"><ele>96.0</ele><time>2026-03-22T12:49:54.896Z</time></trkpt><trkpt lat="43.15784" lon="13.6327467"><ele>96.0</ele><time>2026-03-22T12:49:55.897Z</time></trkpt><trkpt lat="43.1579283" lon="13.6329533"><ele>95.25</ele><time>2026-03-22T12:49:56.897Z</time></trkpt><trkpt lat="43.1580083" lon="13.6331367"><ele>94.5</ele><time>2026-03-22T12:49:57.896Z</time></trkpt><trkpt lat="43.1580683" lon="13.6333233"><ele>93.75</ele><time>2026-03-22T12:49:58.897Z</time></trkpt><trkpt lat="43.1581367" lon="13.63349"><ele>93.0</ele><time>2026-03-22T12:49:59.897Z</time></trkpt><trkpt lat="43.158205" lon="13.6336617"><ele>93.0</ele><time>2026-03-22T12:50:00.897Z</time></trkpt><trkpt lat="43.1582767" lon="13.633825"><ele>93.0</ele><time>2026-03-22T12:50:01.897Z</time></trkpt><trkpt lat="43.1583467" lon="13.6339767"><ele>93.0</ele><time>2026-03-22T12:50:02.897Z</time></trkpt><trkpt lat="43.1584133" lon="13.6341117"><ele>93.0</ele><time>2026-03-22T12:50:03.897Z</time></trkpt><trkpt lat="43.158485" lon="13.6342733"><ele>93.0</ele><time>2026-03-22T12:50:04.897Z</time></trkpt><trkpt lat="43.15856" lon="13.6344333"><ele>93.0</ele><time>2026-03-22T12:50:05.896Z</time></trkpt><trkpt lat="43.158635" lon="13.634595"><ele>93.0</ele><time>2026-03-22T12:50:06.897Z</time></trkpt><trkpt lat="43.1587067" lon="13.63476"><ele>93.0</ele><time>2026-03-22T12:50:07.897Z</time></trkpt><trkpt lat="43.158785" lon="13.63493"><ele>92.33333333333333</ele><time>2026-03-22T12:50:08.897Z</time></trkpt><trkpt lat="43.15887" lon="13.6351217"><ele>91.66666666666666</ele><time>2026-03-22T12:50:09.897Z</time></trkpt><trkpt lat="43.158965" lon="13.6353067"><ele>91.0</ele><time>2026-03-22T12:50:10.897Z</time></trkpt><trkpt lat="43.15906" lon="13.6354917"><ele>91.0</ele><time>2026-03-22T12:50:11.897Z</time></trkpt><trkpt lat="43.1591517" lon="13.6356783"><ele>91.0</ele><time>2026-03-22T12:50:12.897Z</time></trkpt><trkpt lat="43.1592483" lon="13.6358617"><ele>91.0</ele><time>2026-03-22T12:50:13.897Z</time></trkpt><trkpt lat="43.15935" lon="13.6360467"><ele>90.33333333333333</ele><time>2026-03-22T12:50:14.896Z</time></trkpt><trkpt lat="43.1594533" lon="13.6362333"><ele>89.66666666666667</ele><time>2026-03-22T12:50:15.896Z</time></trkpt><trkpt lat="43.1595617" lon="13.636425"><ele>89.0</ele><time>2026-03-22T12:50:16.897Z</time></trkpt><trkpt lat="43.1596617" lon="13.6366117"><ele>89.0</ele><time>2026-03-22T12:50:17.897Z</time></trkpt><trkpt lat="43.1597633" lon="13.6368033"><ele>89.0</ele><time>2026-03-22T12:50:18.897Z</time></trkpt><trkpt lat="43.15987" lon="13.636995"><ele>89.0</ele><time>2026-03-22T12:50:19.897Z</time></trkpt><trkpt lat="43.159975" lon="13.637195"><ele>89.33333333333334</ele><time>2026-03-22T12:50:20.896Z</time></trkpt><trkpt lat="43.1600917" lon="13.637385"><ele>89.66666666666667</ele><time>2026-03-22T12:50:21.896Z</time></trkpt><trkpt lat="43.1601967" lon="13.6375767"><ele>90.0</ele><time>2026-03-22T12:50:22.896Z</time></trkpt><trkpt lat="43.160305" lon="13.63778"><ele>89.33333333333333</ele><time>2026-03-22T12:50:23.897Z</time></trkpt><trkpt lat="43.1604183" lon="13.637985"><ele>88.66666666666666</ele><time>2026-03-22T12:50:24.896Z</time></trkpt><trkpt lat="43.1605283" lon="13.6381817"><ele>88.0</ele><time>2026-03-22T12:50:25.897Z</time></trkpt><trkpt lat="43.1606283" lon="13.63838"><ele>88.66666666666666</ele><time>2026-03-22T12:50:26.896Z</time></trkpt><trkpt lat="43.1607383" lon="13.6385767"><ele>89.33333333333333</ele><time>2026-03-22T12:50:27.896Z</time></trkpt><trkpt lat="43.1608417" lon="13.638775"><ele>90.0</ele><time>2026-03-22T12:50:28.897Z</time></trkpt><trkpt lat="43.160955" lon="13.6389733"><ele>90.0</ele><time>2026-03-22T12:50:29.897Z</time></trkpt><trkpt lat="43.1610583" lon="13.6391767"><ele>90.0</ele><time>2026-03-22T12:50:30.897Z</time></trkpt><trkpt lat="43.1611633" lon="13.639375"><ele>90.0</ele><time>2026-03-22T12:50:31.896Z</time></trkpt><trkpt lat="43.1612733" lon="13.639565"><ele>89.66666666666667</ele><time>2026-03-22T12:50:32.897Z</time></trkpt><trkpt lat="43.1613783" lon="13.639765"><ele>89.33333333333334</ele><time>2026-03-22T12:50:33.896Z</time></trkpt><trkpt lat="43.1614867" lon="13.6399633"><ele>89.0</ele><time>2026-03-22T12:50:34.897Z</time></trkpt><trkpt lat="43.1615683" lon="13.64018"><ele>89.0</ele><time>2026-03-22T12:50:35.896Z</time></trkpt><trkpt lat="43.161665" lon="13.640395"><ele>89.0</ele><time>2026-03-22T12:50:36.896Z</time></trkpt><trkpt lat="43.16176" lon="13.64061"><ele>89.0</ele><time>2026-03-22T12:50:37.896Z</time></trkpt><trkpt lat="43.1618583" lon="13.6408267"><ele>89.0</ele><time>2026-03-22T12:50:38.897Z</time></trkpt><trkpt lat="43.16196" lon="13.641035"><ele>89.0</ele><time>2026-03-22T12:50:39.897Z</time></trkpt><trkpt lat="43.1620633" lon="13.6412467"><ele>89.0</ele><time>2026-03-22T12:50:40.897Z</time></trkpt><trkpt lat="43.1621617" lon="13.6414617"><ele>88.33333333333334</ele><time>2026-03-22T12:50:41.897Z</time></trkpt><trkpt lat="43.1622583" lon="13.6416733"><ele>87.66666666666667</ele><time>2026-03-22T12:50:42.897Z</time></trkpt><trkpt lat="43.1623517" lon="13.641905"><ele>87.0</ele><time>2026-03-22T12:50:43.897Z</time></trkpt><trkpt lat="43.1624383" lon="13.6421367"><ele>87.0</ele><time>2026-03-22T12:50:44.896Z</time></trkpt><trkpt lat="43.1625183" lon="13.642365"><ele>87.0</ele><time>2026-03-22T12:50:45.897Z</time></trkpt><trkpt lat="43.1626017" lon="13.64259"><ele>87.0</ele><time>2026-03-22T12:50:46.897Z</time></trkpt><trkpt lat="43.1626833" lon="13.6428217"><ele>86.33333333333333</ele><time>2026-03-22T12:50:47.896Z</time></trkpt><trkpt lat="43.162765" lon="13.6430467"><ele>85.66666666666666</ele><time>2026-03-22T12:50:48.896Z</time></trkpt><trkpt lat="43.16285" lon="13.6432767"><ele>85.0</ele><time>2026-03-22T12:50:49.897Z</time></trkpt><trkpt lat="43.16293" lon="13.6435017"><ele>84.66666666666666</ele><time>2026-03-22T12:50:50.897Z</time></trkpt><trkpt lat="43.1630167" lon="13.6437317"><ele>84.33333333333333</ele><time>2026-03-22T12:50:51.897Z</time></trkpt><trkpt lat="43.1630933" lon="13.643965"><ele>84.0</ele><time>2026-03-22T12:50:52.896Z</time></trkpt><trkpt lat="43.16318" lon="13.6441933"><ele>84.66666666666667</ele><time>2026-03-22T12:50:53.896Z</time></trkpt><trkpt lat="43.1632567" lon="13.64443"><ele>85.33333333333334</ele><time>2026-03-22T12:50:54.896Z</time></trkpt><trkpt lat="43.163335" lon="13.6446633"><ele>86.0</ele><time>2026-03-22T12:50:55.896Z</time></trkpt><trkpt lat="43.1634167" lon="13.6449017"><ele>86.0</ele><time>2026-03-22T12:50:56.896Z</time></trkpt><trkpt lat="43.1635033" lon="13.64512"><ele>86.0</ele><time>2026-03-22T12:50:57.897Z</time></trkpt><trkpt lat="43.163595" lon="13.6453383"><ele>86.0</ele><time>2026-03-22T12:50:58.896Z</time></trkpt><trkpt lat="43.16368" lon="13.6455667"><ele>85.66666666666667</ele><time>2026-03-22T12:50:59.897Z</time></trkpt><trkpt lat="43.1637683" lon="13.6457933"><ele>85.33333333333333</ele><time>2026-03-22T12:51:00.897Z</time></trkpt><trkpt lat="43.1638567" lon="13.6460233"><ele>85.0</ele><time>2026-03-22T12:51:01.897Z</time></trkpt><trkpt lat="43.1639383" lon="13.6462683"><ele>85.33333333333333</ele><time>2026-03-22T12:51:02.897Z</time></trkpt><trkpt lat="43.1640183" lon="13.6465017"><ele>85.66666666666667</ele><time>2026-03-22T12:51:03.897Z</time></trkpt><trkpt lat="43.1641067" lon="13.6467317"><ele>86.0</ele><time>2026-03-22T12:51:04.897Z</time></trkpt><trkpt lat="43.164195" lon="13.6469633"><ele>85.33333333333334</ele><time>2026-03-22T12:51:05.897Z</time></trkpt><trkpt lat="43.1642883" lon="13.64718"><ele>84.66666666666667</ele><time>2026-03-22T12:51:06.897Z</time></trkpt><trkpt lat="43.164375" lon="13.6474117"><ele>84.0</ele><time>2026-03-22T12:51:07.896Z</time></trkpt><trkpt lat="43.1644583" lon="13.647645"><ele>83.66666666666667</ele><time>2026-03-22T12:51:08.897Z</time></trkpt><trkpt lat="43.1645517" lon="13.6478767"><ele>83.33333333333334</ele><time>2026-03-22T12:51:09.897Z</time></trkpt><trkpt lat="43.1646483" lon="13.6481033"><ele>83.0</ele><time>2026-03-22T12:51:10.896Z</time></trkpt><trkpt lat="43.1647433" lon="13.6483183"><ele>83.0</ele><time>2026-03-22T12:51:11.896Z</time></trkpt><trkpt lat="43.1648567" lon="13.6485233"><ele>83.0</ele><time>2026-03-22T12:51:12.897Z</time></trkpt><trkpt lat="43.1649717" lon="13.6487233"><ele>83.0</ele><time>2026-03-22T12:51:13.897Z</time></trkpt><trkpt lat="43.165095" lon="13.64892"><ele>82.33333333333334</ele><time>2026-03-22T12:51:14.897Z</time></trkpt><trkpt lat="43.1652233" lon="13.6491117"><ele>81.66666666666667</ele><time>2026-03-22T12:51:15.897Z</time></trkpt><trkpt lat="43.1653483" lon="13.649295"><ele>81.0</ele><time>2026-03-22T12:51:16.897Z</time></trkpt><trkpt lat="43.1654767" lon="13.64948"><ele>81.0</ele><time>2026-03-22T12:51:17.897Z</time></trkpt><trkpt lat="43.1656033" lon="13.64967"><ele>81.0</ele><time>2026-03-22T12:51:18.897Z</time></trkpt><trkpt lat="43.16573" lon="13.6498583"><ele>81.0</ele><time>2026-03-22T12:51:19.897Z</time></trkpt><trkpt lat="43.1658467" lon="13.6500567"><ele>81.66666666666667</ele><time>2026-03-22T12:51:20.897Z</time></trkpt><trkpt lat="43.1659717" lon="13.6502333"><ele>82.33333333333334</ele><time>2026-03-22T12:51:21.897Z</time></trkpt><trkpt lat="43.16609" lon="13.6504067"><ele>83.0</ele><time>2026-03-22T12:51:22.897Z</time></trkpt><trkpt lat="43.1662167" lon="13.6505933"><ele>83.0</ele><time>2026-03-22T12:51:23.897Z</time></trkpt><trkpt lat="43.1663483" lon="13.6507717"><ele>83.0</ele><time>2026-03-22T12:51:24.896Z</time></trkpt><trkpt lat="43.16649" lon="13.6509333"><ele>83.0</ele><time>2026-03-22T12:51:25.896Z</time></trkpt><trkpt lat="43.16665" lon="13.6510817"><ele>82.33333333333334</ele><time>2026-03-22T12:51:26.897Z</time></trkpt><trkpt lat="43.166815" lon="13.651235"><ele>81.66666666666667</ele><time>2026-03-22T12:51:27.897Z</time></trkpt><trkpt lat="43.16698" lon="13.6514117"><ele>81.0</ele><time>2026-03-22T12:51:28.897Z</time></trkpt><trkpt lat="43.1671483" lon="13.651575"><ele>81.0</ele><time>2026-03-22T12:51:29.897Z</time></trkpt><trkpt lat="43.1673167" lon="13.6517267"><ele>81.0</ele><time>2026-03-22T12:51:30.896Z</time></trkpt><trkpt lat="43.167485" lon="13.6518933"><ele>81.0</ele><time>2026-03-22T12:51:31.897Z</time></trkpt><trkpt lat="43.1676517" lon="13.652055"><ele>81.66666666666667</ele><time>2026-03-22T12:51:32.896Z</time></trkpt><trkpt lat="43.1678117" lon="13.6522217"><ele>82.33333333333334</ele><time>2026-03-22T12:51:33.896Z</time></trkpt><trkpt lat="43.1679917" lon="13.652375"><ele>83.0</ele><time>2026-03-22T12:51:34.897Z</time></trkpt><trkpt lat="43.1681683" lon="13.6525367"><ele>82.66666666666667</ele><time>2026-03-22T12:51:35.896Z</time></trkpt><trkpt lat="43.16834" lon="13.6527033"><ele>82.33333333333333</ele><time>2026-03-22T12:51:36.896Z</time></trkpt><trkpt lat="43.16851" lon="13.6528633"><ele>82.0</ele><time>2026-03-22T12:51:37.897Z</time></trkpt><trkpt lat="43.16868" lon="13.6530317"><ele>82.0</ele><time>2026-03-22T12:51:38.897Z</time></trkpt><trkpt lat="43.1688517" lon="13.653195"><ele>82.0</ele><time>2026-03-22T12:51:39.897Z</time></trkpt><trkpt lat="43.1690233" lon="13.65334"><ele>82.0</ele><time>2026-03-22T12:51:40.896Z</time></trkpt><trkpt lat="43.1691817" lon="13.6535283"><ele>82.33333333333333</ele><time>2026-03-22T12:51:41.896Z</time></trkpt><trkpt lat="43.1693417" lon="13.6537167"><ele>82.66666666666667</ele><time>2026-03-22T12:51:42.897Z</time></trkpt><trkpt lat="43.1694917" lon="13.6539083"><ele>83.0</ele><time>2026-03-22T12:51:43.896Z</time></trkpt><trkpt lat="43.1696467" lon="13.6540917"><ele>83.0</ele><time>2026-03-22T12:51:44.896Z</time></trkpt><trkpt lat="43.1697933" lon="13.65428"><ele>83.0</ele><time>2026-03-22T12:51:45.896Z</time></trkpt><trkpt lat="43.16995" lon="13.65447"><ele>83.0</ele><time>2026-03-22T12:51:46.896Z</time></trkpt><trkpt lat="43.170105" lon="13.654655"><ele>82.66666666666667</ele><time>2026-03-22T12:51:47.896Z</time></trkpt><trkpt lat="43.1702567" lon="13.654835"><ele>82.33333333333333</ele><time>2026-03-22T12:51:48.897Z</time></trkpt><trkpt lat="43.1704117" lon="13.655"><ele>82.0</ele><time>2026-03-22T12:51:49.896Z</time></trkpt><trkpt lat="43.17057" lon="13.6551633"><ele>81.33333333333333</ele><time>2026-03-22T12:51:50.896Z</time></trkpt><trkpt lat="43.1707283" lon="13.65534"><ele>80.66666666666667</ele><time>2026-03-22T12:51:51.897Z</time></trkpt><trkpt lat="43.1708683" lon="13.6555383"><ele>80.0</ele><time>2026-03-22T12:51:52.897Z</time></trkpt><trkpt lat="43.17101" lon="13.6557317"><ele>80.0</ele><time>2026-03-22T12:51:53.896Z</time></trkpt><trkpt lat="43.171145" lon="13.6559317"><ele>80.0</ele><time>2026-03-22T12:51:54.896Z</time></trkpt><trkpt lat="43.1712717" lon="13.6561333"><ele>80.0</ele><time>2026-03-22T12:51:55.896Z</time></trkpt><trkpt lat="43.171395" lon="13.6563417"><ele>79.66666666666667</ele><time>2026-03-22T12:51:56.897Z</time></trkpt><trkpt lat="43.1715167" lon="13.6565667"><ele>79.33333333333333</ele><time>2026-03-22T12:51:57.896Z</time></trkpt><trkpt lat="43.1716217" lon="13.6567917"><ele>79.0</ele><time>2026-03-22T12:51:58.897Z</time></trkpt><trkpt lat="43.17172" lon="13.6570183"><ele>79.66666666666666</ele><time>2026-03-22T12:51:59.896Z</time></trkpt><trkpt lat="43.1718133" lon="13.657265"><ele>80.33333333333333</ele><time>2026-03-22T12:52:00.896Z</time></trkpt><trkpt lat="43.1718933" lon="13.6575183"><ele>81.0</ele><time>2026-03-22T12:52:01.897Z</time></trkpt><trkpt lat="43.1719467" lon="13.6577783"><ele>80.66666666666667</ele><time>2026-03-22T12:52:02.896Z</time></trkpt><trkpt lat="43.1719983" lon="13.6580417"><ele>80.33333333333334</ele><time>2026-03-22T12:52:03.897Z</time></trkpt><trkpt lat="43.1720267" lon="13.6583233"><ele>80.0</ele><time>2026-03-22T12:52:04.896Z</time></trkpt><trkpt lat="43.1720583" lon="13.658605"><ele>79.33333333333334</ele><time>2026-03-22T12:52:05.897Z</time></trkpt><trkpt lat="43.1721033" lon="13.6588783"><ele>78.66666666666667</ele><time>2026-03-22T12:52:06.897Z</time></trkpt><trkpt lat="43.17214" lon="13.6591533"><ele>78.0</ele><time>2026-03-22T12:52:07.897Z</time></trkpt><trkpt lat="43.17218" lon="13.6594117"><ele>77.66666666666667</ele><time>2026-03-22T12:52:08.897Z</time></trkpt><trkpt lat="43.1722" lon="13.65968"><ele>77.33333333333334</ele><time>2026-03-22T12:52:09.897Z</time></trkpt><trkpt lat="43.1722283" lon="13.6599567"><ele>77.0</ele><time>2026-03-22T12:52:10.896Z</time></trkpt><trkpt lat="43.1722567" lon="13.6602267"><ele>76.33333333333334</ele><time>2026-03-22T12:52:11.897Z</time></trkpt><trkpt lat="43.172285" lon="13.660475"><ele>75.66666666666667</ele><time>2026-03-22T12:52:12.897Z</time></trkpt><trkpt lat="43.17229" lon="13.6607583"><ele>75.0</ele><time>2026-03-22T12:52:13.896Z</time></trkpt><trkpt lat="43.1723367" lon="13.661025"><ele>75.33333333333333</ele><time>2026-03-22T12:52:14.896Z</time></trkpt><trkpt lat="43.1723883" lon="13.6612833"><ele>75.66666666666666</ele><time>2026-03-22T12:52:15.897Z</time></trkpt><trkpt lat="43.17243" lon="13.66155"><ele>76.0</ele><time>2026-03-22T12:52:16.897Z</time></trkpt><trkpt lat="43.1724933" lon="13.6618017"><ele>75.66666666666666</ele><time>2026-03-22T12:52:17.896Z</time></trkpt><trkpt lat="43.1725433" lon="13.6620567"><ele>75.33333333333333</ele><time>2026-03-22T12:52:18.897Z</time></trkpt><trkpt lat="43.17261" lon="13.6623183"><ele>75.0</ele><time>2026-03-22T12:52:19.897Z</time></trkpt><trkpt lat="43.1726683" lon="13.662575"><ele>75.0</ele><time>2026-03-22T12:52:20.896Z</time></trkpt><trkpt lat="43.1727267" lon="13.662835"><ele>75.0</ele><time>2026-03-22T12:52:21.896Z</time></trkpt><trkpt lat="43.17278" lon="13.6631"><ele>75.0</ele><time>2026-03-22T12:52:22.897Z</time></trkpt><trkpt lat="43.1728383" lon="13.6633683"><ele>75.0</ele><time>2026-03-22T12:52:23.897Z</time></trkpt><trkpt lat="43.1728867" lon="13.66363"><ele>75.0</ele><time>2026-03-22T12:52:24.897Z</time></trkpt><trkpt lat="43.1729383" lon="13.663895"><ele>75.0</ele><time>2026-03-22T12:52:25.896Z</time></trkpt><trkpt lat="43.173" lon="13.6641617"><ele>75.0</ele><time>2026-03-22T12:52:26.897Z</time></trkpt><trkpt lat="43.17305" lon="13.6644383"><ele>75.0</ele><time>2026-03-22T12:52:27.897Z</time></trkpt><trkpt lat="43.1731117" lon="13.6646983"><ele>75.0</ele><time>2026-03-22T12:52:28.897Z</time></trkpt><trkpt lat="43.173175" lon="13.6649667"><ele>75.0</ele><time>2026-03-22T12:52:29.897Z</time></trkpt><trkpt lat="43.17323" lon="13.6652417"><ele>75.0</ele><time>2026-03-22T12:52:30.896Z</time></trkpt><trkpt lat="43.173285" lon="13.6655067"><ele>75.0</ele><time>2026-03-22T12:52:31.897Z</time></trkpt><trkpt lat="43.1733367" lon="13.6657717"><ele>75.0</ele><time>2026-03-22T12:52:32.896Z</time></trkpt><trkpt lat="43.1733933" lon="13.666035"><ele>75.0</ele><time>2026-03-22T12:52:33.896Z</time></trkpt><trkpt lat="43.1734433" lon="13.6662933"><ele>75.0</ele><time>2026-03-22T12:52:34.897Z</time></trkpt><trkpt lat="43.1734983" lon="13.6665517"><ele>73.66666666666667</ele><time>2026-03-22T12:52:35.896Z</time></trkpt><trkpt lat="43.1735483" lon="13.6668083"><ele>72.33333333333334</ele><time>2026-03-22T12:52:36.897Z</time></trkpt><trkpt lat="43.17361" lon="13.66706"><ele>71.0</ele><time>2026-03-22T12:52:37.897Z</time></trkpt><trkpt lat="43.1736683" lon="13.6672967"><ele>70.66666666666667</ele><time>2026-03-22T12:52:38.896Z</time></trkpt><trkpt lat="43.17372" lon="13.6675333"><ele>70.33333333333333</ele><time>2026-03-22T12:52:39.897Z</time></trkpt><trkpt lat="43.1737767" lon="13.667745"><ele>70.0</ele><time>2026-03-22T12:52:40.896Z</time></trkpt><trkpt lat="43.17382" lon="13.6679567"><ele>70.0</ele><time>2026-03-22T12:52:41.897Z</time></trkpt><trkpt lat="43.17387" lon="13.6681533"><ele>70.0</ele><time>2026-03-22T12:52:42.896Z</time></trkpt><trkpt lat="43.1739317" lon="13.6683417"><ele>70.0</ele><time>2026-03-22T12:52:43.897Z</time></trkpt><trkpt lat="43.1739783" lon="13.6685283"><ele>70.0</ele><time>2026-03-22T12:52:44.897Z</time></trkpt><trkpt lat="43.174015" lon="13.6687"><ele>70.5</ele><time>2026-03-22T12:52:45.897Z</time></trkpt><trkpt lat="43.1740467" lon="13.6688717"><ele>71.0</ele><time>2026-03-22T12:52:46.896Z</time></trkpt><trkpt lat="43.1740767" lon="13.669035"><ele>71.5</ele><time>2026-03-22T12:52:47.896Z</time></trkpt><trkpt lat="43.1741133" lon="13.6691783"><ele>72.0</ele><time>2026-03-22T12:52:48.896Z</time></trkpt><trkpt lat="43.1741433" lon="13.6693317"><ele>71.75</ele><time>2026-03-22T12:52:49.896Z</time></trkpt><trkpt lat="43.174175" lon="13.66949"><ele>71.5</ele><time>2026-03-22T12:52:50.896Z</time></trkpt><trkpt lat="43.174205" lon="13.6696417"><ele>71.25</ele><time>2026-03-22T12:52:51.897Z</time></trkpt><trkpt lat="43.1742383" lon="13.6697967"><ele>71.0</ele><time>2026-03-22T12:52:52.897Z</time></trkpt><trkpt lat="43.1742683" lon="13.66995"><ele>71.0</ele><time>2026-03-22T12:52:53.896Z</time></trkpt><trkpt lat="43.174305" lon="13.6700917"><ele>71.0</ele><time>2026-03-22T12:52:54.897Z</time></trkpt><trkpt lat="43.1743367" lon="13.670235"><ele>71.0</ele><time>2026-03-22T12:52:55.897Z</time></trkpt><trkpt lat="43.1743667" lon="13.670385"><ele>71.0</ele><time>2026-03-22T12:52:56.897Z</time></trkpt><trkpt lat="43.1743967" lon="13.6705233"><ele>71.0</ele><time>2026-03-22T12:52:57.897Z</time></trkpt><trkpt lat="43.1744283" lon="13.6706633"><ele>70.8</ele><time>2026-03-22T12:52:58.897Z</time></trkpt><trkpt lat="43.1744517" lon="13.6707967"><ele>70.6</ele><time>2026-03-22T12:52:59.897Z</time></trkpt><trkpt lat="43.1744833" lon="13.6709083"><ele>70.4</ele><time>2026-03-22T12:53:00.897Z</time></trkpt><trkpt lat="43.174515" lon="13.6709967"><ele>70.2</ele><time>2026-03-22T12:53:01.897Z</time></trkpt><trkpt lat="43.17458" lon="13.6711467"><ele>70.0</ele><time>2026-03-22T12:53:03.897Z</time></trkpt><trkpt lat="43.1746467" lon="13.6712567"><ele>70.0</ele><time>2026-03-22T12:53:05.897Z</time></trkpt><trkpt lat="43.174695" lon="13.6713683"><ele>70.0</ele><time>2026-03-22T12:53:07.897Z</time></trkpt><trkpt lat="43.17474" lon="13.6715033"><ele>70.0</ele><time>2026-03-22T12:53:09.897Z</time></trkpt><trkpt lat="43.174785" lon="13.6715733"><ele>70.0</ele><time>2026-03-22T12:53:10.897Z</time></trkpt><trkpt lat="43.1748417" lon="13.6716433"><ele>70.0</ele><time>2026-03-22T12:53:11.896Z</time></trkpt><trkpt lat="43.1749117" lon="13.6717233"><ele>70.0</ele><time>2026-03-22T12:53:12.897Z</time></trkpt><trkpt lat="43.1749883" lon="13.6718183"><ele>70.0</ele><time>2026-03-22T12:53:13.896Z</time></trkpt><trkpt lat="43.175075" lon="13.6719083"><ele>70.0</ele><time>2026-03-22T12:53:14.897Z</time></trkpt><trkpt lat="43.1751533" lon="13.6720117"><ele>70.0</ele><time>2026-03-22T12:53:15.896Z</time></trkpt><trkpt lat="43.1752317" lon="13.6721217"><ele>70.0</ele><time>2026-03-22T12:53:16.897Z</time></trkpt><trkpt lat="43.1753067" lon="13.67224"><ele>70.0</ele><time>2026-03-22T12:53:17.896Z</time></trkpt><trkpt lat="43.1753983" lon="13.6723583"><ele>69.75</ele><time>2026-03-22T12:53:18.896Z</time></trkpt><trkpt lat="43.1755" lon="13.67248"><ele>69.5</ele><time>2026-03-22T12:53:19.897Z</time></trkpt><trkpt lat="43.1755933" lon="13.6726017"><ele>69.25</ele><time>2026-03-22T12:53:20.896Z</time></trkpt><trkpt lat="43.1756817" lon="13.6727217"><ele>69.0</ele><time>2026-03-22T12:53:21.896Z</time></trkpt><trkpt lat="43.1757783" lon="13.6728383"><ele>69.0</ele><time>2026-03-22T12:53:22.897Z</time></trkpt><trkpt lat="43.1758733" lon="13.6729583"><ele>69.0</ele><time>2026-03-22T12:53:23.897Z</time></trkpt><trkpt lat="43.1759633" lon="13.673085"><ele>69.0</ele><time>2026-03-22T12:53:24.896Z</time></trkpt><trkpt lat="43.176055" lon="13.6732083"><ele>69.0</ele><time>2026-03-22T12:53:25.897Z</time></trkpt><trkpt lat="43.1761533" lon="13.6733233"><ele>69.0</ele><time>2026-03-22T12:53:26.897Z</time></trkpt><trkpt lat="43.176255" lon="13.6734233"><ele>69.0</ele><time>2026-03-22T12:53:27.897Z</time></trkpt><trkpt lat="43.176355" lon="13.6735417"><ele>69.0</ele><time>2026-03-22T12:53:28.896Z</time></trkpt><trkpt lat="43.17645" lon="13.6736617"><ele>69.0</ele><time>2026-03-22T12:53:29.897Z</time></trkpt><trkpt lat="43.1765467" lon="13.673795"><ele>69.0</ele><time>2026-03-22T12:53:30.897Z</time></trkpt><trkpt lat="43.1766367" lon="13.673925"><ele>69.0</ele><time>2026-03-22T12:53:31.897Z</time></trkpt><trkpt lat="43.1767283" lon="13.6740517"><ele>69.0</ele><time>2026-03-22T12:53:32.896Z</time></trkpt><trkpt lat="43.1768183" lon="13.6741733"><ele>69.0</ele><time>2026-03-22T12:53:33.897Z</time></trkpt><trkpt lat="43.1768917" lon="13.67428"><ele>69.0</ele><time>2026-03-22T12:53:34.897Z</time></trkpt><trkpt lat="43.1769367" lon="13.674395"><ele>69.0</ele><time>2026-03-22T12:53:35.896Z</time></trkpt><trkpt lat="43.1769617" lon="13.6745217"><ele>69.0</ele><time>2026-03-22T12:53:36.896Z</time></trkpt><trkpt lat="43.1769767" lon="13.6746683"><ele>69.0</ele><time>2026-03-22T12:53:37.896Z</time></trkpt><trkpt lat="43.176995" lon="13.6748133"><ele>69.0</ele><time>2026-03-22T12:53:38.897Z</time></trkpt><trkpt lat="43.1770467" lon="13.6749483"><ele>69.0</ele><time>2026-03-22T12:53:39.897Z</time></trkpt><trkpt lat="43.1771333" lon="13.6750333"><ele>69.0</ele><time>2026-03-22T12:53:40.896Z</time></trkpt><trkpt lat="43.1772367" lon="13.6750917"><ele>69.0</ele><time>2026-03-22T12:53:41.896Z</time></trkpt><trkpt lat="43.1773417" lon="13.6751133"><ele>69.0</ele><time>2026-03-22T12:53:42.897Z</time></trkpt><trkpt lat="43.1774433" lon="13.6751333"><ele>69.0</ele><time>2026-03-22T12:53:43.897Z</time></trkpt><trkpt lat="43.1775417" lon="13.6751983"><ele>68.75</ele><time>2026-03-22T12:53:44.897Z</time></trkpt><trkpt lat="43.1776383" lon="13.6753117"><ele>68.5</ele><time>2026-03-22T12:53:45.897Z</time></trkpt><trkpt lat="43.1776883" lon="13.6754733"><ele>68.25</ele><time>2026-03-22T12:53:46.897Z</time></trkpt><trkpt lat="43.1777233" lon="13.6756617"><ele>68.0</ele><time>2026-03-22T12:53:47.896Z</time></trkpt><trkpt lat="43.177745" lon="13.6758933"><ele>67.0</ele><time>2026-03-22T12:53:48.897Z</time></trkpt><trkpt lat="43.1777617" lon="13.6761217"><ele>66.0</ele><time>2026-03-22T12:53:49.896Z</time></trkpt><trkpt lat="43.1777733" lon="13.67636"><ele>65.0</ele><time>2026-03-22T12:53:50.897Z</time></trkpt><trkpt lat="43.17778" lon="13.6766083"><ele>65.0</ele><time>2026-03-22T12:53:51.896Z</time></trkpt><trkpt lat="43.1777833" lon="13.6768683"><ele>65.0</ele><time>2026-03-22T12:53:52.896Z</time></trkpt><trkpt lat="43.1777833" lon="13.6771317"><ele>65.0</ele><time>2026-03-22T12:53:53.896Z</time></trkpt><trkpt lat="43.1777933" lon="13.677385"><ele>65.66666666666667</ele><time>2026-03-22T12:53:54.896Z</time></trkpt><trkpt lat="43.1778083" lon="13.6776417"><ele>66.33333333333333</ele><time>2026-03-22T12:53:55.897Z</time></trkpt><trkpt lat="43.177825" lon="13.6779"><ele>67.0</ele><time>2026-03-22T12:53:56.896Z</time></trkpt><trkpt lat="43.1778367" lon="13.6781417"><ele>67.0</ele><time>2026-03-22T12:53:57.896Z</time></trkpt><trkpt lat="43.177835" lon="13.678385"><ele>67.0</ele><time>2026-03-22T12:53:58.896Z</time></trkpt><trkpt lat="43.17783" lon="13.678605"><ele>67.0</ele><time>2026-03-22T12:53:59.896Z</time></trkpt><trkpt lat="43.1778333" lon="13.6788383"><ele>66.33333333333333</ele><time>2026-03-22T12:54:00.897Z</time></trkpt><trkpt lat="43.1778117" lon="13.6790633"><ele>65.66666666666667</ele><time>2026-03-22T12:54:01.896Z</time></trkpt><trkpt lat="43.1777717" lon="13.6792767"><ele>65.0</ele><time>2026-03-22T12:54:02.896Z</time></trkpt><trkpt lat="43.1777183" lon="13.6794667"><ele>65.0</ele><time>2026-03-22T12:54:03.897Z</time></trkpt><trkpt lat="43.17766" lon="13.6796233"><ele>65.0</ele><time>2026-03-22T12:54:04.897Z</time></trkpt><trkpt lat="43.1776017" lon="13.6797533"><ele>65.0</ele><time>2026-03-22T12:54:05.897Z</time></trkpt><trkpt lat="43.1775267" lon="13.679865"><ele>65.0</ele><time>2026-03-22T12:54:06.897Z</time></trkpt><trkpt lat="43.177435" lon="13.679985"><ele>65.0</ele><time>2026-03-22T12:54:07.897Z</time></trkpt><trkpt lat="43.17733" lon="13.680115"><ele>65.0</ele><time>2026-03-22T12:54:08.897Z</time></trkpt><trkpt lat="43.1772317" lon="13.6802617"><ele>65.0</ele><time>2026-03-22T12:54:09.897Z</time></trkpt><trkpt lat="43.1771283" lon="13.6804117"><ele>65.0</ele><time>2026-03-22T12:54:10.896Z</time></trkpt><trkpt lat="43.1770217" lon="13.6805633"><ele>64.75</ele><time>2026-03-22T12:54:11.896Z</time></trkpt><trkpt lat="43.1769267" lon="13.6807183"><ele>64.5</ele><time>2026-03-22T12:54:12.897Z</time></trkpt><trkpt lat="43.1768467" lon="13.6808983"><ele>64.25</ele><time>2026-03-22T12:54:13.897Z</time></trkpt><trkpt lat="43.1767383" lon="13.681035"><ele>64.0</ele><time>2026-03-22T12:54:14.897Z</time></trkpt><trkpt lat="43.1766217" lon="13.6811733"><ele>64.0</ele><time>2026-03-22T12:54:15.897Z</time></trkpt><trkpt lat="43.1764983" lon="13.6813133"><ele>64.0</ele><time>2026-03-22T12:54:16.896Z</time></trkpt><trkpt lat="43.1763767" lon="13.6814417"><ele>64.0</ele><time>2026-03-22T12:54:17.897Z</time></trkpt><trkpt lat="43.1762383" lon="13.681545"><ele>64.0</ele><time>2026-03-22T12:54:18.897Z</time></trkpt><trkpt lat="43.1760883" lon="13.6816333"><ele>64.0</ele><time>2026-03-22T12:54:19.897Z</time></trkpt><trkpt lat="43.1759483" lon="13.68171"><ele>64.0</ele><time>2026-03-22T12:54:20.896Z</time></trkpt><trkpt lat="43.175815" lon="13.6817717"><ele>64.25</ele><time>2026-03-22T12:54:21.896Z</time></trkpt><trkpt lat="43.1756733" lon="13.6818333"><ele>64.5</ele><time>2026-03-22T12:54:22.897Z</time></trkpt><trkpt lat="43.1755467" lon="13.6818933"><ele>64.75</ele><time>2026-03-22T12:54:23.896Z</time></trkpt><trkpt lat="43.17543" lon="13.6819683"><ele>65.0</ele><time>2026-03-22T12:54:24.897Z</time></trkpt><trkpt lat="43.1753067" lon="13.6820367"><ele>65.0</ele><time>2026-03-22T12:54:25.896Z</time></trkpt><trkpt lat="43.1751967" lon="13.6821033"><ele>65.0</ele><time>2026-03-22T12:54:26.897Z</time></trkpt><trkpt lat="43.1750817" lon="13.6821683"><ele>65.0</ele><time>2026-03-22T12:54:27.896Z</time></trkpt><trkpt lat="43.1749567" lon="13.6822333"><ele>65.0</ele><time>2026-03-22T12:54:28.897Z</time></trkpt><trkpt lat="43.1748317" lon="13.6822983"><ele>64.33333333333334</ele><time>2026-03-22T12:54:29.896Z</time></trkpt><trkpt lat="43.17469" lon="13.6823617"><ele>63.66666666666667</ele><time>2026-03-22T12:54:30.897Z</time></trkpt><trkpt lat="43.1745433" lon="13.68245"><ele>63.0</ele><time>2026-03-22T12:54:31.897Z</time></trkpt><trkpt lat="43.17439" lon="13.682545"><ele>63.0</ele><time>2026-03-22T12:54:32.896Z</time></trkpt><trkpt lat="43.1742233" lon="13.6826433"><ele>63.0</ele><time>2026-03-22T12:54:33.896Z</time></trkpt><trkpt lat="43.1740433" lon="13.6827317"><ele>63.0</ele><time>2026-03-22T12:54:34.897Z</time></trkpt><trkpt lat="43.17387" lon="13.682815"><ele>63.0</ele><time>2026-03-22T12:54:35.897Z</time></trkpt><trkpt lat="43.1736933" lon="13.6829017"><ele>63.0</ele><time>2026-03-22T12:54:36.897Z</time></trkpt><trkpt lat="43.1735383" lon="13.6829833"><ele>63.0</ele><time>2026-03-22T12:54:37.896Z</time></trkpt><trkpt lat="43.1733883" lon="13.683055"><ele>63.0</ele><time>2026-03-22T12:54:38.897Z</time></trkpt><trkpt lat="43.1732267" lon="13.68313"><ele>63.0</ele><time>2026-03-22T12:54:39.896Z</time></trkpt><trkpt lat="43.17308" lon="13.6832067"><ele>63.0</ele><time>2026-03-22T12:54:40.897Z</time></trkpt><trkpt lat="43.1729533" lon="13.683265"><ele>64.4</ele><time>2026-03-22T12:54:41.897Z</time></trkpt><trkpt lat="43.1728483" lon="13.6833117"><ele>65.8</ele><time>2026-03-22T12:54:42.897Z</time></trkpt><trkpt lat="43.17275" lon="13.68333"><ele>67.2</ele><time>2026-03-22T12:54:43.896Z</time></trkpt><trkpt lat="43.1726483" lon="13.6833183"><ele>68.6</ele><time>2026-03-22T12:54:44.896Z</time></trkpt><trkpt lat="43.1725517" lon="13.68329"><ele>70.0</ele><time>2026-03-22T12:54:45.897Z</time></trkpt><trkpt lat="43.172455" lon="13.6832717"><ele>72.25</ele><time>2026-03-22T12:54:46.897Z</time></trkpt><trkpt lat="43.1723517" lon="13.68325"><ele>74.5</ele><time>2026-03-22T12:54:47.897Z</time></trkpt><trkpt lat="43.1722417" lon="13.683205"><ele>76.75</ele><time>2026-03-22T12:54:48.896Z</time></trkpt><trkpt lat="43.172125" lon="13.6831417"><ele>79.0</ele><time>2026-03-22T12:54:49.897Z</time></trkpt><trkpt lat="43.1720133" lon="13.6830617"><ele>79.0</ele><time>2026-03-22T12:54:50.897Z</time></trkpt><trkpt lat="43.1719017" lon="13.6829667"><ele>79.0</ele><time>2026-03-22T12:54:51.896Z</time></trkpt><trkpt lat="43.1717967" lon="13.68287"><ele>79.0</ele><time>2026-03-22T12:54:52.897Z</time></trkpt><trkpt lat="43.1716817" lon="13.682775"><ele>79.0</ele><time>2026-03-22T12:54:53.897Z</time></trkpt><trkpt lat="43.1715533" lon="13.68267"><ele>78.0</ele><time>2026-03-22T12:54:54.896Z</time></trkpt><trkpt lat="43.1714067" lon="13.682565"><ele>77.0</ele><time>2026-03-22T12:54:55.897Z</time></trkpt><trkpt lat="43.17124" lon="13.6824683"><ele>76.0</ele><time>2026-03-22T12:54:56.896Z</time></trkpt><trkpt lat="43.1710633" lon="13.68237"><ele>76.0</ele><time>2026-03-22T12:54:57.896Z</time></trkpt><trkpt lat="43.1708783" lon="13.6822917"><ele>76.0</ele><time>2026-03-22T12:54:58.897Z</time></trkpt><trkpt lat="43.1707" lon="13.6822317"><ele>76.0</ele><time>2026-03-22T12:54:59.896Z</time></trkpt><trkpt lat="43.1705333" lon="13.6821783"><ele>77.5</ele><time>2026-03-22T12:55:00.897Z</time></trkpt><trkpt lat="43.1703817" lon="13.6821333"><ele>79.0</ele><time>2026-03-22T12:55:01.897Z</time></trkpt><trkpt lat="43.1702483" lon="13.68211"><ele>80.5</ele><time>2026-03-22T12:55:02.897Z</time></trkpt><trkpt lat="43.1701283" lon="13.682115"><ele>82.0</ele><time>2026-03-22T12:55:03.896Z</time></trkpt><trkpt lat="43.1700267" lon="13.6821417"><ele>82.0</ele><time>2026-03-22T12:55:04.897Z</time></trkpt><trkpt lat="43.16995" lon="13.6821633"><ele>82.0</ele><time>2026-03-22T12:55:05.897Z</time></trkpt><trkpt lat="43.1698833" lon="13.6821783"><ele>82.0</ele><time>2026-03-22T12:55:06.897Z</time></trkpt><trkpt lat="43.16982" lon="13.6821917"><ele>82.0</ele><time>2026-03-22T12:55:07.897Z</time></trkpt><trkpt lat="43.1697217" lon="13.6822567"><ele>82.0</ele><time>2026-03-22T12:55:09.896Z</time></trkpt><trkpt lat="43.1696817" lon="13.6823383"><ele>82.0</ele><time>2026-03-22T12:55:10.896Z</time></trkpt><trkpt lat="43.16964" lon="13.6824467"><ele>81.19999999999999</ele><time>2026-03-22T12:55:11.896Z</time></trkpt><trkpt lat="43.1695933" lon="13.6825633"><ele>80.39999999999999</ele><time>2026-03-22T12:55:12.897Z</time></trkpt><trkpt lat="43.1695367" lon="13.6826717"><ele>79.6</ele><time>2026-03-22T12:55:13.896Z</time></trkpt><trkpt lat="43.169455" lon="13.68278"><ele>78.8</ele><time>2026-03-22T12:55:14.896Z</time></trkpt><trkpt lat="43.16937" lon="13.682895"><ele>78.0</ele><time>2026-03-22T12:55:15.896Z</time></trkpt><trkpt lat="43.1692883" lon="13.683"><ele>78.0</ele><time>2026-03-22T12:55:16.896Z</time></trkpt><trkpt lat="43.1692083" lon="13.6831017"><ele>78.0</ele><time>2026-03-22T12:55:17.897Z</time></trkpt><trkpt lat="43.1691383" lon="13.683205"><ele>78.0</ele><time>2026-03-22T12:55:18.896Z</time></trkpt><trkpt lat="43.1690633" lon="13.6833067"><ele>78.0</ele><time>2026-03-22T12:55:19.897Z</time></trkpt><trkpt lat="43.1689967" lon="13.68341"><ele>78.0</ele><time>2026-03-22T12:55:20.896Z</time></trkpt><trkpt lat="43.1689317" lon="13.6835217"><ele>79.2</ele><time>2026-03-22T12:55:21.896Z</time></trkpt><trkpt lat="43.16887" lon="13.6836317"><ele>80.4</ele><time>2026-03-22T12:55:22.897Z</time></trkpt><trkpt lat="43.1688217" lon="13.6837517"><ele>81.60000000000001</ele><time>2026-03-22T12:55:23.897Z</time></trkpt><trkpt lat="43.1687733" lon="13.68389"><ele>82.8</ele><time>2026-03-22T12:55:24.896Z</time></trkpt><trkpt lat="43.168725" lon="13.684055"><ele>84.0</ele><time>2026-03-22T12:55:25.896Z</time></trkpt><trkpt lat="43.16865" lon="13.6842367"><ele>86.66666666666667</ele><time>2026-03-22T12:55:26.896Z</time></trkpt><trkpt lat="43.1685767" lon="13.6844367"><ele>89.33333333333334</ele><time>2026-03-22T12:55:27.897Z</time></trkpt><trkpt lat="43.1684967" lon="13.68466"><ele>92.0</ele><time>2026-03-22T12:55:28.896Z</time></trkpt><trkpt lat="43.1684083" lon="13.684915"><ele>92.0</ele><time>2026-03-22T12:55:29.897Z</time></trkpt><trkpt lat="43.1683017" lon="13.6851883"><ele>92.0</ele><time>2026-03-22T12:55:30.896Z</time></trkpt><trkpt lat="43.1682167" lon="13.6854517"><ele>92.0</ele><time>2026-03-22T12:55:31.897Z</time></trkpt><trkpt lat="43.1681183" lon="13.6857017"><ele>91.0</ele><time>2026-03-22T12:55:32.897Z</time></trkpt><trkpt lat="43.1679917" lon="13.6859483"><ele>90.0</ele><time>2026-03-22T12:55:33.896Z</time></trkpt><trkpt lat="43.1678367" lon="13.6861883"><ele>91.66666666666667</ele><time>2026-03-22T12:55:34.897Z</time></trkpt><trkpt lat="43.167695" lon="13.6864217"><ele>93.33333333333334</ele><time>2026-03-22T12:55:35.896Z</time></trkpt><trkpt lat="43.1675533" lon="13.686635"><ele>95.0</ele><time>2026-03-22T12:55:36.896Z</time></trkpt><trkpt lat="43.1674117" lon="13.6868383"><ele>95.66666666666667</ele><time>2026-03-22T12:55:37.896Z</time></trkpt><trkpt lat="43.1672967" lon="13.6870283"><ele>96.33333333333334</ele><time>2026-03-22T12:55:38.897Z</time></trkpt><trkpt lat="43.1672167" lon="13.6872"><ele>97.0</ele><time>2026-03-22T12:55:39.897Z</time></trkpt><trkpt lat="43.1671517" lon="13.68735"><ele>97.00000000000001</ele><time>2026-03-22T12:55:40.897Z</time></trkpt><trkpt lat="43.1671067" lon="13.6874617"><ele>97.0</ele><time>2026-03-22T12:55:41.897Z</time></trkpt><trkpt lat="43.1670783" lon="13.6875517"><ele>97.0</ele><time>2026-03-22T12:55:42.897Z</time></trkpt><trkpt lat="43.167095" lon="13.687685"><ele>97.0</ele><time>2026-03-22T12:55:44.896Z</time></trkpt><trkpt lat="43.1671417" lon="13.6877467"><ele>97.00000000000001</ele><time>2026-03-22T12:55:45.896Z</time></trkpt><trkpt lat="43.167225" lon="13.6878133"><ele>97.0</ele><time>2026-03-22T12:55:46.896Z</time></trkpt><trkpt lat="43.16734" lon="13.68789"><ele>99.33333333333334</ele><time>2026-03-22T12:55:47.896Z</time></trkpt><trkpt lat="43.16748" lon="13.6880167"><ele>101.66666666666666</ele><time>2026-03-22T12:55:48.897Z</time></trkpt><trkpt lat="43.16761" lon="13.6881517"><ele>104.0</ele><time>2026-03-22T12:55:49.896Z</time></trkpt><trkpt lat="43.1677317" lon="13.6882833"><ele>104.0</ele><time>2026-03-22T12:55:50.897Z</time></trkpt><trkpt lat="43.16785" lon="13.68843"><ele>104.0</ele><time>2026-03-22T12:55:51.896Z</time></trkpt><trkpt lat="43.1679733" lon="13.6885533"><ele>104.0</ele><time>2026-03-22T12:55:52.896Z</time></trkpt><trkpt lat="43.1681167" lon="13.6886483"><ele>107.75</ele><time>2026-03-22T12:55:53.897Z</time></trkpt><trkpt lat="43.1682533" lon="13.6887217"><ele>111.5</ele><time>2026-03-22T12:55:54.897Z</time></trkpt><trkpt lat="43.1683867" lon="13.6887517"><ele>115.25</ele><time>2026-03-22T12:55:55.896Z</time></trkpt><trkpt lat="43.1685083" lon="13.688755"><ele>119.0</ele><time>2026-03-22T12:55:56.896Z</time></trkpt><trkpt lat="43.1686217" lon="13.6887167"><ele>119.0</ele><time>2026-03-22T12:55:57.896Z</time></trkpt><trkpt lat="43.1687283" lon="13.6886417"><ele>119.0</ele><time>2026-03-22T12:55:58.896Z</time></trkpt><trkpt lat="43.1688417" lon="13.6885617"><ele>119.0</ele><time>2026-03-22T12:55:59.897Z</time></trkpt><trkpt lat="43.1689483" lon="13.6885017"><ele>119.0</ele><time>2026-03-22T12:56:00.896Z</time></trkpt><trkpt lat="43.1690733" lon="13.6884417"><ele>122.25</ele><time>2026-03-22T12:56:01.897Z</time></trkpt><trkpt lat="43.16921" lon="13.6883783"><ele>125.5</ele><time>2026-03-22T12:56:02.897Z</time></trkpt><trkpt lat="43.1693467" lon="13.688335"><ele>128.75</ele><time>2026-03-22T12:56:03.896Z</time></trkpt><trkpt lat="43.1694983" lon="13.6883033"><ele>132.0</ele><time>2026-03-22T12:56:04.897Z</time></trkpt><trkpt lat="43.1696333" lon="13.6882567"><ele>132.0</ele><time>2026-03-22T12:56:05.897Z</time></trkpt><trkpt lat="43.16976" lon="13.6882033"><ele>132.0</ele><time>2026-03-22T12:56:06.896Z</time></trkpt><trkpt lat="43.1698833" lon="13.6881583"><ele>132.0</ele><time>2026-03-22T12:56:07.897Z</time></trkpt><trkpt lat="43.1699767" lon="13.6881417"><ele>132.0</ele><time>2026-03-22T12:56:08.897Z</time></trkpt><trkpt lat="43.1700433" lon="13.6881417"><ele>132.0</ele><time>2026-03-22T12:56:09.897Z</time></trkpt><trkpt lat="43.17012" lon="13.688225"><ele>133.79999999999998</ele><time>2026-03-22T12:56:11.897Z</time></trkpt><trkpt lat="43.1701233" lon="13.6883233"><ele>135.6</ele><time>2026-03-22T12:56:12.896Z</time></trkpt><trkpt lat="43.1701133" lon="13.6884667"><ele>137.39999999999998</ele><time>2026-03-22T12:56:13.897Z</time></trkpt><trkpt lat="43.1700917" lon="13.6886367"><ele>139.2</ele><time>2026-03-22T12:56:14.897Z</time></trkpt><trkpt lat="43.17008" lon="13.688795"><ele>141.0</ele><time>2026-03-22T12:56:15.897Z</time></trkpt><trkpt lat="43.1700833" lon="13.6889417"><ele>142.4</ele><time>2026-03-22T12:56:16.897Z</time></trkpt><trkpt lat="43.170085" lon="13.68908"><ele>143.8</ele><time>2026-03-22T12:56:17.897Z</time></trkpt><trkpt lat="43.170095" lon="13.68921"><ele>145.20000000000002</ele><time>2026-03-22T12:56:18.896Z</time></trkpt><trkpt lat="43.17011" lon="13.689335"><ele>146.6</ele><time>2026-03-22T12:56:19.897Z</time></trkpt><trkpt lat="43.170125" lon="13.68945"><ele>148.0</ele><time>2026-03-22T12:56:20.897Z</time></trkpt><trkpt lat="43.1701433" lon="13.689575"><ele>148.4</ele><time>2026-03-22T12:56:21.897Z</time></trkpt><trkpt lat="43.1701583" lon="13.6896917"><ele>148.8</ele><time>2026-03-22T12:56:22.897Z</time></trkpt><trkpt lat="43.1701833" lon="13.6898033"><ele>149.2</ele><time>2026-03-22T12:56:23.897Z</time></trkpt><trkpt lat="43.170215" lon="13.68991"><ele>149.6</ele><time>2026-03-22T12:56:24.897Z</time></trkpt><trkpt lat="43.17025" lon="13.6900383"><ele>150.0</ele><time>2026-03-22T12:56:25.896Z</time></trkpt><trkpt lat="43.1702867" lon="13.69017"><ele>151.2</ele><time>2026-03-22T12:56:26.897Z</time></trkpt><trkpt lat="43.170325" lon="13.6903017"><ele>152.4</ele><time>2026-03-22T12:56:27.896Z</time></trkpt><trkpt lat="43.1703667" lon="13.69044"><ele>153.6</ele><time>2026-03-22T12:56:28.896Z</time></trkpt><trkpt lat="43.17041" lon="13.6905683"><ele>154.8</ele><time>2026-03-22T12:56:29.897Z</time></trkpt><trkpt lat="43.170445" lon="13.6907033"><ele>156.0</ele><time>2026-03-22T12:56:30.897Z</time></trkpt><trkpt lat="43.1704867" lon="13.6908383"><ele>156.0</ele><time>2026-03-22T12:56:31.897Z</time></trkpt><trkpt lat="43.170525" lon="13.6909467"><ele>156.0</ele><time>2026-03-22T12:56:32.897Z</time></trkpt><trkpt lat="43.1705633" lon="13.6910517"><ele>156.0</ele><time>2026-03-22T12:56:33.896Z</time></trkpt><trkpt lat="43.1706" lon="13.6911533"><ele>156.0</ele><time>2026-03-22T12:56:34.897Z</time></trkpt><trkpt lat="43.17063" lon="13.6912733"><ele>156.0</ele><time>2026-03-22T12:56:35.896Z</time></trkpt><trkpt lat="43.1706533" lon="13.6913967"><ele>156.0</ele><time>2026-03-22T12:56:36.897Z</time></trkpt><trkpt lat="43.1706667" lon="13.6915217"><ele>158.0</ele><time>2026-03-22T12:56:37.896Z</time></trkpt><trkpt lat="43.17066" lon="13.6916367"><ele>160.0</ele><time>2026-03-22T12:56:38.897Z</time></trkpt><trkpt lat="43.1706567" lon="13.6917483"><ele>162.0</ele><time>2026-03-22T12:56:39.897Z</time></trkpt><trkpt lat="43.1706517" lon="13.691855"><ele>164.0</ele><time>2026-03-22T12:56:40.896Z</time></trkpt><trkpt lat="43.1706467" lon="13.6919617"><ele>166.0</ele><time>2026-03-22T12:56:41.896Z</time></trkpt><trkpt lat="43.1706467" lon="13.692135"><ele>168.0</ele><time>2026-03-22T12:56:43.897Z</time></trkpt><trkpt lat="43.1706517" lon="13.6922217"><ele>170.60000000000002</ele><time>2026-03-22T12:56:44.897Z</time></trkpt><trkpt lat="43.170665" lon="13.6923333"><ele>173.20000000000002</ele><time>2026-03-22T12:56:45.897Z</time></trkpt><trkpt lat="43.1706767" lon="13.6924633"><ele>175.8</ele><time>2026-03-22T12:56:46.897Z</time></trkpt><trkpt lat="43.1706917" lon="13.6926167"><ele>178.4</ele><time>2026-03-22T12:56:47.897Z</time></trkpt><trkpt lat="43.1707033" lon="13.6927883"><ele>181.0</ele><time>2026-03-22T12:56:48.896Z</time></trkpt><trkpt lat="43.1707083" lon="13.6929733"><ele>182.66666666666669</ele><time>2026-03-22T12:56:49.896Z</time></trkpt><trkpt lat="43.17071" lon="13.6931317"><ele>184.33333333333334</ele><time>2026-03-22T12:56:50.897Z</time></trkpt><trkpt lat="43.1707067" lon="13.6932517"><ele>186.0</ele><time>2026-03-22T12:56:51.896Z</time></trkpt><trkpt lat="43.1707017" lon="13.6933417"><ele>187.66666666666666</ele><time>2026-03-22T12:56:52.897Z</time></trkpt><trkpt lat="43.17063" lon="13.6934333"><ele>189.33333333333331</ele><time>2026-03-22T12:56:54.897Z</time></trkpt><trkpt lat="43.1705617" lon="13.69346"><ele>191.0</ele><time>2026-03-22T12:56:55.897Z</time></trkpt><trkpt lat="43.1704967" lon="13.69352"><ele>192.0</ele><time>2026-03-22T12:56:56.897Z</time></trkpt><trkpt lat="43.1704317" lon="13.693605"><ele>193.0</ele><time>2026-03-22T12:56:57.896Z</time></trkpt><trkpt lat="43.170375" lon="13.69371"><ele>194.0</ele><time>2026-03-22T12:56:58.897Z</time></trkpt><trkpt lat="43.170345" lon="13.6938517"><ele>195.0</ele><time>2026-03-22T12:56:59.897Z</time></trkpt><trkpt lat="43.1703383" lon="13.694"><ele>196.0</ele><time>2026-03-22T12:57:00.896Z</time></trkpt><trkpt lat="43.170365" lon="13.6941683"><ele>196.0</ele><time>2026-03-22T12:57:01.896Z</time></trkpt><trkpt lat="43.1704067" lon="13.6943383"><ele>196.0</ele><time>2026-03-22T12:57:02.896Z</time></trkpt><trkpt lat="43.1704683" lon="13.69452"><ele>196.0</ele><time>2026-03-22T12:57:03.897Z</time></trkpt><trkpt lat="43.170595" lon="13.6949017"><ele>194.0</ele><time>2026-03-22T12:57:05.896Z</time></trkpt><trkpt lat="43.170635" lon="13.69512"><ele>192.0</ele><time>2026-03-22T12:57:06.896Z</time></trkpt><trkpt lat="43.17066" lon="13.69536"><ele>190.0</ele><time>2026-03-22T12:57:07.896Z</time></trkpt><trkpt lat="43.1706867" lon="13.6956067"><ele>189.33333333333334</ele><time>2026-03-22T12:57:08.897Z</time></trkpt><trkpt lat="43.1707017" lon="13.6958267"><ele>188.66666666666666</ele><time>2026-03-22T12:57:09.897Z</time></trkpt><trkpt lat="43.1707317" lon="13.6960383"><ele>188.0</ele><time>2026-03-22T12:57:10.897Z</time></trkpt><trkpt lat="43.1707633" lon="13.6962683"><ele>190.66666666666666</ele><time>2026-03-22T12:57:11.896Z</time></trkpt><trkpt lat="43.1708017" lon="13.6964717"><ele>193.33333333333331</ele><time>2026-03-22T12:57:12.896Z</time></trkpt><trkpt lat="43.17085" lon="13.6966667"><ele>196.0</ele><time>2026-03-22T12:57:13.896Z</time></trkpt><trkpt lat="43.1709067" lon="13.6968533"><ele>198.75</ele><time>2026-03-22T12:57:14.896Z</time></trkpt><trkpt lat="43.17096" lon="13.6970333"><ele>201.5</ele><time>2026-03-22T12:57:15.896Z</time></trkpt><trkpt lat="43.1710133" lon="13.6972017"><ele>204.25</ele><time>2026-03-22T12:57:16.896Z</time></trkpt><trkpt lat="43.1710617" lon="13.6973567"><ele>207.0</ele><time>2026-03-22T12:57:17.897Z</time></trkpt><trkpt lat="43.1711017" lon="13.697505"><ele>207.0</ele><time>2026-03-22T12:57:18.896Z</time></trkpt><trkpt lat="43.171125" lon="13.697665"><ele>207.0</ele><time>2026-03-22T12:57:19.897Z</time></trkpt><trkpt lat="43.1711417" lon="13.6978483"><ele>207.0</ele><time>2026-03-22T12:57:20.896Z</time></trkpt><trkpt lat="43.17115" lon="13.698025"><ele>207.0</ele><time>2026-03-22T12:57:21.896Z</time></trkpt><trkpt lat="43.171145" lon="13.69824"><ele>208.33333333333331</ele><time>2026-03-22T12:57:22.897Z</time></trkpt><trkpt lat="43.1711433" lon="13.6984567"><ele>209.66666666666666</ele><time>2026-03-22T12:57:23.896Z</time></trkpt><trkpt lat="43.17116" lon="13.698675"><ele>211.0</ele><time>2026-03-22T12:57:24.896Z</time></trkpt><trkpt lat="43.1711867" lon="13.6988817"><ele>211.5</ele><time>2026-03-22T12:57:25.897Z</time></trkpt><trkpt lat="43.17123" lon="13.6990867"><ele>212.0</ele><time>2026-03-22T12:57:26.897Z</time></trkpt><trkpt lat="43.1712767" lon="13.699285"><ele>212.5</ele><time>2026-03-22T12:57:27.897Z</time></trkpt><trkpt lat="43.17132" lon="13.6994633"><ele>213.0</ele><time>2026-03-22T12:57:28.896Z</time></trkpt><trkpt lat="43.1713417" lon="13.6996133"><ele>215.0</ele><time>2026-03-22T12:57:29.896Z</time></trkpt><trkpt lat="43.1713467" lon="13.699755"><ele>217.0</ele><time>2026-03-22T12:57:30.897Z</time></trkpt><trkpt lat="43.1713283" lon="13.6998783"><ele>219.0</ele><time>2026-03-22T12:57:31.897Z</time></trkpt><trkpt lat="43.1713067" lon="13.699975"><ele>221.0</ele><time>2026-03-22T12:57:32.897Z</time></trkpt><trkpt lat="43.171265" lon="13.700065"><ele>223.0</ele><time>2026-03-22T12:57:33.897Z</time></trkpt><trkpt lat="43.171205" lon="13.7001233"><ele>225.0</ele><time>2026-03-22T12:57:34.897Z</time></trkpt><trkpt lat="43.17113" lon="13.70015"><ele>225.0</ele><time>2026-03-22T12:57:35.896Z</time></trkpt><trkpt lat="43.1710267" lon="13.7001667"><ele>225.0</ele><time>2026-03-22T12:57:36.896Z</time></trkpt><trkpt lat="43.170915" lon="13.7001683"><ele>225.0</ele><time>2026-03-22T12:57:37.896Z</time></trkpt><trkpt lat="43.1707917" lon="13.7001617"><ele>225.0</ele><time>2026-03-22T12:57:38.897Z</time></trkpt><trkpt lat="43.17066" lon="13.7001633"><ele>226.0</ele><time>2026-03-22T12:57:39.897Z</time></trkpt><trkpt lat="43.1705183" lon="13.7001783"><ele>227.0</ele><time>2026-03-22T12:57:40.897Z</time></trkpt><trkpt lat="43.1703783" lon="13.70023"><ele>228.0</ele><time>2026-03-22T12:57:41.896Z</time></trkpt><trkpt lat="43.1702283" lon="13.7002917"><ele>229.0</ele><time>2026-03-22T12:57:42.897Z</time></trkpt><trkpt lat="43.170075" lon="13.70037"><ele>229.0</ele><time>2026-03-22T12:57:43.896Z</time></trkpt><trkpt lat="43.1699417" lon="13.700455"><ele>229.0</ele><time>2026-03-22T12:57:44.897Z</time></trkpt><trkpt lat="43.16983" lon="13.7005717"><ele>229.0</ele><time>2026-03-22T12:57:45.896Z</time></trkpt><trkpt lat="43.1697317" lon="13.7007117"><ele>229.0</ele><time>2026-03-22T12:57:46.897Z</time></trkpt><trkpt lat="43.16965" lon="13.700875"><ele>227.33333333333331</ele><time>2026-03-22T12:57:47.896Z</time></trkpt><trkpt lat="43.16957" lon="13.7010583"><ele>225.66666666666669</ele><time>2026-03-22T12:57:48.897Z</time></trkpt><trkpt lat="43.16949" lon="13.7012333"><ele>224.0</ele><time>2026-03-22T12:57:49.896Z</time></trkpt><trkpt lat="43.169405" lon="13.7014317"><ele>224.0</ele><time>2026-03-22T12:57:50.897Z</time></trkpt><trkpt lat="43.1693033" lon="13.7016467"><ele>224.0</ele><time>2026-03-22T12:57:51.896Z</time></trkpt><trkpt lat="43.1692067" lon="13.7018633"><ele>224.0</ele><time>2026-03-22T12:57:52.896Z</time></trkpt><trkpt lat="43.1691267" lon="13.7020683"><ele>226.0</ele><time>2026-03-22T12:57:53.897Z</time></trkpt><trkpt lat="43.1690333" lon="13.7022433"><ele>228.0</ele><time>2026-03-22T12:57:54.897Z</time></trkpt><trkpt lat="43.1689467" lon="13.70242"><ele>230.0</ele><time>2026-03-22T12:57:55.897Z</time></trkpt><trkpt lat="43.1688583" lon="13.702585"><ele>226.66666666666669</ele><time>2026-03-22T12:57:56.897Z</time></trkpt><trkpt lat="43.168785" lon="13.7027617"><ele>223.33333333333331</ele><time>2026-03-22T12:57:57.897Z</time></trkpt><trkpt lat="43.16872" lon="13.702945"><ele>220.0</ele><time>2026-03-22T12:57:58.896Z</time></trkpt><trkpt lat="43.168655" lon="13.7031467"><ele>220.0</ele><time>2026-03-22T12:57:59.896Z</time></trkpt><trkpt lat="43.16858" lon="13.703345"><ele>220.0</ele><time>2026-03-22T12:58:00.896Z</time></trkpt><trkpt lat="43.1684833" lon="13.703515"><ele>220.0</ele><time>2026-03-22T12:58:01.896Z</time></trkpt><trkpt lat="43.1683833" lon="13.703675"><ele>222.0</ele><time>2026-03-22T12:58:02.897Z</time></trkpt><trkpt lat="43.16828" lon="13.7038533"><ele>224.0</ele><time>2026-03-22T12:58:03.897Z</time></trkpt><trkpt lat="43.168185" lon="13.70404"><ele>226.0</ele><time>2026-03-22T12:58:04.897Z</time></trkpt><trkpt lat="43.168095" lon="13.7042133"><ele>226.0</ele><time>2026-03-22T12:58:05.896Z</time></trkpt><trkpt lat="43.1680033" lon="13.704345"><ele>226.0</ele><time>2026-03-22T12:58:06.896Z</time></trkpt><trkpt lat="43.16791" lon="13.704455"><ele>226.0</ele><time>2026-03-22T12:58:07.897Z</time></trkpt><trkpt lat="43.16782" lon="13.7045383"><ele>226.0</ele><time>2026-03-22T12:58:08.897Z</time></trkpt><trkpt lat="43.1677433" lon="13.704605"><ele>226.20000000000002</ele><time>2026-03-22T12:58:09.897Z</time></trkpt><trkpt lat="43.1676867" lon="13.7046717"><ele>226.40000000000003</ele><time>2026-03-22T12:58:10.897Z</time></trkpt><trkpt lat="43.1675967" lon="13.7047567"><ele>226.6</ele><time>2026-03-22T12:58:12.897Z</time></trkpt><trkpt lat="43.1675" lon="13.7047067"><ele>226.8</ele><time>2026-03-22T12:59:24.897Z</time></trkpt><trkpt lat="43.16738" lon="13.7047767"><ele>227.0</ele><time>2026-03-22T12:59:26.897Z</time></trkpt><trkpt lat="43.1672617" lon="13.7048183"><ele>224.5</ele><time>2026-03-22T12:59:27.896Z</time></trkpt><trkpt lat="43.1671333" lon="13.7048433"><ele>222.0</ele><time>2026-03-22T12:59:28.896Z</time></trkpt><trkpt lat="43.166975" lon="13.7048567"><ele>219.5</ele><time>2026-03-22T12:59:29.897Z</time></trkpt><trkpt lat="43.16684" lon="13.7048583"><ele>217.0</ele><time>2026-03-22T12:59:30.896Z</time></trkpt><trkpt lat="43.166695" lon="13.704865"><ele>217.0</ele><time>2026-03-22T12:59:31.897Z</time></trkpt><trkpt lat="43.1665767" lon="13.7048633"><ele>217.0</ele><time>2026-03-22T12:59:32.897Z</time></trkpt><trkpt lat="43.1664517" lon="13.70486"><ele>217.0</ele><time>2026-03-22T12:59:33.896Z</time></trkpt><trkpt lat="43.1663433" lon="13.7048467"><ele>217.0</ele><time>2026-03-22T12:59:34.897Z</time></trkpt><trkpt lat="43.16625" lon="13.7048267"><ele>217.0</ele><time>2026-03-22T12:59:35.897Z</time></trkpt><trkpt lat="43.1661767" lon="13.7047983"><ele>214.39999999999998</ele><time>2026-03-22T12:59:36.896Z</time></trkpt><trkpt lat="43.16611" lon="13.7048083"><ele>211.79999999999998</ele><time>2026-03-22T12:59:37.897Z</time></trkpt><trkpt lat="43.1660217" lon="13.7048533"><ele>209.2</ele><time>2026-03-22T12:59:39.897Z</time></trkpt><trkpt lat="43.165985" lon="13.7050017"><ele>206.6</ele><time>2026-03-22T12:59:41.896Z</time></trkpt><trkpt lat="43.1659883" lon="13.705105"><ele>204.0</ele><time>2026-03-22T12:59:42.897Z</time></trkpt><trkpt lat="43.166035" lon="13.7052567"><ele>201.66666666666669</ele><time>2026-03-22T12:59:43.896Z</time></trkpt><trkpt lat="43.1661217" lon="13.7054517"><ele>199.33333333333334</ele><time>2026-03-22T12:59:44.896Z</time></trkpt><trkpt lat="43.1662417" lon="13.7057317"><ele>197.0</ele><time>2026-03-22T12:59:45.896Z</time></trkpt><trkpt lat="43.166365" lon="13.70601"><ele>194.5</ele><time>2026-03-22T12:59:46.897Z</time></trkpt><trkpt lat="43.166495" lon="13.7062933"><ele>192.0</ele><time>2026-03-22T12:59:47.897Z</time></trkpt><trkpt lat="43.16661" lon="13.706575"><ele>195.5</ele><time>2026-03-22T12:59:48.896Z</time></trkpt><trkpt lat="43.1667483" lon="13.70687"><ele>199.0</ele><time>2026-03-22T12:59:49.896Z</time></trkpt><trkpt lat="43.1668683" lon="13.7071717"><ele>199.0</ele><time>2026-03-22T12:59:50.897Z</time></trkpt><trkpt lat="43.1669983" lon="13.7074633"><ele>199.0</ele><time>2026-03-22T12:59:51.897Z</time></trkpt><trkpt lat="43.1671033" lon="13.707735"><ele>197.66666666666666</ele><time>2026-03-22T12:59:52.897Z</time></trkpt><trkpt lat="43.1672017" lon="13.7079817"><ele>196.33333333333331</ele><time>2026-03-22T12:59:53.897Z</time></trkpt><trkpt lat="43.1673017" lon="13.7082183"><ele>195.0</ele><time>2026-03-22T12:59:54.897Z</time></trkpt><trkpt lat="43.1673983" lon="13.708435"><ele>196.0</ele><time>2026-03-22T12:59:55.897Z</time></trkpt><trkpt lat="43.1675117" lon="13.70865"><ele>197.0</ele><time>2026-03-22T12:59:56.896Z</time></trkpt><trkpt lat="43.1676283" lon="13.70886"><ele>198.0</ele><time>2026-03-22T12:59:57.897Z</time></trkpt><trkpt lat="43.1677517" lon="13.7090733"><ele>198.0</ele><time>2026-03-22T12:59:58.896Z</time></trkpt><trkpt lat="43.167885" lon="13.7092867"><ele>198.0</ele><time>2026-03-22T12:59:59.896Z</time></trkpt><trkpt lat="43.168015" lon="13.7094967"><ele>198.0</ele><time>2026-03-22T13:00:00.897Z</time></trkpt><trkpt lat="43.1681367" lon="13.7097117"><ele>197.33333333333331</ele><time>2026-03-22T13:00:01.897Z</time></trkpt><trkpt lat="43.1682883" lon="13.7099167"><ele>196.66666666666666</ele><time>2026-03-22T13:00:02.896Z</time></trkpt><trkpt lat="43.1684367" lon="13.7101217"><ele>196.0</ele><time>2026-03-22T13:00:03.897Z</time></trkpt><trkpt lat="43.1685967" lon="13.71033"><ele>196.0</ele><time>2026-03-22T13:00:04.896Z</time></trkpt><trkpt lat="43.1687567" lon="13.7105067"><ele>196.0</ele><time>2026-03-22T13:00:05.896Z</time></trkpt><trkpt lat="43.1689217" lon="13.7106867"><ele>196.0</ele><time>2026-03-22T13:00:06.897Z</time></trkpt><trkpt lat="43.1690867" lon="13.71087"><ele>198.0</ele><time>2026-03-22T13:00:07.897Z</time></trkpt><trkpt lat="43.1692533" lon="13.7110567"><ele>200.0</ele><time>2026-03-22T13:00:08.897Z</time></trkpt><trkpt lat="43.1694067" lon="13.7112567"><ele>202.0</ele><time>2026-03-22T13:00:09.897Z</time></trkpt><trkpt lat="43.1695567" lon="13.7114533"><ele>202.0</ele><time>2026-03-22T13:00:10.896Z</time></trkpt><trkpt lat="43.1697117" lon="13.7116583"><ele>202.0</ele><time>2026-03-22T13:00:11.896Z</time></trkpt><trkpt lat="43.16985" lon="13.7118783"><ele>202.0</ele><time>2026-03-22T13:00:12.896Z</time></trkpt><trkpt lat="43.1699733" lon="13.71211"><ele>204.33333333333331</ele><time>2026-03-22T13:00:13.897Z</time></trkpt><trkpt lat="43.1701" lon="13.712335"><ele>206.66666666666669</ele><time>2026-03-22T13:00:14.897Z</time></trkpt><trkpt lat="43.170235" lon="13.7125583"><ele>209.0</ele><time>2026-03-22T13:00:15.896Z</time></trkpt><trkpt lat="43.1703683" lon="13.7127767"><ele>210.33333333333334</ele><time>2026-03-22T13:00:16.896Z</time></trkpt><trkpt lat="43.1705233" lon="13.712985"><ele>211.66666666666669</ele><time>2026-03-22T13:00:17.897Z</time></trkpt><trkpt lat="43.1706717" lon="13.7131983"><ele>213.0</ele><time>2026-03-22T13:00:18.896Z</time></trkpt><trkpt lat="43.1708183" lon="13.7133867"><ele>209.0</ele><time>2026-03-22T13:00:19.896Z</time></trkpt><trkpt lat="43.1709717" lon="13.7135767"><ele>205.0</ele><time>2026-03-22T13:00:20.897Z</time></trkpt><trkpt lat="43.1711117" lon="13.7137533"><ele>201.0</ele><time>2026-03-22T13:00:21.896Z</time></trkpt><trkpt lat="43.1712533" lon="13.713935"><ele>201.0</ele><time>2026-03-22T13:00:22.896Z</time></trkpt><trkpt lat="43.1714117" lon="13.7141167"><ele>201.0</ele><time>2026-03-22T13:00:23.897Z</time></trkpt><trkpt lat="43.1715733" lon="13.714285"><ele>201.0</ele><time>2026-03-22T13:00:24.896Z</time></trkpt><trkpt lat="43.17174" lon="13.7144317"><ele>201.66666666666669</ele><time>2026-03-22T13:00:25.896Z</time></trkpt><trkpt lat="43.1719167" lon="13.71457"><ele>202.33333333333334</ele><time>2026-03-22T13:00:26.897Z</time></trkpt><trkpt lat="43.1720917" lon="13.7147017"><ele>203.0</ele><time>2026-03-22T13:00:27.896Z</time></trkpt><trkpt lat="43.17226" lon="13.71485"><ele>202.33333333333334</ele><time>2026-03-22T13:00:28.897Z</time></trkpt><trkpt lat="43.1724233" lon="13.715015"><ele>201.66666666666669</ele><time>2026-03-22T13:00:29.897Z</time></trkpt><trkpt lat="43.1725683" lon="13.7152067"><ele>201.0</ele><time>2026-03-22T13:00:30.896Z</time></trkpt><trkpt lat="43.17269" lon="13.7154233"><ele>201.0</ele><time>2026-03-22T13:00:31.897Z</time></trkpt><trkpt lat="43.1727933" lon="13.7156517"><ele>201.0</ele><time>2026-03-22T13:00:32.897Z</time></trkpt><trkpt lat="43.172895" lon="13.71588"><ele>201.0</ele><time>2026-03-22T13:00:33.896Z</time></trkpt><trkpt lat="43.173" lon="13.71612"><ele>199.0</ele><time>2026-03-22T13:00:34.896Z</time></trkpt><trkpt lat="43.173105" lon="13.716365"><ele>197.0</ele><time>2026-03-22T13:00:35.897Z</time></trkpt><trkpt lat="43.173205" lon="13.716615"><ele>195.0</ele><time>2026-03-22T13:00:36.897Z</time></trkpt><trkpt lat="43.17329" lon="13.716865"><ele>194.0</ele><time>2026-03-22T13:00:37.897Z</time></trkpt><trkpt lat="43.1733533" lon="13.7171233"><ele>193.0</ele><time>2026-03-22T13:00:38.897Z</time></trkpt><trkpt lat="43.1734033" lon="13.7173917"><ele>192.0</ele><time>2026-03-22T13:00:39.897Z</time></trkpt><trkpt lat="43.173455" lon="13.7176517"><ele>190.0</ele><time>2026-03-22T13:00:40.896Z</time></trkpt><trkpt lat="43.1735017" lon="13.7179167"><ele>188.0</ele><time>2026-03-22T13:00:41.897Z</time></trkpt><trkpt lat="43.1735483" lon="13.71819"><ele>186.0</ele><time>2026-03-22T13:00:42.897Z</time></trkpt><trkpt lat="43.1735967" lon="13.7184633"><ele>184.33333333333334</ele><time>2026-03-22T13:00:43.896Z</time></trkpt><trkpt lat="43.1736417" lon="13.7187367"><ele>182.66666666666669</ele><time>2026-03-22T13:00:44.896Z</time></trkpt><trkpt lat="43.17369" lon="13.7190033"><ele>181.0</ele><time>2026-03-22T13:00:45.897Z</time></trkpt><trkpt lat="43.1737367" lon="13.7192783"><ele>178.0</ele><time>2026-03-22T13:00:46.897Z</time></trkpt><trkpt lat="43.1737833" lon="13.719545"><ele>175.0</ele><time>2026-03-22T13:00:47.897Z</time></trkpt><trkpt lat="43.1738383" lon="13.719815"><ele>172.0</ele><time>2026-03-22T13:00:48.897Z</time></trkpt><trkpt lat="43.1738883" lon="13.7200833"><ele>171.0</ele><time>2026-03-22T13:00:49.897Z</time></trkpt><trkpt lat="43.173945" lon="13.72035"><ele>170.0</ele><time>2026-03-22T13:00:50.897Z</time></trkpt><trkpt lat="43.1740033" lon="13.7206083"><ele>169.0</ele><time>2026-03-22T13:00:51.896Z</time></trkpt><trkpt lat="43.1740733" lon="13.7208567"><ele>166.33333333333334</ele><time>2026-03-22T13:00:52.897Z</time></trkpt><trkpt lat="43.1741667" lon="13.7211083"><ele>163.66666666666666</ele><time>2026-03-22T13:00:53.897Z</time></trkpt><trkpt lat="43.17426" lon="13.7213283"><ele>161.0</ele><time>2026-03-22T13:00:54.897Z</time></trkpt><trkpt lat="43.1743517" lon="13.7215333"><ele>161.0</ele><time>2026-03-22T13:00:55.897Z</time></trkpt><trkpt lat="43.17444" lon="13.7217117"><ele>161.0</ele><time>2026-03-22T13:00:56.897Z</time></trkpt><trkpt lat="43.174515" lon="13.7218683"><ele>161.0</ele><time>2026-03-22T13:00:57.897Z</time></trkpt><trkpt lat="43.17459" lon="13.7220183"><ele>161.0</ele><time>2026-03-22T13:00:58.896Z</time></trkpt><trkpt lat="43.1746533" lon="13.7221717"><ele>160.0</ele><time>2026-03-22T13:00:59.897Z</time></trkpt><trkpt lat="43.1747217" lon="13.722325"><ele>159.0</ele><time>2026-03-22T13:01:00.897Z</time></trkpt><trkpt lat="43.1747983" lon="13.72249"><ele>158.0</ele><time>2026-03-22T13:01:01.897Z</time></trkpt><trkpt lat="43.1748683" lon="13.7226617"><ele>157.0</ele><time>2026-03-22T13:01:02.897Z</time></trkpt><trkpt lat="43.174915" lon="13.72286"><ele>155.66666666666669</ele><time>2026-03-22T13:01:03.897Z</time></trkpt><trkpt lat="43.17496" lon="13.723045"><ele>154.33333333333334</ele><time>2026-03-22T13:01:04.897Z</time></trkpt><trkpt lat="43.1750167" lon="13.7232117"><ele>153.0</ele><time>2026-03-22T13:01:05.896Z</time></trkpt><trkpt lat="43.17513" lon="13.7235817"><ele>145.0</ele><time>2026-03-22T13:01:07.897Z</time></trkpt><trkpt lat="43.1752033" lon="13.72376"><ele>145.0</ele><time>2026-03-22T13:01:08.897Z</time></trkpt></trkseg></trk></gpx>